<?xml version="1.0" encoding="UTF-8" standalone="no" ?>
<gpx xmlns="http://www.topografix.com/GPX/1/1" xmlns:xsi="http://www.w3.org/2001/XMLSchema-instance" xsi:schemaLocation="http://www.topografix.com/GPX/1/1 http://www.topografix.com/GPX/1/1/gpx.xsd" version="1.1" creator="VisuGPX - https://www.visugpx.com">
  <metadata>
    <name>Plateau de Retord et Haut Bugey Mai 2026 #D (jour3)</name>
    <desc><![CDATA[En 2025, lors d'un voyage à vélo empruntant la GTJ Gravel, nous n'avions pas terminé le dernier jour à cause d'une météo défavorable avant d'arriver sur le plateau de Retord.
Objectif 2026 : faire des boucles Gravel sur le plateau de Retord au départ de Hauteville-Lompnes.
5 jours de vélo début mai 2026
Cette trace permet de faire une bonne partie de la GTJ sur le plateau et au sud de Hauteville-Lompnes : 1ère partie de cette trace selon un axe nord/sud et entre La-Praille et la montagne de Sérémond. Ensuite le retour se fait en passant par le belvédère de Sérémond et le plan d'eau des Lésines]]></desc>
  </metadata>
  <trk>
    <name><![CDATA[Plateau de Retord et Haut Bugey Mai 2026 #D (jour3)_1]]></name>
    <trkseg>
      <trkpt lat="46.02286" lon="5.5912">
        <ele>818</ele>
        <time>2026-05-12T07:09:32Z</time>
      </trkpt>
      <trkpt lat="46.02286" lon="5.59123">
        <ele>818</ele>
        <time>2026-05-12T07:09:33Z</time>
      </trkpt>
      <trkpt lat="46.02287" lon="5.59127">
        <ele>817.8</ele>
        <time>2026-05-12T07:09:34Z</time>
      </trkpt>
      <trkpt lat="46.02288" lon="5.5913">
        <ele>817.4</ele>
        <time>2026-05-12T07:09:35Z</time>
      </trkpt>
      <trkpt lat="46.0229" lon="5.59133">
        <ele>817.4</ele>
        <time>2026-05-12T07:09:36Z</time>
      </trkpt>
      <trkpt lat="46.02292" lon="5.59136">
        <ele>817.4</ele>
        <time>2026-05-12T07:09:37Z</time>
      </trkpt>
      <trkpt lat="46.02294" lon="5.5914">
        <ele>817.4</ele>
        <time>2026-05-12T07:09:38Z</time>
      </trkpt>
      <trkpt lat="46.02295" lon="5.59144">
        <ele>817.4</ele>
        <time>2026-05-12T07:09:39Z</time>
      </trkpt>
      <trkpt lat="46.02297" lon="5.59148">
        <ele>817.4</ele>
        <time>2026-05-12T07:09:40Z</time>
      </trkpt>
      <trkpt lat="46.02298" lon="5.59152">
        <ele>817.4</ele>
        <time>2026-05-12T07:09:41Z</time>
      </trkpt>
      <trkpt lat="46.02299" lon="5.59156">
        <ele>817.4</ele>
        <time>2026-05-12T07:09:42Z</time>
      </trkpt>
      <trkpt lat="46.02299" lon="5.59161">
        <ele>817.4</ele>
        <time>2026-05-12T07:09:43Z</time>
      </trkpt>
      <trkpt lat="46.023" lon="5.59166">
        <ele>817.8</ele>
        <time>2026-05-12T07:09:44Z</time>
      </trkpt>
      <trkpt lat="46.02299" lon="5.5917">
        <ele>817.8</ele>
        <time>2026-05-12T07:09:45Z</time>
      </trkpt>
      <trkpt lat="46.023" lon="5.59175">
        <ele>817.8</ele>
        <time>2026-05-12T07:09:46Z</time>
      </trkpt>
      <trkpt lat="46.023" lon="5.5918">
        <ele>817.8</ele>
        <time>2026-05-12T07:09:47Z</time>
      </trkpt>
      <trkpt lat="46.023" lon="5.59184">
        <ele>817.8</ele>
        <time>2026-05-12T07:09:48Z</time>
      </trkpt>
      <trkpt lat="46.023" lon="5.59189">
        <ele>817.8</ele>
        <time>2026-05-12T07:09:49Z</time>
      </trkpt>
      <trkpt lat="46.02301" lon="5.59194">
        <ele>817.6</ele>
        <time>2026-05-12T07:09:50Z</time>
      </trkpt>
      <trkpt lat="46.02301" lon="5.59198">
        <ele>817.8</ele>
        <time>2026-05-12T07:09:51Z</time>
      </trkpt>
      <trkpt lat="46.02302" lon="5.59203">
        <ele>818</ele>
        <time>2026-05-12T07:09:52Z</time>
      </trkpt>
      <trkpt lat="46.02303" lon="5.59208">
        <ele>818</ele>
        <time>2026-05-12T07:09:53Z</time>
      </trkpt>
      <trkpt lat="46.02304" lon="5.59212">
        <ele>818</ele>
        <time>2026-05-12T07:09:54Z</time>
      </trkpt>
      <trkpt lat="46.02305" lon="5.59217">
        <ele>818</ele>
        <time>2026-05-12T07:09:55Z</time>
      </trkpt>
      <trkpt lat="46.02306" lon="5.59223">
        <ele>818</ele>
        <time>2026-05-12T07:09:56Z</time>
      </trkpt>
      <trkpt lat="46.02307" lon="5.59228">
        <ele>818</ele>
        <time>2026-05-12T07:09:57Z</time>
      </trkpt>
      <trkpt lat="46.02307" lon="5.59234">
        <ele>818</ele>
        <time>2026-05-12T07:09:58Z</time>
      </trkpt>
      <trkpt lat="46.02307" lon="5.5924">
        <ele>818</ele>
        <time>2026-05-12T07:09:59Z</time>
      </trkpt>
      <trkpt lat="46.02307" lon="5.59246">
        <ele>818</ele>
        <time>2026-05-12T07:10:00Z</time>
      </trkpt>
      <trkpt lat="46.02307" lon="5.59253">
        <ele>817.8</ele>
        <time>2026-05-12T07:10:01Z</time>
      </trkpt>
      <trkpt lat="46.02306" lon="5.59259">
        <ele>817.8</ele>
        <time>2026-05-12T07:10:02Z</time>
      </trkpt>
      <trkpt lat="46.02305" lon="5.59264">
        <ele>817.8</ele>
        <time>2026-05-12T07:10:03Z</time>
      </trkpt>
      <trkpt lat="46.02303" lon="5.5927">
        <ele>817.8</ele>
        <time>2026-05-12T07:10:04Z</time>
      </trkpt>
      <trkpt lat="46.02301" lon="5.59275">
        <ele>817.8</ele>
        <time>2026-05-12T07:10:05Z</time>
      </trkpt>
      <trkpt lat="46.02299" lon="5.59279">
        <ele>817.8</ele>
        <time>2026-05-12T07:10:06Z</time>
      </trkpt>
      <trkpt lat="46.02296" lon="5.59283">
        <ele>817.8</ele>
        <time>2026-05-12T07:10:07Z</time>
      </trkpt>
      <trkpt lat="46.02293" lon="5.59286">
        <ele>817.8</ele>
        <time>2026-05-12T07:10:08Z</time>
      </trkpt>
      <trkpt lat="46.02293" lon="5.59286">
        <ele>817.8</ele>
        <time>2026-05-12T07:10:09Z</time>
      </trkpt>
      <trkpt lat="46.02293" lon="5.59286">
        <ele>818.2</ele>
        <time>2026-05-12T07:10:10Z</time>
      </trkpt>
      <trkpt lat="46.02283" lon="5.59292">
        <ele>818.2</ele>
        <time>2026-05-12T07:10:11Z</time>
      </trkpt>
      <trkpt lat="46.02277" lon="5.59296">
        <ele>818.4</ele>
        <time>2026-05-12T07:10:12Z</time>
      </trkpt>
      <trkpt lat="46.02273" lon="5.59298">
        <ele>818.4</ele>
        <time>2026-05-12T07:10:13Z</time>
      </trkpt>
      <trkpt lat="46.02271" lon="5.59299">
        <ele>818.4</ele>
        <time>2026-05-12T07:10:14Z</time>
      </trkpt>
      <trkpt lat="46.02268" lon="5.59301">
        <ele>818.4</ele>
        <time>2026-05-12T07:10:15Z</time>
      </trkpt>
      <trkpt lat="46.02265" lon="5.59302">
        <ele>818.4</ele>
        <time>2026-05-12T07:10:16Z</time>
      </trkpt>
      <trkpt lat="46.02262" lon="5.59302">
        <ele>818.4</ele>
        <time>2026-05-12T07:10:17Z</time>
      </trkpt>
      <trkpt lat="46.02259" lon="5.59302">
        <ele>818.4</ele>
        <time>2026-05-12T07:10:18Z</time>
      </trkpt>
      <trkpt lat="46.02256" lon="5.59302">
        <ele>818.4</ele>
        <time>2026-05-12T07:10:19Z</time>
      </trkpt>
      <trkpt lat="46.02252" lon="5.59302">
        <ele>818.4</ele>
        <time>2026-05-12T07:10:20Z</time>
      </trkpt>
      <trkpt lat="46.02249" lon="5.59302">
        <ele>818.6</ele>
        <time>2026-05-12T07:10:21Z</time>
      </trkpt>
      <trkpt lat="46.02246" lon="5.59302">
        <ele>818.6</ele>
        <time>2026-05-12T07:10:22Z</time>
      </trkpt>
      <trkpt lat="46.02243" lon="5.59302">
        <ele>818.6</ele>
        <time>2026-05-12T07:10:23Z</time>
      </trkpt>
      <trkpt lat="46.02239" lon="5.59302">
        <ele>818.6</ele>
        <time>2026-05-12T07:10:24Z</time>
      </trkpt>
      <trkpt lat="46.02236" lon="5.59302">
        <ele>818.6</ele>
        <time>2026-05-12T07:10:25Z</time>
      </trkpt>
      <trkpt lat="46.02233" lon="5.59303">
        <ele>819.2</ele>
        <time>2026-05-12T07:10:26Z</time>
      </trkpt>
      <trkpt lat="46.0223" lon="5.59305">
        <ele>819.2</ele>
        <time>2026-05-12T07:10:27Z</time>
      </trkpt>
      <trkpt lat="46.02227" lon="5.59306">
        <ele>819.4</ele>
        <time>2026-05-12T07:10:28Z</time>
      </trkpt>
      <trkpt lat="46.02224" lon="5.59308">
        <ele>819.4</ele>
        <time>2026-05-12T07:10:29Z</time>
      </trkpt>
      <trkpt lat="46.02221" lon="5.5931">
        <ele>819.4</ele>
        <time>2026-05-12T07:10:30Z</time>
      </trkpt>
      <trkpt lat="46.02218" lon="5.59313">
        <ele>819.4</ele>
        <time>2026-05-12T07:10:31Z</time>
      </trkpt>
      <trkpt lat="46.02216" lon="5.59317">
        <ele>819.4</ele>
        <time>2026-05-12T07:10:32Z</time>
      </trkpt>
      <trkpt lat="46.02214" lon="5.59321">
        <ele>819.4</ele>
        <time>2026-05-12T07:10:33Z</time>
      </trkpt>
      <trkpt lat="46.02212" lon="5.59325">
        <ele>819.4</ele>
        <time>2026-05-12T07:10:34Z</time>
      </trkpt>
      <trkpt lat="46.02211" lon="5.5933">
        <ele>819.4</ele>
        <time>2026-05-12T07:10:35Z</time>
      </trkpt>
      <trkpt lat="46.02211" lon="5.59335">
        <ele>819.4</ele>
        <time>2026-05-12T07:10:36Z</time>
      </trkpt>
      <trkpt lat="46.02212" lon="5.5934">
        <ele>819.4</ele>
        <time>2026-05-12T07:10:37Z</time>
      </trkpt>
      <trkpt lat="46.02212" lon="5.59345">
        <ele>819.4</ele>
        <time>2026-05-12T07:10:38Z</time>
      </trkpt>
      <trkpt lat="46.02214" lon="5.5935">
        <ele>819.4</ele>
        <time>2026-05-12T07:10:39Z</time>
      </trkpt>
      <trkpt lat="46.02214" lon="5.5935">
        <ele>819.4</ele>
        <time>2026-05-12T07:10:40Z</time>
      </trkpt>
      <trkpt lat="46.02215" lon="5.59355">
        <ele>819.4</ele>
        <time>2026-05-12T07:10:41Z</time>
      </trkpt>
      <trkpt lat="46.02216" lon="5.59361">
        <ele>819.4</ele>
        <time>2026-05-12T07:10:42Z</time>
      </trkpt>
      <trkpt lat="46.02217" lon="5.59366">
        <ele>819.4</ele>
        <time>2026-05-12T07:10:43Z</time>
      </trkpt>
      <trkpt lat="46.02217" lon="5.59371">
        <ele>819.6</ele>
        <time>2026-05-12T07:10:44Z</time>
      </trkpt>
      <trkpt lat="46.02218" lon="5.59377">
        <ele>819.6</ele>
        <time>2026-05-12T07:10:45Z</time>
      </trkpt>
      <trkpt lat="46.02219" lon="5.59382">
        <ele>819.6</ele>
        <time>2026-05-12T07:10:46Z</time>
      </trkpt>
      <trkpt lat="46.0222" lon="5.59387">
        <ele>819.6</ele>
        <time>2026-05-12T07:10:47Z</time>
      </trkpt>
      <trkpt lat="46.02221" lon="5.59392">
        <ele>819.6</ele>
        <time>2026-05-12T07:10:48Z</time>
      </trkpt>
      <trkpt lat="46.02221" lon="5.59397">
        <ele>819.6</ele>
        <time>2026-05-12T07:10:49Z</time>
      </trkpt>
      <trkpt lat="46.02222" lon="5.59402">
        <ele>819.6</ele>
        <time>2026-05-12T07:10:50Z</time>
      </trkpt>
      <trkpt lat="46.02222" lon="5.59407">
        <ele>819.6</ele>
        <time>2026-05-12T07:10:51Z</time>
      </trkpt>
      <trkpt lat="46.02223" lon="5.59413">
        <ele>819.6</ele>
        <time>2026-05-12T07:10:52Z</time>
      </trkpt>
      <trkpt lat="46.02223" lon="5.59418">
        <ele>819.6</ele>
        <time>2026-05-12T07:10:53Z</time>
      </trkpt>
      <trkpt lat="46.02224" lon="5.59423">
        <ele>819.8</ele>
        <time>2026-05-12T07:10:54Z</time>
      </trkpt>
      <trkpt lat="46.02224" lon="5.59428">
        <ele>819.8</ele>
        <time>2026-05-12T07:10:55Z</time>
      </trkpt>
      <trkpt lat="46.02224" lon="5.59433">
        <ele>820</ele>
        <time>2026-05-12T07:10:56Z</time>
      </trkpt>
      <trkpt lat="46.02224" lon="5.59438">
        <ele>820</ele>
        <time>2026-05-12T07:10:57Z</time>
      </trkpt>
      <trkpt lat="46.02224" lon="5.59438">
        <ele>820</ele>
        <time>2026-05-12T07:10:58Z</time>
      </trkpt>
      <trkpt lat="46.02224" lon="5.59448">
        <ele>820</ele>
        <time>2026-05-12T07:10:59Z</time>
      </trkpt>
      <trkpt lat="46.02224" lon="5.59453">
        <ele>820.2</ele>
        <time>2026-05-12T07:11:00Z</time>
      </trkpt>
      <trkpt lat="46.02225" lon="5.59457">
        <ele>820.2</ele>
        <time>2026-05-12T07:11:01Z</time>
      </trkpt>
      <trkpt lat="46.02225" lon="5.59461">
        <ele>820.2</ele>
        <time>2026-05-12T07:11:02Z</time>
      </trkpt>
      <trkpt lat="46.02225" lon="5.59465">
        <ele>820.2</ele>
        <time>2026-05-12T07:11:03Z</time>
      </trkpt>
      <trkpt lat="46.02225" lon="5.59468">
        <ele>820.4</ele>
        <time>2026-05-12T07:11:04Z</time>
      </trkpt>
      <trkpt lat="46.02225" lon="5.59472">
        <ele>820.4</ele>
        <time>2026-05-12T07:11:05Z</time>
      </trkpt>
      <trkpt lat="46.02225" lon="5.59476">
        <ele>820.4</ele>
        <time>2026-05-12T07:11:06Z</time>
      </trkpt>
      <trkpt lat="46.02224" lon="5.5948">
        <ele>820.4</ele>
        <time>2026-05-12T07:11:07Z</time>
      </trkpt>
      <trkpt lat="46.02224" lon="5.59485">
        <ele>820.4</ele>
        <time>2026-05-12T07:11:08Z</time>
      </trkpt>
      <trkpt lat="46.02224" lon="5.59489">
        <ele>820.4</ele>
        <time>2026-05-12T07:11:09Z</time>
      </trkpt>
      <trkpt lat="46.02224" lon="5.59494">
        <ele>820.4</ele>
        <time>2026-05-12T07:11:10Z</time>
      </trkpt>
      <trkpt lat="46.02223" lon="5.59499">
        <ele>820.8</ele>
        <time>2026-05-12T07:11:11Z</time>
      </trkpt>
      <trkpt lat="46.02223" lon="5.59503">
        <ele>820.8</ele>
        <time>2026-05-12T07:11:12Z</time>
      </trkpt>
      <trkpt lat="46.02224" lon="5.59506">
        <ele>820.8</ele>
        <time>2026-05-12T07:11:13Z</time>
      </trkpt>
      <trkpt lat="46.02225" lon="5.59508">
        <ele>820.8</ele>
        <time>2026-05-12T07:11:14Z</time>
      </trkpt>
      <trkpt lat="46.02227" lon="5.59509">
        <ele>820.8</ele>
        <time>2026-05-12T07:11:15Z</time>
      </trkpt>
      <trkpt lat="46.02229" lon="5.59509">
        <ele>820.8</ele>
        <time>2026-05-12T07:11:16Z</time>
      </trkpt>
      <trkpt lat="46.0223" lon="5.59507">
        <ele>820.8</ele>
        <time>2026-05-12T07:11:17Z</time>
      </trkpt>
      <trkpt lat="46.02231" lon="5.59505">
        <ele>820.8</ele>
        <time>2026-05-12T07:11:18Z</time>
      </trkpt>
      <trkpt lat="46.02232" lon="5.59502">
        <ele>821</ele>
        <time>2026-05-12T07:11:19Z</time>
      </trkpt>
      <trkpt lat="46.02232" lon="5.59499">
        <ele>821</ele>
        <time>2026-05-12T07:11:20Z</time>
      </trkpt>
      <trkpt lat="46.02232" lon="5.59497">
        <ele>821</ele>
        <time>2026-05-12T07:11:21Z</time>
      </trkpt>
      <trkpt lat="46.02232" lon="5.59494">
        <ele>820.8</ele>
        <time>2026-05-12T07:11:22Z</time>
      </trkpt>
      <trkpt lat="46.02232" lon="5.59492">
        <ele>820.8</ele>
        <time>2026-05-12T07:11:23Z</time>
      </trkpt>
      <trkpt lat="46.02232" lon="5.59489">
        <ele>820.6</ele>
        <time>2026-05-12T07:11:24Z</time>
      </trkpt>
      <trkpt lat="46.02232" lon="5.59487">
        <ele>820.6</ele>
        <time>2026-05-12T07:11:25Z</time>
      </trkpt>
      <trkpt lat="46.02232" lon="5.59486">
        <ele>820.6</ele>
        <time>2026-05-12T07:11:26Z</time>
      </trkpt>
      <trkpt lat="46.02232" lon="5.59484">
        <ele>820.6</ele>
        <time>2026-05-12T07:11:27Z</time>
      </trkpt>
      <trkpt lat="46.02232" lon="5.59483">
        <ele>820.6</ele>
        <time>2026-05-12T07:11:28Z</time>
      </trkpt>
      <trkpt lat="46.02232" lon="5.59481">
        <ele>820.6</ele>
        <time>2026-05-12T07:11:29Z</time>
      </trkpt>
      <trkpt lat="46.02233" lon="5.5948">
        <ele>820.6</ele>
        <time>2026-05-12T07:11:30Z</time>
      </trkpt>
      <trkpt lat="46.02233" lon="5.59478">
        <ele>820.6</ele>
        <time>2026-05-12T07:11:31Z</time>
      </trkpt>
      <trkpt lat="46.02234" lon="5.59476">
        <ele>820.2</ele>
        <time>2026-05-12T07:11:32Z</time>
      </trkpt>
      <trkpt lat="46.02234" lon="5.59475">
        <ele>820.2</ele>
        <time>2026-05-12T07:11:33Z</time>
      </trkpt>
      <trkpt lat="46.02233" lon="5.59474">
        <ele>820.2</ele>
        <time>2026-05-12T07:11:34Z</time>
      </trkpt>
      <trkpt lat="46.02231" lon="5.59473">
        <ele>820.2</ele>
        <time>2026-05-12T07:11:35Z</time>
      </trkpt>
      <trkpt lat="46.0223" lon="5.59475">
        <ele>820.2</ele>
        <time>2026-05-12T07:11:36Z</time>
      </trkpt>
      <trkpt lat="46.0223" lon="5.59477">
        <ele>820.2</ele>
        <time>2026-05-12T07:11:37Z</time>
      </trkpt>
      <trkpt lat="46.0223" lon="5.5948">
        <ele>820.2</ele>
        <time>2026-05-12T07:11:38Z</time>
      </trkpt>
      <trkpt lat="46.02231" lon="5.59483">
        <ele>820.2</ele>
        <time>2026-05-12T07:11:39Z</time>
      </trkpt>
      <trkpt lat="46.0223" lon="5.59486">
        <ele>820.2</ele>
        <time>2026-05-12T07:11:40Z</time>
      </trkpt>
      <trkpt lat="46.0223" lon="5.59488">
        <ele>820.6</ele>
        <time>2026-05-12T07:11:41Z</time>
      </trkpt>
      <trkpt lat="46.02229" lon="5.59491">
        <ele>820.6</ele>
        <time>2026-05-12T07:11:42Z</time>
      </trkpt>
      <trkpt lat="46.02228" lon="5.59494">
        <ele>820.6</ele>
        <time>2026-05-12T07:11:43Z</time>
      </trkpt>
      <trkpt lat="46.02228" lon="5.59497">
        <ele>820.6</ele>
        <time>2026-05-12T07:11:44Z</time>
      </trkpt>
      <trkpt lat="46.02228" lon="5.595">
        <ele>820.6</ele>
        <time>2026-05-12T07:11:45Z</time>
      </trkpt>
      <trkpt lat="46.02227" lon="5.59503">
        <ele>821</ele>
        <time>2026-05-12T07:11:46Z</time>
      </trkpt>
      <trkpt lat="46.02226" lon="5.59505">
        <ele>821</ele>
        <time>2026-05-12T07:11:47Z</time>
      </trkpt>
      <trkpt lat="46.02224" lon="5.59508">
        <ele>821</ele>
        <time>2026-05-12T07:11:48Z</time>
      </trkpt>
      <trkpt lat="46.02223" lon="5.59509">
        <ele>821</ele>
        <time>2026-05-12T07:11:49Z</time>
      </trkpt>
      <trkpt lat="46.0222" lon="5.59512">
        <ele>821.2</ele>
        <time>2026-05-12T07:11:50Z</time>
      </trkpt>
      <trkpt lat="46.02219" lon="5.59515">
        <ele>821.2</ele>
        <time>2026-05-12T07:11:51Z</time>
      </trkpt>
      <trkpt lat="46.02217" lon="5.59519">
        <ele>821.2</ele>
        <time>2026-05-12T07:11:52Z</time>
      </trkpt>
      <trkpt lat="46.02217" lon="5.59523">
        <ele>821.2</ele>
        <time>2026-05-12T07:11:53Z</time>
      </trkpt>
      <trkpt lat="46.02217" lon="5.59528">
        <ele>821.2</ele>
        <time>2026-05-12T07:11:54Z</time>
      </trkpt>
      <trkpt lat="46.02216" lon="5.59534">
        <ele>821.2</ele>
        <time>2026-05-12T07:11:55Z</time>
      </trkpt>
      <trkpt lat="46.02216" lon="5.59539">
        <ele>821.4</ele>
        <time>2026-05-12T07:11:56Z</time>
      </trkpt>
      <trkpt lat="46.02216" lon="5.59545">
        <ele>821.4</ele>
        <time>2026-05-12T07:11:57Z</time>
      </trkpt>
      <trkpt lat="46.02216" lon="5.5955">
        <ele>821.4</ele>
        <time>2026-05-12T07:11:58Z</time>
      </trkpt>
      <trkpt lat="46.02215" lon="5.59556">
        <ele>821.6</ele>
        <time>2026-05-12T07:11:59Z</time>
      </trkpt>
      <trkpt lat="46.02215" lon="5.59561">
        <ele>821.6</ele>
        <time>2026-05-12T07:12:00Z</time>
      </trkpt>
      <trkpt lat="46.02214" lon="5.59567">
        <ele>821.6</ele>
        <time>2026-05-12T07:12:01Z</time>
      </trkpt>
      <trkpt lat="46.02213" lon="5.59572">
        <ele>821.8</ele>
        <time>2026-05-12T07:12:02Z</time>
      </trkpt>
      <trkpt lat="46.02212" lon="5.59577">
        <ele>821.8</ele>
        <time>2026-05-12T07:12:03Z</time>
      </trkpt>
      <trkpt lat="46.02211" lon="5.59581">
        <ele>821.8</ele>
        <time>2026-05-12T07:12:04Z</time>
      </trkpt>
      <trkpt lat="46.02208" lon="5.5959">
        <ele>822.2</ele>
        <time>2026-05-12T07:12:05Z</time>
      </trkpt>
      <trkpt lat="46.02206" lon="5.59594">
        <ele>822.6</ele>
        <time>2026-05-12T07:12:06Z</time>
      </trkpt>
      <trkpt lat="46.02205" lon="5.59597">
        <ele>822.6</ele>
        <time>2026-05-12T07:12:07Z</time>
      </trkpt>
      <trkpt lat="46.02203" lon="5.59601">
        <ele>823</ele>
        <time>2026-05-12T07:12:08Z</time>
      </trkpt>
      <trkpt lat="46.02201" lon="5.59604">
        <ele>823</ele>
        <time>2026-05-12T07:12:09Z</time>
      </trkpt>
      <trkpt lat="46.02199" lon="5.59607">
        <ele>823.4</ele>
        <time>2026-05-12T07:12:10Z</time>
      </trkpt>
      <trkpt lat="46.02197" lon="5.59609">
        <ele>823.8</ele>
        <time>2026-05-12T07:12:11Z</time>
      </trkpt>
      <trkpt lat="46.02194" lon="5.59612">
        <ele>824</ele>
        <time>2026-05-12T07:12:12Z</time>
      </trkpt>
      <trkpt lat="46.02191" lon="5.59615">
        <ele>824</ele>
        <time>2026-05-12T07:12:13Z</time>
      </trkpt>
      <trkpt lat="46.02188" lon="5.59617">
        <ele>824.2</ele>
        <time>2026-05-12T07:12:14Z</time>
      </trkpt>
      <trkpt lat="46.02185" lon="5.59619">
        <ele>824.2</ele>
        <time>2026-05-12T07:12:15Z</time>
      </trkpt>
      <trkpt lat="46.02181" lon="5.59621">
        <ele>824.2</ele>
        <time>2026-05-12T07:12:16Z</time>
      </trkpt>
      <trkpt lat="46.02178" lon="5.59623">
        <ele>824.2</ele>
        <time>2026-05-12T07:12:17Z</time>
      </trkpt>
      <trkpt lat="46.02175" lon="5.59626">
        <ele>824.2</ele>
        <time>2026-05-12T07:12:18Z</time>
      </trkpt>
      <trkpt lat="46.02172" lon="5.5963">
        <ele>824.2</ele>
        <time>2026-05-12T07:12:19Z</time>
      </trkpt>
      <trkpt lat="46.02169" lon="5.59633">
        <ele>824.2</ele>
        <time>2026-05-12T07:12:20Z</time>
      </trkpt>
      <trkpt lat="46.02167" lon="5.59635">
        <ele>824.2</ele>
        <time>2026-05-12T07:12:21Z</time>
      </trkpt>
      <trkpt lat="46.02163" lon="5.59636">
        <ele>824.2</ele>
        <time>2026-05-12T07:12:22Z</time>
      </trkpt>
      <trkpt lat="46.02159" lon="5.59637">
        <ele>824.2</ele>
        <time>2026-05-12T07:12:23Z</time>
      </trkpt>
      <trkpt lat="46.02155" lon="5.59637">
        <ele>824.2</ele>
        <time>2026-05-12T07:12:24Z</time>
      </trkpt>
      <trkpt lat="46.0215" lon="5.59637">
        <ele>824.2</ele>
        <time>2026-05-12T07:12:25Z</time>
      </trkpt>
      <trkpt lat="46.02145" lon="5.59635">
        <ele>824.2</ele>
        <time>2026-05-12T07:12:26Z</time>
      </trkpt>
      <trkpt lat="46.02141" lon="5.59635">
        <ele>824.2</ele>
        <time>2026-05-12T07:12:27Z</time>
      </trkpt>
      <trkpt lat="46.02136" lon="5.59634">
        <ele>824.2</ele>
        <time>2026-05-12T07:12:28Z</time>
      </trkpt>
      <trkpt lat="46.02132" lon="5.59634">
        <ele>824.2</ele>
        <time>2026-05-12T07:12:29Z</time>
      </trkpt>
      <trkpt lat="46.02128" lon="5.59633">
        <ele>824.2</ele>
        <time>2026-05-12T07:12:30Z</time>
      </trkpt>
      <trkpt lat="46.02123" lon="5.59633">
        <ele>824.2</ele>
        <time>2026-05-12T07:12:31Z</time>
      </trkpt>
      <trkpt lat="46.02118" lon="5.59633">
        <ele>824.4</ele>
        <time>2026-05-12T07:12:32Z</time>
      </trkpt>
      <trkpt lat="46.02115" lon="5.59632">
        <ele>824.4</ele>
        <time>2026-05-12T07:12:33Z</time>
      </trkpt>
      <trkpt lat="46.02111" lon="5.59631">
        <ele>824.2</ele>
        <time>2026-05-12T07:12:34Z</time>
      </trkpt>
      <trkpt lat="46.02107" lon="5.59631">
        <ele>824.2</ele>
        <time>2026-05-12T07:12:35Z</time>
      </trkpt>
      <trkpt lat="46.02103" lon="5.5963">
        <ele>824.2</ele>
        <time>2026-05-12T07:12:36Z</time>
      </trkpt>
      <trkpt lat="46.02099" lon="5.59629">
        <ele>824.2</ele>
        <time>2026-05-12T07:12:37Z</time>
      </trkpt>
      <trkpt lat="46.02094" lon="5.59628">
        <ele>824.2</ele>
        <time>2026-05-12T07:12:38Z</time>
      </trkpt>
      <trkpt lat="46.02091" lon="5.59627">
        <ele>824.2</ele>
        <time>2026-05-12T07:12:39Z</time>
      </trkpt>
      <trkpt lat="46.02087" lon="5.59626">
        <ele>824.4</ele>
        <time>2026-05-12T07:12:40Z</time>
      </trkpt>
      <trkpt lat="46.02083" lon="5.59625">
        <ele>824.4</ele>
        <time>2026-05-12T07:12:41Z</time>
      </trkpt>
      <trkpt lat="46.02079" lon="5.59623">
        <ele>824.4</ele>
        <time>2026-05-12T07:12:42Z</time>
      </trkpt>
      <trkpt lat="46.02075" lon="5.59622">
        <ele>824.4</ele>
        <time>2026-05-12T07:12:43Z</time>
      </trkpt>
      <trkpt lat="46.02072" lon="5.59621">
        <ele>824.4</ele>
        <time>2026-05-12T07:12:44Z</time>
      </trkpt>
      <trkpt lat="46.02072" lon="5.59621">
        <ele>824.4</ele>
        <time>2026-05-12T07:12:45Z</time>
      </trkpt>
      <trkpt lat="46.02068" lon="5.5962">
        <ele>824.4</ele>
        <time>2026-05-12T07:12:46Z</time>
      </trkpt>
      <trkpt lat="46.02064" lon="5.59619">
        <ele>824.4</ele>
        <time>2026-05-12T07:12:47Z</time>
      </trkpt>
      <trkpt lat="46.0206" lon="5.59618">
        <ele>825</ele>
        <time>2026-05-12T07:12:48Z</time>
      </trkpt>
      <trkpt lat="46.02057" lon="5.59618">
        <ele>825</ele>
        <time>2026-05-12T07:12:49Z</time>
      </trkpt>
      <trkpt lat="46.02053" lon="5.59618">
        <ele>825</ele>
        <time>2026-05-12T07:12:50Z</time>
      </trkpt>
      <trkpt lat="46.02049" lon="5.59617">
        <ele>825.4</ele>
        <time>2026-05-12T07:12:51Z</time>
      </trkpt>
      <trkpt lat="46.02046" lon="5.59616">
        <ele>825.4</ele>
        <time>2026-05-12T07:12:52Z</time>
      </trkpt>
      <trkpt lat="46.02042" lon="5.59616">
        <ele>825.4</ele>
        <time>2026-05-12T07:12:53Z</time>
      </trkpt>
      <trkpt lat="46.02039" lon="5.59614">
        <ele>825.6</ele>
        <time>2026-05-12T07:12:54Z</time>
      </trkpt>
      <trkpt lat="46.02036" lon="5.59613">
        <ele>825.6</ele>
        <time>2026-05-12T07:12:55Z</time>
      </trkpt>
      <trkpt lat="46.02032" lon="5.59611">
        <ele>825.6</ele>
        <time>2026-05-12T07:12:56Z</time>
      </trkpt>
      <trkpt lat="46.02029" lon="5.5961">
        <ele>825.6</ele>
        <time>2026-05-12T07:12:57Z</time>
      </trkpt>
      <trkpt lat="46.02025" lon="5.59609">
        <ele>826</ele>
        <time>2026-05-12T07:12:58Z</time>
      </trkpt>
      <trkpt lat="46.02021" lon="5.59607">
        <ele>826.4</ele>
        <time>2026-05-12T07:12:59Z</time>
      </trkpt>
      <trkpt lat="46.02018" lon="5.59606">
        <ele>826.4</ele>
        <time>2026-05-12T07:13:00Z</time>
      </trkpt>
      <trkpt lat="46.02014" lon="5.59605">
        <ele>826.6</ele>
        <time>2026-05-12T07:13:01Z</time>
      </trkpt>
      <trkpt lat="46.0201" lon="5.59604">
        <ele>826.6</ele>
        <time>2026-05-12T07:13:02Z</time>
      </trkpt>
      <trkpt lat="46.02006" lon="5.59603">
        <ele>826.6</ele>
        <time>2026-05-12T07:13:03Z</time>
      </trkpt>
      <trkpt lat="46.02002" lon="5.59602">
        <ele>826.6</ele>
        <time>2026-05-12T07:13:04Z</time>
      </trkpt>
      <trkpt lat="46.01998" lon="5.596">
        <ele>827</ele>
        <time>2026-05-12T07:13:05Z</time>
      </trkpt>
      <trkpt lat="46.01994" lon="5.59599">
        <ele>827</ele>
        <time>2026-05-12T07:13:06Z</time>
      </trkpt>
      <trkpt lat="46.01991" lon="5.59598">
        <ele>827</ele>
        <time>2026-05-12T07:13:07Z</time>
      </trkpt>
      <trkpt lat="46.01987" lon="5.59597">
        <ele>827</ele>
        <time>2026-05-12T07:13:08Z</time>
      </trkpt>
      <trkpt lat="46.01983" lon="5.59596">
        <ele>827</ele>
        <time>2026-05-12T07:13:09Z</time>
      </trkpt>
      <trkpt lat="46.01979" lon="5.59595">
        <ele>827.2</ele>
        <time>2026-05-12T07:13:10Z</time>
      </trkpt>
      <trkpt lat="46.01975" lon="5.59594">
        <ele>827.2</ele>
        <time>2026-05-12T07:13:11Z</time>
      </trkpt>
      <trkpt lat="46.01971" lon="5.59593">
        <ele>827.2</ele>
        <time>2026-05-12T07:13:12Z</time>
      </trkpt>
      <trkpt lat="46.01967" lon="5.59592">
        <ele>827.2</ele>
        <time>2026-05-12T07:13:13Z</time>
      </trkpt>
      <trkpt lat="46.01963" lon="5.59591">
        <ele>827.2</ele>
        <time>2026-05-12T07:13:14Z</time>
      </trkpt>
      <trkpt lat="46.01959" lon="5.5959">
        <ele>827.2</ele>
        <time>2026-05-12T07:13:15Z</time>
      </trkpt>
      <trkpt lat="46.01954" lon="5.59588">
        <ele>827.2</ele>
        <time>2026-05-12T07:13:16Z</time>
      </trkpt>
      <trkpt lat="46.0195" lon="5.59587">
        <ele>827.6</ele>
        <time>2026-05-12T07:13:17Z</time>
      </trkpt>
      <trkpt lat="46.01946" lon="5.59585">
        <ele>827.6</ele>
        <time>2026-05-12T07:13:18Z</time>
      </trkpt>
      <trkpt lat="46.01942" lon="5.59583">
        <ele>827.6</ele>
        <time>2026-05-12T07:13:19Z</time>
      </trkpt>
      <trkpt lat="46.01938" lon="5.59581">
        <ele>827.6</ele>
        <time>2026-05-12T07:13:20Z</time>
      </trkpt>
      <trkpt lat="46.01934" lon="5.59579">
        <ele>827.6</ele>
        <time>2026-05-12T07:13:21Z</time>
      </trkpt>
      <trkpt lat="46.01929" lon="5.59576">
        <ele>827.6</ele>
        <time>2026-05-12T07:13:22Z</time>
      </trkpt>
      <trkpt lat="46.01924" lon="5.59574">
        <ele>827.6</ele>
        <time>2026-05-12T07:13:23Z</time>
      </trkpt>
      <trkpt lat="46.0192" lon="5.59572">
        <ele>827.6</ele>
        <time>2026-05-12T07:13:24Z</time>
      </trkpt>
      <trkpt lat="46.01915" lon="5.59569">
        <ele>827.6</ele>
        <time>2026-05-12T07:13:25Z</time>
      </trkpt>
      <trkpt lat="46.01911" lon="5.59567">
        <ele>827.6</ele>
        <time>2026-05-12T07:13:26Z</time>
      </trkpt>
      <trkpt lat="46.01906" lon="5.59565">
        <ele>827.6</ele>
        <time>2026-05-12T07:13:27Z</time>
      </trkpt>
      <trkpt lat="46.01902" lon="5.59562">
        <ele>827.4</ele>
        <time>2026-05-12T07:13:28Z</time>
      </trkpt>
      <trkpt lat="46.01897" lon="5.59559">
        <ele>827.4</ele>
        <time>2026-05-12T07:13:29Z</time>
      </trkpt>
      <trkpt lat="46.01892" lon="5.59556">
        <ele>827.4</ele>
        <time>2026-05-12T07:13:30Z</time>
      </trkpt>
      <trkpt lat="46.01888" lon="5.59552">
        <ele>826.8</ele>
        <time>2026-05-12T07:13:31Z</time>
      </trkpt>
      <trkpt lat="46.01882" lon="5.59549">
        <ele>826.4</ele>
        <time>2026-05-12T07:13:32Z</time>
      </trkpt>
      <trkpt lat="46.01877" lon="5.59545">
        <ele>826.2</ele>
        <time>2026-05-12T07:13:33Z</time>
      </trkpt>
      <trkpt lat="46.01872" lon="5.59541">
        <ele>826.2</ele>
        <time>2026-05-12T07:13:34Z</time>
      </trkpt>
      <trkpt lat="46.01868" lon="5.59539">
        <ele>825.8</ele>
        <time>2026-05-12T07:13:35Z</time>
      </trkpt>
      <trkpt lat="46.01861" lon="5.59535">
        <ele>825.4</ele>
        <time>2026-05-12T07:13:36Z</time>
      </trkpt>
      <trkpt lat="46.01856" lon="5.59531">
        <ele>825.2</ele>
        <time>2026-05-12T07:13:37Z</time>
      </trkpt>
      <trkpt lat="46.0185" lon="5.59528">
        <ele>825.2</ele>
        <time>2026-05-12T07:13:38Z</time>
      </trkpt>
      <trkpt lat="46.01845" lon="5.59525">
        <ele>824.6</ele>
        <time>2026-05-12T07:13:39Z</time>
      </trkpt>
      <trkpt lat="46.01839" lon="5.59523">
        <ele>824.6</ele>
        <time>2026-05-12T07:13:40Z</time>
      </trkpt>
      <trkpt lat="46.01833" lon="5.59523">
        <ele>824.6</ele>
        <time>2026-05-12T07:13:41Z</time>
      </trkpt>
      <trkpt lat="46.01828" lon="5.59524">
        <ele>824.4</ele>
        <time>2026-05-12T07:13:42Z</time>
      </trkpt>
      <trkpt lat="46.01823" lon="5.59527">
        <ele>824.4</ele>
        <time>2026-05-12T07:13:43Z</time>
      </trkpt>
      <trkpt lat="46.01819" lon="5.59529">
        <ele>824.8</ele>
        <time>2026-05-12T07:13:44Z</time>
      </trkpt>
      <trkpt lat="46.01815" lon="5.59532">
        <ele>824.8</ele>
        <time>2026-05-12T07:13:45Z</time>
      </trkpt>
      <trkpt lat="46.01811" lon="5.59535">
        <ele>825.2</ele>
        <time>2026-05-12T07:13:46Z</time>
      </trkpt>
      <trkpt lat="46.01808" lon="5.59537">
        <ele>825.4</ele>
        <time>2026-05-12T07:13:47Z</time>
      </trkpt>
      <trkpt lat="46.01805" lon="5.59541">
        <ele>825.6</ele>
        <time>2026-05-12T07:13:48Z</time>
      </trkpt>
      <trkpt lat="46.01802" lon="5.59545">
        <ele>826</ele>
        <time>2026-05-12T07:13:49Z</time>
      </trkpt>
      <trkpt lat="46.01799" lon="5.59548">
        <ele>826</ele>
        <time>2026-05-12T07:13:50Z</time>
      </trkpt>
      <trkpt lat="46.01796" lon="5.59551">
        <ele>826</ele>
        <time>2026-05-12T07:13:51Z</time>
      </trkpt>
      <trkpt lat="46.01793" lon="5.59552">
        <ele>826.4</ele>
        <time>2026-05-12T07:13:52Z</time>
      </trkpt>
      <trkpt lat="46.01791" lon="5.59555">
        <ele>826.4</ele>
        <time>2026-05-12T07:13:53Z</time>
      </trkpt>
      <trkpt lat="46.01791" lon="5.59558">
        <ele>826.6</ele>
        <time>2026-05-12T07:13:54Z</time>
      </trkpt>
      <trkpt lat="46.0179" lon="5.5956">
        <ele>826.6</ele>
        <time>2026-05-12T07:13:55Z</time>
      </trkpt>
      <trkpt lat="46.0179" lon="5.59561">
        <ele>826.6</ele>
        <time>2026-05-12T07:13:56Z</time>
      </trkpt>
      <trkpt lat="46.0179" lon="5.59563">
        <ele>826.6</ele>
        <time>2026-05-12T07:13:57Z</time>
      </trkpt>
      <trkpt lat="46.0179" lon="5.59564">
        <ele>826.6</ele>
        <time>2026-05-12T07:13:58Z</time>
      </trkpt>
      <trkpt lat="46.0179" lon="5.59566">
        <ele>826.6</ele>
        <time>2026-05-12T07:13:59Z</time>
      </trkpt>
      <trkpt lat="46.0179" lon="5.59566">
        <ele>826.8</ele>
        <time>2026-05-12T07:14:00Z</time>
      </trkpt>
      <trkpt lat="46.0179" lon="5.59566">
        <ele>826.8</ele>
        <time>2026-05-12T07:14:01Z</time>
      </trkpt>
      <trkpt lat="46.0179" lon="5.59562">
        <ele>827.2</ele>
        <time>2026-05-12T07:15:34Z</time>
      </trkpt>
      <trkpt lat="46.0179" lon="5.59562">
        <ele>827.2</ele>
        <time>2026-05-12T07:15:35Z</time>
      </trkpt>
      <trkpt lat="46.0179" lon="5.59562">
        <ele>827.2</ele>
        <time>2026-05-12T07:15:36Z</time>
      </trkpt>
      <trkpt lat="46.0179" lon="5.59562">
        <ele>827.2</ele>
        <time>2026-05-12T07:15:37Z</time>
      </trkpt>
      <trkpt lat="46.0179" lon="5.59561">
        <ele>827.2</ele>
        <time>2026-05-12T07:15:38Z</time>
      </trkpt>
      <trkpt lat="46.01789" lon="5.59559">
        <ele>827.2</ele>
        <time>2026-05-12T07:15:39Z</time>
      </trkpt>
      <trkpt lat="46.01788" lon="5.59557">
        <ele>827.2</ele>
        <time>2026-05-12T07:15:40Z</time>
      </trkpt>
      <trkpt lat="46.01786" lon="5.59556">
        <ele>826.8</ele>
        <time>2026-05-12T07:15:41Z</time>
      </trkpt>
      <trkpt lat="46.01785" lon="5.59554">
        <ele>826.8</ele>
        <time>2026-05-12T07:15:42Z</time>
      </trkpt>
      <trkpt lat="46.01783" lon="5.59553">
        <ele>826.8</ele>
        <time>2026-05-12T07:15:43Z</time>
      </trkpt>
      <trkpt lat="46.01781" lon="5.5955">
        <ele>826.8</ele>
        <time>2026-05-12T07:15:44Z</time>
      </trkpt>
      <trkpt lat="46.01778" lon="5.59548">
        <ele>826.8</ele>
        <time>2026-05-12T07:15:45Z</time>
      </trkpt>
      <trkpt lat="46.01776" lon="5.59546">
        <ele>826.6</ele>
        <time>2026-05-12T07:15:46Z</time>
      </trkpt>
      <trkpt lat="46.01771" lon="5.59555">
        <ele>826.6</ele>
        <time>2026-05-12T07:15:47Z</time>
      </trkpt>
      <trkpt lat="46.01769" lon="5.59557">
        <ele>826.8</ele>
        <time>2026-05-12T07:15:48Z</time>
      </trkpt>
      <trkpt lat="46.01767" lon="5.59561">
        <ele>826.8</ele>
        <time>2026-05-12T07:15:49Z</time>
      </trkpt>
      <trkpt lat="46.01764" lon="5.59565">
        <ele>826.8</ele>
        <time>2026-05-12T07:15:50Z</time>
      </trkpt>
      <trkpt lat="46.01762" lon="5.5957">
        <ele>826.8</ele>
        <time>2026-05-12T07:15:51Z</time>
      </trkpt>
      <trkpt lat="46.0176" lon="5.59574">
        <ele>826.8</ele>
        <time>2026-05-12T07:15:52Z</time>
      </trkpt>
      <trkpt lat="46.01759" lon="5.59578">
        <ele>826.8</ele>
        <time>2026-05-12T07:15:53Z</time>
      </trkpt>
      <trkpt lat="46.01758" lon="5.59582">
        <ele>827.2</ele>
        <time>2026-05-12T07:15:54Z</time>
      </trkpt>
      <trkpt lat="46.01757" lon="5.59586">
        <ele>827.2</ele>
        <time>2026-05-12T07:15:55Z</time>
      </trkpt>
      <trkpt lat="46.01756" lon="5.59591">
        <ele>827.2</ele>
        <time>2026-05-12T07:15:56Z</time>
      </trkpt>
      <trkpt lat="46.01756" lon="5.59595">
        <ele>827.4</ele>
        <time>2026-05-12T07:15:57Z</time>
      </trkpt>
      <trkpt lat="46.01755" lon="5.596">
        <ele>827.4</ele>
        <time>2026-05-12T07:15:58Z</time>
      </trkpt>
      <trkpt lat="46.01754" lon="5.59605">
        <ele>827.8</ele>
        <time>2026-05-12T07:15:59Z</time>
      </trkpt>
      <trkpt lat="46.01753" lon="5.59609">
        <ele>827.8</ele>
        <time>2026-05-12T07:16:00Z</time>
      </trkpt>
      <trkpt lat="46.01752" lon="5.59614">
        <ele>827.8</ele>
        <time>2026-05-12T07:16:01Z</time>
      </trkpt>
      <trkpt lat="46.01752" lon="5.59619">
        <ele>827.8</ele>
        <time>2026-05-12T07:16:02Z</time>
      </trkpt>
      <trkpt lat="46.01751" lon="5.59624">
        <ele>827.8</ele>
        <time>2026-05-12T07:16:03Z</time>
      </trkpt>
      <trkpt lat="46.01751" lon="5.59628">
        <ele>827.8</ele>
        <time>2026-05-12T07:16:04Z</time>
      </trkpt>
      <trkpt lat="46.0175" lon="5.59633">
        <ele>828.2</ele>
        <time>2026-05-12T07:16:05Z</time>
      </trkpt>
      <trkpt lat="46.0175" lon="5.59637">
        <ele>828.2</ele>
        <time>2026-05-12T07:16:06Z</time>
      </trkpt>
      <trkpt lat="46.01749" lon="5.59641">
        <ele>828.2</ele>
        <time>2026-05-12T07:16:07Z</time>
      </trkpt>
      <trkpt lat="46.01749" lon="5.59646">
        <ele>828.2</ele>
        <time>2026-05-12T07:16:08Z</time>
      </trkpt>
      <trkpt lat="46.01748" lon="5.5965">
        <ele>828.2</ele>
        <time>2026-05-12T07:16:09Z</time>
      </trkpt>
      <trkpt lat="46.01747" lon="5.59655">
        <ele>828.2</ele>
        <time>2026-05-12T07:16:10Z</time>
      </trkpt>
      <trkpt lat="46.01745" lon="5.59659">
        <ele>828.6</ele>
        <time>2026-05-12T07:16:11Z</time>
      </trkpt>
      <trkpt lat="46.01744" lon="5.59664">
        <ele>828.6</ele>
        <time>2026-05-12T07:16:12Z</time>
      </trkpt>
      <trkpt lat="46.01741" lon="5.59669">
        <ele>829</ele>
        <time>2026-05-12T07:16:13Z</time>
      </trkpt>
      <trkpt lat="46.01739" lon="5.59673">
        <ele>829</ele>
        <time>2026-05-12T07:16:14Z</time>
      </trkpt>
      <trkpt lat="46.01737" lon="5.59678">
        <ele>829</ele>
        <time>2026-05-12T07:16:15Z</time>
      </trkpt>
      <trkpt lat="46.01736" lon="5.59683">
        <ele>829</ele>
        <time>2026-05-12T07:16:16Z</time>
      </trkpt>
      <trkpt lat="46.01733" lon="5.59687">
        <ele>829.2</ele>
        <time>2026-05-12T07:16:17Z</time>
      </trkpt>
      <trkpt lat="46.01732" lon="5.59692">
        <ele>829.2</ele>
        <time>2026-05-12T07:16:18Z</time>
      </trkpt>
      <trkpt lat="46.0173" lon="5.59697">
        <ele>829.2</ele>
        <time>2026-05-12T07:16:19Z</time>
      </trkpt>
      <trkpt lat="46.01728" lon="5.59701">
        <ele>829.2</ele>
        <time>2026-05-12T07:16:20Z</time>
      </trkpt>
      <trkpt lat="46.01726" lon="5.59705">
        <ele>829.6</ele>
        <time>2026-05-12T07:16:21Z</time>
      </trkpt>
      <trkpt lat="46.01724" lon="5.59709">
        <ele>829.6</ele>
        <time>2026-05-12T07:16:22Z</time>
      </trkpt>
      <trkpt lat="46.01722" lon="5.59712">
        <ele>829.8</ele>
        <time>2026-05-12T07:16:23Z</time>
      </trkpt>
      <trkpt lat="46.01719" lon="5.59716">
        <ele>829.6</ele>
        <time>2026-05-12T07:16:24Z</time>
      </trkpt>
      <trkpt lat="46.01717" lon="5.59719">
        <ele>829.6</ele>
        <time>2026-05-12T07:16:25Z</time>
      </trkpt>
      <trkpt lat="46.01715" lon="5.59722">
        <ele>829.6</ele>
        <time>2026-05-12T07:16:26Z</time>
      </trkpt>
      <trkpt lat="46.01713" lon="5.59725">
        <ele>829.8</ele>
        <time>2026-05-12T07:16:27Z</time>
      </trkpt>
      <trkpt lat="46.01711" lon="5.59729">
        <ele>829.8</ele>
        <time>2026-05-12T07:16:28Z</time>
      </trkpt>
      <trkpt lat="46.01709" lon="5.59734">
        <ele>830</ele>
        <time>2026-05-12T07:16:29Z</time>
      </trkpt>
      <trkpt lat="46.01708" lon="5.59738">
        <ele>830</ele>
        <time>2026-05-12T07:16:30Z</time>
      </trkpt>
      <trkpt lat="46.01707" lon="5.59743">
        <ele>830</ele>
        <time>2026-05-12T07:16:31Z</time>
      </trkpt>
      <trkpt lat="46.01706" lon="5.59748">
        <ele>830</ele>
        <time>2026-05-12T07:16:32Z</time>
      </trkpt>
      <trkpt lat="46.01705" lon="5.59753">
        <ele>830</ele>
        <time>2026-05-12T07:16:33Z</time>
      </trkpt>
      <trkpt lat="46.01704" lon="5.59758">
        <ele>830</ele>
        <time>2026-05-12T07:16:34Z</time>
      </trkpt>
      <trkpt lat="46.01702" lon="5.59762">
        <ele>829.8</ele>
        <time>2026-05-12T07:16:35Z</time>
      </trkpt>
      <trkpt lat="46.01701" lon="5.59766">
        <ele>830.2</ele>
        <time>2026-05-12T07:16:36Z</time>
      </trkpt>
      <trkpt lat="46.01699" lon="5.5977">
        <ele>830.2</ele>
        <time>2026-05-12T07:16:37Z</time>
      </trkpt>
      <trkpt lat="46.01697" lon="5.59774">
        <ele>830.2</ele>
        <time>2026-05-12T07:16:38Z</time>
      </trkpt>
      <trkpt lat="46.01695" lon="5.59777">
        <ele>830.4</ele>
        <time>2026-05-12T07:16:39Z</time>
      </trkpt>
      <trkpt lat="46.01693" lon="5.59782">
        <ele>830.4</ele>
        <time>2026-05-12T07:16:40Z</time>
      </trkpt>
      <trkpt lat="46.01691" lon="5.59786">
        <ele>830.6</ele>
        <time>2026-05-12T07:16:41Z</time>
      </trkpt>
      <trkpt lat="46.01689" lon="5.59789">
        <ele>830.6</ele>
        <time>2026-05-12T07:16:42Z</time>
      </trkpt>
      <trkpt lat="46.01687" lon="5.59794">
        <ele>830.6</ele>
        <time>2026-05-12T07:16:43Z</time>
      </trkpt>
      <trkpt lat="46.01685" lon="5.59798">
        <ele>830.6</ele>
        <time>2026-05-12T07:16:44Z</time>
      </trkpt>
      <trkpt lat="46.01683" lon="5.59802">
        <ele>830.8</ele>
        <time>2026-05-12T07:16:45Z</time>
      </trkpt>
      <trkpt lat="46.01681" lon="5.59805">
        <ele>830.8</ele>
        <time>2026-05-12T07:16:46Z</time>
      </trkpt>
      <trkpt lat="46.01678" lon="5.59809">
        <ele>831.2</ele>
        <time>2026-05-12T07:16:47Z</time>
      </trkpt>
      <trkpt lat="46.01676" lon="5.59812">
        <ele>831.2</ele>
        <time>2026-05-12T07:16:48Z</time>
      </trkpt>
      <trkpt lat="46.01674" lon="5.59815">
        <ele>831.4</ele>
        <time>2026-05-12T07:16:49Z</time>
      </trkpt>
      <trkpt lat="46.01672" lon="5.59819">
        <ele>831.4</ele>
        <time>2026-05-12T07:16:50Z</time>
      </trkpt>
      <trkpt lat="46.0167" lon="5.59822">
        <ele>831.4</ele>
        <time>2026-05-12T07:16:51Z</time>
      </trkpt>
      <trkpt lat="46.01668" lon="5.59825">
        <ele>831.8</ele>
        <time>2026-05-12T07:16:52Z</time>
      </trkpt>
      <trkpt lat="46.01666" lon="5.59828">
        <ele>831.8</ele>
        <time>2026-05-12T07:16:53Z</time>
      </trkpt>
      <trkpt lat="46.01663" lon="5.59831">
        <ele>832</ele>
        <time>2026-05-12T07:16:54Z</time>
      </trkpt>
      <trkpt lat="46.01658" lon="5.59837">
        <ele>832</ele>
        <time>2026-05-12T07:16:55Z</time>
      </trkpt>
      <trkpt lat="46.01655" lon="5.5984">
        <ele>832.2</ele>
        <time>2026-05-12T07:16:56Z</time>
      </trkpt>
      <trkpt lat="46.01653" lon="5.59843">
        <ele>832.6</ele>
        <time>2026-05-12T07:16:57Z</time>
      </trkpt>
      <trkpt lat="46.0165" lon="5.59845">
        <ele>832.6</ele>
        <time>2026-05-12T07:16:58Z</time>
      </trkpt>
      <trkpt lat="46.01647" lon="5.59847">
        <ele>833</ele>
        <time>2026-05-12T07:16:59Z</time>
      </trkpt>
      <trkpt lat="46.01643" lon="5.59848">
        <ele>833.2</ele>
        <time>2026-05-12T07:17:00Z</time>
      </trkpt>
      <trkpt lat="46.0164" lon="5.59848">
        <ele>833.6</ele>
        <time>2026-05-12T07:17:01Z</time>
      </trkpt>
      <trkpt lat="46.01637" lon="5.59848">
        <ele>833.8</ele>
        <time>2026-05-12T07:17:02Z</time>
      </trkpt>
      <trkpt lat="46.01634" lon="5.59848">
        <ele>833.8</ele>
        <time>2026-05-12T07:17:03Z</time>
      </trkpt>
      <trkpt lat="46.01632" lon="5.59847">
        <ele>834</ele>
        <time>2026-05-12T07:17:04Z</time>
      </trkpt>
      <trkpt lat="46.01629" lon="5.59847">
        <ele>834.2</ele>
        <time>2026-05-12T07:17:05Z</time>
      </trkpt>
      <trkpt lat="46.01626" lon="5.59846">
        <ele>834.6</ele>
        <time>2026-05-12T07:17:06Z</time>
      </trkpt>
      <trkpt lat="46.01623" lon="5.59845">
        <ele>834.8</ele>
        <time>2026-05-12T07:17:07Z</time>
      </trkpt>
      <trkpt lat="46.01621" lon="5.59844">
        <ele>834.8</ele>
        <time>2026-05-12T07:17:08Z</time>
      </trkpt>
      <trkpt lat="46.01618" lon="5.59843">
        <ele>835</ele>
        <time>2026-05-12T07:17:09Z</time>
      </trkpt>
      <trkpt lat="46.01615" lon="5.59842">
        <ele>835.2</ele>
        <time>2026-05-12T07:17:10Z</time>
      </trkpt>
      <trkpt lat="46.01611" lon="5.59841">
        <ele>835.6</ele>
        <time>2026-05-12T07:17:11Z</time>
      </trkpt>
      <trkpt lat="46.01608" lon="5.5984">
        <ele>835.8</ele>
        <time>2026-05-12T07:17:12Z</time>
      </trkpt>
      <trkpt lat="46.01605" lon="5.5984">
        <ele>836</ele>
        <time>2026-05-12T07:17:13Z</time>
      </trkpt>
      <trkpt lat="46.01602" lon="5.59839">
        <ele>836.4</ele>
        <time>2026-05-12T07:17:14Z</time>
      </trkpt>
      <trkpt lat="46.01599" lon="5.59839">
        <ele>836.6</ele>
        <time>2026-05-12T07:17:15Z</time>
      </trkpt>
      <trkpt lat="46.01595" lon="5.59839">
        <ele>836.6</ele>
        <time>2026-05-12T07:17:16Z</time>
      </trkpt>
      <trkpt lat="46.01592" lon="5.59838">
        <ele>836.8</ele>
        <time>2026-05-12T07:17:17Z</time>
      </trkpt>
      <trkpt lat="46.01589" lon="5.59837">
        <ele>837.2</ele>
        <time>2026-05-12T07:17:18Z</time>
      </trkpt>
      <trkpt lat="46.01586" lon="5.59836">
        <ele>837.2</ele>
        <time>2026-05-12T07:17:19Z</time>
      </trkpt>
      <trkpt lat="46.01583" lon="5.59835">
        <ele>837.2</ele>
        <time>2026-05-12T07:17:20Z</time>
      </trkpt>
      <trkpt lat="46.0158" lon="5.59834">
        <ele>837.4</ele>
        <time>2026-05-12T07:17:21Z</time>
      </trkpt>
      <trkpt lat="46.01576" lon="5.59833">
        <ele>837.6</ele>
        <time>2026-05-12T07:17:22Z</time>
      </trkpt>
      <trkpt lat="46.01573" lon="5.59833">
        <ele>837.6</ele>
        <time>2026-05-12T07:17:23Z</time>
      </trkpt>
      <trkpt lat="46.0157" lon="5.59832">
        <ele>837.6</ele>
        <time>2026-05-12T07:17:24Z</time>
      </trkpt>
      <trkpt lat="46.01567" lon="5.59832">
        <ele>838</ele>
        <time>2026-05-12T07:17:25Z</time>
      </trkpt>
      <trkpt lat="46.01564" lon="5.59831">
        <ele>838</ele>
        <time>2026-05-12T07:17:26Z</time>
      </trkpt>
      <trkpt lat="46.01561" lon="5.5983">
        <ele>838</ele>
        <time>2026-05-12T07:17:27Z</time>
      </trkpt>
      <trkpt lat="46.01558" lon="5.59829">
        <ele>838.2</ele>
        <time>2026-05-12T07:17:28Z</time>
      </trkpt>
      <trkpt lat="46.01555" lon="5.59828">
        <ele>838.2</ele>
        <time>2026-05-12T07:17:29Z</time>
      </trkpt>
      <trkpt lat="46.01552" lon="5.59828">
        <ele>838.2</ele>
        <time>2026-05-12T07:17:30Z</time>
      </trkpt>
      <trkpt lat="46.01549" lon="5.59828">
        <ele>838.2</ele>
        <time>2026-05-12T07:17:31Z</time>
      </trkpt>
      <trkpt lat="46.01545" lon="5.59828">
        <ele>838.2</ele>
        <time>2026-05-12T07:17:32Z</time>
      </trkpt>
      <trkpt lat="46.01542" lon="5.59829">
        <ele>838.6</ele>
        <time>2026-05-12T07:17:33Z</time>
      </trkpt>
      <trkpt lat="46.01539" lon="5.59829">
        <ele>838.6</ele>
        <time>2026-05-12T07:17:34Z</time>
      </trkpt>
      <trkpt lat="46.01536" lon="5.5983">
        <ele>838.6</ele>
        <time>2026-05-12T07:17:35Z</time>
      </trkpt>
      <trkpt lat="46.01532" lon="5.5983">
        <ele>838.6</ele>
        <time>2026-05-12T07:17:36Z</time>
      </trkpt>
      <trkpt lat="46.01529" lon="5.5983">
        <ele>838.6</ele>
        <time>2026-05-12T07:17:37Z</time>
      </trkpt>
      <trkpt lat="46.01526" lon="5.59831">
        <ele>838.8</ele>
        <time>2026-05-12T07:17:38Z</time>
      </trkpt>
      <trkpt lat="46.01523" lon="5.59831">
        <ele>838.8</ele>
        <time>2026-05-12T07:17:39Z</time>
      </trkpt>
      <trkpt lat="46.0152" lon="5.59831">
        <ele>838.8</ele>
        <time>2026-05-12T07:17:40Z</time>
      </trkpt>
      <trkpt lat="46.01517" lon="5.59831">
        <ele>838.8</ele>
        <time>2026-05-12T07:17:41Z</time>
      </trkpt>
      <trkpt lat="46.01513" lon="5.59831">
        <ele>838.8</ele>
        <time>2026-05-12T07:17:42Z</time>
      </trkpt>
      <trkpt lat="46.0151" lon="5.5983">
        <ele>838.8</ele>
        <time>2026-05-12T07:17:43Z</time>
      </trkpt>
      <trkpt lat="46.01506" lon="5.5983">
        <ele>838.8</ele>
        <time>2026-05-12T07:17:44Z</time>
      </trkpt>
      <trkpt lat="46.01502" lon="5.59829">
        <ele>838.8</ele>
        <time>2026-05-12T07:17:45Z</time>
      </trkpt>
      <trkpt lat="46.01499" lon="5.59828">
        <ele>838.8</ele>
        <time>2026-05-12T07:17:46Z</time>
      </trkpt>
      <trkpt lat="46.01496" lon="5.59827">
        <ele>838.8</ele>
        <time>2026-05-12T07:17:47Z</time>
      </trkpt>
      <trkpt lat="46.01492" lon="5.59825">
        <ele>838.8</ele>
        <time>2026-05-12T07:17:48Z</time>
      </trkpt>
      <trkpt lat="46.01489" lon="5.59824">
        <ele>838.8</ele>
        <time>2026-05-12T07:17:49Z</time>
      </trkpt>
      <trkpt lat="46.01486" lon="5.59823">
        <ele>838.8</ele>
        <time>2026-05-12T07:17:50Z</time>
      </trkpt>
      <trkpt lat="46.01483" lon="5.59823">
        <ele>838.8</ele>
        <time>2026-05-12T07:17:51Z</time>
      </trkpt>
      <trkpt lat="46.01481" lon="5.59822">
        <ele>838.8</ele>
        <time>2026-05-12T07:17:52Z</time>
      </trkpt>
      <trkpt lat="46.01478" lon="5.59821">
        <ele>838.8</ele>
        <time>2026-05-12T07:17:53Z</time>
      </trkpt>
      <trkpt lat="46.01475" lon="5.5982">
        <ele>838.8</ele>
        <time>2026-05-12T07:17:54Z</time>
      </trkpt>
      <trkpt lat="46.01473" lon="5.59819">
        <ele>839</ele>
        <time>2026-05-12T07:17:55Z</time>
      </trkpt>
      <trkpt lat="46.01471" lon="5.59818">
        <ele>839</ele>
        <time>2026-05-12T07:17:56Z</time>
      </trkpt>
      <trkpt lat="46.01469" lon="5.59817">
        <ele>839</ele>
        <time>2026-05-12T07:17:57Z</time>
      </trkpt>
      <trkpt lat="46.01467" lon="5.59817">
        <ele>839.4</ele>
        <time>2026-05-12T07:17:58Z</time>
      </trkpt>
      <trkpt lat="46.01466" lon="5.59816">
        <ele>839.4</ele>
        <time>2026-05-12T07:17:59Z</time>
      </trkpt>
      <trkpt lat="46.01464" lon="5.59815">
        <ele>839.4</ele>
        <time>2026-05-12T07:18:00Z</time>
      </trkpt>
      <trkpt lat="46.01463" lon="5.59814">
        <ele>839.4</ele>
        <time>2026-05-12T07:18:01Z</time>
      </trkpt>
      <trkpt lat="46.01463" lon="5.59813">
        <ele>839.4</ele>
        <time>2026-05-12T07:18:02Z</time>
      </trkpt>
      <trkpt lat="46.01463" lon="5.59813">
        <ele>839.4</ele>
        <time>2026-05-12T07:18:03Z</time>
      </trkpt>
      <trkpt lat="46.01462" lon="5.59812">
        <ele>839.4</ele>
        <time>2026-05-12T07:18:04Z</time>
      </trkpt>
      <trkpt lat="46.01461" lon="5.59811">
        <ele>839.4</ele>
        <time>2026-05-12T07:18:05Z</time>
      </trkpt>
      <trkpt lat="46.0146" lon="5.59811">
        <ele>839.4</ele>
        <time>2026-05-12T07:18:06Z</time>
      </trkpt>
      <trkpt lat="46.0146" lon="5.5981">
        <ele>839.4</ele>
        <time>2026-05-12T07:18:07Z</time>
      </trkpt>
      <trkpt lat="46.0146" lon="5.59811">
        <ele>839</ele>
        <time>2026-05-12T07:18:08Z</time>
      </trkpt>
      <trkpt lat="46.0146" lon="5.5981">
        <ele>838.8</ele>
        <time>2026-05-12T07:18:11Z</time>
      </trkpt>
      <trkpt lat="46.0146" lon="5.59809">
        <ele>838.8</ele>
        <time>2026-05-12T07:18:12Z</time>
      </trkpt>
      <trkpt lat="46.01458" lon="5.59813">
        <ele>838.4</ele>
        <time>2026-05-12T07:19:34Z</time>
      </trkpt>
      <trkpt lat="46.01456" lon="5.59814">
        <ele>838.4</ele>
        <time>2026-05-12T07:19:35Z</time>
      </trkpt>
      <trkpt lat="46.01454" lon="5.59814">
        <ele>838.4</ele>
        <time>2026-05-12T07:19:36Z</time>
      </trkpt>
      <trkpt lat="46.01452" lon="5.59814">
        <ele>838.4</ele>
        <time>2026-05-12T07:19:37Z</time>
      </trkpt>
      <trkpt lat="46.0145" lon="5.59813">
        <ele>838.4</ele>
        <time>2026-05-12T07:19:38Z</time>
      </trkpt>
      <trkpt lat="46.01447" lon="5.59812">
        <ele>838.4</ele>
        <time>2026-05-12T07:19:39Z</time>
      </trkpt>
      <trkpt lat="46.01445" lon="5.59812">
        <ele>838</ele>
        <time>2026-05-12T07:19:40Z</time>
      </trkpt>
      <trkpt lat="46.01443" lon="5.59811">
        <ele>838</ele>
        <time>2026-05-12T07:19:41Z</time>
      </trkpt>
      <trkpt lat="46.01441" lon="5.59811">
        <ele>838</ele>
        <time>2026-05-12T07:19:42Z</time>
      </trkpt>
      <trkpt lat="46.01439" lon="5.59811">
        <ele>838</ele>
        <time>2026-05-12T07:19:43Z</time>
      </trkpt>
      <trkpt lat="46.01437" lon="5.59811">
        <ele>838.4</ele>
        <time>2026-05-12T07:19:44Z</time>
      </trkpt>
      <trkpt lat="46.01434" lon="5.59811">
        <ele>838.4</ele>
        <time>2026-05-12T07:19:45Z</time>
      </trkpt>
      <trkpt lat="46.01432" lon="5.59811">
        <ele>838.6</ele>
        <time>2026-05-12T07:19:46Z</time>
      </trkpt>
      <trkpt lat="46.0143" lon="5.59811">
        <ele>838.6</ele>
        <time>2026-05-12T07:19:47Z</time>
      </trkpt>
      <trkpt lat="46.01427" lon="5.59812">
        <ele>838.6</ele>
        <time>2026-05-12T07:19:48Z</time>
      </trkpt>
      <trkpt lat="46.01424" lon="5.59813">
        <ele>838.6</ele>
        <time>2026-05-12T07:19:49Z</time>
      </trkpt>
      <trkpt lat="46.01421" lon="5.59814">
        <ele>838.6</ele>
        <time>2026-05-12T07:19:50Z</time>
      </trkpt>
      <trkpt lat="46.01418" lon="5.59814">
        <ele>838.8</ele>
        <time>2026-05-12T07:19:51Z</time>
      </trkpt>
      <trkpt lat="46.01415" lon="5.59815">
        <ele>839.2</ele>
        <time>2026-05-12T07:19:52Z</time>
      </trkpt>
      <trkpt lat="46.01412" lon="5.59816">
        <ele>839.2</ele>
        <time>2026-05-12T07:19:53Z</time>
      </trkpt>
      <trkpt lat="46.01409" lon="5.59818">
        <ele>839.4</ele>
        <time>2026-05-12T07:19:54Z</time>
      </trkpt>
      <trkpt lat="46.01407" lon="5.5982">
        <ele>839.4</ele>
        <time>2026-05-12T07:19:55Z</time>
      </trkpt>
      <trkpt lat="46.01404" lon="5.59822">
        <ele>839.4</ele>
        <time>2026-05-12T07:19:56Z</time>
      </trkpt>
      <trkpt lat="46.01402" lon="5.59824">
        <ele>839.4</ele>
        <time>2026-05-12T07:19:57Z</time>
      </trkpt>
      <trkpt lat="46.01399" lon="5.59827">
        <ele>839.4</ele>
        <time>2026-05-12T07:19:58Z</time>
      </trkpt>
      <trkpt lat="46.01396" lon="5.59829">
        <ele>839.4</ele>
        <time>2026-05-12T07:19:59Z</time>
      </trkpt>
      <trkpt lat="46.01394" lon="5.59831">
        <ele>839.4</ele>
        <time>2026-05-12T07:20:00Z</time>
      </trkpt>
      <trkpt lat="46.01391" lon="5.59833">
        <ele>839.4</ele>
        <time>2026-05-12T07:20:01Z</time>
      </trkpt>
      <trkpt lat="46.01388" lon="5.59835">
        <ele>839.4</ele>
        <time>2026-05-12T07:20:02Z</time>
      </trkpt>
      <trkpt lat="46.01386" lon="5.59837">
        <ele>839.6</ele>
        <time>2026-05-12T07:20:03Z</time>
      </trkpt>
      <trkpt lat="46.01383" lon="5.59838">
        <ele>839.6</ele>
        <time>2026-05-12T07:20:04Z</time>
      </trkpt>
      <trkpt lat="46.0138" lon="5.5984">
        <ele>840</ele>
        <time>2026-05-12T07:20:05Z</time>
      </trkpt>
      <trkpt lat="46.01377" lon="5.59841">
        <ele>840</ele>
        <time>2026-05-12T07:20:06Z</time>
      </trkpt>
      <trkpt lat="46.01374" lon="5.59842">
        <ele>840.2</ele>
        <time>2026-05-12T07:20:07Z</time>
      </trkpt>
      <trkpt lat="46.01371" lon="5.59843">
        <ele>840.4</ele>
        <time>2026-05-12T07:20:08Z</time>
      </trkpt>
      <trkpt lat="46.01368" lon="5.59844">
        <ele>840.4</ele>
        <time>2026-05-12T07:20:09Z</time>
      </trkpt>
      <trkpt lat="46.01365" lon="5.59845">
        <ele>840.8</ele>
        <time>2026-05-12T07:20:10Z</time>
      </trkpt>
      <trkpt lat="46.01363" lon="5.59845">
        <ele>840.8</ele>
        <time>2026-05-12T07:20:11Z</time>
      </trkpt>
      <trkpt lat="46.0136" lon="5.59846">
        <ele>841</ele>
        <time>2026-05-12T07:20:12Z</time>
      </trkpt>
      <trkpt lat="46.01358" lon="5.59848">
        <ele>841</ele>
        <time>2026-05-12T07:20:13Z</time>
      </trkpt>
      <trkpt lat="46.01355" lon="5.59849">
        <ele>841.4</ele>
        <time>2026-05-12T07:20:14Z</time>
      </trkpt>
      <trkpt lat="46.01353" lon="5.5985">
        <ele>841.6</ele>
        <time>2026-05-12T07:20:15Z</time>
      </trkpt>
      <trkpt lat="46.0135" lon="5.59851">
        <ele>841.6</ele>
        <time>2026-05-12T07:20:16Z</time>
      </trkpt>
      <trkpt lat="46.0135" lon="5.59851">
        <ele>841.8</ele>
        <time>2026-05-12T07:20:17Z</time>
      </trkpt>
      <trkpt lat="46.0135" lon="5.59851">
        <ele>841.8</ele>
        <time>2026-05-12T07:20:18Z</time>
      </trkpt>
      <trkpt lat="46.0134" lon="5.59854">
        <ele>842.2</ele>
        <time>2026-05-12T07:20:20Z</time>
      </trkpt>
      <trkpt lat="46.01337" lon="5.59854">
        <ele>842.2</ele>
        <time>2026-05-12T07:20:21Z</time>
      </trkpt>
      <trkpt lat="46.01334" lon="5.59854">
        <ele>842.6</ele>
        <time>2026-05-12T07:20:22Z</time>
      </trkpt>
      <trkpt lat="46.01331" lon="5.59854">
        <ele>842.6</ele>
        <time>2026-05-12T07:20:23Z</time>
      </trkpt>
      <trkpt lat="46.01329" lon="5.59855">
        <ele>843</ele>
        <time>2026-05-12T07:20:24Z</time>
      </trkpt>
      <trkpt lat="46.01326" lon="5.59856">
        <ele>843</ele>
        <time>2026-05-12T07:20:25Z</time>
      </trkpt>
      <trkpt lat="46.01323" lon="5.59856">
        <ele>843</ele>
        <time>2026-05-12T07:20:26Z</time>
      </trkpt>
      <trkpt lat="46.01321" lon="5.59856">
        <ele>843</ele>
        <time>2026-05-12T07:20:27Z</time>
      </trkpt>
      <trkpt lat="46.01319" lon="5.59856">
        <ele>843</ele>
        <time>2026-05-12T07:20:28Z</time>
      </trkpt>
      <trkpt lat="46.01316" lon="5.59857">
        <ele>843</ele>
        <time>2026-05-12T07:20:29Z</time>
      </trkpt>
      <trkpt lat="46.01314" lon="5.59856">
        <ele>842.8</ele>
        <time>2026-05-12T07:20:30Z</time>
      </trkpt>
      <trkpt lat="46.01312" lon="5.59856">
        <ele>842.8</ele>
        <time>2026-05-12T07:20:31Z</time>
      </trkpt>
      <trkpt lat="46.0131" lon="5.59855">
        <ele>843</ele>
        <time>2026-05-12T07:20:32Z</time>
      </trkpt>
      <trkpt lat="46.01308" lon="5.59854">
        <ele>843</ele>
        <time>2026-05-12T07:20:33Z</time>
      </trkpt>
      <trkpt lat="46.01306" lon="5.59855">
        <ele>843</ele>
        <time>2026-05-12T07:20:34Z</time>
      </trkpt>
      <trkpt lat="46.01304" lon="5.59856">
        <ele>843</ele>
        <time>2026-05-12T07:20:35Z</time>
      </trkpt>
      <trkpt lat="46.01302" lon="5.59857">
        <ele>843</ele>
        <time>2026-05-12T07:20:36Z</time>
      </trkpt>
      <trkpt lat="46.013" lon="5.59857">
        <ele>843</ele>
        <time>2026-05-12T07:20:37Z</time>
      </trkpt>
      <trkpt lat="46.01297" lon="5.59858">
        <ele>843</ele>
        <time>2026-05-12T07:20:38Z</time>
      </trkpt>
      <trkpt lat="46.01295" lon="5.59857">
        <ele>843</ele>
        <time>2026-05-12T07:20:39Z</time>
      </trkpt>
      <trkpt lat="46.01292" lon="5.59857">
        <ele>843</ele>
        <time>2026-05-12T07:20:40Z</time>
      </trkpt>
      <trkpt lat="46.0129" lon="5.59858">
        <ele>843</ele>
        <time>2026-05-12T07:20:41Z</time>
      </trkpt>
      <trkpt lat="46.01287" lon="5.59859">
        <ele>843</ele>
        <time>2026-05-12T07:20:42Z</time>
      </trkpt>
      <trkpt lat="46.01284" lon="5.5986">
        <ele>843</ele>
        <time>2026-05-12T07:20:43Z</time>
      </trkpt>
      <trkpt lat="46.01281" lon="5.5986">
        <ele>843.2</ele>
        <time>2026-05-12T07:20:44Z</time>
      </trkpt>
      <trkpt lat="46.01279" lon="5.59861">
        <ele>843.2</ele>
        <time>2026-05-12T07:20:45Z</time>
      </trkpt>
      <trkpt lat="46.01276" lon="5.59861">
        <ele>843.2</ele>
        <time>2026-05-12T07:20:46Z</time>
      </trkpt>
      <trkpt lat="46.01273" lon="5.59861">
        <ele>843.2</ele>
        <time>2026-05-12T07:20:47Z</time>
      </trkpt>
      <trkpt lat="46.0127" lon="5.59861">
        <ele>843.2</ele>
        <time>2026-05-12T07:20:48Z</time>
      </trkpt>
      <trkpt lat="46.01266" lon="5.59862">
        <ele>843.2</ele>
        <time>2026-05-12T07:20:49Z</time>
      </trkpt>
      <trkpt lat="46.01263" lon="5.59863">
        <ele>843.2</ele>
        <time>2026-05-12T07:20:50Z</time>
      </trkpt>
      <trkpt lat="46.01259" lon="5.59863">
        <ele>843.2</ele>
        <time>2026-05-12T07:20:51Z</time>
      </trkpt>
      <trkpt lat="46.01255" lon="5.59864">
        <ele>843.2</ele>
        <time>2026-05-12T07:20:52Z</time>
      </trkpt>
      <trkpt lat="46.01252" lon="5.59864">
        <ele>843.2</ele>
        <time>2026-05-12T07:20:53Z</time>
      </trkpt>
      <trkpt lat="46.01248" lon="5.59865">
        <ele>843.2</ele>
        <time>2026-05-12T07:20:54Z</time>
      </trkpt>
      <trkpt lat="46.01244" lon="5.59866">
        <ele>843.2</ele>
        <time>2026-05-12T07:20:55Z</time>
      </trkpt>
      <trkpt lat="46.01241" lon="5.59867">
        <ele>843.2</ele>
        <time>2026-05-12T07:20:56Z</time>
      </trkpt>
      <trkpt lat="46.01237" lon="5.59868">
        <ele>843.2</ele>
        <time>2026-05-12T07:20:57Z</time>
      </trkpt>
      <trkpt lat="46.01233" lon="5.59869">
        <ele>843.2</ele>
        <time>2026-05-12T07:20:58Z</time>
      </trkpt>
      <trkpt lat="46.01227" lon="5.59869">
        <ele>843.2</ele>
        <time>2026-05-12T07:20:59Z</time>
      </trkpt>
      <trkpt lat="46.01227" lon="5.59869">
        <ele>843.2</ele>
        <time>2026-05-12T07:21:00Z</time>
      </trkpt>
      <trkpt lat="46.0122" lon="5.59871">
        <ele>843.2</ele>
        <time>2026-05-12T07:21:01Z</time>
      </trkpt>
      <trkpt lat="46.01217" lon="5.59871">
        <ele>843.2</ele>
        <time>2026-05-12T07:21:02Z</time>
      </trkpt>
      <trkpt lat="46.01213" lon="5.59872">
        <ele>843.2</ele>
        <time>2026-05-12T07:21:03Z</time>
      </trkpt>
      <trkpt lat="46.01209" lon="5.59872">
        <ele>843.2</ele>
        <time>2026-05-12T07:21:04Z</time>
      </trkpt>
      <trkpt lat="46.01204" lon="5.59873">
        <ele>843.2</ele>
        <time>2026-05-12T07:21:05Z</time>
      </trkpt>
      <trkpt lat="46.012" lon="5.59874">
        <ele>843.2</ele>
        <time>2026-05-12T07:21:06Z</time>
      </trkpt>
      <trkpt lat="46.01196" lon="5.59875">
        <ele>843.2</ele>
        <time>2026-05-12T07:21:07Z</time>
      </trkpt>
      <trkpt lat="46.01192" lon="5.59875">
        <ele>843.2</ele>
        <time>2026-05-12T07:21:08Z</time>
      </trkpt>
      <trkpt lat="46.01188" lon="5.59876">
        <ele>843.2</ele>
        <time>2026-05-12T07:21:09Z</time>
      </trkpt>
      <trkpt lat="46.01183" lon="5.59877">
        <ele>843.2</ele>
        <time>2026-05-12T07:21:10Z</time>
      </trkpt>
      <trkpt lat="46.0118" lon="5.59878">
        <ele>843.2</ele>
        <time>2026-05-12T07:21:11Z</time>
      </trkpt>
      <trkpt lat="46.01175" lon="5.59881">
        <ele>843.2</ele>
        <time>2026-05-12T07:21:12Z</time>
      </trkpt>
      <trkpt lat="46.0117" lon="5.59883">
        <ele>843.2</ele>
        <time>2026-05-12T07:21:13Z</time>
      </trkpt>
      <trkpt lat="46.01167" lon="5.59884">
        <ele>843</ele>
        <time>2026-05-12T07:21:14Z</time>
      </trkpt>
      <trkpt lat="46.01161" lon="5.59887">
        <ele>843</ele>
        <time>2026-05-12T07:21:15Z</time>
      </trkpt>
      <trkpt lat="46.01156" lon="5.59889">
        <ele>842.8</ele>
        <time>2026-05-12T07:21:16Z</time>
      </trkpt>
      <trkpt lat="46.01152" lon="5.59893">
        <ele>842.8</ele>
        <time>2026-05-12T07:21:17Z</time>
      </trkpt>
      <trkpt lat="46.01147" lon="5.59893">
        <ele>842.8</ele>
        <time>2026-05-12T07:21:18Z</time>
      </trkpt>
      <trkpt lat="46.01143" lon="5.59896">
        <ele>842.8</ele>
        <time>2026-05-12T07:21:19Z</time>
      </trkpt>
      <trkpt lat="46.01139" lon="5.59898">
        <ele>842.8</ele>
        <time>2026-05-12T07:21:20Z</time>
      </trkpt>
      <trkpt lat="46.01135" lon="5.599">
        <ele>843</ele>
        <time>2026-05-12T07:21:21Z</time>
      </trkpt>
      <trkpt lat="46.01132" lon="5.59902">
        <ele>843</ele>
        <time>2026-05-12T07:21:22Z</time>
      </trkpt>
      <trkpt lat="46.01128" lon="5.59904">
        <ele>843.2</ele>
        <time>2026-05-12T07:21:23Z</time>
      </trkpt>
      <trkpt lat="46.01125" lon="5.59906">
        <ele>843.2</ele>
        <time>2026-05-12T07:21:24Z</time>
      </trkpt>
      <trkpt lat="46.01121" lon="5.59908">
        <ele>843.2</ele>
        <time>2026-05-12T07:21:25Z</time>
      </trkpt>
      <trkpt lat="46.01117" lon="5.5991">
        <ele>843.6</ele>
        <time>2026-05-12T07:21:26Z</time>
      </trkpt>
      <trkpt lat="46.01113" lon="5.59912">
        <ele>843.6</ele>
        <time>2026-05-12T07:21:27Z</time>
      </trkpt>
      <trkpt lat="46.01109" lon="5.59915">
        <ele>843.8</ele>
        <time>2026-05-12T07:21:28Z</time>
      </trkpt>
      <trkpt lat="46.01106" lon="5.59917">
        <ele>844</ele>
        <time>2026-05-12T07:21:29Z</time>
      </trkpt>
      <trkpt lat="46.01102" lon="5.59919">
        <ele>844.4</ele>
        <time>2026-05-12T07:21:30Z</time>
      </trkpt>
      <trkpt lat="46.01099" lon="5.59921">
        <ele>844.4</ele>
        <time>2026-05-12T07:21:31Z</time>
      </trkpt>
      <trkpt lat="46.01095" lon="5.59923">
        <ele>844.6</ele>
        <time>2026-05-12T07:21:32Z</time>
      </trkpt>
      <trkpt lat="46.01091" lon="5.59923">
        <ele>845</ele>
        <time>2026-05-12T07:21:33Z</time>
      </trkpt>
      <trkpt lat="46.01088" lon="5.59925">
        <ele>845</ele>
        <time>2026-05-12T07:21:34Z</time>
      </trkpt>
      <trkpt lat="46.01084" lon="5.59927">
        <ele>845.2</ele>
        <time>2026-05-12T07:21:35Z</time>
      </trkpt>
      <trkpt lat="46.01081" lon="5.59928">
        <ele>845.2</ele>
        <time>2026-05-12T07:21:36Z</time>
      </trkpt>
      <trkpt lat="46.01077" lon="5.59929">
        <ele>845.2</ele>
        <time>2026-05-12T07:21:37Z</time>
      </trkpt>
      <trkpt lat="46.01074" lon="5.5993">
        <ele>845.6</ele>
        <time>2026-05-12T07:21:38Z</time>
      </trkpt>
      <trkpt lat="46.0107" lon="5.5993">
        <ele>845.8</ele>
        <time>2026-05-12T07:21:39Z</time>
      </trkpt>
      <trkpt lat="46.01067" lon="5.59931">
        <ele>845.8</ele>
        <time>2026-05-12T07:21:40Z</time>
      </trkpt>
      <trkpt lat="46.01063" lon="5.59931">
        <ele>846.2</ele>
        <time>2026-05-12T07:21:41Z</time>
      </trkpt>
      <trkpt lat="46.01059" lon="5.59931">
        <ele>846.2</ele>
        <time>2026-05-12T07:21:42Z</time>
      </trkpt>
      <trkpt lat="46.01055" lon="5.59931">
        <ele>846.4</ele>
        <time>2026-05-12T07:21:43Z</time>
      </trkpt>
      <trkpt lat="46.01048" lon="5.5993">
        <ele>846.4</ele>
        <time>2026-05-12T07:21:44Z</time>
      </trkpt>
      <trkpt lat="46.01044" lon="5.59929">
        <ele>846.6</ele>
        <time>2026-05-12T07:21:45Z</time>
      </trkpt>
      <trkpt lat="46.01041" lon="5.59929">
        <ele>847</ele>
        <time>2026-05-12T07:21:46Z</time>
      </trkpt>
      <trkpt lat="46.01037" lon="5.59929">
        <ele>847</ele>
        <time>2026-05-12T07:21:47Z</time>
      </trkpt>
      <trkpt lat="46.01034" lon="5.59928">
        <ele>847.4</ele>
        <time>2026-05-12T07:21:48Z</time>
      </trkpt>
      <trkpt lat="46.01031" lon="5.59928">
        <ele>847.4</ele>
        <time>2026-05-12T07:21:49Z</time>
      </trkpt>
      <trkpt lat="46.01027" lon="5.59927">
        <ele>847.8</ele>
        <time>2026-05-12T07:21:50Z</time>
      </trkpt>
      <trkpt lat="46.01023" lon="5.59927">
        <ele>847.8</ele>
        <time>2026-05-12T07:21:51Z</time>
      </trkpt>
      <trkpt lat="46.0102" lon="5.59926">
        <ele>848</ele>
        <time>2026-05-12T07:21:52Z</time>
      </trkpt>
      <trkpt lat="46.01016" lon="5.59926">
        <ele>848</ele>
        <time>2026-05-12T07:21:53Z</time>
      </trkpt>
      <trkpt lat="46.01013" lon="5.59925">
        <ele>848.4</ele>
        <time>2026-05-12T07:21:54Z</time>
      </trkpt>
      <trkpt lat="46.0101" lon="5.59925">
        <ele>848.4</ele>
        <time>2026-05-12T07:21:55Z</time>
      </trkpt>
      <trkpt lat="46.01007" lon="5.59924">
        <ele>848.6</ele>
        <time>2026-05-12T07:21:56Z</time>
      </trkpt>
      <trkpt lat="46.01004" lon="5.59924">
        <ele>848.6</ele>
        <time>2026-05-12T07:21:57Z</time>
      </trkpt>
      <trkpt lat="46.01" lon="5.59924">
        <ele>849</ele>
        <time>2026-05-12T07:21:58Z</time>
      </trkpt>
      <trkpt lat="46.00997" lon="5.59924">
        <ele>849.2</ele>
        <time>2026-05-12T07:21:59Z</time>
      </trkpt>
      <trkpt lat="46.00995" lon="5.59924">
        <ele>849.2</ele>
        <time>2026-05-12T07:22:00Z</time>
      </trkpt>
      <trkpt lat="46.00992" lon="5.59924">
        <ele>849.4</ele>
        <time>2026-05-12T07:22:01Z</time>
      </trkpt>
      <trkpt lat="46.00989" lon="5.59924">
        <ele>850</ele>
        <time>2026-05-12T07:22:02Z</time>
      </trkpt>
      <trkpt lat="46.00986" lon="5.59925">
        <ele>850</ele>
        <time>2026-05-12T07:22:03Z</time>
      </trkpt>
      <trkpt lat="46.00982" lon="5.59926">
        <ele>850</ele>
        <time>2026-05-12T07:22:04Z</time>
      </trkpt>
      <trkpt lat="46.00979" lon="5.59927">
        <ele>850</ele>
        <time>2026-05-12T07:22:05Z</time>
      </trkpt>
      <trkpt lat="46.00976" lon="5.59929">
        <ele>850.2</ele>
        <time>2026-05-12T07:22:06Z</time>
      </trkpt>
      <trkpt lat="46.00973" lon="5.5993">
        <ele>850.2</ele>
        <time>2026-05-12T07:22:07Z</time>
      </trkpt>
      <trkpt lat="46.00971" lon="5.59932">
        <ele>850.4</ele>
        <time>2026-05-12T07:22:08Z</time>
      </trkpt>
      <trkpt lat="46.00967" lon="5.59935">
        <ele>850.4</ele>
        <time>2026-05-12T07:22:09Z</time>
      </trkpt>
      <trkpt lat="46.00965" lon="5.59937">
        <ele>850.8</ele>
        <time>2026-05-12T07:22:10Z</time>
      </trkpt>
      <trkpt lat="46.00963" lon="5.59939">
        <ele>851</ele>
        <time>2026-05-12T07:22:11Z</time>
      </trkpt>
      <trkpt lat="46.0096" lon="5.5994">
        <ele>851</ele>
        <time>2026-05-12T07:22:12Z</time>
      </trkpt>
      <trkpt lat="46.00957" lon="5.59943">
        <ele>851.4</ele>
        <time>2026-05-12T07:22:13Z</time>
      </trkpt>
      <trkpt lat="46.00955" lon="5.59946">
        <ele>851.4</ele>
        <time>2026-05-12T07:22:14Z</time>
      </trkpt>
      <trkpt lat="46.00952" lon="5.59949">
        <ele>851.4</ele>
        <time>2026-05-12T07:22:15Z</time>
      </trkpt>
      <trkpt lat="46.0095" lon="5.59952">
        <ele>851.6</ele>
        <time>2026-05-12T07:22:16Z</time>
      </trkpt>
      <trkpt lat="46.00948" lon="5.59955">
        <ele>851.6</ele>
        <time>2026-05-12T07:22:17Z</time>
      </trkpt>
      <trkpt lat="46.00946" lon="5.59958">
        <ele>851.6</ele>
        <time>2026-05-12T07:22:18Z</time>
      </trkpt>
      <trkpt lat="46.00944" lon="5.59961">
        <ele>851.6</ele>
        <time>2026-05-12T07:22:19Z</time>
      </trkpt>
      <trkpt lat="46.00943" lon="5.59964">
        <ele>852</ele>
        <time>2026-05-12T07:22:20Z</time>
      </trkpt>
      <trkpt lat="46.00941" lon="5.59968">
        <ele>852</ele>
        <time>2026-05-12T07:22:21Z</time>
      </trkpt>
      <trkpt lat="46.00939" lon="5.59972">
        <ele>852.2</ele>
        <time>2026-05-12T07:22:22Z</time>
      </trkpt>
      <trkpt lat="46.00939" lon="5.59972">
        <ele>852.2</ele>
        <time>2026-05-12T07:22:23Z</time>
      </trkpt>
      <trkpt lat="46.00938" lon="5.59976">
        <ele>852.2</ele>
        <time>2026-05-12T07:22:24Z</time>
      </trkpt>
      <trkpt lat="46.00936" lon="5.5998">
        <ele>852.6</ele>
        <time>2026-05-12T07:22:25Z</time>
      </trkpt>
      <trkpt lat="46.00935" lon="5.59985">
        <ele>852.8</ele>
        <time>2026-05-12T07:22:26Z</time>
      </trkpt>
      <trkpt lat="46.00934" lon="5.59988">
        <ele>852.8</ele>
        <time>2026-05-12T07:22:27Z</time>
      </trkpt>
      <trkpt lat="46.00933" lon="5.59992">
        <ele>853</ele>
        <time>2026-05-12T07:22:28Z</time>
      </trkpt>
      <trkpt lat="46.00932" lon="5.59997">
        <ele>853</ele>
        <time>2026-05-12T07:22:29Z</time>
      </trkpt>
      <trkpt lat="46.00931" lon="5.6">
        <ele>853.4</ele>
        <time>2026-05-12T07:22:30Z</time>
      </trkpt>
      <trkpt lat="46.0093" lon="5.60004">
        <ele>853.4</ele>
        <time>2026-05-12T07:22:31Z</time>
      </trkpt>
      <trkpt lat="46.00929" lon="5.60008">
        <ele>853.6</ele>
        <time>2026-05-12T07:22:32Z</time>
      </trkpt>
      <trkpt lat="46.00927" lon="5.60012">
        <ele>853.6</ele>
        <time>2026-05-12T07:22:33Z</time>
      </trkpt>
      <trkpt lat="46.00925" lon="5.60015">
        <ele>853.8</ele>
        <time>2026-05-12T07:22:34Z</time>
      </trkpt>
      <trkpt lat="46.00925" lon="5.60019">
        <ele>854.2</ele>
        <time>2026-05-12T07:22:35Z</time>
      </trkpt>
      <trkpt lat="46.00923" lon="5.60023">
        <ele>854.4</ele>
        <time>2026-05-12T07:22:36Z</time>
      </trkpt>
      <trkpt lat="46.00922" lon="5.60026">
        <ele>854.4</ele>
        <time>2026-05-12T07:22:37Z</time>
      </trkpt>
      <trkpt lat="46.00922" lon="5.6003">
        <ele>854.6</ele>
        <time>2026-05-12T07:22:38Z</time>
      </trkpt>
      <trkpt lat="46.00921" lon="5.60034">
        <ele>854.6</ele>
        <time>2026-05-12T07:22:39Z</time>
      </trkpt>
      <trkpt lat="46.0092" lon="5.60037">
        <ele>854.6</ele>
        <time>2026-05-12T07:22:40Z</time>
      </trkpt>
      <trkpt lat="46.00919" lon="5.6004">
        <ele>855</ele>
        <time>2026-05-12T07:22:41Z</time>
      </trkpt>
      <trkpt lat="46.00917" lon="5.60044">
        <ele>855.2</ele>
        <time>2026-05-12T07:22:42Z</time>
      </trkpt>
      <trkpt lat="46.00916" lon="5.60048">
        <ele>855.2</ele>
        <time>2026-05-12T07:22:43Z</time>
      </trkpt>
      <trkpt lat="46.00915" lon="5.60052">
        <ele>855.4</ele>
        <time>2026-05-12T07:22:44Z</time>
      </trkpt>
      <trkpt lat="46.00915" lon="5.60055">
        <ele>855.8</ele>
        <time>2026-05-12T07:22:45Z</time>
      </trkpt>
      <trkpt lat="46.00914" lon="5.60058">
        <ele>856</ele>
        <time>2026-05-12T07:22:46Z</time>
      </trkpt>
      <trkpt lat="46.00913" lon="5.60062">
        <ele>856</ele>
        <time>2026-05-12T07:22:47Z</time>
      </trkpt>
      <trkpt lat="46.00912" lon="5.60066">
        <ele>856</ele>
        <time>2026-05-12T07:22:48Z</time>
      </trkpt>
      <trkpt lat="46.00911" lon="5.60069">
        <ele>856.2</ele>
        <time>2026-05-12T07:22:49Z</time>
      </trkpt>
      <trkpt lat="46.00909" lon="5.60072">
        <ele>856.2</ele>
        <time>2026-05-12T07:22:50Z</time>
      </trkpt>
      <trkpt lat="46.00908" lon="5.60075">
        <ele>856.6</ele>
        <time>2026-05-12T07:22:51Z</time>
      </trkpt>
      <trkpt lat="46.00907" lon="5.60078">
        <ele>856.8</ele>
        <time>2026-05-12T07:22:52Z</time>
      </trkpt>
      <trkpt lat="46.00906" lon="5.60082">
        <ele>856.8</ele>
        <time>2026-05-12T07:22:53Z</time>
      </trkpt>
      <trkpt lat="46.00906" lon="5.60085">
        <ele>857.2</ele>
        <time>2026-05-12T07:22:54Z</time>
      </trkpt>
      <trkpt lat="46.00905" lon="5.60088">
        <ele>857.2</ele>
        <time>2026-05-12T07:22:55Z</time>
      </trkpt>
      <trkpt lat="46.00904" lon="5.60092">
        <ele>857.6</ele>
        <time>2026-05-12T07:22:56Z</time>
      </trkpt>
      <trkpt lat="46.00903" lon="5.60095">
        <ele>857.6</ele>
        <time>2026-05-12T07:22:57Z</time>
      </trkpt>
      <trkpt lat="46.00902" lon="5.60099">
        <ele>858</ele>
        <time>2026-05-12T07:22:58Z</time>
      </trkpt>
      <trkpt lat="46.00902" lon="5.60102">
        <ele>858</ele>
        <time>2026-05-12T07:22:59Z</time>
      </trkpt>
      <trkpt lat="46.00901" lon="5.60105">
        <ele>858.2</ele>
        <time>2026-05-12T07:23:00Z</time>
      </trkpt>
      <trkpt lat="46.009" lon="5.60108">
        <ele>858.4</ele>
        <time>2026-05-12T07:23:01Z</time>
      </trkpt>
      <trkpt lat="46.00899" lon="5.60111">
        <ele>858.4</ele>
        <time>2026-05-12T07:23:02Z</time>
      </trkpt>
      <trkpt lat="46.00898" lon="5.60114">
        <ele>858.8</ele>
        <time>2026-05-12T07:23:03Z</time>
      </trkpt>
      <trkpt lat="46.00897" lon="5.60117">
        <ele>859</ele>
        <time>2026-05-12T07:23:04Z</time>
      </trkpt>
      <trkpt lat="46.00896" lon="5.6012">
        <ele>859</ele>
        <time>2026-05-12T07:23:05Z</time>
      </trkpt>
      <trkpt lat="46.00896" lon="5.60123">
        <ele>859.2</ele>
        <time>2026-05-12T07:23:06Z</time>
      </trkpt>
      <trkpt lat="46.00895" lon="5.60127">
        <ele>859.2</ele>
        <time>2026-05-12T07:23:07Z</time>
      </trkpt>
      <trkpt lat="46.00894" lon="5.6013">
        <ele>859.2</ele>
        <time>2026-05-12T07:23:08Z</time>
      </trkpt>
      <trkpt lat="46.00893" lon="5.60133">
        <ele>859.2</ele>
        <time>2026-05-12T07:23:09Z</time>
      </trkpt>
      <trkpt lat="46.00892" lon="5.60136">
        <ele>859.6</ele>
        <time>2026-05-12T07:23:10Z</time>
      </trkpt>
      <trkpt lat="46.00891" lon="5.6014">
        <ele>859.6</ele>
        <time>2026-05-12T07:23:11Z</time>
      </trkpt>
      <trkpt lat="46.0089" lon="5.60143">
        <ele>860</ele>
        <time>2026-05-12T07:23:12Z</time>
      </trkpt>
      <trkpt lat="46.00888" lon="5.60146">
        <ele>860</ele>
        <time>2026-05-12T07:23:13Z</time>
      </trkpt>
      <trkpt lat="46.00887" lon="5.60149">
        <ele>860.2</ele>
        <time>2026-05-12T07:23:14Z</time>
      </trkpt>
      <trkpt lat="46.00886" lon="5.60152">
        <ele>860.2</ele>
        <time>2026-05-12T07:23:15Z</time>
      </trkpt>
      <trkpt lat="46.00885" lon="5.60154">
        <ele>860.4</ele>
        <time>2026-05-12T07:23:16Z</time>
      </trkpt>
      <trkpt lat="46.00883" lon="5.60157">
        <ele>860.4</ele>
        <time>2026-05-12T07:23:17Z</time>
      </trkpt>
      <trkpt lat="46.00881" lon="5.6016">
        <ele>860.8</ele>
        <time>2026-05-12T07:23:18Z</time>
      </trkpt>
      <trkpt lat="46.0088" lon="5.60163">
        <ele>861</ele>
        <time>2026-05-12T07:23:19Z</time>
      </trkpt>
      <trkpt lat="46.00878" lon="5.60166">
        <ele>861</ele>
        <time>2026-05-12T07:23:20Z</time>
      </trkpt>
      <trkpt lat="46.00877" lon="5.60168">
        <ele>861.4</ele>
        <time>2026-05-12T07:23:21Z</time>
      </trkpt>
      <trkpt lat="46.00875" lon="5.6017">
        <ele>861.4</ele>
        <time>2026-05-12T07:23:22Z</time>
      </trkpt>
      <trkpt lat="46.00874" lon="5.60173">
        <ele>861.6</ele>
        <time>2026-05-12T07:23:23Z</time>
      </trkpt>
      <trkpt lat="46.00872" lon="5.60175">
        <ele>861.6</ele>
        <time>2026-05-12T07:23:24Z</time>
      </trkpt>
      <trkpt lat="46.00871" lon="5.60177">
        <ele>861.8</ele>
        <time>2026-05-12T07:23:25Z</time>
      </trkpt>
      <trkpt lat="46.00869" lon="5.6018">
        <ele>861.8</ele>
        <time>2026-05-12T07:23:26Z</time>
      </trkpt>
      <trkpt lat="46.00867" lon="5.60181">
        <ele>861.8</ele>
        <time>2026-05-12T07:23:27Z</time>
      </trkpt>
      <trkpt lat="46.00866" lon="5.60183">
        <ele>862.2</ele>
        <time>2026-05-12T07:23:28Z</time>
      </trkpt>
      <trkpt lat="46.00864" lon="5.60185">
        <ele>862.2</ele>
        <time>2026-05-12T07:23:29Z</time>
      </trkpt>
      <trkpt lat="46.00862" lon="5.60186">
        <ele>862.6</ele>
        <time>2026-05-12T07:23:30Z</time>
      </trkpt>
      <trkpt lat="46.00861" lon="5.60188">
        <ele>862.6</ele>
        <time>2026-05-12T07:23:31Z</time>
      </trkpt>
      <trkpt lat="46.00859" lon="5.6019">
        <ele>863</ele>
        <time>2026-05-12T07:23:32Z</time>
      </trkpt>
      <trkpt lat="46.00857" lon="5.60192">
        <ele>863</ele>
        <time>2026-05-12T07:23:33Z</time>
      </trkpt>
      <trkpt lat="46.00856" lon="5.60194">
        <ele>863</ele>
        <time>2026-05-12T07:23:34Z</time>
      </trkpt>
      <trkpt lat="46.00854" lon="5.60196">
        <ele>863.2</ele>
        <time>2026-05-12T07:23:35Z</time>
      </trkpt>
      <trkpt lat="46.00852" lon="5.60198">
        <ele>863.2</ele>
        <time>2026-05-12T07:23:36Z</time>
      </trkpt>
      <trkpt lat="46.0085" lon="5.60199">
        <ele>863.6</ele>
        <time>2026-05-12T07:23:37Z</time>
      </trkpt>
      <trkpt lat="46.00849" lon="5.60201">
        <ele>863.6</ele>
        <time>2026-05-12T07:23:38Z</time>
      </trkpt>
      <trkpt lat="46.00847" lon="5.60204">
        <ele>864</ele>
        <time>2026-05-12T07:23:39Z</time>
      </trkpt>
      <trkpt lat="46.00845" lon="5.60206">
        <ele>864</ele>
        <time>2026-05-12T07:23:40Z</time>
      </trkpt>
      <trkpt lat="46.00843" lon="5.60208">
        <ele>864.2</ele>
        <time>2026-05-12T07:23:41Z</time>
      </trkpt>
      <trkpt lat="46.00841" lon="5.60211">
        <ele>864.4</ele>
        <time>2026-05-12T07:23:42Z</time>
      </trkpt>
      <trkpt lat="46.00839" lon="5.60213">
        <ele>864.4</ele>
        <time>2026-05-12T07:23:43Z</time>
      </trkpt>
      <trkpt lat="46.00837" lon="5.60216">
        <ele>864.8</ele>
        <time>2026-05-12T07:23:44Z</time>
      </trkpt>
      <trkpt lat="46.00835" lon="5.60218">
        <ele>865</ele>
        <time>2026-05-12T07:23:45Z</time>
      </trkpt>
      <trkpt lat="46.00833" lon="5.60221">
        <ele>865.2</ele>
        <time>2026-05-12T07:23:46Z</time>
      </trkpt>
      <trkpt lat="46.00831" lon="5.60223">
        <ele>865.4</ele>
        <time>2026-05-12T07:23:47Z</time>
      </trkpt>
      <trkpt lat="46.0083" lon="5.60226">
        <ele>865.4</ele>
        <time>2026-05-12T07:23:48Z</time>
      </trkpt>
      <trkpt lat="46.00828" lon="5.60228">
        <ele>865.8</ele>
        <time>2026-05-12T07:23:49Z</time>
      </trkpt>
      <trkpt lat="46.00827" lon="5.60231">
        <ele>865.8</ele>
        <time>2026-05-12T07:23:50Z</time>
      </trkpt>
      <trkpt lat="46.00825" lon="5.60234">
        <ele>866</ele>
        <time>2026-05-12T07:23:51Z</time>
      </trkpt>
      <trkpt lat="46.00824" lon="5.60237">
        <ele>866</ele>
        <time>2026-05-12T07:23:52Z</time>
      </trkpt>
      <trkpt lat="46.00823" lon="5.6024">
        <ele>866.2</ele>
        <time>2026-05-12T07:23:53Z</time>
      </trkpt>
      <trkpt lat="46.00821" lon="5.60243">
        <ele>866.2</ele>
        <time>2026-05-12T07:23:54Z</time>
      </trkpt>
      <trkpt lat="46.0082" lon="5.60245">
        <ele>866.2</ele>
        <time>2026-05-12T07:23:55Z</time>
      </trkpt>
      <trkpt lat="46.00818" lon="5.60248">
        <ele>866.6</ele>
        <time>2026-05-12T07:23:56Z</time>
      </trkpt>
      <trkpt lat="46.00817" lon="5.60251">
        <ele>866.6</ele>
        <time>2026-05-12T07:23:57Z</time>
      </trkpt>
      <trkpt lat="46.00816" lon="5.60254">
        <ele>866.6</ele>
        <time>2026-05-12T07:23:58Z</time>
      </trkpt>
      <trkpt lat="46.00815" lon="5.60257">
        <ele>866.8</ele>
        <time>2026-05-12T07:23:59Z</time>
      </trkpt>
      <trkpt lat="46.00814" lon="5.6026">
        <ele>866.8</ele>
        <time>2026-05-12T07:24:00Z</time>
      </trkpt>
      <trkpt lat="46.00813" lon="5.60264">
        <ele>867.2</ele>
        <time>2026-05-12T07:24:01Z</time>
      </trkpt>
      <trkpt lat="46.00812" lon="5.60267">
        <ele>867.2</ele>
        <time>2026-05-12T07:24:02Z</time>
      </trkpt>
      <trkpt lat="46.00811" lon="5.6027">
        <ele>867.4</ele>
        <time>2026-05-12T07:24:03Z</time>
      </trkpt>
      <trkpt lat="46.00811" lon="5.60273">
        <ele>867.4</ele>
        <time>2026-05-12T07:24:04Z</time>
      </trkpt>
      <trkpt lat="46.0081" lon="5.60276">
        <ele>867.6</ele>
        <time>2026-05-12T07:24:05Z</time>
      </trkpt>
      <trkpt lat="46.00809" lon="5.60279">
        <ele>867.6</ele>
        <time>2026-05-12T07:24:06Z</time>
      </trkpt>
      <trkpt lat="46.00808" lon="5.60282">
        <ele>868</ele>
        <time>2026-05-12T07:24:07Z</time>
      </trkpt>
      <trkpt lat="46.00807" lon="5.60286">
        <ele>868</ele>
        <time>2026-05-12T07:24:08Z</time>
      </trkpt>
      <trkpt lat="46.00806" lon="5.60289">
        <ele>868.2</ele>
        <time>2026-05-12T07:24:09Z</time>
      </trkpt>
      <trkpt lat="46.00805" lon="5.60292">
        <ele>868.2</ele>
        <time>2026-05-12T07:24:10Z</time>
      </trkpt>
      <trkpt lat="46.00804" lon="5.60295">
        <ele>868.6</ele>
        <time>2026-05-12T07:24:11Z</time>
      </trkpt>
      <trkpt lat="46.00803" lon="5.60299">
        <ele>868.6</ele>
        <time>2026-05-12T07:24:12Z</time>
      </trkpt>
      <trkpt lat="46.00803" lon="5.60302">
        <ele>868.6</ele>
        <time>2026-05-12T07:24:13Z</time>
      </trkpt>
      <trkpt lat="46.00802" lon="5.60306">
        <ele>869</ele>
        <time>2026-05-12T07:24:14Z</time>
      </trkpt>
      <trkpt lat="46.00801" lon="5.60309">
        <ele>869</ele>
        <time>2026-05-12T07:24:15Z</time>
      </trkpt>
      <trkpt lat="46.00801" lon="5.60312">
        <ele>869.4</ele>
        <time>2026-05-12T07:24:16Z</time>
      </trkpt>
      <trkpt lat="46.008" lon="5.60315">
        <ele>869.6</ele>
        <time>2026-05-12T07:24:17Z</time>
      </trkpt>
      <trkpt lat="46.00799" lon="5.60318">
        <ele>869.6</ele>
        <time>2026-05-12T07:24:18Z</time>
      </trkpt>
      <trkpt lat="46.00799" lon="5.60321">
        <ele>869.6</ele>
        <time>2026-05-12T07:24:19Z</time>
      </trkpt>
      <trkpt lat="46.00798" lon="5.60324">
        <ele>869.8</ele>
        <time>2026-05-12T07:24:20Z</time>
      </trkpt>
      <trkpt lat="46.00797" lon="5.60327">
        <ele>869.8</ele>
        <time>2026-05-12T07:24:21Z</time>
      </trkpt>
      <trkpt lat="46.00796" lon="5.6033">
        <ele>869.8</ele>
        <time>2026-05-12T07:24:22Z</time>
      </trkpt>
      <trkpt lat="46.00795" lon="5.60333">
        <ele>870</ele>
        <time>2026-05-12T07:24:23Z</time>
      </trkpt>
      <trkpt lat="46.00794" lon="5.60336">
        <ele>870</ele>
        <time>2026-05-12T07:24:24Z</time>
      </trkpt>
      <trkpt lat="46.00793" lon="5.6034">
        <ele>870.4</ele>
        <time>2026-05-12T07:24:25Z</time>
      </trkpt>
      <trkpt lat="46.00793" lon="5.60343">
        <ele>870.4</ele>
        <time>2026-05-12T07:24:26Z</time>
      </trkpt>
      <trkpt lat="46.00792" lon="5.60346">
        <ele>870.4</ele>
        <time>2026-05-12T07:24:27Z</time>
      </trkpt>
      <trkpt lat="46.00791" lon="5.60349">
        <ele>870.8</ele>
        <time>2026-05-12T07:24:28Z</time>
      </trkpt>
      <trkpt lat="46.0079" lon="5.60352">
        <ele>870.8</ele>
        <time>2026-05-12T07:24:29Z</time>
      </trkpt>
      <trkpt lat="46.0079" lon="5.60356">
        <ele>871</ele>
        <time>2026-05-12T07:24:30Z</time>
      </trkpt>
      <trkpt lat="46.00789" lon="5.60359">
        <ele>871</ele>
        <time>2026-05-12T07:24:31Z</time>
      </trkpt>
      <trkpt lat="46.00788" lon="5.60362">
        <ele>871</ele>
        <time>2026-05-12T07:24:32Z</time>
      </trkpt>
      <trkpt lat="46.00788" lon="5.60365">
        <ele>871.2</ele>
        <time>2026-05-12T07:24:33Z</time>
      </trkpt>
      <trkpt lat="46.00787" lon="5.60368">
        <ele>871.2</ele>
        <time>2026-05-12T07:24:34Z</time>
      </trkpt>
      <trkpt lat="46.00786" lon="5.60371">
        <ele>871.2</ele>
        <time>2026-05-12T07:24:35Z</time>
      </trkpt>
      <trkpt lat="46.00786" lon="5.60374">
        <ele>871.8</ele>
        <time>2026-05-12T07:24:36Z</time>
      </trkpt>
      <trkpt lat="46.00785" lon="5.60377">
        <ele>872</ele>
        <time>2026-05-12T07:24:37Z</time>
      </trkpt>
      <trkpt lat="46.00784" lon="5.6038">
        <ele>872</ele>
        <time>2026-05-12T07:24:38Z</time>
      </trkpt>
      <trkpt lat="46.00783" lon="5.60383">
        <ele>872.2</ele>
        <time>2026-05-12T07:24:39Z</time>
      </trkpt>
      <trkpt lat="46.00782" lon="5.60386">
        <ele>872.2</ele>
        <time>2026-05-12T07:24:40Z</time>
      </trkpt>
      <trkpt lat="46.00781" lon="5.6039">
        <ele>872.6</ele>
        <time>2026-05-12T07:24:41Z</time>
      </trkpt>
      <trkpt lat="46.00781" lon="5.60393">
        <ele>872.6</ele>
        <time>2026-05-12T07:24:42Z</time>
      </trkpt>
      <trkpt lat="46.0078" lon="5.60396">
        <ele>872.6</ele>
        <time>2026-05-12T07:24:43Z</time>
      </trkpt>
      <trkpt lat="46.00779" lon="5.604">
        <ele>873</ele>
        <time>2026-05-12T07:24:44Z</time>
      </trkpt>
      <trkpt lat="46.00778" lon="5.60403">
        <ele>873</ele>
        <time>2026-05-12T07:24:45Z</time>
      </trkpt>
      <trkpt lat="46.00777" lon="5.60406">
        <ele>873.2</ele>
        <time>2026-05-12T07:24:46Z</time>
      </trkpt>
      <trkpt lat="46.00776" lon="5.60409">
        <ele>873.2</ele>
        <time>2026-05-12T07:24:47Z</time>
      </trkpt>
      <trkpt lat="46.00774" lon="5.60415">
        <ele>873.2</ele>
        <time>2026-05-12T07:24:48Z</time>
      </trkpt>
      <trkpt lat="46.00773" lon="5.60418">
        <ele>873.6</ele>
        <time>2026-05-12T07:24:49Z</time>
      </trkpt>
      <trkpt lat="46.00771" lon="5.60421">
        <ele>873.6</ele>
        <time>2026-05-12T07:24:50Z</time>
      </trkpt>
      <trkpt lat="46.0077" lon="5.60424">
        <ele>873.6</ele>
        <time>2026-05-12T07:24:51Z</time>
      </trkpt>
      <trkpt lat="46.00769" lon="5.60427">
        <ele>873.8</ele>
        <time>2026-05-12T07:24:52Z</time>
      </trkpt>
      <trkpt lat="46.00767" lon="5.6043">
        <ele>874.2</ele>
        <time>2026-05-12T07:24:53Z</time>
      </trkpt>
      <trkpt lat="46.00766" lon="5.60433">
        <ele>874.4</ele>
        <time>2026-05-12T07:24:54Z</time>
      </trkpt>
      <trkpt lat="46.00765" lon="5.60436">
        <ele>874.4</ele>
        <time>2026-05-12T07:24:55Z</time>
      </trkpt>
      <trkpt lat="46.00763" lon="5.60438">
        <ele>874.4</ele>
        <time>2026-05-12T07:24:56Z</time>
      </trkpt>
      <trkpt lat="46.00762" lon="5.60441">
        <ele>874.6</ele>
        <time>2026-05-12T07:24:57Z</time>
      </trkpt>
      <trkpt lat="46.0076" lon="5.60443">
        <ele>874.6</ele>
        <time>2026-05-12T07:24:58Z</time>
      </trkpt>
      <trkpt lat="46.00759" lon="5.60445">
        <ele>874.6</ele>
        <time>2026-05-12T07:24:59Z</time>
      </trkpt>
      <trkpt lat="46.00758" lon="5.60448">
        <ele>874.8</ele>
        <time>2026-05-12T07:25:00Z</time>
      </trkpt>
      <trkpt lat="46.00756" lon="5.6045">
        <ele>875.2</ele>
        <time>2026-05-12T07:25:01Z</time>
      </trkpt>
      <trkpt lat="46.00755" lon="5.60453">
        <ele>875.2</ele>
        <time>2026-05-12T07:25:02Z</time>
      </trkpt>
      <trkpt lat="46.00752" lon="5.60455">
        <ele>875.6</ele>
        <time>2026-05-12T07:25:03Z</time>
      </trkpt>
      <trkpt lat="46.00751" lon="5.60458">
        <ele>875.8</ele>
        <time>2026-05-12T07:25:04Z</time>
      </trkpt>
      <trkpt lat="46.00749" lon="5.6046">
        <ele>875.8</ele>
        <time>2026-05-12T07:25:05Z</time>
      </trkpt>
      <trkpt lat="46.00747" lon="5.60462">
        <ele>876</ele>
        <time>2026-05-12T07:25:06Z</time>
      </trkpt>
      <trkpt lat="46.00745" lon="5.60464">
        <ele>876</ele>
        <time>2026-05-12T07:25:07Z</time>
      </trkpt>
      <trkpt lat="46.00743" lon="5.60466">
        <ele>876.2</ele>
        <time>2026-05-12T07:25:08Z</time>
      </trkpt>
      <trkpt lat="46.00741" lon="5.60467">
        <ele>876.2</ele>
        <time>2026-05-12T07:25:09Z</time>
      </trkpt>
      <trkpt lat="46.00739" lon="5.60469">
        <ele>876.6</ele>
        <time>2026-05-12T07:25:10Z</time>
      </trkpt>
      <trkpt lat="46.00737" lon="5.60471">
        <ele>876.6</ele>
        <time>2026-05-12T07:25:11Z</time>
      </trkpt>
      <trkpt lat="46.00735" lon="5.60472">
        <ele>876.6</ele>
        <time>2026-05-12T07:25:12Z</time>
      </trkpt>
      <trkpt lat="46.00732" lon="5.60474">
        <ele>876.8</ele>
        <time>2026-05-12T07:25:13Z</time>
      </trkpt>
      <trkpt lat="46.0073" lon="5.60475">
        <ele>876.8</ele>
        <time>2026-05-12T07:25:14Z</time>
      </trkpt>
      <trkpt lat="46.00728" lon="5.60476">
        <ele>876.8</ele>
        <time>2026-05-12T07:25:15Z</time>
      </trkpt>
      <trkpt lat="46.00725" lon="5.60477">
        <ele>876.8</ele>
        <time>2026-05-12T07:25:16Z</time>
      </trkpt>
      <trkpt lat="46.00722" lon="5.60477">
        <ele>877</ele>
        <time>2026-05-12T07:25:17Z</time>
      </trkpt>
      <trkpt lat="46.0072" lon="5.60478">
        <ele>877</ele>
        <time>2026-05-12T07:25:18Z</time>
      </trkpt>
      <trkpt lat="46.00717" lon="5.60479">
        <ele>877.4</ele>
        <time>2026-05-12T07:25:19Z</time>
      </trkpt>
      <trkpt lat="46.00715" lon="5.6048">
        <ele>877.4</ele>
        <time>2026-05-12T07:25:20Z</time>
      </trkpt>
      <trkpt lat="46.00712" lon="5.60481">
        <ele>877.4</ele>
        <time>2026-05-12T07:25:21Z</time>
      </trkpt>
      <trkpt lat="46.00709" lon="5.60481">
        <ele>877.4</ele>
        <time>2026-05-12T07:25:22Z</time>
      </trkpt>
      <trkpt lat="46.00706" lon="5.60482">
        <ele>877.6</ele>
        <time>2026-05-12T07:25:23Z</time>
      </trkpt>
      <trkpt lat="46.00704" lon="5.60483">
        <ele>877.6</ele>
        <time>2026-05-12T07:25:24Z</time>
      </trkpt>
      <trkpt lat="46.00701" lon="5.60483">
        <ele>877.6</ele>
        <time>2026-05-12T07:25:25Z</time>
      </trkpt>
      <trkpt lat="46.00698" lon="5.60483">
        <ele>877.6</ele>
        <time>2026-05-12T07:25:26Z</time>
      </trkpt>
      <trkpt lat="46.00695" lon="5.60484">
        <ele>877.8</ele>
        <time>2026-05-12T07:25:27Z</time>
      </trkpt>
      <trkpt lat="46.00693" lon="5.60484">
        <ele>877.8</ele>
        <time>2026-05-12T07:25:28Z</time>
      </trkpt>
      <trkpt lat="46.0069" lon="5.60485">
        <ele>877.8</ele>
        <time>2026-05-12T07:25:29Z</time>
      </trkpt>
      <trkpt lat="46.0069" lon="5.60485">
        <ele>878.2</ele>
        <time>2026-05-12T07:25:30Z</time>
      </trkpt>
      <trkpt lat="46.00687" lon="5.60485">
        <ele>878.2</ele>
        <time>2026-05-12T07:25:31Z</time>
      </trkpt>
      <trkpt lat="46.00684" lon="5.60486">
        <ele>878.2</ele>
        <time>2026-05-12T07:25:32Z</time>
      </trkpt>
      <trkpt lat="46.00682" lon="5.60487">
        <ele>878.2</ele>
        <time>2026-05-12T07:25:33Z</time>
      </trkpt>
      <trkpt lat="46.00679" lon="5.60487">
        <ele>878.6</ele>
        <time>2026-05-12T07:25:34Z</time>
      </trkpt>
      <trkpt lat="46.00676" lon="5.60488">
        <ele>878.6</ele>
        <time>2026-05-12T07:25:35Z</time>
      </trkpt>
      <trkpt lat="46.00673" lon="5.60488">
        <ele>878.8</ele>
        <time>2026-05-12T07:25:36Z</time>
      </trkpt>
      <trkpt lat="46.0067" lon="5.60489">
        <ele>878.8</ele>
        <time>2026-05-12T07:25:37Z</time>
      </trkpt>
      <trkpt lat="46.00667" lon="5.60489">
        <ele>878.8</ele>
        <time>2026-05-12T07:25:38Z</time>
      </trkpt>
      <trkpt lat="46.00664" lon="5.6049">
        <ele>879</ele>
        <time>2026-05-12T07:25:39Z</time>
      </trkpt>
      <trkpt lat="46.00661" lon="5.6049">
        <ele>879.2</ele>
        <time>2026-05-12T07:25:40Z</time>
      </trkpt>
      <trkpt lat="46.00657" lon="5.6049">
        <ele>879.2</ele>
        <time>2026-05-12T07:25:41Z</time>
      </trkpt>
      <trkpt lat="46.00654" lon="5.60491">
        <ele>879.2</ele>
        <time>2026-05-12T07:25:42Z</time>
      </trkpt>
      <trkpt lat="46.00651" lon="5.60491">
        <ele>879.2</ele>
        <time>2026-05-12T07:25:43Z</time>
      </trkpt>
      <trkpt lat="46.00647" lon="5.60491">
        <ele>879.2</ele>
        <time>2026-05-12T07:25:44Z</time>
      </trkpt>
      <trkpt lat="46.00644" lon="5.60492">
        <ele>879.2</ele>
        <time>2026-05-12T07:25:45Z</time>
      </trkpt>
      <trkpt lat="46.00641" lon="5.60492">
        <ele>879.2</ele>
        <time>2026-05-12T07:25:46Z</time>
      </trkpt>
      <trkpt lat="46.00638" lon="5.60493">
        <ele>879.2</ele>
        <time>2026-05-12T07:25:47Z</time>
      </trkpt>
      <trkpt lat="46.00636" lon="5.60493">
        <ele>879.4</ele>
        <time>2026-05-12T07:25:48Z</time>
      </trkpt>
      <trkpt lat="46.00633" lon="5.60494">
        <ele>879.4</ele>
        <time>2026-05-12T07:25:49Z</time>
      </trkpt>
      <trkpt lat="46.0063" lon="5.60495">
        <ele>879.4</ele>
        <time>2026-05-12T07:25:50Z</time>
      </trkpt>
      <trkpt lat="46.00627" lon="5.60496">
        <ele>879.4</ele>
        <time>2026-05-12T07:25:51Z</time>
      </trkpt>
      <trkpt lat="46.00623" lon="5.60496">
        <ele>879.4</ele>
        <time>2026-05-12T07:25:52Z</time>
      </trkpt>
      <trkpt lat="46.00619" lon="5.60496">
        <ele>879.2</ele>
        <time>2026-05-12T07:25:53Z</time>
      </trkpt>
      <trkpt lat="46.00616" lon="5.60496">
        <ele>879.2</ele>
        <time>2026-05-12T07:25:54Z</time>
      </trkpt>
      <trkpt lat="46.00613" lon="5.60496">
        <ele>879.6</ele>
        <time>2026-05-12T07:25:55Z</time>
      </trkpt>
      <trkpt lat="46.0061" lon="5.60496">
        <ele>879.6</ele>
        <time>2026-05-12T07:25:56Z</time>
      </trkpt>
      <trkpt lat="46.00607" lon="5.60496">
        <ele>879.6</ele>
        <time>2026-05-12T07:25:57Z</time>
      </trkpt>
      <trkpt lat="46.00603" lon="5.60496">
        <ele>879.6</ele>
        <time>2026-05-12T07:25:58Z</time>
      </trkpt>
      <trkpt lat="46.00601" lon="5.60496">
        <ele>879.8</ele>
        <time>2026-05-12T07:25:59Z</time>
      </trkpt>
      <trkpt lat="46.00598" lon="5.60495">
        <ele>879.8</ele>
        <time>2026-05-12T07:26:00Z</time>
      </trkpt>
      <trkpt lat="46.00596" lon="5.60493">
        <ele>880.2</ele>
        <time>2026-05-12T07:26:01Z</time>
      </trkpt>
      <trkpt lat="46.00594" lon="5.60492">
        <ele>880.2</ele>
        <time>2026-05-12T07:26:02Z</time>
      </trkpt>
      <trkpt lat="46.0059" lon="5.60491">
        <ele>880.4</ele>
        <time>2026-05-12T07:26:03Z</time>
      </trkpt>
      <trkpt lat="46.00586" lon="5.60491">
        <ele>880.4</ele>
        <time>2026-05-12T07:26:04Z</time>
      </trkpt>
      <trkpt lat="46.00583" lon="5.6049">
        <ele>880.4</ele>
        <time>2026-05-12T07:26:05Z</time>
      </trkpt>
      <trkpt lat="46.0058" lon="5.60489">
        <ele>880.4</ele>
        <time>2026-05-12T07:26:06Z</time>
      </trkpt>
      <trkpt lat="46.00576" lon="5.60489">
        <ele>880.2</ele>
        <time>2026-05-12T07:26:07Z</time>
      </trkpt>
      <trkpt lat="46.00572" lon="5.60489">
        <ele>880.2</ele>
        <time>2026-05-12T07:26:08Z</time>
      </trkpt>
      <trkpt lat="46.00568" lon="5.60489">
        <ele>880.2</ele>
        <time>2026-05-12T07:26:09Z</time>
      </trkpt>
      <trkpt lat="46.00562" lon="5.60491">
        <ele>880.2</ele>
        <time>2026-05-12T07:26:10Z</time>
      </trkpt>
      <trkpt lat="46.00557" lon="5.60492">
        <ele>880.2</ele>
        <time>2026-05-12T07:26:11Z</time>
      </trkpt>
      <trkpt lat="46.00554" lon="5.60491">
        <ele>880.6</ele>
        <time>2026-05-12T07:26:12Z</time>
      </trkpt>
      <trkpt lat="46.00549" lon="5.6049">
        <ele>880.6</ele>
        <time>2026-05-12T07:26:13Z</time>
      </trkpt>
      <trkpt lat="46.00545" lon="5.60488">
        <ele>880.6</ele>
        <time>2026-05-12T07:26:14Z</time>
      </trkpt>
      <trkpt lat="46.0054" lon="5.60487">
        <ele>880.6</ele>
        <time>2026-05-12T07:26:15Z</time>
      </trkpt>
      <trkpt lat="46.00536" lon="5.60485">
        <ele>880.6</ele>
        <time>2026-05-12T07:26:16Z</time>
      </trkpt>
      <trkpt lat="46.00532" lon="5.60485">
        <ele>880.6</ele>
        <time>2026-05-12T07:26:17Z</time>
      </trkpt>
      <trkpt lat="46.00526" lon="5.60484">
        <ele>880</ele>
        <time>2026-05-12T07:26:18Z</time>
      </trkpt>
      <trkpt lat="46.00524" lon="5.60483">
        <ele>879.8</ele>
        <time>2026-05-12T07:26:19Z</time>
      </trkpt>
      <trkpt lat="46.00518" lon="5.60485">
        <ele>879.8</ele>
        <time>2026-05-12T07:26:20Z</time>
      </trkpt>
      <trkpt lat="46.00515" lon="5.60482">
        <ele>879.8</ele>
        <time>2026-05-12T07:26:21Z</time>
      </trkpt>
      <trkpt lat="46.00511" lon="5.6048">
        <ele>879.8</ele>
        <time>2026-05-12T07:26:22Z</time>
      </trkpt>
      <trkpt lat="46.00508" lon="5.60479">
        <ele>879.4</ele>
        <time>2026-05-12T07:26:23Z</time>
      </trkpt>
      <trkpt lat="46.00503" lon="5.6048">
        <ele>879.4</ele>
        <time>2026-05-12T07:26:24Z</time>
      </trkpt>
      <trkpt lat="46.005" lon="5.60482">
        <ele>879.4</ele>
        <time>2026-05-12T07:26:25Z</time>
      </trkpt>
      <trkpt lat="46.00495" lon="5.60481">
        <ele>879.4</ele>
        <time>2026-05-12T07:26:26Z</time>
      </trkpt>
      <trkpt lat="46.00491" lon="5.60481">
        <ele>879.4</ele>
        <time>2026-05-12T07:26:27Z</time>
      </trkpt>
      <trkpt lat="46.00482" lon="5.60478">
        <ele>879.4</ele>
        <time>2026-05-12T07:26:28Z</time>
      </trkpt>
      <trkpt lat="46.00474" lon="5.60478">
        <ele>879.4</ele>
        <time>2026-05-12T07:26:29Z</time>
      </trkpt>
      <trkpt lat="46.0047" lon="5.6048">
        <ele>879.2</ele>
        <time>2026-05-12T07:26:30Z</time>
      </trkpt>
      <trkpt lat="46.00462" lon="5.6048">
        <ele>879.2</ele>
        <time>2026-05-12T07:26:31Z</time>
      </trkpt>
      <trkpt lat="46.00456" lon="5.60476">
        <ele>878.8</ele>
        <time>2026-05-12T07:26:32Z</time>
      </trkpt>
      <trkpt lat="46.00449" lon="5.60474">
        <ele>878.8</ele>
        <time>2026-05-12T07:26:33Z</time>
      </trkpt>
      <trkpt lat="46.00443" lon="5.60471">
        <ele>878.2</ele>
        <time>2026-05-12T07:26:34Z</time>
      </trkpt>
      <trkpt lat="46.00437" lon="5.6047">
        <ele>878.2</ele>
        <time>2026-05-12T07:26:35Z</time>
      </trkpt>
      <trkpt lat="46.00429" lon="5.60468">
        <ele>877.8</ele>
        <time>2026-05-12T07:26:36Z</time>
      </trkpt>
      <trkpt lat="46.00422" lon="5.60464">
        <ele>877.2</ele>
        <time>2026-05-12T07:26:37Z</time>
      </trkpt>
      <trkpt lat="46.00415" lon="5.60466">
        <ele>876.8</ele>
        <time>2026-05-12T07:26:38Z</time>
      </trkpt>
      <trkpt lat="46.00406" lon="5.60465">
        <ele>876.2</ele>
        <time>2026-05-12T07:26:39Z</time>
      </trkpt>
      <trkpt lat="46.00399" lon="5.60461">
        <ele>876</ele>
        <time>2026-05-12T07:26:40Z</time>
      </trkpt>
      <trkpt lat="46.00392" lon="5.60458">
        <ele>876</ele>
        <time>2026-05-12T07:26:41Z</time>
      </trkpt>
      <trkpt lat="46.00384" lon="5.60457">
        <ele>875.4</ele>
        <time>2026-05-12T07:26:42Z</time>
      </trkpt>
      <trkpt lat="46.00377" lon="5.60461">
        <ele>875.2</ele>
        <time>2026-05-12T07:26:43Z</time>
      </trkpt>
      <trkpt lat="46.0037" lon="5.60467">
        <ele>875.2</ele>
        <time>2026-05-12T07:26:44Z</time>
      </trkpt>
      <trkpt lat="46.00364" lon="5.60464">
        <ele>874.6</ele>
        <time>2026-05-12T07:26:45Z</time>
      </trkpt>
      <trkpt lat="46.00359" lon="5.60461">
        <ele>874.4</ele>
        <time>2026-05-12T07:26:46Z</time>
      </trkpt>
      <trkpt lat="46.00351" lon="5.60463">
        <ele>874.4</ele>
        <time>2026-05-12T07:26:47Z</time>
      </trkpt>
      <trkpt lat="46.00341" lon="5.60462">
        <ele>873.6</ele>
        <time>2026-05-12T07:26:48Z</time>
      </trkpt>
      <trkpt lat="46.00334" lon="5.60461">
        <ele>873.4</ele>
        <time>2026-05-12T07:26:49Z</time>
      </trkpt>
      <trkpt lat="46.00327" lon="5.60457">
        <ele>873</ele>
        <time>2026-05-12T07:26:50Z</time>
      </trkpt>
      <trkpt lat="46.00321" lon="5.60458">
        <ele>873</ele>
        <time>2026-05-12T07:26:51Z</time>
      </trkpt>
      <trkpt lat="46.00318" lon="5.60455">
        <ele>873</ele>
        <time>2026-05-12T07:26:52Z</time>
      </trkpt>
      <trkpt lat="46.00311" lon="5.6045">
        <ele>872.8</ele>
        <time>2026-05-12T07:26:53Z</time>
      </trkpt>
      <trkpt lat="46.00305" lon="5.60444">
        <ele>872.4</ele>
        <time>2026-05-12T07:26:54Z</time>
      </trkpt>
      <trkpt lat="46.003" lon="5.60435">
        <ele>872.4</ele>
        <time>2026-05-12T07:26:55Z</time>
      </trkpt>
      <trkpt lat="46.00297" lon="5.60425">
        <ele>872.2</ele>
        <time>2026-05-12T07:26:56Z</time>
      </trkpt>
      <trkpt lat="46.00292" lon="5.60411">
        <ele>871.8</ele>
        <time>2026-05-12T07:26:57Z</time>
      </trkpt>
      <trkpt lat="46.00289" lon="5.60397">
        <ele>871.4</ele>
        <time>2026-05-12T07:26:58Z</time>
      </trkpt>
      <trkpt lat="46.00295" lon="5.60385">
        <ele>871</ele>
        <time>2026-05-12T07:26:59Z</time>
      </trkpt>
      <trkpt lat="46.00298" lon="5.60373">
        <ele>870.6</ele>
        <time>2026-05-12T07:27:00Z</time>
      </trkpt>
      <trkpt lat="46.00298" lon="5.60361">
        <ele>870.2</ele>
        <time>2026-05-12T07:27:01Z</time>
      </trkpt>
      <trkpt lat="46.00298" lon="5.60349">
        <ele>869.8</ele>
        <time>2026-05-12T07:27:02Z</time>
      </trkpt>
      <trkpt lat="46.00302" lon="5.60338">
        <ele>869.2</ele>
        <time>2026-05-12T07:27:03Z</time>
      </trkpt>
      <trkpt lat="46.00296" lon="5.60323">
        <ele>868.8</ele>
        <time>2026-05-12T07:27:04Z</time>
      </trkpt>
      <trkpt lat="46.00289" lon="5.60307">
        <ele>868.4</ele>
        <time>2026-05-12T07:27:05Z</time>
      </trkpt>
      <trkpt lat="46.00285" lon="5.60295">
        <ele>867.8</ele>
        <time>2026-05-12T07:27:06Z</time>
      </trkpt>
      <trkpt lat="46.00281" lon="5.60287">
        <ele>867.4</ele>
        <time>2026-05-12T07:27:07Z</time>
      </trkpt>
      <trkpt lat="46.00275" lon="5.60279">
        <ele>866.8</ele>
        <time>2026-05-12T07:27:08Z</time>
      </trkpt>
      <trkpt lat="46.00266" lon="5.60274">
        <ele>866.2</ele>
        <time>2026-05-12T07:27:09Z</time>
      </trkpt>
      <trkpt lat="46.00262" lon="5.60269">
        <ele>865.8</ele>
        <time>2026-05-12T07:27:10Z</time>
      </trkpt>
      <trkpt lat="46.0025" lon="5.60266">
        <ele>865.2</ele>
        <time>2026-05-12T07:27:11Z</time>
      </trkpt>
      <trkpt lat="46.00242" lon="5.60264">
        <ele>864.6</ele>
        <time>2026-05-12T07:27:12Z</time>
      </trkpt>
      <trkpt lat="46.00233" lon="5.60267">
        <ele>864</ele>
        <time>2026-05-12T07:27:13Z</time>
      </trkpt>
      <trkpt lat="46.00222" lon="5.6027">
        <ele>863.8</ele>
        <time>2026-05-12T07:27:14Z</time>
      </trkpt>
      <trkpt lat="46.00211" lon="5.60276">
        <ele>863.4</ele>
        <time>2026-05-12T07:27:15Z</time>
      </trkpt>
      <trkpt lat="46.00203" lon="5.60279">
        <ele>862.8</ele>
        <time>2026-05-12T07:27:16Z</time>
      </trkpt>
      <trkpt lat="46.00192" lon="5.60281">
        <ele>861.6</ele>
        <time>2026-05-12T07:27:17Z</time>
      </trkpt>
      <trkpt lat="46.00183" lon="5.60283">
        <ele>860.6</ele>
        <time>2026-05-12T07:27:18Z</time>
      </trkpt>
      <trkpt lat="46.00174" lon="5.60284">
        <ele>860.2</ele>
        <time>2026-05-12T07:27:19Z</time>
      </trkpt>
      <trkpt lat="46.00164" lon="5.60287">
        <ele>859.4</ele>
        <time>2026-05-12T07:27:20Z</time>
      </trkpt>
      <trkpt lat="46.00155" lon="5.60286">
        <ele>858.8</ele>
        <time>2026-05-12T07:27:21Z</time>
      </trkpt>
      <trkpt lat="46.00144" lon="5.60286">
        <ele>858.4</ele>
        <time>2026-05-12T07:27:22Z</time>
      </trkpt>
      <trkpt lat="46.00133" lon="5.60282">
        <ele>857.6</ele>
        <time>2026-05-12T07:27:23Z</time>
      </trkpt>
      <trkpt lat="46.00124" lon="5.60282">
        <ele>857.2</ele>
        <time>2026-05-12T07:27:24Z</time>
      </trkpt>
      <trkpt lat="46.00111" lon="5.60279">
        <ele>856.4</ele>
        <time>2026-05-12T07:27:25Z</time>
      </trkpt>
      <trkpt lat="46.00101" lon="5.60275">
        <ele>856.6</ele>
        <time>2026-05-12T07:27:26Z</time>
      </trkpt>
      <trkpt lat="46.00089" lon="5.60273">
        <ele>855.2</ele>
        <time>2026-05-12T07:27:27Z</time>
      </trkpt>
      <trkpt lat="46.00079" lon="5.60266">
        <ele>854</ele>
        <time>2026-05-12T07:27:28Z</time>
      </trkpt>
      <trkpt lat="46.00068" lon="5.60261">
        <ele>852.8</ele>
        <time>2026-05-12T07:27:29Z</time>
      </trkpt>
      <trkpt lat="46.00059" lon="5.60254">
        <ele>852</ele>
        <time>2026-05-12T07:27:30Z</time>
      </trkpt>
      <trkpt lat="46.00051" lon="5.60248">
        <ele>851</ele>
        <time>2026-05-12T07:27:31Z</time>
      </trkpt>
      <trkpt lat="46.0004" lon="5.60241">
        <ele>851</ele>
        <time>2026-05-12T07:27:32Z</time>
      </trkpt>
      <trkpt lat="46.00031" lon="5.60234">
        <ele>850.4</ele>
        <time>2026-05-12T07:27:33Z</time>
      </trkpt>
      <trkpt lat="46.00023" lon="5.60227">
        <ele>850.6</ele>
        <time>2026-05-12T07:27:34Z</time>
      </trkpt>
      <trkpt lat="46.00014" lon="5.60221">
        <ele>849.8</ele>
        <time>2026-05-12T07:27:35Z</time>
      </trkpt>
      <trkpt lat="46.00009" lon="5.60213">
        <ele>848.6</ele>
        <time>2026-05-12T07:27:36Z</time>
      </trkpt>
      <trkpt lat="45.99999" lon="5.60205">
        <ele>847.8</ele>
        <time>2026-05-12T07:27:37Z</time>
      </trkpt>
      <trkpt lat="45.9999" lon="5.60198">
        <ele>847</ele>
        <time>2026-05-12T07:27:38Z</time>
      </trkpt>
      <trkpt lat="45.99981" lon="5.60188">
        <ele>846.2</ele>
        <time>2026-05-12T07:27:39Z</time>
      </trkpt>
      <trkpt lat="45.99973" lon="5.60179">
        <ele>844.4</ele>
        <time>2026-05-12T07:27:40Z</time>
      </trkpt>
      <trkpt lat="45.99965" lon="5.60168">
        <ele>843.8</ele>
        <time>2026-05-12T07:27:41Z</time>
      </trkpt>
      <trkpt lat="45.99957" lon="5.60157">
        <ele>843.2</ele>
        <time>2026-05-12T07:27:42Z</time>
      </trkpt>
      <trkpt lat="45.99946" lon="5.6013">
        <ele>843.2</ele>
        <time>2026-05-12T07:27:43Z</time>
      </trkpt>
      <trkpt lat="45.9994" lon="5.60117">
        <ele>842.4</ele>
        <time>2026-05-12T07:27:44Z</time>
      </trkpt>
      <trkpt lat="45.99932" lon="5.60107">
        <ele>842.4</ele>
        <time>2026-05-12T07:27:45Z</time>
      </trkpt>
      <trkpt lat="45.99925" lon="5.60097">
        <ele>842.4</ele>
        <time>2026-05-12T07:27:46Z</time>
      </trkpt>
      <trkpt lat="45.99917" lon="5.60088">
        <ele>841.6</ele>
        <time>2026-05-12T07:27:47Z</time>
      </trkpt>
      <trkpt lat="45.99911" lon="5.6008">
        <ele>840.6</ele>
        <time>2026-05-12T07:27:48Z</time>
      </trkpt>
      <trkpt lat="45.99906" lon="5.6007">
        <ele>840.6</ele>
        <time>2026-05-12T07:27:49Z</time>
      </trkpt>
      <trkpt lat="45.99898" lon="5.60061">
        <ele>840.6</ele>
        <time>2026-05-12T07:27:50Z</time>
      </trkpt>
      <trkpt lat="45.99892" lon="5.60053">
        <ele>839.8</ele>
        <time>2026-05-12T07:27:51Z</time>
      </trkpt>
      <trkpt lat="45.99885" lon="5.60048">
        <ele>839.8</ele>
        <time>2026-05-12T07:27:52Z</time>
      </trkpt>
      <trkpt lat="45.99878" lon="5.60042">
        <ele>839.4</ele>
        <time>2026-05-12T07:27:53Z</time>
      </trkpt>
      <trkpt lat="45.9987" lon="5.60038">
        <ele>838.8</ele>
        <time>2026-05-12T07:27:54Z</time>
      </trkpt>
      <trkpt lat="45.99864" lon="5.60032">
        <ele>839.2</ele>
        <time>2026-05-12T07:27:55Z</time>
      </trkpt>
      <trkpt lat="45.9986" lon="5.60028">
        <ele>838.8</ele>
        <time>2026-05-12T07:27:56Z</time>
      </trkpt>
      <trkpt lat="45.9985" lon="5.60023">
        <ele>838.4</ele>
        <time>2026-05-12T07:27:57Z</time>
      </trkpt>
      <trkpt lat="45.99842" lon="5.60023">
        <ele>838.8</ele>
        <time>2026-05-12T07:27:58Z</time>
      </trkpt>
      <trkpt lat="45.99833" lon="5.60021">
        <ele>838.8</ele>
        <time>2026-05-12T07:27:59Z</time>
      </trkpt>
      <trkpt lat="45.99826" lon="5.60018">
        <ele>838.4</ele>
        <time>2026-05-12T07:28:00Z</time>
      </trkpt>
      <trkpt lat="45.99818" lon="5.60014">
        <ele>839</ele>
        <time>2026-05-12T07:28:01Z</time>
      </trkpt>
      <trkpt lat="45.9981" lon="5.60009">
        <ele>839</ele>
        <time>2026-05-12T07:28:02Z</time>
      </trkpt>
      <trkpt lat="45.99802" lon="5.60006">
        <ele>839.2</ele>
        <time>2026-05-12T07:28:03Z</time>
      </trkpt>
      <trkpt lat="45.99797" lon="5.60001">
        <ele>839</ele>
        <time>2026-05-12T07:28:04Z</time>
      </trkpt>
      <trkpt lat="45.9979" lon="5.59997">
        <ele>839.2</ele>
        <time>2026-05-12T07:28:05Z</time>
      </trkpt>
      <trkpt lat="45.99785" lon="5.59992">
        <ele>839.2</ele>
        <time>2026-05-12T07:28:06Z</time>
      </trkpt>
      <trkpt lat="45.99779" lon="5.59988">
        <ele>839.2</ele>
        <time>2026-05-12T07:28:07Z</time>
      </trkpt>
      <trkpt lat="45.99774" lon="5.59982">
        <ele>839.2</ele>
        <time>2026-05-12T07:28:08Z</time>
      </trkpt>
      <trkpt lat="45.9977" lon="5.59977">
        <ele>839.2</ele>
        <time>2026-05-12T07:28:09Z</time>
      </trkpt>
      <trkpt lat="45.99765" lon="5.59973">
        <ele>839.4</ele>
        <time>2026-05-12T07:28:10Z</time>
      </trkpt>
      <trkpt lat="45.9976" lon="5.59967">
        <ele>839.4</ele>
        <time>2026-05-12T07:28:11Z</time>
      </trkpt>
      <trkpt lat="45.99756" lon="5.59961">
        <ele>839.4</ele>
        <time>2026-05-12T07:28:12Z</time>
      </trkpt>
      <trkpt lat="45.99751" lon="5.59956">
        <ele>839.2</ele>
        <time>2026-05-12T07:28:13Z</time>
      </trkpt>
      <trkpt lat="45.99751" lon="5.59956">
        <ele>839.2</ele>
        <time>2026-05-12T07:28:14Z</time>
      </trkpt>
      <trkpt lat="45.99747" lon="5.5995">
        <ele>838.8</ele>
        <time>2026-05-12T07:28:15Z</time>
      </trkpt>
      <trkpt lat="45.99743" lon="5.59945">
        <ele>838.2</ele>
        <time>2026-05-12T07:28:16Z</time>
      </trkpt>
      <trkpt lat="45.99737" lon="5.5994">
        <ele>838.2</ele>
        <time>2026-05-12T07:28:17Z</time>
      </trkpt>
      <trkpt lat="45.99732" lon="5.59935">
        <ele>837.2</ele>
        <time>2026-05-12T07:28:18Z</time>
      </trkpt>
      <trkpt lat="45.99727" lon="5.5993">
        <ele>837.2</ele>
        <time>2026-05-12T07:28:19Z</time>
      </trkpt>
      <trkpt lat="45.99721" lon="5.59925">
        <ele>837.2</ele>
        <time>2026-05-12T07:28:20Z</time>
      </trkpt>
      <trkpt lat="45.99716" lon="5.59918">
        <ele>837.2</ele>
        <time>2026-05-12T07:28:21Z</time>
      </trkpt>
      <trkpt lat="45.99711" lon="5.59913">
        <ele>837.2</ele>
        <time>2026-05-12T07:28:22Z</time>
      </trkpt>
      <trkpt lat="45.99706" lon="5.59907">
        <ele>837.2</ele>
        <time>2026-05-12T07:28:23Z</time>
      </trkpt>
      <trkpt lat="45.997" lon="5.59901">
        <ele>836.4</ele>
        <time>2026-05-12T07:28:24Z</time>
      </trkpt>
      <trkpt lat="45.99695" lon="5.59895">
        <ele>836</ele>
        <time>2026-05-12T07:28:25Z</time>
      </trkpt>
      <trkpt lat="45.9969" lon="5.5989">
        <ele>835.4</ele>
        <time>2026-05-12T07:28:26Z</time>
      </trkpt>
      <trkpt lat="45.99684" lon="5.59886">
        <ele>834.6</ele>
        <time>2026-05-12T07:28:27Z</time>
      </trkpt>
      <trkpt lat="45.99678" lon="5.59881">
        <ele>834</ele>
        <time>2026-05-12T07:28:28Z</time>
      </trkpt>
      <trkpt lat="45.99672" lon="5.5988">
        <ele>833.4</ele>
        <time>2026-05-12T07:28:29Z</time>
      </trkpt>
      <trkpt lat="45.9966" lon="5.59884">
        <ele>832.6</ele>
        <time>2026-05-12T07:28:30Z</time>
      </trkpt>
      <trkpt lat="45.99651" lon="5.59885">
        <ele>831.8</ele>
        <time>2026-05-12T07:28:31Z</time>
      </trkpt>
      <trkpt lat="45.99643" lon="5.59887">
        <ele>831.6</ele>
        <time>2026-05-12T07:28:32Z</time>
      </trkpt>
      <trkpt lat="45.99635" lon="5.5989">
        <ele>831</ele>
        <time>2026-05-12T07:28:33Z</time>
      </trkpt>
      <trkpt lat="45.99625" lon="5.59891">
        <ele>830.4</ele>
        <time>2026-05-12T07:28:34Z</time>
      </trkpt>
      <trkpt lat="45.99617" lon="5.5989">
        <ele>829.8</ele>
        <time>2026-05-12T07:28:35Z</time>
      </trkpt>
      <trkpt lat="45.99609" lon="5.59889">
        <ele>829.4</ele>
        <time>2026-05-12T07:28:36Z</time>
      </trkpt>
      <trkpt lat="45.99601" lon="5.59885">
        <ele>828.8</ele>
        <time>2026-05-12T07:28:37Z</time>
      </trkpt>
      <trkpt lat="45.99592" lon="5.59882">
        <ele>828.6</ele>
        <time>2026-05-12T07:28:38Z</time>
      </trkpt>
      <trkpt lat="45.99582" lon="5.59882">
        <ele>828.2</ele>
        <time>2026-05-12T07:28:39Z</time>
      </trkpt>
      <trkpt lat="45.99575" lon="5.59879">
        <ele>827.8</ele>
        <time>2026-05-12T07:28:40Z</time>
      </trkpt>
      <trkpt lat="45.99565" lon="5.59877">
        <ele>827.8</ele>
        <time>2026-05-12T07:28:41Z</time>
      </trkpt>
      <trkpt lat="45.99557" lon="5.59872">
        <ele>827.8</ele>
        <time>2026-05-12T07:28:42Z</time>
      </trkpt>
      <trkpt lat="45.99549" lon="5.59869">
        <ele>827.2</ele>
        <time>2026-05-12T07:28:43Z</time>
      </trkpt>
      <trkpt lat="45.99542" lon="5.59865">
        <ele>827.2</ele>
        <time>2026-05-12T07:28:44Z</time>
      </trkpt>
      <trkpt lat="45.99534" lon="5.59862">
        <ele>827</ele>
        <time>2026-05-12T07:28:45Z</time>
      </trkpt>
      <trkpt lat="45.99527" lon="5.59856">
        <ele>826.6</ele>
        <time>2026-05-12T07:28:46Z</time>
      </trkpt>
      <trkpt lat="45.99522" lon="5.59852">
        <ele>826.6</ele>
        <time>2026-05-12T07:28:47Z</time>
      </trkpt>
      <trkpt lat="45.99516" lon="5.59848">
        <ele>826.6</ele>
        <time>2026-05-12T07:28:48Z</time>
      </trkpt>
      <trkpt lat="45.99509" lon="5.59846">
        <ele>826.4</ele>
        <time>2026-05-12T07:28:49Z</time>
      </trkpt>
      <trkpt lat="45.99503" lon="5.59844">
        <ele>826.4</ele>
        <time>2026-05-12T07:28:50Z</time>
      </trkpt>
      <trkpt lat="45.99496" lon="5.59843">
        <ele>826.4</ele>
        <time>2026-05-12T07:28:51Z</time>
      </trkpt>
      <trkpt lat="45.99491" lon="5.59841">
        <ele>826.4</ele>
        <time>2026-05-12T07:28:52Z</time>
      </trkpt>
      <trkpt lat="45.99484" lon="5.59836">
        <ele>826.4</ele>
        <time>2026-05-12T07:28:53Z</time>
      </trkpt>
      <trkpt lat="45.9948" lon="5.59831">
        <ele>826.4</ele>
        <time>2026-05-12T07:28:54Z</time>
      </trkpt>
      <trkpt lat="45.99473" lon="5.59828">
        <ele>826.4</ele>
        <time>2026-05-12T07:28:55Z</time>
      </trkpt>
      <trkpt lat="45.99465" lon="5.59824">
        <ele>825.8</ele>
        <time>2026-05-12T07:28:56Z</time>
      </trkpt>
      <trkpt lat="45.99458" lon="5.59821">
        <ele>825.4</ele>
        <time>2026-05-12T07:28:57Z</time>
      </trkpt>
      <trkpt lat="45.9945" lon="5.59819">
        <ele>824.8</ele>
        <time>2026-05-12T07:28:58Z</time>
      </trkpt>
      <trkpt lat="45.99442" lon="5.5982">
        <ele>824.2</ele>
        <time>2026-05-12T07:28:59Z</time>
      </trkpt>
      <trkpt lat="45.99433" lon="5.5982">
        <ele>823.8</ele>
        <time>2026-05-12T07:29:00Z</time>
      </trkpt>
      <trkpt lat="45.99426" lon="5.59821">
        <ele>823.4</ele>
        <time>2026-05-12T07:29:01Z</time>
      </trkpt>
      <trkpt lat="45.99417" lon="5.59822">
        <ele>822.6</ele>
        <time>2026-05-12T07:29:02Z</time>
      </trkpt>
      <trkpt lat="45.99409" lon="5.59823">
        <ele>821.8</ele>
        <time>2026-05-12T07:29:03Z</time>
      </trkpt>
      <trkpt lat="45.99401" lon="5.59822">
        <ele>821.2</ele>
        <time>2026-05-12T07:29:04Z</time>
      </trkpt>
      <trkpt lat="45.99393" lon="5.59822">
        <ele>820.8</ele>
        <time>2026-05-12T07:29:05Z</time>
      </trkpt>
      <trkpt lat="45.99384" lon="5.5982">
        <ele>820.2</ele>
        <time>2026-05-12T07:29:06Z</time>
      </trkpt>
      <trkpt lat="45.99374" lon="5.5982">
        <ele>819.8</ele>
        <time>2026-05-12T07:29:07Z</time>
      </trkpt>
      <trkpt lat="45.99365" lon="5.5982">
        <ele>819.4</ele>
        <time>2026-05-12T07:29:08Z</time>
      </trkpt>
      <trkpt lat="45.99356" lon="5.5982">
        <ele>819</ele>
        <time>2026-05-12T07:29:09Z</time>
      </trkpt>
      <trkpt lat="45.99348" lon="5.59821">
        <ele>818.4</ele>
        <time>2026-05-12T07:29:10Z</time>
      </trkpt>
      <trkpt lat="45.99339" lon="5.59821">
        <ele>818.2</ele>
        <time>2026-05-12T07:29:11Z</time>
      </trkpt>
      <trkpt lat="45.99331" lon="5.59823">
        <ele>817.6</ele>
        <time>2026-05-12T07:29:12Z</time>
      </trkpt>
      <trkpt lat="45.99323" lon="5.59824">
        <ele>817.6</ele>
        <time>2026-05-12T07:29:13Z</time>
      </trkpt>
      <trkpt lat="45.99315" lon="5.59825">
        <ele>817.2</ele>
        <time>2026-05-12T07:29:14Z</time>
      </trkpt>
      <trkpt lat="45.99307" lon="5.59826">
        <ele>816.8</ele>
        <time>2026-05-12T07:29:15Z</time>
      </trkpt>
      <trkpt lat="45.99299" lon="5.59829">
        <ele>816.8</ele>
        <time>2026-05-12T07:29:16Z</time>
      </trkpt>
      <trkpt lat="45.99292" lon="5.5983">
        <ele>816.6</ele>
        <time>2026-05-12T07:29:17Z</time>
      </trkpt>
      <trkpt lat="45.99284" lon="5.59833">
        <ele>816.2</ele>
        <time>2026-05-12T07:29:18Z</time>
      </trkpt>
      <trkpt lat="45.99277" lon="5.59833">
        <ele>816</ele>
        <time>2026-05-12T07:29:19Z</time>
      </trkpt>
      <trkpt lat="45.99268" lon="5.59836">
        <ele>815.6</ele>
        <time>2026-05-12T07:29:20Z</time>
      </trkpt>
      <trkpt lat="45.9926" lon="5.59839">
        <ele>815.2</ele>
        <time>2026-05-12T07:29:21Z</time>
      </trkpt>
      <trkpt lat="45.99253" lon="5.59841">
        <ele>815</ele>
        <time>2026-05-12T07:29:22Z</time>
      </trkpt>
      <trkpt lat="45.99245" lon="5.59843">
        <ele>814.6</ele>
        <time>2026-05-12T07:29:23Z</time>
      </trkpt>
      <trkpt lat="45.99235" lon="5.59846">
        <ele>814.6</ele>
        <time>2026-05-12T07:29:24Z</time>
      </trkpt>
      <trkpt lat="45.99228" lon="5.59848">
        <ele>814.2</ele>
        <time>2026-05-12T07:29:25Z</time>
      </trkpt>
      <trkpt lat="45.9922" lon="5.59851">
        <ele>813.8</ele>
        <time>2026-05-12T07:29:26Z</time>
      </trkpt>
      <trkpt lat="45.99212" lon="5.59852">
        <ele>812.8</ele>
        <time>2026-05-12T07:29:27Z</time>
      </trkpt>
      <trkpt lat="45.99203" lon="5.59853">
        <ele>812.4</ele>
        <time>2026-05-12T07:29:28Z</time>
      </trkpt>
      <trkpt lat="45.99194" lon="5.59854">
        <ele>811.8</ele>
        <time>2026-05-12T07:29:29Z</time>
      </trkpt>
      <trkpt lat="45.99186" lon="5.59854">
        <ele>811.8</ele>
        <time>2026-05-12T07:29:30Z</time>
      </trkpt>
      <trkpt lat="45.99178" lon="5.59854">
        <ele>811.4</ele>
        <time>2026-05-12T07:29:31Z</time>
      </trkpt>
      <trkpt lat="45.9917" lon="5.59854">
        <ele>811</ele>
        <time>2026-05-12T07:29:32Z</time>
      </trkpt>
      <trkpt lat="45.99163" lon="5.59854">
        <ele>811</ele>
        <time>2026-05-12T07:29:33Z</time>
      </trkpt>
      <trkpt lat="45.99156" lon="5.59855">
        <ele>810.4</ele>
        <time>2026-05-12T07:29:34Z</time>
      </trkpt>
      <trkpt lat="45.9915" lon="5.59855">
        <ele>810</ele>
        <time>2026-05-12T07:29:35Z</time>
      </trkpt>
      <trkpt lat="45.99144" lon="5.59856">
        <ele>809.8</ele>
        <time>2026-05-12T07:29:36Z</time>
      </trkpt>
      <trkpt lat="45.99139" lon="5.59857">
        <ele>809.4</ele>
        <time>2026-05-12T07:29:37Z</time>
      </trkpt>
      <trkpt lat="45.99134" lon="5.59857">
        <ele>809.2</ele>
        <time>2026-05-12T07:29:38Z</time>
      </trkpt>
      <trkpt lat="45.9913" lon="5.59857">
        <ele>808.8</ele>
        <time>2026-05-12T07:29:39Z</time>
      </trkpt>
      <trkpt lat="45.99126" lon="5.59856">
        <ele>808.6</ele>
        <time>2026-05-12T07:29:40Z</time>
      </trkpt>
      <trkpt lat="45.99123" lon="5.59854">
        <ele>808.6</ele>
        <time>2026-05-12T07:29:41Z</time>
      </trkpt>
      <trkpt lat="45.9912" lon="5.59853">
        <ele>808.4</ele>
        <time>2026-05-12T07:29:42Z</time>
      </trkpt>
      <trkpt lat="45.99117" lon="5.59853">
        <ele>808.2</ele>
        <time>2026-05-12T07:29:43Z</time>
      </trkpt>
      <trkpt lat="45.99113" lon="5.59851">
        <ele>808.2</ele>
        <time>2026-05-12T07:29:44Z</time>
      </trkpt>
      <trkpt lat="45.9911" lon="5.59851">
        <ele>808.2</ele>
        <time>2026-05-12T07:29:45Z</time>
      </trkpt>
      <trkpt lat="45.99107" lon="5.59851">
        <ele>808.2</ele>
        <time>2026-05-12T07:29:46Z</time>
      </trkpt>
      <trkpt lat="45.99105" lon="5.59853">
        <ele>807.8</ele>
        <time>2026-05-12T07:29:47Z</time>
      </trkpt>
      <trkpt lat="45.991" lon="5.59855">
        <ele>807.8</ele>
        <time>2026-05-12T07:29:48Z</time>
      </trkpt>
      <trkpt lat="45.99095" lon="5.59855">
        <ele>807.4</ele>
        <time>2026-05-12T07:29:49Z</time>
      </trkpt>
      <trkpt lat="45.9909" lon="5.59857">
        <ele>807.2</ele>
        <time>2026-05-12T07:29:50Z</time>
      </trkpt>
      <trkpt lat="45.99085" lon="5.59859">
        <ele>806.8</ele>
        <time>2026-05-12T07:29:51Z</time>
      </trkpt>
      <trkpt lat="45.99079" lon="5.59861">
        <ele>806.8</ele>
        <time>2026-05-12T07:29:52Z</time>
      </trkpt>
      <trkpt lat="45.99073" lon="5.59864">
        <ele>806.6</ele>
        <time>2026-05-12T07:29:53Z</time>
      </trkpt>
      <trkpt lat="45.99067" lon="5.59866">
        <ele>806</ele>
        <time>2026-05-12T07:29:54Z</time>
      </trkpt>
      <trkpt lat="45.99061" lon="5.59869">
        <ele>805.6</ele>
        <time>2026-05-12T07:29:55Z</time>
      </trkpt>
      <trkpt lat="45.99055" lon="5.5987">
        <ele>805</ele>
        <time>2026-05-12T07:29:56Z</time>
      </trkpt>
      <trkpt lat="45.9905" lon="5.59873">
        <ele>804.8</ele>
        <time>2026-05-12T07:29:57Z</time>
      </trkpt>
      <trkpt lat="45.99044" lon="5.59873">
        <ele>803.6</ele>
        <time>2026-05-12T07:29:58Z</time>
      </trkpt>
      <trkpt lat="45.99039" lon="5.59875">
        <ele>803.6</ele>
        <time>2026-05-12T07:29:59Z</time>
      </trkpt>
      <trkpt lat="45.99034" lon="5.59879">
        <ele>803.6</ele>
        <time>2026-05-12T07:30:00Z</time>
      </trkpt>
      <trkpt lat="45.99029" lon="5.59881">
        <ele>803.6</ele>
        <time>2026-05-12T07:30:01Z</time>
      </trkpt>
      <trkpt lat="45.99024" lon="5.59884">
        <ele>803.6</ele>
        <time>2026-05-12T07:30:02Z</time>
      </trkpt>
      <trkpt lat="45.99018" lon="5.59887">
        <ele>803.6</ele>
        <time>2026-05-12T07:30:03Z</time>
      </trkpt>
      <trkpt lat="45.99013" lon="5.5989">
        <ele>804</ele>
        <time>2026-05-12T07:30:04Z</time>
      </trkpt>
      <trkpt lat="45.99008" lon="5.59894">
        <ele>804</ele>
        <time>2026-05-12T07:30:05Z</time>
      </trkpt>
      <trkpt lat="45.99003" lon="5.59897">
        <ele>804.2</ele>
        <time>2026-05-12T07:30:06Z</time>
      </trkpt>
      <trkpt lat="45.98996" lon="5.59901">
        <ele>804.4</ele>
        <time>2026-05-12T07:30:07Z</time>
      </trkpt>
      <trkpt lat="45.9899" lon="5.59905">
        <ele>804.4</ele>
        <time>2026-05-12T07:30:08Z</time>
      </trkpt>
      <trkpt lat="45.98985" lon="5.59911">
        <ele>804.4</ele>
        <time>2026-05-12T07:30:09Z</time>
      </trkpt>
      <trkpt lat="45.98981" lon="5.59916">
        <ele>804.4</ele>
        <time>2026-05-12T07:30:10Z</time>
      </trkpt>
      <trkpt lat="45.98976" lon="5.59921">
        <ele>804.8</ele>
        <time>2026-05-12T07:30:11Z</time>
      </trkpt>
      <trkpt lat="45.98972" lon="5.59928">
        <ele>804.4</ele>
        <time>2026-05-12T07:30:12Z</time>
      </trkpt>
      <trkpt lat="45.98969" lon="5.59932">
        <ele>804.8</ele>
        <time>2026-05-12T07:30:13Z</time>
      </trkpt>
      <trkpt lat="45.98966" lon="5.59937">
        <ele>805.2</ele>
        <time>2026-05-12T07:30:14Z</time>
      </trkpt>
      <trkpt lat="45.98964" lon="5.59941">
        <ele>805.2</ele>
        <time>2026-05-12T07:30:15Z</time>
      </trkpt>
      <trkpt lat="45.98961" lon="5.59945">
        <ele>805.4</ele>
        <time>2026-05-12T07:30:16Z</time>
      </trkpt>
      <trkpt lat="45.98959" lon="5.5995">
        <ele>805.8</ele>
        <time>2026-05-12T07:30:17Z</time>
      </trkpt>
      <trkpt lat="45.98957" lon="5.59954">
        <ele>806.2</ele>
        <time>2026-05-12T07:30:18Z</time>
      </trkpt>
      <trkpt lat="45.98954" lon="5.59957">
        <ele>806.4</ele>
        <time>2026-05-12T07:30:19Z</time>
      </trkpt>
      <trkpt lat="45.98952" lon="5.59961">
        <ele>806.4</ele>
        <time>2026-05-12T07:30:20Z</time>
      </trkpt>
      <trkpt lat="45.98949" lon="5.59966">
        <ele>806.6</ele>
        <time>2026-05-12T07:30:21Z</time>
      </trkpt>
      <trkpt lat="45.98947" lon="5.59968">
        <ele>806.6</ele>
        <time>2026-05-12T07:30:22Z</time>
      </trkpt>
      <trkpt lat="45.98945" lon="5.59972">
        <ele>806.6</ele>
        <time>2026-05-12T07:30:23Z</time>
      </trkpt>
      <trkpt lat="45.98943" lon="5.59975">
        <ele>807</ele>
        <time>2026-05-12T07:30:24Z</time>
      </trkpt>
      <trkpt lat="45.98941" lon="5.59978">
        <ele>807</ele>
        <time>2026-05-12T07:30:25Z</time>
      </trkpt>
      <trkpt lat="45.98938" lon="5.59982">
        <ele>807.6</ele>
        <time>2026-05-12T07:30:26Z</time>
      </trkpt>
      <trkpt lat="45.98936" lon="5.59986">
        <ele>807.6</ele>
        <time>2026-05-12T07:30:27Z</time>
      </trkpt>
      <trkpt lat="45.98934" lon="5.59989">
        <ele>807.8</ele>
        <time>2026-05-12T07:30:28Z</time>
      </trkpt>
      <trkpt lat="45.98931" lon="5.59992">
        <ele>807.8</ele>
        <time>2026-05-12T07:30:29Z</time>
      </trkpt>
      <trkpt lat="45.98929" lon="5.59995">
        <ele>808.2</ele>
        <time>2026-05-12T07:30:30Z</time>
      </trkpt>
      <trkpt lat="45.98926" lon="5.59998">
        <ele>808.2</ele>
        <time>2026-05-12T07:30:31Z</time>
      </trkpt>
      <trkpt lat="45.98923" lon="5.60001">
        <ele>808.4</ele>
        <time>2026-05-12T07:30:32Z</time>
      </trkpt>
      <trkpt lat="45.98921" lon="5.60004">
        <ele>808.8</ele>
        <time>2026-05-12T07:30:33Z</time>
      </trkpt>
      <trkpt lat="45.98918" lon="5.60007">
        <ele>808.8</ele>
        <time>2026-05-12T07:30:34Z</time>
      </trkpt>
      <trkpt lat="45.98913" lon="5.60013">
        <ele>809.2</ele>
        <time>2026-05-12T07:30:35Z</time>
      </trkpt>
      <trkpt lat="45.98911" lon="5.60016">
        <ele>809.2</ele>
        <time>2026-05-12T07:30:36Z</time>
      </trkpt>
      <trkpt lat="45.98908" lon="5.60019">
        <ele>809.6</ele>
        <time>2026-05-12T07:30:37Z</time>
      </trkpt>
      <trkpt lat="45.98906" lon="5.60022">
        <ele>809.6</ele>
        <time>2026-05-12T07:30:38Z</time>
      </trkpt>
      <trkpt lat="45.98904" lon="5.60025">
        <ele>809.8</ele>
        <time>2026-05-12T07:30:39Z</time>
      </trkpt>
      <trkpt lat="45.98901" lon="5.60028">
        <ele>809.8</ele>
        <time>2026-05-12T07:30:40Z</time>
      </trkpt>
      <trkpt lat="45.98898" lon="5.60031">
        <ele>810.4</ele>
        <time>2026-05-12T07:30:41Z</time>
      </trkpt>
      <trkpt lat="45.98896" lon="5.60034">
        <ele>810.4</ele>
        <time>2026-05-12T07:30:42Z</time>
      </trkpt>
      <trkpt lat="45.98894" lon="5.60036">
        <ele>810.6</ele>
        <time>2026-05-12T07:30:43Z</time>
      </trkpt>
      <trkpt lat="45.98892" lon="5.60039">
        <ele>810.6</ele>
        <time>2026-05-12T07:30:44Z</time>
      </trkpt>
      <trkpt lat="45.9889" lon="5.60042">
        <ele>810.6</ele>
        <time>2026-05-12T07:30:45Z</time>
      </trkpt>
      <trkpt lat="45.98887" lon="5.60044">
        <ele>810.6</ele>
        <time>2026-05-12T07:30:46Z</time>
      </trkpt>
      <trkpt lat="45.98885" lon="5.60047">
        <ele>811</ele>
        <time>2026-05-12T07:30:47Z</time>
      </trkpt>
      <trkpt lat="45.98884" lon="5.6005">
        <ele>811</ele>
        <time>2026-05-12T07:30:48Z</time>
      </trkpt>
      <trkpt lat="45.98883" lon="5.60053">
        <ele>811.2</ele>
        <time>2026-05-12T07:30:49Z</time>
      </trkpt>
      <trkpt lat="45.98882" lon="5.60056">
        <ele>811.2</ele>
        <time>2026-05-12T07:30:50Z</time>
      </trkpt>
      <trkpt lat="45.98881" lon="5.60059">
        <ele>811.4</ele>
        <time>2026-05-12T07:30:51Z</time>
      </trkpt>
      <trkpt lat="45.9888" lon="5.60061">
        <ele>811.4</ele>
        <time>2026-05-12T07:30:52Z</time>
      </trkpt>
      <trkpt lat="45.98879" lon="5.60064">
        <ele>811.8</ele>
        <time>2026-05-12T07:30:53Z</time>
      </trkpt>
      <trkpt lat="45.98879" lon="5.60068">
        <ele>811.8</ele>
        <time>2026-05-12T07:30:54Z</time>
      </trkpt>
      <trkpt lat="45.98879" lon="5.60071">
        <ele>811.8</ele>
        <time>2026-05-12T07:30:55Z</time>
      </trkpt>
      <trkpt lat="45.98879" lon="5.60074">
        <ele>812</ele>
        <time>2026-05-12T07:30:56Z</time>
      </trkpt>
      <trkpt lat="45.98879" lon="5.60078">
        <ele>812</ele>
        <time>2026-05-12T07:30:57Z</time>
      </trkpt>
      <trkpt lat="45.98878" lon="5.60081">
        <ele>812</ele>
        <time>2026-05-12T07:30:58Z</time>
      </trkpt>
      <trkpt lat="45.98878" lon="5.60085">
        <ele>812.2</ele>
        <time>2026-05-12T07:30:59Z</time>
      </trkpt>
      <trkpt lat="45.98877" lon="5.60088">
        <ele>812.2</ele>
        <time>2026-05-12T07:31:00Z</time>
      </trkpt>
      <trkpt lat="45.98876" lon="5.60091">
        <ele>812.2</ele>
        <time>2026-05-12T07:31:01Z</time>
      </trkpt>
      <trkpt lat="45.98875" lon="5.60094">
        <ele>812.2</ele>
        <time>2026-05-12T07:31:02Z</time>
      </trkpt>
      <trkpt lat="45.98873" lon="5.60097">
        <ele>812.6</ele>
        <time>2026-05-12T07:31:03Z</time>
      </trkpt>
      <trkpt lat="45.9887" lon="5.60098">
        <ele>812.6</ele>
        <time>2026-05-12T07:31:04Z</time>
      </trkpt>
      <trkpt lat="45.98867" lon="5.60098">
        <ele>812.6</ele>
        <time>2026-05-12T07:31:05Z</time>
      </trkpt>
      <trkpt lat="45.98865" lon="5.60098">
        <ele>812.6</ele>
        <time>2026-05-12T07:31:06Z</time>
      </trkpt>
      <trkpt lat="45.98861" lon="5.60098">
        <ele>812.8</ele>
        <time>2026-05-12T07:31:07Z</time>
      </trkpt>
      <trkpt lat="45.98858" lon="5.60098">
        <ele>812.8</ele>
        <time>2026-05-12T07:31:08Z</time>
      </trkpt>
      <trkpt lat="45.98854" lon="5.60097">
        <ele>812.8</ele>
        <time>2026-05-12T07:31:09Z</time>
      </trkpt>
      <trkpt lat="45.98851" lon="5.60097">
        <ele>812.8</ele>
        <time>2026-05-12T07:31:10Z</time>
      </trkpt>
      <trkpt lat="45.98851" lon="5.60097">
        <ele>812.8</ele>
        <time>2026-05-12T07:31:11Z</time>
      </trkpt>
      <trkpt lat="45.98848" lon="5.60096">
        <ele>813.2</ele>
        <time>2026-05-12T07:31:12Z</time>
      </trkpt>
      <trkpt lat="45.98845" lon="5.60095">
        <ele>813.2</ele>
        <time>2026-05-12T07:31:13Z</time>
      </trkpt>
      <trkpt lat="45.98841" lon="5.60094">
        <ele>813.2</ele>
        <time>2026-05-12T07:31:14Z</time>
      </trkpt>
      <trkpt lat="45.98838" lon="5.60094">
        <ele>813.2</ele>
        <time>2026-05-12T07:31:15Z</time>
      </trkpt>
      <trkpt lat="45.98835" lon="5.60093">
        <ele>813.2</ele>
        <time>2026-05-12T07:31:16Z</time>
      </trkpt>
      <trkpt lat="45.98831" lon="5.60092">
        <ele>813.4</ele>
        <time>2026-05-12T07:31:17Z</time>
      </trkpt>
      <trkpt lat="45.98828" lon="5.60091">
        <ele>813.4</ele>
        <time>2026-05-12T07:31:18Z</time>
      </trkpt>
      <trkpt lat="45.98825" lon="5.6009">
        <ele>813.4</ele>
        <time>2026-05-12T07:31:19Z</time>
      </trkpt>
      <trkpt lat="45.98822" lon="5.60089">
        <ele>813.4</ele>
        <time>2026-05-12T07:31:20Z</time>
      </trkpt>
      <trkpt lat="45.98818" lon="5.60087">
        <ele>813.4</ele>
        <time>2026-05-12T07:31:21Z</time>
      </trkpt>
      <trkpt lat="45.98814" lon="5.60085">
        <ele>813.4</ele>
        <time>2026-05-12T07:31:22Z</time>
      </trkpt>
      <trkpt lat="45.9881" lon="5.60084">
        <ele>813</ele>
        <time>2026-05-12T07:31:23Z</time>
      </trkpt>
      <trkpt lat="45.9881" lon="5.60084">
        <ele>812.4</ele>
        <time>2026-05-12T07:31:24Z</time>
      </trkpt>
      <trkpt lat="45.9881" lon="5.60084">
        <ele>812</ele>
        <time>2026-05-12T07:31:25Z</time>
      </trkpt>
      <trkpt lat="45.98787" lon="5.60072">
        <ele>810.8</ele>
        <time>2026-05-12T07:31:27Z</time>
      </trkpt>
      <trkpt lat="45.98781" lon="5.60069">
        <ele>810.4</ele>
        <time>2026-05-12T07:31:28Z</time>
      </trkpt>
      <trkpt lat="45.98774" lon="5.60065">
        <ele>809.8</ele>
        <time>2026-05-12T07:31:29Z</time>
      </trkpt>
      <trkpt lat="45.98767" lon="5.60061">
        <ele>809.4</ele>
        <time>2026-05-12T07:31:30Z</time>
      </trkpt>
      <trkpt lat="45.9876" lon="5.60058">
        <ele>809</ele>
        <time>2026-05-12T07:31:31Z</time>
      </trkpt>
      <trkpt lat="45.98753" lon="5.60053">
        <ele>808.8</ele>
        <time>2026-05-12T07:31:32Z</time>
      </trkpt>
      <trkpt lat="45.98746" lon="5.60048">
        <ele>808.2</ele>
        <time>2026-05-12T07:31:33Z</time>
      </trkpt>
      <trkpt lat="45.98738" lon="5.60044">
        <ele>807.8</ele>
        <time>2026-05-12T07:31:34Z</time>
      </trkpt>
      <trkpt lat="45.98731" lon="5.60039">
        <ele>807.2</ele>
        <time>2026-05-12T07:31:35Z</time>
      </trkpt>
      <trkpt lat="45.98723" lon="5.60035">
        <ele>806.8</ele>
        <time>2026-05-12T07:31:36Z</time>
      </trkpt>
      <trkpt lat="45.98716" lon="5.60031">
        <ele>806.8</ele>
        <time>2026-05-12T07:31:37Z</time>
      </trkpt>
      <trkpt lat="45.98709" lon="5.60028">
        <ele>806.6</ele>
        <time>2026-05-12T07:31:38Z</time>
      </trkpt>
      <trkpt lat="45.98701" lon="5.60027">
        <ele>806.6</ele>
        <time>2026-05-12T07:31:39Z</time>
      </trkpt>
      <trkpt lat="45.98693" lon="5.60027">
        <ele>806.6</ele>
        <time>2026-05-12T07:31:40Z</time>
      </trkpt>
      <trkpt lat="45.98687" lon="5.60027">
        <ele>806.6</ele>
        <time>2026-05-12T07:31:41Z</time>
      </trkpt>
      <trkpt lat="45.9868" lon="5.60029">
        <ele>806.6</ele>
        <time>2026-05-12T07:31:42Z</time>
      </trkpt>
      <trkpt lat="45.98673" lon="5.60029">
        <ele>807.2</ele>
        <time>2026-05-12T07:31:43Z</time>
      </trkpt>
      <trkpt lat="45.98666" lon="5.60028">
        <ele>807.6</ele>
        <time>2026-05-12T07:31:44Z</time>
      </trkpt>
      <trkpt lat="45.9866" lon="5.60027">
        <ele>808</ele>
        <time>2026-05-12T07:31:45Z</time>
      </trkpt>
      <trkpt lat="45.98654" lon="5.60024">
        <ele>808.2</ele>
        <time>2026-05-12T07:31:46Z</time>
      </trkpt>
      <trkpt lat="45.98654" lon="5.60024">
        <ele>808.6</ele>
        <time>2026-05-12T07:31:47Z</time>
      </trkpt>
      <trkpt lat="45.98643" lon="5.60018">
        <ele>808.6</ele>
        <time>2026-05-12T07:31:48Z</time>
      </trkpt>
      <trkpt lat="45.98638" lon="5.60016">
        <ele>809</ele>
        <time>2026-05-12T07:31:49Z</time>
      </trkpt>
      <trkpt lat="45.98632" lon="5.60014">
        <ele>809</ele>
        <time>2026-05-12T07:31:50Z</time>
      </trkpt>
      <trkpt lat="45.98627" lon="5.60011">
        <ele>809.4</ele>
        <time>2026-05-12T07:31:51Z</time>
      </trkpt>
      <trkpt lat="45.98622" lon="5.60009">
        <ele>809.4</ele>
        <time>2026-05-12T07:31:52Z</time>
      </trkpt>
      <trkpt lat="45.98617" lon="5.60006">
        <ele>809.4</ele>
        <time>2026-05-12T07:31:53Z</time>
      </trkpt>
      <trkpt lat="45.98612" lon="5.60004">
        <ele>809.4</ele>
        <time>2026-05-12T07:31:54Z</time>
      </trkpt>
      <trkpt lat="45.98607" lon="5.60002">
        <ele>809.8</ele>
        <time>2026-05-12T07:31:55Z</time>
      </trkpt>
      <trkpt lat="45.98603" lon="5.59999">
        <ele>809.8</ele>
        <time>2026-05-12T07:31:56Z</time>
      </trkpt>
      <trkpt lat="45.98598" lon="5.59997">
        <ele>809.8</ele>
        <time>2026-05-12T07:31:57Z</time>
      </trkpt>
      <trkpt lat="45.98593" lon="5.59993">
        <ele>809.8</ele>
        <time>2026-05-12T07:31:58Z</time>
      </trkpt>
      <trkpt lat="45.98588" lon="5.59989">
        <ele>809.8</ele>
        <time>2026-05-12T07:31:59Z</time>
      </trkpt>
      <trkpt lat="45.98583" lon="5.59986">
        <ele>809.4</ele>
        <time>2026-05-12T07:32:00Z</time>
      </trkpt>
      <trkpt lat="45.98578" lon="5.59982">
        <ele>809.2</ele>
        <time>2026-05-12T07:32:01Z</time>
      </trkpt>
      <trkpt lat="45.98572" lon="5.59979">
        <ele>808.8</ele>
        <time>2026-05-12T07:32:02Z</time>
      </trkpt>
      <trkpt lat="45.98567" lon="5.59977">
        <ele>808.4</ele>
        <time>2026-05-12T07:32:03Z</time>
      </trkpt>
      <trkpt lat="45.98562" lon="5.59975">
        <ele>808.2</ele>
        <time>2026-05-12T07:32:04Z</time>
      </trkpt>
      <trkpt lat="45.98557" lon="5.59973">
        <ele>807.8</ele>
        <time>2026-05-12T07:32:05Z</time>
      </trkpt>
      <trkpt lat="45.98552" lon="5.59972">
        <ele>807.6</ele>
        <time>2026-05-12T07:32:06Z</time>
      </trkpt>
      <trkpt lat="45.98548" lon="5.59969">
        <ele>807.2</ele>
        <time>2026-05-12T07:32:07Z</time>
      </trkpt>
      <trkpt lat="45.98543" lon="5.59967">
        <ele>806.6</ele>
        <time>2026-05-12T07:32:08Z</time>
      </trkpt>
      <trkpt lat="45.98537" lon="5.59964">
        <ele>806.2</ele>
        <time>2026-05-12T07:32:09Z</time>
      </trkpt>
      <trkpt lat="45.98531" lon="5.59961">
        <ele>805.8</ele>
        <time>2026-05-12T07:32:10Z</time>
      </trkpt>
      <trkpt lat="45.98526" lon="5.5996">
        <ele>805.2</ele>
        <time>2026-05-12T07:32:11Z</time>
      </trkpt>
      <trkpt lat="45.98519" lon="5.5996">
        <ele>805</ele>
        <time>2026-05-12T07:32:12Z</time>
      </trkpt>
      <trkpt lat="45.98512" lon="5.5996">
        <ele>804.6</ele>
        <time>2026-05-12T07:32:13Z</time>
      </trkpt>
      <trkpt lat="45.98506" lon="5.59962">
        <ele>804.2</ele>
        <time>2026-05-12T07:32:14Z</time>
      </trkpt>
      <trkpt lat="45.98499" lon="5.59964">
        <ele>804</ele>
        <time>2026-05-12T07:32:15Z</time>
      </trkpt>
      <trkpt lat="45.98493" lon="5.59966">
        <ele>803.2</ele>
        <time>2026-05-12T07:32:16Z</time>
      </trkpt>
      <trkpt lat="45.98486" lon="5.59968">
        <ele>803</ele>
        <time>2026-05-12T07:32:17Z</time>
      </trkpt>
      <trkpt lat="45.98479" lon="5.5997">
        <ele>802.6</ele>
        <time>2026-05-12T07:32:18Z</time>
      </trkpt>
      <trkpt lat="45.98472" lon="5.59971">
        <ele>802.4</ele>
        <time>2026-05-12T07:32:19Z</time>
      </trkpt>
      <trkpt lat="45.98465" lon="5.59973">
        <ele>802.2</ele>
        <time>2026-05-12T07:32:20Z</time>
      </trkpt>
      <trkpt lat="45.9846" lon="5.59975">
        <ele>802.2</ele>
        <time>2026-05-12T07:32:21Z</time>
      </trkpt>
      <trkpt lat="45.98455" lon="5.59976">
        <ele>802.2</ele>
        <time>2026-05-12T07:32:22Z</time>
      </trkpt>
      <trkpt lat="45.98452" lon="5.59978">
        <ele>802.2</ele>
        <time>2026-05-12T07:32:23Z</time>
      </trkpt>
      <trkpt lat="45.98449" lon="5.59978">
        <ele>802.2</ele>
        <time>2026-05-12T07:32:24Z</time>
      </trkpt>
      <trkpt lat="45.98448" lon="5.59979">
        <ele>802.6</ele>
        <time>2026-05-12T07:32:25Z</time>
      </trkpt>
      <trkpt lat="45.98446" lon="5.59981">
        <ele>802.8</ele>
        <time>2026-05-12T07:32:26Z</time>
      </trkpt>
      <trkpt lat="45.98445" lon="5.59983">
        <ele>802.8</ele>
        <time>2026-05-12T07:32:27Z</time>
      </trkpt>
      <trkpt lat="45.98444" lon="5.59987">
        <ele>802.8</ele>
        <time>2026-05-12T07:32:28Z</time>
      </trkpt>
      <trkpt lat="45.98443" lon="5.59991">
        <ele>803</ele>
        <time>2026-05-12T07:32:29Z</time>
      </trkpt>
      <trkpt lat="45.98443" lon="5.59994">
        <ele>803</ele>
        <time>2026-05-12T07:32:30Z</time>
      </trkpt>
      <trkpt lat="45.98442" lon="5.59998">
        <ele>803.2</ele>
        <time>2026-05-12T07:32:31Z</time>
      </trkpt>
      <trkpt lat="45.98443" lon="5.60001">
        <ele>803.2</ele>
        <time>2026-05-12T07:32:32Z</time>
      </trkpt>
      <trkpt lat="45.98443" lon="5.60005">
        <ele>803.6</ele>
        <time>2026-05-12T07:32:33Z</time>
      </trkpt>
      <trkpt lat="45.98442" lon="5.60009">
        <ele>803.8</ele>
        <time>2026-05-12T07:32:34Z</time>
      </trkpt>
      <trkpt lat="45.98442" lon="5.60012">
        <ele>803.8</ele>
        <time>2026-05-12T07:32:35Z</time>
      </trkpt>
      <trkpt lat="45.98442" lon="5.60016">
        <ele>804.2</ele>
        <time>2026-05-12T07:32:36Z</time>
      </trkpt>
      <trkpt lat="45.98442" lon="5.6002">
        <ele>804.2</ele>
        <time>2026-05-12T07:32:37Z</time>
      </trkpt>
      <trkpt lat="45.98442" lon="5.60023">
        <ele>804.6</ele>
        <time>2026-05-12T07:32:38Z</time>
      </trkpt>
      <trkpt lat="45.98442" lon="5.60027">
        <ele>805</ele>
        <time>2026-05-12T07:32:39Z</time>
      </trkpt>
      <trkpt lat="45.98442" lon="5.6003">
        <ele>805</ele>
        <time>2026-05-12T07:32:40Z</time>
      </trkpt>
      <trkpt lat="45.98442" lon="5.60034">
        <ele>805.2</ele>
        <time>2026-05-12T07:32:41Z</time>
      </trkpt>
      <trkpt lat="45.98442" lon="5.60037">
        <ele>805.2</ele>
        <time>2026-05-12T07:32:42Z</time>
      </trkpt>
      <trkpt lat="45.98441" lon="5.60041">
        <ele>805.6</ele>
        <time>2026-05-12T07:32:43Z</time>
      </trkpt>
      <trkpt lat="45.98439" lon="5.60043">
        <ele>806</ele>
        <time>2026-05-12T07:32:44Z</time>
      </trkpt>
      <trkpt lat="45.98437" lon="5.60044">
        <ele>806</ele>
        <time>2026-05-12T07:32:45Z</time>
      </trkpt>
      <trkpt lat="45.98435" lon="5.60044">
        <ele>806.2</ele>
        <time>2026-05-12T07:32:46Z</time>
      </trkpt>
      <trkpt lat="45.98432" lon="5.60044">
        <ele>806.2</ele>
        <time>2026-05-12T07:32:47Z</time>
      </trkpt>
      <trkpt lat="45.98429" lon="5.60044">
        <ele>806.2</ele>
        <time>2026-05-12T07:32:48Z</time>
      </trkpt>
      <trkpt lat="45.98425" lon="5.60044">
        <ele>806.2</ele>
        <time>2026-05-12T07:32:49Z</time>
      </trkpt>
      <trkpt lat="45.98422" lon="5.60044">
        <ele>806.2</ele>
        <time>2026-05-12T07:32:50Z</time>
      </trkpt>
      <trkpt lat="45.98419" lon="5.60044">
        <ele>806.2</ele>
        <time>2026-05-12T07:32:51Z</time>
      </trkpt>
      <trkpt lat="45.98416" lon="5.60044">
        <ele>806.2</ele>
        <time>2026-05-12T07:32:52Z</time>
      </trkpt>
      <trkpt lat="45.98412" lon="5.60045">
        <ele>806.2</ele>
        <time>2026-05-12T07:32:53Z</time>
      </trkpt>
      <trkpt lat="45.98408" lon="5.60045">
        <ele>806</ele>
        <time>2026-05-12T07:32:54Z</time>
      </trkpt>
      <trkpt lat="45.98404" lon="5.60045">
        <ele>806</ele>
        <time>2026-05-12T07:32:55Z</time>
      </trkpt>
      <trkpt lat="45.984" lon="5.60045">
        <ele>806</ele>
        <time>2026-05-12T07:32:56Z</time>
      </trkpt>
      <trkpt lat="45.98396" lon="5.60045">
        <ele>805.6</ele>
        <time>2026-05-12T07:32:57Z</time>
      </trkpt>
      <trkpt lat="45.98392" lon="5.60045">
        <ele>805.6</ele>
        <time>2026-05-12T07:32:58Z</time>
      </trkpt>
      <trkpt lat="45.98387" lon="5.60046">
        <ele>805.4</ele>
        <time>2026-05-12T07:32:59Z</time>
      </trkpt>
      <trkpt lat="45.98383" lon="5.60047">
        <ele>805.4</ele>
        <time>2026-05-12T07:33:00Z</time>
      </trkpt>
      <trkpt lat="45.9838" lon="5.60048">
        <ele>805.2</ele>
        <time>2026-05-12T07:33:01Z</time>
      </trkpt>
      <trkpt lat="45.98376" lon="5.6005">
        <ele>805</ele>
        <time>2026-05-12T07:33:02Z</time>
      </trkpt>
      <trkpt lat="45.98372" lon="5.60053">
        <ele>805.2</ele>
        <time>2026-05-12T07:33:03Z</time>
      </trkpt>
      <trkpt lat="45.9837" lon="5.60057">
        <ele>805.2</ele>
        <time>2026-05-12T07:33:04Z</time>
      </trkpt>
      <trkpt lat="45.98367" lon="5.6006">
        <ele>805.6</ele>
        <time>2026-05-12T07:33:05Z</time>
      </trkpt>
      <trkpt lat="45.98364" lon="5.60065">
        <ele>805.6</ele>
        <time>2026-05-12T07:33:06Z</time>
      </trkpt>
      <trkpt lat="45.98361" lon="5.60068">
        <ele>806</ele>
        <time>2026-05-12T07:33:07Z</time>
      </trkpt>
      <trkpt lat="45.98359" lon="5.60072">
        <ele>806.6</ele>
        <time>2026-05-12T07:33:08Z</time>
      </trkpt>
      <trkpt lat="45.98356" lon="5.60075">
        <ele>807</ele>
        <time>2026-05-12T07:33:09Z</time>
      </trkpt>
      <trkpt lat="45.98354" lon="5.60078">
        <ele>807.2</ele>
        <time>2026-05-12T07:33:10Z</time>
      </trkpt>
      <trkpt lat="45.98351" lon="5.60081">
        <ele>807.2</ele>
        <time>2026-05-12T07:33:11Z</time>
      </trkpt>
      <trkpt lat="45.98349" lon="5.60084">
        <ele>807.2</ele>
        <time>2026-05-12T07:33:12Z</time>
      </trkpt>
      <trkpt lat="45.98347" lon="5.60087">
        <ele>807.6</ele>
        <time>2026-05-12T07:33:13Z</time>
      </trkpt>
      <trkpt lat="45.98345" lon="5.6009">
        <ele>807.6</ele>
        <time>2026-05-12T07:33:14Z</time>
      </trkpt>
      <trkpt lat="45.98342" lon="5.60093">
        <ele>808</ele>
        <time>2026-05-12T07:33:15Z</time>
      </trkpt>
      <trkpt lat="45.9834" lon="5.60095">
        <ele>808.2</ele>
        <time>2026-05-12T07:33:16Z</time>
      </trkpt>
      <trkpt lat="45.98337" lon="5.60097">
        <ele>808.2</ele>
        <time>2026-05-12T07:33:17Z</time>
      </trkpt>
      <trkpt lat="45.98335" lon="5.60099">
        <ele>808.6</ele>
        <time>2026-05-12T07:33:18Z</time>
      </trkpt>
      <trkpt lat="45.98332" lon="5.60101">
        <ele>808.6</ele>
        <time>2026-05-12T07:33:19Z</time>
      </trkpt>
      <trkpt lat="45.98329" lon="5.60104">
        <ele>808.6</ele>
        <time>2026-05-12T07:33:20Z</time>
      </trkpt>
      <trkpt lat="45.98326" lon="5.60106">
        <ele>808.8</ele>
        <time>2026-05-12T07:33:21Z</time>
      </trkpt>
      <trkpt lat="45.98322" lon="5.60109">
        <ele>808.8</ele>
        <time>2026-05-12T07:33:22Z</time>
      </trkpt>
      <trkpt lat="45.98319" lon="5.60111">
        <ele>808.8</ele>
        <time>2026-05-12T07:33:23Z</time>
      </trkpt>
      <trkpt lat="45.98316" lon="5.60113">
        <ele>808.8</ele>
        <time>2026-05-12T07:33:24Z</time>
      </trkpt>
      <trkpt lat="45.98313" lon="5.60115">
        <ele>808.8</ele>
        <time>2026-05-12T07:33:25Z</time>
      </trkpt>
      <trkpt lat="45.9831" lon="5.60117">
        <ele>808.8</ele>
        <time>2026-05-12T07:33:26Z</time>
      </trkpt>
      <trkpt lat="45.98307" lon="5.60119">
        <ele>809.2</ele>
        <time>2026-05-12T07:33:27Z</time>
      </trkpt>
      <trkpt lat="45.98304" lon="5.60121">
        <ele>809.2</ele>
        <time>2026-05-12T07:33:28Z</time>
      </trkpt>
      <trkpt lat="45.98301" lon="5.60124">
        <ele>809.2</ele>
        <time>2026-05-12T07:33:29Z</time>
      </trkpt>
      <trkpt lat="45.98298" lon="5.60126">
        <ele>809.2</ele>
        <time>2026-05-12T07:33:30Z</time>
      </trkpt>
      <trkpt lat="45.98295" lon="5.60129">
        <ele>809.2</ele>
        <time>2026-05-12T07:33:31Z</time>
      </trkpt>
      <trkpt lat="45.98292" lon="5.60131">
        <ele>809.2</ele>
        <time>2026-05-12T07:33:32Z</time>
      </trkpt>
      <trkpt lat="45.98289" lon="5.60134">
        <ele>809.6</ele>
        <time>2026-05-12T07:33:33Z</time>
      </trkpt>
      <trkpt lat="45.98286" lon="5.60135">
        <ele>809.6</ele>
        <time>2026-05-12T07:33:34Z</time>
      </trkpt>
      <trkpt lat="45.98284" lon="5.60137">
        <ele>809.6</ele>
        <time>2026-05-12T07:33:35Z</time>
      </trkpt>
      <trkpt lat="45.98283" lon="5.60138">
        <ele>810</ele>
        <time>2026-05-12T07:33:36Z</time>
      </trkpt>
      <trkpt lat="45.98282" lon="5.60139">
        <ele>810</ele>
        <time>2026-05-12T07:33:37Z</time>
      </trkpt>
      <trkpt lat="45.98281" lon="5.60142">
        <ele>810.2</ele>
        <time>2026-05-12T07:33:38Z</time>
      </trkpt>
      <trkpt lat="45.98279" lon="5.60144">
        <ele>810.2</ele>
        <time>2026-05-12T07:33:39Z</time>
      </trkpt>
      <trkpt lat="45.98276" lon="5.60146">
        <ele>810.4</ele>
        <time>2026-05-12T07:33:40Z</time>
      </trkpt>
      <trkpt lat="45.98274" lon="5.60149">
        <ele>810.4</ele>
        <time>2026-05-12T07:33:41Z</time>
      </trkpt>
      <trkpt lat="45.98268" lon="5.60151">
        <ele>810.4</ele>
        <time>2026-05-12T07:33:42Z</time>
      </trkpt>
      <trkpt lat="45.98265" lon="5.6015">
        <ele>810.4</ele>
        <time>2026-05-12T07:33:43Z</time>
      </trkpt>
      <trkpt lat="45.98262" lon="5.60147">
        <ele>810.4</ele>
        <time>2026-05-12T07:33:44Z</time>
      </trkpt>
      <trkpt lat="45.98259" lon="5.60143">
        <ele>810.4</ele>
        <time>2026-05-12T07:33:45Z</time>
      </trkpt>
      <trkpt lat="45.98256" lon="5.6014">
        <ele>810.2</ele>
        <time>2026-05-12T07:33:46Z</time>
      </trkpt>
      <trkpt lat="45.98252" lon="5.60136">
        <ele>810.2</ele>
        <time>2026-05-12T07:33:47Z</time>
      </trkpt>
      <trkpt lat="45.98249" lon="5.60134">
        <ele>810.2</ele>
        <time>2026-05-12T07:33:48Z</time>
      </trkpt>
      <trkpt lat="45.98246" lon="5.60131">
        <ele>810.2</ele>
        <time>2026-05-12T07:33:49Z</time>
      </trkpt>
      <trkpt lat="45.98242" lon="5.60128">
        <ele>810.2</ele>
        <time>2026-05-12T07:33:50Z</time>
      </trkpt>
      <trkpt lat="45.98239" lon="5.60126">
        <ele>809.8</ele>
        <time>2026-05-12T07:33:51Z</time>
      </trkpt>
      <trkpt lat="45.98235" lon="5.60123">
        <ele>809.8</ele>
        <time>2026-05-12T07:33:52Z</time>
      </trkpt>
      <trkpt lat="45.98232" lon="5.60121">
        <ele>809.8</ele>
        <time>2026-05-12T07:33:53Z</time>
      </trkpt>
      <trkpt lat="45.98228" lon="5.60116">
        <ele>809.8</ele>
        <time>2026-05-12T07:33:54Z</time>
      </trkpt>
      <trkpt lat="45.98225" lon="5.60112">
        <ele>809.6</ele>
        <time>2026-05-12T07:33:55Z</time>
      </trkpt>
      <trkpt lat="45.98222" lon="5.60107">
        <ele>809.6</ele>
        <time>2026-05-12T07:33:56Z</time>
      </trkpt>
      <trkpt lat="45.98218" lon="5.60103">
        <ele>809.6</ele>
        <time>2026-05-12T07:33:57Z</time>
      </trkpt>
      <trkpt lat="45.98215" lon="5.60099">
        <ele>809.6</ele>
        <time>2026-05-12T07:33:58Z</time>
      </trkpt>
      <trkpt lat="45.98211" lon="5.60096">
        <ele>809.4</ele>
        <time>2026-05-12T07:33:59Z</time>
      </trkpt>
      <trkpt lat="45.98208" lon="5.60092">
        <ele>809</ele>
        <time>2026-05-12T07:34:00Z</time>
      </trkpt>
      <trkpt lat="45.98204" lon="5.60088">
        <ele>809</ele>
        <time>2026-05-12T07:34:01Z</time>
      </trkpt>
      <trkpt lat="45.982" lon="5.60084">
        <ele>808.6</ele>
        <time>2026-05-12T07:34:02Z</time>
      </trkpt>
      <trkpt lat="45.98196" lon="5.6008">
        <ele>808.6</ele>
        <time>2026-05-12T07:34:03Z</time>
      </trkpt>
      <trkpt lat="45.98193" lon="5.60076">
        <ele>808.6</ele>
        <time>2026-05-12T07:34:04Z</time>
      </trkpt>
      <trkpt lat="45.98189" lon="5.60071">
        <ele>808.4</ele>
        <time>2026-05-12T07:34:05Z</time>
      </trkpt>
      <trkpt lat="45.98185" lon="5.60067">
        <ele>808.4</ele>
        <time>2026-05-12T07:34:06Z</time>
      </trkpt>
      <trkpt lat="45.98181" lon="5.60063">
        <ele>808.4</ele>
        <time>2026-05-12T07:34:07Z</time>
      </trkpt>
      <trkpt lat="45.98178" lon="5.60059">
        <ele>808</ele>
        <time>2026-05-12T07:34:08Z</time>
      </trkpt>
      <trkpt lat="45.98174" lon="5.60055">
        <ele>808</ele>
        <time>2026-05-12T07:34:09Z</time>
      </trkpt>
      <trkpt lat="45.9817" lon="5.60051">
        <ele>807.4</ele>
        <time>2026-05-12T07:34:10Z</time>
      </trkpt>
      <trkpt lat="45.98166" lon="5.60047">
        <ele>807</ele>
        <time>2026-05-12T07:34:11Z</time>
      </trkpt>
      <trkpt lat="45.98162" lon="5.60043">
        <ele>807</ele>
        <time>2026-05-12T07:34:12Z</time>
      </trkpt>
      <trkpt lat="45.98157" lon="5.60039">
        <ele>806.6</ele>
        <time>2026-05-12T07:34:13Z</time>
      </trkpt>
      <trkpt lat="45.98153" lon="5.60033">
        <ele>806.6</ele>
        <time>2026-05-12T07:34:14Z</time>
      </trkpt>
      <trkpt lat="45.98148" lon="5.60029">
        <ele>806.2</ele>
        <time>2026-05-12T07:34:15Z</time>
      </trkpt>
      <trkpt lat="45.98148" lon="5.60029">
        <ele>805.6</ele>
        <time>2026-05-12T07:34:16Z</time>
      </trkpt>
      <trkpt lat="45.98144" lon="5.60024">
        <ele>805.2</ele>
        <time>2026-05-12T07:34:17Z</time>
      </trkpt>
      <trkpt lat="45.98139" lon="5.6002">
        <ele>804.8</ele>
        <time>2026-05-12T07:34:18Z</time>
      </trkpt>
      <trkpt lat="45.98135" lon="5.60015">
        <ele>804.6</ele>
        <time>2026-05-12T07:34:19Z</time>
      </trkpt>
      <trkpt lat="45.9813" lon="5.6001">
        <ele>804</ele>
        <time>2026-05-12T07:34:20Z</time>
      </trkpt>
      <trkpt lat="45.98125" lon="5.60006">
        <ele>803.6</ele>
        <time>2026-05-12T07:34:21Z</time>
      </trkpt>
      <trkpt lat="45.9812" lon="5.60001">
        <ele>803.2</ele>
        <time>2026-05-12T07:34:22Z</time>
      </trkpt>
      <trkpt lat="45.98114" lon="5.59998">
        <ele>802.8</ele>
        <time>2026-05-12T07:34:23Z</time>
      </trkpt>
      <trkpt lat="45.98109" lon="5.59995">
        <ele>802.2</ele>
        <time>2026-05-12T07:34:24Z</time>
      </trkpt>
      <trkpt lat="45.98103" lon="5.59991">
        <ele>801.6</ele>
        <time>2026-05-12T07:34:25Z</time>
      </trkpt>
      <trkpt lat="45.98098" lon="5.59988">
        <ele>801</ele>
        <time>2026-05-12T07:34:26Z</time>
      </trkpt>
      <trkpt lat="45.98091" lon="5.59984">
        <ele>800.2</ele>
        <time>2026-05-12T07:34:27Z</time>
      </trkpt>
      <trkpt lat="45.98084" lon="5.59981">
        <ele>799.4</ele>
        <time>2026-05-12T07:34:28Z</time>
      </trkpt>
      <trkpt lat="45.98078" lon="5.59977">
        <ele>798.4</ele>
        <time>2026-05-12T07:34:29Z</time>
      </trkpt>
      <trkpt lat="45.98071" lon="5.59973">
        <ele>797.6</ele>
        <time>2026-05-12T07:34:30Z</time>
      </trkpt>
      <trkpt lat="45.98065" lon="5.59968">
        <ele>796.8</ele>
        <time>2026-05-12T07:34:31Z</time>
      </trkpt>
      <trkpt lat="45.9806" lon="5.59964">
        <ele>795.8</ele>
        <time>2026-05-12T07:34:32Z</time>
      </trkpt>
      <trkpt lat="45.98053" lon="5.59959">
        <ele>795.2</ele>
        <time>2026-05-12T07:34:33Z</time>
      </trkpt>
      <trkpt lat="45.98048" lon="5.59954">
        <ele>794.4</ele>
        <time>2026-05-12T07:34:34Z</time>
      </trkpt>
      <trkpt lat="45.98041" lon="5.5995">
        <ele>793.8</ele>
        <time>2026-05-12T07:34:35Z</time>
      </trkpt>
      <trkpt lat="45.98037" lon="5.59945">
        <ele>793.2</ele>
        <time>2026-05-12T07:34:36Z</time>
      </trkpt>
      <trkpt lat="45.98032" lon="5.59939">
        <ele>792.8</ele>
        <time>2026-05-12T07:34:37Z</time>
      </trkpt>
      <trkpt lat="45.98029" lon="5.59934">
        <ele>792.6</ele>
        <time>2026-05-12T07:34:38Z</time>
      </trkpt>
      <trkpt lat="45.98025" lon="5.59928">
        <ele>792.2</ele>
        <time>2026-05-12T07:34:39Z</time>
      </trkpt>
      <trkpt lat="45.98021" lon="5.59925">
        <ele>792</ele>
        <time>2026-05-12T07:34:40Z</time>
      </trkpt>
      <trkpt lat="45.98016" lon="5.59924">
        <ele>791.6</ele>
        <time>2026-05-12T07:34:41Z</time>
      </trkpt>
      <trkpt lat="45.98011" lon="5.59926">
        <ele>791.6</ele>
        <time>2026-05-12T07:34:42Z</time>
      </trkpt>
      <trkpt lat="45.98006" lon="5.59929">
        <ele>791.6</ele>
        <time>2026-05-12T07:34:43Z</time>
      </trkpt>
      <trkpt lat="45.98003" lon="5.59933">
        <ele>791.4</ele>
        <time>2026-05-12T07:34:44Z</time>
      </trkpt>
      <trkpt lat="45.97999" lon="5.59938">
        <ele>791.4</ele>
        <time>2026-05-12T07:34:45Z</time>
      </trkpt>
      <trkpt lat="45.97996" lon="5.59943">
        <ele>791.4</ele>
        <time>2026-05-12T07:34:46Z</time>
      </trkpt>
      <trkpt lat="45.97992" lon="5.59948">
        <ele>791.4</ele>
        <time>2026-05-12T07:34:47Z</time>
      </trkpt>
      <trkpt lat="45.97988" lon="5.59953">
        <ele>791.4</ele>
        <time>2026-05-12T07:34:48Z</time>
      </trkpt>
      <trkpt lat="45.97985" lon="5.59959">
        <ele>791.8</ele>
        <time>2026-05-12T07:34:49Z</time>
      </trkpt>
      <trkpt lat="45.97981" lon="5.59963">
        <ele>792.2</ele>
        <time>2026-05-12T07:34:50Z</time>
      </trkpt>
      <trkpt lat="45.97978" lon="5.59968">
        <ele>792.6</ele>
        <time>2026-05-12T07:34:51Z</time>
      </trkpt>
      <trkpt lat="45.97975" lon="5.59973">
        <ele>793</ele>
        <time>2026-05-12T07:34:52Z</time>
      </trkpt>
      <trkpt lat="45.97971" lon="5.59977">
        <ele>793.2</ele>
        <time>2026-05-12T07:34:53Z</time>
      </trkpt>
      <trkpt lat="45.97968" lon="5.59981">
        <ele>793.6</ele>
        <time>2026-05-12T07:34:54Z</time>
      </trkpt>
      <trkpt lat="45.97964" lon="5.59986">
        <ele>793.8</ele>
        <time>2026-05-12T07:34:55Z</time>
      </trkpt>
      <trkpt lat="45.97961" lon="5.59991">
        <ele>793.8</ele>
        <time>2026-05-12T07:34:56Z</time>
      </trkpt>
      <trkpt lat="45.97958" lon="5.59995">
        <ele>794</ele>
        <time>2026-05-12T07:34:57Z</time>
      </trkpt>
      <trkpt lat="45.97955" lon="5.59999">
        <ele>794</ele>
        <time>2026-05-12T07:34:58Z</time>
      </trkpt>
      <trkpt lat="45.97951" lon="5.60003">
        <ele>794</ele>
        <time>2026-05-12T07:34:59Z</time>
      </trkpt>
      <trkpt lat="45.97948" lon="5.60006">
        <ele>794</ele>
        <time>2026-05-12T07:35:00Z</time>
      </trkpt>
      <trkpt lat="45.97943" lon="5.60008">
        <ele>794</ele>
        <time>2026-05-12T07:35:01Z</time>
      </trkpt>
      <trkpt lat="45.97938" lon="5.60008">
        <ele>794</ele>
        <time>2026-05-12T07:35:02Z</time>
      </trkpt>
      <trkpt lat="45.97934" lon="5.60007">
        <ele>794</ele>
        <time>2026-05-12T07:35:03Z</time>
      </trkpt>
      <trkpt lat="45.97929" lon="5.60007">
        <ele>794</ele>
        <time>2026-05-12T07:35:04Z</time>
      </trkpt>
      <trkpt lat="45.97924" lon="5.60007">
        <ele>794</ele>
        <time>2026-05-12T07:35:05Z</time>
      </trkpt>
      <trkpt lat="45.97919" lon="5.60006">
        <ele>794</ele>
        <time>2026-05-12T07:35:06Z</time>
      </trkpt>
      <trkpt lat="45.97914" lon="5.60006">
        <ele>794.4</ele>
        <time>2026-05-12T07:35:07Z</time>
      </trkpt>
      <trkpt lat="45.97908" lon="5.60005">
        <ele>794.4</ele>
        <time>2026-05-12T07:35:08Z</time>
      </trkpt>
      <trkpt lat="45.97903" lon="5.60005">
        <ele>794.4</ele>
        <time>2026-05-12T07:35:09Z</time>
      </trkpt>
      <trkpt lat="45.97898" lon="5.60004">
        <ele>794.4</ele>
        <time>2026-05-12T07:35:10Z</time>
      </trkpt>
      <trkpt lat="45.97893" lon="5.60003">
        <ele>794.4</ele>
        <time>2026-05-12T07:35:11Z</time>
      </trkpt>
      <trkpt lat="45.97888" lon="5.60001">
        <ele>794.2</ele>
        <time>2026-05-12T07:35:12Z</time>
      </trkpt>
      <trkpt lat="45.97883" lon="5.59999">
        <ele>794.2</ele>
        <time>2026-05-12T07:35:13Z</time>
      </trkpt>
      <trkpt lat="45.97879" lon="5.59995">
        <ele>794.2</ele>
        <time>2026-05-12T07:35:14Z</time>
      </trkpt>
      <trkpt lat="45.97875" lon="5.59994">
        <ele>794.2</ele>
        <time>2026-05-12T07:35:15Z</time>
      </trkpt>
      <trkpt lat="45.97871" lon="5.59993">
        <ele>794.2</ele>
        <time>2026-05-12T07:35:16Z</time>
      </trkpt>
      <trkpt lat="45.97866" lon="5.59992">
        <ele>794</ele>
        <time>2026-05-12T07:35:17Z</time>
      </trkpt>
      <trkpt lat="45.97862" lon="5.59991">
        <ele>794</ele>
        <time>2026-05-12T07:35:18Z</time>
      </trkpt>
      <trkpt lat="45.97858" lon="5.59991">
        <ele>794</ele>
        <time>2026-05-12T07:35:19Z</time>
      </trkpt>
      <trkpt lat="45.97853" lon="5.5999">
        <ele>794</ele>
        <time>2026-05-12T07:35:20Z</time>
      </trkpt>
      <trkpt lat="45.97849" lon="5.59989">
        <ele>794</ele>
        <time>2026-05-12T07:35:21Z</time>
      </trkpt>
      <trkpt lat="45.97846" lon="5.59987">
        <ele>794.2</ele>
        <time>2026-05-12T07:35:22Z</time>
      </trkpt>
      <trkpt lat="45.97845" lon="5.59982">
        <ele>794.2</ele>
        <time>2026-05-12T07:35:23Z</time>
      </trkpt>
      <trkpt lat="45.97845" lon="5.59978">
        <ele>794.2</ele>
        <time>2026-05-12T07:35:24Z</time>
      </trkpt>
      <trkpt lat="45.97847" lon="5.59974">
        <ele>794.2</ele>
        <time>2026-05-12T07:35:25Z</time>
      </trkpt>
      <trkpt lat="45.9785" lon="5.59973">
        <ele>794.2</ele>
        <time>2026-05-12T07:35:26Z</time>
      </trkpt>
      <trkpt lat="45.97852" lon="5.59974">
        <ele>794.2</ele>
        <time>2026-05-12T07:35:27Z</time>
      </trkpt>
      <trkpt lat="45.97854" lon="5.59976">
        <ele>794.2</ele>
        <time>2026-05-12T07:35:28Z</time>
      </trkpt>
      <trkpt lat="45.97856" lon="5.59978">
        <ele>794.4</ele>
        <time>2026-05-12T07:35:29Z</time>
      </trkpt>
      <trkpt lat="45.97856" lon="5.59979">
        <ele>794.4</ele>
        <time>2026-05-12T07:35:30Z</time>
      </trkpt>
      <trkpt lat="45.97858" lon="5.59979">
        <ele>794.4</ele>
        <time>2026-05-12T07:35:31Z</time>
      </trkpt>
      <trkpt lat="45.97861" lon="5.59978">
        <ele>794.4</ele>
        <time>2026-05-12T07:35:32Z</time>
      </trkpt>
      <trkpt lat="45.97862" lon="5.59976">
        <ele>794.4</ele>
        <time>2026-05-12T07:35:33Z</time>
      </trkpt>
      <trkpt lat="45.97862" lon="5.59972">
        <ele>794.4</ele>
        <time>2026-05-12T07:35:34Z</time>
      </trkpt>
      <trkpt lat="45.97861" lon="5.59968">
        <ele>794.4</ele>
        <time>2026-05-12T07:35:35Z</time>
      </trkpt>
      <trkpt lat="45.97858" lon="5.59967">
        <ele>794.2</ele>
        <time>2026-05-12T07:35:36Z</time>
      </trkpt>
      <trkpt lat="45.97855" lon="5.59967">
        <ele>794.2</ele>
        <time>2026-05-12T07:35:37Z</time>
      </trkpt>
      <trkpt lat="45.97851" lon="5.59968">
        <ele>794.4</ele>
        <time>2026-05-12T07:35:38Z</time>
      </trkpt>
      <trkpt lat="45.97847" lon="5.5997">
        <ele>794.4</ele>
        <time>2026-05-12T07:35:39Z</time>
      </trkpt>
      <trkpt lat="45.97843" lon="5.59971">
        <ele>794.4</ele>
        <time>2026-05-12T07:35:40Z</time>
      </trkpt>
      <trkpt lat="45.97839" lon="5.5997">
        <ele>794.4</ele>
        <time>2026-05-12T07:35:41Z</time>
      </trkpt>
      <trkpt lat="45.97836" lon="5.59969">
        <ele>794.4</ele>
        <time>2026-05-12T07:35:42Z</time>
      </trkpt>
      <trkpt lat="45.97832" lon="5.59967">
        <ele>794.4</ele>
        <time>2026-05-12T07:35:43Z</time>
      </trkpt>
      <trkpt lat="45.97829" lon="5.59964">
        <ele>794.2</ele>
        <time>2026-05-12T07:35:44Z</time>
      </trkpt>
      <trkpt lat="45.97825" lon="5.59961">
        <ele>794.2</ele>
        <time>2026-05-12T07:35:45Z</time>
      </trkpt>
      <trkpt lat="45.97822" lon="5.59959">
        <ele>794.2</ele>
        <time>2026-05-12T07:35:46Z</time>
      </trkpt>
      <trkpt lat="45.97818" lon="5.59957">
        <ele>794.2</ele>
        <time>2026-05-12T07:35:47Z</time>
      </trkpt>
      <trkpt lat="45.97815" lon="5.59956">
        <ele>793.8</ele>
        <time>2026-05-12T07:35:48Z</time>
      </trkpt>
      <trkpt lat="45.97812" lon="5.59956">
        <ele>793.8</ele>
        <time>2026-05-12T07:35:49Z</time>
      </trkpt>
      <trkpt lat="45.9781" lon="5.59955">
        <ele>793.8</ele>
        <time>2026-05-12T07:35:50Z</time>
      </trkpt>
      <trkpt lat="45.97807" lon="5.59955">
        <ele>793.6</ele>
        <time>2026-05-12T07:35:51Z</time>
      </trkpt>
      <trkpt lat="45.97805" lon="5.59954">
        <ele>793.6</ele>
        <time>2026-05-12T07:35:52Z</time>
      </trkpt>
      <trkpt lat="45.97802" lon="5.59953">
        <ele>793.6</ele>
        <time>2026-05-12T07:35:53Z</time>
      </trkpt>
      <trkpt lat="45.97801" lon="5.59951">
        <ele>793.6</ele>
        <time>2026-05-12T07:35:54Z</time>
      </trkpt>
      <trkpt lat="45.978" lon="5.5995">
        <ele>793.6</ele>
        <time>2026-05-12T07:35:55Z</time>
      </trkpt>
      <trkpt lat="45.97799" lon="5.5995">
        <ele>793.6</ele>
        <time>2026-05-12T07:35:56Z</time>
      </trkpt>
      <trkpt lat="45.97799" lon="5.5995">
        <ele>793.6</ele>
        <time>2026-05-12T07:35:57Z</time>
      </trkpt>
      <trkpt lat="45.97797" lon="5.59949">
        <ele>793.4</ele>
        <time>2026-05-12T07:36:02Z</time>
      </trkpt>
      <trkpt lat="45.97795" lon="5.59949">
        <ele>793.4</ele>
        <time>2026-05-12T07:36:03Z</time>
      </trkpt>
      <trkpt lat="45.97792" lon="5.59949">
        <ele>793.2</ele>
        <time>2026-05-12T07:36:04Z</time>
      </trkpt>
      <trkpt lat="45.9779" lon="5.59949">
        <ele>793.2</ele>
        <time>2026-05-12T07:36:05Z</time>
      </trkpt>
      <trkpt lat="45.97786" lon="5.59948">
        <ele>793.2</ele>
        <time>2026-05-12T07:36:06Z</time>
      </trkpt>
      <trkpt lat="45.97783" lon="5.59945">
        <ele>793.2</ele>
        <time>2026-05-12T07:36:07Z</time>
      </trkpt>
      <trkpt lat="45.97781" lon="5.59941">
        <ele>793.2</ele>
        <time>2026-05-12T07:36:08Z</time>
      </trkpt>
      <trkpt lat="45.97779" lon="5.59937">
        <ele>793.4</ele>
        <time>2026-05-12T07:36:09Z</time>
      </trkpt>
      <trkpt lat="45.97778" lon="5.59932">
        <ele>793.4</ele>
        <time>2026-05-12T07:36:10Z</time>
      </trkpt>
      <trkpt lat="45.97777" lon="5.59928">
        <ele>793</ele>
        <time>2026-05-12T07:36:11Z</time>
      </trkpt>
      <trkpt lat="45.97775" lon="5.59923">
        <ele>793</ele>
        <time>2026-05-12T07:36:12Z</time>
      </trkpt>
      <trkpt lat="45.97772" lon="5.5992">
        <ele>793</ele>
        <time>2026-05-12T07:36:13Z</time>
      </trkpt>
      <trkpt lat="45.97768" lon="5.59918">
        <ele>793</ele>
        <time>2026-05-12T07:36:14Z</time>
      </trkpt>
      <trkpt lat="45.97764" lon="5.5992">
        <ele>793</ele>
        <time>2026-05-12T07:36:15Z</time>
      </trkpt>
      <trkpt lat="45.9776" lon="5.59924">
        <ele>793</ele>
        <time>2026-05-12T07:36:16Z</time>
      </trkpt>
      <trkpt lat="45.97756" lon="5.59928">
        <ele>793</ele>
        <time>2026-05-12T07:36:17Z</time>
      </trkpt>
      <trkpt lat="45.97753" lon="5.59932">
        <ele>792.6</ele>
        <time>2026-05-12T07:36:18Z</time>
      </trkpt>
      <trkpt lat="45.9775" lon="5.59936">
        <ele>792.6</ele>
        <time>2026-05-12T07:36:19Z</time>
      </trkpt>
      <trkpt lat="45.97747" lon="5.5994">
        <ele>792.6</ele>
        <time>2026-05-12T07:36:20Z</time>
      </trkpt>
      <trkpt lat="45.97744" lon="5.59943">
        <ele>792.6</ele>
        <time>2026-05-12T07:36:21Z</time>
      </trkpt>
      <trkpt lat="45.97742" lon="5.59947">
        <ele>792.6</ele>
        <time>2026-05-12T07:36:22Z</time>
      </trkpt>
      <trkpt lat="45.97739" lon="5.59951">
        <ele>792.6</ele>
        <time>2026-05-12T07:36:23Z</time>
      </trkpt>
      <trkpt lat="45.97737" lon="5.59954">
        <ele>792.6</ele>
        <time>2026-05-12T07:36:24Z</time>
      </trkpt>
      <trkpt lat="45.97736" lon="5.59957">
        <ele>792.6</ele>
        <time>2026-05-12T07:36:25Z</time>
      </trkpt>
      <trkpt lat="45.97734" lon="5.59959">
        <ele>792.6</ele>
        <time>2026-05-12T07:36:26Z</time>
      </trkpt>
      <trkpt lat="45.97733" lon="5.59961">
        <ele>792.6</ele>
        <time>2026-05-12T07:36:27Z</time>
      </trkpt>
      <trkpt lat="45.97732" lon="5.59963">
        <ele>792.6</ele>
        <time>2026-05-12T07:36:28Z</time>
      </trkpt>
      <trkpt lat="45.97731" lon="5.59964">
        <ele>792.2</ele>
        <time>2026-05-12T07:36:29Z</time>
      </trkpt>
      <trkpt lat="45.97729" lon="5.59965">
        <ele>792.2</ele>
        <time>2026-05-12T07:36:30Z</time>
      </trkpt>
      <trkpt lat="45.97728" lon="5.59966">
        <ele>792.2</ele>
        <time>2026-05-12T07:36:31Z</time>
      </trkpt>
      <trkpt lat="45.97726" lon="5.59967">
        <ele>792</ele>
        <time>2026-05-12T07:36:32Z</time>
      </trkpt>
      <trkpt lat="45.97725" lon="5.59969">
        <ele>792</ele>
        <time>2026-05-12T07:36:33Z</time>
      </trkpt>
      <trkpt lat="45.97725" lon="5.59969">
        <ele>792</ele>
        <time>2026-05-12T07:36:34Z</time>
      </trkpt>
      <trkpt lat="45.97725" lon="5.59969">
        <ele>791.8</ele>
        <time>2026-05-12T07:36:35Z</time>
      </trkpt>
      <trkpt lat="45.97717" lon="5.59974">
        <ele>792.2</ele>
        <time>2026-05-12T08:21:49Z</time>
      </trkpt>
      <trkpt lat="45.97716" lon="5.59977">
        <ele>792</ele>
        <time>2026-05-12T08:21:50Z</time>
      </trkpt>
      <trkpt lat="45.97715" lon="5.5998">
        <ele>791.8</ele>
        <time>2026-05-12T08:21:51Z</time>
      </trkpt>
      <trkpt lat="45.97713" lon="5.59983">
        <ele>791.8</ele>
        <time>2026-05-12T08:21:52Z</time>
      </trkpt>
      <trkpt lat="45.97711" lon="5.59987">
        <ele>791.4</ele>
        <time>2026-05-12T08:21:53Z</time>
      </trkpt>
      <trkpt lat="45.97709" lon="5.59991">
        <ele>791.4</ele>
        <time>2026-05-12T08:21:54Z</time>
      </trkpt>
      <trkpt lat="45.97707" lon="5.59996">
        <ele>791.4</ele>
        <time>2026-05-12T08:21:55Z</time>
      </trkpt>
      <trkpt lat="45.97705" lon="5.60001">
        <ele>791.2</ele>
        <time>2026-05-12T08:21:56Z</time>
      </trkpt>
      <trkpt lat="45.97703" lon="5.60005">
        <ele>791.2</ele>
        <time>2026-05-12T08:21:57Z</time>
      </trkpt>
      <trkpt lat="45.977" lon="5.6001">
        <ele>791.2</ele>
        <time>2026-05-12T08:21:58Z</time>
      </trkpt>
      <trkpt lat="45.97698" lon="5.60013">
        <ele>790.8</ele>
        <time>2026-05-12T08:21:59Z</time>
      </trkpt>
      <trkpt lat="45.97695" lon="5.60017">
        <ele>790.8</ele>
        <time>2026-05-12T08:22:00Z</time>
      </trkpt>
      <trkpt lat="45.97693" lon="5.6002">
        <ele>790.8</ele>
        <time>2026-05-12T08:22:01Z</time>
      </trkpt>
      <trkpt lat="45.9769" lon="5.60023">
        <ele>790.6</ele>
        <time>2026-05-12T08:22:02Z</time>
      </trkpt>
      <trkpt lat="45.97687" lon="5.60027">
        <ele>791.2</ele>
        <time>2026-05-12T08:22:03Z</time>
      </trkpt>
      <trkpt lat="45.97685" lon="5.6003">
        <ele>791.2</ele>
        <time>2026-05-12T08:22:04Z</time>
      </trkpt>
      <trkpt lat="45.97683" lon="5.60034">
        <ele>791.2</ele>
        <time>2026-05-12T08:22:05Z</time>
      </trkpt>
      <trkpt lat="45.97682" lon="5.6004">
        <ele>791.2</ele>
        <time>2026-05-12T08:22:06Z</time>
      </trkpt>
      <trkpt lat="45.97682" lon="5.60045">
        <ele>790.8</ele>
        <time>2026-05-12T08:22:07Z</time>
      </trkpt>
      <trkpt lat="45.97683" lon="5.6005">
        <ele>790.8</ele>
        <time>2026-05-12T08:22:08Z</time>
      </trkpt>
      <trkpt lat="45.97684" lon="5.60054">
        <ele>790.4</ele>
        <time>2026-05-12T08:22:09Z</time>
      </trkpt>
      <trkpt lat="45.97686" lon="5.60059">
        <ele>790.4</ele>
        <time>2026-05-12T08:22:10Z</time>
      </trkpt>
      <trkpt lat="45.97686" lon="5.60063">
        <ele>790.4</ele>
        <time>2026-05-12T08:22:11Z</time>
      </trkpt>
      <trkpt lat="45.97686" lon="5.60063">
        <ele>790.4</ele>
        <time>2026-05-12T08:22:12Z</time>
      </trkpt>
      <trkpt lat="45.97685" lon="5.60069">
        <ele>790.2</ele>
        <time>2026-05-12T08:22:13Z</time>
      </trkpt>
      <trkpt lat="45.97684" lon="5.60075">
        <ele>790.2</ele>
        <time>2026-05-12T08:22:14Z</time>
      </trkpt>
      <trkpt lat="45.97683" lon="5.6008">
        <ele>790.2</ele>
        <time>2026-05-12T08:22:15Z</time>
      </trkpt>
      <trkpt lat="45.97681" lon="5.60085">
        <ele>790.2</ele>
        <time>2026-05-12T08:22:16Z</time>
      </trkpt>
      <trkpt lat="45.9768" lon="5.60091">
        <ele>790.2</ele>
        <time>2026-05-12T08:22:17Z</time>
      </trkpt>
      <trkpt lat="45.97677" lon="5.60096">
        <ele>790.2</ele>
        <time>2026-05-12T08:22:18Z</time>
      </trkpt>
      <trkpt lat="45.97675" lon="5.60102">
        <ele>790.2</ele>
        <time>2026-05-12T08:22:19Z</time>
      </trkpt>
      <trkpt lat="45.97674" lon="5.60107">
        <ele>790.2</ele>
        <time>2026-05-12T08:22:20Z</time>
      </trkpt>
      <trkpt lat="45.97671" lon="5.60108">
        <ele>790.4</ele>
        <time>2026-05-12T08:22:21Z</time>
      </trkpt>
      <trkpt lat="45.97669" lon="5.60114">
        <ele>790.4</ele>
        <time>2026-05-12T08:22:22Z</time>
      </trkpt>
      <trkpt lat="45.97667" lon="5.60118">
        <ele>790.4</ele>
        <time>2026-05-12T08:22:23Z</time>
      </trkpt>
      <trkpt lat="45.97667" lon="5.60122">
        <ele>790.8</ele>
        <time>2026-05-12T08:22:24Z</time>
      </trkpt>
      <trkpt lat="45.97663" lon="5.60123">
        <ele>791</ele>
        <time>2026-05-12T08:22:25Z</time>
      </trkpt>
      <trkpt lat="45.9766" lon="5.60126">
        <ele>791</ele>
        <time>2026-05-12T08:22:26Z</time>
      </trkpt>
      <trkpt lat="45.97657" lon="5.6013">
        <ele>791.4</ele>
        <time>2026-05-12T08:22:27Z</time>
      </trkpt>
      <trkpt lat="45.97654" lon="5.60132">
        <ele>791.4</ele>
        <time>2026-05-12T08:22:28Z</time>
      </trkpt>
      <trkpt lat="45.97652" lon="5.60135">
        <ele>791.6</ele>
        <time>2026-05-12T08:22:29Z</time>
      </trkpt>
      <trkpt lat="45.97651" lon="5.60137">
        <ele>791.6</ele>
        <time>2026-05-12T08:22:30Z</time>
      </trkpt>
      <trkpt lat="45.97648" lon="5.60141">
        <ele>792.2</ele>
        <time>2026-05-12T08:22:31Z</time>
      </trkpt>
      <trkpt lat="45.97648" lon="5.60141">
        <ele>792.4</ele>
        <time>2026-05-12T08:22:32Z</time>
      </trkpt>
      <trkpt lat="45.97646" lon="5.60143">
        <ele>792.6</ele>
        <time>2026-05-12T08:22:33Z</time>
      </trkpt>
      <trkpt lat="45.97644" lon="5.60145">
        <ele>792.6</ele>
        <time>2026-05-12T08:22:34Z</time>
      </trkpt>
      <trkpt lat="45.97643" lon="5.60147">
        <ele>793</ele>
        <time>2026-05-12T08:22:35Z</time>
      </trkpt>
      <trkpt lat="45.97641" lon="5.60149">
        <ele>793</ele>
        <time>2026-05-12T08:22:36Z</time>
      </trkpt>
      <trkpt lat="45.9764" lon="5.60151">
        <ele>793.4</ele>
        <time>2026-05-12T08:22:37Z</time>
      </trkpt>
      <trkpt lat="45.97639" lon="5.60153">
        <ele>793.8</ele>
        <time>2026-05-12T08:22:38Z</time>
      </trkpt>
      <trkpt lat="45.97638" lon="5.60156">
        <ele>793.8</ele>
        <time>2026-05-12T08:22:39Z</time>
      </trkpt>
      <trkpt lat="45.97636" lon="5.60158">
        <ele>794</ele>
        <time>2026-05-12T08:22:40Z</time>
      </trkpt>
      <trkpt lat="45.97634" lon="5.6016">
        <ele>794.2</ele>
        <time>2026-05-12T08:22:41Z</time>
      </trkpt>
      <trkpt lat="45.97633" lon="5.60161">
        <ele>794.4</ele>
        <time>2026-05-12T08:22:42Z</time>
      </trkpt>
      <trkpt lat="45.97631" lon="5.60163">
        <ele>794.4</ele>
        <time>2026-05-12T08:22:43Z</time>
      </trkpt>
      <trkpt lat="45.9763" lon="5.60164">
        <ele>794.8</ele>
        <time>2026-05-12T08:22:44Z</time>
      </trkpt>
      <trkpt lat="45.97629" lon="5.60166">
        <ele>794.8</ele>
        <time>2026-05-12T08:22:45Z</time>
      </trkpt>
      <trkpt lat="45.97627" lon="5.60167">
        <ele>795.4</ele>
        <time>2026-05-12T08:22:46Z</time>
      </trkpt>
      <trkpt lat="45.97626" lon="5.60169">
        <ele>795.6</ele>
        <time>2026-05-12T08:22:47Z</time>
      </trkpt>
      <trkpt lat="45.97625" lon="5.60169">
        <ele>795.6</ele>
        <time>2026-05-12T08:22:48Z</time>
      </trkpt>
      <trkpt lat="45.97623" lon="5.6017">
        <ele>796.2</ele>
        <time>2026-05-12T08:22:49Z</time>
      </trkpt>
      <trkpt lat="45.97622" lon="5.60171">
        <ele>796.6</ele>
        <time>2026-05-12T08:22:50Z</time>
      </trkpt>
      <trkpt lat="45.9762" lon="5.60173">
        <ele>796.8</ele>
        <time>2026-05-12T08:22:51Z</time>
      </trkpt>
      <trkpt lat="45.97619" lon="5.60174">
        <ele>797</ele>
        <time>2026-05-12T08:22:52Z</time>
      </trkpt>
      <trkpt lat="45.97617" lon="5.60175">
        <ele>797.4</ele>
        <time>2026-05-12T08:22:53Z</time>
      </trkpt>
      <trkpt lat="45.97616" lon="5.60175">
        <ele>797.6</ele>
        <time>2026-05-12T08:22:54Z</time>
      </trkpt>
      <trkpt lat="45.97614" lon="5.60176">
        <ele>797.8</ele>
        <time>2026-05-12T08:22:55Z</time>
      </trkpt>
      <trkpt lat="45.97613" lon="5.60176">
        <ele>797.8</ele>
        <time>2026-05-12T08:22:56Z</time>
      </trkpt>
      <trkpt lat="45.97611" lon="5.60177">
        <ele>798.2</ele>
        <time>2026-05-12T08:22:57Z</time>
      </trkpt>
      <trkpt lat="45.9761" lon="5.60178">
        <ele>798.2</ele>
        <time>2026-05-12T08:22:58Z</time>
      </trkpt>
      <trkpt lat="45.97609" lon="5.60178">
        <ele>798.4</ele>
        <time>2026-05-12T08:22:59Z</time>
      </trkpt>
      <trkpt lat="45.97608" lon="5.60178">
        <ele>798.6</ele>
        <time>2026-05-12T08:23:00Z</time>
      </trkpt>
      <trkpt lat="45.97606" lon="5.60179">
        <ele>799</ele>
        <time>2026-05-12T08:23:01Z</time>
      </trkpt>
      <trkpt lat="45.97605" lon="5.60179">
        <ele>799.2</ele>
        <time>2026-05-12T08:23:02Z</time>
      </trkpt>
      <trkpt lat="45.97604" lon="5.6018">
        <ele>799.4</ele>
        <time>2026-05-12T08:23:03Z</time>
      </trkpt>
      <trkpt lat="45.97603" lon="5.60181">
        <ele>799.6</ele>
        <time>2026-05-12T08:23:04Z</time>
      </trkpt>
      <trkpt lat="45.97602" lon="5.60183">
        <ele>799.6</ele>
        <time>2026-05-12T08:23:05Z</time>
      </trkpt>
      <trkpt lat="45.97601" lon="5.60185">
        <ele>800</ele>
        <time>2026-05-12T08:23:06Z</time>
      </trkpt>
      <trkpt lat="45.976" lon="5.60187">
        <ele>800.2</ele>
        <time>2026-05-12T08:23:07Z</time>
      </trkpt>
      <trkpt lat="45.97599" lon="5.60188">
        <ele>800.2</ele>
        <time>2026-05-12T08:23:08Z</time>
      </trkpt>
      <trkpt lat="45.97598" lon="5.60189">
        <ele>800.6</ele>
        <time>2026-05-12T08:23:09Z</time>
      </trkpt>
      <trkpt lat="45.97596" lon="5.60191">
        <ele>800.8</ele>
        <time>2026-05-12T08:23:10Z</time>
      </trkpt>
      <trkpt lat="45.97596" lon="5.60192">
        <ele>801</ele>
        <time>2026-05-12T08:23:11Z</time>
      </trkpt>
      <trkpt lat="45.97595" lon="5.60192">
        <ele>801.4</ele>
        <time>2026-05-12T08:23:12Z</time>
      </trkpt>
      <trkpt lat="45.97594" lon="5.60193">
        <ele>801.4</ele>
        <time>2026-05-12T08:23:13Z</time>
      </trkpt>
      <trkpt lat="45.97593" lon="5.60194">
        <ele>801.6</ele>
        <time>2026-05-12T08:23:14Z</time>
      </trkpt>
      <trkpt lat="45.97591" lon="5.60195">
        <ele>801.6</ele>
        <time>2026-05-12T08:23:15Z</time>
      </trkpt>
      <trkpt lat="45.9759" lon="5.60196">
        <ele>802</ele>
        <time>2026-05-12T08:23:16Z</time>
      </trkpt>
      <trkpt lat="45.97589" lon="5.60197">
        <ele>802</ele>
        <time>2026-05-12T08:23:17Z</time>
      </trkpt>
      <trkpt lat="45.97588" lon="5.60198">
        <ele>802.2</ele>
        <time>2026-05-12T08:23:18Z</time>
      </trkpt>
      <trkpt lat="45.97588" lon="5.60198">
        <ele>802.2</ele>
        <time>2026-05-12T08:23:19Z</time>
      </trkpt>
      <trkpt lat="45.97587" lon="5.60198">
        <ele>802.4</ele>
        <time>2026-05-12T08:23:20Z</time>
      </trkpt>
      <trkpt lat="45.97586" lon="5.60197">
        <ele>802.4</ele>
        <time>2026-05-12T08:23:23Z</time>
      </trkpt>
      <trkpt lat="45.97584" lon="5.60197">
        <ele>802.4</ele>
        <time>2026-05-12T08:23:24Z</time>
      </trkpt>
      <trkpt lat="45.97583" lon="5.60197">
        <ele>802.4</ele>
        <time>2026-05-12T08:23:25Z</time>
      </trkpt>
      <trkpt lat="45.97582" lon="5.60197">
        <ele>802.4</ele>
        <time>2026-05-12T08:23:26Z</time>
      </trkpt>
      <trkpt lat="45.97582" lon="5.60196">
        <ele>802.4</ele>
        <time>2026-05-12T08:23:27Z</time>
      </trkpt>
      <trkpt lat="45.97582" lon="5.60196">
        <ele>802.4</ele>
        <time>2026-05-12T08:23:28Z</time>
      </trkpt>
      <trkpt lat="45.97582" lon="5.60195">
        <ele>802.4</ele>
        <time>2026-05-12T08:23:29Z</time>
      </trkpt>
      <trkpt lat="45.97582" lon="5.60195">
        <ele>802.4</ele>
        <time>2026-05-12T08:23:30Z</time>
      </trkpt>
      <trkpt lat="45.97581" lon="5.60201">
        <ele>803</ele>
        <time>2026-05-12T08:27:09Z</time>
      </trkpt>
      <trkpt lat="45.97581" lon="5.60201">
        <ele>803</ele>
        <time>2026-05-12T08:27:10Z</time>
      </trkpt>
      <trkpt lat="45.97581" lon="5.60201">
        <ele>803</ele>
        <time>2026-05-12T08:27:11Z</time>
      </trkpt>
      <trkpt lat="45.97581" lon="5.60201">
        <ele>802.8</ele>
        <time>2026-05-12T08:27:12Z</time>
      </trkpt>
      <trkpt lat="45.97582" lon="5.60202">
        <ele>802.8</ele>
        <time>2026-05-12T08:27:14Z</time>
      </trkpt>
      <trkpt lat="45.97583" lon="5.60202">
        <ele>802.8</ele>
        <time>2026-05-12T08:27:15Z</time>
      </trkpt>
      <trkpt lat="45.97583" lon="5.60203">
        <ele>802.8</ele>
        <time>2026-05-12T08:27:16Z</time>
      </trkpt>
      <trkpt lat="45.97583" lon="5.60204">
        <ele>802.8</ele>
        <time>2026-05-12T08:27:17Z</time>
      </trkpt>
      <trkpt lat="45.97583" lon="5.60205">
        <ele>802.8</ele>
        <time>2026-05-12T08:27:18Z</time>
      </trkpt>
      <trkpt lat="45.97584" lon="5.60205">
        <ele>802.4</ele>
        <time>2026-05-12T08:27:19Z</time>
      </trkpt>
      <trkpt lat="45.97585" lon="5.60205">
        <ele>802.4</ele>
        <time>2026-05-12T08:27:23Z</time>
      </trkpt>
      <trkpt lat="45.97586" lon="5.60207">
        <ele>802.4</ele>
        <time>2026-05-12T08:27:24Z</time>
      </trkpt>
      <trkpt lat="45.97586" lon="5.60209">
        <ele>802.4</ele>
        <time>2026-05-12T08:27:25Z</time>
      </trkpt>
      <trkpt lat="45.97587" lon="5.60212">
        <ele>802.6</ele>
        <time>2026-05-12T08:27:26Z</time>
      </trkpt>
      <trkpt lat="45.97588" lon="5.60216">
        <ele>803</ele>
        <time>2026-05-12T08:27:27Z</time>
      </trkpt>
      <trkpt lat="45.9759" lon="5.60218">
        <ele>803.2</ele>
        <time>2026-05-12T08:27:28Z</time>
      </trkpt>
      <trkpt lat="45.97591" lon="5.60221">
        <ele>803.2</ele>
        <time>2026-05-12T08:27:29Z</time>
      </trkpt>
      <trkpt lat="45.97592" lon="5.60222">
        <ele>803.6</ele>
        <time>2026-05-12T08:27:30Z</time>
      </trkpt>
      <trkpt lat="45.97593" lon="5.60225">
        <ele>803.8</ele>
        <time>2026-05-12T08:27:31Z</time>
      </trkpt>
      <trkpt lat="45.97594" lon="5.60227">
        <ele>803.8</ele>
        <time>2026-05-12T08:27:32Z</time>
      </trkpt>
      <trkpt lat="45.97594" lon="5.6023">
        <ele>804.2</ele>
        <time>2026-05-12T08:27:33Z</time>
      </trkpt>
      <trkpt lat="45.97595" lon="5.60231">
        <ele>804.2</ele>
        <time>2026-05-12T08:27:34Z</time>
      </trkpt>
      <trkpt lat="45.97596" lon="5.60233">
        <ele>804.6</ele>
        <time>2026-05-12T08:27:35Z</time>
      </trkpt>
      <trkpt lat="45.97597" lon="5.60234">
        <ele>805</ele>
        <time>2026-05-12T08:27:36Z</time>
      </trkpt>
      <trkpt lat="45.97598" lon="5.60235">
        <ele>805.2</ele>
        <time>2026-05-12T08:27:37Z</time>
      </trkpt>
      <trkpt lat="45.97598" lon="5.60235">
        <ele>805.2</ele>
        <time>2026-05-12T08:27:38Z</time>
      </trkpt>
      <trkpt lat="45.976" lon="5.60239">
        <ele>805.6</ele>
        <time>2026-05-12T08:27:39Z</time>
      </trkpt>
      <trkpt lat="45.97601" lon="5.60241">
        <ele>805.8</ele>
        <time>2026-05-12T08:27:40Z</time>
      </trkpt>
      <trkpt lat="45.97602" lon="5.60243">
        <ele>805.8</ele>
        <time>2026-05-12T08:27:41Z</time>
      </trkpt>
      <trkpt lat="45.97603" lon="5.60245">
        <ele>806.2</ele>
        <time>2026-05-12T08:27:42Z</time>
      </trkpt>
      <trkpt lat="45.97604" lon="5.60247">
        <ele>806.2</ele>
        <time>2026-05-12T08:27:43Z</time>
      </trkpt>
      <trkpt lat="45.97604" lon="5.60248">
        <ele>806.6</ele>
        <time>2026-05-12T08:27:44Z</time>
      </trkpt>
      <trkpt lat="45.97605" lon="5.6025">
        <ele>806.8</ele>
        <time>2026-05-12T08:27:45Z</time>
      </trkpt>
      <trkpt lat="45.97605" lon="5.60252">
        <ele>807</ele>
        <time>2026-05-12T08:27:46Z</time>
      </trkpt>
      <trkpt lat="45.97606" lon="5.60253">
        <ele>807.2</ele>
        <time>2026-05-12T08:27:47Z</time>
      </trkpt>
      <trkpt lat="45.97607" lon="5.60255">
        <ele>807.4</ele>
        <time>2026-05-12T08:27:48Z</time>
      </trkpt>
      <trkpt lat="45.97608" lon="5.60256">
        <ele>807.8</ele>
        <time>2026-05-12T08:27:49Z</time>
      </trkpt>
      <trkpt lat="45.97608" lon="5.60258">
        <ele>808</ele>
        <time>2026-05-12T08:27:50Z</time>
      </trkpt>
      <trkpt lat="45.97609" lon="5.6026">
        <ele>808.4</ele>
        <time>2026-05-12T08:27:51Z</time>
      </trkpt>
      <trkpt lat="45.97609" lon="5.60263">
        <ele>808.6</ele>
        <time>2026-05-12T08:27:52Z</time>
      </trkpt>
      <trkpt lat="45.9761" lon="5.60264">
        <ele>809</ele>
        <time>2026-05-12T08:27:53Z</time>
      </trkpt>
      <trkpt lat="45.9761" lon="5.60266">
        <ele>809</ele>
        <time>2026-05-12T08:27:54Z</time>
      </trkpt>
      <trkpt lat="45.97611" lon="5.60268">
        <ele>809.4</ele>
        <time>2026-05-12T08:27:55Z</time>
      </trkpt>
      <trkpt lat="45.97612" lon="5.60269">
        <ele>809.6</ele>
        <time>2026-05-12T08:27:56Z</time>
      </trkpt>
      <trkpt lat="45.97614" lon="5.60271">
        <ele>809.6</ele>
        <time>2026-05-12T08:27:57Z</time>
      </trkpt>
      <trkpt lat="45.97615" lon="5.60273">
        <ele>810</ele>
        <time>2026-05-12T08:27:58Z</time>
      </trkpt>
      <trkpt lat="45.97616" lon="5.60275">
        <ele>810</ele>
        <time>2026-05-12T08:27:59Z</time>
      </trkpt>
      <trkpt lat="45.97617" lon="5.60277">
        <ele>810.4</ele>
        <time>2026-05-12T08:28:00Z</time>
      </trkpt>
      <trkpt lat="45.97618" lon="5.6028">
        <ele>810.4</ele>
        <time>2026-05-12T08:28:01Z</time>
      </trkpt>
      <trkpt lat="45.97619" lon="5.60282">
        <ele>810.8</ele>
        <time>2026-05-12T08:28:02Z</time>
      </trkpt>
      <trkpt lat="45.9762" lon="5.60283">
        <ele>811</ele>
        <time>2026-05-12T08:28:03Z</time>
      </trkpt>
      <trkpt lat="45.97621" lon="5.60285">
        <ele>811.2</ele>
        <time>2026-05-12T08:28:04Z</time>
      </trkpt>
      <trkpt lat="45.97622" lon="5.60287">
        <ele>811.6</ele>
        <time>2026-05-12T08:28:05Z</time>
      </trkpt>
      <trkpt lat="45.97622" lon="5.60288">
        <ele>811.6</ele>
        <time>2026-05-12T08:28:06Z</time>
      </trkpt>
      <trkpt lat="45.97623" lon="5.60289">
        <ele>811.8</ele>
        <time>2026-05-12T08:28:07Z</time>
      </trkpt>
      <trkpt lat="45.97624" lon="5.6029">
        <ele>812.2</ele>
        <time>2026-05-12T08:28:08Z</time>
      </trkpt>
      <trkpt lat="45.97624" lon="5.60291">
        <ele>812.4</ele>
        <time>2026-05-12T08:28:09Z</time>
      </trkpt>
      <trkpt lat="45.97624" lon="5.60293">
        <ele>812.6</ele>
        <time>2026-05-12T08:28:10Z</time>
      </trkpt>
      <trkpt lat="45.97625" lon="5.60294">
        <ele>812.6</ele>
        <time>2026-05-12T08:28:11Z</time>
      </trkpt>
      <trkpt lat="45.97626" lon="5.60295">
        <ele>813</ele>
        <time>2026-05-12T08:28:12Z</time>
      </trkpt>
      <trkpt lat="45.97627" lon="5.60297">
        <ele>813.2</ele>
        <time>2026-05-12T08:28:13Z</time>
      </trkpt>
      <trkpt lat="45.97628" lon="5.60298">
        <ele>813.2</ele>
        <time>2026-05-12T08:28:14Z</time>
      </trkpt>
      <trkpt lat="45.97628" lon="5.60299">
        <ele>813.6</ele>
        <time>2026-05-12T08:28:15Z</time>
      </trkpt>
      <trkpt lat="45.97629" lon="5.60301">
        <ele>814</ele>
        <time>2026-05-12T08:28:16Z</time>
      </trkpt>
      <trkpt lat="45.97629" lon="5.60302">
        <ele>814.2</ele>
        <time>2026-05-12T08:28:17Z</time>
      </trkpt>
      <trkpt lat="45.97629" lon="5.60303">
        <ele>814.4</ele>
        <time>2026-05-12T08:28:18Z</time>
      </trkpt>
      <trkpt lat="45.9763" lon="5.60304">
        <ele>814.8</ele>
        <time>2026-05-12T08:28:19Z</time>
      </trkpt>
      <trkpt lat="45.97632" lon="5.60305">
        <ele>815</ele>
        <time>2026-05-12T08:28:20Z</time>
      </trkpt>
      <trkpt lat="45.97633" lon="5.60308">
        <ele>815.4</ele>
        <time>2026-05-12T08:28:21Z</time>
      </trkpt>
      <trkpt lat="45.97633" lon="5.6031">
        <ele>815.6</ele>
        <time>2026-05-12T08:28:22Z</time>
      </trkpt>
      <trkpt lat="45.97633" lon="5.60312">
        <ele>815.6</ele>
        <time>2026-05-12T08:28:23Z</time>
      </trkpt>
      <trkpt lat="45.97634" lon="5.60315">
        <ele>816.2</ele>
        <time>2026-05-12T08:28:24Z</time>
      </trkpt>
      <trkpt lat="45.97634" lon="5.60316">
        <ele>816.2</ele>
        <time>2026-05-12T08:28:25Z</time>
      </trkpt>
      <trkpt lat="45.97635" lon="5.60318">
        <ele>816.2</ele>
        <time>2026-05-12T08:28:26Z</time>
      </trkpt>
      <trkpt lat="45.97636" lon="5.6032">
        <ele>816.2</ele>
        <time>2026-05-12T08:28:27Z</time>
      </trkpt>
      <trkpt lat="45.97637" lon="5.60322">
        <ele>816.4</ele>
        <time>2026-05-12T08:28:28Z</time>
      </trkpt>
      <trkpt lat="45.97638" lon="5.60323">
        <ele>816.6</ele>
        <time>2026-05-12T08:28:29Z</time>
      </trkpt>
      <trkpt lat="45.97639" lon="5.60325">
        <ele>816.8</ele>
        <time>2026-05-12T08:28:30Z</time>
      </trkpt>
      <trkpt lat="45.9764" lon="5.60326">
        <ele>816.8</ele>
        <time>2026-05-12T08:28:31Z</time>
      </trkpt>
      <trkpt lat="45.97641" lon="5.60327">
        <ele>816.8</ele>
        <time>2026-05-12T08:28:32Z</time>
      </trkpt>
      <trkpt lat="45.97641" lon="5.60328">
        <ele>817.2</ele>
        <time>2026-05-12T08:28:33Z</time>
      </trkpt>
      <trkpt lat="45.97642" lon="5.60329">
        <ele>817.2</ele>
        <time>2026-05-12T08:28:34Z</time>
      </trkpt>
      <trkpt lat="45.97643" lon="5.60331">
        <ele>817.6</ele>
        <time>2026-05-12T08:28:35Z</time>
      </trkpt>
      <trkpt lat="45.97643" lon="5.60333">
        <ele>817.8</ele>
        <time>2026-05-12T08:28:36Z</time>
      </trkpt>
      <trkpt lat="45.97644" lon="5.60336">
        <ele>817.8</ele>
        <time>2026-05-12T08:28:37Z</time>
      </trkpt>
      <trkpt lat="45.97645" lon="5.60337">
        <ele>818.2</ele>
        <time>2026-05-12T08:28:38Z</time>
      </trkpt>
      <trkpt lat="45.97646" lon="5.60339">
        <ele>818.2</ele>
        <time>2026-05-12T08:28:39Z</time>
      </trkpt>
      <trkpt lat="45.97647" lon="5.60341">
        <ele>818.6</ele>
        <time>2026-05-12T08:28:40Z</time>
      </trkpt>
      <trkpt lat="45.97648" lon="5.60342">
        <ele>819</ele>
        <time>2026-05-12T08:28:41Z</time>
      </trkpt>
      <trkpt lat="45.9765" lon="5.60344">
        <ele>819.2</ele>
        <time>2026-05-12T08:28:42Z</time>
      </trkpt>
      <trkpt lat="45.97651" lon="5.60345">
        <ele>819.4</ele>
        <time>2026-05-12T08:28:43Z</time>
      </trkpt>
      <trkpt lat="45.97652" lon="5.60346">
        <ele>819.6</ele>
        <time>2026-05-12T08:28:44Z</time>
      </trkpt>
      <trkpt lat="45.97654" lon="5.60347">
        <ele>819.6</ele>
        <time>2026-05-12T08:28:45Z</time>
      </trkpt>
      <trkpt lat="45.97655" lon="5.60348">
        <ele>820</ele>
        <time>2026-05-12T08:28:46Z</time>
      </trkpt>
      <trkpt lat="45.97656" lon="5.60349">
        <ele>820</ele>
        <time>2026-05-12T08:28:47Z</time>
      </trkpt>
      <trkpt lat="45.97658" lon="5.60351">
        <ele>820</ele>
        <time>2026-05-12T08:28:48Z</time>
      </trkpt>
      <trkpt lat="45.97659" lon="5.60352">
        <ele>820.2</ele>
        <time>2026-05-12T08:28:49Z</time>
      </trkpt>
      <trkpt lat="45.97661" lon="5.60354">
        <ele>820.2</ele>
        <time>2026-05-12T08:28:50Z</time>
      </trkpt>
      <trkpt lat="45.97662" lon="5.60355">
        <ele>820.2</ele>
        <time>2026-05-12T08:28:51Z</time>
      </trkpt>
      <trkpt lat="45.97662" lon="5.60358">
        <ele>820.2</ele>
        <time>2026-05-12T08:28:52Z</time>
      </trkpt>
      <trkpt lat="45.97664" lon="5.6036">
        <ele>820.6</ele>
        <time>2026-05-12T08:28:53Z</time>
      </trkpt>
      <trkpt lat="45.97665" lon="5.60362">
        <ele>820.6</ele>
        <time>2026-05-12T08:28:54Z</time>
      </trkpt>
      <trkpt lat="45.97666" lon="5.60364">
        <ele>820.8</ele>
        <time>2026-05-12T08:28:55Z</time>
      </trkpt>
      <trkpt lat="45.97667" lon="5.60365">
        <ele>820.8</ele>
        <time>2026-05-12T08:28:56Z</time>
      </trkpt>
      <trkpt lat="45.97669" lon="5.60367">
        <ele>821.2</ele>
        <time>2026-05-12T08:28:57Z</time>
      </trkpt>
      <trkpt lat="45.97669" lon="5.60367">
        <ele>821.2</ele>
        <time>2026-05-12T08:28:58Z</time>
      </trkpt>
      <trkpt lat="45.9767" lon="5.60369">
        <ele>821.6</ele>
        <time>2026-05-12T08:28:59Z</time>
      </trkpt>
      <trkpt lat="45.97671" lon="5.6037">
        <ele>821.6</ele>
        <time>2026-05-12T08:29:00Z</time>
      </trkpt>
      <trkpt lat="45.97672" lon="5.60371">
        <ele>821.6</ele>
        <time>2026-05-12T08:29:01Z</time>
      </trkpt>
      <trkpt lat="45.97673" lon="5.60373">
        <ele>821.6</ele>
        <time>2026-05-12T08:29:02Z</time>
      </trkpt>
      <trkpt lat="45.97675" lon="5.60375">
        <ele>821.8</ele>
        <time>2026-05-12T08:29:03Z</time>
      </trkpt>
      <trkpt lat="45.97676" lon="5.60376">
        <ele>821.8</ele>
        <time>2026-05-12T08:29:04Z</time>
      </trkpt>
      <trkpt lat="45.97678" lon="5.60377">
        <ele>821.8</ele>
        <time>2026-05-12T08:29:05Z</time>
      </trkpt>
      <trkpt lat="45.9768" lon="5.60378">
        <ele>821.8</ele>
        <time>2026-05-12T08:29:06Z</time>
      </trkpt>
      <trkpt lat="45.97681" lon="5.60379">
        <ele>822</ele>
        <time>2026-05-12T08:29:07Z</time>
      </trkpt>
      <trkpt lat="45.97682" lon="5.6038">
        <ele>822</ele>
        <time>2026-05-12T08:29:08Z</time>
      </trkpt>
      <trkpt lat="45.97684" lon="5.60381">
        <ele>822</ele>
        <time>2026-05-12T08:29:09Z</time>
      </trkpt>
      <trkpt lat="45.97686" lon="5.60382">
        <ele>822</ele>
        <time>2026-05-12T08:29:10Z</time>
      </trkpt>
      <trkpt lat="45.97688" lon="5.60382">
        <ele>822</ele>
        <time>2026-05-12T08:29:11Z</time>
      </trkpt>
      <trkpt lat="45.9769" lon="5.60382">
        <ele>822</ele>
        <time>2026-05-12T08:29:12Z</time>
      </trkpt>
      <trkpt lat="45.97692" lon="5.60382">
        <ele>822.2</ele>
        <time>2026-05-12T08:29:13Z</time>
      </trkpt>
      <trkpt lat="45.97694" lon="5.60382">
        <ele>822.2</ele>
        <time>2026-05-12T08:29:14Z</time>
      </trkpt>
      <trkpt lat="45.97696" lon="5.60383">
        <ele>822.4</ele>
        <time>2026-05-12T08:29:15Z</time>
      </trkpt>
      <trkpt lat="45.97698" lon="5.60383">
        <ele>822.4</ele>
        <time>2026-05-12T08:29:16Z</time>
      </trkpt>
      <trkpt lat="45.977" lon="5.60383">
        <ele>822.8</ele>
        <time>2026-05-12T08:29:17Z</time>
      </trkpt>
      <trkpt lat="45.97702" lon="5.60384">
        <ele>822.8</ele>
        <time>2026-05-12T08:29:18Z</time>
      </trkpt>
      <trkpt lat="45.97704" lon="5.60384">
        <ele>823.2</ele>
        <time>2026-05-12T08:29:19Z</time>
      </trkpt>
      <trkpt lat="45.97706" lon="5.60384">
        <ele>823.2</ele>
        <time>2026-05-12T08:29:20Z</time>
      </trkpt>
      <trkpt lat="45.97707" lon="5.60384">
        <ele>823.2</ele>
        <time>2026-05-12T08:29:21Z</time>
      </trkpt>
      <trkpt lat="45.97709" lon="5.60384">
        <ele>823.4</ele>
        <time>2026-05-12T08:29:22Z</time>
      </trkpt>
      <trkpt lat="45.97711" lon="5.60384">
        <ele>823.4</ele>
        <time>2026-05-12T08:29:23Z</time>
      </trkpt>
      <trkpt lat="45.97713" lon="5.60384">
        <ele>823.8</ele>
        <time>2026-05-12T08:29:24Z</time>
      </trkpt>
      <trkpt lat="45.97715" lon="5.60384">
        <ele>823.8</ele>
        <time>2026-05-12T08:29:25Z</time>
      </trkpt>
      <trkpt lat="45.97717" lon="5.60385">
        <ele>823.8</ele>
        <time>2026-05-12T08:29:26Z</time>
      </trkpt>
      <trkpt lat="45.97719" lon="5.60386">
        <ele>824</ele>
        <time>2026-05-12T08:29:27Z</time>
      </trkpt>
      <trkpt lat="45.97722" lon="5.60387">
        <ele>824</ele>
        <time>2026-05-12T08:29:28Z</time>
      </trkpt>
      <trkpt lat="45.97724" lon="5.60389">
        <ele>824</ele>
        <time>2026-05-12T08:29:29Z</time>
      </trkpt>
      <trkpt lat="45.97725" lon="5.60391">
        <ele>824</ele>
        <time>2026-05-12T08:29:30Z</time>
      </trkpt>
      <trkpt lat="45.97727" lon="5.60392">
        <ele>824</ele>
        <time>2026-05-12T08:29:31Z</time>
      </trkpt>
      <trkpt lat="45.97729" lon="5.60394">
        <ele>824</ele>
        <time>2026-05-12T08:29:32Z</time>
      </trkpt>
      <trkpt lat="45.97731" lon="5.60396">
        <ele>824</ele>
        <time>2026-05-12T08:29:33Z</time>
      </trkpt>
      <trkpt lat="45.97732" lon="5.60399">
        <ele>824.2</ele>
        <time>2026-05-12T08:29:34Z</time>
      </trkpt>
      <trkpt lat="45.97734" lon="5.60401">
        <ele>824.2</ele>
        <time>2026-05-12T08:29:35Z</time>
      </trkpt>
      <trkpt lat="45.97736" lon="5.60403">
        <ele>824.2</ele>
        <time>2026-05-12T08:29:36Z</time>
      </trkpt>
      <trkpt lat="45.97738" lon="5.60406">
        <ele>824.2</ele>
        <time>2026-05-12T08:29:37Z</time>
      </trkpt>
      <trkpt lat="45.9774" lon="5.60408">
        <ele>824.2</ele>
        <time>2026-05-12T08:29:38Z</time>
      </trkpt>
      <trkpt lat="45.97742" lon="5.60411">
        <ele>824.2</ele>
        <time>2026-05-12T08:29:39Z</time>
      </trkpt>
      <trkpt lat="45.97744" lon="5.60413">
        <ele>824.2</ele>
        <time>2026-05-12T08:29:40Z</time>
      </trkpt>
      <trkpt lat="45.97746" lon="5.60415">
        <ele>824.2</ele>
        <time>2026-05-12T08:29:41Z</time>
      </trkpt>
      <trkpt lat="45.97748" lon="5.60417">
        <ele>824.2</ele>
        <time>2026-05-12T08:29:42Z</time>
      </trkpt>
      <trkpt lat="45.9775" lon="5.6042">
        <ele>824.2</ele>
        <time>2026-05-12T08:29:43Z</time>
      </trkpt>
      <trkpt lat="45.97751" lon="5.60422">
        <ele>824.6</ele>
        <time>2026-05-12T08:29:44Z</time>
      </trkpt>
      <trkpt lat="45.97753" lon="5.60424">
        <ele>824.6</ele>
        <time>2026-05-12T08:29:45Z</time>
      </trkpt>
      <trkpt lat="45.97754" lon="5.60426">
        <ele>825.2</ele>
        <time>2026-05-12T08:29:46Z</time>
      </trkpt>
      <trkpt lat="45.97756" lon="5.60428">
        <ele>825.4</ele>
        <time>2026-05-12T08:29:47Z</time>
      </trkpt>
      <trkpt lat="45.97758" lon="5.6043">
        <ele>825.6</ele>
        <time>2026-05-12T08:29:48Z</time>
      </trkpt>
      <trkpt lat="45.97759" lon="5.60431">
        <ele>826.2</ele>
        <time>2026-05-12T08:29:49Z</time>
      </trkpt>
      <trkpt lat="45.97761" lon="5.60433">
        <ele>826.4</ele>
        <time>2026-05-12T08:29:50Z</time>
      </trkpt>
      <trkpt lat="45.97763" lon="5.60435">
        <ele>827</ele>
        <time>2026-05-12T08:29:51Z</time>
      </trkpt>
      <trkpt lat="45.97764" lon="5.60436">
        <ele>827</ele>
        <time>2026-05-12T08:29:52Z</time>
      </trkpt>
      <trkpt lat="45.97765" lon="5.60438">
        <ele>827</ele>
        <time>2026-05-12T08:29:53Z</time>
      </trkpt>
      <trkpt lat="45.97766" lon="5.6044">
        <ele>827</ele>
        <time>2026-05-12T08:29:54Z</time>
      </trkpt>
      <trkpt lat="45.97768" lon="5.60443">
        <ele>827</ele>
        <time>2026-05-12T08:29:55Z</time>
      </trkpt>
      <trkpt lat="45.97769" lon="5.60445">
        <ele>827.2</ele>
        <time>2026-05-12T08:29:56Z</time>
      </trkpt>
      <trkpt lat="45.9777" lon="5.60447">
        <ele>827.2</ele>
        <time>2026-05-12T08:29:57Z</time>
      </trkpt>
      <trkpt lat="45.97771" lon="5.60449">
        <ele>827.6</ele>
        <time>2026-05-12T08:29:58Z</time>
      </trkpt>
      <trkpt lat="45.97773" lon="5.60451">
        <ele>827.6</ele>
        <time>2026-05-12T08:29:59Z</time>
      </trkpt>
      <trkpt lat="45.97774" lon="5.60454">
        <ele>827.6</ele>
        <time>2026-05-12T08:30:00Z</time>
      </trkpt>
      <trkpt lat="45.97775" lon="5.60456">
        <ele>827.8</ele>
        <time>2026-05-12T08:30:01Z</time>
      </trkpt>
      <trkpt lat="45.97776" lon="5.60459">
        <ele>827.8</ele>
        <time>2026-05-12T08:30:02Z</time>
      </trkpt>
      <trkpt lat="45.97776" lon="5.60462">
        <ele>828.2</ele>
        <time>2026-05-12T08:30:03Z</time>
      </trkpt>
      <trkpt lat="45.97776" lon="5.60465">
        <ele>828.4</ele>
        <time>2026-05-12T08:30:04Z</time>
      </trkpt>
      <trkpt lat="45.97776" lon="5.60468">
        <ele>828.4</ele>
        <time>2026-05-12T08:30:05Z</time>
      </trkpt>
      <trkpt lat="45.97777" lon="5.60472">
        <ele>828.6</ele>
        <time>2026-05-12T08:30:06Z</time>
      </trkpt>
      <trkpt lat="45.97778" lon="5.60475">
        <ele>828.6</ele>
        <time>2026-05-12T08:30:07Z</time>
      </trkpt>
      <trkpt lat="45.97779" lon="5.60479">
        <ele>828.6</ele>
        <time>2026-05-12T08:30:08Z</time>
      </trkpt>
      <trkpt lat="45.9778" lon="5.60481">
        <ele>828.8</ele>
        <time>2026-05-12T08:30:09Z</time>
      </trkpt>
      <trkpt lat="45.97781" lon="5.60484">
        <ele>828.8</ele>
        <time>2026-05-12T08:30:10Z</time>
      </trkpt>
      <trkpt lat="45.97782" lon="5.60488">
        <ele>828.8</ele>
        <time>2026-05-12T08:30:11Z</time>
      </trkpt>
      <trkpt lat="45.97784" lon="5.6049">
        <ele>829</ele>
        <time>2026-05-12T08:30:12Z</time>
      </trkpt>
      <trkpt lat="45.97785" lon="5.60492">
        <ele>829</ele>
        <time>2026-05-12T08:30:13Z</time>
      </trkpt>
      <trkpt lat="45.97787" lon="5.60495">
        <ele>829</ele>
        <time>2026-05-12T08:30:14Z</time>
      </trkpt>
      <trkpt lat="45.97789" lon="5.60497">
        <ele>829</ele>
        <time>2026-05-12T08:30:15Z</time>
      </trkpt>
      <trkpt lat="45.9779" lon="5.60501">
        <ele>829</ele>
        <time>2026-05-12T08:30:16Z</time>
      </trkpt>
      <trkpt lat="45.97792" lon="5.60504">
        <ele>829</ele>
        <time>2026-05-12T08:30:17Z</time>
      </trkpt>
      <trkpt lat="45.97793" lon="5.60507">
        <ele>829</ele>
        <time>2026-05-12T08:30:18Z</time>
      </trkpt>
      <trkpt lat="45.97793" lon="5.60509">
        <ele>829</ele>
        <time>2026-05-12T08:30:19Z</time>
      </trkpt>
      <trkpt lat="45.97795" lon="5.60512">
        <ele>829</ele>
        <time>2026-05-12T08:30:20Z</time>
      </trkpt>
      <trkpt lat="45.97797" lon="5.60515">
        <ele>829</ele>
        <time>2026-05-12T08:30:21Z</time>
      </trkpt>
      <trkpt lat="45.97799" lon="5.60518">
        <ele>829</ele>
        <time>2026-05-12T08:30:22Z</time>
      </trkpt>
      <trkpt lat="45.97801" lon="5.60521">
        <ele>829</ele>
        <time>2026-05-12T08:30:23Z</time>
      </trkpt>
      <trkpt lat="45.97804" lon="5.60525">
        <ele>828.8</ele>
        <time>2026-05-12T08:30:24Z</time>
      </trkpt>
      <trkpt lat="45.97806" lon="5.60528">
        <ele>828.8</ele>
        <time>2026-05-12T08:30:25Z</time>
      </trkpt>
      <trkpt lat="45.97808" lon="5.60531">
        <ele>828.8</ele>
        <time>2026-05-12T08:30:26Z</time>
      </trkpt>
      <trkpt lat="45.97811" lon="5.60534">
        <ele>828.8</ele>
        <time>2026-05-12T08:30:27Z</time>
      </trkpt>
      <trkpt lat="45.97813" lon="5.60537">
        <ele>828.8</ele>
        <time>2026-05-12T08:30:28Z</time>
      </trkpt>
      <trkpt lat="45.97814" lon="5.6054">
        <ele>829.2</ele>
        <time>2026-05-12T08:30:29Z</time>
      </trkpt>
      <trkpt lat="45.97816" lon="5.60544">
        <ele>829.2</ele>
        <time>2026-05-12T08:30:30Z</time>
      </trkpt>
      <trkpt lat="45.97817" lon="5.60548">
        <ele>829.2</ele>
        <time>2026-05-12T08:30:31Z</time>
      </trkpt>
      <trkpt lat="45.97819" lon="5.60552">
        <ele>829.2</ele>
        <time>2026-05-12T08:30:32Z</time>
      </trkpt>
      <trkpt lat="45.9782" lon="5.60557">
        <ele>829.4</ele>
        <time>2026-05-12T08:30:33Z</time>
      </trkpt>
      <trkpt lat="45.97821" lon="5.60561">
        <ele>829.4</ele>
        <time>2026-05-12T08:30:34Z</time>
      </trkpt>
      <trkpt lat="45.97821" lon="5.60565">
        <ele>829.8</ele>
        <time>2026-05-12T08:30:35Z</time>
      </trkpt>
      <trkpt lat="45.97821" lon="5.6057">
        <ele>829.8</ele>
        <time>2026-05-12T08:30:36Z</time>
      </trkpt>
      <trkpt lat="45.97821" lon="5.60574">
        <ele>829.8</ele>
        <time>2026-05-12T08:30:37Z</time>
      </trkpt>
      <trkpt lat="45.9782" lon="5.60579">
        <ele>830</ele>
        <time>2026-05-12T08:30:38Z</time>
      </trkpt>
      <trkpt lat="45.9782" lon="5.60583">
        <ele>830.4</ele>
        <time>2026-05-12T08:30:39Z</time>
      </trkpt>
      <trkpt lat="45.9782" lon="5.60586">
        <ele>830.6</ele>
        <time>2026-05-12T08:30:40Z</time>
      </trkpt>
      <trkpt lat="45.9782" lon="5.6059">
        <ele>830.8</ele>
        <time>2026-05-12T08:30:41Z</time>
      </trkpt>
      <trkpt lat="45.9782" lon="5.60594">
        <ele>830.8</ele>
        <time>2026-05-12T08:30:42Z</time>
      </trkpt>
      <trkpt lat="45.9782" lon="5.60597">
        <ele>831</ele>
        <time>2026-05-12T08:30:43Z</time>
      </trkpt>
      <trkpt lat="45.9782" lon="5.60601">
        <ele>831.4</ele>
        <time>2026-05-12T08:30:44Z</time>
      </trkpt>
      <trkpt lat="45.9782" lon="5.60604">
        <ele>831.4</ele>
        <time>2026-05-12T08:30:45Z</time>
      </trkpt>
      <trkpt lat="45.9782" lon="5.60607">
        <ele>831.8</ele>
        <time>2026-05-12T08:30:46Z</time>
      </trkpt>
      <trkpt lat="45.97821" lon="5.60609">
        <ele>832</ele>
        <time>2026-05-12T08:30:47Z</time>
      </trkpt>
      <trkpt lat="45.97821" lon="5.60611">
        <ele>832</ele>
        <time>2026-05-12T08:30:48Z</time>
      </trkpt>
      <trkpt lat="45.97821" lon="5.60614">
        <ele>832.4</ele>
        <time>2026-05-12T08:30:49Z</time>
      </trkpt>
      <trkpt lat="45.97821" lon="5.60618">
        <ele>832.8</ele>
        <time>2026-05-12T08:30:50Z</time>
      </trkpt>
      <trkpt lat="45.9782" lon="5.6062">
        <ele>833</ele>
        <time>2026-05-12T08:30:51Z</time>
      </trkpt>
      <trkpt lat="45.9782" lon="5.60623">
        <ele>833.2</ele>
        <time>2026-05-12T08:30:52Z</time>
      </trkpt>
      <trkpt lat="45.9782" lon="5.60627">
        <ele>833.6</ele>
        <time>2026-05-12T08:30:53Z</time>
      </trkpt>
      <trkpt lat="45.9782" lon="5.60629">
        <ele>834</ele>
        <time>2026-05-12T08:30:54Z</time>
      </trkpt>
      <trkpt lat="45.9782" lon="5.60631">
        <ele>834.2</ele>
        <time>2026-05-12T08:30:55Z</time>
      </trkpt>
      <trkpt lat="45.97819" lon="5.60633">
        <ele>834.2</ele>
        <time>2026-05-12T08:30:56Z</time>
      </trkpt>
      <trkpt lat="45.97819" lon="5.60635">
        <ele>834.8</ele>
        <time>2026-05-12T08:30:57Z</time>
      </trkpt>
      <trkpt lat="45.97818" lon="5.60637">
        <ele>835</ele>
        <time>2026-05-12T08:30:58Z</time>
      </trkpt>
      <trkpt lat="45.97818" lon="5.6064">
        <ele>835.2</ele>
        <time>2026-05-12T08:30:59Z</time>
      </trkpt>
      <trkpt lat="45.97817" lon="5.60641">
        <ele>835.4</ele>
        <time>2026-05-12T08:31:00Z</time>
      </trkpt>
      <trkpt lat="45.97816" lon="5.60642">
        <ele>835.4</ele>
        <time>2026-05-12T08:31:01Z</time>
      </trkpt>
      <trkpt lat="45.97815" lon="5.60644">
        <ele>835.8</ele>
        <time>2026-05-12T08:31:02Z</time>
      </trkpt>
      <trkpt lat="45.97814" lon="5.60646">
        <ele>835.8</ele>
        <time>2026-05-12T08:31:03Z</time>
      </trkpt>
      <trkpt lat="45.97813" lon="5.60647">
        <ele>836</ele>
        <time>2026-05-12T08:31:04Z</time>
      </trkpt>
      <trkpt lat="45.97812" lon="5.6065">
        <ele>836.2</ele>
        <time>2026-05-12T08:31:05Z</time>
      </trkpt>
      <trkpt lat="45.9781" lon="5.60652">
        <ele>836.2</ele>
        <time>2026-05-12T08:31:06Z</time>
      </trkpt>
      <trkpt lat="45.97809" lon="5.60654">
        <ele>836.4</ele>
        <time>2026-05-12T08:31:07Z</time>
      </trkpt>
      <trkpt lat="45.97807" lon="5.60657">
        <ele>836.4</ele>
        <time>2026-05-12T08:31:08Z</time>
      </trkpt>
      <trkpt lat="45.97805" lon="5.60659">
        <ele>836.4</ele>
        <time>2026-05-12T08:31:09Z</time>
      </trkpt>
      <trkpt lat="45.97804" lon="5.60662">
        <ele>836.6</ele>
        <time>2026-05-12T08:31:10Z</time>
      </trkpt>
      <trkpt lat="45.97802" lon="5.60664">
        <ele>836.6</ele>
        <time>2026-05-12T08:31:11Z</time>
      </trkpt>
      <trkpt lat="45.978" lon="5.60667">
        <ele>837.2</ele>
        <time>2026-05-12T08:31:12Z</time>
      </trkpt>
      <trkpt lat="45.97798" lon="5.6067">
        <ele>837.2</ele>
        <time>2026-05-12T08:31:13Z</time>
      </trkpt>
      <trkpt lat="45.97797" lon="5.60672">
        <ele>837.2</ele>
        <time>2026-05-12T08:31:14Z</time>
      </trkpt>
      <trkpt lat="45.97795" lon="5.60675">
        <ele>837.4</ele>
        <time>2026-05-12T08:31:15Z</time>
      </trkpt>
      <trkpt lat="45.97794" lon="5.60678">
        <ele>837.6</ele>
        <time>2026-05-12T08:31:16Z</time>
      </trkpt>
      <trkpt lat="45.97792" lon="5.60681">
        <ele>837.8</ele>
        <time>2026-05-12T08:31:17Z</time>
      </trkpt>
      <trkpt lat="45.97791" lon="5.60684">
        <ele>838.2</ele>
        <time>2026-05-12T08:31:18Z</time>
      </trkpt>
      <trkpt lat="45.9779" lon="5.60686">
        <ele>838.2</ele>
        <time>2026-05-12T08:31:19Z</time>
      </trkpt>
      <trkpt lat="45.9779" lon="5.60689">
        <ele>838.4</ele>
        <time>2026-05-12T08:31:20Z</time>
      </trkpt>
      <trkpt lat="45.97789" lon="5.60691">
        <ele>838.4</ele>
        <time>2026-05-12T08:31:21Z</time>
      </trkpt>
      <trkpt lat="45.97789" lon="5.60694">
        <ele>838.4</ele>
        <time>2026-05-12T08:31:22Z</time>
      </trkpt>
      <trkpt lat="45.97788" lon="5.60697">
        <ele>838.4</ele>
        <time>2026-05-12T08:31:23Z</time>
      </trkpt>
      <trkpt lat="45.97788" lon="5.607">
        <ele>838.6</ele>
        <time>2026-05-12T08:31:24Z</time>
      </trkpt>
      <trkpt lat="45.97787" lon="5.60702">
        <ele>838.6</ele>
        <time>2026-05-12T08:31:25Z</time>
      </trkpt>
      <trkpt lat="45.97788" lon="5.60705">
        <ele>838.8</ele>
        <time>2026-05-12T08:31:26Z</time>
      </trkpt>
      <trkpt lat="45.97788" lon="5.60708">
        <ele>838.8</ele>
        <time>2026-05-12T08:31:27Z</time>
      </trkpt>
      <trkpt lat="45.97789" lon="5.60711">
        <ele>839.2</ele>
        <time>2026-05-12T08:31:28Z</time>
      </trkpt>
      <trkpt lat="45.97789" lon="5.60714">
        <ele>839.4</ele>
        <time>2026-05-12T08:31:29Z</time>
      </trkpt>
      <trkpt lat="45.9779" lon="5.60716">
        <ele>839.8</ele>
        <time>2026-05-12T08:31:30Z</time>
      </trkpt>
      <trkpt lat="45.97789" lon="5.60722">
        <ele>840</ele>
        <time>2026-05-12T08:31:31Z</time>
      </trkpt>
      <trkpt lat="45.9779" lon="5.60724">
        <ele>840.2</ele>
        <time>2026-05-12T08:31:32Z</time>
      </trkpt>
      <trkpt lat="45.9779" lon="5.60727">
        <ele>840.4</ele>
        <time>2026-05-12T08:31:33Z</time>
      </trkpt>
      <trkpt lat="45.9779" lon="5.60729">
        <ele>840.4</ele>
        <time>2026-05-12T08:31:34Z</time>
      </trkpt>
      <trkpt lat="45.97789" lon="5.60732">
        <ele>840.8</ele>
        <time>2026-05-12T08:31:35Z</time>
      </trkpt>
      <trkpt lat="45.97789" lon="5.60734">
        <ele>841</ele>
        <time>2026-05-12T08:31:36Z</time>
      </trkpt>
      <trkpt lat="45.9779" lon="5.60736">
        <ele>841</ele>
        <time>2026-05-12T08:31:37Z</time>
      </trkpt>
      <trkpt lat="45.9779" lon="5.60737">
        <ele>841.4</ele>
        <time>2026-05-12T08:31:38Z</time>
      </trkpt>
      <trkpt lat="45.9779" lon="5.60739">
        <ele>841.8</ele>
        <time>2026-05-12T08:31:39Z</time>
      </trkpt>
      <trkpt lat="45.9779" lon="5.60741">
        <ele>842</ele>
        <time>2026-05-12T08:31:40Z</time>
      </trkpt>
      <trkpt lat="45.9779" lon="5.60743">
        <ele>842</ele>
        <time>2026-05-12T08:31:41Z</time>
      </trkpt>
      <trkpt lat="45.97791" lon="5.60745">
        <ele>842.4</ele>
        <time>2026-05-12T08:31:42Z</time>
      </trkpt>
      <trkpt lat="45.9779" lon="5.60747">
        <ele>842.4</ele>
        <time>2026-05-12T08:31:43Z</time>
      </trkpt>
      <trkpt lat="45.9779" lon="5.60749">
        <ele>842.6</ele>
        <time>2026-05-12T08:31:44Z</time>
      </trkpt>
      <trkpt lat="45.9779" lon="5.60751">
        <ele>842.8</ele>
        <time>2026-05-12T08:31:45Z</time>
      </trkpt>
      <trkpt lat="45.97791" lon="5.60753">
        <ele>842.8</ele>
        <time>2026-05-12T08:31:46Z</time>
      </trkpt>
      <trkpt lat="45.97791" lon="5.60755">
        <ele>843.2</ele>
        <time>2026-05-12T08:31:47Z</time>
      </trkpt>
      <trkpt lat="45.97791" lon="5.60757">
        <ele>843.4</ele>
        <time>2026-05-12T08:31:48Z</time>
      </trkpt>
      <trkpt lat="45.97791" lon="5.60759">
        <ele>843.4</ele>
        <time>2026-05-12T08:31:49Z</time>
      </trkpt>
      <trkpt lat="45.97792" lon="5.60761">
        <ele>843.4</ele>
        <time>2026-05-12T08:31:50Z</time>
      </trkpt>
      <trkpt lat="45.97793" lon="5.60763">
        <ele>843.8</ele>
        <time>2026-05-12T08:31:51Z</time>
      </trkpt>
      <trkpt lat="45.97793" lon="5.60765">
        <ele>843.8</ele>
        <time>2026-05-12T08:31:52Z</time>
      </trkpt>
      <trkpt lat="45.97793" lon="5.60767">
        <ele>843.8</ele>
        <time>2026-05-12T08:31:53Z</time>
      </trkpt>
      <trkpt lat="45.97793" lon="5.6077">
        <ele>844.2</ele>
        <time>2026-05-12T08:31:54Z</time>
      </trkpt>
      <trkpt lat="45.97793" lon="5.60772">
        <ele>844.4</ele>
        <time>2026-05-12T08:31:55Z</time>
      </trkpt>
      <trkpt lat="45.97794" lon="5.60775">
        <ele>844.4</ele>
        <time>2026-05-12T08:31:56Z</time>
      </trkpt>
      <trkpt lat="45.97794" lon="5.60777">
        <ele>844.6</ele>
        <time>2026-05-12T08:31:57Z</time>
      </trkpt>
      <trkpt lat="45.97794" lon="5.60778">
        <ele>844.6</ele>
        <time>2026-05-12T08:31:58Z</time>
      </trkpt>
      <trkpt lat="45.97795" lon="5.60779">
        <ele>845</ele>
        <time>2026-05-12T08:31:59Z</time>
      </trkpt>
      <trkpt lat="45.97795" lon="5.60781">
        <ele>845.4</ele>
        <time>2026-05-12T08:32:00Z</time>
      </trkpt>
      <trkpt lat="45.97795" lon="5.60784">
        <ele>845.6</ele>
        <time>2026-05-12T08:32:01Z</time>
      </trkpt>
      <trkpt lat="45.97795" lon="5.60786">
        <ele>845.8</ele>
        <time>2026-05-12T08:32:02Z</time>
      </trkpt>
      <trkpt lat="45.97796" lon="5.60788">
        <ele>845.8</ele>
        <time>2026-05-12T08:32:03Z</time>
      </trkpt>
      <trkpt lat="45.97796" lon="5.60789">
        <ele>846.2</ele>
        <time>2026-05-12T08:32:04Z</time>
      </trkpt>
      <trkpt lat="45.97796" lon="5.60791">
        <ele>846.2</ele>
        <time>2026-05-12T08:32:05Z</time>
      </trkpt>
      <trkpt lat="45.97796" lon="5.60793">
        <ele>846.6</ele>
        <time>2026-05-12T08:32:06Z</time>
      </trkpt>
      <trkpt lat="45.97796" lon="5.60796">
        <ele>846.6</ele>
        <time>2026-05-12T08:32:07Z</time>
      </trkpt>
      <trkpt lat="45.97796" lon="5.60796">
        <ele>846.8</ele>
        <time>2026-05-12T08:32:08Z</time>
      </trkpt>
      <trkpt lat="45.97796" lon="5.60798">
        <ele>846.8</ele>
        <time>2026-05-12T08:32:09Z</time>
      </trkpt>
      <trkpt lat="45.97796" lon="5.608">
        <ele>847.2</ele>
        <time>2026-05-12T08:32:10Z</time>
      </trkpt>
      <trkpt lat="45.97796" lon="5.60802">
        <ele>847.2</ele>
        <time>2026-05-12T08:32:11Z</time>
      </trkpt>
      <trkpt lat="45.97797" lon="5.60804">
        <ele>847.4</ele>
        <time>2026-05-12T08:32:12Z</time>
      </trkpt>
      <trkpt lat="45.97797" lon="5.60806">
        <ele>847.4</ele>
        <time>2026-05-12T08:32:13Z</time>
      </trkpt>
      <trkpt lat="45.97797" lon="5.60809">
        <ele>847.8</ele>
        <time>2026-05-12T08:32:14Z</time>
      </trkpt>
      <trkpt lat="45.97797" lon="5.60811">
        <ele>848</ele>
        <time>2026-05-12T08:32:15Z</time>
      </trkpt>
      <trkpt lat="45.97797" lon="5.60813">
        <ele>848.4</ele>
        <time>2026-05-12T08:32:16Z</time>
      </trkpt>
      <trkpt lat="45.97798" lon="5.60815">
        <ele>848.6</ele>
        <time>2026-05-12T08:32:17Z</time>
      </trkpt>
      <trkpt lat="45.97799" lon="5.60817">
        <ele>848.8</ele>
        <time>2026-05-12T08:32:18Z</time>
      </trkpt>
      <trkpt lat="45.97799" lon="5.60818">
        <ele>849</ele>
        <time>2026-05-12T08:32:19Z</time>
      </trkpt>
      <trkpt lat="45.978" lon="5.6082">
        <ele>849.4</ele>
        <time>2026-05-12T08:32:20Z</time>
      </trkpt>
      <trkpt lat="45.97801" lon="5.60821">
        <ele>849.6</ele>
        <time>2026-05-12T08:32:21Z</time>
      </trkpt>
      <trkpt lat="45.97801" lon="5.60823">
        <ele>849.6</ele>
        <time>2026-05-12T08:32:22Z</time>
      </trkpt>
      <trkpt lat="45.97801" lon="5.60826">
        <ele>850</ele>
        <time>2026-05-12T08:32:23Z</time>
      </trkpt>
      <trkpt lat="45.97801" lon="5.60828">
        <ele>850</ele>
        <time>2026-05-12T08:32:24Z</time>
      </trkpt>
      <trkpt lat="45.97801" lon="5.6083">
        <ele>850.2</ele>
        <time>2026-05-12T08:32:25Z</time>
      </trkpt>
      <trkpt lat="45.97801" lon="5.60831">
        <ele>850.2</ele>
        <time>2026-05-12T08:32:26Z</time>
      </trkpt>
      <trkpt lat="45.97802" lon="5.60832">
        <ele>850.6</ele>
        <time>2026-05-12T08:32:27Z</time>
      </trkpt>
      <trkpt lat="45.97802" lon="5.60834">
        <ele>850.8</ele>
        <time>2026-05-12T08:32:28Z</time>
      </trkpt>
      <trkpt lat="45.97802" lon="5.60836">
        <ele>851</ele>
        <time>2026-05-12T08:32:29Z</time>
      </trkpt>
      <trkpt lat="45.97803" lon="5.60839">
        <ele>851</ele>
        <time>2026-05-12T08:32:30Z</time>
      </trkpt>
      <trkpt lat="45.97804" lon="5.6084">
        <ele>851.4</ele>
        <time>2026-05-12T08:32:31Z</time>
      </trkpt>
      <trkpt lat="45.97804" lon="5.60842">
        <ele>851.6</ele>
        <time>2026-05-12T08:32:32Z</time>
      </trkpt>
      <trkpt lat="45.97804" lon="5.60846">
        <ele>851.6</ele>
        <time>2026-05-12T08:32:33Z</time>
      </trkpt>
      <trkpt lat="45.97805" lon="5.60848">
        <ele>852</ele>
        <time>2026-05-12T08:32:34Z</time>
      </trkpt>
      <trkpt lat="45.97806" lon="5.6085">
        <ele>852.2</ele>
        <time>2026-05-12T08:32:35Z</time>
      </trkpt>
      <trkpt lat="45.97806" lon="5.60852">
        <ele>852.2</ele>
        <time>2026-05-12T08:32:36Z</time>
      </trkpt>
      <trkpt lat="45.97807" lon="5.60854">
        <ele>852.6</ele>
        <time>2026-05-12T08:32:37Z</time>
      </trkpt>
      <trkpt lat="45.97807" lon="5.60856">
        <ele>852.8</ele>
        <time>2026-05-12T08:32:38Z</time>
      </trkpt>
      <trkpt lat="45.97807" lon="5.60858">
        <ele>852.8</ele>
        <time>2026-05-12T08:32:39Z</time>
      </trkpt>
      <trkpt lat="45.97807" lon="5.60859">
        <ele>853</ele>
        <time>2026-05-12T08:32:40Z</time>
      </trkpt>
      <trkpt lat="45.97807" lon="5.60862">
        <ele>853</ele>
        <time>2026-05-12T08:32:41Z</time>
      </trkpt>
      <trkpt lat="45.97806" lon="5.60865">
        <ele>853.4</ele>
        <time>2026-05-12T08:32:42Z</time>
      </trkpt>
      <trkpt lat="45.97805" lon="5.60868">
        <ele>853.6</ele>
        <time>2026-05-12T08:32:43Z</time>
      </trkpt>
      <trkpt lat="45.97805" lon="5.6087">
        <ele>853.8</ele>
        <time>2026-05-12T08:32:44Z</time>
      </trkpt>
      <trkpt lat="45.97805" lon="5.60872">
        <ele>853.8</ele>
        <time>2026-05-12T08:32:45Z</time>
      </trkpt>
      <trkpt lat="45.97806" lon="5.60873">
        <ele>854</ele>
        <time>2026-05-12T08:32:46Z</time>
      </trkpt>
      <trkpt lat="45.97806" lon="5.60874">
        <ele>854.2</ele>
        <time>2026-05-12T08:32:47Z</time>
      </trkpt>
      <trkpt lat="45.97806" lon="5.60875">
        <ele>854.2</ele>
        <time>2026-05-12T08:32:48Z</time>
      </trkpt>
      <trkpt lat="45.97807" lon="5.60876">
        <ele>854.6</ele>
        <time>2026-05-12T08:32:49Z</time>
      </trkpt>
      <trkpt lat="45.97808" lon="5.60878">
        <ele>855</ele>
        <time>2026-05-12T08:32:50Z</time>
      </trkpt>
      <trkpt lat="45.97808" lon="5.60879">
        <ele>854.6</ele>
        <time>2026-05-12T08:32:51Z</time>
      </trkpt>
      <trkpt lat="45.97809" lon="5.60879">
        <ele>855</ele>
        <time>2026-05-12T08:32:52Z</time>
      </trkpt>
      <trkpt lat="45.97809" lon="5.6088">
        <ele>855</ele>
        <time>2026-05-12T08:32:53Z</time>
      </trkpt>
      <trkpt lat="45.9781" lon="5.60881">
        <ele>855.4</ele>
        <time>2026-05-12T08:32:54Z</time>
      </trkpt>
      <trkpt lat="45.9781" lon="5.60882">
        <ele>855.4</ele>
        <time>2026-05-12T08:32:55Z</time>
      </trkpt>
      <trkpt lat="45.9781" lon="5.60884">
        <ele>855.6</ele>
        <time>2026-05-12T08:32:56Z</time>
      </trkpt>
      <trkpt lat="45.97811" lon="5.60885">
        <ele>855.6</ele>
        <time>2026-05-12T08:32:57Z</time>
      </trkpt>
      <trkpt lat="45.97811" lon="5.60887">
        <ele>856</ele>
        <time>2026-05-12T08:32:58Z</time>
      </trkpt>
      <trkpt lat="45.97811" lon="5.60889">
        <ele>856.2</ele>
        <time>2026-05-12T08:32:59Z</time>
      </trkpt>
      <trkpt lat="45.97811" lon="5.6089">
        <ele>856.2</ele>
        <time>2026-05-12T08:33:00Z</time>
      </trkpt>
      <trkpt lat="45.97811" lon="5.60892">
        <ele>856.2</ele>
        <time>2026-05-12T08:33:01Z</time>
      </trkpt>
      <trkpt lat="45.97811" lon="5.60893">
        <ele>856.6</ele>
        <time>2026-05-12T08:33:02Z</time>
      </trkpt>
      <trkpt lat="45.97811" lon="5.60894">
        <ele>856.8</ele>
        <time>2026-05-12T08:33:03Z</time>
      </trkpt>
      <trkpt lat="45.97811" lon="5.60897">
        <ele>856.8</ele>
        <time>2026-05-12T08:33:04Z</time>
      </trkpt>
      <trkpt lat="45.97811" lon="5.60899">
        <ele>857.2</ele>
        <time>2026-05-12T08:33:05Z</time>
      </trkpt>
      <trkpt lat="45.97811" lon="5.609">
        <ele>857.4</ele>
        <time>2026-05-12T08:33:06Z</time>
      </trkpt>
      <trkpt lat="45.97811" lon="5.60901">
        <ele>857.6</ele>
        <time>2026-05-12T08:33:07Z</time>
      </trkpt>
      <trkpt lat="45.97811" lon="5.60901">
        <ele>857.6</ele>
        <time>2026-05-12T08:33:08Z</time>
      </trkpt>
      <trkpt lat="45.9781" lon="5.60903">
        <ele>858</ele>
        <time>2026-05-12T08:33:09Z</time>
      </trkpt>
      <trkpt lat="45.9781" lon="5.60904">
        <ele>858</ele>
        <time>2026-05-12T08:33:10Z</time>
      </trkpt>
      <trkpt lat="45.9781" lon="5.60904">
        <ele>858.4</ele>
        <time>2026-05-12T08:33:11Z</time>
      </trkpt>
      <trkpt lat="45.9781" lon="5.60904">
        <ele>858.6</ele>
        <time>2026-05-12T08:33:12Z</time>
      </trkpt>
      <trkpt lat="45.9781" lon="5.60906">
        <ele>858.6</ele>
        <time>2026-05-12T08:33:13Z</time>
      </trkpt>
      <trkpt lat="45.97809" lon="5.60908">
        <ele>858.8</ele>
        <time>2026-05-12T08:33:14Z</time>
      </trkpt>
      <trkpt lat="45.97809" lon="5.60911">
        <ele>859</ele>
        <time>2026-05-12T08:33:15Z</time>
      </trkpt>
      <trkpt lat="45.97809" lon="5.60913">
        <ele>859</ele>
        <time>2026-05-12T08:33:16Z</time>
      </trkpt>
      <trkpt lat="45.97809" lon="5.60916">
        <ele>859.2</ele>
        <time>2026-05-12T08:33:17Z</time>
      </trkpt>
      <trkpt lat="45.97808" lon="5.60918">
        <ele>859.2</ele>
        <time>2026-05-12T08:33:18Z</time>
      </trkpt>
      <trkpt lat="45.97808" lon="5.60921">
        <ele>859.6</ele>
        <time>2026-05-12T08:33:19Z</time>
      </trkpt>
      <trkpt lat="45.97808" lon="5.60923">
        <ele>860.2</ele>
        <time>2026-05-12T08:33:20Z</time>
      </trkpt>
      <trkpt lat="45.97808" lon="5.60925">
        <ele>860.2</ele>
        <time>2026-05-12T08:33:21Z</time>
      </trkpt>
      <trkpt lat="45.97807" lon="5.60928">
        <ele>860.4</ele>
        <time>2026-05-12T08:33:22Z</time>
      </trkpt>
      <trkpt lat="45.97807" lon="5.6093">
        <ele>860.6</ele>
        <time>2026-05-12T08:33:23Z</time>
      </trkpt>
      <trkpt lat="45.97807" lon="5.60932">
        <ele>860.6</ele>
        <time>2026-05-12T08:33:24Z</time>
      </trkpt>
      <trkpt lat="45.97807" lon="5.60934">
        <ele>861</ele>
        <time>2026-05-12T08:33:25Z</time>
      </trkpt>
      <trkpt lat="45.97807" lon="5.60935">
        <ele>861</ele>
        <time>2026-05-12T08:33:26Z</time>
      </trkpt>
      <trkpt lat="45.97806" lon="5.60936">
        <ele>861.2</ele>
        <time>2026-05-12T08:33:27Z</time>
      </trkpt>
      <trkpt lat="45.97806" lon="5.60937">
        <ele>861.4</ele>
        <time>2026-05-12T08:33:28Z</time>
      </trkpt>
      <trkpt lat="45.97807" lon="5.60939">
        <ele>861.4</ele>
        <time>2026-05-12T08:33:29Z</time>
      </trkpt>
      <trkpt lat="45.97807" lon="5.60941">
        <ele>861.4</ele>
        <time>2026-05-12T08:33:30Z</time>
      </trkpt>
      <trkpt lat="45.97807" lon="5.60943">
        <ele>861.8</ele>
        <time>2026-05-12T08:33:31Z</time>
      </trkpt>
      <trkpt lat="45.97807" lon="5.60945">
        <ele>862.2</ele>
        <time>2026-05-12T08:33:32Z</time>
      </trkpt>
      <trkpt lat="45.97807" lon="5.60948">
        <ele>862.2</ele>
        <time>2026-05-12T08:33:33Z</time>
      </trkpt>
      <trkpt lat="45.97807" lon="5.60949">
        <ele>862.4</ele>
        <time>2026-05-12T08:33:34Z</time>
      </trkpt>
      <trkpt lat="45.97807" lon="5.6095">
        <ele>862.4</ele>
        <time>2026-05-12T08:33:35Z</time>
      </trkpt>
      <trkpt lat="45.97807" lon="5.60952">
        <ele>863</ele>
        <time>2026-05-12T08:33:36Z</time>
      </trkpt>
      <trkpt lat="45.97807" lon="5.60955">
        <ele>863</ele>
        <time>2026-05-12T08:33:37Z</time>
      </trkpt>
      <trkpt lat="45.97807" lon="5.60956">
        <ele>863.2</ele>
        <time>2026-05-12T08:33:38Z</time>
      </trkpt>
      <trkpt lat="45.97806" lon="5.60957">
        <ele>863.4</ele>
        <time>2026-05-12T08:33:39Z</time>
      </trkpt>
      <trkpt lat="45.97804" lon="5.60959">
        <ele>863.4</ele>
        <time>2026-05-12T08:33:40Z</time>
      </trkpt>
      <trkpt lat="45.97804" lon="5.60959">
        <ele>863.8</ele>
        <time>2026-05-12T08:33:41Z</time>
      </trkpt>
      <trkpt lat="45.97804" lon="5.60962">
        <ele>863.8</ele>
        <time>2026-05-12T08:33:42Z</time>
      </trkpt>
      <trkpt lat="45.97804" lon="5.60965">
        <ele>864</ele>
        <time>2026-05-12T08:33:43Z</time>
      </trkpt>
      <trkpt lat="45.97805" lon="5.60967">
        <ele>864</ele>
        <time>2026-05-12T08:33:44Z</time>
      </trkpt>
      <trkpt lat="45.97804" lon="5.60969">
        <ele>864.4</ele>
        <time>2026-05-12T08:33:45Z</time>
      </trkpt>
      <trkpt lat="45.97804" lon="5.6097">
        <ele>864.8</ele>
        <time>2026-05-12T08:33:46Z</time>
      </trkpt>
      <trkpt lat="45.97804" lon="5.60972">
        <ele>864.8</ele>
        <time>2026-05-12T08:33:47Z</time>
      </trkpt>
      <trkpt lat="45.97803" lon="5.60974">
        <ele>865</ele>
        <time>2026-05-12T08:33:48Z</time>
      </trkpt>
      <trkpt lat="45.97803" lon="5.60976">
        <ele>865.2</ele>
        <time>2026-05-12T08:33:49Z</time>
      </trkpt>
      <trkpt lat="45.97803" lon="5.60978">
        <ele>865.2</ele>
        <time>2026-05-12T08:33:50Z</time>
      </trkpt>
      <trkpt lat="45.97802" lon="5.60981">
        <ele>865.2</ele>
        <time>2026-05-12T08:33:51Z</time>
      </trkpt>
      <trkpt lat="45.97802" lon="5.60983">
        <ele>865.2</ele>
        <time>2026-05-12T08:33:52Z</time>
      </trkpt>
      <trkpt lat="45.97802" lon="5.60985">
        <ele>865.8</ele>
        <time>2026-05-12T08:33:53Z</time>
      </trkpt>
      <trkpt lat="45.97802" lon="5.60987">
        <ele>865.8</ele>
        <time>2026-05-12T08:33:54Z</time>
      </trkpt>
      <trkpt lat="45.97803" lon="5.60989">
        <ele>865.8</ele>
        <time>2026-05-12T08:33:55Z</time>
      </trkpt>
      <trkpt lat="45.97803" lon="5.60991">
        <ele>865.8</ele>
        <time>2026-05-12T08:33:56Z</time>
      </trkpt>
      <trkpt lat="45.97804" lon="5.60992">
        <ele>866.2</ele>
        <time>2026-05-12T08:33:57Z</time>
      </trkpt>
      <trkpt lat="45.97804" lon="5.60994">
        <ele>866.2</ele>
        <time>2026-05-12T08:33:58Z</time>
      </trkpt>
      <trkpt lat="45.97804" lon="5.60996">
        <ele>866.2</ele>
        <time>2026-05-12T08:33:59Z</time>
      </trkpt>
      <trkpt lat="45.97805" lon="5.60998">
        <ele>866.2</ele>
        <time>2026-05-12T08:34:00Z</time>
      </trkpt>
      <trkpt lat="45.97805" lon="5.61001">
        <ele>866.6</ele>
        <time>2026-05-12T08:34:01Z</time>
      </trkpt>
      <trkpt lat="45.97805" lon="5.61002">
        <ele>866.6</ele>
        <time>2026-05-12T08:34:02Z</time>
      </trkpt>
      <trkpt lat="45.97805" lon="5.61003">
        <ele>866.8</ele>
        <time>2026-05-12T08:34:03Z</time>
      </trkpt>
      <trkpt lat="45.97804" lon="5.61005">
        <ele>866.8</ele>
        <time>2026-05-12T08:34:04Z</time>
      </trkpt>
      <trkpt lat="45.97803" lon="5.61007">
        <ele>867.2</ele>
        <time>2026-05-12T08:34:05Z</time>
      </trkpt>
      <trkpt lat="45.97803" lon="5.61009">
        <ele>867.2</ele>
        <time>2026-05-12T08:34:06Z</time>
      </trkpt>
      <trkpt lat="45.97803" lon="5.61011">
        <ele>867.4</ele>
        <time>2026-05-12T08:34:07Z</time>
      </trkpt>
      <trkpt lat="45.97804" lon="5.61012">
        <ele>867.4</ele>
        <time>2026-05-12T08:34:08Z</time>
      </trkpt>
      <trkpt lat="45.97804" lon="5.61014">
        <ele>867.8</ele>
        <time>2026-05-12T08:34:09Z</time>
      </trkpt>
      <trkpt lat="45.97805" lon="5.61017">
        <ele>868</ele>
        <time>2026-05-12T08:34:10Z</time>
      </trkpt>
      <trkpt lat="45.97804" lon="5.61019">
        <ele>868</ele>
        <time>2026-05-12T08:34:11Z</time>
      </trkpt>
      <trkpt lat="45.97804" lon="5.61021">
        <ele>868</ele>
        <time>2026-05-12T08:34:12Z</time>
      </trkpt>
      <trkpt lat="45.97804" lon="5.61023">
        <ele>868.2</ele>
        <time>2026-05-12T08:34:13Z</time>
      </trkpt>
      <trkpt lat="45.97805" lon="5.61025">
        <ele>868.2</ele>
        <time>2026-05-12T08:34:14Z</time>
      </trkpt>
      <trkpt lat="45.97806" lon="5.61027">
        <ele>868.6</ele>
        <time>2026-05-12T08:34:15Z</time>
      </trkpt>
      <trkpt lat="45.97806" lon="5.61028">
        <ele>868.8</ele>
        <time>2026-05-12T08:34:16Z</time>
      </trkpt>
      <trkpt lat="45.97806" lon="5.6103">
        <ele>868.8</ele>
        <time>2026-05-12T08:34:17Z</time>
      </trkpt>
      <trkpt lat="45.97806" lon="5.61032">
        <ele>869.2</ele>
        <time>2026-05-12T08:34:18Z</time>
      </trkpt>
      <trkpt lat="45.97805" lon="5.61034">
        <ele>869.2</ele>
        <time>2026-05-12T08:34:19Z</time>
      </trkpt>
      <trkpt lat="45.97805" lon="5.61034">
        <ele>869.4</ele>
        <time>2026-05-12T08:34:20Z</time>
      </trkpt>
      <trkpt lat="45.97804" lon="5.61036">
        <ele>869.4</ele>
        <time>2026-05-12T08:34:21Z</time>
      </trkpt>
      <trkpt lat="45.97804" lon="5.61038">
        <ele>869.4</ele>
        <time>2026-05-12T08:34:22Z</time>
      </trkpt>
      <trkpt lat="45.97803" lon="5.61041">
        <ele>869.6</ele>
        <time>2026-05-12T08:34:23Z</time>
      </trkpt>
      <trkpt lat="45.97803" lon="5.61043">
        <ele>870</ele>
        <time>2026-05-12T08:34:24Z</time>
      </trkpt>
      <trkpt lat="45.97803" lon="5.61044">
        <ele>870</ele>
        <time>2026-05-12T08:34:25Z</time>
      </trkpt>
      <trkpt lat="45.97803" lon="5.61046">
        <ele>870.2</ele>
        <time>2026-05-12T08:34:26Z</time>
      </trkpt>
      <trkpt lat="45.97803" lon="5.61048">
        <ele>870.2</ele>
        <time>2026-05-12T08:34:27Z</time>
      </trkpt>
      <trkpt lat="45.97803" lon="5.61049">
        <ele>870.4</ele>
        <time>2026-05-12T08:34:28Z</time>
      </trkpt>
      <trkpt lat="45.97803" lon="5.6105">
        <ele>870.4</ele>
        <time>2026-05-12T08:34:29Z</time>
      </trkpt>
      <trkpt lat="45.97803" lon="5.61052">
        <ele>870.8</ele>
        <time>2026-05-12T08:34:30Z</time>
      </trkpt>
      <trkpt lat="45.97804" lon="5.61054">
        <ele>871</ele>
        <time>2026-05-12T08:34:31Z</time>
      </trkpt>
      <trkpt lat="45.97804" lon="5.61056">
        <ele>871</ele>
        <time>2026-05-12T08:34:32Z</time>
      </trkpt>
      <trkpt lat="45.97804" lon="5.61058">
        <ele>871.4</ele>
        <time>2026-05-12T08:34:33Z</time>
      </trkpt>
      <trkpt lat="45.97803" lon="5.61059">
        <ele>871.4</ele>
        <time>2026-05-12T08:34:34Z</time>
      </trkpt>
      <trkpt lat="45.97803" lon="5.61061">
        <ele>871.4</ele>
        <time>2026-05-12T08:34:35Z</time>
      </trkpt>
      <trkpt lat="45.97802" lon="5.61063">
        <ele>871.6</ele>
        <time>2026-05-12T08:34:36Z</time>
      </trkpt>
      <trkpt lat="45.97802" lon="5.61066">
        <ele>871.8</ele>
        <time>2026-05-12T08:34:37Z</time>
      </trkpt>
      <trkpt lat="45.97801" lon="5.61068">
        <ele>871.8</ele>
        <time>2026-05-12T08:34:38Z</time>
      </trkpt>
      <trkpt lat="45.97801" lon="5.6107">
        <ele>871.8</ele>
        <time>2026-05-12T08:34:39Z</time>
      </trkpt>
      <trkpt lat="45.97801" lon="5.61072">
        <ele>872.2</ele>
        <time>2026-05-12T08:34:40Z</time>
      </trkpt>
      <trkpt lat="45.97802" lon="5.61074">
        <ele>872.2</ele>
        <time>2026-05-12T08:34:41Z</time>
      </trkpt>
      <trkpt lat="45.97802" lon="5.61076">
        <ele>872.4</ele>
        <time>2026-05-12T08:34:42Z</time>
      </trkpt>
      <trkpt lat="45.97803" lon="5.61078">
        <ele>872.4</ele>
        <time>2026-05-12T08:34:43Z</time>
      </trkpt>
      <trkpt lat="45.97803" lon="5.6108">
        <ele>872.6</ele>
        <time>2026-05-12T08:34:44Z</time>
      </trkpt>
      <trkpt lat="45.97803" lon="5.61082">
        <ele>872.8</ele>
        <time>2026-05-12T08:34:45Z</time>
      </trkpt>
      <trkpt lat="45.97802" lon="5.61085">
        <ele>872.8</ele>
        <time>2026-05-12T08:34:46Z</time>
      </trkpt>
      <trkpt lat="45.97802" lon="5.61087">
        <ele>873.2</ele>
        <time>2026-05-12T08:34:47Z</time>
      </trkpt>
      <trkpt lat="45.97802" lon="5.61088">
        <ele>873.2</ele>
        <time>2026-05-12T08:34:48Z</time>
      </trkpt>
      <trkpt lat="45.97802" lon="5.6109">
        <ele>873.4</ele>
        <time>2026-05-12T08:34:49Z</time>
      </trkpt>
      <trkpt lat="45.97802" lon="5.61092">
        <ele>873.4</ele>
        <time>2026-05-12T08:34:50Z</time>
      </trkpt>
      <trkpt lat="45.97802" lon="5.61094">
        <ele>873.6</ele>
        <time>2026-05-12T08:34:51Z</time>
      </trkpt>
      <trkpt lat="45.97801" lon="5.61097">
        <ele>874</ele>
        <time>2026-05-12T08:34:52Z</time>
      </trkpt>
      <trkpt lat="45.97801" lon="5.61099">
        <ele>874</ele>
        <time>2026-05-12T08:34:53Z</time>
      </trkpt>
      <trkpt lat="45.97801" lon="5.611">
        <ele>874.2</ele>
        <time>2026-05-12T08:34:54Z</time>
      </trkpt>
      <trkpt lat="45.97801" lon="5.61102">
        <ele>874.2</ele>
        <time>2026-05-12T08:34:55Z</time>
      </trkpt>
      <trkpt lat="45.97801" lon="5.61105">
        <ele>874.4</ele>
        <time>2026-05-12T08:34:56Z</time>
      </trkpt>
      <trkpt lat="45.978" lon="5.61107">
        <ele>874.8</ele>
        <time>2026-05-12T08:34:57Z</time>
      </trkpt>
      <trkpt lat="45.978" lon="5.61109">
        <ele>875</ele>
        <time>2026-05-12T08:34:58Z</time>
      </trkpt>
      <trkpt lat="45.978" lon="5.6111">
        <ele>875</ele>
        <time>2026-05-12T08:34:59Z</time>
      </trkpt>
      <trkpt lat="45.978" lon="5.61111">
        <ele>875</ele>
        <time>2026-05-12T08:35:00Z</time>
      </trkpt>
      <trkpt lat="45.978" lon="5.61113">
        <ele>875.4</ele>
        <time>2026-05-12T08:35:01Z</time>
      </trkpt>
      <trkpt lat="45.978" lon="5.61116">
        <ele>875.4</ele>
        <time>2026-05-12T08:35:02Z</time>
      </trkpt>
      <trkpt lat="45.97799" lon="5.61118">
        <ele>875.6</ele>
        <time>2026-05-12T08:35:03Z</time>
      </trkpt>
      <trkpt lat="45.97799" lon="5.6112">
        <ele>875.6</ele>
        <time>2026-05-12T08:35:04Z</time>
      </trkpt>
      <trkpt lat="45.97799" lon="5.61122">
        <ele>876</ele>
        <time>2026-05-12T08:35:05Z</time>
      </trkpt>
      <trkpt lat="45.97799" lon="5.61124">
        <ele>876</ele>
        <time>2026-05-12T08:35:06Z</time>
      </trkpt>
      <trkpt lat="45.97798" lon="5.61126">
        <ele>876</ele>
        <time>2026-05-12T08:35:07Z</time>
      </trkpt>
      <trkpt lat="45.97798" lon="5.61128">
        <ele>876.4</ele>
        <time>2026-05-12T08:35:08Z</time>
      </trkpt>
      <trkpt lat="45.97797" lon="5.6113">
        <ele>876.4</ele>
        <time>2026-05-12T08:35:09Z</time>
      </trkpt>
      <trkpt lat="45.97797" lon="5.61132">
        <ele>876.8</ele>
        <time>2026-05-12T08:35:10Z</time>
      </trkpt>
      <trkpt lat="45.97796" lon="5.61134">
        <ele>876.8</ele>
        <time>2026-05-12T08:35:11Z</time>
      </trkpt>
      <trkpt lat="45.97795" lon="5.61135">
        <ele>877.2</ele>
        <time>2026-05-12T08:35:12Z</time>
      </trkpt>
      <trkpt lat="45.97794" lon="5.61137">
        <ele>877.2</ele>
        <time>2026-05-12T08:35:13Z</time>
      </trkpt>
      <trkpt lat="45.97793" lon="5.61139">
        <ele>877.2</ele>
        <time>2026-05-12T08:35:14Z</time>
      </trkpt>
      <trkpt lat="45.97793" lon="5.61141">
        <ele>877.4</ele>
        <time>2026-05-12T08:35:15Z</time>
      </trkpt>
      <trkpt lat="45.97792" lon="5.61143">
        <ele>877.4</ele>
        <time>2026-05-12T08:35:16Z</time>
      </trkpt>
      <trkpt lat="45.97791" lon="5.61144">
        <ele>877.4</ele>
        <time>2026-05-12T08:35:17Z</time>
      </trkpt>
      <trkpt lat="45.9779" lon="5.61146">
        <ele>877.6</ele>
        <time>2026-05-12T08:35:18Z</time>
      </trkpt>
      <trkpt lat="45.97788" lon="5.61147">
        <ele>877.6</ele>
        <time>2026-05-12T08:35:19Z</time>
      </trkpt>
      <trkpt lat="45.97787" lon="5.61148">
        <ele>877.6</ele>
        <time>2026-05-12T08:35:20Z</time>
      </trkpt>
      <trkpt lat="45.97787" lon="5.6115">
        <ele>878</ele>
        <time>2026-05-12T08:35:21Z</time>
      </trkpt>
      <trkpt lat="45.97786" lon="5.61152">
        <ele>878</ele>
        <time>2026-05-12T08:35:22Z</time>
      </trkpt>
      <trkpt lat="45.97785" lon="5.61154">
        <ele>878.2</ele>
        <time>2026-05-12T08:35:23Z</time>
      </trkpt>
      <trkpt lat="45.97784" lon="5.61156">
        <ele>878.2</ele>
        <time>2026-05-12T08:35:24Z</time>
      </trkpt>
      <trkpt lat="45.97784" lon="5.61158">
        <ele>878.4</ele>
        <time>2026-05-12T08:35:25Z</time>
      </trkpt>
      <trkpt lat="45.97783" lon="5.6116">
        <ele>878.8</ele>
        <time>2026-05-12T08:35:26Z</time>
      </trkpt>
      <trkpt lat="45.97782" lon="5.61161">
        <ele>878.8</ele>
        <time>2026-05-12T08:35:27Z</time>
      </trkpt>
      <trkpt lat="45.97782" lon="5.61163">
        <ele>879</ele>
        <time>2026-05-12T08:35:28Z</time>
      </trkpt>
      <trkpt lat="45.97781" lon="5.61166">
        <ele>879.2</ele>
        <time>2026-05-12T08:35:29Z</time>
      </trkpt>
      <trkpt lat="45.97781" lon="5.61169">
        <ele>879.2</ele>
        <time>2026-05-12T08:35:30Z</time>
      </trkpt>
      <trkpt lat="45.9778" lon="5.61172">
        <ele>879.2</ele>
        <time>2026-05-12T08:35:31Z</time>
      </trkpt>
      <trkpt lat="45.97779" lon="5.61175">
        <ele>879.6</ele>
        <time>2026-05-12T08:35:32Z</time>
      </trkpt>
      <trkpt lat="45.97778" lon="5.61178">
        <ele>879.6</ele>
        <time>2026-05-12T08:35:33Z</time>
      </trkpt>
      <trkpt lat="45.97778" lon="5.61181">
        <ele>879.8</ele>
        <time>2026-05-12T08:35:34Z</time>
      </trkpt>
      <trkpt lat="45.97777" lon="5.61183">
        <ele>879.8</ele>
        <time>2026-05-12T08:35:35Z</time>
      </trkpt>
      <trkpt lat="45.97777" lon="5.61186">
        <ele>879.8</ele>
        <time>2026-05-12T08:35:36Z</time>
      </trkpt>
      <trkpt lat="45.97776" lon="5.61189">
        <ele>879.8</ele>
        <time>2026-05-12T08:35:37Z</time>
      </trkpt>
      <trkpt lat="45.97776" lon="5.61192">
        <ele>880.2</ele>
        <time>2026-05-12T08:35:38Z</time>
      </trkpt>
      <trkpt lat="45.97775" lon="5.61194">
        <ele>880.2</ele>
        <time>2026-05-12T08:35:39Z</time>
      </trkpt>
      <trkpt lat="45.97775" lon="5.61195">
        <ele>880.2</ele>
        <time>2026-05-12T08:35:40Z</time>
      </trkpt>
      <trkpt lat="45.97774" lon="5.61198">
        <ele>880.2</ele>
        <time>2026-05-12T08:35:41Z</time>
      </trkpt>
      <trkpt lat="45.97773" lon="5.612">
        <ele>880.6</ele>
        <time>2026-05-12T08:35:42Z</time>
      </trkpt>
      <trkpt lat="45.97773" lon="5.61202">
        <ele>881</ele>
        <time>2026-05-12T08:35:43Z</time>
      </trkpt>
      <trkpt lat="45.97773" lon="5.61205">
        <ele>881</ele>
        <time>2026-05-12T08:35:44Z</time>
      </trkpt>
      <trkpt lat="45.97773" lon="5.61208">
        <ele>881</ele>
        <time>2026-05-12T08:35:45Z</time>
      </trkpt>
      <trkpt lat="45.97772" lon="5.6121">
        <ele>881</ele>
        <time>2026-05-12T08:35:46Z</time>
      </trkpt>
      <trkpt lat="45.97772" lon="5.61212">
        <ele>881.2</ele>
        <time>2026-05-12T08:35:47Z</time>
      </trkpt>
      <trkpt lat="45.97772" lon="5.61214">
        <ele>881.2</ele>
        <time>2026-05-12T08:35:48Z</time>
      </trkpt>
      <trkpt lat="45.97771" lon="5.61217">
        <ele>881.2</ele>
        <time>2026-05-12T08:35:49Z</time>
      </trkpt>
      <trkpt lat="45.97771" lon="5.61219">
        <ele>881.2</ele>
        <time>2026-05-12T08:35:50Z</time>
      </trkpt>
      <trkpt lat="45.97771" lon="5.61222">
        <ele>881.2</ele>
        <time>2026-05-12T08:35:51Z</time>
      </trkpt>
      <trkpt lat="45.97771" lon="5.61224">
        <ele>881.4</ele>
        <time>2026-05-12T08:35:52Z</time>
      </trkpt>
      <trkpt lat="45.97771" lon="5.61226">
        <ele>881.4</ele>
        <time>2026-05-12T08:35:53Z</time>
      </trkpt>
      <trkpt lat="45.97771" lon="5.61229">
        <ele>881.8</ele>
        <time>2026-05-12T08:35:54Z</time>
      </trkpt>
      <trkpt lat="45.97771" lon="5.61232">
        <ele>881.8</ele>
        <time>2026-05-12T08:35:55Z</time>
      </trkpt>
      <trkpt lat="45.97771" lon="5.61234">
        <ele>882</ele>
        <time>2026-05-12T08:35:56Z</time>
      </trkpt>
      <trkpt lat="45.97771" lon="5.61236">
        <ele>882</ele>
        <time>2026-05-12T08:35:57Z</time>
      </trkpt>
      <trkpt lat="45.97771" lon="5.61238">
        <ele>882.2</ele>
        <time>2026-05-12T08:35:58Z</time>
      </trkpt>
      <trkpt lat="45.9777" lon="5.61239">
        <ele>882.2</ele>
        <time>2026-05-12T08:35:59Z</time>
      </trkpt>
      <trkpt lat="45.9777" lon="5.61242">
        <ele>882.4</ele>
        <time>2026-05-12T08:36:00Z</time>
      </trkpt>
      <trkpt lat="45.97769" lon="5.61244">
        <ele>882.4</ele>
        <time>2026-05-12T08:36:01Z</time>
      </trkpt>
      <trkpt lat="45.97769" lon="5.61246">
        <ele>882.8</ele>
        <time>2026-05-12T08:36:02Z</time>
      </trkpt>
      <trkpt lat="45.97769" lon="5.6125">
        <ele>882.8</ele>
        <time>2026-05-12T08:36:03Z</time>
      </trkpt>
      <trkpt lat="45.97769" lon="5.61253">
        <ele>882.8</ele>
        <time>2026-05-12T08:36:04Z</time>
      </trkpt>
      <trkpt lat="45.97769" lon="5.61255">
        <ele>882.8</ele>
        <time>2026-05-12T08:36:05Z</time>
      </trkpt>
      <trkpt lat="45.97769" lon="5.61256">
        <ele>883</ele>
        <time>2026-05-12T08:36:06Z</time>
      </trkpt>
      <trkpt lat="45.97769" lon="5.61258">
        <ele>883</ele>
        <time>2026-05-12T08:36:07Z</time>
      </trkpt>
      <trkpt lat="45.97769" lon="5.6126">
        <ele>883.2</ele>
        <time>2026-05-12T08:36:08Z</time>
      </trkpt>
      <trkpt lat="45.97769" lon="5.61263">
        <ele>883.2</ele>
        <time>2026-05-12T08:36:09Z</time>
      </trkpt>
      <trkpt lat="45.97769" lon="5.61265">
        <ele>883.2</ele>
        <time>2026-05-12T08:36:10Z</time>
      </trkpt>
      <trkpt lat="45.97769" lon="5.61267">
        <ele>883.6</ele>
        <time>2026-05-12T08:36:11Z</time>
      </trkpt>
      <trkpt lat="45.97769" lon="5.61269">
        <ele>883.6</ele>
        <time>2026-05-12T08:36:12Z</time>
      </trkpt>
      <trkpt lat="45.97768" lon="5.61271">
        <ele>884</ele>
        <time>2026-05-12T08:36:13Z</time>
      </trkpt>
      <trkpt lat="45.97768" lon="5.61273">
        <ele>884</ele>
        <time>2026-05-12T08:36:14Z</time>
      </trkpt>
      <trkpt lat="45.97767" lon="5.61275">
        <ele>884.2</ele>
        <time>2026-05-12T08:36:15Z</time>
      </trkpt>
      <trkpt lat="45.97767" lon="5.61277">
        <ele>884.2</ele>
        <time>2026-05-12T08:36:16Z</time>
      </trkpt>
      <trkpt lat="45.97767" lon="5.61279">
        <ele>884.4</ele>
        <time>2026-05-12T08:36:17Z</time>
      </trkpt>
      <trkpt lat="45.97766" lon="5.61281">
        <ele>884.4</ele>
        <time>2026-05-12T08:36:18Z</time>
      </trkpt>
      <trkpt lat="45.97766" lon="5.61284">
        <ele>884.8</ele>
        <time>2026-05-12T08:36:19Z</time>
      </trkpt>
      <trkpt lat="45.97766" lon="5.61285">
        <ele>884.8</ele>
        <time>2026-05-12T08:36:20Z</time>
      </trkpt>
      <trkpt lat="45.97766" lon="5.61287">
        <ele>885</ele>
        <time>2026-05-12T08:36:21Z</time>
      </trkpt>
      <trkpt lat="45.97766" lon="5.61289">
        <ele>885.2</ele>
        <time>2026-05-12T08:36:22Z</time>
      </trkpt>
      <trkpt lat="45.97766" lon="5.61294">
        <ele>885.2</ele>
        <time>2026-05-12T08:36:23Z</time>
      </trkpt>
      <trkpt lat="45.97766" lon="5.61296">
        <ele>885.6</ele>
        <time>2026-05-12T08:36:24Z</time>
      </trkpt>
      <trkpt lat="45.97766" lon="5.61299">
        <ele>885.8</ele>
        <time>2026-05-12T08:36:25Z</time>
      </trkpt>
      <trkpt lat="45.97766" lon="5.61301">
        <ele>885.8</ele>
        <time>2026-05-12T08:36:26Z</time>
      </trkpt>
      <trkpt lat="45.97766" lon="5.61303">
        <ele>886.2</ele>
        <time>2026-05-12T08:36:27Z</time>
      </trkpt>
      <trkpt lat="45.97766" lon="5.61305">
        <ele>886.2</ele>
        <time>2026-05-12T08:36:28Z</time>
      </trkpt>
      <trkpt lat="45.97766" lon="5.61307">
        <ele>886.6</ele>
        <time>2026-05-12T08:36:29Z</time>
      </trkpt>
      <trkpt lat="45.97766" lon="5.61309">
        <ele>887</ele>
        <time>2026-05-12T08:36:30Z</time>
      </trkpt>
      <trkpt lat="45.97766" lon="5.61311">
        <ele>887</ele>
        <time>2026-05-12T08:36:31Z</time>
      </trkpt>
      <trkpt lat="45.97766" lon="5.61313">
        <ele>887.2</ele>
        <time>2026-05-12T08:36:32Z</time>
      </trkpt>
      <trkpt lat="45.97766" lon="5.61315">
        <ele>887.2</ele>
        <time>2026-05-12T08:36:33Z</time>
      </trkpt>
      <trkpt lat="45.97766" lon="5.61318">
        <ele>887.6</ele>
        <time>2026-05-12T08:36:34Z</time>
      </trkpt>
      <trkpt lat="45.97766" lon="5.6132">
        <ele>887.6</ele>
        <time>2026-05-12T08:36:35Z</time>
      </trkpt>
      <trkpt lat="45.97766" lon="5.61322">
        <ele>887.8</ele>
        <time>2026-05-12T08:36:36Z</time>
      </trkpt>
      <trkpt lat="45.97766" lon="5.61325">
        <ele>887.8</ele>
        <time>2026-05-12T08:36:37Z</time>
      </trkpt>
      <trkpt lat="45.97766" lon="5.61327">
        <ele>888</ele>
        <time>2026-05-12T08:36:38Z</time>
      </trkpt>
      <trkpt lat="45.97766" lon="5.61329">
        <ele>888</ele>
        <time>2026-05-12T08:36:39Z</time>
      </trkpt>
      <trkpt lat="45.97766" lon="5.61331">
        <ele>888</ele>
        <time>2026-05-12T08:36:40Z</time>
      </trkpt>
      <trkpt lat="45.97766" lon="5.61333">
        <ele>888.4</ele>
        <time>2026-05-12T08:36:41Z</time>
      </trkpt>
      <trkpt lat="45.97766" lon="5.61335">
        <ele>888.4</ele>
        <time>2026-05-12T08:36:42Z</time>
      </trkpt>
      <trkpt lat="45.97766" lon="5.61337">
        <ele>888.8</ele>
        <time>2026-05-12T08:36:43Z</time>
      </trkpt>
      <trkpt lat="45.97766" lon="5.61339">
        <ele>888.8</ele>
        <time>2026-05-12T08:36:44Z</time>
      </trkpt>
      <trkpt lat="45.97766" lon="5.61341">
        <ele>889</ele>
        <time>2026-05-12T08:36:45Z</time>
      </trkpt>
      <trkpt lat="45.97766" lon="5.61344">
        <ele>889</ele>
        <time>2026-05-12T08:36:46Z</time>
      </trkpt>
      <trkpt lat="45.97766" lon="5.61346">
        <ele>889.4</ele>
        <time>2026-05-12T08:36:47Z</time>
      </trkpt>
      <trkpt lat="45.97766" lon="5.61348">
        <ele>889.4</ele>
        <time>2026-05-12T08:36:48Z</time>
      </trkpt>
      <trkpt lat="45.97766" lon="5.6135">
        <ele>889.4</ele>
        <time>2026-05-12T08:36:49Z</time>
      </trkpt>
      <trkpt lat="45.97766" lon="5.61352">
        <ele>889.6</ele>
        <time>2026-05-12T08:36:50Z</time>
      </trkpt>
      <trkpt lat="45.97766" lon="5.61354">
        <ele>889.6</ele>
        <time>2026-05-12T08:36:51Z</time>
      </trkpt>
      <trkpt lat="45.97766" lon="5.61356">
        <ele>889.8</ele>
        <time>2026-05-12T08:36:52Z</time>
      </trkpt>
      <trkpt lat="45.97766" lon="5.61358">
        <ele>889.8</ele>
        <time>2026-05-12T08:36:53Z</time>
      </trkpt>
      <trkpt lat="45.97766" lon="5.6136">
        <ele>889.8</ele>
        <time>2026-05-12T08:36:54Z</time>
      </trkpt>
      <trkpt lat="45.97766" lon="5.61362">
        <ele>890.2</ele>
        <time>2026-05-12T08:36:55Z</time>
      </trkpt>
      <trkpt lat="45.97766" lon="5.61364">
        <ele>890.2</ele>
        <time>2026-05-12T08:36:56Z</time>
      </trkpt>
      <trkpt lat="45.97766" lon="5.61366">
        <ele>890.4</ele>
        <time>2026-05-12T08:36:57Z</time>
      </trkpt>
      <trkpt lat="45.97766" lon="5.61369">
        <ele>890.4</ele>
        <time>2026-05-12T08:36:58Z</time>
      </trkpt>
      <trkpt lat="45.97766" lon="5.61371">
        <ele>890.6</ele>
        <time>2026-05-12T08:36:59Z</time>
      </trkpt>
      <trkpt lat="45.97767" lon="5.61373">
        <ele>891</ele>
        <time>2026-05-12T08:37:00Z</time>
      </trkpt>
      <trkpt lat="45.97767" lon="5.61374">
        <ele>891.2</ele>
        <time>2026-05-12T08:37:01Z</time>
      </trkpt>
      <trkpt lat="45.97767" lon="5.61374">
        <ele>891.2</ele>
        <time>2026-05-12T08:37:02Z</time>
      </trkpt>
      <trkpt lat="45.97766" lon="5.61375">
        <ele>891.2</ele>
        <time>2026-05-12T08:37:03Z</time>
      </trkpt>
      <trkpt lat="45.97766" lon="5.61377">
        <ele>891.2</ele>
        <time>2026-05-12T08:37:04Z</time>
      </trkpt>
      <trkpt lat="45.97766" lon="5.61379">
        <ele>891.6</ele>
        <time>2026-05-12T08:37:05Z</time>
      </trkpt>
      <trkpt lat="45.97766" lon="5.61381">
        <ele>891.8</ele>
        <time>2026-05-12T08:37:06Z</time>
      </trkpt>
      <trkpt lat="45.97766" lon="5.61383">
        <ele>892</ele>
        <time>2026-05-12T08:37:07Z</time>
      </trkpt>
      <trkpt lat="45.97766" lon="5.61385">
        <ele>892.2</ele>
        <time>2026-05-12T08:37:08Z</time>
      </trkpt>
      <trkpt lat="45.97766" lon="5.61387">
        <ele>892.2</ele>
        <time>2026-05-12T08:37:09Z</time>
      </trkpt>
      <trkpt lat="45.97766" lon="5.61389">
        <ele>892.2</ele>
        <time>2026-05-12T08:37:10Z</time>
      </trkpt>
      <trkpt lat="45.97766" lon="5.61392">
        <ele>892.6</ele>
        <time>2026-05-12T08:37:11Z</time>
      </trkpt>
      <trkpt lat="45.97766" lon="5.61394">
        <ele>892.6</ele>
        <time>2026-05-12T08:37:12Z</time>
      </trkpt>
      <trkpt lat="45.97766" lon="5.61397">
        <ele>892.8</ele>
        <time>2026-05-12T08:37:13Z</time>
      </trkpt>
      <trkpt lat="45.97765" lon="5.61399">
        <ele>892.8</ele>
        <time>2026-05-12T08:37:14Z</time>
      </trkpt>
      <trkpt lat="45.97765" lon="5.61401">
        <ele>893.2</ele>
        <time>2026-05-12T08:37:15Z</time>
      </trkpt>
      <trkpt lat="45.97765" lon="5.61403">
        <ele>893.2</ele>
        <time>2026-05-12T08:37:16Z</time>
      </trkpt>
      <trkpt lat="45.97765" lon="5.61405">
        <ele>893.4</ele>
        <time>2026-05-12T08:37:17Z</time>
      </trkpt>
      <trkpt lat="45.97765" lon="5.61406">
        <ele>893.4</ele>
        <time>2026-05-12T08:37:18Z</time>
      </trkpt>
      <trkpt lat="45.97765" lon="5.61408">
        <ele>893.8</ele>
        <time>2026-05-12T08:37:19Z</time>
      </trkpt>
      <trkpt lat="45.97765" lon="5.6141">
        <ele>893.8</ele>
        <time>2026-05-12T08:37:20Z</time>
      </trkpt>
      <trkpt lat="45.97765" lon="5.61411">
        <ele>894.2</ele>
        <time>2026-05-12T08:37:21Z</time>
      </trkpt>
      <trkpt lat="45.97764" lon="5.61413">
        <ele>894.2</ele>
        <time>2026-05-12T08:37:22Z</time>
      </trkpt>
      <trkpt lat="45.97764" lon="5.61415">
        <ele>894.6</ele>
        <time>2026-05-12T08:37:23Z</time>
      </trkpt>
      <trkpt lat="45.97764" lon="5.61418">
        <ele>894.6</ele>
        <time>2026-05-12T08:37:24Z</time>
      </trkpt>
      <trkpt lat="45.97764" lon="5.61419">
        <ele>894.6</ele>
        <time>2026-05-12T08:37:25Z</time>
      </trkpt>
      <trkpt lat="45.97764" lon="5.61421">
        <ele>894.6</ele>
        <time>2026-05-12T08:37:26Z</time>
      </trkpt>
      <trkpt lat="45.97765" lon="5.61422">
        <ele>894.6</ele>
        <time>2026-05-12T08:37:27Z</time>
      </trkpt>
      <trkpt lat="45.97765" lon="5.61423">
        <ele>895.2</ele>
        <time>2026-05-12T08:37:28Z</time>
      </trkpt>
      <trkpt lat="45.97765" lon="5.61425">
        <ele>895.4</ele>
        <time>2026-05-12T08:37:29Z</time>
      </trkpt>
      <trkpt lat="45.97765" lon="5.61426">
        <ele>895.6</ele>
        <time>2026-05-12T08:37:30Z</time>
      </trkpt>
      <trkpt lat="45.97765" lon="5.61428">
        <ele>895.6</ele>
        <time>2026-05-12T08:37:31Z</time>
      </trkpt>
      <trkpt lat="45.97765" lon="5.61429">
        <ele>896</ele>
        <time>2026-05-12T08:37:32Z</time>
      </trkpt>
      <trkpt lat="45.97764" lon="5.61431">
        <ele>896</ele>
        <time>2026-05-12T08:37:33Z</time>
      </trkpt>
      <trkpt lat="45.97764" lon="5.61433">
        <ele>896.4</ele>
        <time>2026-05-12T08:37:34Z</time>
      </trkpt>
      <trkpt lat="45.97764" lon="5.61435">
        <ele>896.6</ele>
        <time>2026-05-12T08:37:35Z</time>
      </trkpt>
      <trkpt lat="45.97764" lon="5.61436">
        <ele>896.6</ele>
        <time>2026-05-12T08:37:36Z</time>
      </trkpt>
      <trkpt lat="45.97763" lon="5.61438">
        <ele>896.6</ele>
        <time>2026-05-12T08:37:37Z</time>
      </trkpt>
      <trkpt lat="45.97763" lon="5.6144">
        <ele>896.8</ele>
        <time>2026-05-12T08:37:38Z</time>
      </trkpt>
      <trkpt lat="45.97763" lon="5.61441">
        <ele>896.8</ele>
        <time>2026-05-12T08:37:39Z</time>
      </trkpt>
      <trkpt lat="45.97763" lon="5.61443">
        <ele>897.2</ele>
        <time>2026-05-12T08:37:40Z</time>
      </trkpt>
      <trkpt lat="45.97762" lon="5.61445">
        <ele>897.2</ele>
        <time>2026-05-12T08:37:41Z</time>
      </trkpt>
      <trkpt lat="45.97762" lon="5.61446">
        <ele>897.2</ele>
        <time>2026-05-12T08:37:42Z</time>
      </trkpt>
      <trkpt lat="45.97762" lon="5.61446">
        <ele>897.8</ele>
        <time>2026-05-12T08:37:43Z</time>
      </trkpt>
      <trkpt lat="45.97762" lon="5.61446">
        <ele>897.8</ele>
        <time>2026-05-12T08:37:44Z</time>
      </trkpt>
      <trkpt lat="45.97761" lon="5.61454">
        <ele>898.4</ele>
        <time>2026-05-12T08:37:46Z</time>
      </trkpt>
      <trkpt lat="45.97761" lon="5.61456">
        <ele>898.6</ele>
        <time>2026-05-12T08:37:47Z</time>
      </trkpt>
      <trkpt lat="45.97761" lon="5.61458">
        <ele>898.8</ele>
        <time>2026-05-12T08:37:48Z</time>
      </trkpt>
      <trkpt lat="45.9776" lon="5.6146">
        <ele>898.8</ele>
        <time>2026-05-12T08:37:49Z</time>
      </trkpt>
      <trkpt lat="45.9776" lon="5.61462">
        <ele>899.2</ele>
        <time>2026-05-12T08:37:50Z</time>
      </trkpt>
      <trkpt lat="45.97759" lon="5.61465">
        <ele>899.2</ele>
        <time>2026-05-12T08:37:51Z</time>
      </trkpt>
      <trkpt lat="45.97758" lon="5.61467">
        <ele>899.6</ele>
        <time>2026-05-12T08:37:52Z</time>
      </trkpt>
      <trkpt lat="45.97758" lon="5.61469">
        <ele>899.6</ele>
        <time>2026-05-12T08:37:53Z</time>
      </trkpt>
      <trkpt lat="45.97757" lon="5.61471">
        <ele>900.2</ele>
        <time>2026-05-12T08:37:54Z</time>
      </trkpt>
      <trkpt lat="45.97757" lon="5.61473">
        <ele>900.2</ele>
        <time>2026-05-12T08:37:55Z</time>
      </trkpt>
      <trkpt lat="45.97757" lon="5.61474">
        <ele>900.4</ele>
        <time>2026-05-12T08:37:56Z</time>
      </trkpt>
      <trkpt lat="45.97757" lon="5.61476">
        <ele>900.4</ele>
        <time>2026-05-12T08:37:57Z</time>
      </trkpt>
      <trkpt lat="45.97756" lon="5.61478">
        <ele>900.8</ele>
        <time>2026-05-12T08:37:58Z</time>
      </trkpt>
      <trkpt lat="45.97756" lon="5.61479">
        <ele>900.8</ele>
        <time>2026-05-12T08:37:59Z</time>
      </trkpt>
      <trkpt lat="45.97755" lon="5.6148">
        <ele>901</ele>
        <time>2026-05-12T08:38:00Z</time>
      </trkpt>
      <trkpt lat="45.97755" lon="5.61481">
        <ele>901</ele>
        <time>2026-05-12T08:38:01Z</time>
      </trkpt>
      <trkpt lat="45.97755" lon="5.61483">
        <ele>901.4</ele>
        <time>2026-05-12T08:38:02Z</time>
      </trkpt>
      <trkpt lat="45.97754" lon="5.61485">
        <ele>901.4</ele>
        <time>2026-05-12T08:38:03Z</time>
      </trkpt>
      <trkpt lat="45.97754" lon="5.61487">
        <ele>901.8</ele>
        <time>2026-05-12T08:38:04Z</time>
      </trkpt>
      <trkpt lat="45.97754" lon="5.61488">
        <ele>902</ele>
        <time>2026-05-12T08:38:05Z</time>
      </trkpt>
      <trkpt lat="45.97754" lon="5.6149">
        <ele>902</ele>
        <time>2026-05-12T08:38:06Z</time>
      </trkpt>
      <trkpt lat="45.97753" lon="5.61492">
        <ele>902.4</ele>
        <time>2026-05-12T08:38:07Z</time>
      </trkpt>
      <trkpt lat="45.97753" lon="5.61493">
        <ele>902.8</ele>
        <time>2026-05-12T08:38:08Z</time>
      </trkpt>
      <trkpt lat="45.97752" lon="5.61495">
        <ele>902.8</ele>
        <time>2026-05-12T08:38:09Z</time>
      </trkpt>
      <trkpt lat="45.97752" lon="5.61497">
        <ele>903</ele>
        <time>2026-05-12T08:38:10Z</time>
      </trkpt>
      <trkpt lat="45.97752" lon="5.615">
        <ele>903</ele>
        <time>2026-05-12T08:38:11Z</time>
      </trkpt>
      <trkpt lat="45.97751" lon="5.61502">
        <ele>903.4</ele>
        <time>2026-05-12T08:38:12Z</time>
      </trkpt>
      <trkpt lat="45.97751" lon="5.61503">
        <ele>903.8</ele>
        <time>2026-05-12T08:38:13Z</time>
      </trkpt>
      <trkpt lat="45.97751" lon="5.61505">
        <ele>903.8</ele>
        <time>2026-05-12T08:38:14Z</time>
      </trkpt>
      <trkpt lat="45.9775" lon="5.61506">
        <ele>904</ele>
        <time>2026-05-12T08:38:15Z</time>
      </trkpt>
      <trkpt lat="45.9775" lon="5.61508">
        <ele>904.2</ele>
        <time>2026-05-12T08:38:16Z</time>
      </trkpt>
      <trkpt lat="45.97749" lon="5.6151">
        <ele>904.2</ele>
        <time>2026-05-12T08:38:17Z</time>
      </trkpt>
      <trkpt lat="45.97749" lon="5.61512">
        <ele>904.6</ele>
        <time>2026-05-12T08:38:18Z</time>
      </trkpt>
      <trkpt lat="45.97749" lon="5.61514">
        <ele>904.6</ele>
        <time>2026-05-12T08:38:19Z</time>
      </trkpt>
      <trkpt lat="45.97748" lon="5.61515">
        <ele>905</ele>
        <time>2026-05-12T08:38:20Z</time>
      </trkpt>
      <trkpt lat="45.97748" lon="5.61516">
        <ele>905</ele>
        <time>2026-05-12T08:38:21Z</time>
      </trkpt>
      <trkpt lat="45.97748" lon="5.61518">
        <ele>905.4</ele>
        <time>2026-05-12T08:38:22Z</time>
      </trkpt>
      <trkpt lat="45.97748" lon="5.6152">
        <ele>905.4</ele>
        <time>2026-05-12T08:38:23Z</time>
      </trkpt>
      <trkpt lat="45.97747" lon="5.61521">
        <ele>905.4</ele>
        <time>2026-05-12T08:38:24Z</time>
      </trkpt>
      <trkpt lat="45.97747" lon="5.61521">
        <ele>905.6</ele>
        <time>2026-05-12T08:38:25Z</time>
      </trkpt>
      <trkpt lat="45.97747" lon="5.61521">
        <ele>905.6</ele>
        <time>2026-05-12T08:38:26Z</time>
      </trkpt>
      <trkpt lat="45.97747" lon="5.61525">
        <ele>906</ele>
        <time>2026-05-12T08:38:27Z</time>
      </trkpt>
      <trkpt lat="45.97746" lon="5.61527">
        <ele>906</ele>
        <time>2026-05-12T08:38:28Z</time>
      </trkpt>
      <trkpt lat="45.97746" lon="5.61529">
        <ele>906.4</ele>
        <time>2026-05-12T08:38:29Z</time>
      </trkpt>
      <trkpt lat="45.97745" lon="5.6153">
        <ele>906.4</ele>
        <time>2026-05-12T08:38:30Z</time>
      </trkpt>
      <trkpt lat="45.97745" lon="5.61532">
        <ele>906.8</ele>
        <time>2026-05-12T08:38:31Z</time>
      </trkpt>
      <trkpt lat="45.97745" lon="5.61534">
        <ele>907.2</ele>
        <time>2026-05-12T08:38:32Z</time>
      </trkpt>
      <trkpt lat="45.97745" lon="5.61536">
        <ele>907.2</ele>
        <time>2026-05-12T08:38:33Z</time>
      </trkpt>
      <trkpt lat="45.97745" lon="5.61539">
        <ele>907.2</ele>
        <time>2026-05-12T08:38:34Z</time>
      </trkpt>
      <trkpt lat="45.97745" lon="5.6154">
        <ele>907.6</ele>
        <time>2026-05-12T08:38:35Z</time>
      </trkpt>
      <trkpt lat="45.97745" lon="5.61542">
        <ele>907.6</ele>
        <time>2026-05-12T08:38:36Z</time>
      </trkpt>
      <trkpt lat="45.97745" lon="5.61544">
        <ele>908.2</ele>
        <time>2026-05-12T08:38:37Z</time>
      </trkpt>
      <trkpt lat="45.97745" lon="5.61546">
        <ele>908.4</ele>
        <time>2026-05-12T08:38:38Z</time>
      </trkpt>
      <trkpt lat="45.97746" lon="5.61548">
        <ele>908.8</ele>
        <time>2026-05-12T08:38:39Z</time>
      </trkpt>
      <trkpt lat="45.97746" lon="5.6155">
        <ele>909</ele>
        <time>2026-05-12T08:38:40Z</time>
      </trkpt>
      <trkpt lat="45.97746" lon="5.61552">
        <ele>909</ele>
        <time>2026-05-12T08:38:41Z</time>
      </trkpt>
      <trkpt lat="45.97747" lon="5.61553">
        <ele>909.4</ele>
        <time>2026-05-12T08:38:42Z</time>
      </trkpt>
      <trkpt lat="45.97747" lon="5.61555">
        <ele>909.6</ele>
        <time>2026-05-12T08:38:43Z</time>
      </trkpt>
      <trkpt lat="45.97748" lon="5.61557">
        <ele>909.6</ele>
        <time>2026-05-12T08:38:44Z</time>
      </trkpt>
      <trkpt lat="45.97748" lon="5.61559">
        <ele>910</ele>
        <time>2026-05-12T08:38:45Z</time>
      </trkpt>
      <trkpt lat="45.97749" lon="5.61561">
        <ele>910</ele>
        <time>2026-05-12T08:38:46Z</time>
      </trkpt>
      <trkpt lat="45.97749" lon="5.61562">
        <ele>910.2</ele>
        <time>2026-05-12T08:38:47Z</time>
      </trkpt>
      <trkpt lat="45.97749" lon="5.61561">
        <ele>910.2</ele>
        <time>2026-05-12T08:38:48Z</time>
      </trkpt>
      <trkpt lat="45.97749" lon="5.61561">
        <ele>910.4</ele>
        <time>2026-05-12T08:38:49Z</time>
      </trkpt>
      <trkpt lat="45.9775" lon="5.61563">
        <ele>910.4</ele>
        <time>2026-05-12T08:38:50Z</time>
      </trkpt>
      <trkpt lat="45.97751" lon="5.61565">
        <ele>911</ele>
        <time>2026-05-12T08:38:51Z</time>
      </trkpt>
      <trkpt lat="45.97752" lon="5.61567">
        <ele>911.2</ele>
        <time>2026-05-12T08:38:52Z</time>
      </trkpt>
      <trkpt lat="45.97753" lon="5.61568">
        <ele>911.2</ele>
        <time>2026-05-12T08:38:53Z</time>
      </trkpt>
      <trkpt lat="45.97755" lon="5.61569">
        <ele>911.6</ele>
        <time>2026-05-12T08:38:54Z</time>
      </trkpt>
      <trkpt lat="45.97756" lon="5.6157">
        <ele>911.6</ele>
        <time>2026-05-12T08:38:55Z</time>
      </trkpt>
      <trkpt lat="45.97758" lon="5.6157">
        <ele>911.6</ele>
        <time>2026-05-12T08:38:56Z</time>
      </trkpt>
      <trkpt lat="45.9776" lon="5.61571">
        <ele>911.6</ele>
        <time>2026-05-12T08:38:57Z</time>
      </trkpt>
      <trkpt lat="45.97761" lon="5.61572">
        <ele>911.6</ele>
        <time>2026-05-12T08:38:58Z</time>
      </trkpt>
      <trkpt lat="45.97763" lon="5.61573">
        <ele>911.6</ele>
        <time>2026-05-12T08:38:59Z</time>
      </trkpt>
      <trkpt lat="45.97765" lon="5.61574">
        <ele>911.6</ele>
        <time>2026-05-12T08:39:00Z</time>
      </trkpt>
      <trkpt lat="45.97767" lon="5.61576">
        <ele>911.8</ele>
        <time>2026-05-12T08:39:01Z</time>
      </trkpt>
      <trkpt lat="45.97768" lon="5.61577">
        <ele>911.8</ele>
        <time>2026-05-12T08:39:02Z</time>
      </trkpt>
      <trkpt lat="45.9777" lon="5.61577">
        <ele>911.8</ele>
        <time>2026-05-12T08:39:03Z</time>
      </trkpt>
      <trkpt lat="45.97771" lon="5.61577">
        <ele>912</ele>
        <time>2026-05-12T08:39:04Z</time>
      </trkpt>
      <trkpt lat="45.97773" lon="5.61577">
        <ele>912</ele>
        <time>2026-05-12T08:39:05Z</time>
      </trkpt>
      <trkpt lat="45.97774" lon="5.61577">
        <ele>912</ele>
        <time>2026-05-12T08:39:06Z</time>
      </trkpt>
      <trkpt lat="45.97776" lon="5.61577">
        <ele>912</ele>
        <time>2026-05-12T08:39:07Z</time>
      </trkpt>
      <trkpt lat="45.97777" lon="5.61576">
        <ele>912</ele>
        <time>2026-05-12T08:39:08Z</time>
      </trkpt>
      <trkpt lat="45.97779" lon="5.61576">
        <ele>912</ele>
        <time>2026-05-12T08:39:09Z</time>
      </trkpt>
      <trkpt lat="45.97781" lon="5.61575">
        <ele>912</ele>
        <time>2026-05-12T08:39:10Z</time>
      </trkpt>
      <trkpt lat="45.97783" lon="5.61576">
        <ele>912</ele>
        <time>2026-05-12T08:39:11Z</time>
      </trkpt>
      <trkpt lat="45.97785" lon="5.61576">
        <ele>912</ele>
        <time>2026-05-12T08:39:12Z</time>
      </trkpt>
      <trkpt lat="45.97786" lon="5.61576">
        <ele>912</ele>
        <time>2026-05-12T08:39:13Z</time>
      </trkpt>
      <trkpt lat="45.97788" lon="5.61576">
        <ele>912</ele>
        <time>2026-05-12T08:39:14Z</time>
      </trkpt>
      <trkpt lat="45.97789" lon="5.61576">
        <ele>912</ele>
        <time>2026-05-12T08:39:15Z</time>
      </trkpt>
      <trkpt lat="45.97791" lon="5.61576">
        <ele>912</ele>
        <time>2026-05-12T08:39:16Z</time>
      </trkpt>
      <trkpt lat="45.97792" lon="5.61577">
        <ele>912</ele>
        <time>2026-05-12T08:39:17Z</time>
      </trkpt>
      <trkpt lat="45.97794" lon="5.61577">
        <ele>912</ele>
        <time>2026-05-12T08:39:18Z</time>
      </trkpt>
      <trkpt lat="45.97796" lon="5.61578">
        <ele>912</ele>
        <time>2026-05-12T08:39:19Z</time>
      </trkpt>
      <trkpt lat="45.97798" lon="5.61578">
        <ele>912</ele>
        <time>2026-05-12T08:39:20Z</time>
      </trkpt>
      <trkpt lat="45.97799" lon="5.61578">
        <ele>912</ele>
        <time>2026-05-12T08:39:21Z</time>
      </trkpt>
      <trkpt lat="45.97802" lon="5.61579">
        <ele>911.6</ele>
        <time>2026-05-12T08:39:22Z</time>
      </trkpt>
      <trkpt lat="45.97804" lon="5.61581">
        <ele>911.8</ele>
        <time>2026-05-12T08:39:23Z</time>
      </trkpt>
      <trkpt lat="45.97806" lon="5.61583">
        <ele>911.8</ele>
        <time>2026-05-12T08:39:24Z</time>
      </trkpt>
      <trkpt lat="45.97808" lon="5.61584">
        <ele>911.8</ele>
        <time>2026-05-12T08:39:25Z</time>
      </trkpt>
      <trkpt lat="45.9781" lon="5.61585">
        <ele>911.8</ele>
        <time>2026-05-12T08:39:26Z</time>
      </trkpt>
      <trkpt lat="45.97812" lon="5.61585">
        <ele>911.8</ele>
        <time>2026-05-12T08:39:27Z</time>
      </trkpt>
      <trkpt lat="45.97814" lon="5.61585">
        <ele>911.8</ele>
        <time>2026-05-12T08:39:28Z</time>
      </trkpt>
      <trkpt lat="45.97816" lon="5.61584">
        <ele>911.8</ele>
        <time>2026-05-12T08:39:29Z</time>
      </trkpt>
      <trkpt lat="45.97817" lon="5.61584">
        <ele>911.8</ele>
        <time>2026-05-12T08:39:30Z</time>
      </trkpt>
      <trkpt lat="45.97819" lon="5.61584">
        <ele>911.8</ele>
        <time>2026-05-12T08:39:31Z</time>
      </trkpt>
      <trkpt lat="45.97821" lon="5.61585">
        <ele>911.8</ele>
        <time>2026-05-12T08:39:32Z</time>
      </trkpt>
      <trkpt lat="45.97823" lon="5.61585">
        <ele>911.8</ele>
        <time>2026-05-12T08:39:33Z</time>
      </trkpt>
      <trkpt lat="45.97825" lon="5.61585">
        <ele>911.8</ele>
        <time>2026-05-12T08:39:34Z</time>
      </trkpt>
      <trkpt lat="45.97826" lon="5.61585">
        <ele>912</ele>
        <time>2026-05-12T08:39:35Z</time>
      </trkpt>
      <trkpt lat="45.97829" lon="5.61585">
        <ele>912</ele>
        <time>2026-05-12T08:39:36Z</time>
      </trkpt>
      <trkpt lat="45.97831" lon="5.61585">
        <ele>912</ele>
        <time>2026-05-12T08:39:37Z</time>
      </trkpt>
      <trkpt lat="45.97833" lon="5.61585">
        <ele>912.2</ele>
        <time>2026-05-12T08:39:38Z</time>
      </trkpt>
      <trkpt lat="45.97835" lon="5.61585">
        <ele>912.2</ele>
        <time>2026-05-12T08:39:39Z</time>
      </trkpt>
      <trkpt lat="45.97837" lon="5.61585">
        <ele>912.2</ele>
        <time>2026-05-12T08:39:40Z</time>
      </trkpt>
      <trkpt lat="45.97838" lon="5.61585">
        <ele>912.4</ele>
        <time>2026-05-12T08:39:41Z</time>
      </trkpt>
      <trkpt lat="45.97839" lon="5.61585">
        <ele>912.4</ele>
        <time>2026-05-12T08:39:42Z</time>
      </trkpt>
      <trkpt lat="45.97841" lon="5.61586">
        <ele>912.4</ele>
        <time>2026-05-12T08:39:43Z</time>
      </trkpt>
      <trkpt lat="45.97843" lon="5.61587">
        <ele>912.4</ele>
        <time>2026-05-12T08:39:44Z</time>
      </trkpt>
      <trkpt lat="45.97844" lon="5.61588">
        <ele>912.6</ele>
        <time>2026-05-12T08:39:45Z</time>
      </trkpt>
      <trkpt lat="45.97846" lon="5.61588">
        <ele>912.6</ele>
        <time>2026-05-12T08:39:46Z</time>
      </trkpt>
      <trkpt lat="45.97847" lon="5.61588">
        <ele>913</ele>
        <time>2026-05-12T08:39:47Z</time>
      </trkpt>
      <trkpt lat="45.97849" lon="5.61588">
        <ele>913</ele>
        <time>2026-05-12T08:39:48Z</time>
      </trkpt>
      <trkpt lat="45.97851" lon="5.61589">
        <ele>913</ele>
        <time>2026-05-12T08:39:49Z</time>
      </trkpt>
      <trkpt lat="45.97852" lon="5.61589">
        <ele>913</ele>
        <time>2026-05-12T08:39:50Z</time>
      </trkpt>
      <trkpt lat="45.97854" lon="5.6159">
        <ele>913</ele>
        <time>2026-05-12T08:39:51Z</time>
      </trkpt>
      <trkpt lat="45.97856" lon="5.6159">
        <ele>913</ele>
        <time>2026-05-12T08:39:52Z</time>
      </trkpt>
      <trkpt lat="45.97857" lon="5.6159">
        <ele>913</ele>
        <time>2026-05-12T08:39:53Z</time>
      </trkpt>
      <trkpt lat="45.97859" lon="5.6159">
        <ele>913</ele>
        <time>2026-05-12T08:39:54Z</time>
      </trkpt>
      <trkpt lat="45.97861" lon="5.61591">
        <ele>913.2</ele>
        <time>2026-05-12T08:39:55Z</time>
      </trkpt>
      <trkpt lat="45.97863" lon="5.61592">
        <ele>913.2</ele>
        <time>2026-05-12T08:39:56Z</time>
      </trkpt>
      <trkpt lat="45.97864" lon="5.61592">
        <ele>913.6</ele>
        <time>2026-05-12T08:39:57Z</time>
      </trkpt>
      <trkpt lat="45.97866" lon="5.61592">
        <ele>913.6</ele>
        <time>2026-05-12T08:39:58Z</time>
      </trkpt>
      <trkpt lat="45.97868" lon="5.61593">
        <ele>913.8</ele>
        <time>2026-05-12T08:39:59Z</time>
      </trkpt>
      <trkpt lat="45.97869" lon="5.61594">
        <ele>913.8</ele>
        <time>2026-05-12T08:40:00Z</time>
      </trkpt>
      <trkpt lat="45.97871" lon="5.61596">
        <ele>913.8</ele>
        <time>2026-05-12T08:40:01Z</time>
      </trkpt>
      <trkpt lat="45.97872" lon="5.61598">
        <ele>913.8</ele>
        <time>2026-05-12T08:40:02Z</time>
      </trkpt>
      <trkpt lat="45.97874" lon="5.616">
        <ele>914.4</ele>
        <time>2026-05-12T08:40:03Z</time>
      </trkpt>
      <trkpt lat="45.97875" lon="5.61601">
        <ele>914.4</ele>
        <time>2026-05-12T08:40:04Z</time>
      </trkpt>
      <trkpt lat="45.97877" lon="5.61601">
        <ele>914.4</ele>
        <time>2026-05-12T08:40:05Z</time>
      </trkpt>
      <trkpt lat="45.97878" lon="5.616">
        <ele>914.8</ele>
        <time>2026-05-12T08:40:06Z</time>
      </trkpt>
      <trkpt lat="45.97879" lon="5.616">
        <ele>915</ele>
        <time>2026-05-12T08:40:07Z</time>
      </trkpt>
      <trkpt lat="45.97881" lon="5.61599">
        <ele>915</ele>
        <time>2026-05-12T08:40:08Z</time>
      </trkpt>
      <trkpt lat="45.97882" lon="5.61598">
        <ele>915.2</ele>
        <time>2026-05-12T08:40:09Z</time>
      </trkpt>
      <trkpt lat="45.97883" lon="5.61597">
        <ele>915.4</ele>
        <time>2026-05-12T08:40:10Z</time>
      </trkpt>
      <trkpt lat="45.97885" lon="5.61596">
        <ele>915.4</ele>
        <time>2026-05-12T08:40:11Z</time>
      </trkpt>
      <trkpt lat="45.97887" lon="5.61594">
        <ele>915.4</ele>
        <time>2026-05-12T08:40:12Z</time>
      </trkpt>
      <trkpt lat="45.97888" lon="5.61592">
        <ele>915.6</ele>
        <time>2026-05-12T08:40:13Z</time>
      </trkpt>
      <trkpt lat="45.9789" lon="5.61591">
        <ele>915.6</ele>
        <time>2026-05-12T08:40:14Z</time>
      </trkpt>
      <trkpt lat="45.97891" lon="5.6159">
        <ele>916</ele>
        <time>2026-05-12T08:40:15Z</time>
      </trkpt>
      <trkpt lat="45.97893" lon="5.6159">
        <ele>916</ele>
        <time>2026-05-12T08:40:16Z</time>
      </trkpt>
      <trkpt lat="45.97894" lon="5.6159">
        <ele>916.4</ele>
        <time>2026-05-12T08:40:17Z</time>
      </trkpt>
      <trkpt lat="45.97895" lon="5.6159">
        <ele>916.4</ele>
        <time>2026-05-12T08:40:18Z</time>
      </trkpt>
      <trkpt lat="45.97896" lon="5.6159">
        <ele>916.6</ele>
        <time>2026-05-12T08:40:19Z</time>
      </trkpt>
      <trkpt lat="45.97897" lon="5.6159">
        <ele>916.6</ele>
        <time>2026-05-12T08:40:20Z</time>
      </trkpt>
      <trkpt lat="45.97898" lon="5.61591">
        <ele>917</ele>
        <time>2026-05-12T08:40:21Z</time>
      </trkpt>
      <trkpt lat="45.979" lon="5.61591">
        <ele>917</ele>
        <time>2026-05-12T08:40:22Z</time>
      </trkpt>
      <trkpt lat="45.97901" lon="5.61592">
        <ele>917.4</ele>
        <time>2026-05-12T08:40:23Z</time>
      </trkpt>
      <trkpt lat="45.97902" lon="5.61593">
        <ele>917.4</ele>
        <time>2026-05-12T08:40:24Z</time>
      </trkpt>
      <trkpt lat="45.97903" lon="5.61594">
        <ele>917.6</ele>
        <time>2026-05-12T08:40:25Z</time>
      </trkpt>
      <trkpt lat="45.97904" lon="5.61594">
        <ele>917.6</ele>
        <time>2026-05-12T08:40:26Z</time>
      </trkpt>
      <trkpt lat="45.97905" lon="5.61595">
        <ele>917.8</ele>
        <time>2026-05-12T08:40:27Z</time>
      </trkpt>
      <trkpt lat="45.97906" lon="5.61597">
        <ele>917.8</ele>
        <time>2026-05-12T08:40:28Z</time>
      </trkpt>
      <trkpt lat="45.97907" lon="5.61599">
        <ele>918</ele>
        <time>2026-05-12T08:40:29Z</time>
      </trkpt>
      <trkpt lat="45.97908" lon="5.616">
        <ele>918</ele>
        <time>2026-05-12T08:40:30Z</time>
      </trkpt>
      <trkpt lat="45.97909" lon="5.61601">
        <ele>918.2</ele>
        <time>2026-05-12T08:40:31Z</time>
      </trkpt>
      <trkpt lat="45.97909" lon="5.61602">
        <ele>918.6</ele>
        <time>2026-05-12T08:40:32Z</time>
      </trkpt>
      <trkpt lat="45.9791" lon="5.61604">
        <ele>918.6</ele>
        <time>2026-05-12T08:40:33Z</time>
      </trkpt>
      <trkpt lat="45.97911" lon="5.61605">
        <ele>918.8</ele>
        <time>2026-05-12T08:40:34Z</time>
      </trkpt>
      <trkpt lat="45.97912" lon="5.61607">
        <ele>918.8</ele>
        <time>2026-05-12T08:40:35Z</time>
      </trkpt>
      <trkpt lat="45.97913" lon="5.61609">
        <ele>919.2</ele>
        <time>2026-05-12T08:40:36Z</time>
      </trkpt>
      <trkpt lat="45.97914" lon="5.61611">
        <ele>919.4</ele>
        <time>2026-05-12T08:40:37Z</time>
      </trkpt>
      <trkpt lat="45.97914" lon="5.61613">
        <ele>919.6</ele>
        <time>2026-05-12T08:40:38Z</time>
      </trkpt>
      <trkpt lat="45.97915" lon="5.61615">
        <ele>920</ele>
        <time>2026-05-12T08:40:39Z</time>
      </trkpt>
      <trkpt lat="45.97916" lon="5.61617">
        <ele>920</ele>
        <time>2026-05-12T08:40:40Z</time>
      </trkpt>
      <trkpt lat="45.97916" lon="5.61619">
        <ele>920.2</ele>
        <time>2026-05-12T08:40:41Z</time>
      </trkpt>
      <trkpt lat="45.97917" lon="5.61621">
        <ele>920.4</ele>
        <time>2026-05-12T08:40:42Z</time>
      </trkpt>
      <trkpt lat="45.97918" lon="5.61623">
        <ele>920.4</ele>
        <time>2026-05-12T08:40:43Z</time>
      </trkpt>
      <trkpt lat="45.97918" lon="5.61625">
        <ele>920.6</ele>
        <time>2026-05-12T08:40:44Z</time>
      </trkpt>
      <trkpt lat="45.97919" lon="5.61627">
        <ele>921</ele>
        <time>2026-05-12T08:40:45Z</time>
      </trkpt>
      <trkpt lat="45.97919" lon="5.61628">
        <ele>921</ele>
        <time>2026-05-12T08:40:46Z</time>
      </trkpt>
      <trkpt lat="45.97919" lon="5.61629">
        <ele>921.4</ele>
        <time>2026-05-12T08:40:47Z</time>
      </trkpt>
      <trkpt lat="45.97919" lon="5.61631">
        <ele>921.4</ele>
        <time>2026-05-12T08:40:48Z</time>
      </trkpt>
      <trkpt lat="45.97919" lon="5.61632">
        <ele>921.8</ele>
        <time>2026-05-12T08:40:49Z</time>
      </trkpt>
      <trkpt lat="45.9792" lon="5.61633">
        <ele>922</ele>
        <time>2026-05-12T08:40:50Z</time>
      </trkpt>
      <trkpt lat="45.9792" lon="5.61636">
        <ele>922</ele>
        <time>2026-05-12T08:40:51Z</time>
      </trkpt>
      <trkpt lat="45.97921" lon="5.61638">
        <ele>922.4</ele>
        <time>2026-05-12T08:40:52Z</time>
      </trkpt>
      <trkpt lat="45.97922" lon="5.61639">
        <ele>922.6</ele>
        <time>2026-05-12T08:40:53Z</time>
      </trkpt>
      <trkpt lat="45.97923" lon="5.6164">
        <ele>922.6</ele>
        <time>2026-05-12T08:40:54Z</time>
      </trkpt>
      <trkpt lat="45.97923" lon="5.61642">
        <ele>923</ele>
        <time>2026-05-12T08:40:55Z</time>
      </trkpt>
      <trkpt lat="45.97924" lon="5.61644">
        <ele>923.4</ele>
        <time>2026-05-12T08:40:56Z</time>
      </trkpt>
      <trkpt lat="45.97925" lon="5.61645">
        <ele>923.6</ele>
        <time>2026-05-12T08:40:57Z</time>
      </trkpt>
      <trkpt lat="45.97925" lon="5.61646">
        <ele>923.6</ele>
        <time>2026-05-12T08:40:58Z</time>
      </trkpt>
      <trkpt lat="45.97926" lon="5.61648">
        <ele>924</ele>
        <time>2026-05-12T08:40:59Z</time>
      </trkpt>
      <trkpt lat="45.97927" lon="5.61649">
        <ele>924</ele>
        <time>2026-05-12T08:41:00Z</time>
      </trkpt>
      <trkpt lat="45.97927" lon="5.61651">
        <ele>924.2</ele>
        <time>2026-05-12T08:41:01Z</time>
      </trkpt>
      <trkpt lat="45.97927" lon="5.61653">
        <ele>924.2</ele>
        <time>2026-05-12T08:41:02Z</time>
      </trkpt>
      <trkpt lat="45.97927" lon="5.61655">
        <ele>924.6</ele>
        <time>2026-05-12T08:41:03Z</time>
      </trkpt>
      <trkpt lat="45.97928" lon="5.61657">
        <ele>925</ele>
        <time>2026-05-12T08:41:04Z</time>
      </trkpt>
      <trkpt lat="45.97929" lon="5.61658">
        <ele>925</ele>
        <time>2026-05-12T08:41:05Z</time>
      </trkpt>
      <trkpt lat="45.9793" lon="5.61659">
        <ele>925.4</ele>
        <time>2026-05-12T08:41:06Z</time>
      </trkpt>
      <trkpt lat="45.97931" lon="5.6166">
        <ele>925.6</ele>
        <time>2026-05-12T08:41:07Z</time>
      </trkpt>
      <trkpt lat="45.97931" lon="5.61661">
        <ele>925.8</ele>
        <time>2026-05-12T08:41:08Z</time>
      </trkpt>
      <trkpt lat="45.97932" lon="5.61662">
        <ele>926.2</ele>
        <time>2026-05-12T08:41:09Z</time>
      </trkpt>
      <trkpt lat="45.97933" lon="5.61663">
        <ele>926.4</ele>
        <time>2026-05-12T08:41:10Z</time>
      </trkpt>
      <trkpt lat="45.97934" lon="5.61664">
        <ele>926.4</ele>
        <time>2026-05-12T08:41:11Z</time>
      </trkpt>
      <trkpt lat="45.97935" lon="5.61666">
        <ele>926.8</ele>
        <time>2026-05-12T08:41:12Z</time>
      </trkpt>
      <trkpt lat="45.97936" lon="5.61667">
        <ele>927.2</ele>
        <time>2026-05-12T08:41:13Z</time>
      </trkpt>
      <trkpt lat="45.97936" lon="5.61669">
        <ele>927.4</ele>
        <time>2026-05-12T08:41:14Z</time>
      </trkpt>
      <trkpt lat="45.97937" lon="5.61669">
        <ele>927.8</ele>
        <time>2026-05-12T08:41:15Z</time>
      </trkpt>
      <trkpt lat="45.97937" lon="5.61671">
        <ele>928</ele>
        <time>2026-05-12T08:41:16Z</time>
      </trkpt>
      <trkpt lat="45.97937" lon="5.61673">
        <ele>928.4</ele>
        <time>2026-05-12T08:41:17Z</time>
      </trkpt>
      <trkpt lat="45.97938" lon="5.61675">
        <ele>928.6</ele>
        <time>2026-05-12T08:41:18Z</time>
      </trkpt>
      <trkpt lat="45.97939" lon="5.61676">
        <ele>928.8</ele>
        <time>2026-05-12T08:41:19Z</time>
      </trkpt>
      <trkpt lat="45.97939" lon="5.61677">
        <ele>929</ele>
        <time>2026-05-12T08:41:20Z</time>
      </trkpt>
      <trkpt lat="45.9794" lon="5.61677">
        <ele>929.4</ele>
        <time>2026-05-12T08:41:21Z</time>
      </trkpt>
      <trkpt lat="45.97941" lon="5.61678">
        <ele>929.6</ele>
        <time>2026-05-12T08:41:22Z</time>
      </trkpt>
      <trkpt lat="45.97942" lon="5.61679">
        <ele>929.8</ele>
        <time>2026-05-12T08:41:23Z</time>
      </trkpt>
      <trkpt lat="45.97945" lon="5.61681">
        <ele>930.2</ele>
        <time>2026-05-12T08:41:24Z</time>
      </trkpt>
      <trkpt lat="45.97946" lon="5.61682">
        <ele>930.4</ele>
        <time>2026-05-12T08:41:25Z</time>
      </trkpt>
      <trkpt lat="45.97947" lon="5.61684">
        <ele>930.6</ele>
        <time>2026-05-12T08:41:26Z</time>
      </trkpt>
      <trkpt lat="45.97948" lon="5.61685">
        <ele>931</ele>
        <time>2026-05-12T08:41:27Z</time>
      </trkpt>
      <trkpt lat="45.97948" lon="5.61686">
        <ele>931</ele>
        <time>2026-05-12T08:41:28Z</time>
      </trkpt>
      <trkpt lat="45.97949" lon="5.61687">
        <ele>931.4</ele>
        <time>2026-05-12T08:41:29Z</time>
      </trkpt>
      <trkpt lat="45.97949" lon="5.61687">
        <ele>931.4</ele>
        <time>2026-05-12T08:41:30Z</time>
      </trkpt>
      <trkpt lat="45.9795" lon="5.61687">
        <ele>931.8</ele>
        <time>2026-05-12T08:41:31Z</time>
      </trkpt>
      <trkpt lat="45.97951" lon="5.61689">
        <ele>931.8</ele>
        <time>2026-05-12T08:41:32Z</time>
      </trkpt>
      <trkpt lat="45.97952" lon="5.6169">
        <ele>932.2</ele>
        <time>2026-05-12T08:41:33Z</time>
      </trkpt>
      <trkpt lat="45.97953" lon="5.61691">
        <ele>932.2</ele>
        <time>2026-05-12T08:41:34Z</time>
      </trkpt>
      <trkpt lat="45.97953" lon="5.61691">
        <ele>932.6</ele>
        <time>2026-05-12T08:41:35Z</time>
      </trkpt>
      <trkpt lat="45.97954" lon="5.61692">
        <ele>933</ele>
        <time>2026-05-12T08:41:36Z</time>
      </trkpt>
      <trkpt lat="45.97955" lon="5.61694">
        <ele>933.2</ele>
        <time>2026-05-12T08:41:37Z</time>
      </trkpt>
      <trkpt lat="45.97956" lon="5.61695">
        <ele>933.2</ele>
        <time>2026-05-12T08:41:38Z</time>
      </trkpt>
      <trkpt lat="45.97957" lon="5.61695">
        <ele>933.6</ele>
        <time>2026-05-12T08:41:39Z</time>
      </trkpt>
      <trkpt lat="45.97958" lon="5.61695">
        <ele>933.8</ele>
        <time>2026-05-12T08:41:40Z</time>
      </trkpt>
      <trkpt lat="45.97959" lon="5.61696">
        <ele>933.8</ele>
        <time>2026-05-12T08:41:41Z</time>
      </trkpt>
      <trkpt lat="45.97961" lon="5.61696">
        <ele>934</ele>
        <time>2026-05-12T08:41:42Z</time>
      </trkpt>
      <trkpt lat="45.97962" lon="5.61697">
        <ele>934.2</ele>
        <time>2026-05-12T08:41:43Z</time>
      </trkpt>
      <trkpt lat="45.97963" lon="5.61697">
        <ele>934.2</ele>
        <time>2026-05-12T08:41:44Z</time>
      </trkpt>
      <trkpt lat="45.97964" lon="5.61698">
        <ele>934.6</ele>
        <time>2026-05-12T08:41:45Z</time>
      </trkpt>
      <trkpt lat="45.97965" lon="5.61699">
        <ele>934.6</ele>
        <time>2026-05-12T08:41:46Z</time>
      </trkpt>
      <trkpt lat="45.97967" lon="5.61699">
        <ele>934.8</ele>
        <time>2026-05-12T08:41:47Z</time>
      </trkpt>
      <trkpt lat="45.97968" lon="5.617">
        <ele>934.8</ele>
        <time>2026-05-12T08:41:48Z</time>
      </trkpt>
      <trkpt lat="45.9797" lon="5.617">
        <ele>935.2</ele>
        <time>2026-05-12T08:41:49Z</time>
      </trkpt>
      <trkpt lat="45.97971" lon="5.617">
        <ele>935.2</ele>
        <time>2026-05-12T08:41:50Z</time>
      </trkpt>
      <trkpt lat="45.97972" lon="5.61701">
        <ele>935.6</ele>
        <time>2026-05-12T08:41:51Z</time>
      </trkpt>
      <trkpt lat="45.97973" lon="5.61702">
        <ele>935.6</ele>
        <time>2026-05-12T08:41:52Z</time>
      </trkpt>
      <trkpt lat="45.97974" lon="5.61703">
        <ele>936</ele>
        <time>2026-05-12T08:41:53Z</time>
      </trkpt>
      <trkpt lat="45.97975" lon="5.61703">
        <ele>936.2</ele>
        <time>2026-05-12T08:41:54Z</time>
      </trkpt>
      <trkpt lat="45.97976" lon="5.61703">
        <ele>936.2</ele>
        <time>2026-05-12T08:41:55Z</time>
      </trkpt>
      <trkpt lat="45.97977" lon="5.61704">
        <ele>936.4</ele>
        <time>2026-05-12T08:41:56Z</time>
      </trkpt>
      <trkpt lat="45.97978" lon="5.61704">
        <ele>936.6</ele>
        <time>2026-05-12T08:41:57Z</time>
      </trkpt>
      <trkpt lat="45.97979" lon="5.61705">
        <ele>936.8</ele>
        <time>2026-05-12T08:41:58Z</time>
      </trkpt>
      <trkpt lat="45.9798" lon="5.61706">
        <ele>937.2</ele>
        <time>2026-05-12T08:41:59Z</time>
      </trkpt>
      <trkpt lat="45.97981" lon="5.61706">
        <ele>937.6</ele>
        <time>2026-05-12T08:42:00Z</time>
      </trkpt>
      <trkpt lat="45.97982" lon="5.61707">
        <ele>937.6</ele>
        <time>2026-05-12T08:42:01Z</time>
      </trkpt>
      <trkpt lat="45.97984" lon="5.61707">
        <ele>937.8</ele>
        <time>2026-05-12T08:42:02Z</time>
      </trkpt>
      <trkpt lat="45.97985" lon="5.61708">
        <ele>937.8</ele>
        <time>2026-05-12T08:42:03Z</time>
      </trkpt>
      <trkpt lat="45.97985" lon="5.61708">
        <ele>938.2</ele>
        <time>2026-05-12T08:42:04Z</time>
      </trkpt>
      <trkpt lat="45.97986" lon="5.61709">
        <ele>938.4</ele>
        <time>2026-05-12T08:42:05Z</time>
      </trkpt>
      <trkpt lat="45.97987" lon="5.61709">
        <ele>938.4</ele>
        <time>2026-05-12T08:42:06Z</time>
      </trkpt>
      <trkpt lat="45.97988" lon="5.61709">
        <ele>938.8</ele>
        <time>2026-05-12T08:42:07Z</time>
      </trkpt>
      <trkpt lat="45.9799" lon="5.61709">
        <ele>938.8</ele>
        <time>2026-05-12T08:42:08Z</time>
      </trkpt>
      <trkpt lat="45.97991" lon="5.61709">
        <ele>939</ele>
        <time>2026-05-12T08:42:09Z</time>
      </trkpt>
      <trkpt lat="45.97992" lon="5.61708">
        <ele>939</ele>
        <time>2026-05-12T08:42:10Z</time>
      </trkpt>
      <trkpt lat="45.97993" lon="5.61708">
        <ele>939</ele>
        <time>2026-05-12T08:42:11Z</time>
      </trkpt>
      <trkpt lat="45.97994" lon="5.61709">
        <ele>939.4</ele>
        <time>2026-05-12T08:42:12Z</time>
      </trkpt>
      <trkpt lat="45.97995" lon="5.6171">
        <ele>939.4</ele>
        <time>2026-05-12T08:42:13Z</time>
      </trkpt>
      <trkpt lat="45.97996" lon="5.6171">
        <ele>939.8</ele>
        <time>2026-05-12T08:42:14Z</time>
      </trkpt>
      <trkpt lat="45.97997" lon="5.61711">
        <ele>940</ele>
        <time>2026-05-12T08:42:15Z</time>
      </trkpt>
      <trkpt lat="45.97998" lon="5.61712">
        <ele>940.4</ele>
        <time>2026-05-12T08:42:16Z</time>
      </trkpt>
      <trkpt lat="45.97999" lon="5.61713">
        <ele>940.4</ele>
        <time>2026-05-12T08:42:17Z</time>
      </trkpt>
      <trkpt lat="45.97999" lon="5.61715">
        <ele>940.4</ele>
        <time>2026-05-12T08:42:18Z</time>
      </trkpt>
      <trkpt lat="45.97998" lon="5.61716">
        <ele>940.8</ele>
        <time>2026-05-12T08:42:19Z</time>
      </trkpt>
      <trkpt lat="45.97997" lon="5.61716">
        <ele>940.8</ele>
        <time>2026-05-12T08:42:20Z</time>
      </trkpt>
      <trkpt lat="45.97998" lon="5.61717">
        <ele>940.8</ele>
        <time>2026-05-12T08:42:21Z</time>
      </trkpt>
      <trkpt lat="45.97999" lon="5.61719">
        <ele>941</ele>
        <time>2026-05-12T08:42:22Z</time>
      </trkpt>
      <trkpt lat="45.98" lon="5.6172">
        <ele>941</ele>
        <time>2026-05-12T08:42:23Z</time>
      </trkpt>
      <trkpt lat="45.98001" lon="5.6172">
        <ele>941.4</ele>
        <time>2026-05-12T08:42:24Z</time>
      </trkpt>
      <trkpt lat="45.98003" lon="5.6172">
        <ele>941.6</ele>
        <time>2026-05-12T08:42:25Z</time>
      </trkpt>
      <trkpt lat="45.98004" lon="5.61721">
        <ele>942</ele>
        <time>2026-05-12T08:42:26Z</time>
      </trkpt>
      <trkpt lat="45.98006" lon="5.61721">
        <ele>942</ele>
        <time>2026-05-12T08:42:27Z</time>
      </trkpt>
      <trkpt lat="45.98007" lon="5.61721">
        <ele>942</ele>
        <time>2026-05-12T08:42:28Z</time>
      </trkpt>
      <trkpt lat="45.98009" lon="5.61722">
        <ele>942.4</ele>
        <time>2026-05-12T08:42:29Z</time>
      </trkpt>
      <trkpt lat="45.98011" lon="5.61723">
        <ele>942.4</ele>
        <time>2026-05-12T08:42:30Z</time>
      </trkpt>
      <trkpt lat="45.98012" lon="5.61724">
        <ele>942.6</ele>
        <time>2026-05-12T08:42:31Z</time>
      </trkpt>
      <trkpt lat="45.98013" lon="5.61726">
        <ele>942.6</ele>
        <time>2026-05-12T08:42:32Z</time>
      </trkpt>
      <trkpt lat="45.98015" lon="5.61728">
        <ele>943</ele>
        <time>2026-05-12T08:42:33Z</time>
      </trkpt>
      <trkpt lat="45.98016" lon="5.61729">
        <ele>943.2</ele>
        <time>2026-05-12T08:42:34Z</time>
      </trkpt>
      <trkpt lat="45.98016" lon="5.6173">
        <ele>943.2</ele>
        <time>2026-05-12T08:42:35Z</time>
      </trkpt>
      <trkpt lat="45.98018" lon="5.61731">
        <ele>943.6</ele>
        <time>2026-05-12T08:42:36Z</time>
      </trkpt>
      <trkpt lat="45.9802" lon="5.61731">
        <ele>943.6</ele>
        <time>2026-05-12T08:42:37Z</time>
      </trkpt>
      <trkpt lat="45.98021" lon="5.61732">
        <ele>944</ele>
        <time>2026-05-12T08:42:38Z</time>
      </trkpt>
      <trkpt lat="45.98022" lon="5.61734">
        <ele>944.2</ele>
        <time>2026-05-12T08:42:39Z</time>
      </trkpt>
      <trkpt lat="45.98022" lon="5.61736">
        <ele>944.2</ele>
        <time>2026-05-12T08:42:40Z</time>
      </trkpt>
      <trkpt lat="45.98023" lon="5.61738">
        <ele>944.6</ele>
        <time>2026-05-12T08:42:41Z</time>
      </trkpt>
      <trkpt lat="45.98023" lon="5.61739">
        <ele>944.6</ele>
        <time>2026-05-12T08:42:42Z</time>
      </trkpt>
      <trkpt lat="45.98024" lon="5.6174">
        <ele>945</ele>
        <time>2026-05-12T08:42:43Z</time>
      </trkpt>
      <trkpt lat="45.98025" lon="5.61742">
        <ele>945.2</ele>
        <time>2026-05-12T08:42:44Z</time>
      </trkpt>
      <trkpt lat="45.98026" lon="5.61743">
        <ele>945.2</ele>
        <time>2026-05-12T08:42:45Z</time>
      </trkpt>
      <trkpt lat="45.98027" lon="5.61744">
        <ele>945.6</ele>
        <time>2026-05-12T08:42:46Z</time>
      </trkpt>
      <trkpt lat="45.98028" lon="5.61744">
        <ele>945.6</ele>
        <time>2026-05-12T08:42:47Z</time>
      </trkpt>
      <trkpt lat="45.98029" lon="5.61745">
        <ele>946</ele>
        <time>2026-05-12T08:42:48Z</time>
      </trkpt>
      <trkpt lat="45.9803" lon="5.61745">
        <ele>946</ele>
        <time>2026-05-12T08:42:49Z</time>
      </trkpt>
      <trkpt lat="45.98031" lon="5.61745">
        <ele>946.2</ele>
        <time>2026-05-12T08:42:50Z</time>
      </trkpt>
      <trkpt lat="45.98032" lon="5.61746">
        <ele>946.2</ele>
        <time>2026-05-12T08:42:51Z</time>
      </trkpt>
      <trkpt lat="45.98034" lon="5.61746">
        <ele>946.4</ele>
        <time>2026-05-12T08:42:52Z</time>
      </trkpt>
      <trkpt lat="45.98035" lon="5.61746">
        <ele>946.6</ele>
        <time>2026-05-12T08:42:53Z</time>
      </trkpt>
      <trkpt lat="45.98036" lon="5.61749">
        <ele>946.8</ele>
        <time>2026-05-12T08:42:54Z</time>
      </trkpt>
      <trkpt lat="45.98038" lon="5.61751">
        <ele>946.8</ele>
        <time>2026-05-12T08:42:55Z</time>
      </trkpt>
      <trkpt lat="45.98039" lon="5.61752">
        <ele>947.2</ele>
        <time>2026-05-12T08:42:56Z</time>
      </trkpt>
      <trkpt lat="45.98039" lon="5.61753">
        <ele>947.2</ele>
        <time>2026-05-12T08:42:57Z</time>
      </trkpt>
      <trkpt lat="45.9804" lon="5.61753">
        <ele>947.4</ele>
        <time>2026-05-12T08:42:58Z</time>
      </trkpt>
      <trkpt lat="45.98041" lon="5.61754">
        <ele>947.6</ele>
        <time>2026-05-12T08:42:59Z</time>
      </trkpt>
      <trkpt lat="45.98043" lon="5.61756">
        <ele>947.6</ele>
        <time>2026-05-12T08:43:00Z</time>
      </trkpt>
      <trkpt lat="45.98045" lon="5.61758">
        <ele>948</ele>
        <time>2026-05-12T08:43:01Z</time>
      </trkpt>
      <trkpt lat="45.98047" lon="5.61759">
        <ele>948</ele>
        <time>2026-05-12T08:43:02Z</time>
      </trkpt>
      <trkpt lat="45.98048" lon="5.6176">
        <ele>948</ele>
        <time>2026-05-12T08:43:03Z</time>
      </trkpt>
      <trkpt lat="45.98049" lon="5.61761">
        <ele>948</ele>
        <time>2026-05-12T08:43:04Z</time>
      </trkpt>
      <trkpt lat="45.98051" lon="5.61763">
        <ele>948.4</ele>
        <time>2026-05-12T08:43:05Z</time>
      </trkpt>
      <trkpt lat="45.98053" lon="5.61764">
        <ele>948.4</ele>
        <time>2026-05-12T08:43:06Z</time>
      </trkpt>
      <trkpt lat="45.98055" lon="5.61764">
        <ele>948.6</ele>
        <time>2026-05-12T08:43:07Z</time>
      </trkpt>
      <trkpt lat="45.98057" lon="5.61764">
        <ele>948.6</ele>
        <time>2026-05-12T08:43:08Z</time>
      </trkpt>
      <trkpt lat="45.98059" lon="5.61765">
        <ele>948.6</ele>
        <time>2026-05-12T08:43:09Z</time>
      </trkpt>
      <trkpt lat="45.98062" lon="5.61766">
        <ele>948.8</ele>
        <time>2026-05-12T08:43:10Z</time>
      </trkpt>
      <trkpt lat="45.98064" lon="5.61767">
        <ele>948.8</ele>
        <time>2026-05-12T08:43:11Z</time>
      </trkpt>
      <trkpt lat="45.98066" lon="5.61767">
        <ele>949</ele>
        <time>2026-05-12T08:43:12Z</time>
      </trkpt>
      <trkpt lat="45.98067" lon="5.61768">
        <ele>949</ele>
        <time>2026-05-12T08:43:13Z</time>
      </trkpt>
      <trkpt lat="45.98069" lon="5.61769">
        <ele>949</ele>
        <time>2026-05-12T08:43:14Z</time>
      </trkpt>
      <trkpt lat="45.9807" lon="5.6177">
        <ele>949.4</ele>
        <time>2026-05-12T08:43:15Z</time>
      </trkpt>
      <trkpt lat="45.98072" lon="5.6177">
        <ele>949.4</ele>
        <time>2026-05-12T08:43:16Z</time>
      </trkpt>
      <trkpt lat="45.98073" lon="5.6177">
        <ele>949.4</ele>
        <time>2026-05-12T08:43:17Z</time>
      </trkpt>
      <trkpt lat="45.98074" lon="5.6177">
        <ele>949.6</ele>
        <time>2026-05-12T08:43:18Z</time>
      </trkpt>
      <trkpt lat="45.98076" lon="5.6177">
        <ele>949.6</ele>
        <time>2026-05-12T08:43:19Z</time>
      </trkpt>
      <trkpt lat="45.98077" lon="5.6177">
        <ele>949.6</ele>
        <time>2026-05-12T08:43:20Z</time>
      </trkpt>
      <trkpt lat="45.98079" lon="5.61771">
        <ele>950</ele>
        <time>2026-05-12T08:43:21Z</time>
      </trkpt>
      <trkpt lat="45.9808" lon="5.61771">
        <ele>950</ele>
        <time>2026-05-12T08:43:22Z</time>
      </trkpt>
      <trkpt lat="45.9808" lon="5.61772">
        <ele>950</ele>
        <time>2026-05-12T08:43:23Z</time>
      </trkpt>
      <trkpt lat="45.98081" lon="5.61773">
        <ele>950.2</ele>
        <time>2026-05-12T08:43:24Z</time>
      </trkpt>
      <trkpt lat="45.98082" lon="5.61775">
        <ele>950.2</ele>
        <time>2026-05-12T08:43:25Z</time>
      </trkpt>
      <trkpt lat="45.98083" lon="5.61776">
        <ele>950.2</ele>
        <time>2026-05-12T08:43:26Z</time>
      </trkpt>
      <trkpt lat="45.98084" lon="5.61777">
        <ele>950.6</ele>
        <time>2026-05-12T08:43:27Z</time>
      </trkpt>
      <trkpt lat="45.98086" lon="5.61778">
        <ele>950.6</ele>
        <time>2026-05-12T08:43:28Z</time>
      </trkpt>
      <trkpt lat="45.98087" lon="5.6178">
        <ele>950.8</ele>
        <time>2026-05-12T08:43:29Z</time>
      </trkpt>
      <trkpt lat="45.98088" lon="5.61781">
        <ele>950.8</ele>
        <time>2026-05-12T08:43:30Z</time>
      </trkpt>
      <trkpt lat="45.9809" lon="5.61782">
        <ele>951.2</ele>
        <time>2026-05-12T08:43:31Z</time>
      </trkpt>
      <trkpt lat="45.98091" lon="5.61783">
        <ele>951.2</ele>
        <time>2026-05-12T08:43:32Z</time>
      </trkpt>
      <trkpt lat="45.98092" lon="5.61784">
        <ele>951.2</ele>
        <time>2026-05-12T08:43:33Z</time>
      </trkpt>
      <trkpt lat="45.98093" lon="5.61785">
        <ele>951.2</ele>
        <time>2026-05-12T08:43:34Z</time>
      </trkpt>
      <trkpt lat="45.98094" lon="5.61786">
        <ele>951.2</ele>
        <time>2026-05-12T08:43:35Z</time>
      </trkpt>
      <trkpt lat="45.98095" lon="5.61788">
        <ele>951.6</ele>
        <time>2026-05-12T08:43:36Z</time>
      </trkpt>
      <trkpt lat="45.98095" lon="5.61789">
        <ele>951.6</ele>
        <time>2026-05-12T08:43:37Z</time>
      </trkpt>
      <trkpt lat="45.98096" lon="5.6179">
        <ele>951.8</ele>
        <time>2026-05-12T08:43:38Z</time>
      </trkpt>
      <trkpt lat="45.98097" lon="5.61791">
        <ele>951.8</ele>
        <time>2026-05-12T08:43:39Z</time>
      </trkpt>
      <trkpt lat="45.98099" lon="5.61792">
        <ele>951.8</ele>
        <time>2026-05-12T08:43:40Z</time>
      </trkpt>
      <trkpt lat="45.981" lon="5.61793">
        <ele>952.2</ele>
        <time>2026-05-12T08:43:41Z</time>
      </trkpt>
      <trkpt lat="45.98101" lon="5.61794">
        <ele>952.4</ele>
        <time>2026-05-12T08:43:42Z</time>
      </trkpt>
      <trkpt lat="45.98102" lon="5.61796">
        <ele>952.4</ele>
        <time>2026-05-12T08:43:43Z</time>
      </trkpt>
      <trkpt lat="45.98104" lon="5.61797">
        <ele>952.6</ele>
        <time>2026-05-12T08:43:44Z</time>
      </trkpt>
      <trkpt lat="45.98105" lon="5.61799">
        <ele>952.6</ele>
        <time>2026-05-12T08:43:45Z</time>
      </trkpt>
      <trkpt lat="45.98106" lon="5.618">
        <ele>953</ele>
        <time>2026-05-12T08:43:46Z</time>
      </trkpt>
      <trkpt lat="45.98107" lon="5.61801">
        <ele>953</ele>
        <time>2026-05-12T08:43:47Z</time>
      </trkpt>
      <trkpt lat="45.98107" lon="5.61803">
        <ele>953.2</ele>
        <time>2026-05-12T08:43:48Z</time>
      </trkpt>
      <trkpt lat="45.98108" lon="5.61804">
        <ele>953.2</ele>
        <time>2026-05-12T08:43:49Z</time>
      </trkpt>
      <trkpt lat="45.98108" lon="5.61806">
        <ele>953.6</ele>
        <time>2026-05-12T08:43:50Z</time>
      </trkpt>
      <trkpt lat="45.98107" lon="5.61807">
        <ele>953.8</ele>
        <time>2026-05-12T08:43:51Z</time>
      </trkpt>
      <trkpt lat="45.98107" lon="5.61809">
        <ele>954.2</ele>
        <time>2026-05-12T08:43:52Z</time>
      </trkpt>
      <trkpt lat="45.98108" lon="5.61811">
        <ele>954.4</ele>
        <time>2026-05-12T08:43:53Z</time>
      </trkpt>
      <trkpt lat="45.9811" lon="5.61813">
        <ele>954.6</ele>
        <time>2026-05-12T08:43:54Z</time>
      </trkpt>
      <trkpt lat="45.98111" lon="5.61814">
        <ele>954.8</ele>
        <time>2026-05-12T08:43:55Z</time>
      </trkpt>
      <trkpt lat="45.98113" lon="5.61815">
        <ele>954.8</ele>
        <time>2026-05-12T08:43:56Z</time>
      </trkpt>
      <trkpt lat="45.98114" lon="5.61816">
        <ele>955</ele>
        <time>2026-05-12T08:43:57Z</time>
      </trkpt>
      <trkpt lat="45.98116" lon="5.61817">
        <ele>955.4</ele>
        <time>2026-05-12T08:43:58Z</time>
      </trkpt>
      <trkpt lat="45.98116" lon="5.61818">
        <ele>955.6</ele>
        <time>2026-05-12T08:43:59Z</time>
      </trkpt>
      <trkpt lat="45.98117" lon="5.61819">
        <ele>955.6</ele>
        <time>2026-05-12T08:44:00Z</time>
      </trkpt>
      <trkpt lat="45.98118" lon="5.61821">
        <ele>956</ele>
        <time>2026-05-12T08:44:01Z</time>
      </trkpt>
      <trkpt lat="45.98119" lon="5.61823">
        <ele>956</ele>
        <time>2026-05-12T08:44:02Z</time>
      </trkpt>
      <trkpt lat="45.9812" lon="5.61825">
        <ele>956.4</ele>
        <time>2026-05-12T08:44:03Z</time>
      </trkpt>
      <trkpt lat="45.98121" lon="5.61827">
        <ele>956.4</ele>
        <time>2026-05-12T08:44:04Z</time>
      </trkpt>
      <trkpt lat="45.98123" lon="5.61828">
        <ele>956.4</ele>
        <time>2026-05-12T08:44:05Z</time>
      </trkpt>
      <trkpt lat="45.98124" lon="5.6183">
        <ele>956.8</ele>
        <time>2026-05-12T08:44:06Z</time>
      </trkpt>
      <trkpt lat="45.98125" lon="5.61833">
        <ele>957</ele>
        <time>2026-05-12T08:44:07Z</time>
      </trkpt>
      <trkpt lat="45.98126" lon="5.61835">
        <ele>957</ele>
        <time>2026-05-12T08:44:08Z</time>
      </trkpt>
      <trkpt lat="45.98126" lon="5.61837">
        <ele>957.2</ele>
        <time>2026-05-12T08:44:09Z</time>
      </trkpt>
      <trkpt lat="45.98127" lon="5.61838">
        <ele>957.4</ele>
        <time>2026-05-12T08:44:10Z</time>
      </trkpt>
      <trkpt lat="45.98128" lon="5.6184">
        <ele>957.4</ele>
        <time>2026-05-12T08:44:11Z</time>
      </trkpt>
      <trkpt lat="45.98129" lon="5.61841">
        <ele>957.8</ele>
        <time>2026-05-12T08:44:12Z</time>
      </trkpt>
      <trkpt lat="45.9813" lon="5.61843">
        <ele>958</ele>
        <time>2026-05-12T08:44:13Z</time>
      </trkpt>
      <trkpt lat="45.98131" lon="5.61844">
        <ele>958</ele>
        <time>2026-05-12T08:44:14Z</time>
      </trkpt>
      <trkpt lat="45.98131" lon="5.61846">
        <ele>958.2</ele>
        <time>2026-05-12T08:44:15Z</time>
      </trkpt>
      <trkpt lat="45.98132" lon="5.61846">
        <ele>958.2</ele>
        <time>2026-05-12T08:44:16Z</time>
      </trkpt>
      <trkpt lat="45.98132" lon="5.61848">
        <ele>958.6</ele>
        <time>2026-05-12T08:44:17Z</time>
      </trkpt>
      <trkpt lat="45.98133" lon="5.6185">
        <ele>958.6</ele>
        <time>2026-05-12T08:44:18Z</time>
      </trkpt>
      <trkpt lat="45.98133" lon="5.61852">
        <ele>958.8</ele>
        <time>2026-05-12T08:44:19Z</time>
      </trkpt>
      <trkpt lat="45.98134" lon="5.61853">
        <ele>959</ele>
        <time>2026-05-12T08:44:20Z</time>
      </trkpt>
      <trkpt lat="45.98135" lon="5.61855">
        <ele>959</ele>
        <time>2026-05-12T08:44:21Z</time>
      </trkpt>
      <trkpt lat="45.98136" lon="5.61856">
        <ele>959.4</ele>
        <time>2026-05-12T08:44:22Z</time>
      </trkpt>
      <trkpt lat="45.98137" lon="5.61858">
        <ele>959.4</ele>
        <time>2026-05-12T08:44:23Z</time>
      </trkpt>
      <trkpt lat="45.98138" lon="5.61859">
        <ele>959.6</ele>
        <time>2026-05-12T08:44:24Z</time>
      </trkpt>
      <trkpt lat="45.98139" lon="5.61861">
        <ele>959.8</ele>
        <time>2026-05-12T08:44:25Z</time>
      </trkpt>
      <trkpt lat="45.98141" lon="5.61861">
        <ele>960</ele>
        <time>2026-05-12T08:44:26Z</time>
      </trkpt>
      <trkpt lat="45.98141" lon="5.61862">
        <ele>960</ele>
        <time>2026-05-12T08:44:27Z</time>
      </trkpt>
      <trkpt lat="45.98143" lon="5.61863">
        <ele>960.2</ele>
        <time>2026-05-12T08:44:28Z</time>
      </trkpt>
      <trkpt lat="45.98143" lon="5.61864">
        <ele>960.2</ele>
        <time>2026-05-12T08:44:29Z</time>
      </trkpt>
      <trkpt lat="45.98144" lon="5.61864">
        <ele>960.6</ele>
        <time>2026-05-12T08:44:30Z</time>
      </trkpt>
      <trkpt lat="45.98146" lon="5.61865">
        <ele>960.6</ele>
        <time>2026-05-12T08:44:31Z</time>
      </trkpt>
      <trkpt lat="45.98148" lon="5.61867">
        <ele>961</ele>
        <time>2026-05-12T08:44:32Z</time>
      </trkpt>
      <trkpt lat="45.98149" lon="5.61869">
        <ele>961</ele>
        <time>2026-05-12T08:44:33Z</time>
      </trkpt>
      <trkpt lat="45.9815" lon="5.61873">
        <ele>961.2</ele>
        <time>2026-05-12T08:44:34Z</time>
      </trkpt>
      <trkpt lat="45.9815" lon="5.61874">
        <ele>961.2</ele>
        <time>2026-05-12T08:44:35Z</time>
      </trkpt>
      <trkpt lat="45.9815" lon="5.61874">
        <ele>961.6</ele>
        <time>2026-05-12T08:44:36Z</time>
      </trkpt>
      <trkpt lat="45.9815" lon="5.61873">
        <ele>961.8</ele>
        <time>2026-05-12T08:44:37Z</time>
      </trkpt>
      <trkpt lat="45.9815" lon="5.61873">
        <ele>962.2</ele>
        <time>2026-05-12T08:44:38Z</time>
      </trkpt>
      <trkpt lat="45.98151" lon="5.61874">
        <ele>962.2</ele>
        <time>2026-05-12T08:44:39Z</time>
      </trkpt>
      <trkpt lat="45.98151" lon="5.61876">
        <ele>962.4</ele>
        <time>2026-05-12T08:44:40Z</time>
      </trkpt>
      <trkpt lat="45.98152" lon="5.61877">
        <ele>962.4</ele>
        <time>2026-05-12T08:44:41Z</time>
      </trkpt>
      <trkpt lat="45.98153" lon="5.61884">
        <ele>962.6</ele>
        <time>2026-05-12T08:44:42Z</time>
      </trkpt>
      <trkpt lat="45.98154" lon="5.61886">
        <ele>962.8</ele>
        <time>2026-05-12T08:44:43Z</time>
      </trkpt>
      <trkpt lat="45.98154" lon="5.61887">
        <ele>963.2</ele>
        <time>2026-05-12T08:44:44Z</time>
      </trkpt>
      <trkpt lat="45.98156" lon="5.61888">
        <ele>963.4</ele>
        <time>2026-05-12T08:44:45Z</time>
      </trkpt>
      <trkpt lat="45.98156" lon="5.61888">
        <ele>963.4</ele>
        <time>2026-05-12T08:44:46Z</time>
      </trkpt>
      <trkpt lat="45.98157" lon="5.6189">
        <ele>963.8</ele>
        <time>2026-05-12T08:44:47Z</time>
      </trkpt>
      <trkpt lat="45.98158" lon="5.61891">
        <ele>963.8</ele>
        <time>2026-05-12T08:44:48Z</time>
      </trkpt>
      <trkpt lat="45.9816" lon="5.61892">
        <ele>964.2</ele>
        <time>2026-05-12T08:44:49Z</time>
      </trkpt>
      <trkpt lat="45.98161" lon="5.61894">
        <ele>964.4</ele>
        <time>2026-05-12T08:44:50Z</time>
      </trkpt>
      <trkpt lat="45.98162" lon="5.61895">
        <ele>964.4</ele>
        <time>2026-05-12T08:44:51Z</time>
      </trkpt>
      <trkpt lat="45.98162" lon="5.61898">
        <ele>964.8</ele>
        <time>2026-05-12T08:44:52Z</time>
      </trkpt>
      <trkpt lat="45.98163" lon="5.619">
        <ele>965</ele>
        <time>2026-05-12T08:44:53Z</time>
      </trkpt>
      <trkpt lat="45.98164" lon="5.61901">
        <ele>965.4</ele>
        <time>2026-05-12T08:44:54Z</time>
      </trkpt>
      <trkpt lat="45.98165" lon="5.61903">
        <ele>965.4</ele>
        <time>2026-05-12T08:44:55Z</time>
      </trkpt>
      <trkpt lat="45.98164" lon="5.61905">
        <ele>965.8</ele>
        <time>2026-05-12T08:44:56Z</time>
      </trkpt>
      <trkpt lat="45.98164" lon="5.61906">
        <ele>966</ele>
        <time>2026-05-12T08:44:57Z</time>
      </trkpt>
      <trkpt lat="45.98165" lon="5.61907">
        <ele>966.2</ele>
        <time>2026-05-12T08:44:58Z</time>
      </trkpt>
      <trkpt lat="45.98167" lon="5.61907">
        <ele>966.6</ele>
        <time>2026-05-12T08:44:59Z</time>
      </trkpt>
      <trkpt lat="45.98168" lon="5.61907">
        <ele>966.6</ele>
        <time>2026-05-12T08:45:00Z</time>
      </trkpt>
      <trkpt lat="45.98169" lon="5.61908">
        <ele>967</ele>
        <time>2026-05-12T08:45:01Z</time>
      </trkpt>
      <trkpt lat="45.9817" lon="5.6191">
        <ele>967</ele>
        <time>2026-05-12T08:45:02Z</time>
      </trkpt>
      <trkpt lat="45.9817" lon="5.61912">
        <ele>967.4</ele>
        <time>2026-05-12T08:45:03Z</time>
      </trkpt>
      <trkpt lat="45.98171" lon="5.61913">
        <ele>967.4</ele>
        <time>2026-05-12T08:45:04Z</time>
      </trkpt>
      <trkpt lat="45.98173" lon="5.61914">
        <ele>967.8</ele>
        <time>2026-05-12T08:45:05Z</time>
      </trkpt>
      <trkpt lat="45.98175" lon="5.61914">
        <ele>967.8</ele>
        <time>2026-05-12T08:45:06Z</time>
      </trkpt>
      <trkpt lat="45.98176" lon="5.61914">
        <ele>968</ele>
        <time>2026-05-12T08:45:07Z</time>
      </trkpt>
      <trkpt lat="45.98178" lon="5.61915">
        <ele>968.2</ele>
        <time>2026-05-12T08:45:08Z</time>
      </trkpt>
      <trkpt lat="45.98179" lon="5.61915">
        <ele>968.4</ele>
        <time>2026-05-12T08:45:09Z</time>
      </trkpt>
      <trkpt lat="45.9818" lon="5.61917">
        <ele>968.6</ele>
        <time>2026-05-12T08:45:10Z</time>
      </trkpt>
      <trkpt lat="45.98182" lon="5.61918">
        <ele>968.6</ele>
        <time>2026-05-12T08:45:11Z</time>
      </trkpt>
      <trkpt lat="45.98183" lon="5.61919">
        <ele>968.8</ele>
        <time>2026-05-12T08:45:12Z</time>
      </trkpt>
      <trkpt lat="45.98184" lon="5.6192">
        <ele>969.2</ele>
        <time>2026-05-12T08:45:13Z</time>
      </trkpt>
      <trkpt lat="45.98184" lon="5.6192">
        <ele>969.2</ele>
        <time>2026-05-12T08:45:14Z</time>
      </trkpt>
      <trkpt lat="45.98185" lon="5.61921">
        <ele>969.2</ele>
        <time>2026-05-12T08:45:15Z</time>
      </trkpt>
      <trkpt lat="45.98186" lon="5.61922">
        <ele>969.4</ele>
        <time>2026-05-12T08:45:16Z</time>
      </trkpt>
      <trkpt lat="45.98187" lon="5.61923">
        <ele>969.4</ele>
        <time>2026-05-12T08:45:17Z</time>
      </trkpt>
      <trkpt lat="45.98189" lon="5.61924">
        <ele>969.8</ele>
        <time>2026-05-12T08:45:18Z</time>
      </trkpt>
      <trkpt lat="45.9819" lon="5.61925">
        <ele>969.8</ele>
        <time>2026-05-12T08:45:19Z</time>
      </trkpt>
      <trkpt lat="45.98192" lon="5.61926">
        <ele>970</ele>
        <time>2026-05-12T08:45:20Z</time>
      </trkpt>
      <trkpt lat="45.98193" lon="5.61927">
        <ele>970.2</ele>
        <time>2026-05-12T08:45:21Z</time>
      </trkpt>
      <trkpt lat="45.98195" lon="5.61927">
        <ele>970.2</ele>
        <time>2026-05-12T08:45:22Z</time>
      </trkpt>
      <trkpt lat="45.98196" lon="5.61928">
        <ele>970.4</ele>
        <time>2026-05-12T08:45:23Z</time>
      </trkpt>
      <trkpt lat="45.98197" lon="5.61929">
        <ele>970.8</ele>
        <time>2026-05-12T08:45:24Z</time>
      </trkpt>
      <trkpt lat="45.98197" lon="5.61929">
        <ele>970.8</ele>
        <time>2026-05-12T08:45:25Z</time>
      </trkpt>
      <trkpt lat="45.98199" lon="5.6193">
        <ele>970.8</ele>
        <time>2026-05-12T08:45:26Z</time>
      </trkpt>
      <trkpt lat="45.982" lon="5.6193">
        <ele>971</ele>
        <time>2026-05-12T08:45:27Z</time>
      </trkpt>
      <trkpt lat="45.98201" lon="5.61932">
        <ele>971</ele>
        <time>2026-05-12T08:45:28Z</time>
      </trkpt>
      <trkpt lat="45.98202" lon="5.61933">
        <ele>971.4</ele>
        <time>2026-05-12T08:45:29Z</time>
      </trkpt>
      <trkpt lat="45.98204" lon="5.61934">
        <ele>971.4</ele>
        <time>2026-05-12T08:45:30Z</time>
      </trkpt>
      <trkpt lat="45.98206" lon="5.61934">
        <ele>971.4</ele>
        <time>2026-05-12T08:45:31Z</time>
      </trkpt>
      <trkpt lat="45.98207" lon="5.61934">
        <ele>971.8</ele>
        <time>2026-05-12T08:45:32Z</time>
      </trkpt>
      <trkpt lat="45.98208" lon="5.61934">
        <ele>971.8</ele>
        <time>2026-05-12T08:45:33Z</time>
      </trkpt>
      <trkpt lat="45.98209" lon="5.61935">
        <ele>972</ele>
        <time>2026-05-12T08:45:34Z</time>
      </trkpt>
      <trkpt lat="45.98211" lon="5.61936">
        <ele>972</ele>
        <time>2026-05-12T08:45:35Z</time>
      </trkpt>
      <trkpt lat="45.98212" lon="5.61938">
        <ele>972.2</ele>
        <time>2026-05-12T08:45:36Z</time>
      </trkpt>
      <trkpt lat="45.98214" lon="5.6194">
        <ele>971</ele>
        <time>2026-05-12T08:45:37Z</time>
      </trkpt>
      <trkpt lat="45.98216" lon="5.61941">
        <ele>971.6</ele>
        <time>2026-05-12T08:45:38Z</time>
      </trkpt>
      <trkpt lat="45.98218" lon="5.61942">
        <ele>971.8</ele>
        <time>2026-05-12T08:45:39Z</time>
      </trkpt>
      <trkpt lat="45.98219" lon="5.61943">
        <ele>971.8</ele>
        <time>2026-05-12T08:45:40Z</time>
      </trkpt>
      <trkpt lat="45.98221" lon="5.61943">
        <ele>972.2</ele>
        <time>2026-05-12T08:45:41Z</time>
      </trkpt>
      <trkpt lat="45.98222" lon="5.61943">
        <ele>972.4</ele>
        <time>2026-05-12T08:45:42Z</time>
      </trkpt>
      <trkpt lat="45.98222" lon="5.61942">
        <ele>972.8</ele>
        <time>2026-05-12T08:45:43Z</time>
      </trkpt>
      <trkpt lat="45.98224" lon="5.61943">
        <ele>973</ele>
        <time>2026-05-12T08:45:44Z</time>
      </trkpt>
      <trkpt lat="45.98226" lon="5.61944">
        <ele>973.2</ele>
        <time>2026-05-12T08:45:45Z</time>
      </trkpt>
      <trkpt lat="45.98227" lon="5.61944">
        <ele>973.4</ele>
        <time>2026-05-12T08:45:46Z</time>
      </trkpt>
      <trkpt lat="45.98229" lon="5.61945">
        <ele>973.4</ele>
        <time>2026-05-12T08:45:47Z</time>
      </trkpt>
      <trkpt lat="45.9823" lon="5.61945">
        <ele>973.8</ele>
        <time>2026-05-12T08:45:48Z</time>
      </trkpt>
      <trkpt lat="45.98231" lon="5.61945">
        <ele>973.8</ele>
        <time>2026-05-12T08:45:49Z</time>
      </trkpt>
      <trkpt lat="45.98232" lon="5.61945">
        <ele>973.8</ele>
        <time>2026-05-12T08:45:50Z</time>
      </trkpt>
      <trkpt lat="45.98234" lon="5.61945">
        <ele>974</ele>
        <time>2026-05-12T08:45:51Z</time>
      </trkpt>
      <trkpt lat="45.98236" lon="5.61945">
        <ele>974</ele>
        <time>2026-05-12T08:45:52Z</time>
      </trkpt>
      <trkpt lat="45.98238" lon="5.61946">
        <ele>974.6</ele>
        <time>2026-05-12T08:45:53Z</time>
      </trkpt>
      <trkpt lat="45.9824" lon="5.61947">
        <ele>974.6</ele>
        <time>2026-05-12T08:45:54Z</time>
      </trkpt>
      <trkpt lat="45.98241" lon="5.61948">
        <ele>974.8</ele>
        <time>2026-05-12T08:45:55Z</time>
      </trkpt>
      <trkpt lat="45.98242" lon="5.61948">
        <ele>974.8</ele>
        <time>2026-05-12T08:45:56Z</time>
      </trkpt>
      <trkpt lat="45.98243" lon="5.61949">
        <ele>975.2</ele>
        <time>2026-05-12T08:45:57Z</time>
      </trkpt>
      <trkpt lat="45.98244" lon="5.61949">
        <ele>975.6</ele>
        <time>2026-05-12T08:45:58Z</time>
      </trkpt>
      <trkpt lat="45.98245" lon="5.61949">
        <ele>975.6</ele>
        <time>2026-05-12T08:45:59Z</time>
      </trkpt>
      <trkpt lat="45.98246" lon="5.61951">
        <ele>975.6</ele>
        <time>2026-05-12T08:46:00Z</time>
      </trkpt>
      <trkpt lat="45.98247" lon="5.61952">
        <ele>975.6</ele>
        <time>2026-05-12T08:46:01Z</time>
      </trkpt>
      <trkpt lat="45.98248" lon="5.61955">
        <ele>975.8</ele>
        <time>2026-05-12T08:46:02Z</time>
      </trkpt>
      <trkpt lat="45.98249" lon="5.61957">
        <ele>975.8</ele>
        <time>2026-05-12T08:46:03Z</time>
      </trkpt>
      <trkpt lat="45.98251" lon="5.61958">
        <ele>975.8</ele>
        <time>2026-05-12T08:46:04Z</time>
      </trkpt>
      <trkpt lat="45.98253" lon="5.61958">
        <ele>975.8</ele>
        <time>2026-05-12T08:46:05Z</time>
      </trkpt>
      <trkpt lat="45.98254" lon="5.61957">
        <ele>975.8</ele>
        <time>2026-05-12T08:46:06Z</time>
      </trkpt>
      <trkpt lat="45.98256" lon="5.61957">
        <ele>976.4</ele>
        <time>2026-05-12T08:46:07Z</time>
      </trkpt>
      <trkpt lat="45.98258" lon="5.61957">
        <ele>976.4</ele>
        <time>2026-05-12T08:46:08Z</time>
      </trkpt>
      <trkpt lat="45.98259" lon="5.61958">
        <ele>976.4</ele>
        <time>2026-05-12T08:46:09Z</time>
      </trkpt>
      <trkpt lat="45.98262" lon="5.61958">
        <ele>976.6</ele>
        <time>2026-05-12T08:46:10Z</time>
      </trkpt>
      <trkpt lat="45.98263" lon="5.61958">
        <ele>976.6</ele>
        <time>2026-05-12T08:46:11Z</time>
      </trkpt>
      <trkpt lat="45.98265" lon="5.61958">
        <ele>976.6</ele>
        <time>2026-05-12T08:46:12Z</time>
      </trkpt>
      <trkpt lat="45.98267" lon="5.61959">
        <ele>977</ele>
        <time>2026-05-12T08:46:13Z</time>
      </trkpt>
      <trkpt lat="45.98268" lon="5.6196">
        <ele>976.6</ele>
        <time>2026-05-12T08:46:14Z</time>
      </trkpt>
      <trkpt lat="45.98271" lon="5.6196">
        <ele>977</ele>
        <time>2026-05-12T08:46:15Z</time>
      </trkpt>
      <trkpt lat="45.98272" lon="5.6196">
        <ele>977.4</ele>
        <time>2026-05-12T08:46:16Z</time>
      </trkpt>
      <trkpt lat="45.98274" lon="5.6196">
        <ele>977.4</ele>
        <time>2026-05-12T08:46:17Z</time>
      </trkpt>
      <trkpt lat="45.98275" lon="5.6196">
        <ele>977.6</ele>
        <time>2026-05-12T08:46:18Z</time>
      </trkpt>
      <trkpt lat="45.98277" lon="5.61961">
        <ele>977.6</ele>
        <time>2026-05-12T08:46:19Z</time>
      </trkpt>
      <trkpt lat="45.9828" lon="5.61961">
        <ele>977.4</ele>
        <time>2026-05-12T08:46:20Z</time>
      </trkpt>
      <trkpt lat="45.98281" lon="5.61961">
        <ele>978</ele>
        <time>2026-05-12T08:46:21Z</time>
      </trkpt>
      <trkpt lat="45.98282" lon="5.6196">
        <ele>978</ele>
        <time>2026-05-12T08:46:22Z</time>
      </trkpt>
      <trkpt lat="45.98284" lon="5.61961">
        <ele>978.4</ele>
        <time>2026-05-12T08:46:23Z</time>
      </trkpt>
      <trkpt lat="45.98286" lon="5.61961">
        <ele>978.4</ele>
        <time>2026-05-12T08:46:24Z</time>
      </trkpt>
      <trkpt lat="45.98287" lon="5.61961">
        <ele>978.4</ele>
        <time>2026-05-12T08:46:25Z</time>
      </trkpt>
      <trkpt lat="45.98289" lon="5.61961">
        <ele>978.4</ele>
        <time>2026-05-12T08:46:26Z</time>
      </trkpt>
      <trkpt lat="45.98291" lon="5.61961">
        <ele>978.4</ele>
        <time>2026-05-12T08:46:27Z</time>
      </trkpt>
      <trkpt lat="45.98293" lon="5.6196">
        <ele>978.6</ele>
        <time>2026-05-12T08:46:28Z</time>
      </trkpt>
      <trkpt lat="45.98295" lon="5.6196">
        <ele>978.6</ele>
        <time>2026-05-12T08:46:29Z</time>
      </trkpt>
      <trkpt lat="45.98296" lon="5.6196">
        <ele>978.6</ele>
        <time>2026-05-12T08:46:30Z</time>
      </trkpt>
      <trkpt lat="45.98297" lon="5.6196">
        <ele>979</ele>
        <time>2026-05-12T08:46:31Z</time>
      </trkpt>
      <trkpt lat="45.98299" lon="5.61961">
        <ele>979</ele>
        <time>2026-05-12T08:46:32Z</time>
      </trkpt>
      <trkpt lat="45.983" lon="5.61961">
        <ele>979.2</ele>
        <time>2026-05-12T08:46:33Z</time>
      </trkpt>
      <trkpt lat="45.98301" lon="5.61961">
        <ele>979.2</ele>
        <time>2026-05-12T08:46:34Z</time>
      </trkpt>
      <trkpt lat="45.98303" lon="5.61961">
        <ele>979.2</ele>
        <time>2026-05-12T08:46:35Z</time>
      </trkpt>
      <trkpt lat="45.98304" lon="5.6196">
        <ele>979.6</ele>
        <time>2026-05-12T08:46:36Z</time>
      </trkpt>
      <trkpt lat="45.98306" lon="5.6196">
        <ele>979.8</ele>
        <time>2026-05-12T08:46:37Z</time>
      </trkpt>
      <trkpt lat="45.98307" lon="5.6196">
        <ele>979.8</ele>
        <time>2026-05-12T08:46:38Z</time>
      </trkpt>
      <trkpt lat="45.98309" lon="5.6196">
        <ele>980</ele>
        <time>2026-05-12T08:46:39Z</time>
      </trkpt>
      <trkpt lat="45.9831" lon="5.6196">
        <ele>980</ele>
        <time>2026-05-12T08:46:40Z</time>
      </trkpt>
      <trkpt lat="45.98311" lon="5.6196">
        <ele>980.4</ele>
        <time>2026-05-12T08:46:41Z</time>
      </trkpt>
      <trkpt lat="45.98313" lon="5.61961">
        <ele>980.4</ele>
        <time>2026-05-12T08:46:42Z</time>
      </trkpt>
      <trkpt lat="45.98314" lon="5.61962">
        <ele>980.4</ele>
        <time>2026-05-12T08:46:43Z</time>
      </trkpt>
      <trkpt lat="45.98315" lon="5.61963">
        <ele>980.6</ele>
        <time>2026-05-12T08:46:44Z</time>
      </trkpt>
      <trkpt lat="45.98317" lon="5.61963">
        <ele>980.6</ele>
        <time>2026-05-12T08:46:45Z</time>
      </trkpt>
      <trkpt lat="45.98318" lon="5.61963">
        <ele>980.8</ele>
        <time>2026-05-12T08:46:46Z</time>
      </trkpt>
      <trkpt lat="45.98319" lon="5.61963">
        <ele>981.2</ele>
        <time>2026-05-12T08:46:47Z</time>
      </trkpt>
      <trkpt lat="45.9832" lon="5.61963">
        <ele>981.2</ele>
        <time>2026-05-12T08:46:48Z</time>
      </trkpt>
      <trkpt lat="45.98321" lon="5.61964">
        <ele>981.6</ele>
        <time>2026-05-12T08:46:49Z</time>
      </trkpt>
      <trkpt lat="45.98322" lon="5.61964">
        <ele>982</ele>
        <time>2026-05-12T08:46:50Z</time>
      </trkpt>
      <trkpt lat="45.98323" lon="5.61965">
        <ele>982.2</ele>
        <time>2026-05-12T08:46:51Z</time>
      </trkpt>
      <trkpt lat="45.98324" lon="5.61965">
        <ele>982.2</ele>
        <time>2026-05-12T08:46:52Z</time>
      </trkpt>
      <trkpt lat="45.98326" lon="5.61965">
        <ele>982.6</ele>
        <time>2026-05-12T08:46:53Z</time>
      </trkpt>
      <trkpt lat="45.98327" lon="5.61965">
        <ele>983</ele>
        <time>2026-05-12T08:46:54Z</time>
      </trkpt>
      <trkpt lat="45.98328" lon="5.61966">
        <ele>983</ele>
        <time>2026-05-12T08:46:55Z</time>
      </trkpt>
      <trkpt lat="45.9833" lon="5.61967">
        <ele>983.4</ele>
        <time>2026-05-12T08:46:56Z</time>
      </trkpt>
      <trkpt lat="45.98331" lon="5.61967">
        <ele>983.6</ele>
        <time>2026-05-12T08:46:57Z</time>
      </trkpt>
      <trkpt lat="45.98332" lon="5.61968">
        <ele>983.6</ele>
        <time>2026-05-12T08:46:58Z</time>
      </trkpt>
      <trkpt lat="45.98333" lon="5.61968">
        <ele>984</ele>
        <time>2026-05-12T08:46:59Z</time>
      </trkpt>
      <trkpt lat="45.98334" lon="5.61968">
        <ele>984</ele>
        <time>2026-05-12T08:47:00Z</time>
      </trkpt>
      <trkpt lat="45.98336" lon="5.61969">
        <ele>984.6</ele>
        <time>2026-05-12T08:47:01Z</time>
      </trkpt>
      <trkpt lat="45.98338" lon="5.6197">
        <ele>984.8</ele>
        <time>2026-05-12T08:47:02Z</time>
      </trkpt>
      <trkpt lat="45.98339" lon="5.61971">
        <ele>985.2</ele>
        <time>2026-05-12T08:47:03Z</time>
      </trkpt>
      <trkpt lat="45.9834" lon="5.61971">
        <ele>985.2</ele>
        <time>2026-05-12T08:47:04Z</time>
      </trkpt>
      <trkpt lat="45.98341" lon="5.61973">
        <ele>985.4</ele>
        <time>2026-05-12T08:47:05Z</time>
      </trkpt>
      <trkpt lat="45.98342" lon="5.61975">
        <ele>985.8</ele>
        <time>2026-05-12T08:47:06Z</time>
      </trkpt>
      <trkpt lat="45.98343" lon="5.61976">
        <ele>985.8</ele>
        <time>2026-05-12T08:47:07Z</time>
      </trkpt>
      <trkpt lat="45.98345" lon="5.61978">
        <ele>985.8</ele>
        <time>2026-05-12T08:47:08Z</time>
      </trkpt>
      <trkpt lat="45.98345" lon="5.61979">
        <ele>986</ele>
        <time>2026-05-12T08:47:09Z</time>
      </trkpt>
      <trkpt lat="45.98346" lon="5.6198">
        <ele>986.2</ele>
        <time>2026-05-12T08:47:10Z</time>
      </trkpt>
      <trkpt lat="45.98347" lon="5.61981">
        <ele>986.4</ele>
        <time>2026-05-12T08:47:11Z</time>
      </trkpt>
      <trkpt lat="45.98348" lon="5.61982">
        <ele>986.6</ele>
        <time>2026-05-12T08:47:12Z</time>
      </trkpt>
      <trkpt lat="45.98349" lon="5.61983">
        <ele>987</ele>
        <time>2026-05-12T08:47:13Z</time>
      </trkpt>
      <trkpt lat="45.9835" lon="5.61984">
        <ele>987.2</ele>
        <time>2026-05-12T08:47:14Z</time>
      </trkpt>
      <trkpt lat="45.98352" lon="5.61985">
        <ele>987.2</ele>
        <time>2026-05-12T08:47:15Z</time>
      </trkpt>
      <trkpt lat="45.98353" lon="5.61986">
        <ele>987.4</ele>
        <time>2026-05-12T08:47:16Z</time>
      </trkpt>
      <trkpt lat="45.98354" lon="5.61987">
        <ele>987.8</ele>
        <time>2026-05-12T08:47:17Z</time>
      </trkpt>
      <trkpt lat="45.98356" lon="5.61988">
        <ele>987.8</ele>
        <time>2026-05-12T08:47:18Z</time>
      </trkpt>
      <trkpt lat="45.98356" lon="5.61988">
        <ele>988</ele>
        <time>2026-05-12T08:47:19Z</time>
      </trkpt>
      <trkpt lat="45.98357" lon="5.61988">
        <ele>988.2</ele>
        <time>2026-05-12T08:47:20Z</time>
      </trkpt>
      <trkpt lat="45.98358" lon="5.6199">
        <ele>988.2</ele>
        <time>2026-05-12T08:47:21Z</time>
      </trkpt>
      <trkpt lat="45.98359" lon="5.61991">
        <ele>988.6</ele>
        <time>2026-05-12T08:47:22Z</time>
      </trkpt>
      <trkpt lat="45.98361" lon="5.61992">
        <ele>989</ele>
        <time>2026-05-12T08:47:23Z</time>
      </trkpt>
      <trkpt lat="45.98362" lon="5.61993">
        <ele>989</ele>
        <time>2026-05-12T08:47:24Z</time>
      </trkpt>
      <trkpt lat="45.98363" lon="5.61994">
        <ele>989.2</ele>
        <time>2026-05-12T08:47:25Z</time>
      </trkpt>
      <trkpt lat="45.98364" lon="5.61994">
        <ele>989.2</ele>
        <time>2026-05-12T08:47:26Z</time>
      </trkpt>
      <trkpt lat="45.98365" lon="5.61994">
        <ele>989.4</ele>
        <time>2026-05-12T08:47:27Z</time>
      </trkpt>
      <trkpt lat="45.98367" lon="5.61995">
        <ele>989.4</ele>
        <time>2026-05-12T08:47:28Z</time>
      </trkpt>
      <trkpt lat="45.98369" lon="5.61996">
        <ele>989.8</ele>
        <time>2026-05-12T08:47:29Z</time>
      </trkpt>
      <trkpt lat="45.9837" lon="5.61997">
        <ele>989.8</ele>
        <time>2026-05-12T08:47:30Z</time>
      </trkpt>
      <trkpt lat="45.98372" lon="5.61999">
        <ele>989.8</ele>
        <time>2026-05-12T08:47:31Z</time>
      </trkpt>
      <trkpt lat="45.98373" lon="5.62">
        <ele>990</ele>
        <time>2026-05-12T08:47:32Z</time>
      </trkpt>
      <trkpt lat="45.98374" lon="5.62002">
        <ele>990.2</ele>
        <time>2026-05-12T08:47:33Z</time>
      </trkpt>
      <trkpt lat="45.98376" lon="5.62003">
        <ele>990.6</ele>
        <time>2026-05-12T08:47:34Z</time>
      </trkpt>
      <trkpt lat="45.98377" lon="5.62005">
        <ele>990.6</ele>
        <time>2026-05-12T08:47:35Z</time>
      </trkpt>
      <trkpt lat="45.98378" lon="5.62006">
        <ele>990.8</ele>
        <time>2026-05-12T08:47:36Z</time>
      </trkpt>
      <trkpt lat="45.9838" lon="5.62009">
        <ele>990.8</ele>
        <time>2026-05-12T08:47:37Z</time>
      </trkpt>
      <trkpt lat="45.98381" lon="5.6201">
        <ele>991.2</ele>
        <time>2026-05-12T08:47:38Z</time>
      </trkpt>
      <trkpt lat="45.98382" lon="5.62011">
        <ele>991.2</ele>
        <time>2026-05-12T08:47:39Z</time>
      </trkpt>
      <trkpt lat="45.98384" lon="5.62012">
        <ele>991.4</ele>
        <time>2026-05-12T08:47:40Z</time>
      </trkpt>
      <trkpt lat="45.98386" lon="5.62013">
        <ele>991.4</ele>
        <time>2026-05-12T08:47:41Z</time>
      </trkpt>
      <trkpt lat="45.98387" lon="5.62014">
        <ele>991.8</ele>
        <time>2026-05-12T08:47:42Z</time>
      </trkpt>
      <trkpt lat="45.98388" lon="5.62015">
        <ele>991.8</ele>
        <time>2026-05-12T08:47:43Z</time>
      </trkpt>
      <trkpt lat="45.9839" lon="5.62016">
        <ele>992.2</ele>
        <time>2026-05-12T08:47:44Z</time>
      </trkpt>
      <trkpt lat="45.9839" lon="5.62016">
        <ele>992.2</ele>
        <time>2026-05-12T08:47:45Z</time>
      </trkpt>
      <trkpt lat="45.9839" lon="5.62016">
        <ele>992.4</ele>
        <time>2026-05-12T08:47:46Z</time>
      </trkpt>
      <trkpt lat="45.98396" lon="5.62021">
        <ele>992.6</ele>
        <time>2026-05-12T08:47:48Z</time>
      </trkpt>
      <trkpt lat="45.98397" lon="5.62023">
        <ele>992.6</ele>
        <time>2026-05-12T08:47:49Z</time>
      </trkpt>
      <trkpt lat="45.98398" lon="5.62024">
        <ele>993</ele>
        <time>2026-05-12T08:47:50Z</time>
      </trkpt>
      <trkpt lat="45.984" lon="5.62025">
        <ele>993.2</ele>
        <time>2026-05-12T08:47:51Z</time>
      </trkpt>
      <trkpt lat="45.98401" lon="5.62026">
        <ele>993.6</ele>
        <time>2026-05-12T08:47:52Z</time>
      </trkpt>
      <trkpt lat="45.98402" lon="5.62027">
        <ele>993.8</ele>
        <time>2026-05-12T08:47:53Z</time>
      </trkpt>
      <trkpt lat="45.98403" lon="5.62028">
        <ele>993.8</ele>
        <time>2026-05-12T08:47:54Z</time>
      </trkpt>
      <trkpt lat="45.98404" lon="5.62029">
        <ele>994.2</ele>
        <time>2026-05-12T08:47:55Z</time>
      </trkpt>
      <trkpt lat="45.98406" lon="5.62029">
        <ele>994.2</ele>
        <time>2026-05-12T08:47:56Z</time>
      </trkpt>
      <trkpt lat="45.98408" lon="5.62029">
        <ele>994.6</ele>
        <time>2026-05-12T08:47:57Z</time>
      </trkpt>
      <trkpt lat="45.98409" lon="5.6203">
        <ele>994.6</ele>
        <time>2026-05-12T08:47:58Z</time>
      </trkpt>
      <trkpt lat="45.98411" lon="5.62031">
        <ele>994.8</ele>
        <time>2026-05-12T08:47:59Z</time>
      </trkpt>
      <trkpt lat="45.98412" lon="5.62032">
        <ele>994.8</ele>
        <time>2026-05-12T08:48:00Z</time>
      </trkpt>
      <trkpt lat="45.98413" lon="5.62034">
        <ele>995.2</ele>
        <time>2026-05-12T08:48:01Z</time>
      </trkpt>
      <trkpt lat="45.98413" lon="5.62035">
        <ele>995.2</ele>
        <time>2026-05-12T08:48:02Z</time>
      </trkpt>
      <trkpt lat="45.98415" lon="5.62037">
        <ele>995.2</ele>
        <time>2026-05-12T08:48:03Z</time>
      </trkpt>
      <trkpt lat="45.98416" lon="5.62038">
        <ele>995.4</ele>
        <time>2026-05-12T08:48:04Z</time>
      </trkpt>
      <trkpt lat="45.98417" lon="5.62039">
        <ele>995.4</ele>
        <time>2026-05-12T08:48:05Z</time>
      </trkpt>
      <trkpt lat="45.98418" lon="5.6204">
        <ele>995.4</ele>
        <time>2026-05-12T08:48:06Z</time>
      </trkpt>
      <trkpt lat="45.98419" lon="5.62041">
        <ele>995.8</ele>
        <time>2026-05-12T08:48:07Z</time>
      </trkpt>
      <trkpt lat="45.98421" lon="5.62042">
        <ele>995.8</ele>
        <time>2026-05-12T08:48:08Z</time>
      </trkpt>
      <trkpt lat="45.98422" lon="5.62042">
        <ele>995.8</ele>
        <time>2026-05-12T08:48:09Z</time>
      </trkpt>
      <trkpt lat="45.98423" lon="5.62043">
        <ele>995.8</ele>
        <time>2026-05-12T08:48:10Z</time>
      </trkpt>
      <trkpt lat="45.98424" lon="5.62044">
        <ele>996</ele>
        <time>2026-05-12T08:48:11Z</time>
      </trkpt>
      <trkpt lat="45.98426" lon="5.62045">
        <ele>996</ele>
        <time>2026-05-12T08:48:12Z</time>
      </trkpt>
      <trkpt lat="45.98427" lon="5.62046">
        <ele>996.4</ele>
        <time>2026-05-12T08:48:13Z</time>
      </trkpt>
      <trkpt lat="45.98428" lon="5.62048">
        <ele>996.4</ele>
        <time>2026-05-12T08:48:14Z</time>
      </trkpt>
      <trkpt lat="45.9843" lon="5.62049">
        <ele>996.6</ele>
        <time>2026-05-12T08:48:15Z</time>
      </trkpt>
      <trkpt lat="45.98431" lon="5.6205">
        <ele>996.6</ele>
        <time>2026-05-12T08:48:16Z</time>
      </trkpt>
      <trkpt lat="45.98432" lon="5.62051">
        <ele>996.6</ele>
        <time>2026-05-12T08:48:17Z</time>
      </trkpt>
      <trkpt lat="45.98433" lon="5.62052">
        <ele>996.8</ele>
        <time>2026-05-12T08:48:18Z</time>
      </trkpt>
      <trkpt lat="45.98434" lon="5.62053">
        <ele>997.2</ele>
        <time>2026-05-12T08:48:19Z</time>
      </trkpt>
      <trkpt lat="45.98434" lon="5.62053">
        <ele>997.4</ele>
        <time>2026-05-12T08:48:20Z</time>
      </trkpt>
      <trkpt lat="45.98434" lon="5.62053">
        <ele>997.4</ele>
        <time>2026-05-12T08:48:21Z</time>
      </trkpt>
      <trkpt lat="45.98438" lon="5.62057">
        <ele>997.4</ele>
        <time>2026-05-12T08:48:22Z</time>
      </trkpt>
      <trkpt lat="45.98439" lon="5.62059">
        <ele>997.4</ele>
        <time>2026-05-12T08:48:23Z</time>
      </trkpt>
      <trkpt lat="45.9844" lon="5.6206">
        <ele>997.4</ele>
        <time>2026-05-12T08:48:24Z</time>
      </trkpt>
      <trkpt lat="45.98441" lon="5.62061">
        <ele>997.4</ele>
        <time>2026-05-12T08:48:25Z</time>
      </trkpt>
      <trkpt lat="45.98443" lon="5.62062">
        <ele>997.4</ele>
        <time>2026-05-12T08:48:26Z</time>
      </trkpt>
      <trkpt lat="45.98444" lon="5.62063">
        <ele>997.4</ele>
        <time>2026-05-12T08:48:27Z</time>
      </trkpt>
      <trkpt lat="45.98446" lon="5.62064">
        <ele>997.4</ele>
        <time>2026-05-12T08:48:28Z</time>
      </trkpt>
      <trkpt lat="45.98447" lon="5.62065">
        <ele>997.4</ele>
        <time>2026-05-12T08:48:29Z</time>
      </trkpt>
      <trkpt lat="45.98448" lon="5.62067">
        <ele>997.4</ele>
        <time>2026-05-12T08:48:30Z</time>
      </trkpt>
      <trkpt lat="45.98449" lon="5.62069">
        <ele>997.8</ele>
        <time>2026-05-12T08:48:31Z</time>
      </trkpt>
      <trkpt lat="45.9845" lon="5.62071">
        <ele>997.8</ele>
        <time>2026-05-12T08:48:32Z</time>
      </trkpt>
      <trkpt lat="45.98451" lon="5.62073">
        <ele>997.8</ele>
        <time>2026-05-12T08:48:33Z</time>
      </trkpt>
      <trkpt lat="45.98452" lon="5.62075">
        <ele>998</ele>
        <time>2026-05-12T08:48:34Z</time>
      </trkpt>
      <trkpt lat="45.98453" lon="5.62076">
        <ele>998</ele>
        <time>2026-05-12T08:48:35Z</time>
      </trkpt>
      <trkpt lat="45.98454" lon="5.62077">
        <ele>998</ele>
        <time>2026-05-12T08:48:36Z</time>
      </trkpt>
      <trkpt lat="45.98456" lon="5.62078">
        <ele>998.2</ele>
        <time>2026-05-12T08:48:37Z</time>
      </trkpt>
      <trkpt lat="45.98457" lon="5.6208">
        <ele>998.2</ele>
        <time>2026-05-12T08:48:38Z</time>
      </trkpt>
      <trkpt lat="45.98458" lon="5.62081">
        <ele>998.6</ele>
        <time>2026-05-12T08:48:39Z</time>
      </trkpt>
      <trkpt lat="45.98458" lon="5.62083">
        <ele>998.8</ele>
        <time>2026-05-12T08:48:40Z</time>
      </trkpt>
      <trkpt lat="45.98459" lon="5.62085">
        <ele>998.8</ele>
        <time>2026-05-12T08:48:41Z</time>
      </trkpt>
      <trkpt lat="45.98461" lon="5.62086">
        <ele>998.8</ele>
        <time>2026-05-12T08:48:42Z</time>
      </trkpt>
      <trkpt lat="45.98462" lon="5.62088">
        <ele>999</ele>
        <time>2026-05-12T08:48:43Z</time>
      </trkpt>
      <trkpt lat="45.98463" lon="5.62089">
        <ele>999</ele>
        <time>2026-05-12T08:48:44Z</time>
      </trkpt>
      <trkpt lat="45.98463" lon="5.62091">
        <ele>999</ele>
        <time>2026-05-12T08:48:45Z</time>
      </trkpt>
      <trkpt lat="45.98464" lon="5.62093">
        <ele>999.2</ele>
        <time>2026-05-12T08:48:46Z</time>
      </trkpt>
      <trkpt lat="45.98464" lon="5.62095">
        <ele>999.2</ele>
        <time>2026-05-12T08:48:47Z</time>
      </trkpt>
      <trkpt lat="45.98464" lon="5.62097">
        <ele>999.2</ele>
        <time>2026-05-12T08:48:48Z</time>
      </trkpt>
      <trkpt lat="45.98465" lon="5.62099">
        <ele>999.4</ele>
        <time>2026-05-12T08:48:49Z</time>
      </trkpt>
      <trkpt lat="45.98466" lon="5.621">
        <ele>999.4</ele>
        <time>2026-05-12T08:48:50Z</time>
      </trkpt>
      <trkpt lat="45.98467" lon="5.62102">
        <ele>999.8</ele>
        <time>2026-05-12T08:48:51Z</time>
      </trkpt>
      <trkpt lat="45.98468" lon="5.62103">
        <ele>999.8</ele>
        <time>2026-05-12T08:48:52Z</time>
      </trkpt>
      <trkpt lat="45.98469" lon="5.62105">
        <ele>1000</ele>
        <time>2026-05-12T08:48:53Z</time>
      </trkpt>
      <trkpt lat="45.9847" lon="5.62106">
        <ele>999.4</ele>
        <time>2026-05-12T08:48:54Z</time>
      </trkpt>
      <trkpt lat="45.98472" lon="5.62108">
        <ele>999</ele>
        <time>2026-05-12T08:48:55Z</time>
      </trkpt>
      <trkpt lat="45.98473" lon="5.62109">
        <ele>999.6</ele>
        <time>2026-05-12T08:48:56Z</time>
      </trkpt>
      <trkpt lat="45.98473" lon="5.6211">
        <ele>999.8</ele>
        <time>2026-05-12T08:48:57Z</time>
      </trkpt>
      <trkpt lat="45.98474" lon="5.62111">
        <ele>1000.2</ele>
        <time>2026-05-12T08:48:58Z</time>
      </trkpt>
      <trkpt lat="45.98475" lon="5.62112">
        <ele>1000.4</ele>
        <time>2026-05-12T08:48:59Z</time>
      </trkpt>
      <trkpt lat="45.98476" lon="5.62113">
        <ele>1000.4</ele>
        <time>2026-05-12T08:49:00Z</time>
      </trkpt>
      <trkpt lat="45.98477" lon="5.62114">
        <ele>1000.8</ele>
        <time>2026-05-12T08:49:01Z</time>
      </trkpt>
      <trkpt lat="45.98478" lon="5.62115">
        <ele>1000.8</ele>
        <time>2026-05-12T08:49:02Z</time>
      </trkpt>
      <trkpt lat="45.98479" lon="5.62117">
        <ele>1001.2</ele>
        <time>2026-05-12T08:49:03Z</time>
      </trkpt>
      <trkpt lat="45.98479" lon="5.62118">
        <ele>1001.2</ele>
        <time>2026-05-12T08:49:04Z</time>
      </trkpt>
      <trkpt lat="45.9848" lon="5.6212">
        <ele>1001.2</ele>
        <time>2026-05-12T08:49:05Z</time>
      </trkpt>
      <trkpt lat="45.98481" lon="5.62121">
        <ele>1001.4</ele>
        <time>2026-05-12T08:49:06Z</time>
      </trkpt>
      <trkpt lat="45.98481" lon="5.62123">
        <ele>1001.6</ele>
        <time>2026-05-12T08:49:07Z</time>
      </trkpt>
      <trkpt lat="45.98482" lon="5.62125">
        <ele>1001.6</ele>
        <time>2026-05-12T08:49:08Z</time>
      </trkpt>
      <trkpt lat="45.98482" lon="5.62127">
        <ele>1002</ele>
        <time>2026-05-12T08:49:09Z</time>
      </trkpt>
      <trkpt lat="45.98483" lon="5.62128">
        <ele>1002</ele>
        <time>2026-05-12T08:49:10Z</time>
      </trkpt>
      <trkpt lat="45.98484" lon="5.6213">
        <ele>1002</ele>
        <time>2026-05-12T08:49:11Z</time>
      </trkpt>
      <trkpt lat="45.98485" lon="5.62131">
        <ele>1002.4</ele>
        <time>2026-05-12T08:49:12Z</time>
      </trkpt>
      <trkpt lat="45.98486" lon="5.62133">
        <ele>1002.4</ele>
        <time>2026-05-12T08:49:13Z</time>
      </trkpt>
      <trkpt lat="45.98486" lon="5.62134">
        <ele>1002.4</ele>
        <time>2026-05-12T08:49:14Z</time>
      </trkpt>
      <trkpt lat="45.98488" lon="5.62135">
        <ele>1002.6</ele>
        <time>2026-05-12T08:49:15Z</time>
      </trkpt>
      <trkpt lat="45.98489" lon="5.62137">
        <ele>1003</ele>
        <time>2026-05-12T08:49:16Z</time>
      </trkpt>
      <trkpt lat="45.9849" lon="5.62138">
        <ele>1003</ele>
        <time>2026-05-12T08:49:17Z</time>
      </trkpt>
      <trkpt lat="45.98491" lon="5.6214">
        <ele>1003.2</ele>
        <time>2026-05-12T08:49:18Z</time>
      </trkpt>
      <trkpt lat="45.98492" lon="5.62141">
        <ele>1003.2</ele>
        <time>2026-05-12T08:49:19Z</time>
      </trkpt>
      <trkpt lat="45.98493" lon="5.62143">
        <ele>1003.6</ele>
        <time>2026-05-12T08:49:20Z</time>
      </trkpt>
      <trkpt lat="45.98494" lon="5.62145">
        <ele>1003.6</ele>
        <time>2026-05-12T08:49:21Z</time>
      </trkpt>
      <trkpt lat="45.98495" lon="5.62146">
        <ele>1003.6</ele>
        <time>2026-05-12T08:49:22Z</time>
      </trkpt>
      <trkpt lat="45.98495" lon="5.62148">
        <ele>1003.8</ele>
        <time>2026-05-12T08:49:23Z</time>
      </trkpt>
      <trkpt lat="45.98497" lon="5.62149">
        <ele>1003.8</ele>
        <time>2026-05-12T08:49:24Z</time>
      </trkpt>
      <trkpt lat="45.98498" lon="5.62151">
        <ele>1004.2</ele>
        <time>2026-05-12T08:49:25Z</time>
      </trkpt>
      <trkpt lat="45.98498" lon="5.62152">
        <ele>1004.2</ele>
        <time>2026-05-12T08:49:26Z</time>
      </trkpt>
      <trkpt lat="45.98499" lon="5.62154">
        <ele>1004.4</ele>
        <time>2026-05-12T08:49:27Z</time>
      </trkpt>
      <trkpt lat="45.985" lon="5.62156">
        <ele>1004.4</ele>
        <time>2026-05-12T08:49:28Z</time>
      </trkpt>
      <trkpt lat="45.985" lon="5.62158">
        <ele>1004.8</ele>
        <time>2026-05-12T08:49:29Z</time>
      </trkpt>
      <trkpt lat="45.98501" lon="5.6216">
        <ele>1004.8</ele>
        <time>2026-05-12T08:49:30Z</time>
      </trkpt>
      <trkpt lat="45.98502" lon="5.62161">
        <ele>1005</ele>
        <time>2026-05-12T08:49:31Z</time>
      </trkpt>
      <trkpt lat="45.98503" lon="5.62163">
        <ele>1005</ele>
        <time>2026-05-12T08:49:32Z</time>
      </trkpt>
      <trkpt lat="45.98504" lon="5.62164">
        <ele>1005.2</ele>
        <time>2026-05-12T08:49:33Z</time>
      </trkpt>
      <trkpt lat="45.98505" lon="5.62165">
        <ele>1005.4</ele>
        <time>2026-05-12T08:49:34Z</time>
      </trkpt>
      <trkpt lat="45.98506" lon="5.62167">
        <ele>1005.6</ele>
        <time>2026-05-12T08:49:35Z</time>
      </trkpt>
      <trkpt lat="45.98507" lon="5.62168">
        <ele>1006</ele>
        <time>2026-05-12T08:49:36Z</time>
      </trkpt>
      <trkpt lat="45.98508" lon="5.6217">
        <ele>1006</ele>
        <time>2026-05-12T08:49:37Z</time>
      </trkpt>
      <trkpt lat="45.98508" lon="5.62171">
        <ele>1006.2</ele>
        <time>2026-05-12T08:49:38Z</time>
      </trkpt>
      <trkpt lat="45.98509" lon="5.62173">
        <ele>1006.6</ele>
        <time>2026-05-12T08:49:39Z</time>
      </trkpt>
      <trkpt lat="45.9851" lon="5.62174">
        <ele>1006.6</ele>
        <time>2026-05-12T08:49:40Z</time>
      </trkpt>
      <trkpt lat="45.98511" lon="5.62176">
        <ele>1006.6</ele>
        <time>2026-05-12T08:49:41Z</time>
      </trkpt>
      <trkpt lat="45.98512" lon="5.62177">
        <ele>1007</ele>
        <time>2026-05-12T08:49:42Z</time>
      </trkpt>
      <trkpt lat="45.98513" lon="5.62178">
        <ele>1007</ele>
        <time>2026-05-12T08:49:43Z</time>
      </trkpt>
      <trkpt lat="45.98515" lon="5.6218">
        <ele>1007.2</ele>
        <time>2026-05-12T08:49:44Z</time>
      </trkpt>
      <trkpt lat="45.98516" lon="5.62181">
        <ele>1007.2</ele>
        <time>2026-05-12T08:49:45Z</time>
      </trkpt>
      <trkpt lat="45.98517" lon="5.62183">
        <ele>1007.6</ele>
        <time>2026-05-12T08:49:46Z</time>
      </trkpt>
      <trkpt lat="45.98518" lon="5.62184">
        <ele>1007.8</ele>
        <time>2026-05-12T08:49:47Z</time>
      </trkpt>
      <trkpt lat="45.98519" lon="5.62186">
        <ele>1008</ele>
        <time>2026-05-12T08:49:48Z</time>
      </trkpt>
      <trkpt lat="45.9852" lon="5.62187">
        <ele>1008</ele>
        <time>2026-05-12T08:49:49Z</time>
      </trkpt>
      <trkpt lat="45.98521" lon="5.62189">
        <ele>1008</ele>
        <time>2026-05-12T08:49:50Z</time>
      </trkpt>
      <trkpt lat="45.98522" lon="5.6219">
        <ele>1008.2</ele>
        <time>2026-05-12T08:49:51Z</time>
      </trkpt>
      <trkpt lat="45.98524" lon="5.62191">
        <ele>1008.2</ele>
        <time>2026-05-12T08:49:52Z</time>
      </trkpt>
      <trkpt lat="45.98525" lon="5.62193">
        <ele>1008.6</ele>
        <time>2026-05-12T08:49:53Z</time>
      </trkpt>
      <trkpt lat="45.98526" lon="5.62194">
        <ele>1008.6</ele>
        <time>2026-05-12T08:49:54Z</time>
      </trkpt>
      <trkpt lat="45.98528" lon="5.62194">
        <ele>1008.8</ele>
        <time>2026-05-12T08:49:55Z</time>
      </trkpt>
      <trkpt lat="45.98529" lon="5.62195">
        <ele>1008.8</ele>
        <time>2026-05-12T08:49:56Z</time>
      </trkpt>
      <trkpt lat="45.98531" lon="5.62196">
        <ele>1009.2</ele>
        <time>2026-05-12T08:49:57Z</time>
      </trkpt>
      <trkpt lat="45.98532" lon="5.62197">
        <ele>1009.2</ele>
        <time>2026-05-12T08:49:58Z</time>
      </trkpt>
      <trkpt lat="45.98533" lon="5.62198">
        <ele>1009.4</ele>
        <time>2026-05-12T08:49:59Z</time>
      </trkpt>
      <trkpt lat="45.98535" lon="5.62199">
        <ele>1009.4</ele>
        <time>2026-05-12T08:50:00Z</time>
      </trkpt>
      <trkpt lat="45.98536" lon="5.622">
        <ele>1009.6</ele>
        <time>2026-05-12T08:50:01Z</time>
      </trkpt>
      <trkpt lat="45.98537" lon="5.622">
        <ele>1009.6</ele>
        <time>2026-05-12T08:50:02Z</time>
      </trkpt>
      <trkpt lat="45.98538" lon="5.62201">
        <ele>1009.6</ele>
        <time>2026-05-12T08:50:03Z</time>
      </trkpt>
      <trkpt lat="45.9854" lon="5.62201">
        <ele>1009.6</ele>
        <time>2026-05-12T08:50:04Z</time>
      </trkpt>
      <trkpt lat="45.98541" lon="5.62201">
        <ele>1009.6</ele>
        <time>2026-05-12T08:50:05Z</time>
      </trkpt>
      <trkpt lat="45.98544" lon="5.62202">
        <ele>1010</ele>
        <time>2026-05-12T08:50:06Z</time>
      </trkpt>
      <trkpt lat="45.98545" lon="5.62202">
        <ele>1010.2</ele>
        <time>2026-05-12T08:50:07Z</time>
      </trkpt>
      <trkpt lat="45.98547" lon="5.62201">
        <ele>1010.2</ele>
        <time>2026-05-12T08:50:08Z</time>
      </trkpt>
      <trkpt lat="45.98548" lon="5.62201">
        <ele>1010.6</ele>
        <time>2026-05-12T08:50:09Z</time>
      </trkpt>
      <trkpt lat="45.98549" lon="5.62201">
        <ele>1010.6</ele>
        <time>2026-05-12T08:50:10Z</time>
      </trkpt>
      <trkpt lat="45.9855" lon="5.62202">
        <ele>1010.8</ele>
        <time>2026-05-12T08:50:11Z</time>
      </trkpt>
      <trkpt lat="45.98552" lon="5.62202">
        <ele>1010.8</ele>
        <time>2026-05-12T08:50:12Z</time>
      </trkpt>
      <trkpt lat="45.98553" lon="5.62202">
        <ele>1011.2</ele>
        <time>2026-05-12T08:50:13Z</time>
      </trkpt>
      <trkpt lat="45.98554" lon="5.62202">
        <ele>1011.2</ele>
        <time>2026-05-12T08:50:14Z</time>
      </trkpt>
      <trkpt lat="45.98555" lon="5.62203">
        <ele>1011.6</ele>
        <time>2026-05-12T08:50:15Z</time>
      </trkpt>
      <trkpt lat="45.98556" lon="5.62203">
        <ele>1011.6</ele>
        <time>2026-05-12T08:50:16Z</time>
      </trkpt>
      <trkpt lat="45.98557" lon="5.62203">
        <ele>1011.8</ele>
        <time>2026-05-12T08:50:17Z</time>
      </trkpt>
      <trkpt lat="45.98559" lon="5.62203">
        <ele>1012</ele>
        <time>2026-05-12T08:50:18Z</time>
      </trkpt>
      <trkpt lat="45.9856" lon="5.62203">
        <ele>1012</ele>
        <time>2026-05-12T08:50:19Z</time>
      </trkpt>
      <trkpt lat="45.98561" lon="5.62204">
        <ele>1012.4</ele>
        <time>2026-05-12T08:50:20Z</time>
      </trkpt>
      <trkpt lat="45.98562" lon="5.62205">
        <ele>1012.4</ele>
        <time>2026-05-12T08:50:21Z</time>
      </trkpt>
      <trkpt lat="45.98563" lon="5.62206">
        <ele>1012.8</ele>
        <time>2026-05-12T08:50:22Z</time>
      </trkpt>
      <trkpt lat="45.98564" lon="5.62207">
        <ele>1012.8</ele>
        <time>2026-05-12T08:50:23Z</time>
      </trkpt>
      <trkpt lat="45.98565" lon="5.62208">
        <ele>1013</ele>
        <time>2026-05-12T08:50:24Z</time>
      </trkpt>
      <trkpt lat="45.98567" lon="5.62209">
        <ele>1013.2</ele>
        <time>2026-05-12T08:50:25Z</time>
      </trkpt>
      <trkpt lat="45.98568" lon="5.6221">
        <ele>1013.2</ele>
        <time>2026-05-12T08:50:26Z</time>
      </trkpt>
      <trkpt lat="45.98569" lon="5.62211">
        <ele>1013.2</ele>
        <time>2026-05-12T08:50:27Z</time>
      </trkpt>
      <trkpt lat="45.9857" lon="5.62213">
        <ele>1013.6</ele>
        <time>2026-05-12T08:50:28Z</time>
      </trkpt>
      <trkpt lat="45.98571" lon="5.62213">
        <ele>1013.8</ele>
        <time>2026-05-12T08:50:29Z</time>
      </trkpt>
      <trkpt lat="45.98572" lon="5.62214">
        <ele>1014.2</ele>
        <time>2026-05-12T08:50:30Z</time>
      </trkpt>
      <trkpt lat="45.98573" lon="5.62216">
        <ele>1014.2</ele>
        <time>2026-05-12T08:50:31Z</time>
      </trkpt>
      <trkpt lat="45.98574" lon="5.62217">
        <ele>1014.4</ele>
        <time>2026-05-12T08:50:32Z</time>
      </trkpt>
      <trkpt lat="45.98575" lon="5.62218">
        <ele>1014.4</ele>
        <time>2026-05-12T08:50:33Z</time>
      </trkpt>
      <trkpt lat="45.98576" lon="5.62219">
        <ele>1014.6</ele>
        <time>2026-05-12T08:50:34Z</time>
      </trkpt>
      <trkpt lat="45.98578" lon="5.62221">
        <ele>1014.6</ele>
        <time>2026-05-12T08:50:35Z</time>
      </trkpt>
      <trkpt lat="45.98579" lon="5.62222">
        <ele>1015</ele>
        <time>2026-05-12T08:50:36Z</time>
      </trkpt>
      <trkpt lat="45.9858" lon="5.62223">
        <ele>1015</ele>
        <time>2026-05-12T08:50:37Z</time>
      </trkpt>
      <trkpt lat="45.98581" lon="5.62224">
        <ele>1015.2</ele>
        <time>2026-05-12T08:50:38Z</time>
      </trkpt>
      <trkpt lat="45.98582" lon="5.62225">
        <ele>1015.4</ele>
        <time>2026-05-12T08:50:39Z</time>
      </trkpt>
      <trkpt lat="45.98584" lon="5.62226">
        <ele>1015.4</ele>
        <time>2026-05-12T08:50:40Z</time>
      </trkpt>
      <trkpt lat="45.98585" lon="5.62228">
        <ele>1015.8</ele>
        <time>2026-05-12T08:50:41Z</time>
      </trkpt>
      <trkpt lat="45.98585" lon="5.62229">
        <ele>1015.8</ele>
        <time>2026-05-12T08:50:42Z</time>
      </trkpt>
      <trkpt lat="45.98586" lon="5.6223">
        <ele>1016</ele>
        <time>2026-05-12T08:50:43Z</time>
      </trkpt>
      <trkpt lat="45.98586" lon="5.6223">
        <ele>1016.2</ele>
        <time>2026-05-12T08:50:44Z</time>
      </trkpt>
      <trkpt lat="45.98588" lon="5.62231">
        <ele>1016.2</ele>
        <time>2026-05-12T08:50:45Z</time>
      </trkpt>
      <trkpt lat="45.98589" lon="5.62232">
        <ele>1016.6</ele>
        <time>2026-05-12T08:50:46Z</time>
      </trkpt>
      <trkpt lat="45.9859" lon="5.62233">
        <ele>1016.6</ele>
        <time>2026-05-12T08:50:47Z</time>
      </trkpt>
      <trkpt lat="45.98591" lon="5.62234">
        <ele>1017</ele>
        <time>2026-05-12T08:50:48Z</time>
      </trkpt>
      <trkpt lat="45.98592" lon="5.62236">
        <ele>1017</ele>
        <time>2026-05-12T08:50:49Z</time>
      </trkpt>
      <trkpt lat="45.98592" lon="5.62237">
        <ele>1017</ele>
        <time>2026-05-12T08:50:50Z</time>
      </trkpt>
      <trkpt lat="45.98593" lon="5.62239">
        <ele>1017.2</ele>
        <time>2026-05-12T08:50:51Z</time>
      </trkpt>
      <trkpt lat="45.98594" lon="5.6224">
        <ele>1017.4</ele>
        <time>2026-05-12T08:50:52Z</time>
      </trkpt>
      <trkpt lat="45.98595" lon="5.62241">
        <ele>1017.4</ele>
        <time>2026-05-12T08:50:53Z</time>
      </trkpt>
      <trkpt lat="45.98596" lon="5.62242">
        <ele>1017.8</ele>
        <time>2026-05-12T08:50:54Z</time>
      </trkpt>
      <trkpt lat="45.98596" lon="5.62243">
        <ele>1017.8</ele>
        <time>2026-05-12T08:50:55Z</time>
      </trkpt>
      <trkpt lat="45.98597" lon="5.62245">
        <ele>1017.8</ele>
        <time>2026-05-12T08:50:56Z</time>
      </trkpt>
      <trkpt lat="45.98598" lon="5.62246">
        <ele>1017.8</ele>
        <time>2026-05-12T08:50:57Z</time>
      </trkpt>
      <trkpt lat="45.98599" lon="5.62248">
        <ele>1017.8</ele>
        <time>2026-05-12T08:50:58Z</time>
      </trkpt>
      <trkpt lat="45.98599" lon="5.62249">
        <ele>1017.8</ele>
        <time>2026-05-12T08:50:59Z</time>
      </trkpt>
      <trkpt lat="45.986" lon="5.62251">
        <ele>1018</ele>
        <time>2026-05-12T08:51:00Z</time>
      </trkpt>
      <trkpt lat="45.98601" lon="5.62252">
        <ele>1018</ele>
        <time>2026-05-12T08:51:01Z</time>
      </trkpt>
      <trkpt lat="45.98602" lon="5.62254">
        <ele>1018.4</ele>
        <time>2026-05-12T08:51:02Z</time>
      </trkpt>
      <trkpt lat="45.98603" lon="5.62255">
        <ele>1018.6</ele>
        <time>2026-05-12T08:51:03Z</time>
      </trkpt>
      <trkpt lat="45.98603" lon="5.62257">
        <ele>1019</ele>
        <time>2026-05-12T08:51:04Z</time>
      </trkpt>
      <trkpt lat="45.98604" lon="5.62259">
        <ele>1019</ele>
        <time>2026-05-12T08:51:05Z</time>
      </trkpt>
      <trkpt lat="45.98604" lon="5.6226">
        <ele>1019.2</ele>
        <time>2026-05-12T08:51:06Z</time>
      </trkpt>
      <trkpt lat="45.98605" lon="5.62262">
        <ele>1019.2</ele>
        <time>2026-05-12T08:51:07Z</time>
      </trkpt>
      <trkpt lat="45.98605" lon="5.62264">
        <ele>1019.6</ele>
        <time>2026-05-12T08:51:08Z</time>
      </trkpt>
      <trkpt lat="45.98606" lon="5.62265">
        <ele>1019.8</ele>
        <time>2026-05-12T08:51:09Z</time>
      </trkpt>
      <trkpt lat="45.98607" lon="5.62267">
        <ele>1019.8</ele>
        <time>2026-05-12T08:51:10Z</time>
      </trkpt>
      <trkpt lat="45.98608" lon="5.62269">
        <ele>1020</ele>
        <time>2026-05-12T08:51:11Z</time>
      </trkpt>
      <trkpt lat="45.98608" lon="5.6227">
        <ele>1020</ele>
        <time>2026-05-12T08:51:12Z</time>
      </trkpt>
      <trkpt lat="45.98609" lon="5.62271">
        <ele>1020.4</ele>
        <time>2026-05-12T08:51:13Z</time>
      </trkpt>
      <trkpt lat="45.98609" lon="5.62272">
        <ele>1020.4</ele>
        <time>2026-05-12T08:51:14Z</time>
      </trkpt>
      <trkpt lat="45.98609" lon="5.62272">
        <ele>1020.4</ele>
        <time>2026-05-12T08:51:15Z</time>
      </trkpt>
      <trkpt lat="45.98608" lon="5.6227">
        <ele>1020.4</ele>
        <time>2026-05-12T08:51:20Z</time>
      </trkpt>
      <trkpt lat="45.98608" lon="5.62269">
        <ele>1020.4</ele>
        <time>2026-05-12T08:51:21Z</time>
      </trkpt>
      <trkpt lat="45.98607" lon="5.62269">
        <ele>1020.2</ele>
        <time>2026-05-12T08:51:22Z</time>
      </trkpt>
      <trkpt lat="45.98607" lon="5.62268">
        <ele>1020.2</ele>
        <time>2026-05-12T08:51:23Z</time>
      </trkpt>
      <trkpt lat="45.98607" lon="5.62268">
        <ele>1020.2</ele>
        <time>2026-05-12T08:51:24Z</time>
      </trkpt>
      <trkpt lat="45.98609" lon="5.62271">
        <ele>1020.8</ele>
        <time>2026-05-12T08:53:17Z</time>
      </trkpt>
      <trkpt lat="45.9861" lon="5.62273">
        <ele>1020.8</ele>
        <time>2026-05-12T08:53:18Z</time>
      </trkpt>
      <trkpt lat="45.98611" lon="5.62274">
        <ele>1020.8</ele>
        <time>2026-05-12T08:53:19Z</time>
      </trkpt>
      <trkpt lat="45.98612" lon="5.62276">
        <ele>1020.8</ele>
        <time>2026-05-12T08:53:20Z</time>
      </trkpt>
      <trkpt lat="45.98613" lon="5.62277">
        <ele>1020.8</ele>
        <time>2026-05-12T08:53:21Z</time>
      </trkpt>
      <trkpt lat="45.98614" lon="5.62279">
        <ele>1020.8</ele>
        <time>2026-05-12T08:53:22Z</time>
      </trkpt>
      <trkpt lat="45.98614" lon="5.62281">
        <ele>1021</ele>
        <time>2026-05-12T08:53:23Z</time>
      </trkpt>
      <trkpt lat="45.98614" lon="5.62283">
        <ele>1021</ele>
        <time>2026-05-12T08:53:24Z</time>
      </trkpt>
      <trkpt lat="45.98614" lon="5.62285">
        <ele>1021.4</ele>
        <time>2026-05-12T08:53:25Z</time>
      </trkpt>
      <trkpt lat="45.98614" lon="5.62288">
        <ele>1021.4</ele>
        <time>2026-05-12T08:53:26Z</time>
      </trkpt>
      <trkpt lat="45.98614" lon="5.6229">
        <ele>1021.8</ele>
        <time>2026-05-12T08:53:27Z</time>
      </trkpt>
      <trkpt lat="45.98615" lon="5.62291">
        <ele>1021.8</ele>
        <time>2026-05-12T08:53:28Z</time>
      </trkpt>
      <trkpt lat="45.98617" lon="5.62293">
        <ele>1022.2</ele>
        <time>2026-05-12T08:53:29Z</time>
      </trkpt>
      <trkpt lat="45.98617" lon="5.62294">
        <ele>1022.2</ele>
        <time>2026-05-12T08:53:30Z</time>
      </trkpt>
      <trkpt lat="45.98618" lon="5.62296">
        <ele>1022.4</ele>
        <time>2026-05-12T08:53:31Z</time>
      </trkpt>
      <trkpt lat="45.98618" lon="5.62298">
        <ele>1022.4</ele>
        <time>2026-05-12T08:53:32Z</time>
      </trkpt>
      <trkpt lat="45.98618" lon="5.623">
        <ele>1022.6</ele>
        <time>2026-05-12T08:53:33Z</time>
      </trkpt>
      <trkpt lat="45.98618" lon="5.62302">
        <ele>1023</ele>
        <time>2026-05-12T08:53:34Z</time>
      </trkpt>
      <trkpt lat="45.98619" lon="5.62303">
        <ele>1023</ele>
        <time>2026-05-12T08:53:35Z</time>
      </trkpt>
      <trkpt lat="45.98619" lon="5.62306">
        <ele>1023.2</ele>
        <time>2026-05-12T08:53:36Z</time>
      </trkpt>
      <trkpt lat="45.98619" lon="5.62308">
        <ele>1023.2</ele>
        <time>2026-05-12T08:53:37Z</time>
      </trkpt>
      <trkpt lat="45.98619" lon="5.6231">
        <ele>1023.6</ele>
        <time>2026-05-12T08:53:38Z</time>
      </trkpt>
      <trkpt lat="45.98619" lon="5.62312">
        <ele>1024</ele>
        <time>2026-05-12T08:53:39Z</time>
      </trkpt>
      <trkpt lat="45.98619" lon="5.62313">
        <ele>1024</ele>
        <time>2026-05-12T08:53:40Z</time>
      </trkpt>
      <trkpt lat="45.9862" lon="5.62314">
        <ele>1024.4</ele>
        <time>2026-05-12T08:53:41Z</time>
      </trkpt>
      <trkpt lat="45.98621" lon="5.62315">
        <ele>1024.4</ele>
        <time>2026-05-12T08:53:42Z</time>
      </trkpt>
      <trkpt lat="45.98622" lon="5.62317">
        <ele>1024.8</ele>
        <time>2026-05-12T08:53:43Z</time>
      </trkpt>
      <trkpt lat="45.98623" lon="5.62319">
        <ele>1024.8</ele>
        <time>2026-05-12T08:53:44Z</time>
      </trkpt>
      <trkpt lat="45.98623" lon="5.6232">
        <ele>1025.2</ele>
        <time>2026-05-12T08:53:45Z</time>
      </trkpt>
      <trkpt lat="45.98623" lon="5.62322">
        <ele>1025.2</ele>
        <time>2026-05-12T08:53:46Z</time>
      </trkpt>
      <trkpt lat="45.98624" lon="5.62324">
        <ele>1025.4</ele>
        <time>2026-05-12T08:53:47Z</time>
      </trkpt>
      <trkpt lat="45.98625" lon="5.62325">
        <ele>1025.4</ele>
        <time>2026-05-12T08:53:48Z</time>
      </trkpt>
      <trkpt lat="45.98625" lon="5.62327">
        <ele>1025.8</ele>
        <time>2026-05-12T08:53:49Z</time>
      </trkpt>
      <trkpt lat="45.98626" lon="5.62328">
        <ele>1025.8</ele>
        <time>2026-05-12T08:53:50Z</time>
      </trkpt>
      <trkpt lat="45.98627" lon="5.6233">
        <ele>1026</ele>
        <time>2026-05-12T08:53:51Z</time>
      </trkpt>
      <trkpt lat="45.98627" lon="5.62331">
        <ele>1026.4</ele>
        <time>2026-05-12T08:53:52Z</time>
      </trkpt>
      <trkpt lat="45.98628" lon="5.62333">
        <ele>1026.6</ele>
        <time>2026-05-12T08:53:53Z</time>
      </trkpt>
      <trkpt lat="45.98629" lon="5.62335">
        <ele>1026.6</ele>
        <time>2026-05-12T08:53:54Z</time>
      </trkpt>
      <trkpt lat="45.9863" lon="5.62336">
        <ele>1026.8</ele>
        <time>2026-05-12T08:53:55Z</time>
      </trkpt>
      <trkpt lat="45.9863" lon="5.62336">
        <ele>1026.8</ele>
        <time>2026-05-12T08:53:56Z</time>
      </trkpt>
      <trkpt lat="45.98631" lon="5.62337">
        <ele>1027.2</ele>
        <time>2026-05-12T08:53:57Z</time>
      </trkpt>
      <trkpt lat="45.98632" lon="5.62339">
        <ele>1027.2</ele>
        <time>2026-05-12T08:53:58Z</time>
      </trkpt>
      <trkpt lat="45.98634" lon="5.6234">
        <ele>1027.6</ele>
        <time>2026-05-12T08:53:59Z</time>
      </trkpt>
      <trkpt lat="45.98635" lon="5.6234">
        <ele>1028</ele>
        <time>2026-05-12T08:54:00Z</time>
      </trkpt>
      <trkpt lat="45.98636" lon="5.62341">
        <ele>1028.2</ele>
        <time>2026-05-12T08:54:01Z</time>
      </trkpt>
      <trkpt lat="45.98638" lon="5.62342">
        <ele>1028.4</ele>
        <time>2026-05-12T08:54:02Z</time>
      </trkpt>
      <trkpt lat="45.98639" lon="5.62343">
        <ele>1028.4</ele>
        <time>2026-05-12T08:54:03Z</time>
      </trkpt>
      <trkpt lat="45.98641" lon="5.62344">
        <ele>1028.8</ele>
        <time>2026-05-12T08:54:04Z</time>
      </trkpt>
      <trkpt lat="45.98643" lon="5.62344">
        <ele>1028.8</ele>
        <time>2026-05-12T08:54:05Z</time>
      </trkpt>
      <trkpt lat="45.98645" lon="5.62345">
        <ele>1029</ele>
        <time>2026-05-12T08:54:06Z</time>
      </trkpt>
      <trkpt lat="45.98646" lon="5.62345">
        <ele>1029.2</ele>
        <time>2026-05-12T08:54:07Z</time>
      </trkpt>
      <trkpt lat="45.98648" lon="5.62345">
        <ele>1029.6</ele>
        <time>2026-05-12T08:54:08Z</time>
      </trkpt>
      <trkpt lat="45.9865" lon="5.62345">
        <ele>1029.6</ele>
        <time>2026-05-12T08:54:09Z</time>
      </trkpt>
      <trkpt lat="45.98651" lon="5.62345">
        <ele>1030</ele>
        <time>2026-05-12T08:54:10Z</time>
      </trkpt>
      <trkpt lat="45.98652" lon="5.62346">
        <ele>1030.2</ele>
        <time>2026-05-12T08:54:11Z</time>
      </trkpt>
      <trkpt lat="45.98654" lon="5.62346">
        <ele>1030.2</ele>
        <time>2026-05-12T08:54:12Z</time>
      </trkpt>
      <trkpt lat="45.98655" lon="5.62347">
        <ele>1030.2</ele>
        <time>2026-05-12T08:54:13Z</time>
      </trkpt>
      <trkpt lat="45.98656" lon="5.62347">
        <ele>1030.6</ele>
        <time>2026-05-12T08:54:14Z</time>
      </trkpt>
      <trkpt lat="45.98658" lon="5.62347">
        <ele>1030.6</ele>
        <time>2026-05-12T08:54:15Z</time>
      </trkpt>
      <trkpt lat="45.98661" lon="5.62347">
        <ele>1030.8</ele>
        <time>2026-05-12T08:54:16Z</time>
      </trkpt>
      <trkpt lat="45.98663" lon="5.62346">
        <ele>1030.8</ele>
        <time>2026-05-12T08:54:17Z</time>
      </trkpt>
      <trkpt lat="45.98664" lon="5.62346">
        <ele>1031.2</ele>
        <time>2026-05-12T08:54:18Z</time>
      </trkpt>
      <trkpt lat="45.98664" lon="5.62346">
        <ele>1031.4</ele>
        <time>2026-05-12T08:54:19Z</time>
      </trkpt>
      <trkpt lat="45.98666" lon="5.62347">
        <ele>1031.4</ele>
        <time>2026-05-12T08:54:20Z</time>
      </trkpt>
      <trkpt lat="45.98668" lon="5.62347">
        <ele>1031.4</ele>
        <time>2026-05-12T08:54:21Z</time>
      </trkpt>
      <trkpt lat="45.98669" lon="5.62348">
        <ele>1031.4</ele>
        <time>2026-05-12T08:54:22Z</time>
      </trkpt>
      <trkpt lat="45.98671" lon="5.62348">
        <ele>1031.4</ele>
        <time>2026-05-12T08:54:23Z</time>
      </trkpt>
      <trkpt lat="45.98672" lon="5.62349">
        <ele>1031.6</ele>
        <time>2026-05-12T08:54:24Z</time>
      </trkpt>
      <trkpt lat="45.98674" lon="5.62349">
        <ele>1031.6</ele>
        <time>2026-05-12T08:54:25Z</time>
      </trkpt>
      <trkpt lat="45.98675" lon="5.6235">
        <ele>1031.6</ele>
        <time>2026-05-12T08:54:26Z</time>
      </trkpt>
      <trkpt lat="45.98676" lon="5.62351">
        <ele>1032</ele>
        <time>2026-05-12T08:54:27Z</time>
      </trkpt>
      <trkpt lat="45.98678" lon="5.62352">
        <ele>1032</ele>
        <time>2026-05-12T08:54:28Z</time>
      </trkpt>
      <trkpt lat="45.98679" lon="5.62353">
        <ele>1032</ele>
        <time>2026-05-12T08:54:29Z</time>
      </trkpt>
      <trkpt lat="45.9868" lon="5.62354">
        <ele>1032</ele>
        <time>2026-05-12T08:54:30Z</time>
      </trkpt>
      <trkpt lat="45.98682" lon="5.62355">
        <ele>1032.4</ele>
        <time>2026-05-12T08:54:31Z</time>
      </trkpt>
      <trkpt lat="45.98684" lon="5.62356">
        <ele>1032.4</ele>
        <time>2026-05-12T08:54:32Z</time>
      </trkpt>
      <trkpt lat="45.98685" lon="5.62357">
        <ele>1032.4</ele>
        <time>2026-05-12T08:54:33Z</time>
      </trkpt>
      <trkpt lat="45.98687" lon="5.62358">
        <ele>1032.4</ele>
        <time>2026-05-12T08:54:34Z</time>
      </trkpt>
      <trkpt lat="45.98689" lon="5.62359">
        <ele>1032.8</ele>
        <time>2026-05-12T08:54:35Z</time>
      </trkpt>
      <trkpt lat="45.9869" lon="5.6236">
        <ele>1033.2</ele>
        <time>2026-05-12T08:54:36Z</time>
      </trkpt>
      <trkpt lat="45.98691" lon="5.62361">
        <ele>1033.2</ele>
        <time>2026-05-12T08:54:37Z</time>
      </trkpt>
      <trkpt lat="45.98693" lon="5.62362">
        <ele>1033.4</ele>
        <time>2026-05-12T08:54:38Z</time>
      </trkpt>
      <trkpt lat="45.98695" lon="5.62363">
        <ele>1033.6</ele>
        <time>2026-05-12T08:54:39Z</time>
      </trkpt>
      <trkpt lat="45.98696" lon="5.62364">
        <ele>1033.6</ele>
        <time>2026-05-12T08:54:40Z</time>
      </trkpt>
      <trkpt lat="45.98698" lon="5.62365">
        <ele>1033.8</ele>
        <time>2026-05-12T08:54:41Z</time>
      </trkpt>
      <trkpt lat="45.98699" lon="5.62365">
        <ele>1033.8</ele>
        <time>2026-05-12T08:54:42Z</time>
      </trkpt>
      <trkpt lat="45.98701" lon="5.62365">
        <ele>1033.8</ele>
        <time>2026-05-12T08:54:43Z</time>
      </trkpt>
      <trkpt lat="45.98702" lon="5.62366">
        <ele>1033.8</ele>
        <time>2026-05-12T08:54:44Z</time>
      </trkpt>
      <trkpt lat="45.98705" lon="5.62367">
        <ele>1034</ele>
        <time>2026-05-12T08:54:45Z</time>
      </trkpt>
      <trkpt lat="45.98706" lon="5.62368">
        <ele>1034</ele>
        <time>2026-05-12T08:54:46Z</time>
      </trkpt>
      <trkpt lat="45.98707" lon="5.62368">
        <ele>1034</ele>
        <time>2026-05-12T08:54:47Z</time>
      </trkpt>
      <trkpt lat="45.98708" lon="5.6237">
        <ele>1034</ele>
        <time>2026-05-12T08:54:48Z</time>
      </trkpt>
      <trkpt lat="45.9871" lon="5.62372">
        <ele>1034.4</ele>
        <time>2026-05-12T08:54:49Z</time>
      </trkpt>
      <trkpt lat="45.98711" lon="5.62373">
        <ele>1034.4</ele>
        <time>2026-05-12T08:54:50Z</time>
      </trkpt>
      <trkpt lat="45.98712" lon="5.62375">
        <ele>1034.6</ele>
        <time>2026-05-12T08:54:51Z</time>
      </trkpt>
      <trkpt lat="45.98713" lon="5.62377">
        <ele>1034.6</ele>
        <time>2026-05-12T08:54:52Z</time>
      </trkpt>
      <trkpt lat="45.98714" lon="5.62379">
        <ele>1034.6</ele>
        <time>2026-05-12T08:54:53Z</time>
      </trkpt>
      <trkpt lat="45.98716" lon="5.62381">
        <ele>1034.6</ele>
        <time>2026-05-12T08:54:54Z</time>
      </trkpt>
      <trkpt lat="45.98718" lon="5.62383">
        <ele>1035</ele>
        <time>2026-05-12T08:54:55Z</time>
      </trkpt>
      <trkpt lat="45.9872" lon="5.62384">
        <ele>1035</ele>
        <time>2026-05-12T08:54:56Z</time>
      </trkpt>
      <trkpt lat="45.98722" lon="5.62386">
        <ele>1035.2</ele>
        <time>2026-05-12T08:54:57Z</time>
      </trkpt>
      <trkpt lat="45.98724" lon="5.62388">
        <ele>1035.2</ele>
        <time>2026-05-12T08:54:58Z</time>
      </trkpt>
      <trkpt lat="45.98726" lon="5.62389">
        <ele>1035.2</ele>
        <time>2026-05-12T08:54:59Z</time>
      </trkpt>
      <trkpt lat="45.98728" lon="5.62391">
        <ele>1035.2</ele>
        <time>2026-05-12T08:55:00Z</time>
      </trkpt>
      <trkpt lat="45.98731" lon="5.62393">
        <ele>1035.6</ele>
        <time>2026-05-12T08:55:01Z</time>
      </trkpt>
      <trkpt lat="45.98733" lon="5.62395">
        <ele>1035.6</ele>
        <time>2026-05-12T08:55:02Z</time>
      </trkpt>
      <trkpt lat="45.98734" lon="5.62398">
        <ele>1035.6</ele>
        <time>2026-05-12T08:55:03Z</time>
      </trkpt>
      <trkpt lat="45.98735" lon="5.62399">
        <ele>1035.6</ele>
        <time>2026-05-12T08:55:04Z</time>
      </trkpt>
      <trkpt lat="45.98736" lon="5.62401">
        <ele>1035.8</ele>
        <time>2026-05-12T08:55:05Z</time>
      </trkpt>
      <trkpt lat="45.98739" lon="5.62403">
        <ele>1035.8</ele>
        <time>2026-05-12T08:55:06Z</time>
      </trkpt>
      <trkpt lat="45.98741" lon="5.62405">
        <ele>1035.8</ele>
        <time>2026-05-12T08:55:07Z</time>
      </trkpt>
      <trkpt lat="45.98742" lon="5.62407">
        <ele>1036</ele>
        <time>2026-05-12T08:55:08Z</time>
      </trkpt>
      <trkpt lat="45.98744" lon="5.62408">
        <ele>1036</ele>
        <time>2026-05-12T08:55:09Z</time>
      </trkpt>
      <trkpt lat="45.98746" lon="5.62409">
        <ele>1036</ele>
        <time>2026-05-12T08:55:10Z</time>
      </trkpt>
      <trkpt lat="45.98748" lon="5.6241">
        <ele>1036.4</ele>
        <time>2026-05-12T08:55:11Z</time>
      </trkpt>
      <trkpt lat="45.98749" lon="5.62411">
        <ele>1036.4</ele>
        <time>2026-05-12T08:55:12Z</time>
      </trkpt>
      <trkpt lat="45.9875" lon="5.62412">
        <ele>1036.4</ele>
        <time>2026-05-12T08:55:13Z</time>
      </trkpt>
      <trkpt lat="45.98752" lon="5.62413">
        <ele>1036.8</ele>
        <time>2026-05-12T08:55:14Z</time>
      </trkpt>
      <trkpt lat="45.98754" lon="5.62414">
        <ele>1037</ele>
        <time>2026-05-12T08:55:15Z</time>
      </trkpt>
      <trkpt lat="45.98755" lon="5.62414">
        <ele>1037</ele>
        <time>2026-05-12T08:55:16Z</time>
      </trkpt>
      <trkpt lat="45.98757" lon="5.62415">
        <ele>1037.4</ele>
        <time>2026-05-12T08:55:17Z</time>
      </trkpt>
      <trkpt lat="45.98759" lon="5.62416">
        <ele>1037.4</ele>
        <time>2026-05-12T08:55:18Z</time>
      </trkpt>
      <trkpt lat="45.98761" lon="5.62417">
        <ele>1037.6</ele>
        <time>2026-05-12T08:55:19Z</time>
      </trkpt>
      <trkpt lat="45.98763" lon="5.62418">
        <ele>1037.6</ele>
        <time>2026-05-12T08:55:20Z</time>
      </trkpt>
      <trkpt lat="45.98766" lon="5.62421">
        <ele>1037.6</ele>
        <time>2026-05-12T08:55:21Z</time>
      </trkpt>
      <trkpt lat="45.98768" lon="5.62422">
        <ele>1037.8</ele>
        <time>2026-05-12T08:55:22Z</time>
      </trkpt>
      <trkpt lat="45.9877" lon="5.62423">
        <ele>1037.8</ele>
        <time>2026-05-12T08:55:23Z</time>
      </trkpt>
      <trkpt lat="45.98771" lon="5.62423">
        <ele>1037.8</ele>
        <time>2026-05-12T08:55:24Z</time>
      </trkpt>
      <trkpt lat="45.98773" lon="5.62423">
        <ele>1038</ele>
        <time>2026-05-12T08:55:25Z</time>
      </trkpt>
      <trkpt lat="45.98775" lon="5.62422">
        <ele>1038</ele>
        <time>2026-05-12T08:55:26Z</time>
      </trkpt>
      <trkpt lat="45.98777" lon="5.62422">
        <ele>1038.4</ele>
        <time>2026-05-12T08:55:27Z</time>
      </trkpt>
      <trkpt lat="45.98779" lon="5.62422">
        <ele>1038.4</ele>
        <time>2026-05-12T08:55:28Z</time>
      </trkpt>
      <trkpt lat="45.98781" lon="5.62422">
        <ele>1038.4</ele>
        <time>2026-05-12T08:55:29Z</time>
      </trkpt>
      <trkpt lat="45.98783" lon="5.62423">
        <ele>1038.6</ele>
        <time>2026-05-12T08:55:30Z</time>
      </trkpt>
      <trkpt lat="45.98785" lon="5.62423">
        <ele>1038.6</ele>
        <time>2026-05-12T08:55:31Z</time>
      </trkpt>
      <trkpt lat="45.98787" lon="5.62424">
        <ele>1039</ele>
        <time>2026-05-12T08:55:32Z</time>
      </trkpt>
      <trkpt lat="45.9879" lon="5.62426">
        <ele>1039</ele>
        <time>2026-05-12T08:55:33Z</time>
      </trkpt>
      <trkpt lat="45.98792" lon="5.62427">
        <ele>1039.2</ele>
        <time>2026-05-12T08:55:34Z</time>
      </trkpt>
      <trkpt lat="45.98794" lon="5.62428">
        <ele>1039.2</ele>
        <time>2026-05-12T08:55:35Z</time>
      </trkpt>
      <trkpt lat="45.98796" lon="5.62428">
        <ele>1039.2</ele>
        <time>2026-05-12T08:55:36Z</time>
      </trkpt>
      <trkpt lat="45.98799" lon="5.6243">
        <ele>1039.6</ele>
        <time>2026-05-12T08:55:37Z</time>
      </trkpt>
      <trkpt lat="45.98801" lon="5.6243">
        <ele>1039.6</ele>
        <time>2026-05-12T08:55:38Z</time>
      </trkpt>
      <trkpt lat="45.98803" lon="5.6243">
        <ele>1039.6</ele>
        <time>2026-05-12T08:55:39Z</time>
      </trkpt>
      <trkpt lat="45.98805" lon="5.6243">
        <ele>1040</ele>
        <time>2026-05-12T08:55:40Z</time>
      </trkpt>
      <trkpt lat="45.98807" lon="5.6243">
        <ele>1040</ele>
        <time>2026-05-12T08:55:41Z</time>
      </trkpt>
      <trkpt lat="45.98809" lon="5.6243">
        <ele>1040.2</ele>
        <time>2026-05-12T08:55:42Z</time>
      </trkpt>
      <trkpt lat="45.98811" lon="5.62431">
        <ele>1040.2</ele>
        <time>2026-05-12T08:55:43Z</time>
      </trkpt>
      <trkpt lat="45.98814" lon="5.62431">
        <ele>1040.6</ele>
        <time>2026-05-12T08:55:44Z</time>
      </trkpt>
      <trkpt lat="45.98816" lon="5.62431">
        <ele>1040.6</ele>
        <time>2026-05-12T08:55:45Z</time>
      </trkpt>
      <trkpt lat="45.98818" lon="5.62432">
        <ele>1040.8</ele>
        <time>2026-05-12T08:55:46Z</time>
      </trkpt>
      <trkpt lat="45.98819" lon="5.62432">
        <ele>1040.8</ele>
        <time>2026-05-12T08:55:47Z</time>
      </trkpt>
      <trkpt lat="45.98821" lon="5.62433">
        <ele>1040.8</ele>
        <time>2026-05-12T08:55:48Z</time>
      </trkpt>
      <trkpt lat="45.98823" lon="5.62434">
        <ele>1041.2</ele>
        <time>2026-05-12T08:55:49Z</time>
      </trkpt>
      <trkpt lat="45.98825" lon="5.62436">
        <ele>1041.2</ele>
        <time>2026-05-12T08:55:50Z</time>
      </trkpt>
      <trkpt lat="45.98827" lon="5.62436">
        <ele>1041.4</ele>
        <time>2026-05-12T08:55:51Z</time>
      </trkpt>
      <trkpt lat="45.98829" lon="5.62437">
        <ele>1041.4</ele>
        <time>2026-05-12T08:55:52Z</time>
      </trkpt>
      <trkpt lat="45.98831" lon="5.62438">
        <ele>1041.6</ele>
        <time>2026-05-12T08:55:53Z</time>
      </trkpt>
      <trkpt lat="45.98833" lon="5.62439">
        <ele>1041.6</ele>
        <time>2026-05-12T08:55:54Z</time>
      </trkpt>
      <trkpt lat="45.98835" lon="5.62439">
        <ele>1042</ele>
        <time>2026-05-12T08:55:55Z</time>
      </trkpt>
      <trkpt lat="45.98836" lon="5.6244">
        <ele>1042</ele>
        <time>2026-05-12T08:55:56Z</time>
      </trkpt>
      <trkpt lat="45.98838" lon="5.62441">
        <ele>1042</ele>
        <time>2026-05-12T08:55:57Z</time>
      </trkpt>
      <trkpt lat="45.98841" lon="5.62443">
        <ele>1042</ele>
        <time>2026-05-12T08:55:58Z</time>
      </trkpt>
      <trkpt lat="45.98843" lon="5.62444">
        <ele>1042.2</ele>
        <time>2026-05-12T08:55:59Z</time>
      </trkpt>
      <trkpt lat="45.98844" lon="5.62445">
        <ele>1042.2</ele>
        <time>2026-05-12T08:56:00Z</time>
      </trkpt>
      <trkpt lat="45.98846" lon="5.62446">
        <ele>1042.6</ele>
        <time>2026-05-12T08:56:01Z</time>
      </trkpt>
      <trkpt lat="45.98847" lon="5.62447">
        <ele>1042.6</ele>
        <time>2026-05-12T08:56:02Z</time>
      </trkpt>
      <trkpt lat="45.98848" lon="5.62448">
        <ele>1042.6</ele>
        <time>2026-05-12T08:56:03Z</time>
      </trkpt>
      <trkpt lat="45.9885" lon="5.62449">
        <ele>1042.6</ele>
        <time>2026-05-12T08:56:04Z</time>
      </trkpt>
      <trkpt lat="45.98851" lon="5.62452">
        <ele>1043</ele>
        <time>2026-05-12T08:56:05Z</time>
      </trkpt>
      <trkpt lat="45.98852" lon="5.62454">
        <ele>1043</ele>
        <time>2026-05-12T08:56:06Z</time>
      </trkpt>
      <trkpt lat="45.98854" lon="5.62456">
        <ele>1043</ele>
        <time>2026-05-12T08:56:07Z</time>
      </trkpt>
      <trkpt lat="45.98855" lon="5.62457">
        <ele>1043.2</ele>
        <time>2026-05-12T08:56:08Z</time>
      </trkpt>
      <trkpt lat="45.98856" lon="5.62458">
        <ele>1043.4</ele>
        <time>2026-05-12T08:56:09Z</time>
      </trkpt>
      <trkpt lat="45.98858" lon="5.6246">
        <ele>1043.8</ele>
        <time>2026-05-12T08:56:10Z</time>
      </trkpt>
      <trkpt lat="45.9886" lon="5.62463">
        <ele>1043.8</ele>
        <time>2026-05-12T08:56:11Z</time>
      </trkpt>
      <trkpt lat="45.98862" lon="5.62464">
        <ele>1043.8</ele>
        <time>2026-05-12T08:56:12Z</time>
      </trkpt>
      <trkpt lat="45.98864" lon="5.62465">
        <ele>1044</ele>
        <time>2026-05-12T08:56:13Z</time>
      </trkpt>
      <trkpt lat="45.98866" lon="5.62466">
        <ele>1044.4</ele>
        <time>2026-05-12T08:56:14Z</time>
      </trkpt>
      <trkpt lat="45.98868" lon="5.62466">
        <ele>1044.4</ele>
        <time>2026-05-12T08:56:15Z</time>
      </trkpt>
      <trkpt lat="45.98869" lon="5.62467">
        <ele>1044.6</ele>
        <time>2026-05-12T08:56:16Z</time>
      </trkpt>
      <trkpt lat="45.98871" lon="5.62468">
        <ele>1044.6</ele>
        <time>2026-05-12T08:56:17Z</time>
      </trkpt>
      <trkpt lat="45.98873" lon="5.62469">
        <ele>1044.8</ele>
        <time>2026-05-12T08:56:18Z</time>
      </trkpt>
      <trkpt lat="45.98875" lon="5.6247">
        <ele>1044.8</ele>
        <time>2026-05-12T08:56:19Z</time>
      </trkpt>
      <trkpt lat="45.98877" lon="5.62471">
        <ele>1045.2</ele>
        <time>2026-05-12T08:56:20Z</time>
      </trkpt>
      <trkpt lat="45.98879" lon="5.62472">
        <ele>1045.2</ele>
        <time>2026-05-12T08:56:21Z</time>
      </trkpt>
      <trkpt lat="45.9888" lon="5.62473">
        <ele>1045.6</ele>
        <time>2026-05-12T08:56:22Z</time>
      </trkpt>
      <trkpt lat="45.98881" lon="5.62473">
        <ele>1045.6</ele>
        <time>2026-05-12T08:56:23Z</time>
      </trkpt>
      <trkpt lat="45.98883" lon="5.62474">
        <ele>1046</ele>
        <time>2026-05-12T08:56:24Z</time>
      </trkpt>
      <trkpt lat="45.98885" lon="5.62475">
        <ele>1046</ele>
        <time>2026-05-12T08:56:25Z</time>
      </trkpt>
      <trkpt lat="45.98887" lon="5.62476">
        <ele>1046.2</ele>
        <time>2026-05-12T08:56:26Z</time>
      </trkpt>
      <trkpt lat="45.98888" lon="5.62477">
        <ele>1046.4</ele>
        <time>2026-05-12T08:56:27Z</time>
      </trkpt>
      <trkpt lat="45.9889" lon="5.62479">
        <ele>1046.4</ele>
        <time>2026-05-12T08:56:28Z</time>
      </trkpt>
      <trkpt lat="45.98892" lon="5.6248">
        <ele>1046.8</ele>
        <time>2026-05-12T08:56:29Z</time>
      </trkpt>
      <trkpt lat="45.98895" lon="5.62482">
        <ele>1046.8</ele>
        <time>2026-05-12T08:56:30Z</time>
      </trkpt>
      <trkpt lat="45.98896" lon="5.62484">
        <ele>1047.2</ele>
        <time>2026-05-12T08:56:31Z</time>
      </trkpt>
      <trkpt lat="45.98897" lon="5.62485">
        <ele>1047.2</ele>
        <time>2026-05-12T08:56:32Z</time>
      </trkpt>
      <trkpt lat="45.98897" lon="5.62486">
        <ele>1047.6</ele>
        <time>2026-05-12T08:56:33Z</time>
      </trkpt>
      <trkpt lat="45.98898" lon="5.62486">
        <ele>1047.8</ele>
        <time>2026-05-12T08:56:34Z</time>
      </trkpt>
      <trkpt lat="45.98899" lon="5.62487">
        <ele>1047.8</ele>
        <time>2026-05-12T08:56:35Z</time>
      </trkpt>
      <trkpt lat="45.989" lon="5.62488">
        <ele>1048.2</ele>
        <time>2026-05-12T08:56:36Z</time>
      </trkpt>
      <trkpt lat="45.98901" lon="5.62489">
        <ele>1048.2</ele>
        <time>2026-05-12T08:56:37Z</time>
      </trkpt>
      <trkpt lat="45.98902" lon="5.6249">
        <ele>1048.2</ele>
        <time>2026-05-12T08:56:38Z</time>
      </trkpt>
      <trkpt lat="45.98904" lon="5.62492">
        <ele>1048.6</ele>
        <time>2026-05-12T08:56:39Z</time>
      </trkpt>
      <trkpt lat="45.98907" lon="5.62493">
        <ele>1048.6</ele>
        <time>2026-05-12T08:56:40Z</time>
      </trkpt>
      <trkpt lat="45.98909" lon="5.62494">
        <ele>1049</ele>
        <time>2026-05-12T08:56:41Z</time>
      </trkpt>
      <trkpt lat="45.98911" lon="5.62495">
        <ele>1049</ele>
        <time>2026-05-12T08:56:42Z</time>
      </trkpt>
      <trkpt lat="45.98914" lon="5.62496">
        <ele>1049.2</ele>
        <time>2026-05-12T08:56:43Z</time>
      </trkpt>
      <trkpt lat="45.98916" lon="5.62497">
        <ele>1049.2</ele>
        <time>2026-05-12T08:56:44Z</time>
      </trkpt>
      <trkpt lat="45.98917" lon="5.62498">
        <ele>1049.2</ele>
        <time>2026-05-12T08:56:45Z</time>
      </trkpt>
      <trkpt lat="45.98919" lon="5.62499">
        <ele>1049.4</ele>
        <time>2026-05-12T08:56:46Z</time>
      </trkpt>
      <trkpt lat="45.98921" lon="5.625">
        <ele>1049.4</ele>
        <time>2026-05-12T08:56:47Z</time>
      </trkpt>
      <trkpt lat="45.98923" lon="5.62502">
        <ele>1049.8</ele>
        <time>2026-05-12T08:56:48Z</time>
      </trkpt>
      <trkpt lat="45.98925" lon="5.62504">
        <ele>1050</ele>
        <time>2026-05-12T08:56:49Z</time>
      </trkpt>
      <trkpt lat="45.98927" lon="5.62505">
        <ele>1050</ele>
        <time>2026-05-12T08:56:50Z</time>
      </trkpt>
      <trkpt lat="45.98929" lon="5.62507">
        <ele>1050</ele>
        <time>2026-05-12T08:56:51Z</time>
      </trkpt>
      <trkpt lat="45.9893" lon="5.62508">
        <ele>1050.4</ele>
        <time>2026-05-12T08:56:52Z</time>
      </trkpt>
      <trkpt lat="45.98931" lon="5.6251">
        <ele>1050.4</ele>
        <time>2026-05-12T08:56:53Z</time>
      </trkpt>
      <trkpt lat="45.98933" lon="5.62511">
        <ele>1050.4</ele>
        <time>2026-05-12T08:56:54Z</time>
      </trkpt>
      <trkpt lat="45.98934" lon="5.62512">
        <ele>1050.8</ele>
        <time>2026-05-12T08:56:55Z</time>
      </trkpt>
      <trkpt lat="45.98935" lon="5.62513">
        <ele>1050.8</ele>
        <time>2026-05-12T08:56:56Z</time>
      </trkpt>
      <trkpt lat="45.98936" lon="5.62515">
        <ele>1051.2</ele>
        <time>2026-05-12T08:56:57Z</time>
      </trkpt>
      <trkpt lat="45.98938" lon="5.62517">
        <ele>1051.2</ele>
        <time>2026-05-12T08:56:58Z</time>
      </trkpt>
      <trkpt lat="45.98939" lon="5.62518">
        <ele>1051.4</ele>
        <time>2026-05-12T08:56:59Z</time>
      </trkpt>
      <trkpt lat="45.9894" lon="5.62519">
        <ele>1051.4</ele>
        <time>2026-05-12T08:57:00Z</time>
      </trkpt>
      <trkpt lat="45.98942" lon="5.62521">
        <ele>1051.4</ele>
        <time>2026-05-12T08:57:01Z</time>
      </trkpt>
      <trkpt lat="45.98943" lon="5.62521">
        <ele>1051.6</ele>
        <time>2026-05-12T08:57:02Z</time>
      </trkpt>
      <trkpt lat="45.98943" lon="5.62522">
        <ele>1051.6</ele>
        <time>2026-05-12T08:57:03Z</time>
      </trkpt>
      <trkpt lat="45.98944" lon="5.62523">
        <ele>1051.6</ele>
        <time>2026-05-12T08:57:04Z</time>
      </trkpt>
      <trkpt lat="45.98944" lon="5.62525">
        <ele>1051.6</ele>
        <time>2026-05-12T08:57:05Z</time>
      </trkpt>
      <trkpt lat="45.98944" lon="5.62525">
        <ele>1051.8</ele>
        <time>2026-05-12T08:57:06Z</time>
      </trkpt>
      <trkpt lat="45.98944" lon="5.62525">
        <ele>1051.8</ele>
        <time>2026-05-12T08:57:07Z</time>
      </trkpt>
      <trkpt lat="45.98944" lon="5.62527">
        <ele>1051.8</ele>
        <time>2026-05-12T08:57:08Z</time>
      </trkpt>
      <trkpt lat="45.98945" lon="5.6253">
        <ele>1051.8</ele>
        <time>2026-05-12T08:57:09Z</time>
      </trkpt>
      <trkpt lat="45.98946" lon="5.62533">
        <ele>1051.8</ele>
        <time>2026-05-12T08:57:10Z</time>
      </trkpt>
      <trkpt lat="45.98946" lon="5.62536">
        <ele>1051.8</ele>
        <time>2026-05-12T08:57:11Z</time>
      </trkpt>
      <trkpt lat="45.98947" lon="5.62539">
        <ele>1051.8</ele>
        <time>2026-05-12T08:57:12Z</time>
      </trkpt>
      <trkpt lat="45.98948" lon="5.62542">
        <ele>1051.8</ele>
        <time>2026-05-12T08:57:13Z</time>
      </trkpt>
      <trkpt lat="45.98949" lon="5.62545">
        <ele>1051.8</ele>
        <time>2026-05-12T08:57:14Z</time>
      </trkpt>
      <trkpt lat="45.98949" lon="5.62549">
        <ele>1051.8</ele>
        <time>2026-05-12T08:57:15Z</time>
      </trkpt>
      <trkpt lat="45.98949" lon="5.62554">
        <ele>1051.8</ele>
        <time>2026-05-12T08:57:16Z</time>
      </trkpt>
      <trkpt lat="45.98949" lon="5.62558">
        <ele>1051.8</ele>
        <time>2026-05-12T08:57:17Z</time>
      </trkpt>
      <trkpt lat="45.98949" lon="5.62563">
        <ele>1051.4</ele>
        <time>2026-05-12T08:57:18Z</time>
      </trkpt>
      <trkpt lat="45.98949" lon="5.62567">
        <ele>1051.4</ele>
        <time>2026-05-12T08:57:19Z</time>
      </trkpt>
      <trkpt lat="45.98949" lon="5.62571">
        <ele>1051.2</ele>
        <time>2026-05-12T08:57:20Z</time>
      </trkpt>
      <trkpt lat="45.98949" lon="5.62575">
        <ele>1050.8</ele>
        <time>2026-05-12T08:57:21Z</time>
      </trkpt>
      <trkpt lat="45.9895" lon="5.62581">
        <ele>1050.8</ele>
        <time>2026-05-12T08:57:22Z</time>
      </trkpt>
      <trkpt lat="45.98951" lon="5.62586">
        <ele>1050.8</ele>
        <time>2026-05-12T08:57:23Z</time>
      </trkpt>
      <trkpt lat="45.98952" lon="5.62591">
        <ele>1050.4</ele>
        <time>2026-05-12T08:57:24Z</time>
      </trkpt>
      <trkpt lat="45.98954" lon="5.62596">
        <ele>1050.4</ele>
        <time>2026-05-12T08:57:25Z</time>
      </trkpt>
      <trkpt lat="45.98956" lon="5.62601">
        <ele>1050</ele>
        <time>2026-05-12T08:57:26Z</time>
      </trkpt>
      <trkpt lat="45.98958" lon="5.62605">
        <ele>1049.8</ele>
        <time>2026-05-12T08:57:27Z</time>
      </trkpt>
      <trkpt lat="45.98961" lon="5.6261">
        <ele>1049.8</ele>
        <time>2026-05-12T08:57:28Z</time>
      </trkpt>
      <trkpt lat="45.98963" lon="5.62614">
        <ele>1049.4</ele>
        <time>2026-05-12T08:57:29Z</time>
      </trkpt>
      <trkpt lat="45.98967" lon="5.62617">
        <ele>1049.4</ele>
        <time>2026-05-12T08:57:30Z</time>
      </trkpt>
      <trkpt lat="45.98971" lon="5.62619">
        <ele>1049.4</ele>
        <time>2026-05-12T08:57:31Z</time>
      </trkpt>
      <trkpt lat="45.98975" lon="5.62621">
        <ele>1049.4</ele>
        <time>2026-05-12T08:57:32Z</time>
      </trkpt>
      <trkpt lat="45.98979" lon="5.62622">
        <ele>1049.4</ele>
        <time>2026-05-12T08:57:33Z</time>
      </trkpt>
      <trkpt lat="45.98982" lon="5.62623">
        <ele>1049.4</ele>
        <time>2026-05-12T08:57:34Z</time>
      </trkpt>
      <trkpt lat="45.98985" lon="5.62623">
        <ele>1049.6</ele>
        <time>2026-05-12T08:57:35Z</time>
      </trkpt>
      <trkpt lat="45.98989" lon="5.62623">
        <ele>1049.6</ele>
        <time>2026-05-12T08:57:36Z</time>
      </trkpt>
      <trkpt lat="45.98992" lon="5.62623">
        <ele>1049.6</ele>
        <time>2026-05-12T08:57:37Z</time>
      </trkpt>
      <trkpt lat="45.98996" lon="5.62623">
        <ele>1049.4</ele>
        <time>2026-05-12T08:57:38Z</time>
      </trkpt>
      <trkpt lat="45.98999" lon="5.62623">
        <ele>1049.4</ele>
        <time>2026-05-12T08:57:39Z</time>
      </trkpt>
      <trkpt lat="45.99002" lon="5.62624">
        <ele>1049.4</ele>
        <time>2026-05-12T08:57:40Z</time>
      </trkpt>
      <trkpt lat="45.99006" lon="5.62625">
        <ele>1049.4</ele>
        <time>2026-05-12T08:57:41Z</time>
      </trkpt>
      <trkpt lat="45.99009" lon="5.62626">
        <ele>1049</ele>
        <time>2026-05-12T08:57:42Z</time>
      </trkpt>
      <trkpt lat="45.99012" lon="5.62627">
        <ele>1049</ele>
        <time>2026-05-12T08:57:43Z</time>
      </trkpt>
      <trkpt lat="45.99015" lon="5.62629">
        <ele>1049</ele>
        <time>2026-05-12T08:57:44Z</time>
      </trkpt>
      <trkpt lat="45.99017" lon="5.6263">
        <ele>1049</ele>
        <time>2026-05-12T08:57:45Z</time>
      </trkpt>
      <trkpt lat="45.9902" lon="5.6263">
        <ele>1049</ele>
        <time>2026-05-12T08:57:46Z</time>
      </trkpt>
      <trkpt lat="45.99022" lon="5.62631">
        <ele>1049.2</ele>
        <time>2026-05-12T08:57:47Z</time>
      </trkpt>
      <trkpt lat="45.99025" lon="5.62631">
        <ele>1049.2</ele>
        <time>2026-05-12T08:57:48Z</time>
      </trkpt>
      <trkpt lat="45.99029" lon="5.62632">
        <ele>1049.6</ele>
        <time>2026-05-12T08:57:49Z</time>
      </trkpt>
      <trkpt lat="45.99032" lon="5.62632">
        <ele>1049.6</ele>
        <time>2026-05-12T08:57:50Z</time>
      </trkpt>
      <trkpt lat="45.99035" lon="5.62633">
        <ele>1049.8</ele>
        <time>2026-05-12T08:57:51Z</time>
      </trkpt>
      <trkpt lat="45.99038" lon="5.62635">
        <ele>1049.8</ele>
        <time>2026-05-12T08:57:52Z</time>
      </trkpt>
      <trkpt lat="45.9904" lon="5.62636">
        <ele>1049.8</ele>
        <time>2026-05-12T08:57:53Z</time>
      </trkpt>
      <trkpt lat="45.99043" lon="5.62638">
        <ele>1050</ele>
        <time>2026-05-12T08:57:54Z</time>
      </trkpt>
      <trkpt lat="45.99046" lon="5.62639">
        <ele>1050</ele>
        <time>2026-05-12T08:57:55Z</time>
      </trkpt>
      <trkpt lat="45.99048" lon="5.6264">
        <ele>1050.2</ele>
        <time>2026-05-12T08:57:56Z</time>
      </trkpt>
      <trkpt lat="45.99051" lon="5.62641">
        <ele>1050.6</ele>
        <time>2026-05-12T08:57:57Z</time>
      </trkpt>
      <trkpt lat="45.99053" lon="5.62641">
        <ele>1050.6</ele>
        <time>2026-05-12T08:57:58Z</time>
      </trkpt>
      <trkpt lat="45.99055" lon="5.62642">
        <ele>1050.8</ele>
        <time>2026-05-12T08:57:59Z</time>
      </trkpt>
      <trkpt lat="45.99057" lon="5.62643">
        <ele>1051.2</ele>
        <time>2026-05-12T08:58:00Z</time>
      </trkpt>
      <trkpt lat="45.9906" lon="5.62644">
        <ele>1051.2</ele>
        <time>2026-05-12T08:58:01Z</time>
      </trkpt>
      <trkpt lat="45.99062" lon="5.62645">
        <ele>1051.4</ele>
        <time>2026-05-12T08:58:02Z</time>
      </trkpt>
      <trkpt lat="45.99062" lon="5.62645">
        <ele>1051.4</ele>
        <time>2026-05-12T08:58:03Z</time>
      </trkpt>
      <trkpt lat="45.99062" lon="5.62645">
        <ele>1051.4</ele>
        <time>2026-05-12T08:58:04Z</time>
      </trkpt>
      <trkpt lat="45.99067" lon="5.62647">
        <ele>1052.2</ele>
        <time>2026-05-12T08:58:06Z</time>
      </trkpt>
      <trkpt lat="45.99068" lon="5.62647">
        <ele>1052.2</ele>
        <time>2026-05-12T08:58:07Z</time>
      </trkpt>
      <trkpt lat="45.9907" lon="5.62648">
        <ele>1052.6</ele>
        <time>2026-05-12T08:58:08Z</time>
      </trkpt>
      <trkpt lat="45.99072" lon="5.62649">
        <ele>1052.6</ele>
        <time>2026-05-12T08:58:09Z</time>
      </trkpt>
      <trkpt lat="45.99074" lon="5.6265">
        <ele>1053</ele>
        <time>2026-05-12T08:58:10Z</time>
      </trkpt>
      <trkpt lat="45.99075" lon="5.62652">
        <ele>1053</ele>
        <time>2026-05-12T08:58:11Z</time>
      </trkpt>
      <trkpt lat="45.99076" lon="5.62653">
        <ele>1053.2</ele>
        <time>2026-05-12T08:58:12Z</time>
      </trkpt>
      <trkpt lat="45.99078" lon="5.62654">
        <ele>1053.2</ele>
        <time>2026-05-12T08:58:13Z</time>
      </trkpt>
      <trkpt lat="45.99079" lon="5.62655">
        <ele>1053.6</ele>
        <time>2026-05-12T08:58:14Z</time>
      </trkpt>
      <trkpt lat="45.9908" lon="5.62655">
        <ele>1053.6</ele>
        <time>2026-05-12T08:58:15Z</time>
      </trkpt>
      <trkpt lat="45.99081" lon="5.62656">
        <ele>1054</ele>
        <time>2026-05-12T08:58:16Z</time>
      </trkpt>
      <trkpt lat="45.99083" lon="5.62657">
        <ele>1054</ele>
        <time>2026-05-12T08:58:17Z</time>
      </trkpt>
      <trkpt lat="45.99084" lon="5.62658">
        <ele>1054.6</ele>
        <time>2026-05-12T08:58:18Z</time>
      </trkpt>
      <trkpt lat="45.99086" lon="5.62658">
        <ele>1054.8</ele>
        <time>2026-05-12T08:58:19Z</time>
      </trkpt>
      <trkpt lat="45.99088" lon="5.62659">
        <ele>1054.8</ele>
        <time>2026-05-12T08:58:20Z</time>
      </trkpt>
      <trkpt lat="45.99089" lon="5.62659">
        <ele>1055</ele>
        <time>2026-05-12T08:58:21Z</time>
      </trkpt>
      <trkpt lat="45.99091" lon="5.6266">
        <ele>1055.2</ele>
        <time>2026-05-12T08:58:22Z</time>
      </trkpt>
      <trkpt lat="45.99092" lon="5.62661">
        <ele>1055.6</ele>
        <time>2026-05-12T08:58:23Z</time>
      </trkpt>
      <trkpt lat="45.99093" lon="5.62662">
        <ele>1055.8</ele>
        <time>2026-05-12T08:58:24Z</time>
      </trkpt>
      <trkpt lat="45.99095" lon="5.62663">
        <ele>1055.8</ele>
        <time>2026-05-12T08:58:25Z</time>
      </trkpt>
      <trkpt lat="45.99096" lon="5.62664">
        <ele>1056</ele>
        <time>2026-05-12T08:58:26Z</time>
      </trkpt>
      <trkpt lat="45.99097" lon="5.62665">
        <ele>1056</ele>
        <time>2026-05-12T08:58:27Z</time>
      </trkpt>
      <trkpt lat="45.99098" lon="5.62666">
        <ele>1056</ele>
        <time>2026-05-12T08:58:28Z</time>
      </trkpt>
      <trkpt lat="45.99099" lon="5.62667">
        <ele>1056.4</ele>
        <time>2026-05-12T08:58:29Z</time>
      </trkpt>
      <trkpt lat="45.991" lon="5.62667">
        <ele>1056.8</ele>
        <time>2026-05-12T08:58:30Z</time>
      </trkpt>
      <trkpt lat="45.99101" lon="5.62667">
        <ele>1057</ele>
        <time>2026-05-12T08:58:31Z</time>
      </trkpt>
      <trkpt lat="45.99103" lon="5.62667">
        <ele>1057</ele>
        <time>2026-05-12T08:58:32Z</time>
      </trkpt>
      <trkpt lat="45.99104" lon="5.62668">
        <ele>1057.2</ele>
        <time>2026-05-12T08:58:33Z</time>
      </trkpt>
      <trkpt lat="45.99105" lon="5.62669">
        <ele>1057.2</ele>
        <time>2026-05-12T08:58:34Z</time>
      </trkpt>
      <trkpt lat="45.99106" lon="5.62671">
        <ele>1057.6</ele>
        <time>2026-05-12T08:58:35Z</time>
      </trkpt>
      <trkpt lat="45.99108" lon="5.62673">
        <ele>1057.8</ele>
        <time>2026-05-12T08:58:36Z</time>
      </trkpt>
      <trkpt lat="45.9911" lon="5.62674">
        <ele>1057.8</ele>
        <time>2026-05-12T08:58:37Z</time>
      </trkpt>
      <trkpt lat="45.99111" lon="5.62674">
        <ele>1058</ele>
        <time>2026-05-12T08:58:38Z</time>
      </trkpt>
      <trkpt lat="45.99112" lon="5.62674">
        <ele>1058</ele>
        <time>2026-05-12T08:58:39Z</time>
      </trkpt>
      <trkpt lat="45.99114" lon="5.62674">
        <ele>1058.4</ele>
        <time>2026-05-12T08:58:40Z</time>
      </trkpt>
      <trkpt lat="45.99115" lon="5.62674">
        <ele>1058.4</ele>
        <time>2026-05-12T08:58:41Z</time>
      </trkpt>
      <trkpt lat="45.99117" lon="5.62675">
        <ele>1058.4</ele>
        <time>2026-05-12T08:58:42Z</time>
      </trkpt>
      <trkpt lat="45.99118" lon="5.62675">
        <ele>1058.6</ele>
        <time>2026-05-12T08:58:43Z</time>
      </trkpt>
      <trkpt lat="45.99119" lon="5.62675">
        <ele>1059</ele>
        <time>2026-05-12T08:58:44Z</time>
      </trkpt>
      <trkpt lat="45.9912" lon="5.62676">
        <ele>1059</ele>
        <time>2026-05-12T08:58:45Z</time>
      </trkpt>
      <trkpt lat="45.99121" lon="5.62677">
        <ele>1059.2</ele>
        <time>2026-05-12T08:58:46Z</time>
      </trkpt>
      <trkpt lat="45.99122" lon="5.62677">
        <ele>1059.4</ele>
        <time>2026-05-12T08:58:47Z</time>
      </trkpt>
      <trkpt lat="45.99123" lon="5.62678">
        <ele>1059.4</ele>
        <time>2026-05-12T08:58:48Z</time>
      </trkpt>
      <trkpt lat="45.99125" lon="5.62679">
        <ele>1059.8</ele>
        <time>2026-05-12T08:58:49Z</time>
      </trkpt>
      <trkpt lat="45.99127" lon="5.6268">
        <ele>1059.8</ele>
        <time>2026-05-12T08:58:50Z</time>
      </trkpt>
      <trkpt lat="45.99128" lon="5.6268">
        <ele>1060.2</ele>
        <time>2026-05-12T08:58:51Z</time>
      </trkpt>
      <trkpt lat="45.99129" lon="5.6268">
        <ele>1060.2</ele>
        <time>2026-05-12T08:58:52Z</time>
      </trkpt>
      <trkpt lat="45.99131" lon="5.62681">
        <ele>1060.4</ele>
        <time>2026-05-12T08:58:53Z</time>
      </trkpt>
      <trkpt lat="45.99133" lon="5.62681">
        <ele>1060.4</ele>
        <time>2026-05-12T08:58:54Z</time>
      </trkpt>
      <trkpt lat="45.99134" lon="5.62682">
        <ele>1060.8</ele>
        <time>2026-05-12T08:58:55Z</time>
      </trkpt>
      <trkpt lat="45.99136" lon="5.62682">
        <ele>1060.8</ele>
        <time>2026-05-12T08:58:56Z</time>
      </trkpt>
      <trkpt lat="45.99137" lon="5.62682">
        <ele>1061.2</ele>
        <time>2026-05-12T08:58:57Z</time>
      </trkpt>
      <trkpt lat="45.99138" lon="5.62682">
        <ele>1061.4</ele>
        <time>2026-05-12T08:58:58Z</time>
      </trkpt>
      <trkpt lat="45.99139" lon="5.62682">
        <ele>1061.4</ele>
        <time>2026-05-12T08:58:59Z</time>
      </trkpt>
      <trkpt lat="45.9914" lon="5.62682">
        <ele>1061.6</ele>
        <time>2026-05-12T08:59:00Z</time>
      </trkpt>
      <trkpt lat="45.99141" lon="5.62683">
        <ele>1061.6</ele>
        <time>2026-05-12T08:59:01Z</time>
      </trkpt>
      <trkpt lat="45.99143" lon="5.62683">
        <ele>1062</ele>
        <time>2026-05-12T08:59:02Z</time>
      </trkpt>
      <trkpt lat="45.99144" lon="5.62684">
        <ele>1062</ele>
        <time>2026-05-12T08:59:03Z</time>
      </trkpt>
      <trkpt lat="45.99146" lon="5.62684">
        <ele>1062.4</ele>
        <time>2026-05-12T08:59:04Z</time>
      </trkpt>
      <trkpt lat="45.99147" lon="5.62685">
        <ele>1062.4</ele>
        <time>2026-05-12T08:59:05Z</time>
      </trkpt>
      <trkpt lat="45.99148" lon="5.62686">
        <ele>1062.6</ele>
        <time>2026-05-12T08:59:06Z</time>
      </trkpt>
      <trkpt lat="45.99148" lon="5.62686">
        <ele>1063</ele>
        <time>2026-05-12T08:59:07Z</time>
      </trkpt>
      <trkpt lat="45.9915" lon="5.62686">
        <ele>1063</ele>
        <time>2026-05-12T08:59:08Z</time>
      </trkpt>
      <trkpt lat="45.99152" lon="5.62687">
        <ele>1063.4</ele>
        <time>2026-05-12T08:59:09Z</time>
      </trkpt>
      <trkpt lat="45.99154" lon="5.62688">
        <ele>1063.4</ele>
        <time>2026-05-12T08:59:10Z</time>
      </trkpt>
      <trkpt lat="45.99155" lon="5.62689">
        <ele>1063.6</ele>
        <time>2026-05-12T08:59:11Z</time>
      </trkpt>
      <trkpt lat="45.99157" lon="5.6269">
        <ele>1063.6</ele>
        <time>2026-05-12T08:59:12Z</time>
      </trkpt>
      <trkpt lat="45.99159" lon="5.62691">
        <ele>1064</ele>
        <time>2026-05-12T08:59:13Z</time>
      </trkpt>
      <trkpt lat="45.9916" lon="5.62692">
        <ele>1064.4</ele>
        <time>2026-05-12T08:59:14Z</time>
      </trkpt>
      <trkpt lat="45.99162" lon="5.62692">
        <ele>1064.4</ele>
        <time>2026-05-12T08:59:15Z</time>
      </trkpt>
      <trkpt lat="45.99163" lon="5.62693">
        <ele>1064.6</ele>
        <time>2026-05-12T08:59:16Z</time>
      </trkpt>
      <trkpt lat="45.99165" lon="5.62695">
        <ele>1064.6</ele>
        <time>2026-05-12T08:59:17Z</time>
      </trkpt>
      <trkpt lat="45.99167" lon="5.62696">
        <ele>1065</ele>
        <time>2026-05-12T08:59:18Z</time>
      </trkpt>
      <trkpt lat="45.99168" lon="5.62696">
        <ele>1065.2</ele>
        <time>2026-05-12T08:59:19Z</time>
      </trkpt>
      <trkpt lat="45.9917" lon="5.62697">
        <ele>1065.2</ele>
        <time>2026-05-12T08:59:20Z</time>
      </trkpt>
      <trkpt lat="45.99171" lon="5.62698">
        <ele>1065.6</ele>
        <time>2026-05-12T08:59:21Z</time>
      </trkpt>
      <trkpt lat="45.99172" lon="5.62699">
        <ele>1065.8</ele>
        <time>2026-05-12T08:59:22Z</time>
      </trkpt>
      <trkpt lat="45.99173" lon="5.627">
        <ele>1065.8</ele>
        <time>2026-05-12T08:59:23Z</time>
      </trkpt>
      <trkpt lat="45.99175" lon="5.62701">
        <ele>1066.2</ele>
        <time>2026-05-12T08:59:24Z</time>
      </trkpt>
      <trkpt lat="45.99176" lon="5.62702">
        <ele>1066.2</ele>
        <time>2026-05-12T08:59:25Z</time>
      </trkpt>
      <trkpt lat="45.99177" lon="5.62703">
        <ele>1066.4</ele>
        <time>2026-05-12T08:59:26Z</time>
      </trkpt>
      <trkpt lat="45.99178" lon="5.62705">
        <ele>1066.4</ele>
        <time>2026-05-12T08:59:27Z</time>
      </trkpt>
      <trkpt lat="45.99179" lon="5.62707">
        <ele>1066.8</ele>
        <time>2026-05-12T08:59:28Z</time>
      </trkpt>
      <trkpt lat="45.99179" lon="5.62709">
        <ele>1067.2</ele>
        <time>2026-05-12T08:59:29Z</time>
      </trkpt>
      <trkpt lat="45.9918" lon="5.62711">
        <ele>1067.4</ele>
        <time>2026-05-12T08:59:30Z</time>
      </trkpt>
      <trkpt lat="45.9918" lon="5.62711">
        <ele>1067.4</ele>
        <time>2026-05-12T08:59:31Z</time>
      </trkpt>
      <trkpt lat="45.99181" lon="5.6271">
        <ele>1067.4</ele>
        <time>2026-05-12T08:59:32Z</time>
      </trkpt>
      <trkpt lat="45.99182" lon="5.62711">
        <ele>1067.6</ele>
        <time>2026-05-12T08:59:53Z</time>
      </trkpt>
      <trkpt lat="45.99182" lon="5.62713">
        <ele>1067.6</ele>
        <time>2026-05-12T08:59:54Z</time>
      </trkpt>
      <trkpt lat="45.99183" lon="5.62714">
        <ele>1067.6</ele>
        <time>2026-05-12T08:59:55Z</time>
      </trkpt>
      <trkpt lat="45.99183" lon="5.62715">
        <ele>1068</ele>
        <time>2026-05-12T08:59:56Z</time>
      </trkpt>
      <trkpt lat="45.99184" lon="5.62715">
        <ele>1068</ele>
        <time>2026-05-12T08:59:57Z</time>
      </trkpt>
      <trkpt lat="45.99184" lon="5.62718">
        <ele>1068.2</ele>
        <time>2026-05-12T08:59:58Z</time>
      </trkpt>
      <trkpt lat="45.99185" lon="5.6272">
        <ele>1068.6</ele>
        <time>2026-05-12T08:59:59Z</time>
      </trkpt>
      <trkpt lat="45.99185" lon="5.62723">
        <ele>1068.8</ele>
        <time>2026-05-12T09:00:00Z</time>
      </trkpt>
      <trkpt lat="45.99185" lon="5.62726">
        <ele>1069.2</ele>
        <time>2026-05-12T09:00:01Z</time>
      </trkpt>
      <trkpt lat="45.99185" lon="5.62729">
        <ele>1069.4</ele>
        <time>2026-05-12T09:00:02Z</time>
      </trkpt>
      <trkpt lat="45.99185" lon="5.62729">
        <ele>1069.8</ele>
        <time>2026-05-12T09:00:03Z</time>
      </trkpt>
      <trkpt lat="45.99185" lon="5.62729">
        <ele>1070</ele>
        <time>2026-05-12T09:00:04Z</time>
      </trkpt>
      <trkpt lat="45.99185" lon="5.6273">
        <ele>1070.2</ele>
        <time>2026-05-12T09:00:05Z</time>
      </trkpt>
      <trkpt lat="45.99185" lon="5.62733">
        <ele>1070.4</ele>
        <time>2026-05-12T09:00:06Z</time>
      </trkpt>
      <trkpt lat="45.99185" lon="5.62736">
        <ele>1070.6</ele>
        <time>2026-05-12T09:00:07Z</time>
      </trkpt>
      <trkpt lat="45.99185" lon="5.62737">
        <ele>1071</ele>
        <time>2026-05-12T09:00:08Z</time>
      </trkpt>
      <trkpt lat="45.99185" lon="5.62738">
        <ele>1071</ele>
        <time>2026-05-12T09:00:09Z</time>
      </trkpt>
      <trkpt lat="45.99185" lon="5.62738">
        <ele>1071.2</ele>
        <time>2026-05-12T09:00:10Z</time>
      </trkpt>
      <trkpt lat="45.99185" lon="5.62738">
        <ele>1071.2</ele>
        <time>2026-05-12T09:00:11Z</time>
      </trkpt>
      <trkpt lat="45.99185" lon="5.6274">
        <ele>1071.6</ele>
        <time>2026-05-12T09:00:12Z</time>
      </trkpt>
      <trkpt lat="45.99186" lon="5.62743">
        <ele>1071.8</ele>
        <time>2026-05-12T09:00:13Z</time>
      </trkpt>
      <trkpt lat="45.99186" lon="5.62745">
        <ele>1072</ele>
        <time>2026-05-12T09:00:14Z</time>
      </trkpt>
      <trkpt lat="45.99187" lon="5.62748">
        <ele>1072.2</ele>
        <time>2026-05-12T09:00:15Z</time>
      </trkpt>
      <trkpt lat="45.99187" lon="5.6275">
        <ele>1072.6</ele>
        <time>2026-05-12T09:00:16Z</time>
      </trkpt>
      <trkpt lat="45.99188" lon="5.62753">
        <ele>1072.6</ele>
        <time>2026-05-12T09:00:17Z</time>
      </trkpt>
      <trkpt lat="45.99189" lon="5.62757">
        <ele>1072.8</ele>
        <time>2026-05-12T09:00:18Z</time>
      </trkpt>
      <trkpt lat="45.99189" lon="5.62758">
        <ele>1072.8</ele>
        <time>2026-05-12T09:00:19Z</time>
      </trkpt>
      <trkpt lat="45.99189" lon="5.62759">
        <ele>1073</ele>
        <time>2026-05-12T09:00:20Z</time>
      </trkpt>
      <trkpt lat="45.99189" lon="5.62762">
        <ele>1073.6</ele>
        <time>2026-05-12T09:00:24Z</time>
      </trkpt>
      <trkpt lat="45.99191" lon="5.62766">
        <ele>1073.8</ele>
        <time>2026-05-12T09:00:25Z</time>
      </trkpt>
      <trkpt lat="45.99192" lon="5.6277">
        <ele>1073.8</ele>
        <time>2026-05-12T09:00:26Z</time>
      </trkpt>
      <trkpt lat="45.99194" lon="5.62773">
        <ele>1074</ele>
        <time>2026-05-12T09:00:27Z</time>
      </trkpt>
      <trkpt lat="45.99195" lon="5.62777">
        <ele>1074</ele>
        <time>2026-05-12T09:00:28Z</time>
      </trkpt>
      <trkpt lat="45.99197" lon="5.6278">
        <ele>1074.4</ele>
        <time>2026-05-12T09:00:29Z</time>
      </trkpt>
      <trkpt lat="45.99198" lon="5.62783">
        <ele>1074.4</ele>
        <time>2026-05-12T09:00:30Z</time>
      </trkpt>
      <trkpt lat="45.992" lon="5.62786">
        <ele>1074.4</ele>
        <time>2026-05-12T09:00:31Z</time>
      </trkpt>
      <trkpt lat="45.99201" lon="5.62789">
        <ele>1074.6</ele>
        <time>2026-05-12T09:00:32Z</time>
      </trkpt>
      <trkpt lat="45.99202" lon="5.62792">
        <ele>1074.6</ele>
        <time>2026-05-12T09:00:33Z</time>
      </trkpt>
      <trkpt lat="45.99203" lon="5.62795">
        <ele>1074.6</ele>
        <time>2026-05-12T09:00:34Z</time>
      </trkpt>
      <trkpt lat="45.99205" lon="5.62798">
        <ele>1074.6</ele>
        <time>2026-05-12T09:00:35Z</time>
      </trkpt>
      <trkpt lat="45.99206" lon="5.62801">
        <ele>1074.6</ele>
        <time>2026-05-12T09:00:36Z</time>
      </trkpt>
      <trkpt lat="45.99208" lon="5.62804">
        <ele>1074.6</ele>
        <time>2026-05-12T09:00:37Z</time>
      </trkpt>
      <trkpt lat="45.9921" lon="5.62807">
        <ele>1074.6</ele>
        <time>2026-05-12T09:00:38Z</time>
      </trkpt>
      <trkpt lat="45.99211" lon="5.62809">
        <ele>1074.6</ele>
        <time>2026-05-12T09:00:39Z</time>
      </trkpt>
      <trkpt lat="45.99213" lon="5.62811">
        <ele>1074.8</ele>
        <time>2026-05-12T09:00:40Z</time>
      </trkpt>
      <trkpt lat="45.99214" lon="5.62813">
        <ele>1074.8</ele>
        <time>2026-05-12T09:00:41Z</time>
      </trkpt>
      <trkpt lat="45.99216" lon="5.62815">
        <ele>1075.2</ele>
        <time>2026-05-12T09:00:42Z</time>
      </trkpt>
      <trkpt lat="45.99218" lon="5.62817">
        <ele>1075.2</ele>
        <time>2026-05-12T09:00:43Z</time>
      </trkpt>
      <trkpt lat="45.99219" lon="5.62818">
        <ele>1075.6</ele>
        <time>2026-05-12T09:00:44Z</time>
      </trkpt>
      <trkpt lat="45.9922" lon="5.6282">
        <ele>1075.6</ele>
        <time>2026-05-12T09:00:45Z</time>
      </trkpt>
      <trkpt lat="45.99221" lon="5.62822">
        <ele>1075.6</ele>
        <time>2026-05-12T09:00:46Z</time>
      </trkpt>
      <trkpt lat="45.99223" lon="5.62825">
        <ele>1075.6</ele>
        <time>2026-05-12T09:00:47Z</time>
      </trkpt>
      <trkpt lat="45.99224" lon="5.62827">
        <ele>1075.6</ele>
        <time>2026-05-12T09:00:48Z</time>
      </trkpt>
      <trkpt lat="45.99225" lon="5.6283">
        <ele>1075.6</ele>
        <time>2026-05-12T09:00:49Z</time>
      </trkpt>
      <trkpt lat="45.99227" lon="5.62832">
        <ele>1075.8</ele>
        <time>2026-05-12T09:00:50Z</time>
      </trkpt>
      <trkpt lat="45.99228" lon="5.62833">
        <ele>1075.8</ele>
        <time>2026-05-12T09:00:51Z</time>
      </trkpt>
      <trkpt lat="45.99229" lon="5.62835">
        <ele>1075.8</ele>
        <time>2026-05-12T09:00:52Z</time>
      </trkpt>
      <trkpt lat="45.99231" lon="5.62836">
        <ele>1076.2</ele>
        <time>2026-05-12T09:00:53Z</time>
      </trkpt>
      <trkpt lat="45.99232" lon="5.62836">
        <ele>1076.2</ele>
        <time>2026-05-12T09:00:54Z</time>
      </trkpt>
      <trkpt lat="45.99234" lon="5.62836">
        <ele>1076.2</ele>
        <time>2026-05-12T09:00:55Z</time>
      </trkpt>
      <trkpt lat="45.99236" lon="5.62837">
        <ele>1076.6</ele>
        <time>2026-05-12T09:00:56Z</time>
      </trkpt>
      <trkpt lat="45.99237" lon="5.62839">
        <ele>1076.8</ele>
        <time>2026-05-12T09:00:57Z</time>
      </trkpt>
      <trkpt lat="45.99239" lon="5.6284">
        <ele>1076.8</ele>
        <time>2026-05-12T09:00:58Z</time>
      </trkpt>
      <trkpt lat="45.9924" lon="5.62841">
        <ele>1077</ele>
        <time>2026-05-12T09:00:59Z</time>
      </trkpt>
      <trkpt lat="45.99242" lon="5.62842">
        <ele>1077</ele>
        <time>2026-05-12T09:01:00Z</time>
      </trkpt>
      <trkpt lat="45.99243" lon="5.62843">
        <ele>1077.4</ele>
        <time>2026-05-12T09:01:01Z</time>
      </trkpt>
      <trkpt lat="45.99245" lon="5.62845">
        <ele>1077.4</ele>
        <time>2026-05-12T09:01:02Z</time>
      </trkpt>
      <trkpt lat="45.99246" lon="5.62847">
        <ele>1078</ele>
        <time>2026-05-12T09:01:03Z</time>
      </trkpt>
      <trkpt lat="45.99247" lon="5.62848">
        <ele>1078.2</ele>
        <time>2026-05-12T09:01:04Z</time>
      </trkpt>
      <trkpt lat="45.99248" lon="5.62849">
        <ele>1078.2</ele>
        <time>2026-05-12T09:01:05Z</time>
      </trkpt>
      <trkpt lat="45.99249" lon="5.62849">
        <ele>1078.6</ele>
        <time>2026-05-12T09:01:06Z</time>
      </trkpt>
      <trkpt lat="45.99251" lon="5.6285">
        <ele>1078.6</ele>
        <time>2026-05-12T09:01:07Z</time>
      </trkpt>
      <trkpt lat="45.99252" lon="5.62851">
        <ele>1078.8</ele>
        <time>2026-05-12T09:01:08Z</time>
      </trkpt>
      <trkpt lat="45.99253" lon="5.62853">
        <ele>1079</ele>
        <time>2026-05-12T09:01:09Z</time>
      </trkpt>
      <trkpt lat="45.99254" lon="5.62854">
        <ele>1079.4</ele>
        <time>2026-05-12T09:01:10Z</time>
      </trkpt>
      <trkpt lat="45.99256" lon="5.62856">
        <ele>1079.6</ele>
        <time>2026-05-12T09:01:11Z</time>
      </trkpt>
      <trkpt lat="45.99257" lon="5.62857">
        <ele>1079.6</ele>
        <time>2026-05-12T09:01:12Z</time>
      </trkpt>
      <trkpt lat="45.99257" lon="5.62858">
        <ele>1080</ele>
        <time>2026-05-12T09:01:13Z</time>
      </trkpt>
      <trkpt lat="45.99258" lon="5.6286">
        <ele>1080.2</ele>
        <time>2026-05-12T09:01:14Z</time>
      </trkpt>
      <trkpt lat="45.99259" lon="5.62861">
        <ele>1080.2</ele>
        <time>2026-05-12T09:01:15Z</time>
      </trkpt>
      <trkpt lat="45.9926" lon="5.62862">
        <ele>1080.2</ele>
        <time>2026-05-12T09:01:16Z</time>
      </trkpt>
      <trkpt lat="45.99262" lon="5.62864">
        <ele>1080.4</ele>
        <time>2026-05-12T09:01:17Z</time>
      </trkpt>
      <trkpt lat="45.99263" lon="5.62865">
        <ele>1080.4</ele>
        <time>2026-05-12T09:01:18Z</time>
      </trkpt>
      <trkpt lat="45.99264" lon="5.62866">
        <ele>1080.8</ele>
        <time>2026-05-12T09:01:19Z</time>
      </trkpt>
      <trkpt lat="45.99264" lon="5.62868">
        <ele>1080.8</ele>
        <time>2026-05-12T09:01:20Z</time>
      </trkpt>
      <trkpt lat="45.99265" lon="5.62869">
        <ele>1081.2</ele>
        <time>2026-05-12T09:01:21Z</time>
      </trkpt>
      <trkpt lat="45.99267" lon="5.6287">
        <ele>1081.2</ele>
        <time>2026-05-12T09:01:22Z</time>
      </trkpt>
      <trkpt lat="45.99268" lon="5.62871">
        <ele>1081.4</ele>
        <time>2026-05-12T09:01:23Z</time>
      </trkpt>
      <trkpt lat="45.99269" lon="5.62872">
        <ele>1081.4</ele>
        <time>2026-05-12T09:01:24Z</time>
      </trkpt>
      <trkpt lat="45.9927" lon="5.62873">
        <ele>1081.8</ele>
        <time>2026-05-12T09:01:25Z</time>
      </trkpt>
      <trkpt lat="45.9927" lon="5.62874">
        <ele>1081.8</ele>
        <time>2026-05-12T09:01:26Z</time>
      </trkpt>
      <trkpt lat="45.99271" lon="5.62874">
        <ele>1082.2</ele>
        <time>2026-05-12T09:01:27Z</time>
      </trkpt>
      <trkpt lat="45.99272" lon="5.62874">
        <ele>1082.2</ele>
        <time>2026-05-12T09:01:28Z</time>
      </trkpt>
      <trkpt lat="45.99272" lon="5.62875">
        <ele>1082.6</ele>
        <time>2026-05-12T09:01:29Z</time>
      </trkpt>
      <trkpt lat="45.99274" lon="5.62876">
        <ele>1083</ele>
        <time>2026-05-12T09:01:30Z</time>
      </trkpt>
      <trkpt lat="45.99275" lon="5.62877">
        <ele>1083</ele>
        <time>2026-05-12T09:01:31Z</time>
      </trkpt>
      <trkpt lat="45.99276" lon="5.62878">
        <ele>1083</ele>
        <time>2026-05-12T09:01:32Z</time>
      </trkpt>
      <trkpt lat="45.99276" lon="5.62879">
        <ele>1083.4</ele>
        <time>2026-05-12T09:01:33Z</time>
      </trkpt>
      <trkpt lat="45.99278" lon="5.62881">
        <ele>1083.8</ele>
        <time>2026-05-12T09:01:34Z</time>
      </trkpt>
      <trkpt lat="45.9928" lon="5.62882">
        <ele>1084</ele>
        <time>2026-05-12T09:01:35Z</time>
      </trkpt>
      <trkpt lat="45.99281" lon="5.62883">
        <ele>1084</ele>
        <time>2026-05-12T09:01:36Z</time>
      </trkpt>
      <trkpt lat="45.99282" lon="5.62883">
        <ele>1084</ele>
        <time>2026-05-12T09:01:37Z</time>
      </trkpt>
      <trkpt lat="45.99283" lon="5.62884">
        <ele>1084.6</ele>
        <time>2026-05-12T09:01:38Z</time>
      </trkpt>
      <trkpt lat="45.99285" lon="5.62885">
        <ele>1084.6</ele>
        <time>2026-05-12T09:01:39Z</time>
      </trkpt>
      <trkpt lat="45.99286" lon="5.62886">
        <ele>1084.8</ele>
        <time>2026-05-12T09:01:40Z</time>
      </trkpt>
      <trkpt lat="45.99286" lon="5.62887">
        <ele>1085.2</ele>
        <time>2026-05-12T09:01:41Z</time>
      </trkpt>
      <trkpt lat="45.99287" lon="5.62888">
        <ele>1085.2</ele>
        <time>2026-05-12T09:01:42Z</time>
      </trkpt>
      <trkpt lat="45.99288" lon="5.62889">
        <ele>1085.2</ele>
        <time>2026-05-12T09:01:43Z</time>
      </trkpt>
      <trkpt lat="45.99289" lon="5.62891">
        <ele>1085.4</ele>
        <time>2026-05-12T09:01:44Z</time>
      </trkpt>
      <trkpt lat="45.9929" lon="5.62893">
        <ele>1085.4</ele>
        <time>2026-05-12T09:01:45Z</time>
      </trkpt>
      <trkpt lat="45.99291" lon="5.62894">
        <ele>1085.8</ele>
        <time>2026-05-12T09:01:46Z</time>
      </trkpt>
      <trkpt lat="45.99292" lon="5.62894">
        <ele>1085.8</ele>
        <time>2026-05-12T09:01:47Z</time>
      </trkpt>
      <trkpt lat="45.99293" lon="5.62894">
        <ele>1085.8</ele>
        <time>2026-05-12T09:01:48Z</time>
      </trkpt>
      <trkpt lat="45.99294" lon="5.62895">
        <ele>1086.2</ele>
        <time>2026-05-12T09:01:49Z</time>
      </trkpt>
      <trkpt lat="45.99296" lon="5.62894">
        <ele>1086.2</ele>
        <time>2026-05-12T09:01:50Z</time>
      </trkpt>
      <trkpt lat="45.99298" lon="5.62893">
        <ele>1086.4</ele>
        <time>2026-05-12T09:01:51Z</time>
      </trkpt>
      <trkpt lat="45.993" lon="5.62892">
        <ele>1086.4</ele>
        <time>2026-05-12T09:01:52Z</time>
      </trkpt>
      <trkpt lat="45.99302" lon="5.62892">
        <ele>1086.8</ele>
        <time>2026-05-12T09:01:53Z</time>
      </trkpt>
      <trkpt lat="45.99303" lon="5.62893">
        <ele>1086.8</ele>
        <time>2026-05-12T09:01:54Z</time>
      </trkpt>
      <trkpt lat="45.99304" lon="5.62894">
        <ele>1087</ele>
        <time>2026-05-12T09:01:55Z</time>
      </trkpt>
      <trkpt lat="45.99306" lon="5.62896">
        <ele>1087.2</ele>
        <time>2026-05-12T09:01:56Z</time>
      </trkpt>
      <trkpt lat="45.99307" lon="5.62898">
        <ele>1087.2</ele>
        <time>2026-05-12T09:01:57Z</time>
      </trkpt>
      <trkpt lat="45.99308" lon="5.62899">
        <ele>1087.6</ele>
        <time>2026-05-12T09:01:58Z</time>
      </trkpt>
      <trkpt lat="45.9931" lon="5.62901">
        <ele>1087.6</ele>
        <time>2026-05-12T09:01:59Z</time>
      </trkpt>
      <trkpt lat="45.99311" lon="5.62902">
        <ele>1087.8</ele>
        <time>2026-05-12T09:02:00Z</time>
      </trkpt>
      <trkpt lat="45.99313" lon="5.62903">
        <ele>1088.2</ele>
        <time>2026-05-12T09:02:01Z</time>
      </trkpt>
      <trkpt lat="45.99314" lon="5.62903">
        <ele>1088.2</ele>
        <time>2026-05-12T09:02:02Z</time>
      </trkpt>
      <trkpt lat="45.99315" lon="5.62904">
        <ele>1088.6</ele>
        <time>2026-05-12T09:02:03Z</time>
      </trkpt>
      <trkpt lat="45.99316" lon="5.62905">
        <ele>1088.8</ele>
        <time>2026-05-12T09:02:04Z</time>
      </trkpt>
      <trkpt lat="45.99317" lon="5.62906">
        <ele>1088.8</ele>
        <time>2026-05-12T09:02:05Z</time>
      </trkpt>
      <trkpt lat="45.99319" lon="5.62907">
        <ele>1089</ele>
        <time>2026-05-12T09:02:06Z</time>
      </trkpt>
      <trkpt lat="45.9932" lon="5.62907">
        <ele>1089.2</ele>
        <time>2026-05-12T09:02:07Z</time>
      </trkpt>
      <trkpt lat="45.99321" lon="5.62908">
        <ele>1089.6</ele>
        <time>2026-05-12T09:02:08Z</time>
      </trkpt>
      <trkpt lat="45.99321" lon="5.62909">
        <ele>1089.8</ele>
        <time>2026-05-12T09:02:09Z</time>
      </trkpt>
      <trkpt lat="45.99322" lon="5.62911">
        <ele>1089.8</ele>
        <time>2026-05-12T09:02:10Z</time>
      </trkpt>
      <trkpt lat="45.99323" lon="5.62913">
        <ele>1090.2</ele>
        <time>2026-05-12T09:02:11Z</time>
      </trkpt>
      <trkpt lat="45.99324" lon="5.62915">
        <ele>1090.2</ele>
        <time>2026-05-12T09:02:12Z</time>
      </trkpt>
      <trkpt lat="45.99325" lon="5.62917">
        <ele>1090.4</ele>
        <time>2026-05-12T09:02:13Z</time>
      </trkpt>
      <trkpt lat="45.99326" lon="5.62918">
        <ele>1090.6</ele>
        <time>2026-05-12T09:02:14Z</time>
      </trkpt>
      <trkpt lat="45.99327" lon="5.6292">
        <ele>1090.6</ele>
        <time>2026-05-12T09:02:15Z</time>
      </trkpt>
      <trkpt lat="45.99328" lon="5.62921">
        <ele>1090.8</ele>
        <time>2026-05-12T09:02:16Z</time>
      </trkpt>
      <trkpt lat="45.99329" lon="5.62922">
        <ele>1090.8</ele>
        <time>2026-05-12T09:02:17Z</time>
      </trkpt>
      <trkpt lat="45.99329" lon="5.62922">
        <ele>1091.2</ele>
        <time>2026-05-12T09:02:18Z</time>
      </trkpt>
      <trkpt lat="45.99329" lon="5.62923">
        <ele>1091.4</ele>
        <time>2026-05-12T09:02:19Z</time>
      </trkpt>
      <trkpt lat="45.9933" lon="5.62925">
        <ele>1091.6</ele>
        <time>2026-05-12T09:02:20Z</time>
      </trkpt>
      <trkpt lat="45.9933" lon="5.62926">
        <ele>1091.6</ele>
        <time>2026-05-12T09:02:21Z</time>
      </trkpt>
      <trkpt lat="45.99331" lon="5.62928">
        <ele>1092</ele>
        <time>2026-05-12T09:02:22Z</time>
      </trkpt>
      <trkpt lat="45.99333" lon="5.6293">
        <ele>1092</ele>
        <time>2026-05-12T09:02:23Z</time>
      </trkpt>
      <trkpt lat="45.99335" lon="5.62931">
        <ele>1092.4</ele>
        <time>2026-05-12T09:02:24Z</time>
      </trkpt>
      <trkpt lat="45.99336" lon="5.62932">
        <ele>1092.6</ele>
        <time>2026-05-12T09:02:25Z</time>
      </trkpt>
      <trkpt lat="45.99337" lon="5.62934">
        <ele>1092.6</ele>
        <time>2026-05-12T09:02:26Z</time>
      </trkpt>
      <trkpt lat="45.99339" lon="5.62935">
        <ele>1092.8</ele>
        <time>2026-05-12T09:02:27Z</time>
      </trkpt>
      <trkpt lat="45.9934" lon="5.62937">
        <ele>1092.8</ele>
        <time>2026-05-12T09:02:28Z</time>
      </trkpt>
      <trkpt lat="45.9934" lon="5.62939">
        <ele>1093.2</ele>
        <time>2026-05-12T09:02:29Z</time>
      </trkpt>
      <trkpt lat="45.9934" lon="5.62941">
        <ele>1093.2</ele>
        <time>2026-05-12T09:02:30Z</time>
      </trkpt>
      <trkpt lat="45.9934" lon="5.62943">
        <ele>1093.6</ele>
        <time>2026-05-12T09:02:31Z</time>
      </trkpt>
      <trkpt lat="45.9934" lon="5.62945">
        <ele>1093.6</ele>
        <time>2026-05-12T09:02:32Z</time>
      </trkpt>
      <trkpt lat="45.99341" lon="5.62947">
        <ele>1093.8</ele>
        <time>2026-05-12T09:02:33Z</time>
      </trkpt>
      <trkpt lat="45.99341" lon="5.62949">
        <ele>1093.8</ele>
        <time>2026-05-12T09:02:34Z</time>
      </trkpt>
      <trkpt lat="45.99342" lon="5.62951">
        <ele>1094</ele>
        <time>2026-05-12T09:02:35Z</time>
      </trkpt>
      <trkpt lat="45.99343" lon="5.62952">
        <ele>1094</ele>
        <time>2026-05-12T09:02:36Z</time>
      </trkpt>
      <trkpt lat="45.99344" lon="5.62954">
        <ele>1094.4</ele>
        <time>2026-05-12T09:02:37Z</time>
      </trkpt>
      <trkpt lat="45.99344" lon="5.62956">
        <ele>1094.4</ele>
        <time>2026-05-12T09:02:38Z</time>
      </trkpt>
      <trkpt lat="45.99345" lon="5.62957">
        <ele>1094.6</ele>
        <time>2026-05-12T09:02:39Z</time>
      </trkpt>
      <trkpt lat="45.99346" lon="5.62959">
        <ele>1094.6</ele>
        <time>2026-05-12T09:02:40Z</time>
      </trkpt>
      <trkpt lat="45.99347" lon="5.62961">
        <ele>1095</ele>
        <time>2026-05-12T09:02:41Z</time>
      </trkpt>
      <trkpt lat="45.99348" lon="5.62962">
        <ele>1095</ele>
        <time>2026-05-12T09:02:42Z</time>
      </trkpt>
      <trkpt lat="45.99349" lon="5.62964">
        <ele>1095.2</ele>
        <time>2026-05-12T09:02:43Z</time>
      </trkpt>
      <trkpt lat="45.9935" lon="5.62966">
        <ele>1095.2</ele>
        <time>2026-05-12T09:02:44Z</time>
      </trkpt>
      <trkpt lat="45.9935" lon="5.62968">
        <ele>1095.6</ele>
        <time>2026-05-12T09:02:45Z</time>
      </trkpt>
      <trkpt lat="45.9935" lon="5.6297">
        <ele>1096</ele>
        <time>2026-05-12T09:02:46Z</time>
      </trkpt>
      <trkpt lat="45.99351" lon="5.62973">
        <ele>1096.2</ele>
        <time>2026-05-12T09:02:47Z</time>
      </trkpt>
      <trkpt lat="45.99352" lon="5.62975">
        <ele>1096.4</ele>
        <time>2026-05-12T09:02:48Z</time>
      </trkpt>
      <trkpt lat="45.99352" lon="5.62977">
        <ele>1096.6</ele>
        <time>2026-05-12T09:02:49Z</time>
      </trkpt>
      <trkpt lat="45.99353" lon="5.62979">
        <ele>1096.6</ele>
        <time>2026-05-12T09:02:50Z</time>
      </trkpt>
      <trkpt lat="45.99354" lon="5.62982">
        <ele>1096.6</ele>
        <time>2026-05-12T09:02:51Z</time>
      </trkpt>
      <trkpt lat="45.99354" lon="5.62984">
        <ele>1096.6</ele>
        <time>2026-05-12T09:02:52Z</time>
      </trkpt>
      <trkpt lat="45.99353" lon="5.62986">
        <ele>1096.8</ele>
        <time>2026-05-12T09:02:53Z</time>
      </trkpt>
      <trkpt lat="45.99353" lon="5.62989">
        <ele>1096.8</ele>
        <time>2026-05-12T09:02:54Z</time>
      </trkpt>
      <trkpt lat="45.99353" lon="5.62992">
        <ele>1097</ele>
        <time>2026-05-12T09:02:55Z</time>
      </trkpt>
      <trkpt lat="45.99353" lon="5.62994">
        <ele>1097</ele>
        <time>2026-05-12T09:02:56Z</time>
      </trkpt>
      <trkpt lat="45.99353" lon="5.62996">
        <ele>1097</ele>
        <time>2026-05-12T09:02:57Z</time>
      </trkpt>
      <trkpt lat="45.99353" lon="5.62999">
        <ele>1097.4</ele>
        <time>2026-05-12T09:02:58Z</time>
      </trkpt>
      <trkpt lat="45.99354" lon="5.63001">
        <ele>1097.4</ele>
        <time>2026-05-12T09:02:59Z</time>
      </trkpt>
      <trkpt lat="45.99355" lon="5.63002">
        <ele>1097.4</ele>
        <time>2026-05-12T09:03:00Z</time>
      </trkpt>
      <trkpt lat="45.99355" lon="5.63004">
        <ele>1097.4</ele>
        <time>2026-05-12T09:03:01Z</time>
      </trkpt>
      <trkpt lat="45.99356" lon="5.63005">
        <ele>1097.4</ele>
        <time>2026-05-12T09:03:02Z</time>
      </trkpt>
      <trkpt lat="45.99356" lon="5.63007">
        <ele>1097.6</ele>
        <time>2026-05-12T09:03:03Z</time>
      </trkpt>
      <trkpt lat="45.99356" lon="5.6301">
        <ele>1097.6</ele>
        <time>2026-05-12T09:03:04Z</time>
      </trkpt>
      <trkpt lat="45.99357" lon="5.63013">
        <ele>1097.6</ele>
        <time>2026-05-12T09:03:05Z</time>
      </trkpt>
      <trkpt lat="45.99357" lon="5.63016">
        <ele>1097.4</ele>
        <time>2026-05-12T09:03:06Z</time>
      </trkpt>
      <trkpt lat="45.99357" lon="5.63018">
        <ele>1097.4</ele>
        <time>2026-05-12T09:03:07Z</time>
      </trkpt>
      <trkpt lat="45.99357" lon="5.63021">
        <ele>1097.4</ele>
        <time>2026-05-12T09:03:08Z</time>
      </trkpt>
      <trkpt lat="45.99356" lon="5.63024">
        <ele>1097.4</ele>
        <time>2026-05-12T09:03:09Z</time>
      </trkpt>
      <trkpt lat="45.99356" lon="5.63027">
        <ele>1097.2</ele>
        <time>2026-05-12T09:03:10Z</time>
      </trkpt>
      <trkpt lat="45.99356" lon="5.63029">
        <ele>1097.2</ele>
        <time>2026-05-12T09:03:11Z</time>
      </trkpt>
      <trkpt lat="45.99356" lon="5.63031">
        <ele>1097.2</ele>
        <time>2026-05-12T09:03:12Z</time>
      </trkpt>
      <trkpt lat="45.99356" lon="5.63033">
        <ele>1097</ele>
        <time>2026-05-12T09:03:13Z</time>
      </trkpt>
      <trkpt lat="45.99356" lon="5.63035">
        <ele>1096.8</ele>
        <time>2026-05-12T09:03:14Z</time>
      </trkpt>
      <trkpt lat="45.99356" lon="5.63037">
        <ele>1096.8</ele>
        <time>2026-05-12T09:03:15Z</time>
      </trkpt>
      <trkpt lat="45.99357" lon="5.63038">
        <ele>1096.8</ele>
        <time>2026-05-12T09:03:16Z</time>
      </trkpt>
      <trkpt lat="45.99357" lon="5.63038">
        <ele>1096.8</ele>
        <time>2026-05-12T09:03:17Z</time>
      </trkpt>
      <trkpt lat="45.99355" lon="5.6304">
        <ele>1096.2</ele>
        <time>2026-05-12T09:03:35Z</time>
      </trkpt>
      <trkpt lat="45.99355" lon="5.6304">
        <ele>1096.2</ele>
        <time>2026-05-12T09:03:36Z</time>
      </trkpt>
      <trkpt lat="45.99352" lon="5.63048">
        <ele>1097.4</ele>
        <time>2026-05-12T09:11:13Z</time>
      </trkpt>
      <trkpt lat="45.99352" lon="5.63049">
        <ele>1097.4</ele>
        <time>2026-05-12T09:11:14Z</time>
      </trkpt>
      <trkpt lat="45.99353" lon="5.63048">
        <ele>1097.8</ele>
        <time>2026-05-12T09:13:13Z</time>
      </trkpt>
      <trkpt lat="45.99352" lon="5.63049">
        <ele>1097.8</ele>
        <time>2026-05-12T09:13:14Z</time>
      </trkpt>
      <trkpt lat="45.9935" lon="5.63051">
        <ele>1097.2</ele>
        <time>2026-05-12T09:13:15Z</time>
      </trkpt>
      <trkpt lat="45.99348" lon="5.63053">
        <ele>1097</ele>
        <time>2026-05-12T09:13:16Z</time>
      </trkpt>
      <trkpt lat="45.99347" lon="5.63055">
        <ele>1096.6</ele>
        <time>2026-05-12T09:13:17Z</time>
      </trkpt>
      <trkpt lat="45.99345" lon="5.63056">
        <ele>1096.2</ele>
        <time>2026-05-12T09:13:18Z</time>
      </trkpt>
      <trkpt lat="45.99343" lon="5.63058">
        <ele>1096.6</ele>
        <time>2026-05-12T09:13:19Z</time>
      </trkpt>
      <trkpt lat="45.9934" lon="5.63059">
        <ele>1096.6</ele>
        <time>2026-05-12T09:13:20Z</time>
      </trkpt>
      <trkpt lat="45.99337" lon="5.63062">
        <ele>1096.2</ele>
        <time>2026-05-12T09:13:21Z</time>
      </trkpt>
      <trkpt lat="45.99334" lon="5.63064">
        <ele>1095.8</ele>
        <time>2026-05-12T09:13:22Z</time>
      </trkpt>
      <trkpt lat="45.99331" lon="5.63066">
        <ele>1095.4</ele>
        <time>2026-05-12T09:13:23Z</time>
      </trkpt>
      <trkpt lat="45.99328" lon="5.63068">
        <ele>1095.2</ele>
        <time>2026-05-12T09:13:24Z</time>
      </trkpt>
      <trkpt lat="45.99325" lon="5.63071">
        <ele>1094.8</ele>
        <time>2026-05-12T09:13:25Z</time>
      </trkpt>
      <trkpt lat="45.99322" lon="5.63074">
        <ele>1094.4</ele>
        <time>2026-05-12T09:13:26Z</time>
      </trkpt>
      <trkpt lat="45.99319" lon="5.63077">
        <ele>1094.4</ele>
        <time>2026-05-12T09:13:27Z</time>
      </trkpt>
      <trkpt lat="45.99316" lon="5.6308">
        <ele>1094.2</ele>
        <time>2026-05-12T09:13:28Z</time>
      </trkpt>
      <trkpt lat="45.99313" lon="5.63082">
        <ele>1094.2</ele>
        <time>2026-05-12T09:13:29Z</time>
      </trkpt>
      <trkpt lat="45.99309" lon="5.63085">
        <ele>1094.2</ele>
        <time>2026-05-12T09:13:30Z</time>
      </trkpt>
      <trkpt lat="45.99306" lon="5.63087">
        <ele>1094.2</ele>
        <time>2026-05-12T09:13:31Z</time>
      </trkpt>
      <trkpt lat="45.99302" lon="5.63089">
        <ele>1094.2</ele>
        <time>2026-05-12T09:13:32Z</time>
      </trkpt>
      <trkpt lat="45.99299" lon="5.63092">
        <ele>1094.2</ele>
        <time>2026-05-12T09:13:33Z</time>
      </trkpt>
      <trkpt lat="45.99296" lon="5.63094">
        <ele>1094.4</ele>
        <time>2026-05-12T09:13:34Z</time>
      </trkpt>
      <trkpt lat="45.99294" lon="5.63096">
        <ele>1094.4</ele>
        <time>2026-05-12T09:13:35Z</time>
      </trkpt>
      <trkpt lat="45.99291" lon="5.63099">
        <ele>1094.8</ele>
        <time>2026-05-12T09:13:36Z</time>
      </trkpt>
      <trkpt lat="45.99289" lon="5.63102">
        <ele>1094.8</ele>
        <time>2026-05-12T09:13:37Z</time>
      </trkpt>
      <trkpt lat="45.99286" lon="5.63104">
        <ele>1094.8</ele>
        <time>2026-05-12T09:13:38Z</time>
      </trkpt>
      <trkpt lat="45.99283" lon="5.63107">
        <ele>1094.8</ele>
        <time>2026-05-12T09:13:39Z</time>
      </trkpt>
      <trkpt lat="45.9928" lon="5.6311">
        <ele>1094.8</ele>
        <time>2026-05-12T09:13:40Z</time>
      </trkpt>
      <trkpt lat="45.99277" lon="5.63112">
        <ele>1094.8</ele>
        <time>2026-05-12T09:13:41Z</time>
      </trkpt>
      <trkpt lat="45.99274" lon="5.63115">
        <ele>1094.8</ele>
        <time>2026-05-12T09:13:42Z</time>
      </trkpt>
      <trkpt lat="45.99271" lon="5.63117">
        <ele>1094.8</ele>
        <time>2026-05-12T09:13:43Z</time>
      </trkpt>
      <trkpt lat="45.99268" lon="5.6312">
        <ele>1094.8</ele>
        <time>2026-05-12T09:13:44Z</time>
      </trkpt>
      <trkpt lat="45.99266" lon="5.63123">
        <ele>1094.8</ele>
        <time>2026-05-12T09:13:45Z</time>
      </trkpt>
      <trkpt lat="45.99263" lon="5.63126">
        <ele>1094.8</ele>
        <time>2026-05-12T09:13:46Z</time>
      </trkpt>
      <trkpt lat="45.9926" lon="5.63129">
        <ele>1095</ele>
        <time>2026-05-12T09:13:47Z</time>
      </trkpt>
      <trkpt lat="45.99257" lon="5.63132">
        <ele>1095</ele>
        <time>2026-05-12T09:13:48Z</time>
      </trkpt>
      <trkpt lat="45.99255" lon="5.63135">
        <ele>1095.4</ele>
        <time>2026-05-12T09:13:49Z</time>
      </trkpt>
      <trkpt lat="45.99252" lon="5.63138">
        <ele>1095.4</ele>
        <time>2026-05-12T09:13:50Z</time>
      </trkpt>
      <trkpt lat="45.99251" lon="5.6314">
        <ele>1095.4</ele>
        <time>2026-05-12T09:13:51Z</time>
      </trkpt>
      <trkpt lat="45.99248" lon="5.63143">
        <ele>1095.6</ele>
        <time>2026-05-12T09:13:52Z</time>
      </trkpt>
      <trkpt lat="45.99245" lon="5.63145">
        <ele>1095.6</ele>
        <time>2026-05-12T09:13:53Z</time>
      </trkpt>
      <trkpt lat="45.99243" lon="5.63148">
        <ele>1095.8</ele>
        <time>2026-05-12T09:13:54Z</time>
      </trkpt>
      <trkpt lat="45.99239" lon="5.6315">
        <ele>1095.8</ele>
        <time>2026-05-12T09:13:55Z</time>
      </trkpt>
      <trkpt lat="45.99238" lon="5.63153">
        <ele>1095.8</ele>
        <time>2026-05-12T09:13:56Z</time>
      </trkpt>
      <trkpt lat="45.99235" lon="5.63156">
        <ele>1096</ele>
        <time>2026-05-12T09:13:57Z</time>
      </trkpt>
      <trkpt lat="45.99233" lon="5.63159">
        <ele>1096</ele>
        <time>2026-05-12T09:13:58Z</time>
      </trkpt>
      <trkpt lat="45.99231" lon="5.63162">
        <ele>1096.4</ele>
        <time>2026-05-12T09:13:59Z</time>
      </trkpt>
      <trkpt lat="45.99228" lon="5.63164">
        <ele>1096.4</ele>
        <time>2026-05-12T09:14:00Z</time>
      </trkpt>
      <trkpt lat="45.99226" lon="5.63168">
        <ele>1096.4</ele>
        <time>2026-05-12T09:14:01Z</time>
      </trkpt>
      <trkpt lat="45.99224" lon="5.63171">
        <ele>1096.8</ele>
        <time>2026-05-12T09:14:02Z</time>
      </trkpt>
      <trkpt lat="45.99223" lon="5.63174">
        <ele>1097</ele>
        <time>2026-05-12T09:14:03Z</time>
      </trkpt>
      <trkpt lat="45.99221" lon="5.63177">
        <ele>1097</ele>
        <time>2026-05-12T09:14:04Z</time>
      </trkpt>
      <trkpt lat="45.99219" lon="5.6318">
        <ele>1097</ele>
        <time>2026-05-12T09:14:05Z</time>
      </trkpt>
      <trkpt lat="45.99217" lon="5.63184">
        <ele>1097</ele>
        <time>2026-05-12T09:14:06Z</time>
      </trkpt>
      <trkpt lat="45.99216" lon="5.63187">
        <ele>1097</ele>
        <time>2026-05-12T09:14:07Z</time>
      </trkpt>
      <trkpt lat="45.99215" lon="5.6319">
        <ele>1097.2</ele>
        <time>2026-05-12T09:14:08Z</time>
      </trkpt>
      <trkpt lat="45.99214" lon="5.63194">
        <ele>1097.4</ele>
        <time>2026-05-12T09:14:09Z</time>
      </trkpt>
      <trkpt lat="45.99213" lon="5.63197">
        <ele>1097.2</ele>
        <time>2026-05-12T09:14:10Z</time>
      </trkpt>
      <trkpt lat="45.99211" lon="5.63201">
        <ele>1097.2</ele>
        <time>2026-05-12T09:14:11Z</time>
      </trkpt>
      <trkpt lat="45.99208" lon="5.63204">
        <ele>1097.2</ele>
        <time>2026-05-12T09:14:12Z</time>
      </trkpt>
      <trkpt lat="45.99205" lon="5.63206">
        <ele>1096.8</ele>
        <time>2026-05-12T09:14:13Z</time>
      </trkpt>
      <trkpt lat="45.99202" lon="5.63208">
        <ele>1097.2</ele>
        <time>2026-05-12T09:14:14Z</time>
      </trkpt>
      <trkpt lat="45.99199" lon="5.63211">
        <ele>1097.2</ele>
        <time>2026-05-12T09:14:15Z</time>
      </trkpt>
      <trkpt lat="45.99196" lon="5.63214">
        <ele>1097.2</ele>
        <time>2026-05-12T09:14:16Z</time>
      </trkpt>
      <trkpt lat="45.99193" lon="5.63217">
        <ele>1097.2</ele>
        <time>2026-05-12T09:14:17Z</time>
      </trkpt>
      <trkpt lat="45.99189" lon="5.6322">
        <ele>1097.8</ele>
        <time>2026-05-12T09:14:18Z</time>
      </trkpt>
      <trkpt lat="45.99187" lon="5.63222">
        <ele>1097.8</ele>
        <time>2026-05-12T09:14:19Z</time>
      </trkpt>
      <trkpt lat="45.99181" lon="5.63227">
        <ele>1097.8</ele>
        <time>2026-05-12T09:14:20Z</time>
      </trkpt>
      <trkpt lat="45.99177" lon="5.63229">
        <ele>1097.2</ele>
        <time>2026-05-12T09:14:21Z</time>
      </trkpt>
      <trkpt lat="45.99173" lon="5.6323">
        <ele>1097</ele>
        <time>2026-05-12T09:14:22Z</time>
      </trkpt>
      <trkpt lat="45.9917" lon="5.63232">
        <ele>1097</ele>
        <time>2026-05-12T09:14:23Z</time>
      </trkpt>
      <trkpt lat="45.99167" lon="5.63232">
        <ele>1097</ele>
        <time>2026-05-12T09:14:24Z</time>
      </trkpt>
      <trkpt lat="45.99163" lon="5.63235">
        <ele>1097</ele>
        <time>2026-05-12T09:14:25Z</time>
      </trkpt>
      <trkpt lat="45.99159" lon="5.63239">
        <ele>1097</ele>
        <time>2026-05-12T09:14:26Z</time>
      </trkpt>
      <trkpt lat="45.99155" lon="5.63241">
        <ele>1097</ele>
        <time>2026-05-12T09:14:27Z</time>
      </trkpt>
      <trkpt lat="45.99151" lon="5.63243">
        <ele>1096.6</ele>
        <time>2026-05-12T09:14:28Z</time>
      </trkpt>
      <trkpt lat="45.99147" lon="5.63247">
        <ele>1096.6</ele>
        <time>2026-05-12T09:14:29Z</time>
      </trkpt>
      <trkpt lat="45.99144" lon="5.6325">
        <ele>1096.6</ele>
        <time>2026-05-12T09:14:30Z</time>
      </trkpt>
      <trkpt lat="45.9914" lon="5.63252">
        <ele>1096</ele>
        <time>2026-05-12T09:14:31Z</time>
      </trkpt>
      <trkpt lat="45.99136" lon="5.63254">
        <ele>1096</ele>
        <time>2026-05-12T09:14:32Z</time>
      </trkpt>
      <trkpt lat="45.99132" lon="5.63255">
        <ele>1096</ele>
        <time>2026-05-12T09:14:33Z</time>
      </trkpt>
      <trkpt lat="45.99127" lon="5.63256">
        <ele>1095.6</ele>
        <time>2026-05-12T09:14:34Z</time>
      </trkpt>
      <trkpt lat="45.99122" lon="5.63258">
        <ele>1095.6</ele>
        <time>2026-05-12T09:14:35Z</time>
      </trkpt>
      <trkpt lat="45.99118" lon="5.63256">
        <ele>1095.4</ele>
        <time>2026-05-12T09:14:36Z</time>
      </trkpt>
      <trkpt lat="45.99114" lon="5.63255">
        <ele>1095.8</ele>
        <time>2026-05-12T09:14:37Z</time>
      </trkpt>
      <trkpt lat="45.9911" lon="5.63253">
        <ele>1095.8</ele>
        <time>2026-05-12T09:14:38Z</time>
      </trkpt>
      <trkpt lat="45.99105" lon="5.63253">
        <ele>1095.8</ele>
        <time>2026-05-12T09:14:39Z</time>
      </trkpt>
      <trkpt lat="45.99101" lon="5.6325">
        <ele>1095.8</ele>
        <time>2026-05-12T09:14:40Z</time>
      </trkpt>
      <trkpt lat="45.99096" lon="5.63249">
        <ele>1095.8</ele>
        <time>2026-05-12T09:14:41Z</time>
      </trkpt>
      <trkpt lat="45.99093" lon="5.63246">
        <ele>1095.8</ele>
        <time>2026-05-12T09:14:42Z</time>
      </trkpt>
      <trkpt lat="45.99089" lon="5.63243">
        <ele>1095.8</ele>
        <time>2026-05-12T09:14:43Z</time>
      </trkpt>
      <trkpt lat="45.99085" lon="5.6324">
        <ele>1096</ele>
        <time>2026-05-12T09:14:44Z</time>
      </trkpt>
      <trkpt lat="45.99081" lon="5.63237">
        <ele>1095.8</ele>
        <time>2026-05-12T09:14:45Z</time>
      </trkpt>
      <trkpt lat="45.99077" lon="5.63235">
        <ele>1095.8</ele>
        <time>2026-05-12T09:14:46Z</time>
      </trkpt>
      <trkpt lat="45.99074" lon="5.63233">
        <ele>1096.2</ele>
        <time>2026-05-12T09:14:47Z</time>
      </trkpt>
      <trkpt lat="45.9907" lon="5.6323">
        <ele>1096.4</ele>
        <time>2026-05-12T09:14:48Z</time>
      </trkpt>
      <trkpt lat="45.99067" lon="5.63229">
        <ele>1096.4</ele>
        <time>2026-05-12T09:14:49Z</time>
      </trkpt>
      <trkpt lat="45.99063" lon="5.63227">
        <ele>1096.4</ele>
        <time>2026-05-12T09:14:50Z</time>
      </trkpt>
      <trkpt lat="45.9906" lon="5.63226">
        <ele>1096.4</ele>
        <time>2026-05-12T09:14:51Z</time>
      </trkpt>
      <trkpt lat="45.99056" lon="5.63225">
        <ele>1096.4</ele>
        <time>2026-05-12T09:14:52Z</time>
      </trkpt>
      <trkpt lat="45.99053" lon="5.63224">
        <ele>1096.8</ele>
        <time>2026-05-12T09:14:53Z</time>
      </trkpt>
      <trkpt lat="45.99049" lon="5.63224">
        <ele>1096.8</ele>
        <time>2026-05-12T09:14:54Z</time>
      </trkpt>
      <trkpt lat="45.99046" lon="5.63224">
        <ele>1097.2</ele>
        <time>2026-05-12T09:14:55Z</time>
      </trkpt>
      <trkpt lat="45.99043" lon="5.63223">
        <ele>1097.2</ele>
        <time>2026-05-12T09:14:56Z</time>
      </trkpt>
      <trkpt lat="45.9904" lon="5.63223">
        <ele>1097.8</ele>
        <time>2026-05-12T09:14:57Z</time>
      </trkpt>
      <trkpt lat="45.99037" lon="5.63222">
        <ele>1097.8</ele>
        <time>2026-05-12T09:14:58Z</time>
      </trkpt>
      <trkpt lat="45.99034" lon="5.63221">
        <ele>1098</ele>
        <time>2026-05-12T09:14:59Z</time>
      </trkpt>
      <trkpt lat="45.9903" lon="5.63221">
        <ele>1098.2</ele>
        <time>2026-05-12T09:15:00Z</time>
      </trkpt>
      <trkpt lat="45.99027" lon="5.63221">
        <ele>1098.2</ele>
        <time>2026-05-12T09:15:01Z</time>
      </trkpt>
      <trkpt lat="45.99024" lon="5.63221">
        <ele>1098.4</ele>
        <time>2026-05-12T09:15:02Z</time>
      </trkpt>
      <trkpt lat="45.99021" lon="5.6322">
        <ele>1098.4</ele>
        <time>2026-05-12T09:15:03Z</time>
      </trkpt>
      <trkpt lat="45.99018" lon="5.63219">
        <ele>1098.4</ele>
        <time>2026-05-12T09:15:04Z</time>
      </trkpt>
      <trkpt lat="45.99016" lon="5.6322">
        <ele>1098.4</ele>
        <time>2026-05-12T09:15:05Z</time>
      </trkpt>
      <trkpt lat="45.99013" lon="5.6322">
        <ele>1098.8</ele>
        <time>2026-05-12T09:15:06Z</time>
      </trkpt>
      <trkpt lat="45.99011" lon="5.6322">
        <ele>1098.8</ele>
        <time>2026-05-12T09:15:07Z</time>
      </trkpt>
      <trkpt lat="45.99008" lon="5.6322">
        <ele>1098.8</ele>
        <time>2026-05-12T09:15:08Z</time>
      </trkpt>
      <trkpt lat="45.99006" lon="5.63219">
        <ele>1098.8</ele>
        <time>2026-05-12T09:15:09Z</time>
      </trkpt>
      <trkpt lat="45.99003" lon="5.63219">
        <ele>1098.8</ele>
        <time>2026-05-12T09:15:10Z</time>
      </trkpt>
      <trkpt lat="45.99" lon="5.63218">
        <ele>1098.8</ele>
        <time>2026-05-12T09:15:11Z</time>
      </trkpt>
      <trkpt lat="45.98998" lon="5.63218">
        <ele>1098.8</ele>
        <time>2026-05-12T09:15:12Z</time>
      </trkpt>
      <trkpt lat="45.98995" lon="5.63218">
        <ele>1098.8</ele>
        <time>2026-05-12T09:15:13Z</time>
      </trkpt>
      <trkpt lat="45.98993" lon="5.63218">
        <ele>1098.8</ele>
        <time>2026-05-12T09:15:14Z</time>
      </trkpt>
      <trkpt lat="45.9899" lon="5.63218">
        <ele>1098.8</ele>
        <time>2026-05-12T09:15:15Z</time>
      </trkpt>
      <trkpt lat="45.98987" lon="5.63219">
        <ele>1098.8</ele>
        <time>2026-05-12T09:15:16Z</time>
      </trkpt>
      <trkpt lat="45.98984" lon="5.6322">
        <ele>1098.8</ele>
        <time>2026-05-12T09:15:17Z</time>
      </trkpt>
      <trkpt lat="45.98981" lon="5.63221">
        <ele>1099</ele>
        <time>2026-05-12T09:15:18Z</time>
      </trkpt>
      <trkpt lat="45.98974" lon="5.63224">
        <ele>1098.8</ele>
        <time>2026-05-12T09:15:19Z</time>
      </trkpt>
      <trkpt lat="45.9897" lon="5.63225">
        <ele>1098.8</ele>
        <time>2026-05-12T09:15:20Z</time>
      </trkpt>
      <trkpt lat="45.98966" lon="5.63226">
        <ele>1098.4</ele>
        <time>2026-05-12T09:15:21Z</time>
      </trkpt>
      <trkpt lat="45.98963" lon="5.63228">
        <ele>1098.4</ele>
        <time>2026-05-12T09:15:22Z</time>
      </trkpt>
      <trkpt lat="45.98958" lon="5.6323">
        <ele>1098.4</ele>
        <time>2026-05-12T09:15:23Z</time>
      </trkpt>
      <trkpt lat="45.98953" lon="5.63232">
        <ele>1098</ele>
        <time>2026-05-12T09:15:24Z</time>
      </trkpt>
      <trkpt lat="45.98949" lon="5.63232">
        <ele>1098</ele>
        <time>2026-05-12T09:15:25Z</time>
      </trkpt>
      <trkpt lat="45.98945" lon="5.63234">
        <ele>1097.8</ele>
        <time>2026-05-12T09:15:26Z</time>
      </trkpt>
      <trkpt lat="45.9894" lon="5.63236">
        <ele>1097.4</ele>
        <time>2026-05-12T09:15:27Z</time>
      </trkpt>
      <trkpt lat="45.98936" lon="5.63238">
        <ele>1097.2</ele>
        <time>2026-05-12T09:15:28Z</time>
      </trkpt>
      <trkpt lat="45.98932" lon="5.63241">
        <ele>1097.2</ele>
        <time>2026-05-12T09:15:29Z</time>
      </trkpt>
      <trkpt lat="45.98927" lon="5.63244">
        <ele>1096.8</ele>
        <time>2026-05-12T09:15:30Z</time>
      </trkpt>
      <trkpt lat="45.98923" lon="5.63246">
        <ele>1096.6</ele>
        <time>2026-05-12T09:15:31Z</time>
      </trkpt>
      <trkpt lat="45.98918" lon="5.6325">
        <ele>1096</ele>
        <time>2026-05-12T09:15:32Z</time>
      </trkpt>
      <trkpt lat="45.98913" lon="5.63253">
        <ele>1096</ele>
        <time>2026-05-12T09:15:33Z</time>
      </trkpt>
      <trkpt lat="45.98908" lon="5.63257">
        <ele>1096</ele>
        <time>2026-05-12T09:15:34Z</time>
      </trkpt>
      <trkpt lat="45.98903" lon="5.63259">
        <ele>1096</ele>
        <time>2026-05-12T09:15:35Z</time>
      </trkpt>
      <trkpt lat="45.98898" lon="5.63262">
        <ele>1095.6</ele>
        <time>2026-05-12T09:15:36Z</time>
      </trkpt>
      <trkpt lat="45.98893" lon="5.63262">
        <ele>1095.6</ele>
        <time>2026-05-12T09:15:37Z</time>
      </trkpt>
      <trkpt lat="45.98887" lon="5.63263">
        <ele>1095.4</ele>
        <time>2026-05-12T09:15:38Z</time>
      </trkpt>
      <trkpt lat="45.98882" lon="5.63265">
        <ele>1096</ele>
        <time>2026-05-12T09:15:39Z</time>
      </trkpt>
      <trkpt lat="45.98876" lon="5.63264">
        <ele>1095.6</ele>
        <time>2026-05-12T09:15:40Z</time>
      </trkpt>
      <trkpt lat="45.98871" lon="5.63263">
        <ele>1095.4</ele>
        <time>2026-05-12T09:15:41Z</time>
      </trkpt>
      <trkpt lat="45.98866" lon="5.63262">
        <ele>1095.4</ele>
        <time>2026-05-12T09:15:42Z</time>
      </trkpt>
      <trkpt lat="45.98863" lon="5.63262">
        <ele>1095.4</ele>
        <time>2026-05-12T09:15:43Z</time>
      </trkpt>
      <trkpt lat="45.9886" lon="5.63261">
        <ele>1095.4</ele>
        <time>2026-05-12T09:15:44Z</time>
      </trkpt>
      <trkpt lat="45.98857" lon="5.6326">
        <ele>1095.4</ele>
        <time>2026-05-12T09:15:45Z</time>
      </trkpt>
      <trkpt lat="45.98855" lon="5.63261">
        <ele>1095.4</ele>
        <time>2026-05-12T09:15:46Z</time>
      </trkpt>
      <trkpt lat="45.98851" lon="5.63262">
        <ele>1095</ele>
        <time>2026-05-12T09:15:47Z</time>
      </trkpt>
      <trkpt lat="45.98848" lon="5.63262">
        <ele>1094.8</ele>
        <time>2026-05-12T09:15:48Z</time>
      </trkpt>
      <trkpt lat="45.98845" lon="5.63263">
        <ele>1094.8</ele>
        <time>2026-05-12T09:15:49Z</time>
      </trkpt>
      <trkpt lat="45.98841" lon="5.63264">
        <ele>1094.8</ele>
        <time>2026-05-12T09:15:50Z</time>
      </trkpt>
      <trkpt lat="45.98838" lon="5.63265">
        <ele>1094.8</ele>
        <time>2026-05-12T09:15:51Z</time>
      </trkpt>
      <trkpt lat="45.98834" lon="5.63267">
        <ele>1094.8</ele>
        <time>2026-05-12T09:15:52Z</time>
      </trkpt>
      <trkpt lat="45.9883" lon="5.63269">
        <ele>1094.2</ele>
        <time>2026-05-12T09:15:53Z</time>
      </trkpt>
      <trkpt lat="45.98828" lon="5.63271">
        <ele>1094.2</ele>
        <time>2026-05-12T09:15:54Z</time>
      </trkpt>
      <trkpt lat="45.98823" lon="5.63274">
        <ele>1094.2</ele>
        <time>2026-05-12T09:15:55Z</time>
      </trkpt>
      <trkpt lat="45.9882" lon="5.63276">
        <ele>1094.2</ele>
        <time>2026-05-12T09:15:56Z</time>
      </trkpt>
      <trkpt lat="45.98815" lon="5.63277">
        <ele>1093.6</ele>
        <time>2026-05-12T09:15:57Z</time>
      </trkpt>
      <trkpt lat="45.98811" lon="5.63278">
        <ele>1094</ele>
        <time>2026-05-12T09:15:58Z</time>
      </trkpt>
      <trkpt lat="45.98806" lon="5.63277">
        <ele>1094</ele>
        <time>2026-05-12T09:15:59Z</time>
      </trkpt>
      <trkpt lat="45.98802" lon="5.63276">
        <ele>1094</ele>
        <time>2026-05-12T09:16:00Z</time>
      </trkpt>
      <trkpt lat="45.98798" lon="5.63276">
        <ele>1093.6</ele>
        <time>2026-05-12T09:16:01Z</time>
      </trkpt>
      <trkpt lat="45.98793" lon="5.63274">
        <ele>1093.6</ele>
        <time>2026-05-12T09:16:02Z</time>
      </trkpt>
      <trkpt lat="45.98788" lon="5.63274">
        <ele>1093.6</ele>
        <time>2026-05-12T09:16:03Z</time>
      </trkpt>
      <trkpt lat="45.98783" lon="5.63275">
        <ele>1093.6</ele>
        <time>2026-05-12T09:16:04Z</time>
      </trkpt>
      <trkpt lat="45.98777" lon="5.63275">
        <ele>1093</ele>
        <time>2026-05-12T09:16:05Z</time>
      </trkpt>
      <trkpt lat="45.98773" lon="5.63273">
        <ele>1093</ele>
        <time>2026-05-12T09:16:06Z</time>
      </trkpt>
      <trkpt lat="45.98767" lon="5.63273">
        <ele>1093.4</ele>
        <time>2026-05-12T09:16:07Z</time>
      </trkpt>
      <trkpt lat="45.98762" lon="5.63274">
        <ele>1093.4</ele>
        <time>2026-05-12T09:16:08Z</time>
      </trkpt>
      <trkpt lat="45.98757" lon="5.63275">
        <ele>1093.6</ele>
        <time>2026-05-12T09:16:09Z</time>
      </trkpt>
      <trkpt lat="45.98753" lon="5.63274">
        <ele>1094</ele>
        <time>2026-05-12T09:16:10Z</time>
      </trkpt>
      <trkpt lat="45.98749" lon="5.63274">
        <ele>1094</ele>
        <time>2026-05-12T09:16:11Z</time>
      </trkpt>
      <trkpt lat="45.98746" lon="5.63273">
        <ele>1094.6</ele>
        <time>2026-05-12T09:16:12Z</time>
      </trkpt>
      <trkpt lat="45.98743" lon="5.63274">
        <ele>1094.6</ele>
        <time>2026-05-12T09:16:13Z</time>
      </trkpt>
      <trkpt lat="45.98739" lon="5.63275">
        <ele>1094.8</ele>
        <time>2026-05-12T09:16:14Z</time>
      </trkpt>
      <trkpt lat="45.98736" lon="5.63274">
        <ele>1094.8</ele>
        <time>2026-05-12T09:16:15Z</time>
      </trkpt>
      <trkpt lat="45.98736" lon="5.63274">
        <ele>1094.8</ele>
        <time>2026-05-12T09:16:16Z</time>
      </trkpt>
      <trkpt lat="45.98732" lon="5.63275">
        <ele>1094.2</ele>
        <time>2026-05-12T09:16:17Z</time>
      </trkpt>
      <trkpt lat="45.98727" lon="5.63277">
        <ele>1093.8</ele>
        <time>2026-05-12T09:16:18Z</time>
      </trkpt>
      <trkpt lat="45.98721" lon="5.63281">
        <ele>1093.6</ele>
        <time>2026-05-12T09:16:19Z</time>
      </trkpt>
      <trkpt lat="45.98715" lon="5.63283">
        <ele>1093</ele>
        <time>2026-05-12T09:16:20Z</time>
      </trkpt>
      <trkpt lat="45.98709" lon="5.63285">
        <ele>1093</ele>
        <time>2026-05-12T09:16:21Z</time>
      </trkpt>
      <trkpt lat="45.98703" lon="5.63286">
        <ele>1092.4</ele>
        <time>2026-05-12T09:16:22Z</time>
      </trkpt>
      <trkpt lat="45.98696" lon="5.63288">
        <ele>1092.4</ele>
        <time>2026-05-12T09:16:23Z</time>
      </trkpt>
      <trkpt lat="45.98691" lon="5.63284">
        <ele>1092.4</ele>
        <time>2026-05-12T09:16:24Z</time>
      </trkpt>
      <trkpt lat="45.98685" lon="5.63282">
        <ele>1091.8</ele>
        <time>2026-05-12T09:16:25Z</time>
      </trkpt>
      <trkpt lat="45.98679" lon="5.63279">
        <ele>1091.8</ele>
        <time>2026-05-12T09:16:26Z</time>
      </trkpt>
      <trkpt lat="45.98673" lon="5.63277">
        <ele>1091.8</ele>
        <time>2026-05-12T09:16:27Z</time>
      </trkpt>
      <trkpt lat="45.98668" lon="5.63276">
        <ele>1091.4</ele>
        <time>2026-05-12T09:16:28Z</time>
      </trkpt>
      <trkpt lat="45.98662" lon="5.63275">
        <ele>1091.4</ele>
        <time>2026-05-12T09:16:29Z</time>
      </trkpt>
      <trkpt lat="45.98657" lon="5.63274">
        <ele>1091.2</ele>
        <time>2026-05-12T09:16:30Z</time>
      </trkpt>
      <trkpt lat="45.98651" lon="5.63274">
        <ele>1091.2</ele>
        <time>2026-05-12T09:16:31Z</time>
      </trkpt>
      <trkpt lat="45.98645" lon="5.63274">
        <ele>1091.2</ele>
        <time>2026-05-12T09:16:32Z</time>
      </trkpt>
      <trkpt lat="45.98639" lon="5.63275">
        <ele>1091.2</ele>
        <time>2026-05-12T09:16:33Z</time>
      </trkpt>
      <trkpt lat="45.98634" lon="5.63275">
        <ele>1091.2</ele>
        <time>2026-05-12T09:16:34Z</time>
      </trkpt>
      <trkpt lat="45.98627" lon="5.63275">
        <ele>1091.4</ele>
        <time>2026-05-12T09:16:35Z</time>
      </trkpt>
      <trkpt lat="45.98622" lon="5.63274">
        <ele>1091.4</ele>
        <time>2026-05-12T09:16:36Z</time>
      </trkpt>
      <trkpt lat="45.98617" lon="5.63272">
        <ele>1091.4</ele>
        <time>2026-05-12T09:16:37Z</time>
      </trkpt>
      <trkpt lat="45.98612" lon="5.63269">
        <ele>1091.4</ele>
        <time>2026-05-12T09:16:38Z</time>
      </trkpt>
      <trkpt lat="45.98606" lon="5.63269">
        <ele>1091.4</ele>
        <time>2026-05-12T09:16:39Z</time>
      </trkpt>
      <trkpt lat="45.98601" lon="5.63268">
        <ele>1091.8</ele>
        <time>2026-05-12T09:16:40Z</time>
      </trkpt>
      <trkpt lat="45.98596" lon="5.63268">
        <ele>1091.4</ele>
        <time>2026-05-12T09:16:41Z</time>
      </trkpt>
      <trkpt lat="45.9859" lon="5.63269">
        <ele>1091.4</ele>
        <time>2026-05-12T09:16:42Z</time>
      </trkpt>
      <trkpt lat="45.98585" lon="5.6327">
        <ele>1091.4</ele>
        <time>2026-05-12T09:16:43Z</time>
      </trkpt>
      <trkpt lat="45.9858" lon="5.63271">
        <ele>1091.4</ele>
        <time>2026-05-12T09:16:44Z</time>
      </trkpt>
      <trkpt lat="45.98575" lon="5.63273">
        <ele>1091</ele>
        <time>2026-05-12T09:16:45Z</time>
      </trkpt>
      <trkpt lat="45.9857" lon="5.63275">
        <ele>1091</ele>
        <time>2026-05-12T09:16:46Z</time>
      </trkpt>
      <trkpt lat="45.98565" lon="5.63278">
        <ele>1091</ele>
        <time>2026-05-12T09:16:47Z</time>
      </trkpt>
      <trkpt lat="45.9856" lon="5.6328">
        <ele>1091</ele>
        <time>2026-05-12T09:16:48Z</time>
      </trkpt>
      <trkpt lat="45.98555" lon="5.63282">
        <ele>1091</ele>
        <time>2026-05-12T09:16:49Z</time>
      </trkpt>
      <trkpt lat="45.98549" lon="5.63286">
        <ele>1090.8</ele>
        <time>2026-05-12T09:16:50Z</time>
      </trkpt>
      <trkpt lat="45.98544" lon="5.63288">
        <ele>1090.8</ele>
        <time>2026-05-12T09:16:51Z</time>
      </trkpt>
      <trkpt lat="45.98538" lon="5.63291">
        <ele>1090.4</ele>
        <time>2026-05-12T09:16:52Z</time>
      </trkpt>
      <trkpt lat="45.98532" lon="5.63294">
        <ele>1090</ele>
        <time>2026-05-12T09:16:53Z</time>
      </trkpt>
      <trkpt lat="45.98526" lon="5.63298">
        <ele>1089.4</ele>
        <time>2026-05-12T09:16:54Z</time>
      </trkpt>
      <trkpt lat="45.9852" lon="5.63301">
        <ele>1089.2</ele>
        <time>2026-05-12T09:16:55Z</time>
      </trkpt>
      <trkpt lat="45.98515" lon="5.63305">
        <ele>1088.6</ele>
        <time>2026-05-12T09:16:56Z</time>
      </trkpt>
      <trkpt lat="45.9851" lon="5.6331">
        <ele>1087.2</ele>
        <time>2026-05-12T09:16:57Z</time>
      </trkpt>
      <trkpt lat="45.98504" lon="5.63314">
        <ele>1088</ele>
        <time>2026-05-12T09:16:58Z</time>
      </trkpt>
      <trkpt lat="45.98499" lon="5.63319">
        <ele>1087.6</ele>
        <time>2026-05-12T09:16:59Z</time>
      </trkpt>
      <trkpt lat="45.98495" lon="5.63324">
        <ele>1087.2</ele>
        <time>2026-05-12T09:17:00Z</time>
      </trkpt>
      <trkpt lat="45.98491" lon="5.63329">
        <ele>1087.2</ele>
        <time>2026-05-12T09:17:01Z</time>
      </trkpt>
      <trkpt lat="45.98487" lon="5.63334">
        <ele>1087.2</ele>
        <time>2026-05-12T09:17:02Z</time>
      </trkpt>
      <trkpt lat="45.98484" lon="5.63341">
        <ele>1087.4</ele>
        <time>2026-05-12T09:17:03Z</time>
      </trkpt>
      <trkpt lat="45.98481" lon="5.63346">
        <ele>1087.2</ele>
        <time>2026-05-12T09:17:04Z</time>
      </trkpt>
      <trkpt lat="45.98479" lon="5.63353">
        <ele>1087.2</ele>
        <time>2026-05-12T09:17:05Z</time>
      </trkpt>
      <trkpt lat="45.98476" lon="5.6336">
        <ele>1086.4</ele>
        <time>2026-05-12T09:17:06Z</time>
      </trkpt>
      <trkpt lat="45.98474" lon="5.63368">
        <ele>1085.8</ele>
        <time>2026-05-12T09:17:07Z</time>
      </trkpt>
      <trkpt lat="45.9847" lon="5.63375">
        <ele>1086</ele>
        <time>2026-05-12T09:17:08Z</time>
      </trkpt>
      <trkpt lat="45.98465" lon="5.63383">
        <ele>1085.4</ele>
        <time>2026-05-12T09:17:09Z</time>
      </trkpt>
      <trkpt lat="45.9846" lon="5.63391">
        <ele>1085.4</ele>
        <time>2026-05-12T09:17:10Z</time>
      </trkpt>
      <trkpt lat="45.98455" lon="5.63398">
        <ele>1083.2</ele>
        <time>2026-05-12T09:17:11Z</time>
      </trkpt>
      <trkpt lat="45.9845" lon="5.63405">
        <ele>1082.8</ele>
        <time>2026-05-12T09:17:12Z</time>
      </trkpt>
      <trkpt lat="45.98444" lon="5.63412">
        <ele>1080.8</ele>
        <time>2026-05-12T09:17:13Z</time>
      </trkpt>
      <trkpt lat="45.98438" lon="5.63419">
        <ele>1080.4</ele>
        <time>2026-05-12T09:17:14Z</time>
      </trkpt>
      <trkpt lat="45.98431" lon="5.63426">
        <ele>1079.6</ele>
        <time>2026-05-12T09:17:15Z</time>
      </trkpt>
      <trkpt lat="45.98424" lon="5.63432">
        <ele>1079.6</ele>
        <time>2026-05-12T09:17:16Z</time>
      </trkpt>
      <trkpt lat="45.98418" lon="5.63439">
        <ele>1079.6</ele>
        <time>2026-05-12T09:17:17Z</time>
      </trkpt>
      <trkpt lat="45.98411" lon="5.63445">
        <ele>1079.6</ele>
        <time>2026-05-12T09:17:18Z</time>
      </trkpt>
      <trkpt lat="45.98404" lon="5.63447">
        <ele>1078.8</ele>
        <time>2026-05-12T09:17:19Z</time>
      </trkpt>
      <trkpt lat="45.98398" lon="5.6345">
        <ele>1079.2</ele>
        <time>2026-05-12T09:17:20Z</time>
      </trkpt>
      <trkpt lat="45.98391" lon="5.63452">
        <ele>1078.8</ele>
        <time>2026-05-12T09:17:21Z</time>
      </trkpt>
      <trkpt lat="45.98384" lon="5.63454">
        <ele>1078.8</ele>
        <time>2026-05-12T09:17:22Z</time>
      </trkpt>
      <trkpt lat="45.98377" lon="5.63454">
        <ele>1078.4</ele>
        <time>2026-05-12T09:17:23Z</time>
      </trkpt>
      <trkpt lat="45.98371" lon="5.63455">
        <ele>1078</ele>
        <time>2026-05-12T09:17:24Z</time>
      </trkpt>
      <trkpt lat="45.98366" lon="5.63456">
        <ele>1078</ele>
        <time>2026-05-12T09:17:25Z</time>
      </trkpt>
      <trkpt lat="45.9836" lon="5.63457">
        <ele>1078</ele>
        <time>2026-05-12T09:17:26Z</time>
      </trkpt>
      <trkpt lat="45.98354" lon="5.63458">
        <ele>1077.6</ele>
        <time>2026-05-12T09:17:27Z</time>
      </trkpt>
      <trkpt lat="45.98349" lon="5.63459">
        <ele>1077.6</ele>
        <time>2026-05-12T09:17:28Z</time>
      </trkpt>
      <trkpt lat="45.98344" lon="5.6346">
        <ele>1077.6</ele>
        <time>2026-05-12T09:17:29Z</time>
      </trkpt>
      <trkpt lat="45.98341" lon="5.63461">
        <ele>1077.6</ele>
        <time>2026-05-12T09:17:30Z</time>
      </trkpt>
      <trkpt lat="45.98339" lon="5.6346">
        <ele>1077.6</ele>
        <time>2026-05-12T09:17:31Z</time>
      </trkpt>
      <trkpt lat="45.98337" lon="5.63463">
        <ele>1077.6</ele>
        <time>2026-05-12T09:17:32Z</time>
      </trkpt>
      <trkpt lat="45.98335" lon="5.63466">
        <ele>1077.6</ele>
        <time>2026-05-12T09:17:33Z</time>
      </trkpt>
      <trkpt lat="45.98334" lon="5.63466">
        <ele>1077.6</ele>
        <time>2026-05-12T09:17:34Z</time>
      </trkpt>
      <trkpt lat="45.98333" lon="5.63469">
        <ele>1077.6</ele>
        <time>2026-05-12T09:17:35Z</time>
      </trkpt>
      <trkpt lat="45.98331" lon="5.63471">
        <ele>1077.6</ele>
        <time>2026-05-12T09:17:36Z</time>
      </trkpt>
      <trkpt lat="45.9833" lon="5.63473">
        <ele>1077.6</ele>
        <time>2026-05-12T09:17:37Z</time>
      </trkpt>
      <trkpt lat="45.98329" lon="5.63476">
        <ele>1077.6</ele>
        <time>2026-05-12T09:17:38Z</time>
      </trkpt>
      <trkpt lat="45.98328" lon="5.63478">
        <ele>1077.6</ele>
        <time>2026-05-12T09:17:39Z</time>
      </trkpt>
      <trkpt lat="45.98326" lon="5.6348">
        <ele>1077.6</ele>
        <time>2026-05-12T09:17:40Z</time>
      </trkpt>
      <trkpt lat="45.98325" lon="5.63482">
        <ele>1077.6</ele>
        <time>2026-05-12T09:17:41Z</time>
      </trkpt>
      <trkpt lat="45.98324" lon="5.63483">
        <ele>1077.6</ele>
        <time>2026-05-12T09:17:42Z</time>
      </trkpt>
      <trkpt lat="45.98323" lon="5.63484">
        <ele>1077.6</ele>
        <time>2026-05-12T09:17:43Z</time>
      </trkpt>
      <trkpt lat="45.98323" lon="5.63484">
        <ele>1077.6</ele>
        <time>2026-05-12T09:17:44Z</time>
      </trkpt>
      <trkpt lat="45.98322" lon="5.63485">
        <ele>1077.6</ele>
        <time>2026-05-12T09:17:45Z</time>
      </trkpt>
      <trkpt lat="45.98321" lon="5.63486">
        <ele>1077.6</ele>
        <time>2026-05-12T09:17:46Z</time>
      </trkpt>
      <trkpt lat="45.9832" lon="5.63486">
        <ele>1077.6</ele>
        <time>2026-05-12T09:17:47Z</time>
      </trkpt>
      <trkpt lat="45.98319" lon="5.63487">
        <ele>1077.4</ele>
        <time>2026-05-12T09:17:48Z</time>
      </trkpt>
      <trkpt lat="45.98318" lon="5.63487">
        <ele>1077.4</ele>
        <time>2026-05-12T09:17:49Z</time>
      </trkpt>
      <trkpt lat="45.98317" lon="5.63488">
        <ele>1077.4</ele>
        <time>2026-05-12T09:17:50Z</time>
      </trkpt>
      <trkpt lat="45.98316" lon="5.63488">
        <ele>1077.4</ele>
        <time>2026-05-12T09:17:51Z</time>
      </trkpt>
      <trkpt lat="45.98316" lon="5.63489">
        <ele>1077.4</ele>
        <time>2026-05-12T09:17:52Z</time>
      </trkpt>
      <trkpt lat="45.98315" lon="5.63489">
        <ele>1077.4</ele>
        <time>2026-05-12T09:17:53Z</time>
      </trkpt>
      <trkpt lat="45.98314" lon="5.63489">
        <ele>1077.4</ele>
        <time>2026-05-12T09:17:54Z</time>
      </trkpt>
      <trkpt lat="45.98314" lon="5.63489">
        <ele>1077</ele>
        <time>2026-05-12T09:17:55Z</time>
      </trkpt>
      <trkpt lat="45.98311" lon="5.63491">
        <ele>1077.4</ele>
        <time>2026-05-12T09:19:52Z</time>
      </trkpt>
      <trkpt lat="45.98311" lon="5.63491">
        <ele>1077.4</ele>
        <time>2026-05-12T09:19:53Z</time>
      </trkpt>
      <trkpt lat="45.98311" lon="5.63491">
        <ele>1077.4</ele>
        <time>2026-05-12T09:19:54Z</time>
      </trkpt>
      <trkpt lat="45.98311" lon="5.63491">
        <ele>1077</ele>
        <time>2026-05-12T09:19:55Z</time>
      </trkpt>
      <trkpt lat="45.98314" lon="5.63485">
        <ele>1076.4</ele>
        <time>2026-05-12T09:19:57Z</time>
      </trkpt>
      <trkpt lat="45.98314" lon="5.63483">
        <ele>1076.4</ele>
        <time>2026-05-12T09:19:58Z</time>
      </trkpt>
      <trkpt lat="45.98313" lon="5.63481">
        <ele>1076.4</ele>
        <time>2026-05-12T09:19:59Z</time>
      </trkpt>
      <trkpt lat="45.98313" lon="5.63479">
        <ele>1076.6</ele>
        <time>2026-05-12T09:20:00Z</time>
      </trkpt>
      <trkpt lat="45.98313" lon="5.63477">
        <ele>1077</ele>
        <time>2026-05-12T09:20:01Z</time>
      </trkpt>
      <trkpt lat="45.98312" lon="5.63476">
        <ele>1077</ele>
        <time>2026-05-12T09:20:02Z</time>
      </trkpt>
      <trkpt lat="45.98311" lon="5.63475">
        <ele>1077.2</ele>
        <time>2026-05-12T09:20:03Z</time>
      </trkpt>
      <trkpt lat="45.9831" lon="5.63474">
        <ele>1077.2</ele>
        <time>2026-05-12T09:20:04Z</time>
      </trkpt>
      <trkpt lat="45.98309" lon="5.63474">
        <ele>1077.2</ele>
        <time>2026-05-12T09:20:05Z</time>
      </trkpt>
      <trkpt lat="45.98308" lon="5.63474">
        <ele>1077.2</ele>
        <time>2026-05-12T09:20:06Z</time>
      </trkpt>
      <trkpt lat="45.98306" lon="5.63474">
        <ele>1077.2</ele>
        <time>2026-05-12T09:20:07Z</time>
      </trkpt>
      <trkpt lat="45.98305" lon="5.63474">
        <ele>1076.8</ele>
        <time>2026-05-12T09:20:08Z</time>
      </trkpt>
      <trkpt lat="45.98304" lon="5.63474">
        <ele>1076.8</ele>
        <time>2026-05-12T09:20:09Z</time>
      </trkpt>
      <trkpt lat="45.98303" lon="5.63474">
        <ele>1077</ele>
        <time>2026-05-12T09:20:10Z</time>
      </trkpt>
      <trkpt lat="45.98301" lon="5.63475">
        <ele>1077</ele>
        <time>2026-05-12T09:20:11Z</time>
      </trkpt>
      <trkpt lat="45.983" lon="5.63475">
        <ele>1077</ele>
        <time>2026-05-12T09:20:12Z</time>
      </trkpt>
      <trkpt lat="45.98299" lon="5.63475">
        <ele>1077</ele>
        <time>2026-05-12T09:20:13Z</time>
      </trkpt>
      <trkpt lat="45.98298" lon="5.63475">
        <ele>1077</ele>
        <time>2026-05-12T09:20:14Z</time>
      </trkpt>
      <trkpt lat="45.98296" lon="5.63476">
        <ele>1077</ele>
        <time>2026-05-12T09:20:15Z</time>
      </trkpt>
      <trkpt lat="45.98295" lon="5.63476">
        <ele>1077</ele>
        <time>2026-05-12T09:20:16Z</time>
      </trkpt>
      <trkpt lat="45.98295" lon="5.63477">
        <ele>1077</ele>
        <time>2026-05-12T09:20:17Z</time>
      </trkpt>
      <trkpt lat="45.98295" lon="5.63477">
        <ele>1077</ele>
        <time>2026-05-12T09:20:18Z</time>
      </trkpt>
      <trkpt lat="45.98296" lon="5.63481">
        <ele>1077</ele>
        <time>2026-05-12T09:32:09Z</time>
      </trkpt>
      <trkpt lat="45.98296" lon="5.63483">
        <ele>1077</ele>
        <time>2026-05-12T09:32:10Z</time>
      </trkpt>
      <trkpt lat="45.98296" lon="5.63483">
        <ele>1077</ele>
        <time>2026-05-12T09:32:11Z</time>
      </trkpt>
      <trkpt lat="45.98296" lon="5.63483">
        <ele>1076.8</ele>
        <time>2026-05-12T09:32:12Z</time>
      </trkpt>
      <trkpt lat="45.983" lon="5.63483">
        <ele>1076.8</ele>
        <time>2026-05-12T09:32:14Z</time>
      </trkpt>
      <trkpt lat="45.98301" lon="5.63482">
        <ele>1076.6</ele>
        <time>2026-05-12T09:32:15Z</time>
      </trkpt>
      <trkpt lat="45.98302" lon="5.63481">
        <ele>1076.6</ele>
        <time>2026-05-12T09:32:16Z</time>
      </trkpt>
      <trkpt lat="45.98302" lon="5.6348">
        <ele>1076.6</ele>
        <time>2026-05-12T09:32:17Z</time>
      </trkpt>
      <trkpt lat="45.98302" lon="5.63478">
        <ele>1076.6</ele>
        <time>2026-05-12T09:32:18Z</time>
      </trkpt>
      <trkpt lat="45.98302" lon="5.63477">
        <ele>1076.6</ele>
        <time>2026-05-12T09:32:19Z</time>
      </trkpt>
      <trkpt lat="45.98303" lon="5.63475">
        <ele>1076.6</ele>
        <time>2026-05-12T09:32:20Z</time>
      </trkpt>
      <trkpt lat="45.98304" lon="5.63472">
        <ele>1076.6</ele>
        <time>2026-05-12T09:32:21Z</time>
      </trkpt>
      <trkpt lat="45.98305" lon="5.6347">
        <ele>1076.6</ele>
        <time>2026-05-12T09:32:22Z</time>
      </trkpt>
      <trkpt lat="45.98305" lon="5.63467">
        <ele>1076.6</ele>
        <time>2026-05-12T09:32:23Z</time>
      </trkpt>
      <trkpt lat="45.98305" lon="5.63465">
        <ele>1076.6</ele>
        <time>2026-05-12T09:32:24Z</time>
      </trkpt>
      <trkpt lat="45.98304" lon="5.63462">
        <ele>1076.4</ele>
        <time>2026-05-12T09:32:25Z</time>
      </trkpt>
      <trkpt lat="45.98303" lon="5.6346">
        <ele>1076.4</ele>
        <time>2026-05-12T09:32:26Z</time>
      </trkpt>
      <trkpt lat="45.98301" lon="5.63458">
        <ele>1076.4</ele>
        <time>2026-05-12T09:32:27Z</time>
      </trkpt>
      <trkpt lat="45.983" lon="5.63456">
        <ele>1076.4</ele>
        <time>2026-05-12T09:32:28Z</time>
      </trkpt>
      <trkpt lat="45.98298" lon="5.63455">
        <ele>1076.4</ele>
        <time>2026-05-12T09:32:29Z</time>
      </trkpt>
      <trkpt lat="45.98297" lon="5.63454">
        <ele>1076.4</ele>
        <time>2026-05-12T09:32:30Z</time>
      </trkpt>
      <trkpt lat="45.98295" lon="5.63452">
        <ele>1076.4</ele>
        <time>2026-05-12T09:32:31Z</time>
      </trkpt>
      <trkpt lat="45.98293" lon="5.6345">
        <ele>1076.4</ele>
        <time>2026-05-12T09:32:32Z</time>
      </trkpt>
      <trkpt lat="45.98293" lon="5.63448">
        <ele>1076.4</ele>
        <time>2026-05-12T09:32:33Z</time>
      </trkpt>
      <trkpt lat="45.98292" lon="5.63446">
        <ele>1076.4</ele>
        <time>2026-05-12T09:32:34Z</time>
      </trkpt>
      <trkpt lat="45.98291" lon="5.63444">
        <ele>1076.4</ele>
        <time>2026-05-12T09:32:35Z</time>
      </trkpt>
      <trkpt lat="45.98289" lon="5.63442">
        <ele>1076.4</ele>
        <time>2026-05-12T09:32:36Z</time>
      </trkpt>
      <trkpt lat="45.98287" lon="5.6344">
        <ele>1076</ele>
        <time>2026-05-12T09:32:37Z</time>
      </trkpt>
      <trkpt lat="45.98286" lon="5.63438">
        <ele>1076</ele>
        <time>2026-05-12T09:32:38Z</time>
      </trkpt>
      <trkpt lat="45.98284" lon="5.63436">
        <ele>1076</ele>
        <time>2026-05-12T09:32:39Z</time>
      </trkpt>
      <trkpt lat="45.98284" lon="5.63434">
        <ele>1076</ele>
        <time>2026-05-12T09:32:40Z</time>
      </trkpt>
      <trkpt lat="45.98283" lon="5.63432">
        <ele>1076</ele>
        <time>2026-05-12T09:32:41Z</time>
      </trkpt>
      <trkpt lat="45.98282" lon="5.6343">
        <ele>1076</ele>
        <time>2026-05-12T09:32:42Z</time>
      </trkpt>
      <trkpt lat="45.98281" lon="5.63429">
        <ele>1076</ele>
        <time>2026-05-12T09:32:43Z</time>
      </trkpt>
      <trkpt lat="45.9828" lon="5.63428">
        <ele>1076</ele>
        <time>2026-05-12T09:32:44Z</time>
      </trkpt>
      <trkpt lat="45.98279" lon="5.63426">
        <ele>1075.8</ele>
        <time>2026-05-12T09:32:45Z</time>
      </trkpt>
      <trkpt lat="45.98278" lon="5.63425">
        <ele>1075.8</ele>
        <time>2026-05-12T09:32:46Z</time>
      </trkpt>
      <trkpt lat="45.98277" lon="5.63423">
        <ele>1075.8</ele>
        <time>2026-05-12T09:32:47Z</time>
      </trkpt>
      <trkpt lat="45.98277" lon="5.63422">
        <ele>1075.8</ele>
        <time>2026-05-12T09:32:48Z</time>
      </trkpt>
      <trkpt lat="45.98276" lon="5.63421">
        <ele>1075.8</ele>
        <time>2026-05-12T09:32:49Z</time>
      </trkpt>
      <trkpt lat="45.98274" lon="5.63422">
        <ele>1075.8</ele>
        <time>2026-05-12T09:32:50Z</time>
      </trkpt>
      <trkpt lat="45.98272" lon="5.63422">
        <ele>1075.8</ele>
        <time>2026-05-12T09:32:51Z</time>
      </trkpt>
      <trkpt lat="45.98271" lon="5.63422">
        <ele>1075.8</ele>
        <time>2026-05-12T09:32:52Z</time>
      </trkpt>
      <trkpt lat="45.9827" lon="5.63421">
        <ele>1075.8</ele>
        <time>2026-05-12T09:32:53Z</time>
      </trkpt>
      <trkpt lat="45.9827" lon="5.63421">
        <ele>1075.8</ele>
        <time>2026-05-12T09:32:54Z</time>
      </trkpt>
      <trkpt lat="45.9827" lon="5.63421">
        <ele>1075.8</ele>
        <time>2026-05-12T09:32:55Z</time>
      </trkpt>
      <trkpt lat="45.98273" lon="5.63415">
        <ele>1075.8</ele>
        <time>2026-05-12T09:32:56Z</time>
      </trkpt>
      <trkpt lat="45.98275" lon="5.63415">
        <ele>1075.8</ele>
        <time>2026-05-12T09:32:57Z</time>
      </trkpt>
      <trkpt lat="45.98277" lon="5.63417">
        <ele>1076</ele>
        <time>2026-05-12T09:32:58Z</time>
      </trkpt>
      <trkpt lat="45.98278" lon="5.63419">
        <ele>1076</ele>
        <time>2026-05-12T09:32:59Z</time>
      </trkpt>
      <trkpt lat="45.98278" lon="5.6342">
        <ele>1076.2</ele>
        <time>2026-05-12T09:33:00Z</time>
      </trkpt>
      <trkpt lat="45.98279" lon="5.63421">
        <ele>1076.2</ele>
        <time>2026-05-12T09:33:01Z</time>
      </trkpt>
      <trkpt lat="45.9828" lon="5.63422">
        <ele>1076.2</ele>
        <time>2026-05-12T09:33:02Z</time>
      </trkpt>
      <trkpt lat="45.98281" lon="5.63423">
        <ele>1076.2</ele>
        <time>2026-05-12T09:33:03Z</time>
      </trkpt>
      <trkpt lat="45.98281" lon="5.63424">
        <ele>1076.2</ele>
        <time>2026-05-12T09:33:04Z</time>
      </trkpt>
      <trkpt lat="45.98282" lon="5.63424">
        <ele>1076.2</ele>
        <time>2026-05-12T09:33:05Z</time>
      </trkpt>
      <trkpt lat="45.98282" lon="5.63425">
        <ele>1076.2</ele>
        <time>2026-05-12T09:33:06Z</time>
      </trkpt>
      <trkpt lat="45.98282" lon="5.63424">
        <ele>1076.8</ele>
        <time>2026-05-12T09:41:39Z</time>
      </trkpt>
      <trkpt lat="45.98282" lon="5.63427">
        <ele>1076.8</ele>
        <time>2026-05-12T09:41:40Z</time>
      </trkpt>
      <trkpt lat="45.98283" lon="5.63429">
        <ele>1076.6</ele>
        <time>2026-05-12T09:41:41Z</time>
      </trkpt>
      <trkpt lat="45.98281" lon="5.63431">
        <ele>1076.6</ele>
        <time>2026-05-12T09:41:42Z</time>
      </trkpt>
      <trkpt lat="45.98279" lon="5.63431">
        <ele>1076.6</ele>
        <time>2026-05-12T09:41:43Z</time>
      </trkpt>
      <trkpt lat="45.98277" lon="5.6343">
        <ele>1076.2</ele>
        <time>2026-05-12T09:41:44Z</time>
      </trkpt>
      <trkpt lat="45.98275" lon="5.63428">
        <ele>1076.2</ele>
        <time>2026-05-12T09:41:45Z</time>
      </trkpt>
      <trkpt lat="45.98273" lon="5.63427">
        <ele>1076.2</ele>
        <time>2026-05-12T09:41:46Z</time>
      </trkpt>
      <trkpt lat="45.98271" lon="5.63425">
        <ele>1076.2</ele>
        <time>2026-05-12T09:41:47Z</time>
      </trkpt>
      <trkpt lat="45.9827" lon="5.63424">
        <ele>1076.2</ele>
        <time>2026-05-12T09:41:48Z</time>
      </trkpt>
      <trkpt lat="45.98268" lon="5.63422">
        <ele>1076.2</ele>
        <time>2026-05-12T09:41:49Z</time>
      </trkpt>
      <trkpt lat="45.98267" lon="5.63419">
        <ele>1076</ele>
        <time>2026-05-12T09:41:50Z</time>
      </trkpt>
      <trkpt lat="45.98265" lon="5.63417">
        <ele>1076</ele>
        <time>2026-05-12T09:41:51Z</time>
      </trkpt>
      <trkpt lat="45.98263" lon="5.63416">
        <ele>1076</ele>
        <time>2026-05-12T09:41:52Z</time>
      </trkpt>
      <trkpt lat="45.98261" lon="5.63415">
        <ele>1075.8</ele>
        <time>2026-05-12T09:41:53Z</time>
      </trkpt>
      <trkpt lat="45.98258" lon="5.63414">
        <ele>1075.8</ele>
        <time>2026-05-12T09:41:54Z</time>
      </trkpt>
      <trkpt lat="45.98256" lon="5.63413">
        <ele>1075.8</ele>
        <time>2026-05-12T09:41:55Z</time>
      </trkpt>
      <trkpt lat="45.98254" lon="5.63411">
        <ele>1075.8</ele>
        <time>2026-05-12T09:41:56Z</time>
      </trkpt>
      <trkpt lat="45.98252" lon="5.6341">
        <ele>1075.8</ele>
        <time>2026-05-12T09:41:57Z</time>
      </trkpt>
      <trkpt lat="45.9825" lon="5.63408">
        <ele>1075.4</ele>
        <time>2026-05-12T09:41:58Z</time>
      </trkpt>
      <trkpt lat="45.98247" lon="5.63407">
        <ele>1075.4</ele>
        <time>2026-05-12T09:41:59Z</time>
      </trkpt>
      <trkpt lat="45.98245" lon="5.63405">
        <ele>1075.4</ele>
        <time>2026-05-12T09:42:00Z</time>
      </trkpt>
      <trkpt lat="45.98242" lon="5.63404">
        <ele>1075.4</ele>
        <time>2026-05-12T09:42:01Z</time>
      </trkpt>
      <trkpt lat="45.98239" lon="5.63404">
        <ele>1075.4</ele>
        <time>2026-05-12T09:42:02Z</time>
      </trkpt>
      <trkpt lat="45.98235" lon="5.63405">
        <ele>1075.4</ele>
        <time>2026-05-12T09:42:03Z</time>
      </trkpt>
      <trkpt lat="45.98232" lon="5.63406">
        <ele>1075.4</ele>
        <time>2026-05-12T09:42:04Z</time>
      </trkpt>
      <trkpt lat="45.98229" lon="5.63407">
        <ele>1075.4</ele>
        <time>2026-05-12T09:42:05Z</time>
      </trkpt>
      <trkpt lat="45.98225" lon="5.63408">
        <ele>1075.4</ele>
        <time>2026-05-12T09:42:06Z</time>
      </trkpt>
      <trkpt lat="45.98221" lon="5.6341">
        <ele>1075.4</ele>
        <time>2026-05-12T09:42:07Z</time>
      </trkpt>
      <trkpt lat="45.98218" lon="5.63413">
        <ele>1075.2</ele>
        <time>2026-05-12T09:42:08Z</time>
      </trkpt>
      <trkpt lat="45.98215" lon="5.63415">
        <ele>1075.2</ele>
        <time>2026-05-12T09:42:09Z</time>
      </trkpt>
      <trkpt lat="45.98212" lon="5.63418">
        <ele>1075.2</ele>
        <time>2026-05-12T09:42:10Z</time>
      </trkpt>
      <trkpt lat="45.9821" lon="5.63421">
        <ele>1075.2</ele>
        <time>2026-05-12T09:42:11Z</time>
      </trkpt>
      <trkpt lat="45.98207" lon="5.63425">
        <ele>1075.2</ele>
        <time>2026-05-12T09:42:12Z</time>
      </trkpt>
      <trkpt lat="45.98206" lon="5.63429">
        <ele>1075.2</ele>
        <time>2026-05-12T09:42:13Z</time>
      </trkpt>
      <trkpt lat="45.98204" lon="5.63433">
        <ele>1075.2</ele>
        <time>2026-05-12T09:42:14Z</time>
      </trkpt>
      <trkpt lat="45.98202" lon="5.63438">
        <ele>1075.4</ele>
        <time>2026-05-12T09:42:15Z</time>
      </trkpt>
      <trkpt lat="45.982" lon="5.63442">
        <ele>1075.6</ele>
        <time>2026-05-12T09:42:16Z</time>
      </trkpt>
      <trkpt lat="45.98198" lon="5.63446">
        <ele>1075.6</ele>
        <time>2026-05-12T09:42:17Z</time>
      </trkpt>
      <trkpt lat="45.98197" lon="5.63451">
        <ele>1075.6</ele>
        <time>2026-05-12T09:42:18Z</time>
      </trkpt>
      <trkpt lat="45.98196" lon="5.63454">
        <ele>1076</ele>
        <time>2026-05-12T09:42:19Z</time>
      </trkpt>
      <trkpt lat="45.98194" lon="5.63458">
        <ele>1076</ele>
        <time>2026-05-12T09:42:20Z</time>
      </trkpt>
      <trkpt lat="45.98192" lon="5.63462">
        <ele>1076</ele>
        <time>2026-05-12T09:42:21Z</time>
      </trkpt>
      <trkpt lat="45.98191" lon="5.63466">
        <ele>1076</ele>
        <time>2026-05-12T09:42:22Z</time>
      </trkpt>
      <trkpt lat="45.98189" lon="5.6347">
        <ele>1076</ele>
        <time>2026-05-12T09:42:23Z</time>
      </trkpt>
      <trkpt lat="45.98187" lon="5.63473">
        <ele>1076.4</ele>
        <time>2026-05-12T09:42:24Z</time>
      </trkpt>
      <trkpt lat="45.98186" lon="5.63477">
        <ele>1076.4</ele>
        <time>2026-05-12T09:42:25Z</time>
      </trkpt>
      <trkpt lat="45.98184" lon="5.6348">
        <ele>1076.6</ele>
        <time>2026-05-12T09:42:26Z</time>
      </trkpt>
      <trkpt lat="45.98182" lon="5.63483">
        <ele>1076.6</ele>
        <time>2026-05-12T09:42:27Z</time>
      </trkpt>
      <trkpt lat="45.9818" lon="5.63487">
        <ele>1076.8</ele>
        <time>2026-05-12T09:42:28Z</time>
      </trkpt>
      <trkpt lat="45.98178" lon="5.6349">
        <ele>1077</ele>
        <time>2026-05-12T09:42:29Z</time>
      </trkpt>
      <trkpt lat="45.98177" lon="5.63493">
        <ele>1077</ele>
        <time>2026-05-12T09:42:30Z</time>
      </trkpt>
      <trkpt lat="45.98175" lon="5.63497">
        <ele>1077.4</ele>
        <time>2026-05-12T09:42:31Z</time>
      </trkpt>
      <trkpt lat="45.98172" lon="5.63499">
        <ele>1077.4</ele>
        <time>2026-05-12T09:42:32Z</time>
      </trkpt>
      <trkpt lat="45.9817" lon="5.63502">
        <ele>1077.6</ele>
        <time>2026-05-12T09:42:33Z</time>
      </trkpt>
      <trkpt lat="45.98168" lon="5.63505">
        <ele>1077.6</ele>
        <time>2026-05-12T09:42:34Z</time>
      </trkpt>
      <trkpt lat="45.98165" lon="5.63507">
        <ele>1077.6</ele>
        <time>2026-05-12T09:42:35Z</time>
      </trkpt>
      <trkpt lat="45.98163" lon="5.63509">
        <ele>1077.8</ele>
        <time>2026-05-12T09:42:36Z</time>
      </trkpt>
      <trkpt lat="45.9816" lon="5.6351">
        <ele>1078.2</ele>
        <time>2026-05-12T09:42:37Z</time>
      </trkpt>
      <trkpt lat="45.98157" lon="5.63512">
        <ele>1078.4</ele>
        <time>2026-05-12T09:42:38Z</time>
      </trkpt>
      <trkpt lat="45.98155" lon="5.63513">
        <ele>1078.4</ele>
        <time>2026-05-12T09:42:39Z</time>
      </trkpt>
      <trkpt lat="45.98152" lon="5.63515">
        <ele>1078.4</ele>
        <time>2026-05-12T09:42:40Z</time>
      </trkpt>
      <trkpt lat="45.98149" lon="5.63516">
        <ele>1078.6</ele>
        <time>2026-05-12T09:42:41Z</time>
      </trkpt>
      <trkpt lat="45.98147" lon="5.63517">
        <ele>1078.6</ele>
        <time>2026-05-12T09:42:42Z</time>
      </trkpt>
      <trkpt lat="45.98144" lon="5.63518">
        <ele>1078.6</ele>
        <time>2026-05-12T09:42:43Z</time>
      </trkpt>
      <trkpt lat="45.98142" lon="5.63519">
        <ele>1078.6</ele>
        <time>2026-05-12T09:42:44Z</time>
      </trkpt>
      <trkpt lat="45.98139" lon="5.6352">
        <ele>1079</ele>
        <time>2026-05-12T09:42:45Z</time>
      </trkpt>
      <trkpt lat="45.98137" lon="5.6352">
        <ele>1079</ele>
        <time>2026-05-12T09:42:46Z</time>
      </trkpt>
      <trkpt lat="45.98135" lon="5.6352">
        <ele>1079.2</ele>
        <time>2026-05-12T09:42:47Z</time>
      </trkpt>
      <trkpt lat="45.98132" lon="5.6352">
        <ele>1079.4</ele>
        <time>2026-05-12T09:42:48Z</time>
      </trkpt>
      <trkpt lat="45.9813" lon="5.63519">
        <ele>1079.4</ele>
        <time>2026-05-12T09:42:49Z</time>
      </trkpt>
      <trkpt lat="45.98128" lon="5.63519">
        <ele>1079.8</ele>
        <time>2026-05-12T09:42:50Z</time>
      </trkpt>
      <trkpt lat="45.98126" lon="5.63519">
        <ele>1079.8</ele>
        <time>2026-05-12T09:42:51Z</time>
      </trkpt>
      <trkpt lat="45.98124" lon="5.63519">
        <ele>1079.8</ele>
        <time>2026-05-12T09:42:52Z</time>
      </trkpt>
      <trkpt lat="45.98121" lon="5.63518">
        <ele>1080.2</ele>
        <time>2026-05-12T09:42:53Z</time>
      </trkpt>
      <trkpt lat="45.98119" lon="5.63518">
        <ele>1080.4</ele>
        <time>2026-05-12T09:42:54Z</time>
      </trkpt>
      <trkpt lat="45.98117" lon="5.63517">
        <ele>1080.4</ele>
        <time>2026-05-12T09:42:55Z</time>
      </trkpt>
      <trkpt lat="45.98115" lon="5.63516">
        <ele>1080.6</ele>
        <time>2026-05-12T09:42:56Z</time>
      </trkpt>
      <trkpt lat="45.98113" lon="5.63515">
        <ele>1080.6</ele>
        <time>2026-05-12T09:42:57Z</time>
      </trkpt>
      <trkpt lat="45.98111" lon="5.63514">
        <ele>1080.8</ele>
        <time>2026-05-12T09:42:58Z</time>
      </trkpt>
      <trkpt lat="45.98109" lon="5.63514">
        <ele>1080.8</ele>
        <time>2026-05-12T09:42:59Z</time>
      </trkpt>
      <trkpt lat="45.98107" lon="5.63514">
        <ele>1081.2</ele>
        <time>2026-05-12T09:43:00Z</time>
      </trkpt>
      <trkpt lat="45.98105" lon="5.63513">
        <ele>1081.2</ele>
        <time>2026-05-12T09:43:01Z</time>
      </trkpt>
      <trkpt lat="45.98104" lon="5.63513">
        <ele>1081.6</ele>
        <time>2026-05-12T09:43:02Z</time>
      </trkpt>
      <trkpt lat="45.98102" lon="5.63512">
        <ele>1081.8</ele>
        <time>2026-05-12T09:43:03Z</time>
      </trkpt>
      <trkpt lat="45.98102" lon="5.63512">
        <ele>1081.8</ele>
        <time>2026-05-12T09:43:04Z</time>
      </trkpt>
      <trkpt lat="45.98102" lon="5.63512">
        <ele>1082</ele>
        <time>2026-05-12T09:43:05Z</time>
      </trkpt>
      <trkpt lat="45.98094" lon="5.63507">
        <ele>1082.4</ele>
        <time>2026-05-12T09:43:07Z</time>
      </trkpt>
      <trkpt lat="45.98092" lon="5.63506">
        <ele>1082.4</ele>
        <time>2026-05-12T09:43:08Z</time>
      </trkpt>
      <trkpt lat="45.9809" lon="5.63505">
        <ele>1082.8</ele>
        <time>2026-05-12T09:43:09Z</time>
      </trkpt>
      <trkpt lat="45.98088" lon="5.63505">
        <ele>1083</ele>
        <time>2026-05-12T09:43:10Z</time>
      </trkpt>
      <trkpt lat="45.98086" lon="5.63504">
        <ele>1083</ele>
        <time>2026-05-12T09:43:11Z</time>
      </trkpt>
      <trkpt lat="45.98084" lon="5.63504">
        <ele>1083.4</ele>
        <time>2026-05-12T09:43:12Z</time>
      </trkpt>
      <trkpt lat="45.98082" lon="5.63503">
        <ele>1083.4</ele>
        <time>2026-05-12T09:43:13Z</time>
      </trkpt>
      <trkpt lat="45.9808" lon="5.63503">
        <ele>1083.8</ele>
        <time>2026-05-12T09:43:14Z</time>
      </trkpt>
      <trkpt lat="45.98078" lon="5.63503">
        <ele>1084</ele>
        <time>2026-05-12T09:43:15Z</time>
      </trkpt>
      <trkpt lat="45.98077" lon="5.63503">
        <ele>1084</ele>
        <time>2026-05-12T09:43:16Z</time>
      </trkpt>
      <trkpt lat="45.98074" lon="5.63504">
        <ele>1084.4</ele>
        <time>2026-05-12T09:43:17Z</time>
      </trkpt>
      <trkpt lat="45.98073" lon="5.63504">
        <ele>1084.4</ele>
        <time>2026-05-12T09:43:18Z</time>
      </trkpt>
      <trkpt lat="45.98071" lon="5.63505">
        <ele>1084.4</ele>
        <time>2026-05-12T09:43:19Z</time>
      </trkpt>
      <trkpt lat="45.98069" lon="5.63506">
        <ele>1084.4</ele>
        <time>2026-05-12T09:43:20Z</time>
      </trkpt>
      <trkpt lat="45.98068" lon="5.63507">
        <ele>1084.8</ele>
        <time>2026-05-12T09:43:21Z</time>
      </trkpt>
      <trkpt lat="45.98067" lon="5.63508">
        <ele>1084.8</ele>
        <time>2026-05-12T09:43:22Z</time>
      </trkpt>
      <trkpt lat="45.98065" lon="5.63509">
        <ele>1085</ele>
        <time>2026-05-12T09:43:23Z</time>
      </trkpt>
      <trkpt lat="45.98064" lon="5.63511">
        <ele>1085</ele>
        <time>2026-05-12T09:43:24Z</time>
      </trkpt>
      <trkpt lat="45.98062" lon="5.63512">
        <ele>1085.2</ele>
        <time>2026-05-12T09:43:25Z</time>
      </trkpt>
      <trkpt lat="45.98061" lon="5.63514">
        <ele>1085.2</ele>
        <time>2026-05-12T09:43:26Z</time>
      </trkpt>
      <trkpt lat="45.98061" lon="5.63516">
        <ele>1085.2</ele>
        <time>2026-05-12T09:43:27Z</time>
      </trkpt>
      <trkpt lat="45.9806" lon="5.63518">
        <ele>1085.6</ele>
        <time>2026-05-12T09:43:28Z</time>
      </trkpt>
      <trkpt lat="45.98059" lon="5.63521">
        <ele>1085.6</ele>
        <time>2026-05-12T09:43:29Z</time>
      </trkpt>
      <trkpt lat="45.98059" lon="5.63524">
        <ele>1085.8</ele>
        <time>2026-05-12T09:43:30Z</time>
      </trkpt>
      <trkpt lat="45.98058" lon="5.63525">
        <ele>1085.8</ele>
        <time>2026-05-12T09:43:31Z</time>
      </trkpt>
      <trkpt lat="45.98058" lon="5.63526">
        <ele>1086</ele>
        <time>2026-05-12T09:43:32Z</time>
      </trkpt>
      <trkpt lat="45.98058" lon="5.63529">
        <ele>1086.2</ele>
        <time>2026-05-12T09:43:33Z</time>
      </trkpt>
      <trkpt lat="45.98057" lon="5.63529">
        <ele>1086.2</ele>
        <time>2026-05-12T09:43:34Z</time>
      </trkpt>
      <trkpt lat="45.98056" lon="5.6353">
        <ele>1086.2</ele>
        <time>2026-05-12T09:43:35Z</time>
      </trkpt>
      <trkpt lat="45.98055" lon="5.6353">
        <ele>1086.6</ele>
        <time>2026-05-12T09:43:36Z</time>
      </trkpt>
      <trkpt lat="45.98055" lon="5.63532">
        <ele>1086.8</ele>
        <time>2026-05-12T09:43:37Z</time>
      </trkpt>
      <trkpt lat="45.98055" lon="5.63534">
        <ele>1087.2</ele>
        <time>2026-05-12T09:43:38Z</time>
      </trkpt>
      <trkpt lat="45.98055" lon="5.63536">
        <ele>1087.6</ele>
        <time>2026-05-12T09:43:39Z</time>
      </trkpt>
      <trkpt lat="45.98055" lon="5.63538">
        <ele>1087.6</ele>
        <time>2026-05-12T09:43:40Z</time>
      </trkpt>
      <trkpt lat="45.98054" lon="5.63541">
        <ele>1088</ele>
        <time>2026-05-12T09:43:41Z</time>
      </trkpt>
      <trkpt lat="45.98053" lon="5.63543">
        <ele>1088</ele>
        <time>2026-05-12T09:43:42Z</time>
      </trkpt>
      <trkpt lat="45.98053" lon="5.63545">
        <ele>1088.4</ele>
        <time>2026-05-12T09:43:43Z</time>
      </trkpt>
      <trkpt lat="45.98052" lon="5.63547">
        <ele>1088.8</ele>
        <time>2026-05-12T09:43:44Z</time>
      </trkpt>
      <trkpt lat="45.98052" lon="5.63549">
        <ele>1089</ele>
        <time>2026-05-12T09:43:45Z</time>
      </trkpt>
      <trkpt lat="45.98051" lon="5.63551">
        <ele>1089.4</ele>
        <time>2026-05-12T09:43:46Z</time>
      </trkpt>
      <trkpt lat="45.98051" lon="5.63552">
        <ele>1089.4</ele>
        <time>2026-05-12T09:43:47Z</time>
      </trkpt>
      <trkpt lat="45.98051" lon="5.63553">
        <ele>1089.8</ele>
        <time>2026-05-12T09:43:48Z</time>
      </trkpt>
      <trkpt lat="45.9805" lon="5.63554">
        <ele>1089.8</ele>
        <time>2026-05-12T09:43:49Z</time>
      </trkpt>
      <trkpt lat="45.98049" lon="5.63556">
        <ele>1090</ele>
        <time>2026-05-12T09:43:50Z</time>
      </trkpt>
      <trkpt lat="45.98049" lon="5.63558">
        <ele>1090.2</ele>
        <time>2026-05-12T09:43:51Z</time>
      </trkpt>
      <trkpt lat="45.98049" lon="5.6356">
        <ele>1090.4</ele>
        <time>2026-05-12T09:43:52Z</time>
      </trkpt>
      <trkpt lat="45.98049" lon="5.63561">
        <ele>1090.4</ele>
        <time>2026-05-12T09:43:53Z</time>
      </trkpt>
      <trkpt lat="45.98049" lon="5.63562">
        <ele>1090.6</ele>
        <time>2026-05-12T09:43:54Z</time>
      </trkpt>
      <trkpt lat="45.98049" lon="5.63562">
        <ele>1090.8</ele>
        <time>2026-05-12T09:43:55Z</time>
      </trkpt>
      <trkpt lat="45.98049" lon="5.63563">
        <ele>1090.8</ele>
        <time>2026-05-12T09:43:56Z</time>
      </trkpt>
      <trkpt lat="45.98047" lon="5.63566">
        <ele>1091.8</ele>
        <time>2026-05-12T09:44:04Z</time>
      </trkpt>
      <trkpt lat="45.98047" lon="5.63568">
        <ele>1092</ele>
        <time>2026-05-12T09:44:05Z</time>
      </trkpt>
      <trkpt lat="45.98046" lon="5.63569">
        <ele>1092</ele>
        <time>2026-05-12T09:44:06Z</time>
      </trkpt>
      <trkpt lat="45.98046" lon="5.6357">
        <ele>1092</ele>
        <time>2026-05-12T09:44:07Z</time>
      </trkpt>
      <trkpt lat="45.98045" lon="5.63571">
        <ele>1092.4</ele>
        <time>2026-05-12T09:44:08Z</time>
      </trkpt>
      <trkpt lat="45.98044" lon="5.63572">
        <ele>1092.4</ele>
        <time>2026-05-12T09:44:09Z</time>
      </trkpt>
      <trkpt lat="45.98043" lon="5.63573">
        <ele>1092.6</ele>
        <time>2026-05-12T09:44:10Z</time>
      </trkpt>
      <trkpt lat="45.98042" lon="5.63574">
        <ele>1092.6</ele>
        <time>2026-05-12T09:44:11Z</time>
      </trkpt>
      <trkpt lat="45.98041" lon="5.63575">
        <ele>1092.6</ele>
        <time>2026-05-12T09:44:12Z</time>
      </trkpt>
      <trkpt lat="45.98041" lon="5.63575">
        <ele>1092.8</ele>
        <time>2026-05-12T09:44:13Z</time>
      </trkpt>
      <trkpt lat="45.9804" lon="5.63576">
        <ele>1092.8</ele>
        <time>2026-05-12T09:44:14Z</time>
      </trkpt>
      <trkpt lat="45.98039" lon="5.63578">
        <ele>1092</ele>
        <time>2026-05-12T09:44:15Z</time>
      </trkpt>
      <trkpt lat="45.98038" lon="5.63579">
        <ele>1092.4</ele>
        <time>2026-05-12T09:44:16Z</time>
      </trkpt>
      <trkpt lat="45.98038" lon="5.63581">
        <ele>1092.8</ele>
        <time>2026-05-12T09:44:17Z</time>
      </trkpt>
      <trkpt lat="45.98037" lon="5.63581">
        <ele>1092.8</ele>
        <time>2026-05-12T09:44:18Z</time>
      </trkpt>
      <trkpt lat="45.98036" lon="5.63582">
        <ele>1093.2</ele>
        <time>2026-05-12T09:44:19Z</time>
      </trkpt>
      <trkpt lat="45.98035" lon="5.63583">
        <ele>1093.6</ele>
        <time>2026-05-12T09:44:20Z</time>
      </trkpt>
      <trkpt lat="45.98034" lon="5.63583">
        <ele>1093.6</ele>
        <time>2026-05-12T09:44:21Z</time>
      </trkpt>
      <trkpt lat="45.98033" lon="5.63583">
        <ele>1093.8</ele>
        <time>2026-05-12T09:44:22Z</time>
      </trkpt>
      <trkpt lat="45.98033" lon="5.63582">
        <ele>1093.8</ele>
        <time>2026-05-12T09:44:23Z</time>
      </trkpt>
      <trkpt lat="45.98032" lon="5.63582">
        <ele>1093.8</ele>
        <time>2026-05-12T09:44:24Z</time>
      </trkpt>
      <trkpt lat="45.98032" lon="5.63581">
        <ele>1094</ele>
        <time>2026-05-12T09:44:25Z</time>
      </trkpt>
      <trkpt lat="45.98031" lon="5.63581">
        <ele>1094</ele>
        <time>2026-05-12T09:44:26Z</time>
      </trkpt>
      <trkpt lat="45.98026" lon="5.63581">
        <ele>1094</ele>
        <time>2026-05-12T09:44:43Z</time>
      </trkpt>
      <trkpt lat="45.98025" lon="5.63582">
        <ele>1094</ele>
        <time>2026-05-12T09:44:44Z</time>
      </trkpt>
      <trkpt lat="45.98023" lon="5.63583">
        <ele>1094</ele>
        <time>2026-05-12T09:44:45Z</time>
      </trkpt>
      <trkpt lat="45.98022" lon="5.63583">
        <ele>1094</ele>
        <time>2026-05-12T09:44:46Z</time>
      </trkpt>
      <trkpt lat="45.98021" lon="5.63584">
        <ele>1094.2</ele>
        <time>2026-05-12T09:44:47Z</time>
      </trkpt>
      <trkpt lat="45.9802" lon="5.63585">
        <ele>1094.2</ele>
        <time>2026-05-12T09:44:48Z</time>
      </trkpt>
      <trkpt lat="45.98019" lon="5.63586">
        <ele>1094.4</ele>
        <time>2026-05-12T09:44:49Z</time>
      </trkpt>
      <trkpt lat="45.98018" lon="5.63586">
        <ele>1094.4</ele>
        <time>2026-05-12T09:44:50Z</time>
      </trkpt>
      <trkpt lat="45.98017" lon="5.63587">
        <ele>1094.8</ele>
        <time>2026-05-12T09:44:51Z</time>
      </trkpt>
      <trkpt lat="45.98017" lon="5.63588">
        <ele>1094.8</ele>
        <time>2026-05-12T09:44:52Z</time>
      </trkpt>
      <trkpt lat="45.98017" lon="5.63589">
        <ele>1095</ele>
        <time>2026-05-12T09:44:53Z</time>
      </trkpt>
      <trkpt lat="45.98016" lon="5.6359">
        <ele>1095.2</ele>
        <time>2026-05-12T09:44:54Z</time>
      </trkpt>
      <trkpt lat="45.98016" lon="5.6359">
        <ele>1095.4</ele>
        <time>2026-05-12T09:44:55Z</time>
      </trkpt>
      <trkpt lat="45.98015" lon="5.6359">
        <ele>1095.4</ele>
        <time>2026-05-12T09:44:56Z</time>
      </trkpt>
      <trkpt lat="45.98013" lon="5.6359">
        <ele>1095.4</ele>
        <time>2026-05-12T09:44:57Z</time>
      </trkpt>
      <trkpt lat="45.98012" lon="5.6359">
        <ele>1095.4</ele>
        <time>2026-05-12T09:44:58Z</time>
      </trkpt>
      <trkpt lat="45.98012" lon="5.6359">
        <ele>1095.8</ele>
        <time>2026-05-12T09:44:59Z</time>
      </trkpt>
      <trkpt lat="45.98011" lon="5.6359">
        <ele>1095.8</ele>
        <time>2026-05-12T09:45:00Z</time>
      </trkpt>
      <trkpt lat="45.98011" lon="5.6359">
        <ele>1096</ele>
        <time>2026-05-12T09:45:01Z</time>
      </trkpt>
      <trkpt lat="45.9801" lon="5.63591">
        <ele>1096</ele>
        <time>2026-05-12T09:45:02Z</time>
      </trkpt>
      <trkpt lat="45.9801" lon="5.63592">
        <ele>1096.4</ele>
        <time>2026-05-12T09:45:03Z</time>
      </trkpt>
      <trkpt lat="45.98009" lon="5.63594">
        <ele>1096.4</ele>
        <time>2026-05-12T09:45:04Z</time>
      </trkpt>
      <trkpt lat="45.98008" lon="5.63595">
        <ele>1096.4</ele>
        <time>2026-05-12T09:45:05Z</time>
      </trkpt>
      <trkpt lat="45.98007" lon="5.63596">
        <ele>1096.8</ele>
        <time>2026-05-12T09:45:06Z</time>
      </trkpt>
      <trkpt lat="45.98007" lon="5.63596">
        <ele>1096.8</ele>
        <time>2026-05-12T09:45:07Z</time>
      </trkpt>
      <trkpt lat="45.98006" lon="5.63596">
        <ele>1096.8</ele>
        <time>2026-05-12T09:45:08Z</time>
      </trkpt>
      <trkpt lat="45.98005" lon="5.63595">
        <ele>1097.2</ele>
        <time>2026-05-12T09:45:09Z</time>
      </trkpt>
      <trkpt lat="45.98004" lon="5.63595">
        <ele>1097.2</ele>
        <time>2026-05-12T09:45:10Z</time>
      </trkpt>
      <trkpt lat="45.98004" lon="5.63594">
        <ele>1097.4</ele>
        <time>2026-05-12T09:45:11Z</time>
      </trkpt>
      <trkpt lat="45.98004" lon="5.63594">
        <ele>1097.4</ele>
        <time>2026-05-12T09:45:12Z</time>
      </trkpt>
      <trkpt lat="45.98004" lon="5.63594">
        <ele>1097.6</ele>
        <time>2026-05-12T09:45:13Z</time>
      </trkpt>
      <trkpt lat="45.98004" lon="5.63593">
        <ele>1097.6</ele>
        <time>2026-05-12T09:45:14Z</time>
      </trkpt>
      <trkpt lat="45.98004" lon="5.63593">
        <ele>1097.8</ele>
        <time>2026-05-12T09:45:15Z</time>
      </trkpt>
      <trkpt lat="45.98004" lon="5.63593">
        <ele>1097.8</ele>
        <time>2026-05-12T09:45:16Z</time>
      </trkpt>
      <trkpt lat="45.98002" lon="5.63594">
        <ele>1097.8</ele>
        <time>2026-05-12T09:45:17Z</time>
      </trkpt>
      <trkpt lat="45.98001" lon="5.63594">
        <ele>1098.4</ele>
        <time>2026-05-12T09:45:18Z</time>
      </trkpt>
      <trkpt lat="45.97999" lon="5.63594">
        <ele>1098.4</ele>
        <time>2026-05-12T09:45:19Z</time>
      </trkpt>
      <trkpt lat="45.97998" lon="5.63594">
        <ele>1098.8</ele>
        <time>2026-05-12T09:45:20Z</time>
      </trkpt>
      <trkpt lat="45.97997" lon="5.63594">
        <ele>1099</ele>
        <time>2026-05-12T09:45:21Z</time>
      </trkpt>
      <trkpt lat="45.97996" lon="5.63594">
        <ele>1099</ele>
        <time>2026-05-12T09:45:22Z</time>
      </trkpt>
      <trkpt lat="45.97996" lon="5.63595">
        <ele>1099.2</ele>
        <time>2026-05-12T09:45:23Z</time>
      </trkpt>
      <trkpt lat="45.97992" lon="5.63594">
        <ele>1099.8</ele>
        <time>2026-05-12T09:45:29Z</time>
      </trkpt>
      <trkpt lat="45.9799" lon="5.63594">
        <ele>1099.8</ele>
        <time>2026-05-12T09:45:30Z</time>
      </trkpt>
      <trkpt lat="45.97988" lon="5.63594">
        <ele>1100</ele>
        <time>2026-05-12T09:45:31Z</time>
      </trkpt>
      <trkpt lat="45.97986" lon="5.63594">
        <ele>1100</ele>
        <time>2026-05-12T09:45:32Z</time>
      </trkpt>
      <trkpt lat="45.97985" lon="5.63595">
        <ele>1100.4</ele>
        <time>2026-05-12T09:45:33Z</time>
      </trkpt>
      <trkpt lat="45.97984" lon="5.63595">
        <ele>1100.4</ele>
        <time>2026-05-12T09:45:34Z</time>
      </trkpt>
      <trkpt lat="45.97983" lon="5.63596">
        <ele>1100.8</ele>
        <time>2026-05-12T09:45:35Z</time>
      </trkpt>
      <trkpt lat="45.97982" lon="5.63597">
        <ele>1100.8</ele>
        <time>2026-05-12T09:45:36Z</time>
      </trkpt>
      <trkpt lat="45.97981" lon="5.63598">
        <ele>1101</ele>
        <time>2026-05-12T09:45:37Z</time>
      </trkpt>
      <trkpt lat="45.97979" lon="5.63598">
        <ele>1101</ele>
        <time>2026-05-12T09:45:38Z</time>
      </trkpt>
      <trkpt lat="45.97978" lon="5.63598">
        <ele>1101.4</ele>
        <time>2026-05-12T09:45:39Z</time>
      </trkpt>
      <trkpt lat="45.97977" lon="5.63598">
        <ele>1101.4</ele>
        <time>2026-05-12T09:45:40Z</time>
      </trkpt>
      <trkpt lat="45.97975" lon="5.63598">
        <ele>1101.8</ele>
        <time>2026-05-12T09:45:41Z</time>
      </trkpt>
      <trkpt lat="45.97974" lon="5.63598">
        <ele>1101.8</ele>
        <time>2026-05-12T09:45:42Z</time>
      </trkpt>
      <trkpt lat="45.97972" lon="5.63599">
        <ele>1102</ele>
        <time>2026-05-12T09:45:43Z</time>
      </trkpt>
      <trkpt lat="45.97971" lon="5.636">
        <ele>1102</ele>
        <time>2026-05-12T09:45:44Z</time>
      </trkpt>
      <trkpt lat="45.9797" lon="5.636">
        <ele>1102</ele>
        <time>2026-05-12T09:45:45Z</time>
      </trkpt>
      <trkpt lat="45.97968" lon="5.636">
        <ele>1102</ele>
        <time>2026-05-12T09:45:46Z</time>
      </trkpt>
      <trkpt lat="45.97967" lon="5.636">
        <ele>1102.4</ele>
        <time>2026-05-12T09:45:47Z</time>
      </trkpt>
      <trkpt lat="45.97966" lon="5.636">
        <ele>1102.4</ele>
        <time>2026-05-12T09:45:48Z</time>
      </trkpt>
      <trkpt lat="45.97966" lon="5.63601">
        <ele>1102.4</ele>
        <time>2026-05-12T09:45:49Z</time>
      </trkpt>
      <trkpt lat="45.97965" lon="5.63603">
        <ele>1102.6</ele>
        <time>2026-05-12T09:45:50Z</time>
      </trkpt>
      <trkpt lat="45.97964" lon="5.63605">
        <ele>1102.6</ele>
        <time>2026-05-12T09:45:51Z</time>
      </trkpt>
      <trkpt lat="45.97963" lon="5.63606">
        <ele>1102.6</ele>
        <time>2026-05-12T09:45:52Z</time>
      </trkpt>
      <trkpt lat="45.97962" lon="5.63606">
        <ele>1103</ele>
        <time>2026-05-12T09:45:53Z</time>
      </trkpt>
      <trkpt lat="45.97961" lon="5.63607">
        <ele>1103.2</ele>
        <time>2026-05-12T09:45:54Z</time>
      </trkpt>
      <trkpt lat="45.97961" lon="5.63607">
        <ele>1103.2</ele>
        <time>2026-05-12T09:45:55Z</time>
      </trkpt>
      <trkpt lat="45.9796" lon="5.63606">
        <ele>1103.2</ele>
        <time>2026-05-12T09:45:59Z</time>
      </trkpt>
      <trkpt lat="45.97958" lon="5.63607">
        <ele>1103.4</ele>
        <time>2026-05-12T09:46:00Z</time>
      </trkpt>
      <trkpt lat="45.97957" lon="5.63607">
        <ele>1103.6</ele>
        <time>2026-05-12T09:46:01Z</time>
      </trkpt>
      <trkpt lat="45.97955" lon="5.63607">
        <ele>1103.6</ele>
        <time>2026-05-12T09:46:02Z</time>
      </trkpt>
      <trkpt lat="45.97953" lon="5.63607">
        <ele>1103.6</ele>
        <time>2026-05-12T09:46:03Z</time>
      </trkpt>
      <trkpt lat="45.97952" lon="5.63607">
        <ele>1103.6</ele>
        <time>2026-05-12T09:46:04Z</time>
      </trkpt>
      <trkpt lat="45.9795" lon="5.63607">
        <ele>1104</ele>
        <time>2026-05-12T09:46:05Z</time>
      </trkpt>
      <trkpt lat="45.97948" lon="5.63607">
        <ele>1104</ele>
        <time>2026-05-12T09:46:06Z</time>
      </trkpt>
      <trkpt lat="45.97947" lon="5.63607">
        <ele>1104.4</ele>
        <time>2026-05-12T09:46:07Z</time>
      </trkpt>
      <trkpt lat="45.97946" lon="5.63606">
        <ele>1104.6</ele>
        <time>2026-05-12T09:46:08Z</time>
      </trkpt>
      <trkpt lat="45.97944" lon="5.63606">
        <ele>1104.6</ele>
        <time>2026-05-12T09:46:09Z</time>
      </trkpt>
      <trkpt lat="45.97942" lon="5.63606">
        <ele>1104.6</ele>
        <time>2026-05-12T09:46:10Z</time>
      </trkpt>
      <trkpt lat="45.97941" lon="5.63607">
        <ele>1105</ele>
        <time>2026-05-12T09:46:11Z</time>
      </trkpt>
      <trkpt lat="45.9794" lon="5.63607">
        <ele>1105</ele>
        <time>2026-05-12T09:46:12Z</time>
      </trkpt>
      <trkpt lat="45.9794" lon="5.63608">
        <ele>1105</ele>
        <time>2026-05-12T09:46:13Z</time>
      </trkpt>
      <trkpt lat="45.97938" lon="5.63608">
        <ele>1105.2</ele>
        <time>2026-05-12T09:46:14Z</time>
      </trkpt>
      <trkpt lat="45.97937" lon="5.63609">
        <ele>1105.2</ele>
        <time>2026-05-12T09:46:15Z</time>
      </trkpt>
      <trkpt lat="45.97936" lon="5.63609">
        <ele>1105.4</ele>
        <time>2026-05-12T09:46:16Z</time>
      </trkpt>
      <trkpt lat="45.97936" lon="5.6361">
        <ele>1105.6</ele>
        <time>2026-05-12T09:46:17Z</time>
      </trkpt>
      <trkpt lat="45.97935" lon="5.63611">
        <ele>1105.6</ele>
        <time>2026-05-12T09:46:18Z</time>
      </trkpt>
      <trkpt lat="45.97934" lon="5.63612">
        <ele>1105.8</ele>
        <time>2026-05-12T09:46:19Z</time>
      </trkpt>
      <trkpt lat="45.97932" lon="5.63612">
        <ele>1105.8</ele>
        <time>2026-05-12T09:46:20Z</time>
      </trkpt>
      <trkpt lat="45.97931" lon="5.63612">
        <ele>1106</ele>
        <time>2026-05-12T09:46:21Z</time>
      </trkpt>
      <trkpt lat="45.97929" lon="5.63612">
        <ele>1106</ele>
        <time>2026-05-12T09:46:22Z</time>
      </trkpt>
      <trkpt lat="45.97928" lon="5.63613">
        <ele>1106.4</ele>
        <time>2026-05-12T09:46:23Z</time>
      </trkpt>
      <trkpt lat="45.97926" lon="5.63613">
        <ele>1106.4</ele>
        <time>2026-05-12T09:46:24Z</time>
      </trkpt>
      <trkpt lat="45.97925" lon="5.63614">
        <ele>1106.4</ele>
        <time>2026-05-12T09:46:25Z</time>
      </trkpt>
      <trkpt lat="45.97924" lon="5.63614">
        <ele>1106.4</ele>
        <time>2026-05-12T09:46:26Z</time>
      </trkpt>
      <trkpt lat="45.97923" lon="5.63614">
        <ele>1106.8</ele>
        <time>2026-05-12T09:46:27Z</time>
      </trkpt>
      <trkpt lat="45.97921" lon="5.63615">
        <ele>1106.8</ele>
        <time>2026-05-12T09:46:28Z</time>
      </trkpt>
      <trkpt lat="45.97919" lon="5.63614">
        <ele>1106.8</ele>
        <time>2026-05-12T09:46:29Z</time>
      </trkpt>
      <trkpt lat="45.97917" lon="5.63614">
        <ele>1107</ele>
        <time>2026-05-12T09:46:30Z</time>
      </trkpt>
      <trkpt lat="45.97916" lon="5.63614">
        <ele>1107.4</ele>
        <time>2026-05-12T09:46:31Z</time>
      </trkpt>
      <trkpt lat="45.97916" lon="5.63613">
        <ele>1107.6</ele>
        <time>2026-05-12T09:46:32Z</time>
      </trkpt>
      <trkpt lat="45.97915" lon="5.63613">
        <ele>1107.6</ele>
        <time>2026-05-12T09:46:33Z</time>
      </trkpt>
      <trkpt lat="45.97913" lon="5.63614">
        <ele>1107.8</ele>
        <time>2026-05-12T09:46:34Z</time>
      </trkpt>
      <trkpt lat="45.97912" lon="5.63615">
        <ele>1107.8</ele>
        <time>2026-05-12T09:46:35Z</time>
      </trkpt>
      <trkpt lat="45.97911" lon="5.63615">
        <ele>1108.2</ele>
        <time>2026-05-12T09:46:36Z</time>
      </trkpt>
      <trkpt lat="45.9791" lon="5.63615">
        <ele>1108.2</ele>
        <time>2026-05-12T09:46:37Z</time>
      </trkpt>
      <trkpt lat="45.97909" lon="5.63615">
        <ele>1108.4</ele>
        <time>2026-05-12T09:46:38Z</time>
      </trkpt>
      <trkpt lat="45.97908" lon="5.63614">
        <ele>1108.6</ele>
        <time>2026-05-12T09:46:39Z</time>
      </trkpt>
      <trkpt lat="45.97907" lon="5.63613">
        <ele>1108.6</ele>
        <time>2026-05-12T09:46:40Z</time>
      </trkpt>
      <trkpt lat="45.97905" lon="5.63613">
        <ele>1109</ele>
        <time>2026-05-12T09:46:41Z</time>
      </trkpt>
      <trkpt lat="45.97903" lon="5.63612">
        <ele>1109.2</ele>
        <time>2026-05-12T09:46:42Z</time>
      </trkpt>
      <trkpt lat="45.97902" lon="5.63612">
        <ele>1109.2</ele>
        <time>2026-05-12T09:46:43Z</time>
      </trkpt>
      <trkpt lat="45.979" lon="5.63612">
        <ele>1109.2</ele>
        <time>2026-05-12T09:46:44Z</time>
      </trkpt>
      <trkpt lat="45.97899" lon="5.63612">
        <ele>1109.8</ele>
        <time>2026-05-12T09:46:45Z</time>
      </trkpt>
      <trkpt lat="45.97897" lon="5.63612">
        <ele>1109.8</ele>
        <time>2026-05-12T09:46:46Z</time>
      </trkpt>
      <trkpt lat="45.97895" lon="5.63613">
        <ele>1109.8</ele>
        <time>2026-05-12T09:46:47Z</time>
      </trkpt>
      <trkpt lat="45.97893" lon="5.63612">
        <ele>1109.8</ele>
        <time>2026-05-12T09:46:48Z</time>
      </trkpt>
      <trkpt lat="45.97892" lon="5.63613">
        <ele>1110</ele>
        <time>2026-05-12T09:46:49Z</time>
      </trkpt>
      <trkpt lat="45.9789" lon="5.63613">
        <ele>1110</ele>
        <time>2026-05-12T09:46:50Z</time>
      </trkpt>
      <trkpt lat="45.97888" lon="5.63612">
        <ele>1110.2</ele>
        <time>2026-05-12T09:46:51Z</time>
      </trkpt>
      <trkpt lat="45.97887" lon="5.63613">
        <ele>1110.2</ele>
        <time>2026-05-12T09:46:52Z</time>
      </trkpt>
      <trkpt lat="45.97885" lon="5.63612">
        <ele>1110.6</ele>
        <time>2026-05-12T09:46:53Z</time>
      </trkpt>
      <trkpt lat="45.97884" lon="5.63613">
        <ele>1110.6</ele>
        <time>2026-05-12T09:46:54Z</time>
      </trkpt>
      <trkpt lat="45.97882" lon="5.63613">
        <ele>1110.8</ele>
        <time>2026-05-12T09:46:55Z</time>
      </trkpt>
      <trkpt lat="45.97881" lon="5.63614">
        <ele>1111.2</ele>
        <time>2026-05-12T09:46:56Z</time>
      </trkpt>
      <trkpt lat="45.9788" lon="5.63614">
        <ele>1111.4</ele>
        <time>2026-05-12T09:46:57Z</time>
      </trkpt>
      <trkpt lat="45.97879" lon="5.63614">
        <ele>1111.8</ele>
        <time>2026-05-12T09:46:58Z</time>
      </trkpt>
      <trkpt lat="45.97877" lon="5.63614">
        <ele>1112</ele>
        <time>2026-05-12T09:46:59Z</time>
      </trkpt>
      <trkpt lat="45.97875" lon="5.63614">
        <ele>1112</ele>
        <time>2026-05-12T09:47:00Z</time>
      </trkpt>
      <trkpt lat="45.97874" lon="5.63614">
        <ele>1112</ele>
        <time>2026-05-12T09:47:01Z</time>
      </trkpt>
      <trkpt lat="45.97872" lon="5.63614">
        <ele>1112</ele>
        <time>2026-05-12T09:47:02Z</time>
      </trkpt>
      <trkpt lat="45.97871" lon="5.63614">
        <ele>1112.8</ele>
        <time>2026-05-12T09:47:03Z</time>
      </trkpt>
      <trkpt lat="45.9787" lon="5.63615">
        <ele>1112.8</ele>
        <time>2026-05-12T09:47:04Z</time>
      </trkpt>
      <trkpt lat="45.97869" lon="5.63615">
        <ele>1113</ele>
        <time>2026-05-12T09:47:05Z</time>
      </trkpt>
      <trkpt lat="45.97868" lon="5.63615">
        <ele>1113.2</ele>
        <time>2026-05-12T09:47:06Z</time>
      </trkpt>
      <trkpt lat="45.97867" lon="5.63615">
        <ele>1113.2</ele>
        <time>2026-05-12T09:47:07Z</time>
      </trkpt>
      <trkpt lat="45.97865" lon="5.63615">
        <ele>1113.2</ele>
        <time>2026-05-12T09:47:08Z</time>
      </trkpt>
      <trkpt lat="45.97864" lon="5.63615">
        <ele>1113.2</ele>
        <time>2026-05-12T09:47:09Z</time>
      </trkpt>
      <trkpt lat="45.97862" lon="5.63616">
        <ele>1113.2</ele>
        <time>2026-05-12T09:47:10Z</time>
      </trkpt>
      <trkpt lat="45.9786" lon="5.63616">
        <ele>1113.2</ele>
        <time>2026-05-12T09:47:11Z</time>
      </trkpt>
      <trkpt lat="45.97859" lon="5.63616">
        <ele>1113.6</ele>
        <time>2026-05-12T09:47:12Z</time>
      </trkpt>
      <trkpt lat="45.97857" lon="5.63616">
        <ele>1113.6</ele>
        <time>2026-05-12T09:47:13Z</time>
      </trkpt>
      <trkpt lat="45.97856" lon="5.63616">
        <ele>1113.8</ele>
        <time>2026-05-12T09:47:14Z</time>
      </trkpt>
      <trkpt lat="45.97854" lon="5.63616">
        <ele>1113.8</ele>
        <time>2026-05-12T09:47:15Z</time>
      </trkpt>
      <trkpt lat="45.97853" lon="5.63617">
        <ele>1114</ele>
        <time>2026-05-12T09:47:16Z</time>
      </trkpt>
      <trkpt lat="45.97852" lon="5.63617">
        <ele>1114</ele>
        <time>2026-05-12T09:47:17Z</time>
      </trkpt>
      <trkpt lat="45.9785" lon="5.63617">
        <ele>1114</ele>
        <time>2026-05-12T09:47:18Z</time>
      </trkpt>
      <trkpt lat="45.97849" lon="5.63616">
        <ele>1114.6</ele>
        <time>2026-05-12T09:47:19Z</time>
      </trkpt>
      <trkpt lat="45.97848" lon="5.63616">
        <ele>1114.6</ele>
        <time>2026-05-12T09:47:20Z</time>
      </trkpt>
      <trkpt lat="45.97847" lon="5.63615">
        <ele>1114.6</ele>
        <time>2026-05-12T09:47:21Z</time>
      </trkpt>
      <trkpt lat="45.97845" lon="5.63614">
        <ele>1114.8</ele>
        <time>2026-05-12T09:47:22Z</time>
      </trkpt>
      <trkpt lat="45.97844" lon="5.63613">
        <ele>1114.8</ele>
        <time>2026-05-12T09:47:23Z</time>
      </trkpt>
      <trkpt lat="45.97842" lon="5.63613">
        <ele>1115.2</ele>
        <time>2026-05-12T09:47:24Z</time>
      </trkpt>
      <trkpt lat="45.97841" lon="5.63613">
        <ele>1115.2</ele>
        <time>2026-05-12T09:47:25Z</time>
      </trkpt>
      <trkpt lat="45.97839" lon="5.63612">
        <ele>1115.4</ele>
        <time>2026-05-12T09:47:26Z</time>
      </trkpt>
      <trkpt lat="45.97838" lon="5.63613">
        <ele>1115.4</ele>
        <time>2026-05-12T09:47:27Z</time>
      </trkpt>
      <trkpt lat="45.97837" lon="5.63613">
        <ele>1115.6</ele>
        <time>2026-05-12T09:47:28Z</time>
      </trkpt>
      <trkpt lat="45.97835" lon="5.63612">
        <ele>1116</ele>
        <time>2026-05-12T09:47:29Z</time>
      </trkpt>
      <trkpt lat="45.97833" lon="5.63612">
        <ele>1116.2</ele>
        <time>2026-05-12T09:47:30Z</time>
      </trkpt>
      <trkpt lat="45.97831" lon="5.63612">
        <ele>1116.2</ele>
        <time>2026-05-12T09:47:31Z</time>
      </trkpt>
      <trkpt lat="45.9783" lon="5.63611">
        <ele>1116.2</ele>
        <time>2026-05-12T09:47:32Z</time>
      </trkpt>
      <trkpt lat="45.97828" lon="5.63611">
        <ele>1116.4</ele>
        <time>2026-05-12T09:47:33Z</time>
      </trkpt>
      <trkpt lat="45.97827" lon="5.63611">
        <ele>1116.4</ele>
        <time>2026-05-12T09:47:34Z</time>
      </trkpt>
      <trkpt lat="45.97826" lon="5.63611">
        <ele>1116.8</ele>
        <time>2026-05-12T09:47:35Z</time>
      </trkpt>
      <trkpt lat="45.97825" lon="5.6361">
        <ele>1116.8</ele>
        <time>2026-05-12T09:47:36Z</time>
      </trkpt>
      <trkpt lat="45.97823" lon="5.6361">
        <ele>1116.8</ele>
        <time>2026-05-12T09:47:37Z</time>
      </trkpt>
      <trkpt lat="45.97822" lon="5.6361">
        <ele>1117</ele>
        <time>2026-05-12T09:47:38Z</time>
      </trkpt>
      <trkpt lat="45.9782" lon="5.63609">
        <ele>1117</ele>
        <time>2026-05-12T09:47:39Z</time>
      </trkpt>
      <trkpt lat="45.97819" lon="5.63609">
        <ele>1117.2</ele>
        <time>2026-05-12T09:47:40Z</time>
      </trkpt>
      <trkpt lat="45.97817" lon="5.63608">
        <ele>1117.2</ele>
        <time>2026-05-12T09:47:41Z</time>
      </trkpt>
      <trkpt lat="45.97815" lon="5.63608">
        <ele>1117.4</ele>
        <time>2026-05-12T09:47:42Z</time>
      </trkpt>
      <trkpt lat="45.97813" lon="5.63608">
        <ele>1117.8</ele>
        <time>2026-05-12T09:47:43Z</time>
      </trkpt>
      <trkpt lat="45.97812" lon="5.63608">
        <ele>1117.8</ele>
        <time>2026-05-12T09:47:44Z</time>
      </trkpt>
      <trkpt lat="45.97811" lon="5.63609">
        <ele>1118</ele>
        <time>2026-05-12T09:47:45Z</time>
      </trkpt>
      <trkpt lat="45.97809" lon="5.63608">
        <ele>1118</ele>
        <time>2026-05-12T09:47:46Z</time>
      </trkpt>
      <trkpt lat="45.97808" lon="5.63608">
        <ele>1118.4</ele>
        <time>2026-05-12T09:47:47Z</time>
      </trkpt>
      <trkpt lat="45.97806" lon="5.63608">
        <ele>1118.4</ele>
        <time>2026-05-12T09:47:48Z</time>
      </trkpt>
      <trkpt lat="45.97805" lon="5.63608">
        <ele>1118.8</ele>
        <time>2026-05-12T09:47:49Z</time>
      </trkpt>
      <trkpt lat="45.97803" lon="5.63609">
        <ele>1118.8</ele>
        <time>2026-05-12T09:47:50Z</time>
      </trkpt>
      <trkpt lat="45.97802" lon="5.6361">
        <ele>1118.8</ele>
        <time>2026-05-12T09:47:51Z</time>
      </trkpt>
      <trkpt lat="45.97801" lon="5.6361">
        <ele>1118.8</ele>
        <time>2026-05-12T09:47:52Z</time>
      </trkpt>
      <trkpt lat="45.97799" lon="5.6361">
        <ele>1118.8</ele>
        <time>2026-05-12T09:47:53Z</time>
      </trkpt>
      <trkpt lat="45.97798" lon="5.6361">
        <ele>1119</ele>
        <time>2026-05-12T09:47:54Z</time>
      </trkpt>
      <trkpt lat="45.97797" lon="5.63609">
        <ele>1119.2</ele>
        <time>2026-05-12T09:47:55Z</time>
      </trkpt>
      <trkpt lat="45.97796" lon="5.63608">
        <ele>1119.2</ele>
        <time>2026-05-12T09:47:56Z</time>
      </trkpt>
      <trkpt lat="45.97795" lon="5.63607">
        <ele>1119.2</ele>
        <time>2026-05-12T09:47:57Z</time>
      </trkpt>
      <trkpt lat="45.97795" lon="5.63606">
        <ele>1119.2</ele>
        <time>2026-05-12T09:47:58Z</time>
      </trkpt>
      <trkpt lat="45.97793" lon="5.63604">
        <ele>1119.2</ele>
        <time>2026-05-12T09:48:16Z</time>
      </trkpt>
      <trkpt lat="45.97792" lon="5.63604">
        <ele>1119.2</ele>
        <time>2026-05-12T09:48:17Z</time>
      </trkpt>
      <trkpt lat="45.97791" lon="5.63604">
        <ele>1119.2</ele>
        <time>2026-05-12T09:48:18Z</time>
      </trkpt>
      <trkpt lat="45.9779" lon="5.63603">
        <ele>1119.2</ele>
        <time>2026-05-12T09:48:19Z</time>
      </trkpt>
      <trkpt lat="45.97788" lon="5.63604">
        <ele>1119.2</ele>
        <time>2026-05-12T09:48:20Z</time>
      </trkpt>
      <trkpt lat="45.97786" lon="5.63604">
        <ele>1119.2</ele>
        <time>2026-05-12T09:48:21Z</time>
      </trkpt>
      <trkpt lat="45.97785" lon="5.63604">
        <ele>1119.2</ele>
        <time>2026-05-12T09:48:22Z</time>
      </trkpt>
      <trkpt lat="45.97783" lon="5.63604">
        <ele>1119.2</ele>
        <time>2026-05-12T09:48:23Z</time>
      </trkpt>
      <trkpt lat="45.97782" lon="5.63603">
        <ele>1119.2</ele>
        <time>2026-05-12T09:48:24Z</time>
      </trkpt>
      <trkpt lat="45.9778" lon="5.63601">
        <ele>1119.2</ele>
        <time>2026-05-12T09:48:25Z</time>
      </trkpt>
      <trkpt lat="45.97778" lon="5.636">
        <ele>1119.2</ele>
        <time>2026-05-12T09:48:26Z</time>
      </trkpt>
      <trkpt lat="45.97777" lon="5.63599">
        <ele>1119</ele>
        <time>2026-05-12T09:48:27Z</time>
      </trkpt>
      <trkpt lat="45.97775" lon="5.63598">
        <ele>1119</ele>
        <time>2026-05-12T09:48:28Z</time>
      </trkpt>
      <trkpt lat="45.97774" lon="5.63597">
        <ele>1119</ele>
        <time>2026-05-12T09:48:29Z</time>
      </trkpt>
      <trkpt lat="45.97773" lon="5.63595">
        <ele>1119</ele>
        <time>2026-05-12T09:48:30Z</time>
      </trkpt>
      <trkpt lat="45.97772" lon="5.63593">
        <ele>1118.6</ele>
        <time>2026-05-12T09:48:31Z</time>
      </trkpt>
      <trkpt lat="45.9777" lon="5.63591">
        <ele>1118.6</ele>
        <time>2026-05-12T09:48:32Z</time>
      </trkpt>
      <trkpt lat="45.97769" lon="5.6359">
        <ele>1118.6</ele>
        <time>2026-05-12T09:48:33Z</time>
      </trkpt>
      <trkpt lat="45.97767" lon="5.63589">
        <ele>1118.6</ele>
        <time>2026-05-12T09:48:34Z</time>
      </trkpt>
      <trkpt lat="45.97765" lon="5.63589">
        <ele>1118.2</ele>
        <time>2026-05-12T09:48:35Z</time>
      </trkpt>
      <trkpt lat="45.97764" lon="5.63589">
        <ele>1118.2</ele>
        <time>2026-05-12T09:48:36Z</time>
      </trkpt>
      <trkpt lat="45.97762" lon="5.6359">
        <ele>1118.2</ele>
        <time>2026-05-12T09:48:37Z</time>
      </trkpt>
      <trkpt lat="45.9776" lon="5.63589">
        <ele>1118.2</ele>
        <time>2026-05-12T09:48:38Z</time>
      </trkpt>
      <trkpt lat="45.97758" lon="5.63587">
        <ele>1118</ele>
        <time>2026-05-12T09:48:39Z</time>
      </trkpt>
      <trkpt lat="45.97757" lon="5.63585">
        <ele>1118</ele>
        <time>2026-05-12T09:48:40Z</time>
      </trkpt>
      <trkpt lat="45.97755" lon="5.63584">
        <ele>1117.8</ele>
        <time>2026-05-12T09:48:41Z</time>
      </trkpt>
      <trkpt lat="45.97752" lon="5.63582">
        <ele>1117.8</ele>
        <time>2026-05-12T09:48:42Z</time>
      </trkpt>
      <trkpt lat="45.9775" lon="5.63581">
        <ele>1117.8</ele>
        <time>2026-05-12T09:48:43Z</time>
      </trkpt>
      <trkpt lat="45.97748" lon="5.6358">
        <ele>1117.4</ele>
        <time>2026-05-12T09:48:44Z</time>
      </trkpt>
      <trkpt lat="45.97747" lon="5.63579">
        <ele>1117.4</ele>
        <time>2026-05-12T09:48:45Z</time>
      </trkpt>
      <trkpt lat="45.97745" lon="5.63577">
        <ele>1117.2</ele>
        <time>2026-05-12T09:48:46Z</time>
      </trkpt>
      <trkpt lat="45.97743" lon="5.63575">
        <ele>1117.2</ele>
        <time>2026-05-12T09:48:47Z</time>
      </trkpt>
      <trkpt lat="45.97741" lon="5.63574">
        <ele>1117.2</ele>
        <time>2026-05-12T09:48:48Z</time>
      </trkpt>
      <trkpt lat="45.9774" lon="5.63573">
        <ele>1117.2</ele>
        <time>2026-05-12T09:48:49Z</time>
      </trkpt>
      <trkpt lat="45.97738" lon="5.63572">
        <ele>1117.2</ele>
        <time>2026-05-12T09:48:50Z</time>
      </trkpt>
      <trkpt lat="45.97736" lon="5.63571">
        <ele>1117.2</ele>
        <time>2026-05-12T09:48:51Z</time>
      </trkpt>
      <trkpt lat="45.97735" lon="5.6357">
        <ele>1117.2</ele>
        <time>2026-05-12T09:48:52Z</time>
      </trkpt>
      <trkpt lat="45.97733" lon="5.63568">
        <ele>1117.2</ele>
        <time>2026-05-12T09:48:53Z</time>
      </trkpt>
      <trkpt lat="45.97732" lon="5.63567">
        <ele>1117</ele>
        <time>2026-05-12T09:48:54Z</time>
      </trkpt>
      <trkpt lat="45.9773" lon="5.63565">
        <ele>1117</ele>
        <time>2026-05-12T09:48:55Z</time>
      </trkpt>
      <trkpt lat="45.97729" lon="5.63564">
        <ele>1116.8</ele>
        <time>2026-05-12T09:48:56Z</time>
      </trkpt>
      <trkpt lat="45.97727" lon="5.63564">
        <ele>1116.8</ele>
        <time>2026-05-12T09:48:57Z</time>
      </trkpt>
      <trkpt lat="45.97726" lon="5.63563">
        <ele>1116.8</ele>
        <time>2026-05-12T09:48:58Z</time>
      </trkpt>
      <trkpt lat="45.97725" lon="5.63563">
        <ele>1116.8</ele>
        <time>2026-05-12T09:48:59Z</time>
      </trkpt>
      <trkpt lat="45.97724" lon="5.63563">
        <ele>1116.8</ele>
        <time>2026-05-12T09:49:00Z</time>
      </trkpt>
      <trkpt lat="45.97724" lon="5.63562">
        <ele>1116.8</ele>
        <time>2026-05-12T09:49:01Z</time>
      </trkpt>
      <trkpt lat="45.97723" lon="5.6356">
        <ele>1117</ele>
        <time>2026-05-12T09:49:02Z</time>
      </trkpt>
      <trkpt lat="45.97723" lon="5.63558">
        <ele>1116.8</ele>
        <time>2026-05-12T09:49:03Z</time>
      </trkpt>
      <trkpt lat="45.97721" lon="5.63555">
        <ele>1116.8</ele>
        <time>2026-05-12T09:49:04Z</time>
      </trkpt>
      <trkpt lat="45.97719" lon="5.63552">
        <ele>1116.6</ele>
        <time>2026-05-12T09:49:05Z</time>
      </trkpt>
      <trkpt lat="45.97717" lon="5.6355">
        <ele>1116.6</ele>
        <time>2026-05-12T09:49:06Z</time>
      </trkpt>
      <trkpt lat="45.97716" lon="5.63549">
        <ele>1116.6</ele>
        <time>2026-05-12T09:49:07Z</time>
      </trkpt>
      <trkpt lat="45.97713" lon="5.63549">
        <ele>1116.4</ele>
        <time>2026-05-12T09:49:08Z</time>
      </trkpt>
      <trkpt lat="45.97711" lon="5.63548">
        <ele>1116.4</ele>
        <time>2026-05-12T09:49:09Z</time>
      </trkpt>
      <trkpt lat="45.97709" lon="5.63548">
        <ele>1116</ele>
        <time>2026-05-12T09:49:10Z</time>
      </trkpt>
      <trkpt lat="45.97707" lon="5.63547">
        <ele>1116</ele>
        <time>2026-05-12T09:49:11Z</time>
      </trkpt>
      <trkpt lat="45.97705" lon="5.63546">
        <ele>1116</ele>
        <time>2026-05-12T09:49:12Z</time>
      </trkpt>
      <trkpt lat="45.97703" lon="5.63545">
        <ele>1115.8</ele>
        <time>2026-05-12T09:49:13Z</time>
      </trkpt>
      <trkpt lat="45.977" lon="5.63544">
        <ele>1115.8</ele>
        <time>2026-05-12T09:49:14Z</time>
      </trkpt>
      <trkpt lat="45.97699" lon="5.63543">
        <ele>1115.8</ele>
        <time>2026-05-12T09:49:15Z</time>
      </trkpt>
      <trkpt lat="45.97698" lon="5.63542">
        <ele>1115.8</ele>
        <time>2026-05-12T09:49:16Z</time>
      </trkpt>
      <trkpt lat="45.97695" lon="5.63542">
        <ele>1115.8</ele>
        <time>2026-05-12T09:49:17Z</time>
      </trkpt>
      <trkpt lat="45.97693" lon="5.63541">
        <ele>1115.8</ele>
        <time>2026-05-12T09:49:18Z</time>
      </trkpt>
      <trkpt lat="45.9769" lon="5.63541">
        <ele>1115.4</ele>
        <time>2026-05-12T09:49:19Z</time>
      </trkpt>
      <trkpt lat="45.97688" lon="5.6354">
        <ele>1115.4</ele>
        <time>2026-05-12T09:49:20Z</time>
      </trkpt>
      <trkpt lat="45.97685" lon="5.63539">
        <ele>1115</ele>
        <time>2026-05-12T09:49:21Z</time>
      </trkpt>
      <trkpt lat="45.97682" lon="5.63538">
        <ele>1115.4</ele>
        <time>2026-05-12T09:49:22Z</time>
      </trkpt>
      <trkpt lat="45.9768" lon="5.63537">
        <ele>1115</ele>
        <time>2026-05-12T09:49:23Z</time>
      </trkpt>
      <trkpt lat="45.97677" lon="5.63536">
        <ele>1114.8</ele>
        <time>2026-05-12T09:49:24Z</time>
      </trkpt>
      <trkpt lat="45.97674" lon="5.63535">
        <ele>1114.8</ele>
        <time>2026-05-12T09:49:25Z</time>
      </trkpt>
      <trkpt lat="45.97667" lon="5.63531">
        <ele>1114.2</ele>
        <time>2026-05-12T09:49:26Z</time>
      </trkpt>
      <trkpt lat="45.97664" lon="5.63529">
        <ele>1114.2</ele>
        <time>2026-05-12T09:49:27Z</time>
      </trkpt>
      <trkpt lat="45.97661" lon="5.63527">
        <ele>1114.2</ele>
        <time>2026-05-12T09:49:28Z</time>
      </trkpt>
      <trkpt lat="45.97658" lon="5.63525">
        <ele>1114</ele>
        <time>2026-05-12T09:49:29Z</time>
      </trkpt>
      <trkpt lat="45.97655" lon="5.63523">
        <ele>1114</ele>
        <time>2026-05-12T09:49:30Z</time>
      </trkpt>
      <trkpt lat="45.97652" lon="5.63521">
        <ele>1113.8</ele>
        <time>2026-05-12T09:49:31Z</time>
      </trkpt>
      <trkpt lat="45.97649" lon="5.6352">
        <ele>1113.6</ele>
        <time>2026-05-12T09:49:32Z</time>
      </trkpt>
      <trkpt lat="45.97647" lon="5.63518">
        <ele>1113.6</ele>
        <time>2026-05-12T09:49:33Z</time>
      </trkpt>
      <trkpt lat="45.97644" lon="5.63517">
        <ele>1113.2</ele>
        <time>2026-05-12T09:49:34Z</time>
      </trkpt>
      <trkpt lat="45.9764" lon="5.63517">
        <ele>1113.2</ele>
        <time>2026-05-12T09:49:35Z</time>
      </trkpt>
      <trkpt lat="45.97637" lon="5.63517">
        <ele>1112.8</ele>
        <time>2026-05-12T09:49:36Z</time>
      </trkpt>
      <trkpt lat="45.97634" lon="5.63516">
        <ele>1112.6</ele>
        <time>2026-05-12T09:49:37Z</time>
      </trkpt>
      <trkpt lat="45.97631" lon="5.63513">
        <ele>1112.2</ele>
        <time>2026-05-12T09:49:38Z</time>
      </trkpt>
      <trkpt lat="45.9763" lon="5.63511">
        <ele>1112.2</ele>
        <time>2026-05-12T09:49:39Z</time>
      </trkpt>
      <trkpt lat="45.97628" lon="5.63508">
        <ele>1112</ele>
        <time>2026-05-12T09:49:40Z</time>
      </trkpt>
      <trkpt lat="45.97625" lon="5.63505">
        <ele>1111.6</ele>
        <time>2026-05-12T09:49:41Z</time>
      </trkpt>
      <trkpt lat="45.97623" lon="5.63503">
        <ele>1111.6</ele>
        <time>2026-05-12T09:49:42Z</time>
      </trkpt>
      <trkpt lat="45.97621" lon="5.635">
        <ele>1111.6</ele>
        <time>2026-05-12T09:49:43Z</time>
      </trkpt>
      <trkpt lat="45.97619" lon="5.63497">
        <ele>1111</ele>
        <time>2026-05-12T09:49:44Z</time>
      </trkpt>
      <trkpt lat="45.97617" lon="5.63494">
        <ele>1110.8</ele>
        <time>2026-05-12T09:49:45Z</time>
      </trkpt>
      <trkpt lat="45.97617" lon="5.63492">
        <ele>1110.4</ele>
        <time>2026-05-12T09:49:46Z</time>
      </trkpt>
      <trkpt lat="45.97615" lon="5.63489">
        <ele>1110.2</ele>
        <time>2026-05-12T09:49:47Z</time>
      </trkpt>
      <trkpt lat="45.97612" lon="5.63485">
        <ele>1109.8</ele>
        <time>2026-05-12T09:49:48Z</time>
      </trkpt>
      <trkpt lat="45.97609" lon="5.63482">
        <ele>1109.8</ele>
        <time>2026-05-12T09:49:49Z</time>
      </trkpt>
      <trkpt lat="45.97607" lon="5.63479">
        <ele>1109.2</ele>
        <time>2026-05-12T09:49:50Z</time>
      </trkpt>
      <trkpt lat="45.97605" lon="5.63477">
        <ele>1109.2</ele>
        <time>2026-05-12T09:49:51Z</time>
      </trkpt>
      <trkpt lat="45.97603" lon="5.63475">
        <ele>1108.8</ele>
        <time>2026-05-12T09:49:52Z</time>
      </trkpt>
      <trkpt lat="45.976" lon="5.63471">
        <ele>1108.6</ele>
        <time>2026-05-12T09:49:53Z</time>
      </trkpt>
      <trkpt lat="45.97598" lon="5.63468">
        <ele>1108.2</ele>
        <time>2026-05-12T09:49:54Z</time>
      </trkpt>
      <trkpt lat="45.97596" lon="5.63465">
        <ele>1107.8</ele>
        <time>2026-05-12T09:49:55Z</time>
      </trkpt>
      <trkpt lat="45.97594" lon="5.63462">
        <ele>1107.6</ele>
        <time>2026-05-12T09:49:56Z</time>
      </trkpt>
      <trkpt lat="45.97591" lon="5.63459">
        <ele>1107.2</ele>
        <time>2026-05-12T09:49:57Z</time>
      </trkpt>
      <trkpt lat="45.97588" lon="5.63455">
        <ele>1106.8</ele>
        <time>2026-05-12T09:49:58Z</time>
      </trkpt>
      <trkpt lat="45.97585" lon="5.63453">
        <ele>1106.8</ele>
        <time>2026-05-12T09:49:59Z</time>
      </trkpt>
      <trkpt lat="45.97581" lon="5.6345">
        <ele>1106.2</ele>
        <time>2026-05-12T09:50:00Z</time>
      </trkpt>
      <trkpt lat="45.97578" lon="5.63447">
        <ele>1106</ele>
        <time>2026-05-12T09:50:01Z</time>
      </trkpt>
      <trkpt lat="45.97575" lon="5.63444">
        <ele>1106</ele>
        <time>2026-05-12T09:50:02Z</time>
      </trkpt>
      <trkpt lat="45.97572" lon="5.63441">
        <ele>1105.4</ele>
        <time>2026-05-12T09:50:03Z</time>
      </trkpt>
      <trkpt lat="45.9757" lon="5.63439">
        <ele>1105</ele>
        <time>2026-05-12T09:50:04Z</time>
      </trkpt>
      <trkpt lat="45.97567" lon="5.63436">
        <ele>1104.6</ele>
        <time>2026-05-12T09:50:05Z</time>
      </trkpt>
      <trkpt lat="45.97565" lon="5.63434">
        <ele>1104</ele>
        <time>2026-05-12T09:50:06Z</time>
      </trkpt>
      <trkpt lat="45.97562" lon="5.63432">
        <ele>1103</ele>
        <time>2026-05-12T09:50:07Z</time>
      </trkpt>
      <trkpt lat="45.97559" lon="5.63429">
        <ele>1103</ele>
        <time>2026-05-12T09:50:08Z</time>
      </trkpt>
      <trkpt lat="45.97557" lon="5.63427">
        <ele>1103</ele>
        <time>2026-05-12T09:50:09Z</time>
      </trkpt>
      <trkpt lat="45.97556" lon="5.63426">
        <ele>1103</ele>
        <time>2026-05-12T09:50:10Z</time>
      </trkpt>
      <trkpt lat="45.97554" lon="5.63424">
        <ele>1103</ele>
        <time>2026-05-12T09:50:11Z</time>
      </trkpt>
      <trkpt lat="45.9755" lon="5.6342">
        <ele>1102.8</ele>
        <time>2026-05-12T09:50:12Z</time>
      </trkpt>
      <trkpt lat="45.97548" lon="5.63419">
        <ele>1101.8</ele>
        <time>2026-05-12T09:50:13Z</time>
      </trkpt>
      <trkpt lat="45.97547" lon="5.63416">
        <ele>1101.8</ele>
        <time>2026-05-12T09:50:14Z</time>
      </trkpt>
      <trkpt lat="45.97546" lon="5.63413">
        <ele>1101.8</ele>
        <time>2026-05-12T09:50:15Z</time>
      </trkpt>
      <trkpt lat="45.97542" lon="5.63411">
        <ele>1101.2</ele>
        <time>2026-05-12T09:50:16Z</time>
      </trkpt>
      <trkpt lat="45.9754" lon="5.63408">
        <ele>1101</ele>
        <time>2026-05-12T09:50:17Z</time>
      </trkpt>
      <trkpt lat="45.97538" lon="5.63403">
        <ele>1100.6</ele>
        <time>2026-05-12T09:50:18Z</time>
      </trkpt>
      <trkpt lat="45.97536" lon="5.63401">
        <ele>1100.6</ele>
        <time>2026-05-12T09:50:19Z</time>
      </trkpt>
      <trkpt lat="45.97535" lon="5.634">
        <ele>1100.2</ele>
        <time>2026-05-12T09:50:20Z</time>
      </trkpt>
      <trkpt lat="45.97535" lon="5.634">
        <ele>1100.2</ele>
        <time>2026-05-12T09:50:21Z</time>
      </trkpt>
      <trkpt lat="45.97533" lon="5.63398">
        <ele>1100.2</ele>
        <time>2026-05-12T09:50:22Z</time>
      </trkpt>
      <trkpt lat="45.97532" lon="5.63396">
        <ele>1099.8</ele>
        <time>2026-05-12T09:50:23Z</time>
      </trkpt>
      <trkpt lat="45.97531" lon="5.63394">
        <ele>1099.8</ele>
        <time>2026-05-12T09:50:24Z</time>
      </trkpt>
      <trkpt lat="45.97529" lon="5.63392">
        <ele>1099.4</ele>
        <time>2026-05-12T09:50:25Z</time>
      </trkpt>
      <trkpt lat="45.97526" lon="5.63389">
        <ele>1099</ele>
        <time>2026-05-12T09:50:26Z</time>
      </trkpt>
      <trkpt lat="45.97524" lon="5.63386">
        <ele>1099</ele>
        <time>2026-05-12T09:50:27Z</time>
      </trkpt>
      <trkpt lat="45.97521" lon="5.63384">
        <ele>1098.6</ele>
        <time>2026-05-12T09:50:28Z</time>
      </trkpt>
      <trkpt lat="45.97519" lon="5.63382">
        <ele>1098</ele>
        <time>2026-05-12T09:50:29Z</time>
      </trkpt>
      <trkpt lat="45.97516" lon="5.6338">
        <ele>1097.8</ele>
        <time>2026-05-12T09:50:30Z</time>
      </trkpt>
      <trkpt lat="45.97513" lon="5.63378">
        <ele>1097.6</ele>
        <time>2026-05-12T09:50:31Z</time>
      </trkpt>
      <trkpt lat="45.9751" lon="5.63375">
        <ele>1097.2</ele>
        <time>2026-05-12T09:50:32Z</time>
      </trkpt>
      <trkpt lat="45.97508" lon="5.63373">
        <ele>1096.6</ele>
        <time>2026-05-12T09:50:33Z</time>
      </trkpt>
      <trkpt lat="45.97507" lon="5.6337">
        <ele>1096.2</ele>
        <time>2026-05-12T09:50:34Z</time>
      </trkpt>
      <trkpt lat="45.97505" lon="5.63368">
        <ele>1096</ele>
        <time>2026-05-12T09:50:35Z</time>
      </trkpt>
      <trkpt lat="45.97504" lon="5.63367">
        <ele>1095.6</ele>
        <time>2026-05-12T09:50:36Z</time>
      </trkpt>
      <trkpt lat="45.97504" lon="5.63365">
        <ele>1095.2</ele>
        <time>2026-05-12T09:50:37Z</time>
      </trkpt>
      <trkpt lat="45.97503" lon="5.63362">
        <ele>1095</ele>
        <time>2026-05-12T09:50:38Z</time>
      </trkpt>
      <trkpt lat="45.97502" lon="5.6336">
        <ele>1095</ele>
        <time>2026-05-12T09:50:39Z</time>
      </trkpt>
      <trkpt lat="45.975" lon="5.63356">
        <ele>1094.4</ele>
        <time>2026-05-12T09:50:40Z</time>
      </trkpt>
      <trkpt lat="45.97498" lon="5.63354">
        <ele>1094.6</ele>
        <time>2026-05-12T09:50:41Z</time>
      </trkpt>
      <trkpt lat="45.97496" lon="5.63351">
        <ele>1094.4</ele>
        <time>2026-05-12T09:50:42Z</time>
      </trkpt>
      <trkpt lat="45.97493" lon="5.63347">
        <ele>1094.4</ele>
        <time>2026-05-12T09:50:43Z</time>
      </trkpt>
      <trkpt lat="45.97491" lon="5.63343">
        <ele>1094</ele>
        <time>2026-05-12T09:50:44Z</time>
      </trkpt>
      <trkpt lat="45.9749" lon="5.63341">
        <ele>1093.8</ele>
        <time>2026-05-12T09:50:45Z</time>
      </trkpt>
      <trkpt lat="45.97488" lon="5.63337">
        <ele>1093.8</ele>
        <time>2026-05-12T09:50:46Z</time>
      </trkpt>
      <trkpt lat="45.97487" lon="5.63335">
        <ele>1093.6</ele>
        <time>2026-05-12T09:50:47Z</time>
      </trkpt>
      <trkpt lat="45.97485" lon="5.63333">
        <ele>1093.4</ele>
        <time>2026-05-12T09:50:48Z</time>
      </trkpt>
      <trkpt lat="45.97484" lon="5.6333">
        <ele>1093</ele>
        <time>2026-05-12T09:50:49Z</time>
      </trkpt>
      <trkpt lat="45.97483" lon="5.63327">
        <ele>1092.4</ele>
        <time>2026-05-12T09:50:50Z</time>
      </trkpt>
      <trkpt lat="45.97483" lon="5.63324">
        <ele>1092</ele>
        <time>2026-05-12T09:50:51Z</time>
      </trkpt>
      <trkpt lat="45.97482" lon="5.6332">
        <ele>1091.8</ele>
        <time>2026-05-12T09:50:52Z</time>
      </trkpt>
      <trkpt lat="45.97482" lon="5.63315">
        <ele>1091.4</ele>
        <time>2026-05-12T09:50:53Z</time>
      </trkpt>
      <trkpt lat="45.97482" lon="5.63312">
        <ele>1091</ele>
        <time>2026-05-12T09:50:54Z</time>
      </trkpt>
      <trkpt lat="45.97482" lon="5.63309">
        <ele>1090.2</ele>
        <time>2026-05-12T09:50:55Z</time>
      </trkpt>
      <trkpt lat="45.97482" lon="5.63306">
        <ele>1089.8</ele>
        <time>2026-05-12T09:50:56Z</time>
      </trkpt>
      <trkpt lat="45.97482" lon="5.63303">
        <ele>1089</ele>
        <time>2026-05-12T09:50:57Z</time>
      </trkpt>
      <trkpt lat="45.97482" lon="5.63299">
        <ele>1088.6</ele>
        <time>2026-05-12T09:50:58Z</time>
      </trkpt>
      <trkpt lat="45.97482" lon="5.63295">
        <ele>1088.2</ele>
        <time>2026-05-12T09:50:59Z</time>
      </trkpt>
      <trkpt lat="45.97482" lon="5.63292">
        <ele>1087.6</ele>
        <time>2026-05-12T09:51:00Z</time>
      </trkpt>
      <trkpt lat="45.97481" lon="5.63288">
        <ele>1087.2</ele>
        <time>2026-05-12T09:51:01Z</time>
      </trkpt>
      <trkpt lat="45.97481" lon="5.63286">
        <ele>1086.6</ele>
        <time>2026-05-12T09:51:02Z</time>
      </trkpt>
      <trkpt lat="45.97482" lon="5.63285">
        <ele>1086.4</ele>
        <time>2026-05-12T09:51:03Z</time>
      </trkpt>
      <trkpt lat="45.97482" lon="5.63284">
        <ele>1086.4</ele>
        <time>2026-05-12T09:51:04Z</time>
      </trkpt>
      <trkpt lat="45.97482" lon="5.63283">
        <ele>1085.8</ele>
        <time>2026-05-12T09:51:05Z</time>
      </trkpt>
      <trkpt lat="45.97482" lon="5.63282">
        <ele>1085.4</ele>
        <time>2026-05-12T09:51:06Z</time>
      </trkpt>
      <trkpt lat="45.97482" lon="5.63281">
        <ele>1085.4</ele>
        <time>2026-05-12T09:51:07Z</time>
      </trkpt>
      <trkpt lat="45.97482" lon="5.63281">
        <ele>1085</ele>
        <time>2026-05-12T09:51:08Z</time>
      </trkpt>
      <trkpt lat="45.97473" lon="5.63273">
        <ele>1084.8</ele>
        <time>2026-05-12T09:51:53Z</time>
      </trkpt>
      <trkpt lat="45.97474" lon="5.6327">
        <ele>1084.6</ele>
        <time>2026-05-12T09:51:54Z</time>
      </trkpt>
      <trkpt lat="45.97475" lon="5.63267">
        <ele>1084</ele>
        <time>2026-05-12T09:51:55Z</time>
      </trkpt>
      <trkpt lat="45.97476" lon="5.63264">
        <ele>1083.6</ele>
        <time>2026-05-12T09:51:56Z</time>
      </trkpt>
      <trkpt lat="45.97476" lon="5.63261">
        <ele>1083</ele>
        <time>2026-05-12T09:51:57Z</time>
      </trkpt>
      <trkpt lat="45.97476" lon="5.63257">
        <ele>1082.8</ele>
        <time>2026-05-12T09:51:58Z</time>
      </trkpt>
      <trkpt lat="45.97477" lon="5.63253">
        <ele>1082.2</ele>
        <time>2026-05-12T09:51:59Z</time>
      </trkpt>
      <trkpt lat="45.97478" lon="5.63248">
        <ele>1081.6</ele>
        <time>2026-05-12T09:52:00Z</time>
      </trkpt>
      <trkpt lat="45.97478" lon="5.63242">
        <ele>1081.6</ele>
        <time>2026-05-12T09:52:01Z</time>
      </trkpt>
      <trkpt lat="45.97478" lon="5.63237">
        <ele>1081.6</ele>
        <time>2026-05-12T09:52:02Z</time>
      </trkpt>
      <trkpt lat="45.97478" lon="5.63232">
        <ele>1081</ele>
        <time>2026-05-12T09:52:03Z</time>
      </trkpt>
      <trkpt lat="45.97478" lon="5.63228">
        <ele>1080.2</ele>
        <time>2026-05-12T09:52:04Z</time>
      </trkpt>
      <trkpt lat="45.97478" lon="5.63225">
        <ele>1080.2</ele>
        <time>2026-05-12T09:52:05Z</time>
      </trkpt>
      <trkpt lat="45.97478" lon="5.63223">
        <ele>1079.8</ele>
        <time>2026-05-12T09:52:06Z</time>
      </trkpt>
      <trkpt lat="45.97477" lon="5.63221">
        <ele>1079.6</ele>
        <time>2026-05-12T09:52:07Z</time>
      </trkpt>
      <trkpt lat="45.97477" lon="5.63218">
        <ele>1079.2</ele>
        <time>2026-05-12T09:52:08Z</time>
      </trkpt>
      <trkpt lat="45.97478" lon="5.63216">
        <ele>1078.6</ele>
        <time>2026-05-12T09:52:09Z</time>
      </trkpt>
      <trkpt lat="45.97478" lon="5.63215">
        <ele>1078</ele>
        <time>2026-05-12T09:52:10Z</time>
      </trkpt>
      <trkpt lat="45.97478" lon="5.63212">
        <ele>1077.6</ele>
        <time>2026-05-12T09:52:11Z</time>
      </trkpt>
      <trkpt lat="45.97478" lon="5.63208">
        <ele>1077.4</ele>
        <time>2026-05-12T09:52:12Z</time>
      </trkpt>
      <trkpt lat="45.97478" lon="5.63205">
        <ele>1077</ele>
        <time>2026-05-12T09:52:13Z</time>
      </trkpt>
      <trkpt lat="45.97479" lon="5.63202">
        <ele>1076.6</ele>
        <time>2026-05-12T09:52:14Z</time>
      </trkpt>
      <trkpt lat="45.9748" lon="5.63198">
        <ele>1076.2</ele>
        <time>2026-05-12T09:52:15Z</time>
      </trkpt>
      <trkpt lat="45.9748" lon="5.63196">
        <ele>1075.6</ele>
        <time>2026-05-12T09:52:16Z</time>
      </trkpt>
      <trkpt lat="45.9748" lon="5.63192">
        <ele>1075.4</ele>
        <time>2026-05-12T09:52:17Z</time>
      </trkpt>
      <trkpt lat="45.9748" lon="5.63189">
        <ele>1075.2</ele>
        <time>2026-05-12T09:52:18Z</time>
      </trkpt>
      <trkpt lat="45.97481" lon="5.63188">
        <ele>1074.6</ele>
        <time>2026-05-12T09:52:19Z</time>
      </trkpt>
      <trkpt lat="45.97483" lon="5.63184">
        <ele>1074.2</ele>
        <time>2026-05-12T09:52:20Z</time>
      </trkpt>
      <trkpt lat="45.97484" lon="5.6318">
        <ele>1073.8</ele>
        <time>2026-05-12T09:52:21Z</time>
      </trkpt>
      <trkpt lat="45.97484" lon="5.63175">
        <ele>1073.6</ele>
        <time>2026-05-12T09:52:22Z</time>
      </trkpt>
      <trkpt lat="45.97484" lon="5.6317">
        <ele>1073.2</ele>
        <time>2026-05-12T09:52:23Z</time>
      </trkpt>
      <trkpt lat="45.97484" lon="5.63165">
        <ele>1072.6</ele>
        <time>2026-05-12T09:52:24Z</time>
      </trkpt>
      <trkpt lat="45.97484" lon="5.63161">
        <ele>1071.6</ele>
        <time>2026-05-12T09:52:25Z</time>
      </trkpt>
      <trkpt lat="45.97484" lon="5.63156">
        <ele>1071.2</ele>
        <time>2026-05-12T09:52:26Z</time>
      </trkpt>
      <trkpt lat="45.97483" lon="5.63152">
        <ele>1071.2</ele>
        <time>2026-05-12T09:52:27Z</time>
      </trkpt>
      <trkpt lat="45.97482" lon="5.63148">
        <ele>1071.2</ele>
        <time>2026-05-12T09:52:28Z</time>
      </trkpt>
      <trkpt lat="45.97479" lon="5.63145">
        <ele>1071.2</ele>
        <time>2026-05-12T09:52:29Z</time>
      </trkpt>
      <trkpt lat="45.97477" lon="5.63144">
        <ele>1070.8</ele>
        <time>2026-05-12T09:52:30Z</time>
      </trkpt>
      <trkpt lat="45.97475" lon="5.63144">
        <ele>1070.8</ele>
        <time>2026-05-12T09:52:31Z</time>
      </trkpt>
      <trkpt lat="45.97473" lon="5.63144">
        <ele>1071.2</ele>
        <time>2026-05-12T09:52:32Z</time>
      </trkpt>
      <trkpt lat="45.97472" lon="5.63145">
        <ele>1071.2</ele>
        <time>2026-05-12T09:52:33Z</time>
      </trkpt>
      <trkpt lat="45.97471" lon="5.63146">
        <ele>1071.2</ele>
        <time>2026-05-12T09:52:34Z</time>
      </trkpt>
      <trkpt lat="45.9747" lon="5.63146">
        <ele>1071.2</ele>
        <time>2026-05-12T09:52:35Z</time>
      </trkpt>
      <trkpt lat="45.97469" lon="5.63147">
        <ele>1071.4</ele>
        <time>2026-05-12T09:52:36Z</time>
      </trkpt>
      <trkpt lat="45.97468" lon="5.63147">
        <ele>1071.4</ele>
        <time>2026-05-12T09:52:37Z</time>
      </trkpt>
      <trkpt lat="45.97467" lon="5.63146">
        <ele>1071.4</ele>
        <time>2026-05-12T09:52:38Z</time>
      </trkpt>
      <trkpt lat="45.97466" lon="5.63146">
        <ele>1070.6</ele>
        <time>2026-05-12T09:52:39Z</time>
      </trkpt>
      <trkpt lat="45.97465" lon="5.63145">
        <ele>1071</ele>
        <time>2026-05-12T09:52:40Z</time>
      </trkpt>
      <trkpt lat="45.97465" lon="5.63145">
        <ele>1071.2</ele>
        <time>2026-05-12T09:52:41Z</time>
      </trkpt>
      <trkpt lat="45.97464" lon="5.63146">
        <ele>1071.6</ele>
        <time>2026-05-12T09:52:42Z</time>
      </trkpt>
      <trkpt lat="45.97462" lon="5.63146">
        <ele>1071.8</ele>
        <time>2026-05-12T09:52:43Z</time>
      </trkpt>
      <trkpt lat="45.97461" lon="5.63145">
        <ele>1071.8</ele>
        <time>2026-05-12T09:52:44Z</time>
      </trkpt>
      <trkpt lat="45.9746" lon="5.63145">
        <ele>1071.8</ele>
        <time>2026-05-12T09:52:45Z</time>
      </trkpt>
      <trkpt lat="45.97459" lon="5.63145">
        <ele>1072.2</ele>
        <time>2026-05-12T09:52:46Z</time>
      </trkpt>
      <trkpt lat="45.97458" lon="5.63145">
        <ele>1072.2</ele>
        <time>2026-05-12T09:52:47Z</time>
      </trkpt>
      <trkpt lat="45.97456" lon="5.63145">
        <ele>1072.4</ele>
        <time>2026-05-12T09:52:48Z</time>
      </trkpt>
      <trkpt lat="45.97455" lon="5.63145">
        <ele>1072.8</ele>
        <time>2026-05-12T09:52:49Z</time>
      </trkpt>
      <trkpt lat="45.97454" lon="5.63146">
        <ele>1072.8</ele>
        <time>2026-05-12T09:52:50Z</time>
      </trkpt>
      <trkpt lat="45.97452" lon="5.63147">
        <ele>1073.2</ele>
        <time>2026-05-12T09:52:51Z</time>
      </trkpt>
      <trkpt lat="45.97451" lon="5.63147">
        <ele>1073.4</ele>
        <time>2026-05-12T09:52:52Z</time>
      </trkpt>
      <trkpt lat="45.9745" lon="5.63148">
        <ele>1073.4</ele>
        <time>2026-05-12T09:52:53Z</time>
      </trkpt>
      <trkpt lat="45.97449" lon="5.63149">
        <ele>1073.8</ele>
        <time>2026-05-12T09:52:54Z</time>
      </trkpt>
      <trkpt lat="45.97447" lon="5.63149">
        <ele>1073.8</ele>
        <time>2026-05-12T09:52:55Z</time>
      </trkpt>
      <trkpt lat="45.97445" lon="5.6315">
        <ele>1074</ele>
        <time>2026-05-12T09:52:56Z</time>
      </trkpt>
      <trkpt lat="45.97444" lon="5.6315">
        <ele>1074.4</ele>
        <time>2026-05-12T09:52:57Z</time>
      </trkpt>
      <trkpt lat="45.97443" lon="5.6315">
        <ele>1074.6</ele>
        <time>2026-05-12T09:52:58Z</time>
      </trkpt>
      <trkpt lat="45.97441" lon="5.6315">
        <ele>1075</ele>
        <time>2026-05-12T09:52:59Z</time>
      </trkpt>
      <trkpt lat="45.9744" lon="5.63151">
        <ele>1075</ele>
        <time>2026-05-12T09:53:00Z</time>
      </trkpt>
      <trkpt lat="45.97439" lon="5.63153">
        <ele>1075.4</ele>
        <time>2026-05-12T09:53:01Z</time>
      </trkpt>
      <trkpt lat="45.97439" lon="5.63154">
        <ele>1075.6</ele>
        <time>2026-05-12T09:53:02Z</time>
      </trkpt>
      <trkpt lat="45.97438" lon="5.63155">
        <ele>1076</ele>
        <time>2026-05-12T09:53:03Z</time>
      </trkpt>
      <trkpt lat="45.97437" lon="5.63156">
        <ele>1076</ele>
        <time>2026-05-12T09:53:04Z</time>
      </trkpt>
      <trkpt lat="45.97436" lon="5.63157">
        <ele>1076.2</ele>
        <time>2026-05-12T09:53:05Z</time>
      </trkpt>
      <trkpt lat="45.97434" lon="5.63158">
        <ele>1076.6</ele>
        <time>2026-05-12T09:53:06Z</time>
      </trkpt>
      <trkpt lat="45.97433" lon="5.63159">
        <ele>1076.8</ele>
        <time>2026-05-12T09:53:07Z</time>
      </trkpt>
      <trkpt lat="45.97431" lon="5.6316">
        <ele>1076.8</ele>
        <time>2026-05-12T09:53:08Z</time>
      </trkpt>
      <trkpt lat="45.97429" lon="5.63161">
        <ele>1076.8</ele>
        <time>2026-05-12T09:53:09Z</time>
      </trkpt>
      <trkpt lat="45.97428" lon="5.63162">
        <ele>1076.8</ele>
        <time>2026-05-12T09:53:10Z</time>
      </trkpt>
      <trkpt lat="45.97426" lon="5.63163">
        <ele>1077.2</ele>
        <time>2026-05-12T09:53:11Z</time>
      </trkpt>
      <trkpt lat="45.97426" lon="5.63163">
        <ele>1077.2</ele>
        <time>2026-05-12T09:53:12Z</time>
      </trkpt>
      <trkpt lat="45.97425" lon="5.63164">
        <ele>1077.2</ele>
        <time>2026-05-12T09:53:13Z</time>
      </trkpt>
      <trkpt lat="45.97424" lon="5.63165">
        <ele>1077.4</ele>
        <time>2026-05-12T09:53:14Z</time>
      </trkpt>
      <trkpt lat="45.97423" lon="5.63167">
        <ele>1077.4</ele>
        <time>2026-05-12T09:53:15Z</time>
      </trkpt>
      <trkpt lat="45.97422" lon="5.63167">
        <ele>1077.8</ele>
        <time>2026-05-12T09:53:16Z</time>
      </trkpt>
      <trkpt lat="45.97422" lon="5.63168">
        <ele>1077.8</ele>
        <time>2026-05-12T09:53:17Z</time>
      </trkpt>
      <trkpt lat="45.97421" lon="5.63169">
        <ele>1077.8</ele>
        <time>2026-05-12T09:53:18Z</time>
      </trkpt>
      <trkpt lat="45.9742" lon="5.6317">
        <ele>1078.2</ele>
        <time>2026-05-12T09:53:19Z</time>
      </trkpt>
      <trkpt lat="45.97419" lon="5.63171">
        <ele>1078.2</ele>
        <time>2026-05-12T09:53:20Z</time>
      </trkpt>
      <trkpt lat="45.97419" lon="5.63171">
        <ele>1078.4</ele>
        <time>2026-05-12T09:53:21Z</time>
      </trkpt>
      <trkpt lat="45.97419" lon="5.63171">
        <ele>1078.8</ele>
        <time>2026-05-12T09:53:22Z</time>
      </trkpt>
      <trkpt lat="45.97414" lon="5.63175">
        <ele>1078.8</ele>
        <time>2026-05-12T09:53:23Z</time>
      </trkpt>
      <trkpt lat="45.97412" lon="5.63176">
        <ele>1079</ele>
        <time>2026-05-12T09:53:24Z</time>
      </trkpt>
      <trkpt lat="45.97411" lon="5.63176">
        <ele>1079.4</ele>
        <time>2026-05-12T09:53:25Z</time>
      </trkpt>
      <trkpt lat="45.9741" lon="5.63176">
        <ele>1079.4</ele>
        <time>2026-05-12T09:53:26Z</time>
      </trkpt>
      <trkpt lat="45.97408" lon="5.63177">
        <ele>1079.6</ele>
        <time>2026-05-12T09:53:27Z</time>
      </trkpt>
      <trkpt lat="45.97407" lon="5.63178">
        <ele>1079.6</ele>
        <time>2026-05-12T09:53:28Z</time>
      </trkpt>
      <trkpt lat="45.97406" lon="5.63178">
        <ele>1079.6</ele>
        <time>2026-05-12T09:53:29Z</time>
      </trkpt>
      <trkpt lat="45.97405" lon="5.63179">
        <ele>1079.8</ele>
        <time>2026-05-12T09:53:30Z</time>
      </trkpt>
      <trkpt lat="45.97404" lon="5.6318">
        <ele>1079.8</ele>
        <time>2026-05-12T09:53:31Z</time>
      </trkpt>
      <trkpt lat="45.97402" lon="5.63181">
        <ele>1080.2</ele>
        <time>2026-05-12T09:53:32Z</time>
      </trkpt>
      <trkpt lat="45.974" lon="5.63182">
        <ele>1080.2</ele>
        <time>2026-05-12T09:53:33Z</time>
      </trkpt>
      <trkpt lat="45.97399" lon="5.63182">
        <ele>1080.6</ele>
        <time>2026-05-12T09:53:34Z</time>
      </trkpt>
      <trkpt lat="45.97398" lon="5.63182">
        <ele>1080.6</ele>
        <time>2026-05-12T09:53:35Z</time>
      </trkpt>
      <trkpt lat="45.97397" lon="5.63183">
        <ele>1081</ele>
        <time>2026-05-12T09:53:36Z</time>
      </trkpt>
      <trkpt lat="45.97396" lon="5.63184">
        <ele>1081</ele>
        <time>2026-05-12T09:53:37Z</time>
      </trkpt>
      <trkpt lat="45.97396" lon="5.63184">
        <ele>1081</ele>
        <time>2026-05-12T09:53:38Z</time>
      </trkpt>
      <trkpt lat="45.97396" lon="5.63184">
        <ele>1081.4</ele>
        <time>2026-05-12T09:53:39Z</time>
      </trkpt>
      <trkpt lat="45.97396" lon="5.63184">
        <ele>1081.6</ele>
        <time>2026-05-12T09:53:40Z</time>
      </trkpt>
      <trkpt lat="45.97395" lon="5.63183">
        <ele>1081.8</ele>
        <time>2026-05-12T09:53:41Z</time>
      </trkpt>
      <trkpt lat="45.97394" lon="5.63183">
        <ele>1081.8</ele>
        <time>2026-05-12T09:53:42Z</time>
      </trkpt>
      <trkpt lat="45.97392" lon="5.63184">
        <ele>1081.8</ele>
        <time>2026-05-12T09:53:43Z</time>
      </trkpt>
      <trkpt lat="45.97391" lon="5.63184">
        <ele>1082.2</ele>
        <time>2026-05-12T09:53:44Z</time>
      </trkpt>
      <trkpt lat="45.97389" lon="5.63184">
        <ele>1082.4</ele>
        <time>2026-05-12T09:53:45Z</time>
      </trkpt>
      <trkpt lat="45.97388" lon="5.63184">
        <ele>1082.8</ele>
        <time>2026-05-12T09:53:46Z</time>
      </trkpt>
      <trkpt lat="45.97387" lon="5.63185">
        <ele>1082.8</ele>
        <time>2026-05-12T09:53:47Z</time>
      </trkpt>
      <trkpt lat="45.97387" lon="5.63185">
        <ele>1083</ele>
        <time>2026-05-12T09:53:48Z</time>
      </trkpt>
      <trkpt lat="45.97386" lon="5.63186">
        <ele>1083</ele>
        <time>2026-05-12T09:53:49Z</time>
      </trkpt>
      <trkpt lat="45.97385" lon="5.63187">
        <ele>1083.4</ele>
        <time>2026-05-12T09:53:50Z</time>
      </trkpt>
      <trkpt lat="45.97384" lon="5.63188">
        <ele>1083.4</ele>
        <time>2026-05-12T09:53:51Z</time>
      </trkpt>
      <trkpt lat="45.97383" lon="5.63189">
        <ele>1083.6</ele>
        <time>2026-05-12T09:53:52Z</time>
      </trkpt>
      <trkpt lat="45.97382" lon="5.63189">
        <ele>1084</ele>
        <time>2026-05-12T09:53:53Z</time>
      </trkpt>
      <trkpt lat="45.9738" lon="5.6319">
        <ele>1084</ele>
        <time>2026-05-12T09:53:54Z</time>
      </trkpt>
      <trkpt lat="45.97379" lon="5.63191">
        <ele>1084.2</ele>
        <time>2026-05-12T09:53:55Z</time>
      </trkpt>
      <trkpt lat="45.97378" lon="5.63192">
        <ele>1084.2</ele>
        <time>2026-05-12T09:53:56Z</time>
      </trkpt>
      <trkpt lat="45.97377" lon="5.63193">
        <ele>1084.6</ele>
        <time>2026-05-12T09:53:57Z</time>
      </trkpt>
      <trkpt lat="45.97376" lon="5.63194">
        <ele>1084.8</ele>
        <time>2026-05-12T09:53:58Z</time>
      </trkpt>
      <trkpt lat="45.97375" lon="5.63194">
        <ele>1084.8</ele>
        <time>2026-05-12T09:53:59Z</time>
      </trkpt>
      <trkpt lat="45.97374" lon="5.63195">
        <ele>1084.8</ele>
        <time>2026-05-12T09:54:00Z</time>
      </trkpt>
      <trkpt lat="45.97373" lon="5.63195">
        <ele>1084.8</ele>
        <time>2026-05-12T09:54:01Z</time>
      </trkpt>
      <trkpt lat="45.97372" lon="5.63196">
        <ele>1085</ele>
        <time>2026-05-12T09:54:02Z</time>
      </trkpt>
      <trkpt lat="45.97371" lon="5.63197">
        <ele>1085.4</ele>
        <time>2026-05-12T09:54:03Z</time>
      </trkpt>
      <trkpt lat="45.9737" lon="5.63198">
        <ele>1085.6</ele>
        <time>2026-05-12T09:54:04Z</time>
      </trkpt>
      <trkpt lat="45.97369" lon="5.63198">
        <ele>1085.6</ele>
        <time>2026-05-12T09:54:05Z</time>
      </trkpt>
      <trkpt lat="45.97368" lon="5.63198">
        <ele>1085.8</ele>
        <time>2026-05-12T09:54:06Z</time>
      </trkpt>
      <trkpt lat="45.97366" lon="5.63198">
        <ele>1086</ele>
        <time>2026-05-12T09:54:07Z</time>
      </trkpt>
      <trkpt lat="45.97365" lon="5.63198">
        <ele>1086</ele>
        <time>2026-05-12T09:54:08Z</time>
      </trkpt>
      <trkpt lat="45.97364" lon="5.63199">
        <ele>1086.4</ele>
        <time>2026-05-12T09:54:09Z</time>
      </trkpt>
      <trkpt lat="45.97363" lon="5.632">
        <ele>1086.4</ele>
        <time>2026-05-12T09:54:10Z</time>
      </trkpt>
      <trkpt lat="45.97362" lon="5.63201">
        <ele>1086.4</ele>
        <time>2026-05-12T09:54:11Z</time>
      </trkpt>
      <trkpt lat="45.9736" lon="5.63202">
        <ele>1086.6</ele>
        <time>2026-05-12T09:54:12Z</time>
      </trkpt>
      <trkpt lat="45.97358" lon="5.63202">
        <ele>1086.6</ele>
        <time>2026-05-12T09:54:13Z</time>
      </trkpt>
      <trkpt lat="45.97356" lon="5.63202">
        <ele>1087</ele>
        <time>2026-05-12T09:54:14Z</time>
      </trkpt>
      <trkpt lat="45.97354" lon="5.63201">
        <ele>1087</ele>
        <time>2026-05-12T09:54:15Z</time>
      </trkpt>
      <trkpt lat="45.97351" lon="5.63201">
        <ele>1087.2</ele>
        <time>2026-05-12T09:54:16Z</time>
      </trkpt>
      <trkpt lat="45.97349" lon="5.632">
        <ele>1087.2</ele>
        <time>2026-05-12T09:54:17Z</time>
      </trkpt>
      <trkpt lat="45.97346" lon="5.632">
        <ele>1087.6</ele>
        <time>2026-05-12T09:54:18Z</time>
      </trkpt>
      <trkpt lat="45.97344" lon="5.632">
        <ele>1087.6</ele>
        <time>2026-05-12T09:54:19Z</time>
      </trkpt>
      <trkpt lat="45.97342" lon="5.632">
        <ele>1088.2</ele>
        <time>2026-05-12T09:54:20Z</time>
      </trkpt>
      <trkpt lat="45.97341" lon="5.632">
        <ele>1088.2</ele>
        <time>2026-05-12T09:54:21Z</time>
      </trkpt>
      <trkpt lat="45.97339" lon="5.632">
        <ele>1088.6</ele>
        <time>2026-05-12T09:54:22Z</time>
      </trkpt>
      <trkpt lat="45.97337" lon="5.632">
        <ele>1088.8</ele>
        <time>2026-05-12T09:54:23Z</time>
      </trkpt>
      <trkpt lat="45.97335" lon="5.632">
        <ele>1088.8</ele>
        <time>2026-05-12T09:54:24Z</time>
      </trkpt>
      <trkpt lat="45.97334" lon="5.632">
        <ele>1089.2</ele>
        <time>2026-05-12T09:54:25Z</time>
      </trkpt>
      <trkpt lat="45.97332" lon="5.63199">
        <ele>1089.2</ele>
        <time>2026-05-12T09:54:26Z</time>
      </trkpt>
      <trkpt lat="45.9733" lon="5.63199">
        <ele>1089.4</ele>
        <time>2026-05-12T09:54:27Z</time>
      </trkpt>
      <trkpt lat="45.97329" lon="5.63199">
        <ele>1089.4</ele>
        <time>2026-05-12T09:54:28Z</time>
      </trkpt>
      <trkpt lat="45.97328" lon="5.63199">
        <ele>1090</ele>
        <time>2026-05-12T09:54:29Z</time>
      </trkpt>
      <trkpt lat="45.97326" lon="5.63199">
        <ele>1090.4</ele>
        <time>2026-05-12T09:54:30Z</time>
      </trkpt>
      <trkpt lat="45.97325" lon="5.63199">
        <ele>1090.4</ele>
        <time>2026-05-12T09:54:31Z</time>
      </trkpt>
      <trkpt lat="45.97323" lon="5.63199">
        <ele>1090.4</ele>
        <time>2026-05-12T09:54:32Z</time>
      </trkpt>
      <trkpt lat="45.97321" lon="5.63198">
        <ele>1090.6</ele>
        <time>2026-05-12T09:54:33Z</time>
      </trkpt>
      <trkpt lat="45.97319" lon="5.63198">
        <ele>1090.8</ele>
        <time>2026-05-12T09:54:34Z</time>
      </trkpt>
      <trkpt lat="45.97319" lon="5.63199">
        <ele>1090.8</ele>
        <time>2026-05-12T09:54:35Z</time>
      </trkpt>
      <trkpt lat="45.9732" lon="5.63199">
        <ele>1090.8</ele>
        <time>2026-05-12T09:54:36Z</time>
      </trkpt>
      <trkpt lat="45.97319" lon="5.63199">
        <ele>1090.8</ele>
        <time>2026-05-12T09:54:37Z</time>
      </trkpt>
      <trkpt lat="45.97318" lon="5.63199">
        <ele>1091.2</ele>
        <time>2026-05-12T09:54:38Z</time>
      </trkpt>
      <trkpt lat="45.97317" lon="5.63199">
        <ele>1091.4</ele>
        <time>2026-05-12T09:54:39Z</time>
      </trkpt>
      <trkpt lat="45.97315" lon="5.63198">
        <ele>1091.6</ele>
        <time>2026-05-12T09:54:40Z</time>
      </trkpt>
      <trkpt lat="45.97313" lon="5.63198">
        <ele>1091.6</ele>
        <time>2026-05-12T09:54:41Z</time>
      </trkpt>
      <trkpt lat="45.9731" lon="5.63198">
        <ele>1091.8</ele>
        <time>2026-05-12T09:54:42Z</time>
      </trkpt>
      <trkpt lat="45.97308" lon="5.63199">
        <ele>1091.8</ele>
        <time>2026-05-12T09:54:43Z</time>
      </trkpt>
      <trkpt lat="45.97306" lon="5.63199">
        <ele>1092.2</ele>
        <time>2026-05-12T09:54:44Z</time>
      </trkpt>
      <trkpt lat="45.97304" lon="5.63198">
        <ele>1092.2</ele>
        <time>2026-05-12T09:54:45Z</time>
      </trkpt>
      <trkpt lat="45.97302" lon="5.63198">
        <ele>1092.2</ele>
        <time>2026-05-12T09:54:46Z</time>
      </trkpt>
      <trkpt lat="45.973" lon="5.63198">
        <ele>1092.6</ele>
        <time>2026-05-12T09:54:47Z</time>
      </trkpt>
      <trkpt lat="45.97298" lon="5.63197">
        <ele>1092.2</ele>
        <time>2026-05-12T09:54:48Z</time>
      </trkpt>
      <trkpt lat="45.97295" lon="5.63198">
        <ele>1092.4</ele>
        <time>2026-05-12T09:54:49Z</time>
      </trkpt>
      <trkpt lat="45.97293" lon="5.63198">
        <ele>1092.8</ele>
        <time>2026-05-12T09:54:50Z</time>
      </trkpt>
      <trkpt lat="45.97291" lon="5.63198">
        <ele>1092.8</ele>
        <time>2026-05-12T09:54:51Z</time>
      </trkpt>
      <trkpt lat="45.97289" lon="5.63198">
        <ele>1093</ele>
        <time>2026-05-12T09:54:52Z</time>
      </trkpt>
      <trkpt lat="45.97287" lon="5.63198">
        <ele>1093.4</ele>
        <time>2026-05-12T09:54:53Z</time>
      </trkpt>
      <trkpt lat="45.97286" lon="5.63198">
        <ele>1093.4</ele>
        <time>2026-05-12T09:54:54Z</time>
      </trkpt>
      <trkpt lat="45.97284" lon="5.63197">
        <ele>1093.6</ele>
        <time>2026-05-12T09:54:55Z</time>
      </trkpt>
      <trkpt lat="45.97283" lon="5.63197">
        <ele>1093.6</ele>
        <time>2026-05-12T09:54:56Z</time>
      </trkpt>
      <trkpt lat="45.97282" lon="5.63197">
        <ele>1093.6</ele>
        <time>2026-05-12T09:54:57Z</time>
      </trkpt>
      <trkpt lat="45.97282" lon="5.63197">
        <ele>1093.6</ele>
        <time>2026-05-12T09:54:58Z</time>
      </trkpt>
      <trkpt lat="45.9728" lon="5.63197">
        <ele>1093.4</ele>
        <time>2026-05-12T09:55:37Z</time>
      </trkpt>
      <trkpt lat="45.97278" lon="5.63196">
        <ele>1093.4</ele>
        <time>2026-05-12T09:55:38Z</time>
      </trkpt>
      <trkpt lat="45.97275" lon="5.63194">
        <ele>1093.4</ele>
        <time>2026-05-12T09:55:39Z</time>
      </trkpt>
      <trkpt lat="45.97273" lon="5.63191">
        <ele>1093.4</ele>
        <time>2026-05-12T09:55:40Z</time>
      </trkpt>
      <trkpt lat="45.9727" lon="5.63189">
        <ele>1093.4</ele>
        <time>2026-05-12T09:55:41Z</time>
      </trkpt>
      <trkpt lat="45.97268" lon="5.63188">
        <ele>1093.4</ele>
        <time>2026-05-12T09:55:42Z</time>
      </trkpt>
      <trkpt lat="45.97266" lon="5.63187">
        <ele>1093.4</ele>
        <time>2026-05-12T09:55:43Z</time>
      </trkpt>
      <trkpt lat="45.97263" lon="5.63187">
        <ele>1093.4</ele>
        <time>2026-05-12T09:55:44Z</time>
      </trkpt>
      <trkpt lat="45.97261" lon="5.63187">
        <ele>1093.4</ele>
        <time>2026-05-12T09:55:45Z</time>
      </trkpt>
      <trkpt lat="45.97258" lon="5.63186">
        <ele>1093.4</ele>
        <time>2026-05-12T09:55:46Z</time>
      </trkpt>
      <trkpt lat="45.97256" lon="5.63186">
        <ele>1093.6</ele>
        <time>2026-05-12T09:55:47Z</time>
      </trkpt>
      <trkpt lat="45.97253" lon="5.63186">
        <ele>1093.6</ele>
        <time>2026-05-12T09:55:48Z</time>
      </trkpt>
      <trkpt lat="45.9725" lon="5.63186">
        <ele>1093.4</ele>
        <time>2026-05-12T09:55:49Z</time>
      </trkpt>
      <trkpt lat="45.97247" lon="5.63186">
        <ele>1093</ele>
        <time>2026-05-12T09:55:50Z</time>
      </trkpt>
      <trkpt lat="45.97244" lon="5.63186">
        <ele>1093</ele>
        <time>2026-05-12T09:55:51Z</time>
      </trkpt>
      <trkpt lat="45.97241" lon="5.63185">
        <ele>1093</ele>
        <time>2026-05-12T09:55:52Z</time>
      </trkpt>
      <trkpt lat="45.97239" lon="5.63184">
        <ele>1093.4</ele>
        <time>2026-05-12T09:55:53Z</time>
      </trkpt>
      <trkpt lat="45.97236" lon="5.63183">
        <ele>1093.4</ele>
        <time>2026-05-12T09:55:54Z</time>
      </trkpt>
      <trkpt lat="45.97233" lon="5.63181">
        <ele>1093.4</ele>
        <time>2026-05-12T09:55:55Z</time>
      </trkpt>
      <trkpt lat="45.97231" lon="5.6318">
        <ele>1093.4</ele>
        <time>2026-05-12T09:55:56Z</time>
      </trkpt>
      <trkpt lat="45.97228" lon="5.63179">
        <ele>1093.4</ele>
        <time>2026-05-12T09:55:57Z</time>
      </trkpt>
      <trkpt lat="45.97225" lon="5.63177">
        <ele>1093.4</ele>
        <time>2026-05-12T09:55:58Z</time>
      </trkpt>
      <trkpt lat="45.97222" lon="5.63176">
        <ele>1093.4</ele>
        <time>2026-05-12T09:55:59Z</time>
      </trkpt>
      <trkpt lat="45.9722" lon="5.63175">
        <ele>1093.4</ele>
        <time>2026-05-12T09:56:00Z</time>
      </trkpt>
      <trkpt lat="45.97217" lon="5.63174">
        <ele>1093.4</ele>
        <time>2026-05-12T09:56:01Z</time>
      </trkpt>
      <trkpt lat="45.97214" lon="5.63174">
        <ele>1093.8</ele>
        <time>2026-05-12T09:56:02Z</time>
      </trkpt>
      <trkpt lat="45.97212" lon="5.63173">
        <ele>1093.8</ele>
        <time>2026-05-12T09:56:03Z</time>
      </trkpt>
      <trkpt lat="45.97209" lon="5.63171">
        <ele>1093.8</ele>
        <time>2026-05-12T09:56:04Z</time>
      </trkpt>
      <trkpt lat="45.97207" lon="5.63169">
        <ele>1093.8</ele>
        <time>2026-05-12T09:56:05Z</time>
      </trkpt>
      <trkpt lat="45.97204" lon="5.63165">
        <ele>1093.8</ele>
        <time>2026-05-12T09:56:06Z</time>
      </trkpt>
      <trkpt lat="45.97201" lon="5.63162">
        <ele>1094</ele>
        <time>2026-05-12T09:56:07Z</time>
      </trkpt>
      <trkpt lat="45.97198" lon="5.63159">
        <ele>1094.6</ele>
        <time>2026-05-12T09:56:08Z</time>
      </trkpt>
      <trkpt lat="45.97195" lon="5.63157">
        <ele>1094.2</ele>
        <time>2026-05-12T09:56:09Z</time>
      </trkpt>
      <trkpt lat="45.97192" lon="5.63156">
        <ele>1094.6</ele>
        <time>2026-05-12T09:56:10Z</time>
      </trkpt>
      <trkpt lat="45.97189" lon="5.63156">
        <ele>1094.6</ele>
        <time>2026-05-12T09:56:11Z</time>
      </trkpt>
      <trkpt lat="45.97187" lon="5.63157">
        <ele>1094.6</ele>
        <time>2026-05-12T09:56:12Z</time>
      </trkpt>
      <trkpt lat="45.97183" lon="5.63157">
        <ele>1094.6</ele>
        <time>2026-05-12T09:56:13Z</time>
      </trkpt>
      <trkpt lat="45.97181" lon="5.63158">
        <ele>1094.6</ele>
        <time>2026-05-12T09:56:14Z</time>
      </trkpt>
      <trkpt lat="45.97178" lon="5.63158">
        <ele>1095</ele>
        <time>2026-05-12T09:56:15Z</time>
      </trkpt>
      <trkpt lat="45.97176" lon="5.63158">
        <ele>1094.6</ele>
        <time>2026-05-12T09:56:16Z</time>
      </trkpt>
      <trkpt lat="45.97174" lon="5.63159">
        <ele>1094.8</ele>
        <time>2026-05-12T09:56:17Z</time>
      </trkpt>
      <trkpt lat="45.97171" lon="5.63159">
        <ele>1094.8</ele>
        <time>2026-05-12T09:56:18Z</time>
      </trkpt>
      <trkpt lat="45.97169" lon="5.63159">
        <ele>1095.2</ele>
        <time>2026-05-12T09:56:19Z</time>
      </trkpt>
      <trkpt lat="45.97167" lon="5.63159">
        <ele>1095.6</ele>
        <time>2026-05-12T09:56:20Z</time>
      </trkpt>
      <trkpt lat="45.97164" lon="5.63159">
        <ele>1095.8</ele>
        <time>2026-05-12T09:56:21Z</time>
      </trkpt>
      <trkpt lat="45.97161" lon="5.63159">
        <ele>1096</ele>
        <time>2026-05-12T09:56:22Z</time>
      </trkpt>
      <trkpt lat="45.97158" lon="5.63159">
        <ele>1096.4</ele>
        <time>2026-05-12T09:56:23Z</time>
      </trkpt>
      <trkpt lat="45.97156" lon="5.63159">
        <ele>1096.4</ele>
        <time>2026-05-12T09:56:24Z</time>
      </trkpt>
      <trkpt lat="45.97153" lon="5.63159">
        <ele>1096.8</ele>
        <time>2026-05-12T09:56:25Z</time>
      </trkpt>
      <trkpt lat="45.97151" lon="5.63159">
        <ele>1096.8</ele>
        <time>2026-05-12T09:56:26Z</time>
      </trkpt>
      <trkpt lat="45.97149" lon="5.63159">
        <ele>1096.8</ele>
        <time>2026-05-12T09:56:27Z</time>
      </trkpt>
      <trkpt lat="45.97146" lon="5.6316">
        <ele>1096.8</ele>
        <time>2026-05-12T09:56:28Z</time>
      </trkpt>
      <trkpt lat="45.97144" lon="5.6316">
        <ele>1096.8</ele>
        <time>2026-05-12T09:56:29Z</time>
      </trkpt>
      <trkpt lat="45.97142" lon="5.63161">
        <ele>1096.8</ele>
        <time>2026-05-12T09:56:30Z</time>
      </trkpt>
      <trkpt lat="45.97139" lon="5.63161">
        <ele>1096.8</ele>
        <time>2026-05-12T09:56:31Z</time>
      </trkpt>
      <trkpt lat="45.97136" lon="5.63162">
        <ele>1096.8</ele>
        <time>2026-05-12T09:56:32Z</time>
      </trkpt>
      <trkpt lat="45.97134" lon="5.63162">
        <ele>1096.8</ele>
        <time>2026-05-12T09:56:33Z</time>
      </trkpt>
      <trkpt lat="45.97132" lon="5.63162">
        <ele>1096.6</ele>
        <time>2026-05-12T09:56:34Z</time>
      </trkpt>
      <trkpt lat="45.97129" lon="5.63163">
        <ele>1096.6</ele>
        <time>2026-05-12T09:56:35Z</time>
      </trkpt>
      <trkpt lat="45.97126" lon="5.63163">
        <ele>1096.6</ele>
        <time>2026-05-12T09:56:36Z</time>
      </trkpt>
      <trkpt lat="45.97123" lon="5.63163">
        <ele>1096.8</ele>
        <time>2026-05-12T09:56:37Z</time>
      </trkpt>
      <trkpt lat="45.97121" lon="5.63162">
        <ele>1096.8</ele>
        <time>2026-05-12T09:56:38Z</time>
      </trkpt>
      <trkpt lat="45.97118" lon="5.63162">
        <ele>1097.2</ele>
        <time>2026-05-12T09:56:39Z</time>
      </trkpt>
      <trkpt lat="45.97115" lon="5.63162">
        <ele>1097.2</ele>
        <time>2026-05-12T09:56:40Z</time>
      </trkpt>
      <trkpt lat="45.97113" lon="5.63162">
        <ele>1096.6</ele>
        <time>2026-05-12T09:56:41Z</time>
      </trkpt>
      <trkpt lat="45.9711" lon="5.63162">
        <ele>1097</ele>
        <time>2026-05-12T09:56:42Z</time>
      </trkpt>
      <trkpt lat="45.97108" lon="5.63162">
        <ele>1097.6</ele>
        <time>2026-05-12T09:56:43Z</time>
      </trkpt>
      <trkpt lat="45.97105" lon="5.63162">
        <ele>1097.8</ele>
        <time>2026-05-12T09:56:44Z</time>
      </trkpt>
      <trkpt lat="45.97103" lon="5.63162">
        <ele>1098</ele>
        <time>2026-05-12T09:56:45Z</time>
      </trkpt>
      <trkpt lat="45.971" lon="5.63162">
        <ele>1098</ele>
        <time>2026-05-12T09:56:46Z</time>
      </trkpt>
      <trkpt lat="45.97098" lon="5.63162">
        <ele>1098</ele>
        <time>2026-05-12T09:56:47Z</time>
      </trkpt>
      <trkpt lat="45.97096" lon="5.63162">
        <ele>1098.6</ele>
        <time>2026-05-12T09:56:48Z</time>
      </trkpt>
      <trkpt lat="45.97094" lon="5.63162">
        <ele>1099</ele>
        <time>2026-05-12T09:56:49Z</time>
      </trkpt>
      <trkpt lat="45.97092" lon="5.63162">
        <ele>1099.2</ele>
        <time>2026-05-12T09:56:50Z</time>
      </trkpt>
      <trkpt lat="45.97091" lon="5.63162">
        <ele>1099.4</ele>
        <time>2026-05-12T09:56:51Z</time>
      </trkpt>
      <trkpt lat="45.97089" lon="5.63162">
        <ele>1099.8</ele>
        <time>2026-05-12T09:56:52Z</time>
      </trkpt>
      <trkpt lat="45.97087" lon="5.63162">
        <ele>1099.8</ele>
        <time>2026-05-12T09:56:53Z</time>
      </trkpt>
      <trkpt lat="45.97086" lon="5.63162">
        <ele>1100.2</ele>
        <time>2026-05-12T09:56:54Z</time>
      </trkpt>
      <trkpt lat="45.97084" lon="5.63162">
        <ele>1100.2</ele>
        <time>2026-05-12T09:56:55Z</time>
      </trkpt>
      <trkpt lat="45.97083" lon="5.63162">
        <ele>1100.6</ele>
        <time>2026-05-12T09:56:56Z</time>
      </trkpt>
      <trkpt lat="45.97081" lon="5.63162">
        <ele>1100.8</ele>
        <time>2026-05-12T09:56:57Z</time>
      </trkpt>
      <trkpt lat="45.97079" lon="5.63162">
        <ele>1101.2</ele>
        <time>2026-05-12T09:56:58Z</time>
      </trkpt>
      <trkpt lat="45.97077" lon="5.63162">
        <ele>1101.2</ele>
        <time>2026-05-12T09:56:59Z</time>
      </trkpt>
      <trkpt lat="45.97076" lon="5.63162">
        <ele>1101.2</ele>
        <time>2026-05-12T09:57:00Z</time>
      </trkpt>
      <trkpt lat="45.97075" lon="5.63162">
        <ele>1101.6</ele>
        <time>2026-05-12T09:57:01Z</time>
      </trkpt>
      <trkpt lat="45.97073" lon="5.63162">
        <ele>1101.6</ele>
        <time>2026-05-12T09:57:02Z</time>
      </trkpt>
      <trkpt lat="45.97071" lon="5.63162">
        <ele>1101.6</ele>
        <time>2026-05-12T09:57:03Z</time>
      </trkpt>
      <trkpt lat="45.97069" lon="5.63162">
        <ele>1102.2</ele>
        <time>2026-05-12T09:57:04Z</time>
      </trkpt>
      <trkpt lat="45.97068" lon="5.63162">
        <ele>1102.2</ele>
        <time>2026-05-12T09:57:05Z</time>
      </trkpt>
      <trkpt lat="45.97066" lon="5.63162">
        <ele>1102.2</ele>
        <time>2026-05-12T09:57:06Z</time>
      </trkpt>
      <trkpt lat="45.97064" lon="5.63162">
        <ele>1102.4</ele>
        <time>2026-05-12T09:57:07Z</time>
      </trkpt>
      <trkpt lat="45.97063" lon="5.63162">
        <ele>1102.4</ele>
        <time>2026-05-12T09:57:08Z</time>
      </trkpt>
      <trkpt lat="45.97061" lon="5.63161">
        <ele>1102.6</ele>
        <time>2026-05-12T09:57:09Z</time>
      </trkpt>
      <trkpt lat="45.97059" lon="5.6316">
        <ele>1102.8</ele>
        <time>2026-05-12T09:57:10Z</time>
      </trkpt>
      <trkpt lat="45.97058" lon="5.63159">
        <ele>1103.2</ele>
        <time>2026-05-12T09:57:11Z</time>
      </trkpt>
      <trkpt lat="45.97056" lon="5.63159">
        <ele>1103.4</ele>
        <time>2026-05-12T09:57:12Z</time>
      </trkpt>
      <trkpt lat="45.97055" lon="5.63158">
        <ele>1103.4</ele>
        <time>2026-05-12T09:57:13Z</time>
      </trkpt>
      <trkpt lat="45.97053" lon="5.63158">
        <ele>1103.4</ele>
        <time>2026-05-12T09:57:14Z</time>
      </trkpt>
      <trkpt lat="45.97051" lon="5.63158">
        <ele>1103.4</ele>
        <time>2026-05-12T09:57:15Z</time>
      </trkpt>
      <trkpt lat="45.97049" lon="5.63158">
        <ele>1103.8</ele>
        <time>2026-05-12T09:57:16Z</time>
      </trkpt>
      <trkpt lat="45.97048" lon="5.63158">
        <ele>1104.2</ele>
        <time>2026-05-12T09:57:17Z</time>
      </trkpt>
      <trkpt lat="45.97047" lon="5.63158">
        <ele>1104.2</ele>
        <time>2026-05-12T09:57:18Z</time>
      </trkpt>
      <trkpt lat="45.97045" lon="5.63158">
        <ele>1104.8</ele>
        <time>2026-05-12T09:57:19Z</time>
      </trkpt>
      <trkpt lat="45.97043" lon="5.63157">
        <ele>1105</ele>
        <time>2026-05-12T09:57:20Z</time>
      </trkpt>
      <trkpt lat="45.97041" lon="5.63156">
        <ele>1105</ele>
        <time>2026-05-12T09:57:21Z</time>
      </trkpt>
      <trkpt lat="45.9704" lon="5.63155">
        <ele>1105.4</ele>
        <time>2026-05-12T09:57:22Z</time>
      </trkpt>
      <trkpt lat="45.97038" lon="5.63154">
        <ele>1105.4</ele>
        <time>2026-05-12T09:57:23Z</time>
      </trkpt>
      <trkpt lat="45.97037" lon="5.63153">
        <ele>1105.8</ele>
        <time>2026-05-12T09:57:24Z</time>
      </trkpt>
      <trkpt lat="45.97035" lon="5.63152">
        <ele>1105.8</ele>
        <time>2026-05-12T09:57:25Z</time>
      </trkpt>
      <trkpt lat="45.97034" lon="5.63152">
        <ele>1106</ele>
        <time>2026-05-12T09:57:26Z</time>
      </trkpt>
      <trkpt lat="45.97033" lon="5.63151">
        <ele>1106.4</ele>
        <time>2026-05-12T09:57:27Z</time>
      </trkpt>
      <trkpt lat="45.97032" lon="5.63151">
        <ele>1106.4</ele>
        <time>2026-05-12T09:57:28Z</time>
      </trkpt>
      <trkpt lat="45.9703" lon="5.6315">
        <ele>1106.6</ele>
        <time>2026-05-12T09:57:29Z</time>
      </trkpt>
      <trkpt lat="45.97028" lon="5.6315">
        <ele>1107</ele>
        <time>2026-05-12T09:57:30Z</time>
      </trkpt>
      <trkpt lat="45.97027" lon="5.6315">
        <ele>1107.2</ele>
        <time>2026-05-12T09:57:31Z</time>
      </trkpt>
      <trkpt lat="45.97025" lon="5.6315">
        <ele>1107.2</ele>
        <time>2026-05-12T09:57:32Z</time>
      </trkpt>
      <trkpt lat="45.97023" lon="5.63149">
        <ele>1107.6</ele>
        <time>2026-05-12T09:57:33Z</time>
      </trkpt>
      <trkpt lat="45.97021" lon="5.63149">
        <ele>1108</ele>
        <time>2026-05-12T09:57:34Z</time>
      </trkpt>
      <trkpt lat="45.9702" lon="5.63149">
        <ele>1108</ele>
        <time>2026-05-12T09:57:35Z</time>
      </trkpt>
      <trkpt lat="45.97018" lon="5.63149">
        <ele>1108</ele>
        <time>2026-05-12T09:57:36Z</time>
      </trkpt>
      <trkpt lat="45.97017" lon="5.63149">
        <ele>1108.2</ele>
        <time>2026-05-12T09:57:37Z</time>
      </trkpt>
      <trkpt lat="45.97016" lon="5.63148">
        <ele>1108.2</ele>
        <time>2026-05-12T09:57:38Z</time>
      </trkpt>
      <trkpt lat="45.97014" lon="5.63147">
        <ele>1108.6</ele>
        <time>2026-05-12T09:57:39Z</time>
      </trkpt>
      <trkpt lat="45.97013" lon="5.63147">
        <ele>1108.6</ele>
        <time>2026-05-12T09:57:40Z</time>
      </trkpt>
      <trkpt lat="45.97012" lon="5.63147">
        <ele>1109</ele>
        <time>2026-05-12T09:57:41Z</time>
      </trkpt>
      <trkpt lat="45.97011" lon="5.63147">
        <ele>1109</ele>
        <time>2026-05-12T09:57:42Z</time>
      </trkpt>
      <trkpt lat="45.97009" lon="5.63147">
        <ele>1109.2</ele>
        <time>2026-05-12T09:57:43Z</time>
      </trkpt>
      <trkpt lat="45.97007" lon="5.63147">
        <ele>1109.6</ele>
        <time>2026-05-12T09:57:44Z</time>
      </trkpt>
      <trkpt lat="45.97005" lon="5.63147">
        <ele>1109.6</ele>
        <time>2026-05-12T09:57:45Z</time>
      </trkpt>
      <trkpt lat="45.97004" lon="5.63147">
        <ele>1110.2</ele>
        <time>2026-05-12T09:57:46Z</time>
      </trkpt>
      <trkpt lat="45.97003" lon="5.63147">
        <ele>1110.4</ele>
        <time>2026-05-12T09:57:47Z</time>
      </trkpt>
      <trkpt lat="45.97001" lon="5.63147">
        <ele>1110.4</ele>
        <time>2026-05-12T09:57:48Z</time>
      </trkpt>
      <trkpt lat="45.97" lon="5.63147">
        <ele>1110.8</ele>
        <time>2026-05-12T09:57:49Z</time>
      </trkpt>
      <trkpt lat="45.96998" lon="5.63147">
        <ele>1110.8</ele>
        <time>2026-05-12T09:57:50Z</time>
      </trkpt>
      <trkpt lat="45.96996" lon="5.63147">
        <ele>1111.2</ele>
        <time>2026-05-12T09:57:51Z</time>
      </trkpt>
      <trkpt lat="45.96994" lon="5.63147">
        <ele>1111.4</ele>
        <time>2026-05-12T09:57:52Z</time>
      </trkpt>
      <trkpt lat="45.96992" lon="5.63147">
        <ele>1111.6</ele>
        <time>2026-05-12T09:57:53Z</time>
      </trkpt>
      <trkpt lat="45.96991" lon="5.63147">
        <ele>1111.6</ele>
        <time>2026-05-12T09:57:54Z</time>
      </trkpt>
      <trkpt lat="45.96989" lon="5.63147">
        <ele>1112</ele>
        <time>2026-05-12T09:57:55Z</time>
      </trkpt>
      <trkpt lat="45.96988" lon="5.63146">
        <ele>1112</ele>
        <time>2026-05-12T09:57:56Z</time>
      </trkpt>
      <trkpt lat="45.96986" lon="5.63146">
        <ele>1112.2</ele>
        <time>2026-05-12T09:57:57Z</time>
      </trkpt>
      <trkpt lat="45.96984" lon="5.63145">
        <ele>1112.2</ele>
        <time>2026-05-12T09:57:58Z</time>
      </trkpt>
      <trkpt lat="45.96982" lon="5.63145">
        <ele>1112.6</ele>
        <time>2026-05-12T09:57:59Z</time>
      </trkpt>
      <trkpt lat="45.96981" lon="5.63146">
        <ele>1112.6</ele>
        <time>2026-05-12T09:58:00Z</time>
      </trkpt>
      <trkpt lat="45.9698" lon="5.63146">
        <ele>1113</ele>
        <time>2026-05-12T09:58:01Z</time>
      </trkpt>
      <trkpt lat="45.96978" lon="5.63146">
        <ele>1113</ele>
        <time>2026-05-12T09:58:02Z</time>
      </trkpt>
      <trkpt lat="45.96976" lon="5.63145">
        <ele>1113.4</ele>
        <time>2026-05-12T09:58:03Z</time>
      </trkpt>
      <trkpt lat="45.96975" lon="5.63144">
        <ele>1113.4</ele>
        <time>2026-05-12T09:58:04Z</time>
      </trkpt>
      <trkpt lat="45.96973" lon="5.63143">
        <ele>1113.4</ele>
        <time>2026-05-12T09:58:05Z</time>
      </trkpt>
      <trkpt lat="45.96972" lon="5.63142">
        <ele>1113.6</ele>
        <time>2026-05-12T09:58:06Z</time>
      </trkpt>
      <trkpt lat="45.96971" lon="5.63142">
        <ele>1113.6</ele>
        <time>2026-05-12T09:58:07Z</time>
      </trkpt>
      <trkpt lat="45.96969" lon="5.63141">
        <ele>1113.6</ele>
        <time>2026-05-12T09:58:08Z</time>
      </trkpt>
      <trkpt lat="45.96967" lon="5.63141">
        <ele>1113.6</ele>
        <time>2026-05-12T09:58:09Z</time>
      </trkpt>
      <trkpt lat="45.96966" lon="5.6314">
        <ele>1114.2</ele>
        <time>2026-05-12T09:58:10Z</time>
      </trkpt>
      <trkpt lat="45.96964" lon="5.63139">
        <ele>1114.2</ele>
        <time>2026-05-12T09:58:11Z</time>
      </trkpt>
      <trkpt lat="45.96962" lon="5.63139">
        <ele>1114.2</ele>
        <time>2026-05-12T09:58:12Z</time>
      </trkpt>
      <trkpt lat="45.9696" lon="5.63138">
        <ele>1114.2</ele>
        <time>2026-05-12T09:58:13Z</time>
      </trkpt>
      <trkpt lat="45.96959" lon="5.63138">
        <ele>1114.2</ele>
        <time>2026-05-12T09:58:14Z</time>
      </trkpt>
      <trkpt lat="45.96957" lon="5.63137">
        <ele>1114.2</ele>
        <time>2026-05-12T09:58:15Z</time>
      </trkpt>
      <trkpt lat="45.96955" lon="5.63136">
        <ele>1114.2</ele>
        <time>2026-05-12T09:58:16Z</time>
      </trkpt>
      <trkpt lat="45.96953" lon="5.63136">
        <ele>1114.2</ele>
        <time>2026-05-12T09:58:17Z</time>
      </trkpt>
      <trkpt lat="45.96951" lon="5.63135">
        <ele>1114.2</ele>
        <time>2026-05-12T09:58:18Z</time>
      </trkpt>
      <trkpt lat="45.9695" lon="5.63134">
        <ele>1114.4</ele>
        <time>2026-05-12T09:58:19Z</time>
      </trkpt>
      <trkpt lat="45.96948" lon="5.63134">
        <ele>1114.4</ele>
        <time>2026-05-12T09:58:20Z</time>
      </trkpt>
      <trkpt lat="45.96946" lon="5.63133">
        <ele>1114.4</ele>
        <time>2026-05-12T09:58:21Z</time>
      </trkpt>
      <trkpt lat="45.96944" lon="5.63132">
        <ele>1114.4</ele>
        <time>2026-05-12T09:58:22Z</time>
      </trkpt>
      <trkpt lat="45.96941" lon="5.63132">
        <ele>1114.8</ele>
        <time>2026-05-12T09:58:23Z</time>
      </trkpt>
      <trkpt lat="45.96939" lon="5.63131">
        <ele>1114.8</ele>
        <time>2026-05-12T09:58:24Z</time>
      </trkpt>
      <trkpt lat="45.96937" lon="5.63131">
        <ele>1114.8</ele>
        <time>2026-05-12T09:58:25Z</time>
      </trkpt>
      <trkpt lat="45.96935" lon="5.6313">
        <ele>1114.8</ele>
        <time>2026-05-12T09:58:26Z</time>
      </trkpt>
      <trkpt lat="45.96933" lon="5.6313">
        <ele>1114.8</ele>
        <time>2026-05-12T09:58:27Z</time>
      </trkpt>
      <trkpt lat="45.96931" lon="5.63129">
        <ele>1114.8</ele>
        <time>2026-05-12T09:58:28Z</time>
      </trkpt>
      <trkpt lat="45.96929" lon="5.63129">
        <ele>1114.8</ele>
        <time>2026-05-12T09:58:29Z</time>
      </trkpt>
      <trkpt lat="45.96927" lon="5.63129">
        <ele>1114.8</ele>
        <time>2026-05-12T09:58:30Z</time>
      </trkpt>
      <trkpt lat="45.96925" lon="5.63128">
        <ele>1114.8</ele>
        <time>2026-05-12T09:58:31Z</time>
      </trkpt>
      <trkpt lat="45.96923" lon="5.63128">
        <ele>1114.8</ele>
        <time>2026-05-12T09:58:32Z</time>
      </trkpt>
      <trkpt lat="45.96921" lon="5.63127">
        <ele>1114.8</ele>
        <time>2026-05-12T09:58:33Z</time>
      </trkpt>
      <trkpt lat="45.96919" lon="5.63127">
        <ele>1115</ele>
        <time>2026-05-12T09:58:34Z</time>
      </trkpt>
      <trkpt lat="45.96917" lon="5.63127">
        <ele>1115</ele>
        <time>2026-05-12T09:58:35Z</time>
      </trkpt>
      <trkpt lat="45.96915" lon="5.63126">
        <ele>1115</ele>
        <time>2026-05-12T09:58:36Z</time>
      </trkpt>
      <trkpt lat="45.96913" lon="5.63126">
        <ele>1114.6</ele>
        <time>2026-05-12T09:58:37Z</time>
      </trkpt>
      <trkpt lat="45.9691" lon="5.63126">
        <ele>1114.6</ele>
        <time>2026-05-12T09:58:38Z</time>
      </trkpt>
      <trkpt lat="45.96908" lon="5.63125">
        <ele>1114.6</ele>
        <time>2026-05-12T09:58:39Z</time>
      </trkpt>
      <trkpt lat="45.96906" lon="5.63125">
        <ele>1114.6</ele>
        <time>2026-05-12T09:58:40Z</time>
      </trkpt>
      <trkpt lat="45.96903" lon="5.63124">
        <ele>1114.6</ele>
        <time>2026-05-12T09:58:41Z</time>
      </trkpt>
      <trkpt lat="45.96901" lon="5.63124">
        <ele>1114.6</ele>
        <time>2026-05-12T09:58:42Z</time>
      </trkpt>
      <trkpt lat="45.96898" lon="5.63123">
        <ele>1114.6</ele>
        <time>2026-05-12T09:58:43Z</time>
      </trkpt>
      <trkpt lat="45.96896" lon="5.63123">
        <ele>1114.6</ele>
        <time>2026-05-12T09:58:44Z</time>
      </trkpt>
      <trkpt lat="45.96893" lon="5.63122">
        <ele>1114.2</ele>
        <time>2026-05-12T09:58:45Z</time>
      </trkpt>
      <trkpt lat="45.9689" lon="5.63122">
        <ele>1114.2</ele>
        <time>2026-05-12T09:58:46Z</time>
      </trkpt>
      <trkpt lat="45.96887" lon="5.63121">
        <ele>1114.2</ele>
        <time>2026-05-12T09:58:47Z</time>
      </trkpt>
      <trkpt lat="45.96884" lon="5.63121">
        <ele>1114.6</ele>
        <time>2026-05-12T09:58:48Z</time>
      </trkpt>
      <trkpt lat="45.96882" lon="5.63121">
        <ele>1114.6</ele>
        <time>2026-05-12T09:58:49Z</time>
      </trkpt>
      <trkpt lat="45.96879" lon="5.63119">
        <ele>1114.8</ele>
        <time>2026-05-12T09:58:50Z</time>
      </trkpt>
      <trkpt lat="45.96876" lon="5.63117">
        <ele>1114.8</ele>
        <time>2026-05-12T09:58:51Z</time>
      </trkpt>
      <trkpt lat="45.96874" lon="5.63116">
        <ele>1115.2</ele>
        <time>2026-05-12T09:58:52Z</time>
      </trkpt>
      <trkpt lat="45.96872" lon="5.63116">
        <ele>1115</ele>
        <time>2026-05-12T09:58:53Z</time>
      </trkpt>
      <trkpt lat="45.96869" lon="5.63116">
        <ele>1115</ele>
        <time>2026-05-12T09:58:54Z</time>
      </trkpt>
      <trkpt lat="45.96867" lon="5.63115">
        <ele>1115.2</ele>
        <time>2026-05-12T09:58:55Z</time>
      </trkpt>
      <trkpt lat="45.96861" lon="5.63114">
        <ele>1115.4</ele>
        <time>2026-05-12T09:58:56Z</time>
      </trkpt>
      <trkpt lat="45.96858" lon="5.63113">
        <ele>1115.4</ele>
        <time>2026-05-12T09:58:57Z</time>
      </trkpt>
      <trkpt lat="45.96856" lon="5.63112">
        <ele>1115.4</ele>
        <time>2026-05-12T09:58:58Z</time>
      </trkpt>
      <trkpt lat="45.96854" lon="5.63112">
        <ele>1115.4</ele>
        <time>2026-05-12T09:58:59Z</time>
      </trkpt>
      <trkpt lat="45.96851" lon="5.63112">
        <ele>1115.4</ele>
        <time>2026-05-12T09:59:00Z</time>
      </trkpt>
      <trkpt lat="45.96847" lon="5.63112">
        <ele>1115.4</ele>
        <time>2026-05-12T09:59:01Z</time>
      </trkpt>
      <trkpt lat="45.96844" lon="5.63111">
        <ele>1115.4</ele>
        <time>2026-05-12T09:59:02Z</time>
      </trkpt>
      <trkpt lat="45.96841" lon="5.6311">
        <ele>1115.4</ele>
        <time>2026-05-12T09:59:03Z</time>
      </trkpt>
      <trkpt lat="45.96838" lon="5.63109">
        <ele>1115.2</ele>
        <time>2026-05-12T09:59:04Z</time>
      </trkpt>
      <trkpt lat="45.96835" lon="5.63109">
        <ele>1115.2</ele>
        <time>2026-05-12T09:59:05Z</time>
      </trkpt>
      <trkpt lat="45.96831" lon="5.63109">
        <ele>1114</ele>
        <time>2026-05-12T09:59:06Z</time>
      </trkpt>
      <trkpt lat="45.96827" lon="5.63108">
        <ele>1114</ele>
        <time>2026-05-12T09:59:07Z</time>
      </trkpt>
      <trkpt lat="45.96823" lon="5.63107">
        <ele>1115</ele>
        <time>2026-05-12T09:59:08Z</time>
      </trkpt>
      <trkpt lat="45.96819" lon="5.63106">
        <ele>1114.8</ele>
        <time>2026-05-12T09:59:09Z</time>
      </trkpt>
      <trkpt lat="45.96815" lon="5.63106">
        <ele>1115</ele>
        <time>2026-05-12T09:59:10Z</time>
      </trkpt>
      <trkpt lat="45.96811" lon="5.63106">
        <ele>1114.4</ele>
        <time>2026-05-12T09:59:11Z</time>
      </trkpt>
      <trkpt lat="45.96807" lon="5.63106">
        <ele>1114.4</ele>
        <time>2026-05-12T09:59:12Z</time>
      </trkpt>
      <trkpt lat="45.96803" lon="5.63105">
        <ele>1114</ele>
        <time>2026-05-12T09:59:13Z</time>
      </trkpt>
      <trkpt lat="45.96799" lon="5.63105">
        <ele>1114</ele>
        <time>2026-05-12T09:59:14Z</time>
      </trkpt>
      <trkpt lat="45.96795" lon="5.63105">
        <ele>1113.6</ele>
        <time>2026-05-12T09:59:15Z</time>
      </trkpt>
      <trkpt lat="45.96791" lon="5.63104">
        <ele>1113.8</ele>
        <time>2026-05-12T09:59:16Z</time>
      </trkpt>
      <trkpt lat="45.96787" lon="5.63103">
        <ele>1114</ele>
        <time>2026-05-12T09:59:17Z</time>
      </trkpt>
      <trkpt lat="45.96783" lon="5.63103">
        <ele>1113.8</ele>
        <time>2026-05-12T09:59:18Z</time>
      </trkpt>
      <trkpt lat="45.96779" lon="5.63101">
        <ele>1113.4</ele>
        <time>2026-05-12T09:59:19Z</time>
      </trkpt>
      <trkpt lat="45.96775" lon="5.631">
        <ele>1113.6</ele>
        <time>2026-05-12T09:59:20Z</time>
      </trkpt>
      <trkpt lat="45.96771" lon="5.63099">
        <ele>1113.2</ele>
        <time>2026-05-12T09:59:21Z</time>
      </trkpt>
      <trkpt lat="45.96767" lon="5.63098">
        <ele>1113.2</ele>
        <time>2026-05-12T09:59:22Z</time>
      </trkpt>
      <trkpt lat="45.96763" lon="5.63097">
        <ele>1112.8</ele>
        <time>2026-05-12T09:59:23Z</time>
      </trkpt>
      <trkpt lat="45.96759" lon="5.63095">
        <ele>1113.4</ele>
        <time>2026-05-12T09:59:24Z</time>
      </trkpt>
      <trkpt lat="45.96754" lon="5.63095">
        <ele>1113.2</ele>
        <time>2026-05-12T09:59:25Z</time>
      </trkpt>
      <trkpt lat="45.9675" lon="5.63094">
        <ele>1113.2</ele>
        <time>2026-05-12T09:59:26Z</time>
      </trkpt>
      <trkpt lat="45.96746" lon="5.63092">
        <ele>1113</ele>
        <time>2026-05-12T09:59:27Z</time>
      </trkpt>
      <trkpt lat="45.96741" lon="5.63091">
        <ele>1112.4</ele>
        <time>2026-05-12T09:59:28Z</time>
      </trkpt>
      <trkpt lat="45.96735" lon="5.6309">
        <ele>1112.4</ele>
        <time>2026-05-12T09:59:29Z</time>
      </trkpt>
      <trkpt lat="45.9673" lon="5.63089">
        <ele>1112</ele>
        <time>2026-05-12T09:59:30Z</time>
      </trkpt>
      <trkpt lat="45.96726" lon="5.63088">
        <ele>1112</ele>
        <time>2026-05-12T09:59:31Z</time>
      </trkpt>
      <trkpt lat="45.9672" lon="5.63087">
        <ele>1111.6</ele>
        <time>2026-05-12T09:59:32Z</time>
      </trkpt>
      <trkpt lat="45.9672" lon="5.63087">
        <ele>1111.6</ele>
        <time>2026-05-12T09:59:33Z</time>
      </trkpt>
      <trkpt lat="45.96715" lon="5.63087">
        <ele>1112.4</ele>
        <time>2026-05-12T09:59:34Z</time>
      </trkpt>
      <trkpt lat="45.96711" lon="5.63086">
        <ele>1112</ele>
        <time>2026-05-12T09:59:35Z</time>
      </trkpt>
      <trkpt lat="45.96707" lon="5.63086">
        <ele>1112</ele>
        <time>2026-05-12T09:59:36Z</time>
      </trkpt>
      <trkpt lat="45.96702" lon="5.63086">
        <ele>1112</ele>
        <time>2026-05-12T09:59:37Z</time>
      </trkpt>
      <trkpt lat="45.96698" lon="5.63086">
        <ele>1112.4</ele>
        <time>2026-05-12T09:59:38Z</time>
      </trkpt>
      <trkpt lat="45.96694" lon="5.63086">
        <ele>1112.4</ele>
        <time>2026-05-12T09:59:39Z</time>
      </trkpt>
      <trkpt lat="45.9669" lon="5.63086">
        <ele>1112.4</ele>
        <time>2026-05-12T09:59:40Z</time>
      </trkpt>
      <trkpt lat="45.96686" lon="5.63088">
        <ele>1112.4</ele>
        <time>2026-05-12T09:59:41Z</time>
      </trkpt>
      <trkpt lat="45.96682" lon="5.63088">
        <ele>1112.6</ele>
        <time>2026-05-12T09:59:42Z</time>
      </trkpt>
      <trkpt lat="45.9668" lon="5.63088">
        <ele>1112.6</ele>
        <time>2026-05-12T09:59:43Z</time>
      </trkpt>
      <trkpt lat="45.96679" lon="5.63088">
        <ele>1112.6</ele>
        <time>2026-05-12T09:59:44Z</time>
      </trkpt>
      <trkpt lat="45.96678" lon="5.63088">
        <ele>1112.6</ele>
        <time>2026-05-12T09:59:45Z</time>
      </trkpt>
      <trkpt lat="45.96679" lon="5.63089">
        <ele>1112.6</ele>
        <time>2026-05-12T09:59:46Z</time>
      </trkpt>
      <trkpt lat="45.96679" lon="5.63085">
        <ele>1112.8</ele>
        <time>2026-05-12T10:00:23Z</time>
      </trkpt>
      <trkpt lat="45.96676" lon="5.63086">
        <ele>1112.8</ele>
        <time>2026-05-12T10:00:24Z</time>
      </trkpt>
      <trkpt lat="45.96672" lon="5.63086">
        <ele>1112.4</ele>
        <time>2026-05-12T10:00:25Z</time>
      </trkpt>
      <trkpt lat="45.96669" lon="5.63086">
        <ele>1112.4</ele>
        <time>2026-05-12T10:00:26Z</time>
      </trkpt>
      <trkpt lat="45.96663" lon="5.63087">
        <ele>1112.6</ele>
        <time>2026-05-12T10:00:27Z</time>
      </trkpt>
      <trkpt lat="45.96658" lon="5.63086">
        <ele>1112.4</ele>
        <time>2026-05-12T10:00:28Z</time>
      </trkpt>
      <trkpt lat="45.96653" lon="5.63087">
        <ele>1112.8</ele>
        <time>2026-05-12T10:00:29Z</time>
      </trkpt>
      <trkpt lat="45.96649" lon="5.63086">
        <ele>1112.8</ele>
        <time>2026-05-12T10:00:30Z</time>
      </trkpt>
      <trkpt lat="45.96644" lon="5.63086">
        <ele>1112.8</ele>
        <time>2026-05-12T10:00:31Z</time>
      </trkpt>
      <trkpt lat="45.96639" lon="5.63087">
        <ele>1112.8</ele>
        <time>2026-05-12T10:00:32Z</time>
      </trkpt>
      <trkpt lat="45.96636" lon="5.63085">
        <ele>1112.8</ele>
        <time>2026-05-12T10:00:33Z</time>
      </trkpt>
      <trkpt lat="45.96629" lon="5.63085">
        <ele>1112.4</ele>
        <time>2026-05-12T10:00:34Z</time>
      </trkpt>
      <trkpt lat="45.96627" lon="5.63085">
        <ele>1112.8</ele>
        <time>2026-05-12T10:00:35Z</time>
      </trkpt>
      <trkpt lat="45.96623" lon="5.63083">
        <ele>1113.4</ele>
        <time>2026-05-12T10:00:36Z</time>
      </trkpt>
      <trkpt lat="45.96619" lon="5.63088">
        <ele>1113.4</ele>
        <time>2026-05-12T10:00:37Z</time>
      </trkpt>
      <trkpt lat="45.96616" lon="5.63088">
        <ele>1113</ele>
        <time>2026-05-12T10:00:38Z</time>
      </trkpt>
      <trkpt lat="45.96612" lon="5.63085">
        <ele>1113</ele>
        <time>2026-05-12T10:00:39Z</time>
      </trkpt>
      <trkpt lat="45.96608" lon="5.63085">
        <ele>1113.6</ele>
        <time>2026-05-12T10:00:40Z</time>
      </trkpt>
      <trkpt lat="45.96604" lon="5.63086">
        <ele>1113.6</ele>
        <time>2026-05-12T10:00:41Z</time>
      </trkpt>
      <trkpt lat="45.96599" lon="5.63087">
        <ele>1113.6</ele>
        <time>2026-05-12T10:00:42Z</time>
      </trkpt>
      <trkpt lat="45.96593" lon="5.63084">
        <ele>1113.8</ele>
        <time>2026-05-12T10:00:43Z</time>
      </trkpt>
      <trkpt lat="45.96588" lon="5.63083">
        <ele>1113.8</ele>
        <time>2026-05-12T10:00:44Z</time>
      </trkpt>
      <trkpt lat="45.96584" lon="5.63082">
        <ele>1114.6</ele>
        <time>2026-05-12T10:00:45Z</time>
      </trkpt>
      <trkpt lat="45.9658" lon="5.63083">
        <ele>1114.2</ele>
        <time>2026-05-12T10:00:46Z</time>
      </trkpt>
      <trkpt lat="45.96574" lon="5.63083">
        <ele>1114.2</ele>
        <time>2026-05-12T10:00:47Z</time>
      </trkpt>
      <trkpt lat="45.9657" lon="5.63084">
        <ele>1114.6</ele>
        <time>2026-05-12T10:00:48Z</time>
      </trkpt>
      <trkpt lat="45.96565" lon="5.63083">
        <ele>1114.2</ele>
        <time>2026-05-12T10:00:49Z</time>
      </trkpt>
      <trkpt lat="45.96559" lon="5.63084">
        <ele>1114</ele>
        <time>2026-05-12T10:00:50Z</time>
      </trkpt>
      <trkpt lat="45.96555" lon="5.63083">
        <ele>1114.2</ele>
        <time>2026-05-12T10:00:51Z</time>
      </trkpt>
      <trkpt lat="45.9655" lon="5.63085">
        <ele>1114.6</ele>
        <time>2026-05-12T10:00:52Z</time>
      </trkpt>
      <trkpt lat="45.96544" lon="5.63085">
        <ele>1114.6</ele>
        <time>2026-05-12T10:00:53Z</time>
      </trkpt>
      <trkpt lat="45.96538" lon="5.63085">
        <ele>1114.2</ele>
        <time>2026-05-12T10:00:54Z</time>
      </trkpt>
      <trkpt lat="45.96533" lon="5.63085">
        <ele>1114</ele>
        <time>2026-05-12T10:00:55Z</time>
      </trkpt>
      <trkpt lat="45.96528" lon="5.63086">
        <ele>1113.4</ele>
        <time>2026-05-12T10:00:56Z</time>
      </trkpt>
      <trkpt lat="45.96523" lon="5.63088">
        <ele>1113.2</ele>
        <time>2026-05-12T10:00:57Z</time>
      </trkpt>
      <trkpt lat="45.96518" lon="5.63087">
        <ele>1112.8</ele>
        <time>2026-05-12T10:00:58Z</time>
      </trkpt>
      <trkpt lat="45.96512" lon="5.63088">
        <ele>1112.4</ele>
        <time>2026-05-12T10:00:59Z</time>
      </trkpt>
      <trkpt lat="45.96506" lon="5.6309">
        <ele>1112</ele>
        <time>2026-05-12T10:01:00Z</time>
      </trkpt>
      <trkpt lat="45.965" lon="5.6309">
        <ele>1112</ele>
        <time>2026-05-12T10:01:01Z</time>
      </trkpt>
      <trkpt lat="45.96494" lon="5.63091">
        <ele>1112</ele>
        <time>2026-05-12T10:01:02Z</time>
      </trkpt>
      <trkpt lat="45.96487" lon="5.63092">
        <ele>1111.8</ele>
        <time>2026-05-12T10:01:03Z</time>
      </trkpt>
      <trkpt lat="45.96481" lon="5.63093">
        <ele>1111.8</ele>
        <time>2026-05-12T10:01:04Z</time>
      </trkpt>
      <trkpt lat="45.96475" lon="5.63094">
        <ele>1111.8</ele>
        <time>2026-05-12T10:01:05Z</time>
      </trkpt>
      <trkpt lat="45.96469" lon="5.63095">
        <ele>1111.8</ele>
        <time>2026-05-12T10:01:06Z</time>
      </trkpt>
      <trkpt lat="45.96463" lon="5.63096">
        <ele>1111.8</ele>
        <time>2026-05-12T10:01:07Z</time>
      </trkpt>
      <trkpt lat="45.96458" lon="5.63097">
        <ele>1110.4</ele>
        <time>2026-05-12T10:01:08Z</time>
      </trkpt>
      <trkpt lat="45.96453" lon="5.63098">
        <ele>1110.4</ele>
        <time>2026-05-12T10:01:09Z</time>
      </trkpt>
      <trkpt lat="45.96448" lon="5.63099">
        <ele>1110.8</ele>
        <time>2026-05-12T10:01:10Z</time>
      </trkpt>
      <trkpt lat="45.96443" lon="5.63101">
        <ele>1111.4</ele>
        <time>2026-05-12T10:01:11Z</time>
      </trkpt>
      <trkpt lat="45.96438" lon="5.63102">
        <ele>1111.6</ele>
        <time>2026-05-12T10:01:12Z</time>
      </trkpt>
      <trkpt lat="45.96432" lon="5.63102">
        <ele>1109.6</ele>
        <time>2026-05-12T10:01:13Z</time>
      </trkpt>
      <trkpt lat="45.96425" lon="5.63102">
        <ele>1109.6</ele>
        <time>2026-05-12T10:01:14Z</time>
      </trkpt>
      <trkpt lat="45.96418" lon="5.63102">
        <ele>1109</ele>
        <time>2026-05-12T10:01:15Z</time>
      </trkpt>
      <trkpt lat="45.96412" lon="5.63101">
        <ele>1107.8</ele>
        <time>2026-05-12T10:01:16Z</time>
      </trkpt>
      <trkpt lat="45.96406" lon="5.63101">
        <ele>1107.6</ele>
        <time>2026-05-12T10:01:17Z</time>
      </trkpt>
      <trkpt lat="45.96399" lon="5.631">
        <ele>1107</ele>
        <time>2026-05-12T10:01:18Z</time>
      </trkpt>
      <trkpt lat="45.96393" lon="5.63099">
        <ele>1106.2</ele>
        <time>2026-05-12T10:01:19Z</time>
      </trkpt>
      <trkpt lat="45.96388" lon="5.63099">
        <ele>1105.6</ele>
        <time>2026-05-12T10:01:20Z</time>
      </trkpt>
      <trkpt lat="45.96382" lon="5.63099">
        <ele>1105.6</ele>
        <time>2026-05-12T10:01:21Z</time>
      </trkpt>
      <trkpt lat="45.96376" lon="5.63099">
        <ele>1104.8</ele>
        <time>2026-05-12T10:01:22Z</time>
      </trkpt>
      <trkpt lat="45.9637" lon="5.63099">
        <ele>1104.4</ele>
        <time>2026-05-12T10:01:23Z</time>
      </trkpt>
      <trkpt lat="45.96365" lon="5.63101">
        <ele>1103.4</ele>
        <time>2026-05-12T10:01:24Z</time>
      </trkpt>
      <trkpt lat="45.96358" lon="5.63102">
        <ele>1102.4</ele>
        <time>2026-05-12T10:01:25Z</time>
      </trkpt>
      <trkpt lat="45.96352" lon="5.63104">
        <ele>1102.4</ele>
        <time>2026-05-12T10:01:26Z</time>
      </trkpt>
      <trkpt lat="45.96346" lon="5.63106">
        <ele>1101.2</ele>
        <time>2026-05-12T10:01:27Z</time>
      </trkpt>
      <trkpt lat="45.96339" lon="5.63109">
        <ele>1101.2</ele>
        <time>2026-05-12T10:01:28Z</time>
      </trkpt>
      <trkpt lat="45.96333" lon="5.63112">
        <ele>1100.8</ele>
        <time>2026-05-12T10:01:29Z</time>
      </trkpt>
      <trkpt lat="45.96328" lon="5.63115">
        <ele>1099.8</ele>
        <time>2026-05-12T10:01:30Z</time>
      </trkpt>
      <trkpt lat="45.96323" lon="5.63119">
        <ele>1099.6</ele>
        <time>2026-05-12T10:01:31Z</time>
      </trkpt>
      <trkpt lat="45.96318" lon="5.63125">
        <ele>1099.6</ele>
        <time>2026-05-12T10:01:32Z</time>
      </trkpt>
      <trkpt lat="45.96312" lon="5.63129">
        <ele>1099.2</ele>
        <time>2026-05-12T10:01:33Z</time>
      </trkpt>
      <trkpt lat="45.96308" lon="5.63132">
        <ele>1098.4</ele>
        <time>2026-05-12T10:01:34Z</time>
      </trkpt>
      <trkpt lat="45.96303" lon="5.63137">
        <ele>1097.4</ele>
        <time>2026-05-12T10:01:35Z</time>
      </trkpt>
      <trkpt lat="45.96299" lon="5.63143">
        <ele>1096.8</ele>
        <time>2026-05-12T10:01:36Z</time>
      </trkpt>
      <trkpt lat="45.96294" lon="5.63148">
        <ele>1096.2</ele>
        <time>2026-05-12T10:01:37Z</time>
      </trkpt>
      <trkpt lat="45.9629" lon="5.63153">
        <ele>1096.2</ele>
        <time>2026-05-12T10:01:38Z</time>
      </trkpt>
      <trkpt lat="45.96286" lon="5.63158">
        <ele>1095.6</ele>
        <time>2026-05-12T10:01:39Z</time>
      </trkpt>
      <trkpt lat="45.96282" lon="5.63163">
        <ele>1095.6</ele>
        <time>2026-05-12T10:01:40Z</time>
      </trkpt>
      <trkpt lat="45.96279" lon="5.63168">
        <ele>1095.6</ele>
        <time>2026-05-12T10:01:41Z</time>
      </trkpt>
      <trkpt lat="45.96276" lon="5.63172">
        <ele>1094.8</ele>
        <time>2026-05-12T10:01:42Z</time>
      </trkpt>
      <trkpt lat="45.96273" lon="5.63174">
        <ele>1094.8</ele>
        <time>2026-05-12T10:01:43Z</time>
      </trkpt>
      <trkpt lat="45.96271" lon="5.63177">
        <ele>1095.2</ele>
        <time>2026-05-12T10:01:44Z</time>
      </trkpt>
      <trkpt lat="45.96268" lon="5.6318">
        <ele>1095.2</ele>
        <time>2026-05-12T10:01:45Z</time>
      </trkpt>
      <trkpt lat="45.96267" lon="5.63181">
        <ele>1095.8</ele>
        <time>2026-05-12T10:01:46Z</time>
      </trkpt>
      <trkpt lat="45.96265" lon="5.63183">
        <ele>1095.8</ele>
        <time>2026-05-12T10:01:47Z</time>
      </trkpt>
      <trkpt lat="45.96262" lon="5.63184">
        <ele>1095.8</ele>
        <time>2026-05-12T10:01:48Z</time>
      </trkpt>
      <trkpt lat="45.9626" lon="5.63186">
        <ele>1096</ele>
        <time>2026-05-12T10:01:49Z</time>
      </trkpt>
      <trkpt lat="45.96258" lon="5.63187">
        <ele>1096</ele>
        <time>2026-05-12T10:01:50Z</time>
      </trkpt>
      <trkpt lat="45.96255" lon="5.63187">
        <ele>1096</ele>
        <time>2026-05-12T10:01:51Z</time>
      </trkpt>
      <trkpt lat="45.96253" lon="5.63189">
        <ele>1096</ele>
        <time>2026-05-12T10:01:52Z</time>
      </trkpt>
      <trkpt lat="45.96251" lon="5.6319">
        <ele>1096.4</ele>
        <time>2026-05-12T10:01:53Z</time>
      </trkpt>
      <trkpt lat="45.96248" lon="5.63191">
        <ele>1096.4</ele>
        <time>2026-05-12T10:01:54Z</time>
      </trkpt>
      <trkpt lat="45.96245" lon="5.63193">
        <ele>1096</ele>
        <time>2026-05-12T10:01:55Z</time>
      </trkpt>
      <trkpt lat="45.96243" lon="5.63195">
        <ele>1096</ele>
        <time>2026-05-12T10:01:56Z</time>
      </trkpt>
      <trkpt lat="45.96242" lon="5.63199">
        <ele>1096</ele>
        <time>2026-05-12T10:01:57Z</time>
      </trkpt>
      <trkpt lat="45.96241" lon="5.63202">
        <ele>1096.4</ele>
        <time>2026-05-12T10:01:58Z</time>
      </trkpt>
      <trkpt lat="45.96241" lon="5.63206">
        <ele>1096.4</ele>
        <time>2026-05-12T10:01:59Z</time>
      </trkpt>
      <trkpt lat="45.96241" lon="5.6321">
        <ele>1096.6</ele>
        <time>2026-05-12T10:02:00Z</time>
      </trkpt>
      <trkpt lat="45.96241" lon="5.63213">
        <ele>1096.6</ele>
        <time>2026-05-12T10:02:01Z</time>
      </trkpt>
      <trkpt lat="45.9624" lon="5.63216">
        <ele>1096.8</ele>
        <time>2026-05-12T10:02:02Z</time>
      </trkpt>
      <trkpt lat="45.96239" lon="5.63219">
        <ele>1096.8</ele>
        <time>2026-05-12T10:02:03Z</time>
      </trkpt>
      <trkpt lat="45.96238" lon="5.6322">
        <ele>1097.2</ele>
        <time>2026-05-12T10:02:04Z</time>
      </trkpt>
      <trkpt lat="45.96236" lon="5.63222">
        <ele>1097.4</ele>
        <time>2026-05-12T10:02:05Z</time>
      </trkpt>
      <trkpt lat="45.96234" lon="5.63223">
        <ele>1097.8</ele>
        <time>2026-05-12T10:02:06Z</time>
      </trkpt>
      <trkpt lat="45.96232" lon="5.63224">
        <ele>1098</ele>
        <time>2026-05-12T10:02:07Z</time>
      </trkpt>
      <trkpt lat="45.96231" lon="5.63224">
        <ele>1098.2</ele>
        <time>2026-05-12T10:02:08Z</time>
      </trkpt>
      <trkpt lat="45.96229" lon="5.63224">
        <ele>1098.2</ele>
        <time>2026-05-12T10:02:09Z</time>
      </trkpt>
      <trkpt lat="45.96227" lon="5.63225">
        <ele>1098.2</ele>
        <time>2026-05-12T10:02:10Z</time>
      </trkpt>
      <trkpt lat="45.96225" lon="5.63225">
        <ele>1098.2</ele>
        <time>2026-05-12T10:02:11Z</time>
      </trkpt>
      <trkpt lat="45.96223" lon="5.63225">
        <ele>1098.2</ele>
        <time>2026-05-12T10:02:12Z</time>
      </trkpt>
      <trkpt lat="45.96221" lon="5.63225">
        <ele>1098.6</ele>
        <time>2026-05-12T10:02:13Z</time>
      </trkpt>
      <trkpt lat="45.96219" lon="5.63225">
        <ele>1098.6</ele>
        <time>2026-05-12T10:02:14Z</time>
      </trkpt>
      <trkpt lat="45.96217" lon="5.63226">
        <ele>1099</ele>
        <time>2026-05-12T10:02:15Z</time>
      </trkpt>
      <trkpt lat="45.96215" lon="5.63226">
        <ele>1099</ele>
        <time>2026-05-12T10:02:16Z</time>
      </trkpt>
      <trkpt lat="45.96213" lon="5.63226">
        <ele>1099.4</ele>
        <time>2026-05-12T10:02:17Z</time>
      </trkpt>
      <trkpt lat="45.96211" lon="5.63227">
        <ele>1099.4</ele>
        <time>2026-05-12T10:02:18Z</time>
      </trkpt>
      <trkpt lat="45.9621" lon="5.63227">
        <ele>1099.4</ele>
        <time>2026-05-12T10:02:19Z</time>
      </trkpt>
      <trkpt lat="45.96208" lon="5.63227">
        <ele>1099.8</ele>
        <time>2026-05-12T10:02:20Z</time>
      </trkpt>
      <trkpt lat="45.96206" lon="5.63228">
        <ele>1100.2</ele>
        <time>2026-05-12T10:02:21Z</time>
      </trkpt>
      <trkpt lat="45.96205" lon="5.63228">
        <ele>1100.2</ele>
        <time>2026-05-12T10:02:22Z</time>
      </trkpt>
      <trkpt lat="45.96203" lon="5.63228">
        <ele>1100.4</ele>
        <time>2026-05-12T10:02:23Z</time>
      </trkpt>
      <trkpt lat="45.96201" lon="5.63229">
        <ele>1100.4</ele>
        <time>2026-05-12T10:02:24Z</time>
      </trkpt>
      <trkpt lat="45.96199" lon="5.63229">
        <ele>1100.8</ele>
        <time>2026-05-12T10:02:25Z</time>
      </trkpt>
      <trkpt lat="45.96197" lon="5.6323">
        <ele>1100.8</ele>
        <time>2026-05-12T10:02:26Z</time>
      </trkpt>
      <trkpt lat="45.96195" lon="5.6323">
        <ele>1100.8</ele>
        <time>2026-05-12T10:02:27Z</time>
      </trkpt>
      <trkpt lat="45.96194" lon="5.63231">
        <ele>1101.2</ele>
        <time>2026-05-12T10:02:28Z</time>
      </trkpt>
      <trkpt lat="45.96192" lon="5.63232">
        <ele>1101.4</ele>
        <time>2026-05-12T10:02:29Z</time>
      </trkpt>
      <trkpt lat="45.9619" lon="5.63233">
        <ele>1101.6</ele>
        <time>2026-05-12T10:02:30Z</time>
      </trkpt>
      <trkpt lat="45.96188" lon="5.63234">
        <ele>1101.8</ele>
        <time>2026-05-12T10:02:31Z</time>
      </trkpt>
      <trkpt lat="45.96186" lon="5.63236">
        <ele>1101.8</ele>
        <time>2026-05-12T10:02:32Z</time>
      </trkpt>
      <trkpt lat="45.96185" lon="5.63237">
        <ele>1101.8</ele>
        <time>2026-05-12T10:02:33Z</time>
      </trkpt>
      <trkpt lat="45.96183" lon="5.63239">
        <ele>1102.2</ele>
        <time>2026-05-12T10:02:34Z</time>
      </trkpt>
      <trkpt lat="45.96181" lon="5.6324">
        <ele>1102.2</ele>
        <time>2026-05-12T10:02:35Z</time>
      </trkpt>
      <trkpt lat="45.96179" lon="5.63242">
        <ele>1102.6</ele>
        <time>2026-05-12T10:02:36Z</time>
      </trkpt>
      <trkpt lat="45.96178" lon="5.63243">
        <ele>1102.6</ele>
        <time>2026-05-12T10:02:37Z</time>
      </trkpt>
      <trkpt lat="45.96177" lon="5.63244">
        <ele>1102.8</ele>
        <time>2026-05-12T10:02:38Z</time>
      </trkpt>
      <trkpt lat="45.96176" lon="5.63245">
        <ele>1102.8</ele>
        <time>2026-05-12T10:02:39Z</time>
      </trkpt>
      <trkpt lat="45.96175" lon="5.63247">
        <ele>1102.8</ele>
        <time>2026-05-12T10:02:40Z</time>
      </trkpt>
      <trkpt lat="45.96174" lon="5.63247">
        <ele>1102.8</ele>
        <time>2026-05-12T10:02:41Z</time>
      </trkpt>
      <trkpt lat="45.96174" lon="5.63248">
        <ele>1102.8</ele>
        <time>2026-05-12T10:02:42Z</time>
      </trkpt>
      <trkpt lat="45.96174" lon="5.63248">
        <ele>1103</ele>
        <time>2026-05-12T10:02:43Z</time>
      </trkpt>
      <trkpt lat="45.96174" lon="5.63248">
        <ele>1103</ele>
        <time>2026-05-12T10:02:44Z</time>
      </trkpt>
      <trkpt lat="45.96173" lon="5.63249">
        <ele>1103.4</ele>
        <time>2026-05-12T10:02:52Z</time>
      </trkpt>
      <trkpt lat="45.96172" lon="5.6325">
        <ele>1103.6</ele>
        <time>2026-05-12T10:02:53Z</time>
      </trkpt>
      <trkpt lat="45.96171" lon="5.63252">
        <ele>1103.6</ele>
        <time>2026-05-12T10:02:54Z</time>
      </trkpt>
      <trkpt lat="45.9617" lon="5.63253">
        <ele>1103.8</ele>
        <time>2026-05-12T10:02:55Z</time>
      </trkpt>
      <trkpt lat="45.96169" lon="5.63253">
        <ele>1103.8</ele>
        <time>2026-05-12T10:02:56Z</time>
      </trkpt>
      <trkpt lat="45.96167" lon="5.63254">
        <ele>1103.8</ele>
        <time>2026-05-12T10:02:57Z</time>
      </trkpt>
      <trkpt lat="45.96165" lon="5.63255">
        <ele>1103.6</ele>
        <time>2026-05-12T10:02:58Z</time>
      </trkpt>
      <trkpt lat="45.96163" lon="5.63256">
        <ele>1103.6</ele>
        <time>2026-05-12T10:02:59Z</time>
      </trkpt>
      <trkpt lat="45.96162" lon="5.63257">
        <ele>1104.2</ele>
        <time>2026-05-12T10:03:00Z</time>
      </trkpt>
      <trkpt lat="45.9616" lon="5.63259">
        <ele>1104.2</ele>
        <time>2026-05-12T10:03:01Z</time>
      </trkpt>
      <trkpt lat="45.96159" lon="5.63259">
        <ele>1104.4</ele>
        <time>2026-05-12T10:03:02Z</time>
      </trkpt>
      <trkpt lat="45.96157" lon="5.63261">
        <ele>1104.4</ele>
        <time>2026-05-12T10:03:03Z</time>
      </trkpt>
      <trkpt lat="45.96155" lon="5.63262">
        <ele>1104.4</ele>
        <time>2026-05-12T10:03:04Z</time>
      </trkpt>
      <trkpt lat="45.96154" lon="5.63263">
        <ele>1104.8</ele>
        <time>2026-05-12T10:03:05Z</time>
      </trkpt>
      <trkpt lat="45.96152" lon="5.63264">
        <ele>1104.8</ele>
        <time>2026-05-12T10:03:06Z</time>
      </trkpt>
      <trkpt lat="45.96151" lon="5.63265">
        <ele>1104.8</ele>
        <time>2026-05-12T10:03:07Z</time>
      </trkpt>
      <trkpt lat="45.96149" lon="5.63266">
        <ele>1104.8</ele>
        <time>2026-05-12T10:03:08Z</time>
      </trkpt>
      <trkpt lat="45.96147" lon="5.63267">
        <ele>1105</ele>
        <time>2026-05-12T10:03:09Z</time>
      </trkpt>
      <trkpt lat="45.96146" lon="5.63268">
        <ele>1105.4</ele>
        <time>2026-05-12T10:03:10Z</time>
      </trkpt>
      <trkpt lat="45.96144" lon="5.63269">
        <ele>1105.6</ele>
        <time>2026-05-12T10:03:11Z</time>
      </trkpt>
      <trkpt lat="45.96143" lon="5.6327">
        <ele>1105.6</ele>
        <time>2026-05-12T10:03:12Z</time>
      </trkpt>
      <trkpt lat="45.96141" lon="5.63271">
        <ele>1106</ele>
        <time>2026-05-12T10:03:13Z</time>
      </trkpt>
      <trkpt lat="45.96139" lon="5.63272">
        <ele>1106.2</ele>
        <time>2026-05-12T10:03:14Z</time>
      </trkpt>
      <trkpt lat="45.96138" lon="5.63273">
        <ele>1106.2</ele>
        <time>2026-05-12T10:03:15Z</time>
      </trkpt>
      <trkpt lat="45.96136" lon="5.63274">
        <ele>1106.6</ele>
        <time>2026-05-12T10:03:16Z</time>
      </trkpt>
      <trkpt lat="45.96135" lon="5.63274">
        <ele>1106.6</ele>
        <time>2026-05-12T10:03:17Z</time>
      </trkpt>
      <trkpt lat="45.96133" lon="5.63275">
        <ele>1106.6</ele>
        <time>2026-05-12T10:03:18Z</time>
      </trkpt>
      <trkpt lat="45.96131" lon="5.63275">
        <ele>1106.6</ele>
        <time>2026-05-12T10:03:19Z</time>
      </trkpt>
      <trkpt lat="45.9613" lon="5.63275">
        <ele>1107</ele>
        <time>2026-05-12T10:03:20Z</time>
      </trkpt>
      <trkpt lat="45.96128" lon="5.63275">
        <ele>1107.2</ele>
        <time>2026-05-12T10:03:21Z</time>
      </trkpt>
      <trkpt lat="45.96127" lon="5.63275">
        <ele>1107.6</ele>
        <time>2026-05-12T10:03:22Z</time>
      </trkpt>
      <trkpt lat="45.96125" lon="5.63276">
        <ele>1107.6</ele>
        <time>2026-05-12T10:03:23Z</time>
      </trkpt>
      <trkpt lat="45.96124" lon="5.63277">
        <ele>1108.2</ele>
        <time>2026-05-12T10:03:24Z</time>
      </trkpt>
      <trkpt lat="45.96123" lon="5.63277">
        <ele>1108.4</ele>
        <time>2026-05-12T10:03:25Z</time>
      </trkpt>
      <trkpt lat="45.96121" lon="5.63278">
        <ele>1108.6</ele>
        <time>2026-05-12T10:03:26Z</time>
      </trkpt>
      <trkpt lat="45.9612" lon="5.63279">
        <ele>1108.6</ele>
        <time>2026-05-12T10:03:27Z</time>
      </trkpt>
      <trkpt lat="45.96119" lon="5.63279">
        <ele>1109</ele>
        <time>2026-05-12T10:03:28Z</time>
      </trkpt>
      <trkpt lat="45.96119" lon="5.63279">
        <ele>1109.2</ele>
        <time>2026-05-12T10:03:29Z</time>
      </trkpt>
      <trkpt lat="45.96119" lon="5.63279">
        <ele>1109.2</ele>
        <time>2026-05-12T10:03:30Z</time>
      </trkpt>
      <trkpt lat="45.96113" lon="5.63282">
        <ele>1109.8</ele>
        <time>2026-05-12T10:03:32Z</time>
      </trkpt>
      <trkpt lat="45.96111" lon="5.63283">
        <ele>1110.2</ele>
        <time>2026-05-12T10:03:33Z</time>
      </trkpt>
      <trkpt lat="45.9611" lon="5.63283">
        <ele>1110.4</ele>
        <time>2026-05-12T10:03:34Z</time>
      </trkpt>
      <trkpt lat="45.96108" lon="5.63284">
        <ele>1110.6</ele>
        <time>2026-05-12T10:03:35Z</time>
      </trkpt>
      <trkpt lat="45.96107" lon="5.63285">
        <ele>1110.6</ele>
        <time>2026-05-12T10:03:36Z</time>
      </trkpt>
      <trkpt lat="45.96106" lon="5.63286">
        <ele>1111</ele>
        <time>2026-05-12T10:03:37Z</time>
      </trkpt>
      <trkpt lat="45.96104" lon="5.63287">
        <ele>1111</ele>
        <time>2026-05-12T10:03:38Z</time>
      </trkpt>
      <trkpt lat="45.96103" lon="5.63288">
        <ele>1111.2</ele>
        <time>2026-05-12T10:03:39Z</time>
      </trkpt>
      <trkpt lat="45.96101" lon="5.63289">
        <ele>1111.2</ele>
        <time>2026-05-12T10:03:40Z</time>
      </trkpt>
      <trkpt lat="45.961" lon="5.63291">
        <ele>1111.4</ele>
        <time>2026-05-12T10:03:41Z</time>
      </trkpt>
      <trkpt lat="45.96098" lon="5.63292">
        <ele>1111.4</ele>
        <time>2026-05-12T10:03:42Z</time>
      </trkpt>
      <trkpt lat="45.96097" lon="5.63293">
        <ele>1111.4</ele>
        <time>2026-05-12T10:03:43Z</time>
      </trkpt>
      <trkpt lat="45.96095" lon="5.63294">
        <ele>1111.4</ele>
        <time>2026-05-12T10:03:44Z</time>
      </trkpt>
      <trkpt lat="45.96094" lon="5.63295">
        <ele>1111.8</ele>
        <time>2026-05-12T10:03:45Z</time>
      </trkpt>
      <trkpt lat="45.96092" lon="5.63297">
        <ele>1111.8</ele>
        <time>2026-05-12T10:03:46Z</time>
      </trkpt>
      <trkpt lat="45.96091" lon="5.63299">
        <ele>1111.8</ele>
        <time>2026-05-12T10:03:47Z</time>
      </trkpt>
      <trkpt lat="45.9609" lon="5.633">
        <ele>1112.2</ele>
        <time>2026-05-12T10:03:48Z</time>
      </trkpt>
      <trkpt lat="45.96088" lon="5.63301">
        <ele>1112.2</ele>
        <time>2026-05-12T10:03:49Z</time>
      </trkpt>
      <trkpt lat="45.96087" lon="5.63303">
        <ele>1112.2</ele>
        <time>2026-05-12T10:03:50Z</time>
      </trkpt>
      <trkpt lat="45.96085" lon="5.63304">
        <ele>1112.4</ele>
        <time>2026-05-12T10:03:51Z</time>
      </trkpt>
      <trkpt lat="45.96084" lon="5.63306">
        <ele>1112.4</ele>
        <time>2026-05-12T10:03:52Z</time>
      </trkpt>
      <trkpt lat="45.96082" lon="5.63307">
        <ele>1112.4</ele>
        <time>2026-05-12T10:03:53Z</time>
      </trkpt>
      <trkpt lat="45.96081" lon="5.63309">
        <ele>1112.4</ele>
        <time>2026-05-12T10:03:54Z</time>
      </trkpt>
      <trkpt lat="45.96079" lon="5.6331">
        <ele>1112.4</ele>
        <time>2026-05-12T10:03:55Z</time>
      </trkpt>
      <trkpt lat="45.96078" lon="5.63311">
        <ele>1112.8</ele>
        <time>2026-05-12T10:03:56Z</time>
      </trkpt>
      <trkpt lat="45.96076" lon="5.63312">
        <ele>1112.8</ele>
        <time>2026-05-12T10:03:57Z</time>
      </trkpt>
      <trkpt lat="45.96075" lon="5.63313">
        <ele>1112.8</ele>
        <time>2026-05-12T10:03:58Z</time>
      </trkpt>
      <trkpt lat="45.96073" lon="5.63314">
        <ele>1112.8</ele>
        <time>2026-05-12T10:03:59Z</time>
      </trkpt>
      <trkpt lat="45.96072" lon="5.63315">
        <ele>1112.8</ele>
        <time>2026-05-12T10:04:00Z</time>
      </trkpt>
      <trkpt lat="45.9607" lon="5.63316">
        <ele>1113.4</ele>
        <time>2026-05-12T10:04:01Z</time>
      </trkpt>
      <trkpt lat="45.96068" lon="5.63317">
        <ele>1113.4</ele>
        <time>2026-05-12T10:04:02Z</time>
      </trkpt>
      <trkpt lat="45.96067" lon="5.63318">
        <ele>1113.8</ele>
        <time>2026-05-12T10:04:03Z</time>
      </trkpt>
      <trkpt lat="45.96065" lon="5.63319">
        <ele>1114</ele>
        <time>2026-05-12T10:04:04Z</time>
      </trkpt>
      <trkpt lat="45.96064" lon="5.6332">
        <ele>1114.2</ele>
        <time>2026-05-12T10:04:05Z</time>
      </trkpt>
      <trkpt lat="45.96063" lon="5.63321">
        <ele>1114.2</ele>
        <time>2026-05-12T10:04:06Z</time>
      </trkpt>
      <trkpt lat="45.96062" lon="5.63321">
        <ele>1114.2</ele>
        <time>2026-05-12T10:04:07Z</time>
      </trkpt>
      <trkpt lat="45.9606" lon="5.63322">
        <ele>1114.4</ele>
        <time>2026-05-12T10:04:08Z</time>
      </trkpt>
      <trkpt lat="45.96059" lon="5.63323">
        <ele>1114.8</ele>
        <time>2026-05-12T10:04:09Z</time>
      </trkpt>
      <trkpt lat="45.96057" lon="5.63325">
        <ele>1114.8</ele>
        <time>2026-05-12T10:04:10Z</time>
      </trkpt>
      <trkpt lat="45.96056" lon="5.63326">
        <ele>1115</ele>
        <time>2026-05-12T10:04:11Z</time>
      </trkpt>
      <trkpt lat="45.96055" lon="5.63327">
        <ele>1115.2</ele>
        <time>2026-05-12T10:04:12Z</time>
      </trkpt>
      <trkpt lat="45.96054" lon="5.63328">
        <ele>1115.2</ele>
        <time>2026-05-12T10:04:13Z</time>
      </trkpt>
      <trkpt lat="45.96052" lon="5.63329">
        <ele>1115.2</ele>
        <time>2026-05-12T10:04:14Z</time>
      </trkpt>
      <trkpt lat="45.96051" lon="5.63329">
        <ele>1115.6</ele>
        <time>2026-05-12T10:04:15Z</time>
      </trkpt>
      <trkpt lat="45.96049" lon="5.6333">
        <ele>1115.6</ele>
        <time>2026-05-12T10:04:16Z</time>
      </trkpt>
      <trkpt lat="45.96048" lon="5.63331">
        <ele>1115.8</ele>
        <time>2026-05-12T10:04:17Z</time>
      </trkpt>
      <trkpt lat="45.96046" lon="5.63332">
        <ele>1115.8</ele>
        <time>2026-05-12T10:04:18Z</time>
      </trkpt>
      <trkpt lat="45.96045" lon="5.63332">
        <ele>1115.8</ele>
        <time>2026-05-12T10:04:19Z</time>
      </trkpt>
      <trkpt lat="45.96043" lon="5.63333">
        <ele>1116.2</ele>
        <time>2026-05-12T10:04:20Z</time>
      </trkpt>
      <trkpt lat="45.96042" lon="5.63335">
        <ele>1116.4</ele>
        <time>2026-05-12T10:04:21Z</time>
      </trkpt>
      <trkpt lat="45.96041" lon="5.63336">
        <ele>1116.4</ele>
        <time>2026-05-12T10:04:22Z</time>
      </trkpt>
      <trkpt lat="45.96039" lon="5.63337">
        <ele>1116.6</ele>
        <time>2026-05-12T10:04:23Z</time>
      </trkpt>
      <trkpt lat="45.96038" lon="5.63338">
        <ele>1116.6</ele>
        <time>2026-05-12T10:04:24Z</time>
      </trkpt>
      <trkpt lat="45.96037" lon="5.63338">
        <ele>1117</ele>
        <time>2026-05-12T10:04:25Z</time>
      </trkpt>
      <trkpt lat="45.96035" lon="5.63339">
        <ele>1117.4</ele>
        <time>2026-05-12T10:04:26Z</time>
      </trkpt>
      <trkpt lat="45.96034" lon="5.63339">
        <ele>1117.6</ele>
        <time>2026-05-12T10:04:27Z</time>
      </trkpt>
      <trkpt lat="45.96033" lon="5.6334">
        <ele>1117.8</ele>
        <time>2026-05-12T10:04:28Z</time>
      </trkpt>
      <trkpt lat="45.96032" lon="5.63341">
        <ele>1117.8</ele>
        <time>2026-05-12T10:04:29Z</time>
      </trkpt>
      <trkpt lat="45.96031" lon="5.63342">
        <ele>1118</ele>
        <time>2026-05-12T10:04:30Z</time>
      </trkpt>
      <trkpt lat="45.9603" lon="5.63343">
        <ele>1118</ele>
        <time>2026-05-12T10:04:31Z</time>
      </trkpt>
      <trkpt lat="45.96028" lon="5.63343">
        <ele>1118.4</ele>
        <time>2026-05-12T10:04:32Z</time>
      </trkpt>
      <trkpt lat="45.96027" lon="5.63344">
        <ele>1118.4</ele>
        <time>2026-05-12T10:04:33Z</time>
      </trkpt>
      <trkpt lat="45.96026" lon="5.63345">
        <ele>1118.8</ele>
        <time>2026-05-12T10:04:34Z</time>
      </trkpt>
      <trkpt lat="45.96025" lon="5.63345">
        <ele>1119</ele>
        <time>2026-05-12T10:04:35Z</time>
      </trkpt>
      <trkpt lat="45.96023" lon="5.63346">
        <ele>1119</ele>
        <time>2026-05-12T10:04:36Z</time>
      </trkpt>
      <trkpt lat="45.96022" lon="5.63347">
        <ele>1119.4</ele>
        <time>2026-05-12T10:04:37Z</time>
      </trkpt>
      <trkpt lat="45.96021" lon="5.63348">
        <ele>1119.6</ele>
        <time>2026-05-12T10:04:38Z</time>
      </trkpt>
      <trkpt lat="45.96019" lon="5.6335">
        <ele>1119.8</ele>
        <time>2026-05-12T10:04:39Z</time>
      </trkpt>
      <trkpt lat="45.96018" lon="5.6335">
        <ele>1120.2</ele>
        <time>2026-05-12T10:04:40Z</time>
      </trkpt>
      <trkpt lat="45.96017" lon="5.63351">
        <ele>1120.4</ele>
        <time>2026-05-12T10:04:41Z</time>
      </trkpt>
      <trkpt lat="45.96016" lon="5.63352">
        <ele>1120.4</ele>
        <time>2026-05-12T10:04:42Z</time>
      </trkpt>
      <trkpt lat="45.96015" lon="5.63353">
        <ele>1120.6</ele>
        <time>2026-05-12T10:04:43Z</time>
      </trkpt>
      <trkpt lat="45.96013" lon="5.63354">
        <ele>1121</ele>
        <time>2026-05-12T10:04:44Z</time>
      </trkpt>
      <trkpt lat="45.96012" lon="5.63355">
        <ele>1121.2</ele>
        <time>2026-05-12T10:04:45Z</time>
      </trkpt>
      <trkpt lat="45.96011" lon="5.63357">
        <ele>1121.4</ele>
        <time>2026-05-12T10:04:46Z</time>
      </trkpt>
      <trkpt lat="45.9601" lon="5.63358">
        <ele>1121.8</ele>
        <time>2026-05-12T10:04:47Z</time>
      </trkpt>
      <trkpt lat="45.96009" lon="5.63359">
        <ele>1122</ele>
        <time>2026-05-12T10:04:48Z</time>
      </trkpt>
      <trkpt lat="45.96008" lon="5.6336">
        <ele>1122</ele>
        <time>2026-05-12T10:04:49Z</time>
      </trkpt>
      <trkpt lat="45.96008" lon="5.63361">
        <ele>1122.4</ele>
        <time>2026-05-12T10:04:50Z</time>
      </trkpt>
      <trkpt lat="45.96007" lon="5.63362">
        <ele>1122.4</ele>
        <time>2026-05-12T10:04:51Z</time>
      </trkpt>
      <trkpt lat="45.96005" lon="5.63363">
        <ele>1122.8</ele>
        <time>2026-05-12T10:04:52Z</time>
      </trkpt>
      <trkpt lat="45.96004" lon="5.63363">
        <ele>1123</ele>
        <time>2026-05-12T10:04:53Z</time>
      </trkpt>
      <trkpt lat="45.96004" lon="5.63363">
        <ele>1123.4</ele>
        <time>2026-05-12T10:04:54Z</time>
      </trkpt>
      <trkpt lat="45.96003" lon="5.63364">
        <ele>1123.8</ele>
        <time>2026-05-12T10:04:55Z</time>
      </trkpt>
      <trkpt lat="45.96002" lon="5.63365">
        <ele>1123.8</ele>
        <time>2026-05-12T10:04:56Z</time>
      </trkpt>
      <trkpt lat="45.96001" lon="5.63366">
        <ele>1124</ele>
        <time>2026-05-12T10:04:57Z</time>
      </trkpt>
      <trkpt lat="45.95999" lon="5.63366">
        <ele>1124</ele>
        <time>2026-05-12T10:04:58Z</time>
      </trkpt>
      <trkpt lat="45.95998" lon="5.63367">
        <ele>1124.4</ele>
        <time>2026-05-12T10:04:59Z</time>
      </trkpt>
      <trkpt lat="45.95998" lon="5.63368">
        <ele>1124.8</ele>
        <time>2026-05-12T10:05:00Z</time>
      </trkpt>
      <trkpt lat="45.95997" lon="5.63368">
        <ele>1125</ele>
        <time>2026-05-12T10:05:01Z</time>
      </trkpt>
      <trkpt lat="45.95997" lon="5.63368">
        <ele>1125</ele>
        <time>2026-05-12T10:05:02Z</time>
      </trkpt>
      <trkpt lat="45.95997" lon="5.63369">
        <ele>1125</ele>
        <time>2026-05-12T10:05:03Z</time>
      </trkpt>
      <trkpt lat="45.95996" lon="5.63369">
        <ele>1125</ele>
        <time>2026-05-12T10:05:04Z</time>
      </trkpt>
      <trkpt lat="45.95995" lon="5.6337">
        <ele>1125.4</ele>
        <time>2026-05-12T10:05:05Z</time>
      </trkpt>
      <trkpt lat="45.95993" lon="5.63371">
        <ele>1125.6</ele>
        <time>2026-05-12T10:05:06Z</time>
      </trkpt>
      <trkpt lat="45.9599" lon="5.63371">
        <ele>1125.8</ele>
        <time>2026-05-12T10:05:07Z</time>
      </trkpt>
      <trkpt lat="45.95988" lon="5.63371">
        <ele>1126</ele>
        <time>2026-05-12T10:05:08Z</time>
      </trkpt>
      <trkpt lat="45.95987" lon="5.6337">
        <ele>1126.4</ele>
        <time>2026-05-12T10:05:09Z</time>
      </trkpt>
      <trkpt lat="45.95987" lon="5.63371">
        <ele>1126.4</ele>
        <time>2026-05-12T10:05:10Z</time>
      </trkpt>
      <trkpt lat="45.95987" lon="5.63371">
        <ele>1126.8</ele>
        <time>2026-05-12T10:05:11Z</time>
      </trkpt>
      <trkpt lat="45.95987" lon="5.63372">
        <ele>1127.2</ele>
        <time>2026-05-12T10:05:12Z</time>
      </trkpt>
      <trkpt lat="45.95985" lon="5.63373">
        <ele>1127.2</ele>
        <time>2026-05-12T10:05:13Z</time>
      </trkpt>
      <trkpt lat="45.95983" lon="5.63373">
        <ele>1127.4</ele>
        <time>2026-05-12T10:05:14Z</time>
      </trkpt>
      <trkpt lat="45.95981" lon="5.63373">
        <ele>1127.4</ele>
        <time>2026-05-12T10:05:15Z</time>
      </trkpt>
      <trkpt lat="45.9598" lon="5.63374">
        <ele>1127.6</ele>
        <time>2026-05-12T10:05:16Z</time>
      </trkpt>
      <trkpt lat="45.95978" lon="5.63374">
        <ele>1127.6</ele>
        <time>2026-05-12T10:05:17Z</time>
      </trkpt>
      <trkpt lat="45.95976" lon="5.63375">
        <ele>1128</ele>
        <time>2026-05-12T10:05:18Z</time>
      </trkpt>
      <trkpt lat="45.95975" lon="5.63376">
        <ele>1128</ele>
        <time>2026-05-12T10:05:19Z</time>
      </trkpt>
      <trkpt lat="45.95973" lon="5.63377">
        <ele>1128.4</ele>
        <time>2026-05-12T10:05:20Z</time>
      </trkpt>
      <trkpt lat="45.95972" lon="5.63378">
        <ele>1128.4</ele>
        <time>2026-05-12T10:05:21Z</time>
      </trkpt>
      <trkpt lat="45.95971" lon="5.63378">
        <ele>1128.6</ele>
        <time>2026-05-12T10:05:22Z</time>
      </trkpt>
      <trkpt lat="45.95969" lon="5.63378">
        <ele>1128.6</ele>
        <time>2026-05-12T10:05:23Z</time>
      </trkpt>
      <trkpt lat="45.95968" lon="5.63379">
        <ele>1129</ele>
        <time>2026-05-12T10:05:24Z</time>
      </trkpt>
      <trkpt lat="45.95968" lon="5.6338">
        <ele>1129.4</ele>
        <time>2026-05-12T10:05:25Z</time>
      </trkpt>
      <trkpt lat="45.95966" lon="5.63382">
        <ele>1129.6</ele>
        <time>2026-05-12T10:05:26Z</time>
      </trkpt>
      <trkpt lat="45.95965" lon="5.63383">
        <ele>1129.6</ele>
        <time>2026-05-12T10:05:27Z</time>
      </trkpt>
      <trkpt lat="45.95964" lon="5.63384">
        <ele>1129.6</ele>
        <time>2026-05-12T10:05:28Z</time>
      </trkpt>
      <trkpt lat="45.95962" lon="5.63385">
        <ele>1129.6</ele>
        <time>2026-05-12T10:05:29Z</time>
      </trkpt>
      <trkpt lat="45.95961" lon="5.63386">
        <ele>1130</ele>
        <time>2026-05-12T10:05:30Z</time>
      </trkpt>
      <trkpt lat="45.9596" lon="5.63387">
        <ele>1130.2</ele>
        <time>2026-05-12T10:05:31Z</time>
      </trkpt>
      <trkpt lat="45.95959" lon="5.63387">
        <ele>1130.2</ele>
        <time>2026-05-12T10:05:32Z</time>
      </trkpt>
      <trkpt lat="45.95957" lon="5.6339">
        <ele>1130.4</ele>
        <time>2026-05-12T10:05:33Z</time>
      </trkpt>
      <trkpt lat="45.95956" lon="5.63392">
        <ele>1130.4</ele>
        <time>2026-05-12T10:05:34Z</time>
      </trkpt>
      <trkpt lat="45.95954" lon="5.63394">
        <ele>1130.8</ele>
        <time>2026-05-12T10:05:35Z</time>
      </trkpt>
      <trkpt lat="45.95952" lon="5.63395">
        <ele>1131</ele>
        <time>2026-05-12T10:05:36Z</time>
      </trkpt>
      <trkpt lat="45.95949" lon="5.63395">
        <ele>1131</ele>
        <time>2026-05-12T10:05:37Z</time>
      </trkpt>
      <trkpt lat="45.95948" lon="5.63396">
        <ele>1131</ele>
        <time>2026-05-12T10:05:38Z</time>
      </trkpt>
      <trkpt lat="45.95947" lon="5.63397">
        <ele>1131.4</ele>
        <time>2026-05-12T10:05:39Z</time>
      </trkpt>
      <trkpt lat="45.95945" lon="5.63399">
        <ele>1131.4</ele>
        <time>2026-05-12T10:05:40Z</time>
      </trkpt>
      <trkpt lat="45.95944" lon="5.63402">
        <ele>1131.4</ele>
        <time>2026-05-12T10:05:41Z</time>
      </trkpt>
      <trkpt lat="45.95942" lon="5.63404">
        <ele>1131.4</ele>
        <time>2026-05-12T10:05:42Z</time>
      </trkpt>
      <trkpt lat="45.95941" lon="5.63406">
        <ele>1131.8</ele>
        <time>2026-05-12T10:05:43Z</time>
      </trkpt>
      <trkpt lat="45.95938" lon="5.63408">
        <ele>1131.8</ele>
        <time>2026-05-12T10:05:44Z</time>
      </trkpt>
      <trkpt lat="45.95936" lon="5.6341">
        <ele>1132.2</ele>
        <time>2026-05-12T10:05:45Z</time>
      </trkpt>
      <trkpt lat="45.95936" lon="5.6341">
        <ele>1132.2</ele>
        <time>2026-05-12T10:05:46Z</time>
      </trkpt>
      <trkpt lat="45.95935" lon="5.63409">
        <ele>1132.4</ele>
        <time>2026-05-12T10:05:47Z</time>
      </trkpt>
      <trkpt lat="45.95934" lon="5.63409">
        <ele>1132.4</ele>
        <time>2026-05-12T10:05:48Z</time>
      </trkpt>
      <trkpt lat="45.95932" lon="5.6341">
        <ele>1132.4</ele>
        <time>2026-05-12T10:05:49Z</time>
      </trkpt>
      <trkpt lat="45.95932" lon="5.63411">
        <ele>1132.4</ele>
        <time>2026-05-12T10:05:50Z</time>
      </trkpt>
      <trkpt lat="45.9593" lon="5.63412">
        <ele>1132.8</ele>
        <time>2026-05-12T10:05:51Z</time>
      </trkpt>
      <trkpt lat="45.95929" lon="5.63414">
        <ele>1132.8</ele>
        <time>2026-05-12T10:05:52Z</time>
      </trkpt>
      <trkpt lat="45.95929" lon="5.63415">
        <ele>1132.8</ele>
        <time>2026-05-12T10:05:53Z</time>
      </trkpt>
      <trkpt lat="45.95928" lon="5.63416">
        <ele>1133</ele>
        <time>2026-05-12T10:05:54Z</time>
      </trkpt>
      <trkpt lat="45.95927" lon="5.63416">
        <ele>1133</ele>
        <time>2026-05-12T10:05:55Z</time>
      </trkpt>
      <trkpt lat="45.95927" lon="5.63416">
        <ele>1133.4</ele>
        <time>2026-05-12T10:05:56Z</time>
      </trkpt>
      <trkpt lat="45.95927" lon="5.63416">
        <ele>1133.4</ele>
        <time>2026-05-12T10:05:57Z</time>
      </trkpt>
      <trkpt lat="45.95926" lon="5.63415">
        <ele>1133.4</ele>
        <time>2026-05-12T10:05:58Z</time>
      </trkpt>
      <trkpt lat="45.95926" lon="5.63414">
        <ele>1133.8</ele>
        <time>2026-05-12T10:05:59Z</time>
      </trkpt>
      <trkpt lat="45.95926" lon="5.63413">
        <ele>1133.8</ele>
        <time>2026-05-12T10:06:00Z</time>
      </trkpt>
      <trkpt lat="45.95926" lon="5.63413">
        <ele>1134</ele>
        <time>2026-05-12T10:06:01Z</time>
      </trkpt>
      <trkpt lat="45.95924" lon="5.63414">
        <ele>1134</ele>
        <time>2026-05-12T10:06:02Z</time>
      </trkpt>
      <trkpt lat="45.95922" lon="5.63416">
        <ele>1134.2</ele>
        <time>2026-05-12T10:06:03Z</time>
      </trkpt>
      <trkpt lat="45.9592" lon="5.63418">
        <ele>1134.4</ele>
        <time>2026-05-12T10:06:04Z</time>
      </trkpt>
      <trkpt lat="45.95919" lon="5.6342">
        <ele>1134.8</ele>
        <time>2026-05-12T10:06:05Z</time>
      </trkpt>
      <trkpt lat="45.95918" lon="5.63422">
        <ele>1135</ele>
        <time>2026-05-12T10:06:06Z</time>
      </trkpt>
      <trkpt lat="45.95916" lon="5.63424">
        <ele>1135</ele>
        <time>2026-05-12T10:06:07Z</time>
      </trkpt>
      <trkpt lat="45.95914" lon="5.63425">
        <ele>1135</ele>
        <time>2026-05-12T10:06:08Z</time>
      </trkpt>
      <trkpt lat="45.95911" lon="5.63425">
        <ele>1135.4</ele>
        <time>2026-05-12T10:06:09Z</time>
      </trkpt>
      <trkpt lat="45.95909" lon="5.63425">
        <ele>1135.4</ele>
        <time>2026-05-12T10:06:10Z</time>
      </trkpt>
      <trkpt lat="45.95907" lon="5.63426">
        <ele>1135.6</ele>
        <time>2026-05-12T10:06:11Z</time>
      </trkpt>
      <trkpt lat="45.95906" lon="5.63426">
        <ele>1135.6</ele>
        <time>2026-05-12T10:06:12Z</time>
      </trkpt>
      <trkpt lat="45.95905" lon="5.63427">
        <ele>1135.6</ele>
        <time>2026-05-12T10:06:13Z</time>
      </trkpt>
      <trkpt lat="45.95904" lon="5.63428">
        <ele>1135.8</ele>
        <time>2026-05-12T10:06:14Z</time>
      </trkpt>
      <trkpt lat="45.95902" lon="5.6343">
        <ele>1136</ele>
        <time>2026-05-12T10:06:15Z</time>
      </trkpt>
      <trkpt lat="45.959" lon="5.63432">
        <ele>1136</ele>
        <time>2026-05-12T10:06:16Z</time>
      </trkpt>
      <trkpt lat="45.95898" lon="5.63433">
        <ele>1136.4</ele>
        <time>2026-05-12T10:06:17Z</time>
      </trkpt>
      <trkpt lat="45.95898" lon="5.63433">
        <ele>1136.4</ele>
        <time>2026-05-12T10:06:18Z</time>
      </trkpt>
      <trkpt lat="45.95897" lon="5.63433">
        <ele>1136.6</ele>
        <time>2026-05-12T10:06:19Z</time>
      </trkpt>
      <trkpt lat="45.95895" lon="5.63433">
        <ele>1136.6</ele>
        <time>2026-05-12T10:06:20Z</time>
      </trkpt>
      <trkpt lat="45.95893" lon="5.63433">
        <ele>1136.6</ele>
        <time>2026-05-12T10:06:21Z</time>
      </trkpt>
      <trkpt lat="45.95891" lon="5.63433">
        <ele>1137</ele>
        <time>2026-05-12T10:06:22Z</time>
      </trkpt>
      <trkpt lat="45.95889" lon="5.63434">
        <ele>1137</ele>
        <time>2026-05-12T10:06:23Z</time>
      </trkpt>
      <trkpt lat="45.95887" lon="5.63434">
        <ele>1137.2</ele>
        <time>2026-05-12T10:06:24Z</time>
      </trkpt>
      <trkpt lat="45.95886" lon="5.63435">
        <ele>1137.2</ele>
        <time>2026-05-12T10:06:25Z</time>
      </trkpt>
      <trkpt lat="45.95884" lon="5.63436">
        <ele>1137.8</ele>
        <time>2026-05-12T10:06:26Z</time>
      </trkpt>
      <trkpt lat="45.95882" lon="5.63437">
        <ele>1137.8</ele>
        <time>2026-05-12T10:06:27Z</time>
      </trkpt>
      <trkpt lat="45.9588" lon="5.63438">
        <ele>1137.8</ele>
        <time>2026-05-12T10:06:28Z</time>
      </trkpt>
      <trkpt lat="45.95878" lon="5.6344">
        <ele>1137.8</ele>
        <time>2026-05-12T10:06:29Z</time>
      </trkpt>
      <trkpt lat="45.95877" lon="5.63441">
        <ele>1137.8</ele>
        <time>2026-05-12T10:06:30Z</time>
      </trkpt>
      <trkpt lat="45.95874" lon="5.63442">
        <ele>1137.8</ele>
        <time>2026-05-12T10:06:31Z</time>
      </trkpt>
      <trkpt lat="45.9587" lon="5.63442">
        <ele>1138.2</ele>
        <time>2026-05-12T10:06:32Z</time>
      </trkpt>
      <trkpt lat="45.95867" lon="5.6344">
        <ele>1138.2</ele>
        <time>2026-05-12T10:06:33Z</time>
      </trkpt>
      <trkpt lat="45.95864" lon="5.6344">
        <ele>1138.4</ele>
        <time>2026-05-12T10:06:34Z</time>
      </trkpt>
      <trkpt lat="45.95862" lon="5.63441">
        <ele>1138.4</ele>
        <time>2026-05-12T10:06:35Z</time>
      </trkpt>
      <trkpt lat="45.9586" lon="5.63443">
        <ele>1139</ele>
        <time>2026-05-12T10:06:36Z</time>
      </trkpt>
      <trkpt lat="45.95857" lon="5.63444">
        <ele>1139</ele>
        <time>2026-05-12T10:06:37Z</time>
      </trkpt>
      <trkpt lat="45.95854" lon="5.63445">
        <ele>1139.2</ele>
        <time>2026-05-12T10:06:38Z</time>
      </trkpt>
      <trkpt lat="45.95852" lon="5.63446">
        <ele>1139.2</ele>
        <time>2026-05-12T10:06:39Z</time>
      </trkpt>
      <trkpt lat="45.9585" lon="5.63447">
        <ele>1139.2</ele>
        <time>2026-05-12T10:06:40Z</time>
      </trkpt>
      <trkpt lat="45.95847" lon="5.63447">
        <ele>1139.2</ele>
        <time>2026-05-12T10:06:41Z</time>
      </trkpt>
      <trkpt lat="45.95844" lon="5.63448">
        <ele>1139.2</ele>
        <time>2026-05-12T10:06:42Z</time>
      </trkpt>
      <trkpt lat="45.95842" lon="5.63449">
        <ele>1139.4</ele>
        <time>2026-05-12T10:06:43Z</time>
      </trkpt>
      <trkpt lat="45.9584" lon="5.6345">
        <ele>1139.6</ele>
        <time>2026-05-12T10:06:44Z</time>
      </trkpt>
      <trkpt lat="45.95838" lon="5.6345">
        <ele>1140</ele>
        <time>2026-05-12T10:06:45Z</time>
      </trkpt>
      <trkpt lat="45.95834" lon="5.63451">
        <ele>1140</ele>
        <time>2026-05-12T10:06:46Z</time>
      </trkpt>
      <trkpt lat="45.95831" lon="5.63452">
        <ele>1140.2</ele>
        <time>2026-05-12T10:06:47Z</time>
      </trkpt>
      <trkpt lat="45.95829" lon="5.63452">
        <ele>1140.2</ele>
        <time>2026-05-12T10:06:48Z</time>
      </trkpt>
      <trkpt lat="45.95827" lon="5.63453">
        <ele>1140.2</ele>
        <time>2026-05-12T10:06:49Z</time>
      </trkpt>
      <trkpt lat="45.95825" lon="5.63455">
        <ele>1140.2</ele>
        <time>2026-05-12T10:06:50Z</time>
      </trkpt>
      <trkpt lat="45.95824" lon="5.63456">
        <ele>1140.8</ele>
        <time>2026-05-12T10:06:51Z</time>
      </trkpt>
      <trkpt lat="45.95822" lon="5.63457">
        <ele>1141</ele>
        <time>2026-05-12T10:06:52Z</time>
      </trkpt>
      <trkpt lat="45.95821" lon="5.63457">
        <ele>1141</ele>
        <time>2026-05-12T10:06:53Z</time>
      </trkpt>
      <trkpt lat="45.95819" lon="5.63459">
        <ele>1141.6</ele>
        <time>2026-05-12T10:06:54Z</time>
      </trkpt>
      <trkpt lat="45.95817" lon="5.63461">
        <ele>1141.6</ele>
        <time>2026-05-12T10:06:55Z</time>
      </trkpt>
      <trkpt lat="45.95815" lon="5.63463">
        <ele>1142.2</ele>
        <time>2026-05-12T10:06:56Z</time>
      </trkpt>
      <trkpt lat="45.95814" lon="5.63465">
        <ele>1142.2</ele>
        <time>2026-05-12T10:06:57Z</time>
      </trkpt>
      <trkpt lat="45.95813" lon="5.63466">
        <ele>1142.4</ele>
        <time>2026-05-12T10:06:58Z</time>
      </trkpt>
      <trkpt lat="45.95812" lon="5.63467">
        <ele>1142.6</ele>
        <time>2026-05-12T10:06:59Z</time>
      </trkpt>
      <trkpt lat="45.95811" lon="5.63468">
        <ele>1143</ele>
        <time>2026-05-12T10:07:00Z</time>
      </trkpt>
      <trkpt lat="45.95811" lon="5.63468">
        <ele>1143.2</ele>
        <time>2026-05-12T10:07:01Z</time>
      </trkpt>
      <trkpt lat="45.95805" lon="5.63471">
        <ele>1143.2</ele>
        <time>2026-05-12T10:07:02Z</time>
      </trkpt>
      <trkpt lat="45.95804" lon="5.63472">
        <ele>1143.4</ele>
        <time>2026-05-12T10:07:03Z</time>
      </trkpt>
      <trkpt lat="45.95802" lon="5.63473">
        <ele>1143.8</ele>
        <time>2026-05-12T10:07:04Z</time>
      </trkpt>
      <trkpt lat="45.958" lon="5.63475">
        <ele>1144.2</ele>
        <time>2026-05-12T10:07:05Z</time>
      </trkpt>
      <trkpt lat="45.95798" lon="5.63478">
        <ele>1144.2</ele>
        <time>2026-05-12T10:07:06Z</time>
      </trkpt>
      <trkpt lat="45.95797" lon="5.63479">
        <ele>1144.8</ele>
        <time>2026-05-12T10:07:07Z</time>
      </trkpt>
      <trkpt lat="45.95795" lon="5.6348">
        <ele>1145</ele>
        <time>2026-05-12T10:07:08Z</time>
      </trkpt>
      <trkpt lat="45.95793" lon="5.63481">
        <ele>1145</ele>
        <time>2026-05-12T10:07:09Z</time>
      </trkpt>
      <trkpt lat="45.95792" lon="5.63481">
        <ele>1145.4</ele>
        <time>2026-05-12T10:07:10Z</time>
      </trkpt>
      <trkpt lat="45.9579" lon="5.63482">
        <ele>1145.4</ele>
        <time>2026-05-12T10:07:11Z</time>
      </trkpt>
      <trkpt lat="45.95788" lon="5.63483">
        <ele>1145.8</ele>
        <time>2026-05-12T10:07:12Z</time>
      </trkpt>
      <trkpt lat="45.95786" lon="5.63484">
        <ele>1146.2</ele>
        <time>2026-05-12T10:07:13Z</time>
      </trkpt>
      <trkpt lat="45.95785" lon="5.63484">
        <ele>1146.2</ele>
        <time>2026-05-12T10:07:14Z</time>
      </trkpt>
      <trkpt lat="45.95783" lon="5.63484">
        <ele>1146.2</ele>
        <time>2026-05-12T10:07:15Z</time>
      </trkpt>
      <trkpt lat="45.95781" lon="5.63485">
        <ele>1146.4</ele>
        <time>2026-05-12T10:07:16Z</time>
      </trkpt>
      <trkpt lat="45.95781" lon="5.63485">
        <ele>1146.8</ele>
        <time>2026-05-12T10:07:17Z</time>
      </trkpt>
      <trkpt lat="45.95779" lon="5.63487">
        <ele>1146.8</ele>
        <time>2026-05-12T10:07:18Z</time>
      </trkpt>
      <trkpt lat="45.95778" lon="5.63488">
        <ele>1147.2</ele>
        <time>2026-05-12T10:07:19Z</time>
      </trkpt>
      <trkpt lat="45.95776" lon="5.6349">
        <ele>1147.6</ele>
        <time>2026-05-12T10:07:20Z</time>
      </trkpt>
      <trkpt lat="45.95773" lon="5.63492">
        <ele>1147.6</ele>
        <time>2026-05-12T10:07:21Z</time>
      </trkpt>
      <trkpt lat="45.95772" lon="5.63493">
        <ele>1147.8</ele>
        <time>2026-05-12T10:07:22Z</time>
      </trkpt>
      <trkpt lat="45.95771" lon="5.63495">
        <ele>1147.8</ele>
        <time>2026-05-12T10:07:23Z</time>
      </trkpt>
      <trkpt lat="45.95769" lon="5.63497">
        <ele>1147.8</ele>
        <time>2026-05-12T10:07:24Z</time>
      </trkpt>
      <trkpt lat="45.95769" lon="5.63499">
        <ele>1148.2</ele>
        <time>2026-05-12T10:07:25Z</time>
      </trkpt>
      <trkpt lat="45.95767" lon="5.63501">
        <ele>1148.2</ele>
        <time>2026-05-12T10:07:26Z</time>
      </trkpt>
      <trkpt lat="45.95765" lon="5.63503">
        <ele>1148.2</ele>
        <time>2026-05-12T10:07:27Z</time>
      </trkpt>
      <trkpt lat="45.95763" lon="5.63504">
        <ele>1147.8</ele>
        <time>2026-05-12T10:07:28Z</time>
      </trkpt>
      <trkpt lat="45.95761" lon="5.63505">
        <ele>1147.8</ele>
        <time>2026-05-12T10:07:29Z</time>
      </trkpt>
      <trkpt lat="45.95759" lon="5.63507">
        <ele>1147.8</ele>
        <time>2026-05-12T10:07:30Z</time>
      </trkpt>
      <trkpt lat="45.95758" lon="5.63508">
        <ele>1147.8</ele>
        <time>2026-05-12T10:07:31Z</time>
      </trkpt>
      <trkpt lat="45.95756" lon="5.63509">
        <ele>1148.2</ele>
        <time>2026-05-12T10:07:32Z</time>
      </trkpt>
      <trkpt lat="45.95755" lon="5.63512">
        <ele>1148.2</ele>
        <time>2026-05-12T10:07:33Z</time>
      </trkpt>
      <trkpt lat="45.95753" lon="5.63514">
        <ele>1148.6</ele>
        <time>2026-05-12T10:07:34Z</time>
      </trkpt>
      <trkpt lat="45.95751" lon="5.63516">
        <ele>1148.8</ele>
        <time>2026-05-12T10:07:35Z</time>
      </trkpt>
      <trkpt lat="45.95749" lon="5.63517">
        <ele>1149</ele>
        <time>2026-05-12T10:07:36Z</time>
      </trkpt>
      <trkpt lat="45.95747" lon="5.63517">
        <ele>1149</ele>
        <time>2026-05-12T10:07:37Z</time>
      </trkpt>
      <trkpt lat="45.95746" lon="5.63518">
        <ele>1149.2</ele>
        <time>2026-05-12T10:07:38Z</time>
      </trkpt>
      <trkpt lat="45.95744" lon="5.63518">
        <ele>1149.6</ele>
        <time>2026-05-12T10:07:39Z</time>
      </trkpt>
      <trkpt lat="45.95743" lon="5.63519">
        <ele>1149.6</ele>
        <time>2026-05-12T10:07:40Z</time>
      </trkpt>
      <trkpt lat="45.95741" lon="5.6352">
        <ele>1149.6</ele>
        <time>2026-05-12T10:07:41Z</time>
      </trkpt>
      <trkpt lat="45.95739" lon="5.63521">
        <ele>1149.6</ele>
        <time>2026-05-12T10:07:42Z</time>
      </trkpt>
      <trkpt lat="45.95737" lon="5.63521">
        <ele>1149.6</ele>
        <time>2026-05-12T10:07:43Z</time>
      </trkpt>
      <trkpt lat="45.95735" lon="5.63522">
        <ele>1150</ele>
        <time>2026-05-12T10:07:44Z</time>
      </trkpt>
      <trkpt lat="45.95733" lon="5.63522">
        <ele>1150</ele>
        <time>2026-05-12T10:07:45Z</time>
      </trkpt>
      <trkpt lat="45.95732" lon="5.63523">
        <ele>1150</ele>
        <time>2026-05-12T10:07:46Z</time>
      </trkpt>
      <trkpt lat="45.9573" lon="5.63523">
        <ele>1150.2</ele>
        <time>2026-05-12T10:07:47Z</time>
      </trkpt>
      <trkpt lat="45.95728" lon="5.63523">
        <ele>1150.4</ele>
        <time>2026-05-12T10:07:48Z</time>
      </trkpt>
      <trkpt lat="45.95726" lon="5.63522">
        <ele>1150.6</ele>
        <time>2026-05-12T10:07:49Z</time>
      </trkpt>
      <trkpt lat="45.95725" lon="5.63522">
        <ele>1150.6</ele>
        <time>2026-05-12T10:07:50Z</time>
      </trkpt>
      <trkpt lat="45.95723" lon="5.63522">
        <ele>1150</ele>
        <time>2026-05-12T10:07:51Z</time>
      </trkpt>
      <trkpt lat="45.95721" lon="5.63521">
        <ele>1150.6</ele>
        <time>2026-05-12T10:07:52Z</time>
      </trkpt>
      <trkpt lat="45.95719" lon="5.6352">
        <ele>1150.6</ele>
        <time>2026-05-12T10:07:53Z</time>
      </trkpt>
      <trkpt lat="45.95718" lon="5.6352">
        <ele>1150.8</ele>
        <time>2026-05-12T10:07:54Z</time>
      </trkpt>
      <trkpt lat="45.95716" lon="5.6352">
        <ele>1151</ele>
        <time>2026-05-12T10:07:55Z</time>
      </trkpt>
      <trkpt lat="45.95714" lon="5.63521">
        <ele>1151</ele>
        <time>2026-05-12T10:07:56Z</time>
      </trkpt>
      <trkpt lat="45.95713" lon="5.63521">
        <ele>1151.4</ele>
        <time>2026-05-12T10:07:57Z</time>
      </trkpt>
      <trkpt lat="45.95711" lon="5.6352">
        <ele>1151.6</ele>
        <time>2026-05-12T10:07:58Z</time>
      </trkpt>
      <trkpt lat="45.95709" lon="5.63519">
        <ele>1152</ele>
        <time>2026-05-12T10:07:59Z</time>
      </trkpt>
      <trkpt lat="45.95707" lon="5.63518">
        <ele>1152.2</ele>
        <time>2026-05-12T10:08:00Z</time>
      </trkpt>
      <trkpt lat="45.95706" lon="5.63518">
        <ele>1152.2</ele>
        <time>2026-05-12T10:08:01Z</time>
      </trkpt>
      <trkpt lat="45.95705" lon="5.63517">
        <ele>1152.4</ele>
        <time>2026-05-12T10:08:02Z</time>
      </trkpt>
      <trkpt lat="45.95703" lon="5.63517">
        <ele>1152.6</ele>
        <time>2026-05-12T10:08:03Z</time>
      </trkpt>
      <trkpt lat="45.95702" lon="5.63517">
        <ele>1152.6</ele>
        <time>2026-05-12T10:08:04Z</time>
      </trkpt>
      <trkpt lat="45.957" lon="5.63517">
        <ele>1153</ele>
        <time>2026-05-12T10:08:05Z</time>
      </trkpt>
      <trkpt lat="45.95699" lon="5.63516">
        <ele>1153.2</ele>
        <time>2026-05-12T10:08:06Z</time>
      </trkpt>
      <trkpt lat="45.95697" lon="5.63516">
        <ele>1153.2</ele>
        <time>2026-05-12T10:08:07Z</time>
      </trkpt>
      <trkpt lat="45.95696" lon="5.63515">
        <ele>1153.6</ele>
        <time>2026-05-12T10:08:08Z</time>
      </trkpt>
      <trkpt lat="45.95695" lon="5.63516">
        <ele>1153.6</ele>
        <time>2026-05-12T10:08:09Z</time>
      </trkpt>
      <trkpt lat="45.95693" lon="5.63516">
        <ele>1154</ele>
        <time>2026-05-12T10:08:10Z</time>
      </trkpt>
      <trkpt lat="45.95692" lon="5.63516">
        <ele>1154</ele>
        <time>2026-05-12T10:08:11Z</time>
      </trkpt>
      <trkpt lat="45.95691" lon="5.63516">
        <ele>1154.2</ele>
        <time>2026-05-12T10:08:12Z</time>
      </trkpt>
      <trkpt lat="45.9569" lon="5.63516">
        <ele>1154.4</ele>
        <time>2026-05-12T10:08:13Z</time>
      </trkpt>
      <trkpt lat="45.95689" lon="5.63516">
        <ele>1154.4</ele>
        <time>2026-05-12T10:08:14Z</time>
      </trkpt>
      <trkpt lat="45.95687" lon="5.63516">
        <ele>1154.8</ele>
        <time>2026-05-12T10:08:15Z</time>
      </trkpt>
      <trkpt lat="45.95685" lon="5.63517">
        <ele>1154.8</ele>
        <time>2026-05-12T10:08:16Z</time>
      </trkpt>
      <trkpt lat="45.95683" lon="5.63518">
        <ele>1155</ele>
        <time>2026-05-12T10:08:17Z</time>
      </trkpt>
      <trkpt lat="45.95682" lon="5.63518">
        <ele>1155</ele>
        <time>2026-05-12T10:08:18Z</time>
      </trkpt>
      <trkpt lat="45.95681" lon="5.63519">
        <ele>1155.4</ele>
        <time>2026-05-12T10:08:19Z</time>
      </trkpt>
      <trkpt lat="45.9568" lon="5.63519">
        <ele>1155.4</ele>
        <time>2026-05-12T10:08:20Z</time>
      </trkpt>
      <trkpt lat="45.95678" lon="5.63518">
        <ele>1155.6</ele>
        <time>2026-05-12T10:08:21Z</time>
      </trkpt>
      <trkpt lat="45.95677" lon="5.63517">
        <ele>1155.6</ele>
        <time>2026-05-12T10:08:22Z</time>
      </trkpt>
      <trkpt lat="45.95675" lon="5.63517">
        <ele>1155.6</ele>
        <time>2026-05-12T10:08:23Z</time>
      </trkpt>
      <trkpt lat="45.95673" lon="5.63517">
        <ele>1155.6</ele>
        <time>2026-05-12T10:08:24Z</time>
      </trkpt>
      <trkpt lat="45.95671" lon="5.63518">
        <ele>1155.6</ele>
        <time>2026-05-12T10:08:25Z</time>
      </trkpt>
      <trkpt lat="45.95669" lon="5.63518">
        <ele>1156</ele>
        <time>2026-05-12T10:08:26Z</time>
      </trkpt>
      <trkpt lat="45.95667" lon="5.63517">
        <ele>1156</ele>
        <time>2026-05-12T10:08:27Z</time>
      </trkpt>
      <trkpt lat="45.95666" lon="5.63517">
        <ele>1156.4</ele>
        <time>2026-05-12T10:08:28Z</time>
      </trkpt>
      <trkpt lat="45.95665" lon="5.63516">
        <ele>1156.4</ele>
        <time>2026-05-12T10:08:29Z</time>
      </trkpt>
      <trkpt lat="45.95663" lon="5.63515">
        <ele>1156.4</ele>
        <time>2026-05-12T10:08:30Z</time>
      </trkpt>
      <trkpt lat="45.95662" lon="5.63514">
        <ele>1156.6</ele>
        <time>2026-05-12T10:08:31Z</time>
      </trkpt>
      <trkpt lat="45.9566" lon="5.63514">
        <ele>1157</ele>
        <time>2026-05-12T10:08:32Z</time>
      </trkpt>
      <trkpt lat="45.95658" lon="5.63514">
        <ele>1157.2</ele>
        <time>2026-05-12T10:08:33Z</time>
      </trkpt>
      <trkpt lat="45.95657" lon="5.63514">
        <ele>1157.2</ele>
        <time>2026-05-12T10:08:34Z</time>
      </trkpt>
      <trkpt lat="45.95655" lon="5.63514">
        <ele>1157.8</ele>
        <time>2026-05-12T10:08:35Z</time>
      </trkpt>
      <trkpt lat="45.95653" lon="5.63514">
        <ele>1158.2</ele>
        <time>2026-05-12T10:08:36Z</time>
      </trkpt>
      <trkpt lat="45.95652" lon="5.63514">
        <ele>1158.2</ele>
        <time>2026-05-12T10:08:37Z</time>
      </trkpt>
      <trkpt lat="45.95651" lon="5.63515">
        <ele>1158.6</ele>
        <time>2026-05-12T10:08:38Z</time>
      </trkpt>
      <trkpt lat="45.95651" lon="5.63515">
        <ele>1158.6</ele>
        <time>2026-05-12T10:08:39Z</time>
      </trkpt>
      <trkpt lat="45.9565" lon="5.63516">
        <ele>1159</ele>
        <time>2026-05-12T10:08:40Z</time>
      </trkpt>
      <trkpt lat="45.95648" lon="5.63515">
        <ele>1159.2</ele>
        <time>2026-05-12T10:08:41Z</time>
      </trkpt>
      <trkpt lat="45.95647" lon="5.63514">
        <ele>1159.2</ele>
        <time>2026-05-12T10:08:42Z</time>
      </trkpt>
      <trkpt lat="45.95647" lon="5.63513">
        <ele>1159.4</ele>
        <time>2026-05-12T10:08:43Z</time>
      </trkpt>
      <trkpt lat="45.95646" lon="5.63512">
        <ele>1159.4</ele>
        <time>2026-05-12T10:08:44Z</time>
      </trkpt>
      <trkpt lat="45.95645" lon="5.63511">
        <ele>1159.4</ele>
        <time>2026-05-12T10:08:45Z</time>
      </trkpt>
      <trkpt lat="45.95644" lon="5.6351">
        <ele>1159.6</ele>
        <time>2026-05-12T10:08:46Z</time>
      </trkpt>
      <trkpt lat="45.95643" lon="5.63509">
        <ele>1159.6</ele>
        <time>2026-05-12T10:08:47Z</time>
      </trkpt>
      <trkpt lat="45.95641" lon="5.63508">
        <ele>1159.8</ele>
        <time>2026-05-12T10:08:48Z</time>
      </trkpt>
      <trkpt lat="45.9564" lon="5.63508">
        <ele>1160.2</ele>
        <time>2026-05-12T10:08:49Z</time>
      </trkpt>
      <trkpt lat="45.95639" lon="5.63507">
        <ele>1160.2</ele>
        <time>2026-05-12T10:08:50Z</time>
      </trkpt>
      <trkpt lat="45.95638" lon="5.63506">
        <ele>1160.2</ele>
        <time>2026-05-12T10:08:51Z</time>
      </trkpt>
      <trkpt lat="45.95636" lon="5.63506">
        <ele>1160.2</ele>
        <time>2026-05-12T10:08:52Z</time>
      </trkpt>
      <trkpt lat="45.95634" lon="5.63505">
        <ele>1160.4</ele>
        <time>2026-05-12T10:08:53Z</time>
      </trkpt>
      <trkpt lat="45.95633" lon="5.63505">
        <ele>1160.4</ele>
        <time>2026-05-12T10:08:54Z</time>
      </trkpt>
      <trkpt lat="45.95632" lon="5.63504">
        <ele>1160.8</ele>
        <time>2026-05-12T10:08:55Z</time>
      </trkpt>
      <trkpt lat="45.95631" lon="5.63504">
        <ele>1161.2</ele>
        <time>2026-05-12T10:08:56Z</time>
      </trkpt>
      <trkpt lat="45.95629" lon="5.63503">
        <ele>1161.4</ele>
        <time>2026-05-12T10:08:57Z</time>
      </trkpt>
      <trkpt lat="45.95628" lon="5.63503">
        <ele>1161.6</ele>
        <time>2026-05-12T10:08:58Z</time>
      </trkpt>
      <trkpt lat="45.95626" lon="5.63503">
        <ele>1161.8</ele>
        <time>2026-05-12T10:08:59Z</time>
      </trkpt>
      <trkpt lat="45.95625" lon="5.63502">
        <ele>1161.8</ele>
        <time>2026-05-12T10:09:00Z</time>
      </trkpt>
      <trkpt lat="45.95624" lon="5.63502">
        <ele>1161.8</ele>
        <time>2026-05-12T10:09:01Z</time>
      </trkpt>
      <trkpt lat="45.95623" lon="5.63502">
        <ele>1162.2</ele>
        <time>2026-05-12T10:09:02Z</time>
      </trkpt>
      <trkpt lat="45.95622" lon="5.63502">
        <ele>1162.4</ele>
        <time>2026-05-12T10:09:03Z</time>
      </trkpt>
      <trkpt lat="45.9562" lon="5.63502">
        <ele>1162.4</ele>
        <time>2026-05-12T10:09:04Z</time>
      </trkpt>
      <trkpt lat="45.95619" lon="5.63501">
        <ele>1162.8</ele>
        <time>2026-05-12T10:09:05Z</time>
      </trkpt>
      <trkpt lat="45.95617" lon="5.63501">
        <ele>1162.8</ele>
        <time>2026-05-12T10:09:06Z</time>
      </trkpt>
      <trkpt lat="45.95616" lon="5.635">
        <ele>1162.8</ele>
        <time>2026-05-12T10:09:07Z</time>
      </trkpt>
      <trkpt lat="45.95614" lon="5.63499">
        <ele>1162.8</ele>
        <time>2026-05-12T10:09:08Z</time>
      </trkpt>
      <trkpt lat="45.95613" lon="5.63498">
        <ele>1163.2</ele>
        <time>2026-05-12T10:09:09Z</time>
      </trkpt>
      <trkpt lat="45.95611" lon="5.63497">
        <ele>1163.2</ele>
        <time>2026-05-12T10:09:10Z</time>
      </trkpt>
      <trkpt lat="45.9561" lon="5.63497">
        <ele>1163.4</ele>
        <time>2026-05-12T10:09:11Z</time>
      </trkpt>
      <trkpt lat="45.95608" lon="5.63496">
        <ele>1163.8</ele>
        <time>2026-05-12T10:09:12Z</time>
      </trkpt>
      <trkpt lat="45.95607" lon="5.63495">
        <ele>1163.8</ele>
        <time>2026-05-12T10:09:13Z</time>
      </trkpt>
      <trkpt lat="45.95606" lon="5.63495">
        <ele>1163.8</ele>
        <time>2026-05-12T10:09:14Z</time>
      </trkpt>
      <trkpt lat="45.95605" lon="5.63494">
        <ele>1163.8</ele>
        <time>2026-05-12T10:09:15Z</time>
      </trkpt>
      <trkpt lat="45.95605" lon="5.63494">
        <ele>1164</ele>
        <time>2026-05-12T10:09:16Z</time>
      </trkpt>
      <trkpt lat="45.95604" lon="5.63493">
        <ele>1164</ele>
        <time>2026-05-12T10:09:17Z</time>
      </trkpt>
      <trkpt lat="45.95602" lon="5.63492">
        <ele>1164.4</ele>
        <time>2026-05-12T10:09:18Z</time>
      </trkpt>
      <trkpt lat="45.95601" lon="5.63491">
        <ele>1164.4</ele>
        <time>2026-05-12T10:09:19Z</time>
      </trkpt>
      <trkpt lat="45.956" lon="5.63489">
        <ele>1164.6</ele>
        <time>2026-05-12T10:09:20Z</time>
      </trkpt>
      <trkpt lat="45.95598" lon="5.63487">
        <ele>1164.8</ele>
        <time>2026-05-12T10:09:21Z</time>
      </trkpt>
      <trkpt lat="45.95597" lon="5.63486">
        <ele>1164.8</ele>
        <time>2026-05-12T10:09:22Z</time>
      </trkpt>
      <trkpt lat="45.95596" lon="5.63486">
        <ele>1165.2</ele>
        <time>2026-05-12T10:09:23Z</time>
      </trkpt>
      <trkpt lat="45.95595" lon="5.63486">
        <ele>1165.2</ele>
        <time>2026-05-12T10:09:24Z</time>
      </trkpt>
      <trkpt lat="45.95594" lon="5.63485">
        <ele>1165.8</ele>
        <time>2026-05-12T10:09:25Z</time>
      </trkpt>
      <trkpt lat="45.95593" lon="5.63485">
        <ele>1165.8</ele>
        <time>2026-05-12T10:09:26Z</time>
      </trkpt>
      <trkpt lat="45.95592" lon="5.63484">
        <ele>1165.8</ele>
        <time>2026-05-12T10:09:27Z</time>
      </trkpt>
      <trkpt lat="45.9559" lon="5.63484">
        <ele>1166.2</ele>
        <time>2026-05-12T10:09:28Z</time>
      </trkpt>
      <trkpt lat="45.95589" lon="5.63483">
        <ele>1166.2</ele>
        <time>2026-05-12T10:09:29Z</time>
      </trkpt>
      <trkpt lat="45.95587" lon="5.63482">
        <ele>1166.4</ele>
        <time>2026-05-12T10:09:30Z</time>
      </trkpt>
      <trkpt lat="45.95586" lon="5.63482">
        <ele>1166.4</ele>
        <time>2026-05-12T10:09:31Z</time>
      </trkpt>
      <trkpt lat="45.95584" lon="5.63481">
        <ele>1166.4</ele>
        <time>2026-05-12T10:09:32Z</time>
      </trkpt>
      <trkpt lat="45.95583" lon="5.63481">
        <ele>1166.8</ele>
        <time>2026-05-12T10:09:33Z</time>
      </trkpt>
      <trkpt lat="45.95583" lon="5.6348">
        <ele>1167.2</ele>
        <time>2026-05-12T10:09:34Z</time>
      </trkpt>
      <trkpt lat="45.95582" lon="5.6348">
        <ele>1167.2</ele>
        <time>2026-05-12T10:09:35Z</time>
      </trkpt>
      <trkpt lat="45.95581" lon="5.63479">
        <ele>1167.2</ele>
        <time>2026-05-12T10:09:36Z</time>
      </trkpt>
      <trkpt lat="45.95579" lon="5.63479">
        <ele>1167.6</ele>
        <time>2026-05-12T10:09:37Z</time>
      </trkpt>
      <trkpt lat="45.95578" lon="5.63478">
        <ele>1167.6</ele>
        <time>2026-05-12T10:09:38Z</time>
      </trkpt>
      <trkpt lat="45.95576" lon="5.63477">
        <ele>1167.6</ele>
        <time>2026-05-12T10:09:39Z</time>
      </trkpt>
      <trkpt lat="45.95575" lon="5.63477">
        <ele>1168</ele>
        <time>2026-05-12T10:09:40Z</time>
      </trkpt>
      <trkpt lat="45.95574" lon="5.63476">
        <ele>1168</ele>
        <time>2026-05-12T10:09:41Z</time>
      </trkpt>
      <trkpt lat="45.95573" lon="5.63475">
        <ele>1168</ele>
        <time>2026-05-12T10:09:42Z</time>
      </trkpt>
      <trkpt lat="45.95571" lon="5.63475">
        <ele>1168.4</ele>
        <time>2026-05-12T10:09:43Z</time>
      </trkpt>
      <trkpt lat="45.95569" lon="5.63474">
        <ele>1168.4</ele>
        <time>2026-05-12T10:09:44Z</time>
      </trkpt>
      <trkpt lat="45.95568" lon="5.63474">
        <ele>1168.8</ele>
        <time>2026-05-12T10:09:45Z</time>
      </trkpt>
      <trkpt lat="45.95567" lon="5.63473">
        <ele>1169.2</ele>
        <time>2026-05-12T10:09:46Z</time>
      </trkpt>
      <trkpt lat="45.95566" lon="5.63472">
        <ele>1169.4</ele>
        <time>2026-05-12T10:09:47Z</time>
      </trkpt>
      <trkpt lat="45.95564" lon="5.63472">
        <ele>1169.4</ele>
        <time>2026-05-12T10:09:48Z</time>
      </trkpt>
      <trkpt lat="45.95563" lon="5.63472">
        <ele>1169.8</ele>
        <time>2026-05-12T10:09:49Z</time>
      </trkpt>
      <trkpt lat="45.95561" lon="5.63471">
        <ele>1169.8</ele>
        <time>2026-05-12T10:09:50Z</time>
      </trkpt>
      <trkpt lat="45.9556" lon="5.63471">
        <ele>1169.8</ele>
        <time>2026-05-12T10:09:51Z</time>
      </trkpt>
      <trkpt lat="45.95558" lon="5.6347">
        <ele>1170</ele>
        <time>2026-05-12T10:09:52Z</time>
      </trkpt>
      <trkpt lat="45.95557" lon="5.6347">
        <ele>1170.2</ele>
        <time>2026-05-12T10:09:53Z</time>
      </trkpt>
      <trkpt lat="45.95555" lon="5.63469">
        <ele>1170.2</ele>
        <time>2026-05-12T10:09:54Z</time>
      </trkpt>
      <trkpt lat="45.95554" lon="5.63469">
        <ele>1170.2</ele>
        <time>2026-05-12T10:09:55Z</time>
      </trkpt>
      <trkpt lat="45.95553" lon="5.63468">
        <ele>1170.6</ele>
        <time>2026-05-12T10:09:56Z</time>
      </trkpt>
      <trkpt lat="45.95551" lon="5.63467">
        <ele>1170.6</ele>
        <time>2026-05-12T10:09:57Z</time>
      </trkpt>
      <trkpt lat="45.9555" lon="5.63467">
        <ele>1170.6</ele>
        <time>2026-05-12T10:09:58Z</time>
      </trkpt>
      <trkpt lat="45.95549" lon="5.63467">
        <ele>1170.8</ele>
        <time>2026-05-12T10:09:59Z</time>
      </trkpt>
      <trkpt lat="45.95548" lon="5.63466">
        <ele>1170.8</ele>
        <time>2026-05-12T10:10:00Z</time>
      </trkpt>
      <trkpt lat="45.95547" lon="5.63465">
        <ele>1171</ele>
        <time>2026-05-12T10:10:01Z</time>
      </trkpt>
      <trkpt lat="45.95546" lon="5.63464">
        <ele>1171</ele>
        <time>2026-05-12T10:10:02Z</time>
      </trkpt>
      <trkpt lat="45.95545" lon="5.63463">
        <ele>1171</ele>
        <time>2026-05-12T10:10:03Z</time>
      </trkpt>
      <trkpt lat="45.95544" lon="5.63462">
        <ele>1171.2</ele>
        <time>2026-05-12T10:10:04Z</time>
      </trkpt>
      <trkpt lat="45.95543" lon="5.63461">
        <ele>1171.2</ele>
        <time>2026-05-12T10:10:05Z</time>
      </trkpt>
      <trkpt lat="45.95542" lon="5.6346">
        <ele>1171.8</ele>
        <time>2026-05-12T10:10:06Z</time>
      </trkpt>
      <trkpt lat="45.95541" lon="5.6346">
        <ele>1171.8</ele>
        <time>2026-05-12T10:10:07Z</time>
      </trkpt>
      <trkpt lat="45.95539" lon="5.6346">
        <ele>1172</ele>
        <time>2026-05-12T10:10:08Z</time>
      </trkpt>
      <trkpt lat="45.95537" lon="5.63459">
        <ele>1172</ele>
        <time>2026-05-12T10:10:09Z</time>
      </trkpt>
      <trkpt lat="45.95536" lon="5.63459">
        <ele>1172.2</ele>
        <time>2026-05-12T10:10:10Z</time>
      </trkpt>
      <trkpt lat="45.95535" lon="5.63458">
        <ele>1172.2</ele>
        <time>2026-05-12T10:10:11Z</time>
      </trkpt>
      <trkpt lat="45.95534" lon="5.63458">
        <ele>1172.6</ele>
        <time>2026-05-12T10:10:12Z</time>
      </trkpt>
      <trkpt lat="45.95533" lon="5.63457">
        <ele>1172.6</ele>
        <time>2026-05-12T10:10:13Z</time>
      </trkpt>
      <trkpt lat="45.95532" lon="5.63458">
        <ele>1173</ele>
        <time>2026-05-12T10:10:14Z</time>
      </trkpt>
      <trkpt lat="45.9553" lon="5.63458">
        <ele>1173</ele>
        <time>2026-05-12T10:10:15Z</time>
      </trkpt>
      <trkpt lat="45.95529" lon="5.63458">
        <ele>1173</ele>
        <time>2026-05-12T10:10:16Z</time>
      </trkpt>
      <trkpt lat="45.95528" lon="5.63459">
        <ele>1173.2</ele>
        <time>2026-05-12T10:10:17Z</time>
      </trkpt>
      <trkpt lat="45.95527" lon="5.63459">
        <ele>1173.2</ele>
        <time>2026-05-12T10:10:18Z</time>
      </trkpt>
      <trkpt lat="45.95526" lon="5.63459">
        <ele>1173.6</ele>
        <time>2026-05-12T10:10:19Z</time>
      </trkpt>
      <trkpt lat="45.95526" lon="5.63459">
        <ele>1173.6</ele>
        <time>2026-05-12T10:10:20Z</time>
      </trkpt>
      <trkpt lat="45.95526" lon="5.63459">
        <ele>1173.8</ele>
        <time>2026-05-12T10:10:21Z</time>
      </trkpt>
      <trkpt lat="45.95524" lon="5.63458">
        <ele>1173.8</ele>
        <time>2026-05-12T10:10:22Z</time>
      </trkpt>
      <trkpt lat="45.9552" lon="5.63458">
        <ele>1173.8</ele>
        <time>2026-05-12T10:10:23Z</time>
      </trkpt>
      <trkpt lat="45.95519" lon="5.63458">
        <ele>1174.2</ele>
        <time>2026-05-12T10:10:24Z</time>
      </trkpt>
      <trkpt lat="45.95518" lon="5.63457">
        <ele>1174.2</ele>
        <time>2026-05-12T10:10:25Z</time>
      </trkpt>
      <trkpt lat="45.95516" lon="5.63456">
        <ele>1174.4</ele>
        <time>2026-05-12T10:10:26Z</time>
      </trkpt>
      <trkpt lat="45.95515" lon="5.63456">
        <ele>1174.8</ele>
        <time>2026-05-12T10:10:27Z</time>
      </trkpt>
      <trkpt lat="45.95513" lon="5.63455">
        <ele>1174.8</ele>
        <time>2026-05-12T10:10:28Z</time>
      </trkpt>
      <trkpt lat="45.95511" lon="5.63454">
        <ele>1174.6</ele>
        <time>2026-05-12T10:10:29Z</time>
      </trkpt>
      <trkpt lat="45.9551" lon="5.63453">
        <ele>1174.8</ele>
        <time>2026-05-12T10:10:30Z</time>
      </trkpt>
      <trkpt lat="45.95509" lon="5.63453">
        <ele>1174.8</ele>
        <time>2026-05-12T10:10:31Z</time>
      </trkpt>
      <trkpt lat="45.95508" lon="5.63452">
        <ele>1174.8</ele>
        <time>2026-05-12T10:10:32Z</time>
      </trkpt>
      <trkpt lat="45.95507" lon="5.63454">
        <ele>1174.8</ele>
        <time>2026-05-12T10:10:33Z</time>
      </trkpt>
      <trkpt lat="45.95506" lon="5.63455">
        <ele>1174.8</ele>
        <time>2026-05-12T10:10:34Z</time>
      </trkpt>
      <trkpt lat="45.95507" lon="5.63455">
        <ele>1174.8</ele>
        <time>2026-05-12T10:10:35Z</time>
      </trkpt>
      <trkpt lat="45.95508" lon="5.63454">
        <ele>1175.6</ele>
        <time>2026-05-12T10:10:59Z</time>
      </trkpt>
      <trkpt lat="45.95507" lon="5.63453">
        <ele>1175.6</ele>
        <time>2026-05-12T10:11:00Z</time>
      </trkpt>
      <trkpt lat="45.95507" lon="5.63453">
        <ele>1175.6</ele>
        <time>2026-05-12T10:11:01Z</time>
      </trkpt>
      <trkpt lat="45.95506" lon="5.63453">
        <ele>1175.6</ele>
        <time>2026-05-12T10:11:02Z</time>
      </trkpt>
      <trkpt lat="45.95506" lon="5.63453">
        <ele>1175.6</ele>
        <time>2026-05-12T10:11:03Z</time>
      </trkpt>
      <trkpt lat="45.95504" lon="5.63452">
        <ele>1176.2</ele>
        <time>2026-05-12T10:23:27Z</time>
      </trkpt>
      <trkpt lat="45.95504" lon="5.63451">
        <ele>1176.2</ele>
        <time>2026-05-12T10:23:28Z</time>
      </trkpt>
      <trkpt lat="45.95504" lon="5.63451">
        <ele>1176.2</ele>
        <time>2026-05-12T10:23:29Z</time>
      </trkpt>
      <trkpt lat="45.95504" lon="5.63451">
        <ele>1176.2</ele>
        <time>2026-05-12T10:23:30Z</time>
      </trkpt>
      <trkpt lat="45.95504" lon="5.63452">
        <ele>1176.2</ele>
        <time>2026-05-12T10:23:31Z</time>
      </trkpt>
      <trkpt lat="45.95504" lon="5.63455">
        <ele>1175.8</ele>
        <time>2026-05-12T10:23:45Z</time>
      </trkpt>
      <trkpt lat="45.95504" lon="5.63456">
        <ele>1175.8</ele>
        <time>2026-05-12T10:23:46Z</time>
      </trkpt>
      <trkpt lat="45.95503" lon="5.63458">
        <ele>1175.8</ele>
        <time>2026-05-12T10:23:47Z</time>
      </trkpt>
      <trkpt lat="45.95502" lon="5.63459">
        <ele>1175.8</ele>
        <time>2026-05-12T10:23:48Z</time>
      </trkpt>
      <trkpt lat="45.95501" lon="5.63459">
        <ele>1175.8</ele>
        <time>2026-05-12T10:23:49Z</time>
      </trkpt>
      <trkpt lat="45.955" lon="5.63459">
        <ele>1175.8</ele>
        <time>2026-05-12T10:23:50Z</time>
      </trkpt>
      <trkpt lat="45.95499" lon="5.63459">
        <ele>1175.6</ele>
        <time>2026-05-12T10:23:51Z</time>
      </trkpt>
      <trkpt lat="45.95497" lon="5.6346">
        <ele>1175.6</ele>
        <time>2026-05-12T10:23:52Z</time>
      </trkpt>
      <trkpt lat="45.95495" lon="5.63461">
        <ele>1175.2</ele>
        <time>2026-05-12T10:23:53Z</time>
      </trkpt>
      <trkpt lat="45.95493" lon="5.63462">
        <ele>1175.2</ele>
        <time>2026-05-12T10:23:54Z</time>
      </trkpt>
      <trkpt lat="45.95492" lon="5.63462">
        <ele>1175</ele>
        <time>2026-05-12T10:23:55Z</time>
      </trkpt>
      <trkpt lat="45.9549" lon="5.63462">
        <ele>1175</ele>
        <time>2026-05-12T10:23:56Z</time>
      </trkpt>
      <trkpt lat="45.95488" lon="5.63462">
        <ele>1174.8</ele>
        <time>2026-05-12T10:23:57Z</time>
      </trkpt>
      <trkpt lat="45.95487" lon="5.63462">
        <ele>1174.8</ele>
        <time>2026-05-12T10:23:58Z</time>
      </trkpt>
      <trkpt lat="45.95485" lon="5.63462">
        <ele>1174.6</ele>
        <time>2026-05-12T10:23:59Z</time>
      </trkpt>
      <trkpt lat="45.95485" lon="5.63463">
        <ele>1174.2</ele>
        <time>2026-05-12T10:24:00Z</time>
      </trkpt>
      <trkpt lat="45.95485" lon="5.63463">
        <ele>1174.2</ele>
        <time>2026-05-12T10:24:01Z</time>
      </trkpt>
      <trkpt lat="45.95482" lon="5.63464">
        <ele>1173.8</ele>
        <time>2026-05-12T10:24:02Z</time>
      </trkpt>
      <trkpt lat="45.9548" lon="5.63464">
        <ele>1173.8</ele>
        <time>2026-05-12T10:24:03Z</time>
      </trkpt>
      <trkpt lat="45.95479" lon="5.63464">
        <ele>1173.4</ele>
        <time>2026-05-12T10:24:04Z</time>
      </trkpt>
      <trkpt lat="45.95477" lon="5.63463">
        <ele>1173.4</ele>
        <time>2026-05-12T10:24:05Z</time>
      </trkpt>
      <trkpt lat="45.95475" lon="5.63464">
        <ele>1173</ele>
        <time>2026-05-12T10:24:06Z</time>
      </trkpt>
      <trkpt lat="45.95473" lon="5.63465">
        <ele>1172.6</ele>
        <time>2026-05-12T10:24:07Z</time>
      </trkpt>
      <trkpt lat="45.95471" lon="5.63466">
        <ele>1172.6</ele>
        <time>2026-05-12T10:24:08Z</time>
      </trkpt>
      <trkpt lat="45.95469" lon="5.63467">
        <ele>1172.2</ele>
        <time>2026-05-12T10:24:09Z</time>
      </trkpt>
      <trkpt lat="45.95468" lon="5.63467">
        <ele>1171.8</ele>
        <time>2026-05-12T10:24:10Z</time>
      </trkpt>
      <trkpt lat="45.95465" lon="5.63468">
        <ele>1171.8</ele>
        <time>2026-05-12T10:24:11Z</time>
      </trkpt>
      <trkpt lat="45.95462" lon="5.63468">
        <ele>1171.2</ele>
        <time>2026-05-12T10:24:12Z</time>
      </trkpt>
      <trkpt lat="45.95458" lon="5.63468">
        <ele>1171</ele>
        <time>2026-05-12T10:24:13Z</time>
      </trkpt>
      <trkpt lat="45.95454" lon="5.63468">
        <ele>1170.6</ele>
        <time>2026-05-12T10:24:14Z</time>
      </trkpt>
      <trkpt lat="45.95451" lon="5.63468">
        <ele>1170.2</ele>
        <time>2026-05-12T10:24:15Z</time>
      </trkpt>
      <trkpt lat="45.95448" lon="5.63469">
        <ele>1169.8</ele>
        <time>2026-05-12T10:24:16Z</time>
      </trkpt>
      <trkpt lat="45.95445" lon="5.63469">
        <ele>1169.8</ele>
        <time>2026-05-12T10:24:17Z</time>
      </trkpt>
      <trkpt lat="45.95443" lon="5.63469">
        <ele>1169.2</ele>
        <time>2026-05-12T10:24:18Z</time>
      </trkpt>
      <trkpt lat="45.95441" lon="5.63469">
        <ele>1168.4</ele>
        <time>2026-05-12T10:24:19Z</time>
      </trkpt>
      <trkpt lat="45.95438" lon="5.63468">
        <ele>1167.6</ele>
        <time>2026-05-12T10:24:20Z</time>
      </trkpt>
      <trkpt lat="45.95436" lon="5.63468">
        <ele>1167.6</ele>
        <time>2026-05-12T10:24:21Z</time>
      </trkpt>
      <trkpt lat="45.95433" lon="5.63468">
        <ele>1167.2</ele>
        <time>2026-05-12T10:24:22Z</time>
      </trkpt>
      <trkpt lat="45.9543" lon="5.63469">
        <ele>1166.6</ele>
        <time>2026-05-12T10:24:23Z</time>
      </trkpt>
      <trkpt lat="45.95426" lon="5.6347">
        <ele>1165.8</ele>
        <time>2026-05-12T10:24:24Z</time>
      </trkpt>
      <trkpt lat="45.95423" lon="5.63471">
        <ele>1165.4</ele>
        <time>2026-05-12T10:24:25Z</time>
      </trkpt>
      <trkpt lat="45.95419" lon="5.63472">
        <ele>1165</ele>
        <time>2026-05-12T10:24:26Z</time>
      </trkpt>
      <trkpt lat="45.95414" lon="5.63472">
        <ele>1164.4</ele>
        <time>2026-05-12T10:24:27Z</time>
      </trkpt>
      <trkpt lat="45.9541" lon="5.63473">
        <ele>1164</ele>
        <time>2026-05-12T10:24:28Z</time>
      </trkpt>
      <trkpt lat="45.95406" lon="5.63472">
        <ele>1163.6</ele>
        <time>2026-05-12T10:24:29Z</time>
      </trkpt>
      <trkpt lat="45.95402" lon="5.63472">
        <ele>1163.2</ele>
        <time>2026-05-12T10:24:30Z</time>
      </trkpt>
      <trkpt lat="45.95398" lon="5.63472">
        <ele>1162.6</ele>
        <time>2026-05-12T10:24:31Z</time>
      </trkpt>
      <trkpt lat="45.95395" lon="5.63471">
        <ele>1162.4</ele>
        <time>2026-05-12T10:24:32Z</time>
      </trkpt>
      <trkpt lat="45.95392" lon="5.6347">
        <ele>1162</ele>
        <time>2026-05-12T10:24:33Z</time>
      </trkpt>
      <trkpt lat="45.95389" lon="5.63469">
        <ele>1161.4</ele>
        <time>2026-05-12T10:24:34Z</time>
      </trkpt>
      <trkpt lat="45.95385" lon="5.63469">
        <ele>1161</ele>
        <time>2026-05-12T10:24:35Z</time>
      </trkpt>
      <trkpt lat="45.95382" lon="5.63469">
        <ele>1161</ele>
        <time>2026-05-12T10:24:36Z</time>
      </trkpt>
      <trkpt lat="45.95379" lon="5.63468">
        <ele>1160</ele>
        <time>2026-05-12T10:24:37Z</time>
      </trkpt>
      <trkpt lat="45.95377" lon="5.63467">
        <ele>1158.4</ele>
        <time>2026-05-12T10:24:38Z</time>
      </trkpt>
      <trkpt lat="45.95374" lon="5.63466">
        <ele>1158.4</ele>
        <time>2026-05-12T10:24:39Z</time>
      </trkpt>
      <trkpt lat="45.95371" lon="5.63465">
        <ele>1158.4</ele>
        <time>2026-05-12T10:24:40Z</time>
      </trkpt>
      <trkpt lat="45.95369" lon="5.63464">
        <ele>1158.4</ele>
        <time>2026-05-12T10:24:41Z</time>
      </trkpt>
      <trkpt lat="45.95367" lon="5.63463">
        <ele>1158</ele>
        <time>2026-05-12T10:24:42Z</time>
      </trkpt>
      <trkpt lat="45.95364" lon="5.63462">
        <ele>1158</ele>
        <time>2026-05-12T10:24:43Z</time>
      </trkpt>
      <trkpt lat="45.95362" lon="5.63462">
        <ele>1158</ele>
        <time>2026-05-12T10:24:44Z</time>
      </trkpt>
      <trkpt lat="45.9536" lon="5.63463">
        <ele>1157.4</ele>
        <time>2026-05-12T10:24:45Z</time>
      </trkpt>
      <trkpt lat="45.95358" lon="5.63463">
        <ele>1157.4</ele>
        <time>2026-05-12T10:24:46Z</time>
      </trkpt>
      <trkpt lat="45.95356" lon="5.63464">
        <ele>1157.4</ele>
        <time>2026-05-12T10:24:47Z</time>
      </trkpt>
      <trkpt lat="45.95355" lon="5.63464">
        <ele>1157.4</ele>
        <time>2026-05-12T10:24:48Z</time>
      </trkpt>
      <trkpt lat="45.95354" lon="5.63464">
        <ele>1157.4</ele>
        <time>2026-05-12T10:24:49Z</time>
      </trkpt>
      <trkpt lat="45.95352" lon="5.63462">
        <ele>1157.4</ele>
        <time>2026-05-12T10:24:50Z</time>
      </trkpt>
      <trkpt lat="45.9535" lon="5.63461">
        <ele>1157.2</ele>
        <time>2026-05-12T10:24:51Z</time>
      </trkpt>
      <trkpt lat="45.95349" lon="5.6346">
        <ele>1157.2</ele>
        <time>2026-05-12T10:24:52Z</time>
      </trkpt>
      <trkpt lat="45.95347" lon="5.63459">
        <ele>1157.2</ele>
        <time>2026-05-12T10:24:53Z</time>
      </trkpt>
      <trkpt lat="45.95345" lon="5.63459">
        <ele>1157.2</ele>
        <time>2026-05-12T10:24:54Z</time>
      </trkpt>
      <trkpt lat="45.95343" lon="5.63459">
        <ele>1157</ele>
        <time>2026-05-12T10:24:55Z</time>
      </trkpt>
      <trkpt lat="45.95342" lon="5.6346">
        <ele>1157</ele>
        <time>2026-05-12T10:24:56Z</time>
      </trkpt>
      <trkpt lat="45.95342" lon="5.6346">
        <ele>1157.2</ele>
        <time>2026-05-12T10:24:57Z</time>
      </trkpt>
      <trkpt lat="45.95341" lon="5.63459">
        <ele>1157.2</ele>
        <time>2026-05-12T10:24:58Z</time>
      </trkpt>
      <trkpt lat="45.9534" lon="5.63458">
        <ele>1157.2</ele>
        <time>2026-05-12T10:24:59Z</time>
      </trkpt>
      <trkpt lat="45.95338" lon="5.63458">
        <ele>1157.2</ele>
        <time>2026-05-12T10:25:00Z</time>
      </trkpt>
      <trkpt lat="45.95337" lon="5.63457">
        <ele>1157.2</ele>
        <time>2026-05-12T10:25:01Z</time>
      </trkpt>
      <trkpt lat="45.95336" lon="5.63457">
        <ele>1157.2</ele>
        <time>2026-05-12T10:25:02Z</time>
      </trkpt>
      <trkpt lat="45.95334" lon="5.63457">
        <ele>1157.2</ele>
        <time>2026-05-12T10:25:03Z</time>
      </trkpt>
      <trkpt lat="45.95334" lon="5.63457">
        <ele>1157.2</ele>
        <time>2026-05-12T10:25:04Z</time>
      </trkpt>
      <trkpt lat="45.95333" lon="5.63457">
        <ele>1157.2</ele>
        <time>2026-05-12T10:25:05Z</time>
      </trkpt>
      <trkpt lat="45.95332" lon="5.63457">
        <ele>1157.2</ele>
        <time>2026-05-12T10:25:06Z</time>
      </trkpt>
      <trkpt lat="45.95331" lon="5.63458">
        <ele>1157.2</ele>
        <time>2026-05-12T10:25:07Z</time>
      </trkpt>
      <trkpt lat="45.9533" lon="5.63458">
        <ele>1157.2</ele>
        <time>2026-05-12T10:25:08Z</time>
      </trkpt>
      <trkpt lat="45.9533" lon="5.63458">
        <ele>1157.2</ele>
        <time>2026-05-12T10:25:09Z</time>
      </trkpt>
      <trkpt lat="45.95329" lon="5.63459">
        <ele>1157.2</ele>
        <time>2026-05-12T10:25:10Z</time>
      </trkpt>
      <trkpt lat="45.95328" lon="5.6346">
        <ele>1157.6</ele>
        <time>2026-05-12T10:25:11Z</time>
      </trkpt>
      <trkpt lat="45.95327" lon="5.63462">
        <ele>1157.6</ele>
        <time>2026-05-12T10:25:12Z</time>
      </trkpt>
      <trkpt lat="45.95326" lon="5.63463">
        <ele>1157.6</ele>
        <time>2026-05-12T10:25:13Z</time>
      </trkpt>
      <trkpt lat="45.95325" lon="5.63464">
        <ele>1157.6</ele>
        <time>2026-05-12T10:25:14Z</time>
      </trkpt>
      <trkpt lat="45.95324" lon="5.63465">
        <ele>1157.2</ele>
        <time>2026-05-12T10:25:15Z</time>
      </trkpt>
      <trkpt lat="45.95322" lon="5.63465">
        <ele>1157.2</ele>
        <time>2026-05-12T10:25:16Z</time>
      </trkpt>
      <trkpt lat="45.9532" lon="5.63465">
        <ele>1157.2</ele>
        <time>2026-05-12T10:25:17Z</time>
      </trkpt>
      <trkpt lat="45.95319" lon="5.63465">
        <ele>1157.2</ele>
        <time>2026-05-12T10:25:18Z</time>
      </trkpt>
      <trkpt lat="45.95317" lon="5.63466">
        <ele>1157.2</ele>
        <time>2026-05-12T10:25:19Z</time>
      </trkpt>
      <trkpt lat="45.95315" lon="5.63467">
        <ele>1157.2</ele>
        <time>2026-05-12T10:25:20Z</time>
      </trkpt>
      <trkpt lat="45.95313" lon="5.63467">
        <ele>1157.2</ele>
        <time>2026-05-12T10:25:21Z</time>
      </trkpt>
      <trkpt lat="45.95311" lon="5.63468">
        <ele>1157.2</ele>
        <time>2026-05-12T10:25:22Z</time>
      </trkpt>
      <trkpt lat="45.95309" lon="5.63468">
        <ele>1157.4</ele>
        <time>2026-05-12T10:25:23Z</time>
      </trkpt>
      <trkpt lat="45.95307" lon="5.63467">
        <ele>1157.4</ele>
        <time>2026-05-12T10:25:24Z</time>
      </trkpt>
      <trkpt lat="45.95306" lon="5.63467">
        <ele>1157.8</ele>
        <time>2026-05-12T10:25:25Z</time>
      </trkpt>
      <trkpt lat="45.95305" lon="5.63467">
        <ele>1157.8</ele>
        <time>2026-05-12T10:25:26Z</time>
      </trkpt>
      <trkpt lat="45.95303" lon="5.63467">
        <ele>1157.8</ele>
        <time>2026-05-12T10:25:27Z</time>
      </trkpt>
      <trkpt lat="45.95302" lon="5.63467">
        <ele>1158.4</ele>
        <time>2026-05-12T10:25:28Z</time>
      </trkpt>
      <trkpt lat="45.953" lon="5.63467">
        <ele>1158.8</ele>
        <time>2026-05-12T10:25:29Z</time>
      </trkpt>
      <trkpt lat="45.95299" lon="5.63467">
        <ele>1158.8</ele>
        <time>2026-05-12T10:25:30Z</time>
      </trkpt>
      <trkpt lat="45.95298" lon="5.63467">
        <ele>1158.8</ele>
        <time>2026-05-12T10:25:31Z</time>
      </trkpt>
      <trkpt lat="45.95297" lon="5.63466">
        <ele>1159</ele>
        <time>2026-05-12T10:25:32Z</time>
      </trkpt>
      <trkpt lat="45.95295" lon="5.63465">
        <ele>1159</ele>
        <time>2026-05-12T10:25:33Z</time>
      </trkpt>
      <trkpt lat="45.95294" lon="5.63464">
        <ele>1159.4</ele>
        <time>2026-05-12T10:25:34Z</time>
      </trkpt>
      <trkpt lat="45.95292" lon="5.63463">
        <ele>1159.4</ele>
        <time>2026-05-12T10:25:35Z</time>
      </trkpt>
      <trkpt lat="45.9529" lon="5.63462">
        <ele>1159.4</ele>
        <time>2026-05-12T10:25:36Z</time>
      </trkpt>
      <trkpt lat="45.95287" lon="5.63461">
        <ele>1159.4</ele>
        <time>2026-05-12T10:25:37Z</time>
      </trkpt>
      <trkpt lat="45.95285" lon="5.63461">
        <ele>1159.4</ele>
        <time>2026-05-12T10:25:38Z</time>
      </trkpt>
      <trkpt lat="45.95283" lon="5.63461">
        <ele>1159.4</ele>
        <time>2026-05-12T10:25:39Z</time>
      </trkpt>
      <trkpt lat="45.95281" lon="5.63461">
        <ele>1159.4</ele>
        <time>2026-05-12T10:25:40Z</time>
      </trkpt>
      <trkpt lat="45.95279" lon="5.6346">
        <ele>1159.4</ele>
        <time>2026-05-12T10:25:41Z</time>
      </trkpt>
      <trkpt lat="45.95277" lon="5.63459">
        <ele>1159.6</ele>
        <time>2026-05-12T10:25:42Z</time>
      </trkpt>
      <trkpt lat="45.95275" lon="5.63457">
        <ele>1159.6</ele>
        <time>2026-05-12T10:25:43Z</time>
      </trkpt>
      <trkpt lat="45.95273" lon="5.63456">
        <ele>1159.6</ele>
        <time>2026-05-12T10:25:44Z</time>
      </trkpt>
      <trkpt lat="45.95272" lon="5.63456">
        <ele>1159.4</ele>
        <time>2026-05-12T10:25:45Z</time>
      </trkpt>
      <trkpt lat="45.9527" lon="5.63455">
        <ele>1159.4</ele>
        <time>2026-05-12T10:25:46Z</time>
      </trkpt>
      <trkpt lat="45.95268" lon="5.63455">
        <ele>1159</ele>
        <time>2026-05-12T10:25:47Z</time>
      </trkpt>
      <trkpt lat="45.95267" lon="5.63455">
        <ele>1159</ele>
        <time>2026-05-12T10:25:48Z</time>
      </trkpt>
      <trkpt lat="45.95266" lon="5.63456">
        <ele>1159</ele>
        <time>2026-05-12T10:25:49Z</time>
      </trkpt>
      <trkpt lat="45.95264" lon="5.63457">
        <ele>1159</ele>
        <time>2026-05-12T10:25:50Z</time>
      </trkpt>
      <trkpt lat="45.95263" lon="5.63458">
        <ele>1158.8</ele>
        <time>2026-05-12T10:25:51Z</time>
      </trkpt>
      <trkpt lat="45.95261" lon="5.63458">
        <ele>1158.8</ele>
        <time>2026-05-12T10:25:52Z</time>
      </trkpt>
      <trkpt lat="45.95259" lon="5.63457">
        <ele>1158.8</ele>
        <time>2026-05-12T10:25:53Z</time>
      </trkpt>
      <trkpt lat="45.95257" lon="5.63457">
        <ele>1158.4</ele>
        <time>2026-05-12T10:25:54Z</time>
      </trkpt>
      <trkpt lat="45.95256" lon="5.63456">
        <ele>1158.2</ele>
        <time>2026-05-12T10:25:55Z</time>
      </trkpt>
      <trkpt lat="45.95254" lon="5.63455">
        <ele>1158.2</ele>
        <time>2026-05-12T10:25:56Z</time>
      </trkpt>
      <trkpt lat="45.95252" lon="5.63453">
        <ele>1158.2</ele>
        <time>2026-05-12T10:25:57Z</time>
      </trkpt>
      <trkpt lat="45.9525" lon="5.63452">
        <ele>1158</ele>
        <time>2026-05-12T10:25:58Z</time>
      </trkpt>
      <trkpt lat="45.95249" lon="5.63451">
        <ele>1158</ele>
        <time>2026-05-12T10:25:59Z</time>
      </trkpt>
      <trkpt lat="45.95247" lon="5.6345">
        <ele>1157.6</ele>
        <time>2026-05-12T10:26:00Z</time>
      </trkpt>
      <trkpt lat="45.95245" lon="5.63448">
        <ele>1157.6</ele>
        <time>2026-05-12T10:26:01Z</time>
      </trkpt>
      <trkpt lat="45.95244" lon="5.63448">
        <ele>1157.2</ele>
        <time>2026-05-12T10:26:02Z</time>
      </trkpt>
      <trkpt lat="45.95242" lon="5.63447">
        <ele>1157.2</ele>
        <time>2026-05-12T10:26:03Z</time>
      </trkpt>
      <trkpt lat="45.9524" lon="5.63447">
        <ele>1157</ele>
        <time>2026-05-12T10:26:04Z</time>
      </trkpt>
      <trkpt lat="45.95238" lon="5.63447">
        <ele>1157</ele>
        <time>2026-05-12T10:26:05Z</time>
      </trkpt>
      <trkpt lat="45.95236" lon="5.63446">
        <ele>1156.6</ele>
        <time>2026-05-12T10:26:06Z</time>
      </trkpt>
      <trkpt lat="45.95234" lon="5.63445">
        <ele>1156.4</ele>
        <time>2026-05-12T10:26:07Z</time>
      </trkpt>
      <trkpt lat="45.95232" lon="5.63444">
        <ele>1156</ele>
        <time>2026-05-12T10:26:08Z</time>
      </trkpt>
      <trkpt lat="45.95231" lon="5.63444">
        <ele>1155.6</ele>
        <time>2026-05-12T10:26:09Z</time>
      </trkpt>
      <trkpt lat="45.95227" lon="5.63445">
        <ele>1155.6</ele>
        <time>2026-05-12T10:26:10Z</time>
      </trkpt>
      <trkpt lat="45.95225" lon="5.63445">
        <ele>1155.2</ele>
        <time>2026-05-12T10:26:11Z</time>
      </trkpt>
      <trkpt lat="45.95224" lon="5.63445">
        <ele>1155.2</ele>
        <time>2026-05-12T10:26:12Z</time>
      </trkpt>
      <trkpt lat="45.95222" lon="5.63445">
        <ele>1155.4</ele>
        <time>2026-05-12T10:26:13Z</time>
      </trkpt>
      <trkpt lat="45.9522" lon="5.63445">
        <ele>1155.2</ele>
        <time>2026-05-12T10:26:14Z</time>
      </trkpt>
      <trkpt lat="45.95218" lon="5.63445">
        <ele>1154.8</ele>
        <time>2026-05-12T10:26:15Z</time>
      </trkpt>
      <trkpt lat="45.95217" lon="5.63444">
        <ele>1154.8</ele>
        <time>2026-05-12T10:26:16Z</time>
      </trkpt>
      <trkpt lat="45.95216" lon="5.63444">
        <ele>1154.4</ele>
        <time>2026-05-12T10:26:17Z</time>
      </trkpt>
      <trkpt lat="45.95214" lon="5.63443">
        <ele>1154</ele>
        <time>2026-05-12T10:26:18Z</time>
      </trkpt>
      <trkpt lat="45.95213" lon="5.63441">
        <ele>1153.6</ele>
        <time>2026-05-12T10:26:19Z</time>
      </trkpt>
      <trkpt lat="45.95211" lon="5.6344">
        <ele>1153.4</ele>
        <time>2026-05-12T10:26:20Z</time>
      </trkpt>
      <trkpt lat="45.95209" lon="5.63439">
        <ele>1153.2</ele>
        <time>2026-05-12T10:26:21Z</time>
      </trkpt>
      <trkpt lat="45.95207" lon="5.63438">
        <ele>1152.8</ele>
        <time>2026-05-12T10:26:22Z</time>
      </trkpt>
      <trkpt lat="45.95205" lon="5.63438">
        <ele>1152.8</ele>
        <time>2026-05-12T10:26:23Z</time>
      </trkpt>
      <trkpt lat="45.95203" lon="5.63437">
        <ele>1152.4</ele>
        <time>2026-05-12T10:26:24Z</time>
      </trkpt>
      <trkpt lat="45.95201" lon="5.63436">
        <ele>1152</ele>
        <time>2026-05-12T10:26:25Z</time>
      </trkpt>
      <trkpt lat="45.95199" lon="5.63435">
        <ele>1152</ele>
        <time>2026-05-12T10:26:26Z</time>
      </trkpt>
      <trkpt lat="45.95196" lon="5.63435">
        <ele>1152</ele>
        <time>2026-05-12T10:26:27Z</time>
      </trkpt>
      <trkpt lat="45.95194" lon="5.63435">
        <ele>1150.4</ele>
        <time>2026-05-12T10:26:28Z</time>
      </trkpt>
      <trkpt lat="45.95192" lon="5.63435">
        <ele>1150.4</ele>
        <time>2026-05-12T10:26:29Z</time>
      </trkpt>
      <trkpt lat="45.95189" lon="5.63436">
        <ele>1150.2</ele>
        <time>2026-05-12T10:26:30Z</time>
      </trkpt>
      <trkpt lat="45.95186" lon="5.63436">
        <ele>1150</ele>
        <time>2026-05-12T10:26:31Z</time>
      </trkpt>
      <trkpt lat="45.95185" lon="5.63436">
        <ele>1150</ele>
        <time>2026-05-12T10:26:32Z</time>
      </trkpt>
      <trkpt lat="45.95184" lon="5.63436">
        <ele>1149.4</ele>
        <time>2026-05-12T10:26:33Z</time>
      </trkpt>
      <trkpt lat="45.95183" lon="5.63435">
        <ele>1149.4</ele>
        <time>2026-05-12T10:26:34Z</time>
      </trkpt>
      <trkpt lat="45.95182" lon="5.63435">
        <ele>1149.2</ele>
        <time>2026-05-12T10:26:35Z</time>
      </trkpt>
      <trkpt lat="45.95179" lon="5.63434">
        <ele>1149.2</ele>
        <time>2026-05-12T10:26:36Z</time>
      </trkpt>
      <trkpt lat="45.95177" lon="5.63433">
        <ele>1148.6</ele>
        <time>2026-05-12T10:26:37Z</time>
      </trkpt>
      <trkpt lat="45.95175" lon="5.63431">
        <ele>1148.4</ele>
        <time>2026-05-12T10:26:38Z</time>
      </trkpt>
      <trkpt lat="45.95174" lon="5.6343">
        <ele>1148</ele>
        <time>2026-05-12T10:26:39Z</time>
      </trkpt>
      <trkpt lat="45.95172" lon="5.63429">
        <ele>1147.8</ele>
        <time>2026-05-12T10:26:40Z</time>
      </trkpt>
      <trkpt lat="45.95169" lon="5.63427">
        <ele>1147.8</ele>
        <time>2026-05-12T10:26:41Z</time>
      </trkpt>
      <trkpt lat="45.95167" lon="5.63427">
        <ele>1147.4</ele>
        <time>2026-05-12T10:26:42Z</time>
      </trkpt>
      <trkpt lat="45.95165" lon="5.63426">
        <ele>1147.4</ele>
        <time>2026-05-12T10:26:43Z</time>
      </trkpt>
      <trkpt lat="45.95163" lon="5.63424">
        <ele>1147</ele>
        <time>2026-05-12T10:26:44Z</time>
      </trkpt>
      <trkpt lat="45.95161" lon="5.63423">
        <ele>1146.6</ele>
        <time>2026-05-12T10:26:45Z</time>
      </trkpt>
      <trkpt lat="45.95159" lon="5.63422">
        <ele>1146</ele>
        <time>2026-05-12T10:26:46Z</time>
      </trkpt>
      <trkpt lat="45.95157" lon="5.63422">
        <ele>1145.6</ele>
        <time>2026-05-12T10:26:47Z</time>
      </trkpt>
      <trkpt lat="45.95155" lon="5.63422">
        <ele>1145.2</ele>
        <time>2026-05-12T10:26:48Z</time>
      </trkpt>
      <trkpt lat="45.95153" lon="5.63421">
        <ele>1145.2</ele>
        <time>2026-05-12T10:26:49Z</time>
      </trkpt>
      <trkpt lat="45.95151" lon="5.6342">
        <ele>1144.8</ele>
        <time>2026-05-12T10:26:50Z</time>
      </trkpt>
      <trkpt lat="45.95149" lon="5.63419">
        <ele>1144.4</ele>
        <time>2026-05-12T10:26:51Z</time>
      </trkpt>
      <trkpt lat="45.95146" lon="5.63419">
        <ele>1144.4</ele>
        <time>2026-05-12T10:26:52Z</time>
      </trkpt>
      <trkpt lat="45.95144" lon="5.63419">
        <ele>1144</ele>
        <time>2026-05-12T10:26:53Z</time>
      </trkpt>
      <trkpt lat="45.95141" lon="5.6342">
        <ele>1143.6</ele>
        <time>2026-05-12T10:26:54Z</time>
      </trkpt>
      <trkpt lat="45.95138" lon="5.6342">
        <ele>1143.6</ele>
        <time>2026-05-12T10:26:55Z</time>
      </trkpt>
      <trkpt lat="45.95135" lon="5.6342">
        <ele>1143.2</ele>
        <time>2026-05-12T10:26:56Z</time>
      </trkpt>
      <trkpt lat="45.95132" lon="5.63421">
        <ele>1143</ele>
        <time>2026-05-12T10:26:57Z</time>
      </trkpt>
      <trkpt lat="45.9513" lon="5.63422">
        <ele>1143</ele>
        <time>2026-05-12T10:26:58Z</time>
      </trkpt>
      <trkpt lat="45.95128" lon="5.63424">
        <ele>1142.6</ele>
        <time>2026-05-12T10:26:59Z</time>
      </trkpt>
      <trkpt lat="45.95126" lon="5.63425">
        <ele>1142.4</ele>
        <time>2026-05-12T10:27:00Z</time>
      </trkpt>
      <trkpt lat="45.95125" lon="5.63425">
        <ele>1142.4</ele>
        <time>2026-05-12T10:27:01Z</time>
      </trkpt>
      <trkpt lat="45.95123" lon="5.63425">
        <ele>1142</ele>
        <time>2026-05-12T10:27:02Z</time>
      </trkpt>
      <trkpt lat="45.95121" lon="5.63424">
        <ele>1142</ele>
        <time>2026-05-12T10:27:03Z</time>
      </trkpt>
      <trkpt lat="45.9512" lon="5.63424">
        <ele>1141.6</ele>
        <time>2026-05-12T10:27:04Z</time>
      </trkpt>
      <trkpt lat="45.95119" lon="5.63424">
        <ele>1141.4</ele>
        <time>2026-05-12T10:27:05Z</time>
      </trkpt>
      <trkpt lat="45.95118" lon="5.63423">
        <ele>1141.2</ele>
        <time>2026-05-12T10:27:06Z</time>
      </trkpt>
      <trkpt lat="45.95117" lon="5.63423">
        <ele>1141</ele>
        <time>2026-05-12T10:27:07Z</time>
      </trkpt>
      <trkpt lat="45.95115" lon="5.63423">
        <ele>1140.8</ele>
        <time>2026-05-12T10:27:08Z</time>
      </trkpt>
      <trkpt lat="45.95114" lon="5.63423">
        <ele>1140.8</ele>
        <time>2026-05-12T10:27:09Z</time>
      </trkpt>
      <trkpt lat="45.95114" lon="5.63423">
        <ele>1140.4</ele>
        <time>2026-05-12T10:27:10Z</time>
      </trkpt>
      <trkpt lat="45.95114" lon="5.63423">
        <ele>1140.4</ele>
        <time>2026-05-12T10:27:11Z</time>
      </trkpt>
      <trkpt lat="45.95113" lon="5.63422">
        <ele>1139.8</ele>
        <time>2026-05-12T10:27:42Z</time>
      </trkpt>
      <trkpt lat="45.95111" lon="5.63422">
        <ele>1139.8</ele>
        <time>2026-05-12T10:27:43Z</time>
      </trkpt>
      <trkpt lat="45.9511" lon="5.63421">
        <ele>1139.4</ele>
        <time>2026-05-12T10:27:44Z</time>
      </trkpt>
      <trkpt lat="45.95109" lon="5.63421">
        <ele>1139.4</ele>
        <time>2026-05-12T10:27:45Z</time>
      </trkpt>
      <trkpt lat="45.95109" lon="5.63421">
        <ele>1139</ele>
        <time>2026-05-12T10:27:46Z</time>
      </trkpt>
      <trkpt lat="45.95108" lon="5.63421">
        <ele>1139</ele>
        <time>2026-05-12T10:27:47Z</time>
      </trkpt>
      <trkpt lat="45.95108" lon="5.63422">
        <ele>1138.8</ele>
        <time>2026-05-12T10:27:48Z</time>
      </trkpt>
      <trkpt lat="45.95108" lon="5.63422">
        <ele>1138.8</ele>
        <time>2026-05-12T10:27:49Z</time>
      </trkpt>
      <trkpt lat="45.95107" lon="5.63423">
        <ele>1138.8</ele>
        <time>2026-05-12T10:27:50Z</time>
      </trkpt>
      <trkpt lat="45.95107" lon="5.63423">
        <ele>1138.4</ele>
        <time>2026-05-12T10:27:51Z</time>
      </trkpt>
      <trkpt lat="45.95106" lon="5.63423">
        <ele>1138</ele>
        <time>2026-05-12T10:27:52Z</time>
      </trkpt>
      <trkpt lat="45.95103" lon="5.63421">
        <ele>1137.8</ele>
        <time>2026-05-12T10:27:53Z</time>
      </trkpt>
      <trkpt lat="45.951" lon="5.6342">
        <ele>1137.8</ele>
        <time>2026-05-12T10:27:54Z</time>
      </trkpt>
      <trkpt lat="45.95097" lon="5.63419">
        <ele>1137.2</ele>
        <time>2026-05-12T10:27:55Z</time>
      </trkpt>
      <trkpt lat="45.95094" lon="5.6342">
        <ele>1137</ele>
        <time>2026-05-12T10:27:56Z</time>
      </trkpt>
      <trkpt lat="45.95092" lon="5.63421">
        <ele>1137</ele>
        <time>2026-05-12T10:27:57Z</time>
      </trkpt>
      <trkpt lat="45.95089" lon="5.63423">
        <ele>1136.8</ele>
        <time>2026-05-12T10:27:58Z</time>
      </trkpt>
      <trkpt lat="45.95087" lon="5.63424">
        <ele>1136.6</ele>
        <time>2026-05-12T10:27:59Z</time>
      </trkpt>
      <trkpt lat="45.95084" lon="5.63425">
        <ele>1136.6</ele>
        <time>2026-05-12T10:28:00Z</time>
      </trkpt>
      <trkpt lat="45.95082" lon="5.63427">
        <ele>1136.6</ele>
        <time>2026-05-12T10:28:01Z</time>
      </trkpt>
      <trkpt lat="45.9508" lon="5.63428">
        <ele>1136.6</ele>
        <time>2026-05-12T10:28:02Z</time>
      </trkpt>
      <trkpt lat="45.95078" lon="5.63429">
        <ele>1136.6</ele>
        <time>2026-05-12T10:28:03Z</time>
      </trkpt>
      <trkpt lat="45.95077" lon="5.63431">
        <ele>1136.6</ele>
        <time>2026-05-12T10:28:04Z</time>
      </trkpt>
      <trkpt lat="45.95076" lon="5.63433">
        <ele>1136.6</ele>
        <time>2026-05-12T10:28:05Z</time>
      </trkpt>
      <trkpt lat="45.95076" lon="5.63436">
        <ele>1136.6</ele>
        <time>2026-05-12T10:28:06Z</time>
      </trkpt>
      <trkpt lat="45.95076" lon="5.63439">
        <ele>1136.6</ele>
        <time>2026-05-12T10:28:07Z</time>
      </trkpt>
      <trkpt lat="45.95076" lon="5.63442">
        <ele>1136.6</ele>
        <time>2026-05-12T10:28:08Z</time>
      </trkpt>
      <trkpt lat="45.95075" lon="5.63444">
        <ele>1136.6</ele>
        <time>2026-05-12T10:28:09Z</time>
      </trkpt>
      <trkpt lat="45.95074" lon="5.63447">
        <ele>1136.6</ele>
        <time>2026-05-12T10:28:10Z</time>
      </trkpt>
      <trkpt lat="45.95073" lon="5.63449">
        <ele>1136.6</ele>
        <time>2026-05-12T10:28:11Z</time>
      </trkpt>
      <trkpt lat="45.95071" lon="5.63451">
        <ele>1136.6</ele>
        <time>2026-05-12T10:28:12Z</time>
      </trkpt>
      <trkpt lat="45.9507" lon="5.63453">
        <ele>1136.6</ele>
        <time>2026-05-12T10:28:13Z</time>
      </trkpt>
      <trkpt lat="45.95068" lon="5.63455">
        <ele>1136.2</ele>
        <time>2026-05-12T10:28:14Z</time>
      </trkpt>
      <trkpt lat="45.95067" lon="5.63457">
        <ele>1136.2</ele>
        <time>2026-05-12T10:28:15Z</time>
      </trkpt>
      <trkpt lat="45.95066" lon="5.63458">
        <ele>1135.8</ele>
        <time>2026-05-12T10:28:16Z</time>
      </trkpt>
      <trkpt lat="45.95066" lon="5.6346">
        <ele>1135.8</ele>
        <time>2026-05-12T10:28:17Z</time>
      </trkpt>
      <trkpt lat="45.95066" lon="5.6346">
        <ele>1135.6</ele>
        <time>2026-05-12T10:28:18Z</time>
      </trkpt>
      <trkpt lat="45.95066" lon="5.6346">
        <ele>1135.6</ele>
        <time>2026-05-12T10:28:19Z</time>
      </trkpt>
      <trkpt lat="45.95067" lon="5.63462">
        <ele>1135.6</ele>
        <time>2026-05-12T10:28:20Z</time>
      </trkpt>
      <trkpt lat="45.95067" lon="5.63464">
        <ele>1135.6</ele>
        <time>2026-05-12T10:28:21Z</time>
      </trkpt>
      <trkpt lat="45.95068" lon="5.63466">
        <ele>1135.6</ele>
        <time>2026-05-12T10:28:22Z</time>
      </trkpt>
      <trkpt lat="45.95068" lon="5.63467">
        <ele>1135.6</ele>
        <time>2026-05-12T10:28:23Z</time>
      </trkpt>
      <trkpt lat="45.95068" lon="5.63469">
        <ele>1135.6</ele>
        <time>2026-05-12T10:28:24Z</time>
      </trkpt>
      <trkpt lat="45.95069" lon="5.63471">
        <ele>1135.8</ele>
        <time>2026-05-12T10:28:25Z</time>
      </trkpt>
      <trkpt lat="45.95068" lon="5.63472">
        <ele>1135.8</ele>
        <time>2026-05-12T10:28:26Z</time>
      </trkpt>
      <trkpt lat="45.95068" lon="5.63473">
        <ele>1136.2</ele>
        <time>2026-05-12T10:28:27Z</time>
      </trkpt>
      <trkpt lat="45.95068" lon="5.63475">
        <ele>1136.2</ele>
        <time>2026-05-12T10:28:28Z</time>
      </trkpt>
      <trkpt lat="45.95068" lon="5.63476">
        <ele>1136.2</ele>
        <time>2026-05-12T10:28:29Z</time>
      </trkpt>
      <trkpt lat="45.95068" lon="5.63478">
        <ele>1136.4</ele>
        <time>2026-05-12T10:28:30Z</time>
      </trkpt>
      <trkpt lat="45.95067" lon="5.63479">
        <ele>1136.4</ele>
        <time>2026-05-12T10:28:31Z</time>
      </trkpt>
      <trkpt lat="45.95066" lon="5.63479">
        <ele>1136.4</ele>
        <time>2026-05-12T10:28:32Z</time>
      </trkpt>
      <trkpt lat="45.95065" lon="5.63478">
        <ele>1136.2</ele>
        <time>2026-05-12T10:28:33Z</time>
      </trkpt>
      <trkpt lat="45.95065" lon="5.63477">
        <ele>1136.2</ele>
        <time>2026-05-12T10:28:34Z</time>
      </trkpt>
      <trkpt lat="45.95064" lon="5.63475">
        <ele>1136</ele>
        <time>2026-05-12T10:28:35Z</time>
      </trkpt>
      <trkpt lat="45.95064" lon="5.63473">
        <ele>1136</ele>
        <time>2026-05-12T10:28:36Z</time>
      </trkpt>
      <trkpt lat="45.95063" lon="5.63472">
        <ele>1135.6</ele>
        <time>2026-05-12T10:28:37Z</time>
      </trkpt>
      <trkpt lat="45.95062" lon="5.6347">
        <ele>1135.6</ele>
        <time>2026-05-12T10:28:38Z</time>
      </trkpt>
      <trkpt lat="45.95061" lon="5.63469">
        <ele>1135.6</ele>
        <time>2026-05-12T10:28:39Z</time>
      </trkpt>
      <trkpt lat="45.95061" lon="5.63469">
        <ele>1135.2</ele>
        <time>2026-05-12T10:28:40Z</time>
      </trkpt>
      <trkpt lat="45.95061" lon="5.63469">
        <ele>1135.2</ele>
        <time>2026-05-12T10:28:41Z</time>
      </trkpt>
      <trkpt lat="45.9506" lon="5.63469">
        <ele>1134.8</ele>
        <time>2026-05-12T10:28:42Z</time>
      </trkpt>
      <trkpt lat="45.95059" lon="5.63468">
        <ele>1134.8</ele>
        <time>2026-05-12T10:28:43Z</time>
      </trkpt>
      <trkpt lat="45.95059" lon="5.63468">
        <ele>1134.8</ele>
        <time>2026-05-12T10:28:44Z</time>
      </trkpt>
      <trkpt lat="45.95058" lon="5.63468">
        <ele>1134.6</ele>
        <time>2026-05-12T10:28:48Z</time>
      </trkpt>
      <trkpt lat="45.95057" lon="5.63468">
        <ele>1134.4</ele>
        <time>2026-05-12T10:28:49Z</time>
      </trkpt>
      <trkpt lat="45.95056" lon="5.63468">
        <ele>1134.4</ele>
        <time>2026-05-12T10:28:50Z</time>
      </trkpt>
      <trkpt lat="45.95054" lon="5.63469">
        <ele>1134.4</ele>
        <time>2026-05-12T10:28:51Z</time>
      </trkpt>
      <trkpt lat="45.95053" lon="5.6347">
        <ele>1134</ele>
        <time>2026-05-12T10:28:52Z</time>
      </trkpt>
      <trkpt lat="45.95052" lon="5.6347">
        <ele>1134</ele>
        <time>2026-05-12T10:28:53Z</time>
      </trkpt>
      <trkpt lat="45.95052" lon="5.63469">
        <ele>1134</ele>
        <time>2026-05-12T10:28:54Z</time>
      </trkpt>
      <trkpt lat="45.9505" lon="5.6347">
        <ele>1133.8</ele>
        <time>2026-05-12T10:29:03Z</time>
      </trkpt>
      <trkpt lat="45.95048" lon="5.6347">
        <ele>1133.8</ele>
        <time>2026-05-12T10:29:04Z</time>
      </trkpt>
      <trkpt lat="45.95046" lon="5.63471">
        <ele>1133.6</ele>
        <time>2026-05-12T10:29:05Z</time>
      </trkpt>
      <trkpt lat="45.95045" lon="5.63471">
        <ele>1133.6</ele>
        <time>2026-05-12T10:29:06Z</time>
      </trkpt>
      <trkpt lat="45.95043" lon="5.63471">
        <ele>1133.4</ele>
        <time>2026-05-12T10:29:07Z</time>
      </trkpt>
      <trkpt lat="45.95039" lon="5.63471">
        <ele>1133.4</ele>
        <time>2026-05-12T10:29:08Z</time>
      </trkpt>
      <trkpt lat="45.95037" lon="5.63471">
        <ele>1133</ele>
        <time>2026-05-12T10:29:09Z</time>
      </trkpt>
      <trkpt lat="45.95035" lon="5.6347">
        <ele>1133</ele>
        <time>2026-05-12T10:29:10Z</time>
      </trkpt>
      <trkpt lat="45.95032" lon="5.63469">
        <ele>1132.6</ele>
        <time>2026-05-12T10:29:11Z</time>
      </trkpt>
      <trkpt lat="45.95029" lon="5.63468">
        <ele>1132.6</ele>
        <time>2026-05-12T10:29:12Z</time>
      </trkpt>
      <trkpt lat="45.95026" lon="5.63467">
        <ele>1132</ele>
        <time>2026-05-12T10:29:13Z</time>
      </trkpt>
      <trkpt lat="45.95023" lon="5.63465">
        <ele>1132</ele>
        <time>2026-05-12T10:29:14Z</time>
      </trkpt>
      <trkpt lat="45.9502" lon="5.63463">
        <ele>1131.4</ele>
        <time>2026-05-12T10:29:15Z</time>
      </trkpt>
      <trkpt lat="45.95017" lon="5.63461">
        <ele>1131.2</ele>
        <time>2026-05-12T10:29:16Z</time>
      </trkpt>
      <trkpt lat="45.95014" lon="5.63459">
        <ele>1130.8</ele>
        <time>2026-05-12T10:29:17Z</time>
      </trkpt>
      <trkpt lat="45.9501" lon="5.63457">
        <ele>1130.8</ele>
        <time>2026-05-12T10:29:18Z</time>
      </trkpt>
      <trkpt lat="45.95007" lon="5.63455">
        <ele>1130.8</ele>
        <time>2026-05-12T10:29:19Z</time>
      </trkpt>
      <trkpt lat="45.95003" lon="5.63453">
        <ele>1130.8</ele>
        <time>2026-05-12T10:29:20Z</time>
      </trkpt>
      <trkpt lat="45.95" lon="5.63451">
        <ele>1130</ele>
        <time>2026-05-12T10:29:21Z</time>
      </trkpt>
      <trkpt lat="45.94997" lon="5.63451">
        <ele>1129</ele>
        <time>2026-05-12T10:29:22Z</time>
      </trkpt>
      <trkpt lat="45.94994" lon="5.6345">
        <ele>1129</ele>
        <time>2026-05-12T10:29:23Z</time>
      </trkpt>
      <trkpt lat="45.9499" lon="5.63449">
        <ele>1129</ele>
        <time>2026-05-12T10:29:24Z</time>
      </trkpt>
      <trkpt lat="45.94985" lon="5.63449">
        <ele>1128.2</ele>
        <time>2026-05-12T10:29:25Z</time>
      </trkpt>
      <trkpt lat="45.94979" lon="5.63451">
        <ele>1127.4</ele>
        <time>2026-05-12T10:29:26Z</time>
      </trkpt>
      <trkpt lat="45.94975" lon="5.6345">
        <ele>1127.4</ele>
        <time>2026-05-12T10:29:27Z</time>
      </trkpt>
      <trkpt lat="45.94971" lon="5.63449">
        <ele>1127.2</ele>
        <time>2026-05-12T10:29:28Z</time>
      </trkpt>
      <trkpt lat="45.94966" lon="5.63449">
        <ele>1126.6</ele>
        <time>2026-05-12T10:29:29Z</time>
      </trkpt>
      <trkpt lat="45.94962" lon="5.63449">
        <ele>1126.6</ele>
        <time>2026-05-12T10:29:30Z</time>
      </trkpt>
      <trkpt lat="45.94959" lon="5.63451">
        <ele>1126.4</ele>
        <time>2026-05-12T10:29:31Z</time>
      </trkpt>
      <trkpt lat="45.94956" lon="5.63452">
        <ele>1126</ele>
        <time>2026-05-12T10:29:32Z</time>
      </trkpt>
      <trkpt lat="45.94952" lon="5.63454">
        <ele>1126</ele>
        <time>2026-05-12T10:29:33Z</time>
      </trkpt>
      <trkpt lat="45.94948" lon="5.63455">
        <ele>1126.2</ele>
        <time>2026-05-12T10:29:34Z</time>
      </trkpt>
      <trkpt lat="45.94945" lon="5.63455">
        <ele>1125.6</ele>
        <time>2026-05-12T10:29:35Z</time>
      </trkpt>
      <trkpt lat="45.94942" lon="5.6346">
        <ele>1124.8</ele>
        <time>2026-05-12T10:29:36Z</time>
      </trkpt>
      <trkpt lat="45.94938" lon="5.63461">
        <ele>1124.2</ele>
        <time>2026-05-12T10:29:37Z</time>
      </trkpt>
      <trkpt lat="45.94934" lon="5.63463">
        <ele>1123.8</ele>
        <time>2026-05-12T10:29:38Z</time>
      </trkpt>
      <trkpt lat="45.94932" lon="5.63465">
        <ele>1123.2</ele>
        <time>2026-05-12T10:29:39Z</time>
      </trkpt>
      <trkpt lat="45.94929" lon="5.63467">
        <ele>1122.4</ele>
        <time>2026-05-12T10:29:40Z</time>
      </trkpt>
      <trkpt lat="45.94926" lon="5.63469">
        <ele>1121</ele>
        <time>2026-05-12T10:29:41Z</time>
      </trkpt>
      <trkpt lat="45.94922" lon="5.63472">
        <ele>1121</ele>
        <time>2026-05-12T10:29:42Z</time>
      </trkpt>
      <trkpt lat="45.9492" lon="5.63476">
        <ele>1120.4</ele>
        <time>2026-05-12T10:29:43Z</time>
      </trkpt>
      <trkpt lat="45.94917" lon="5.63479">
        <ele>1120</ele>
        <time>2026-05-12T10:29:44Z</time>
      </trkpt>
      <trkpt lat="45.94914" lon="5.63482">
        <ele>1119.6</ele>
        <time>2026-05-12T10:29:45Z</time>
      </trkpt>
      <trkpt lat="45.94911" lon="5.63483">
        <ele>1118.8</ele>
        <time>2026-05-12T10:29:46Z</time>
      </trkpt>
      <trkpt lat="45.94908" lon="5.63485">
        <ele>1118.4</ele>
        <time>2026-05-12T10:29:47Z</time>
      </trkpt>
      <trkpt lat="45.94903" lon="5.63486">
        <ele>1118</ele>
        <time>2026-05-12T10:29:48Z</time>
      </trkpt>
      <trkpt lat="45.94899" lon="5.63487">
        <ele>1116.6</ele>
        <time>2026-05-12T10:29:49Z</time>
      </trkpt>
      <trkpt lat="45.94896" lon="5.63488">
        <ele>1116.2</ele>
        <time>2026-05-12T10:29:50Z</time>
      </trkpt>
      <trkpt lat="45.94893" lon="5.63491">
        <ele>1115.4</ele>
        <time>2026-05-12T10:29:51Z</time>
      </trkpt>
      <trkpt lat="45.94891" lon="5.63493">
        <ele>1115</ele>
        <time>2026-05-12T10:29:52Z</time>
      </trkpt>
      <trkpt lat="45.94887" lon="5.63495">
        <ele>1113.8</ele>
        <time>2026-05-12T10:29:53Z</time>
      </trkpt>
      <trkpt lat="45.94883" lon="5.63496">
        <ele>1113</ele>
        <time>2026-05-12T10:29:54Z</time>
      </trkpt>
      <trkpt lat="45.94879" lon="5.63497">
        <ele>1112.2</ele>
        <time>2026-05-12T10:29:55Z</time>
      </trkpt>
      <trkpt lat="45.94875" lon="5.63497">
        <ele>1111.4</ele>
        <time>2026-05-12T10:29:56Z</time>
      </trkpt>
      <trkpt lat="45.94867" lon="5.63496">
        <ele>1110.4</ele>
        <time>2026-05-12T10:29:57Z</time>
      </trkpt>
      <trkpt lat="45.94863" lon="5.63497">
        <ele>1110</ele>
        <time>2026-05-12T10:29:58Z</time>
      </trkpt>
      <trkpt lat="45.94859" lon="5.63496">
        <ele>1109.2</ele>
        <time>2026-05-12T10:29:59Z</time>
      </trkpt>
      <trkpt lat="45.94853" lon="5.63499">
        <ele>1107.6</ele>
        <time>2026-05-12T10:30:00Z</time>
      </trkpt>
      <trkpt lat="45.94848" lon="5.63499">
        <ele>1107.6</ele>
        <time>2026-05-12T10:30:01Z</time>
      </trkpt>
      <trkpt lat="45.94842" lon="5.63504">
        <ele>1107.2</ele>
        <time>2026-05-12T10:30:02Z</time>
      </trkpt>
      <trkpt lat="45.94835" lon="5.63504">
        <ele>1106.6</ele>
        <time>2026-05-12T10:30:03Z</time>
      </trkpt>
      <trkpt lat="45.9483" lon="5.63504">
        <ele>1106.6</ele>
        <time>2026-05-12T10:30:04Z</time>
      </trkpt>
      <trkpt lat="45.94827" lon="5.635">
        <ele>1106.2</ele>
        <time>2026-05-12T10:30:05Z</time>
      </trkpt>
      <trkpt lat="45.9482" lon="5.63499">
        <ele>1106.2</ele>
        <time>2026-05-12T10:30:06Z</time>
      </trkpt>
      <trkpt lat="45.94816" lon="5.63496">
        <ele>1105.4</ele>
        <time>2026-05-12T10:30:07Z</time>
      </trkpt>
      <trkpt lat="45.94812" lon="5.63493">
        <ele>1105.4</ele>
        <time>2026-05-12T10:30:08Z</time>
      </trkpt>
      <trkpt lat="45.94811" lon="5.63495">
        <ele>1105.2</ele>
        <time>2026-05-12T10:30:09Z</time>
      </trkpt>
      <trkpt lat="45.94808" lon="5.63494">
        <ele>1105.6</ele>
        <time>2026-05-12T10:30:10Z</time>
      </trkpt>
      <trkpt lat="45.94806" lon="5.63494">
        <ele>1105</ele>
        <time>2026-05-12T10:30:11Z</time>
      </trkpt>
      <trkpt lat="45.94802" lon="5.63493">
        <ele>1104.6</ele>
        <time>2026-05-12T10:30:12Z</time>
      </trkpt>
      <trkpt lat="45.94799" lon="5.63493">
        <ele>1104.4</ele>
        <time>2026-05-12T10:30:13Z</time>
      </trkpt>
      <trkpt lat="45.94796" lon="5.63493">
        <ele>1104</ele>
        <time>2026-05-12T10:30:14Z</time>
      </trkpt>
      <trkpt lat="45.94792" lon="5.63494">
        <ele>1103.4</ele>
        <time>2026-05-12T10:30:15Z</time>
      </trkpt>
      <trkpt lat="45.9479" lon="5.6349">
        <ele>1102.6</ele>
        <time>2026-05-12T10:30:16Z</time>
      </trkpt>
      <trkpt lat="45.94786" lon="5.63492">
        <ele>1101.6</ele>
        <time>2026-05-12T10:30:17Z</time>
      </trkpt>
      <trkpt lat="45.94783" lon="5.6349">
        <ele>1100.8</ele>
        <time>2026-05-12T10:30:18Z</time>
      </trkpt>
      <trkpt lat="45.94779" lon="5.63489">
        <ele>1100.2</ele>
        <time>2026-05-12T10:30:19Z</time>
      </trkpt>
      <trkpt lat="45.94773" lon="5.6349">
        <ele>1099.8</ele>
        <time>2026-05-12T10:30:20Z</time>
      </trkpt>
      <trkpt lat="45.94769" lon="5.63488">
        <ele>1099.4</ele>
        <time>2026-05-12T10:30:21Z</time>
      </trkpt>
      <trkpt lat="45.94764" lon="5.63489">
        <ele>1098.8</ele>
        <time>2026-05-12T10:30:22Z</time>
      </trkpt>
      <trkpt lat="45.9476" lon="5.63489">
        <ele>1098.8</ele>
        <time>2026-05-12T10:30:23Z</time>
      </trkpt>
      <trkpt lat="45.94755" lon="5.63487">
        <ele>1098.2</ele>
        <time>2026-05-12T10:30:24Z</time>
      </trkpt>
      <trkpt lat="45.94752" lon="5.63483">
        <ele>1098</ele>
        <time>2026-05-12T10:30:25Z</time>
      </trkpt>
      <trkpt lat="45.94748" lon="5.63482">
        <ele>1097.4</ele>
        <time>2026-05-12T10:30:26Z</time>
      </trkpt>
      <trkpt lat="45.94744" lon="5.63482">
        <ele>1097</ele>
        <time>2026-05-12T10:30:27Z</time>
      </trkpt>
      <trkpt lat="45.94741" lon="5.63481">
        <ele>1096.6</ele>
        <time>2026-05-12T10:30:28Z</time>
      </trkpt>
      <trkpt lat="45.94737" lon="5.6348">
        <ele>1096</ele>
        <time>2026-05-12T10:30:29Z</time>
      </trkpt>
      <trkpt lat="45.94734" lon="5.63479">
        <ele>1095.8</ele>
        <time>2026-05-12T10:30:30Z</time>
      </trkpt>
      <trkpt lat="45.94732" lon="5.6348">
        <ele>1095.2</ele>
        <time>2026-05-12T10:30:31Z</time>
      </trkpt>
      <trkpt lat="45.94726" lon="5.63483">
        <ele>1094.8</ele>
        <time>2026-05-12T10:30:32Z</time>
      </trkpt>
      <trkpt lat="45.94723" lon="5.63483">
        <ele>1094.4</ele>
        <time>2026-05-12T10:30:33Z</time>
      </trkpt>
      <trkpt lat="45.94719" lon="5.63484">
        <ele>1093.6</ele>
        <time>2026-05-12T10:30:34Z</time>
      </trkpt>
      <trkpt lat="45.94715" lon="5.63485">
        <ele>1092.2</ele>
        <time>2026-05-12T10:30:35Z</time>
      </trkpt>
      <trkpt lat="45.94711" lon="5.63484">
        <ele>1092.4</ele>
        <time>2026-05-12T10:30:36Z</time>
      </trkpt>
      <trkpt lat="45.94707" lon="5.63485">
        <ele>1091.8</ele>
        <time>2026-05-12T10:30:37Z</time>
      </trkpt>
      <trkpt lat="45.94703" lon="5.63485">
        <ele>1090.6</ele>
        <time>2026-05-12T10:30:38Z</time>
      </trkpt>
      <trkpt lat="45.94698" lon="5.63487">
        <ele>1090.2</ele>
        <time>2026-05-12T10:30:39Z</time>
      </trkpt>
      <trkpt lat="45.94695" lon="5.63489">
        <ele>1089.8</ele>
        <time>2026-05-12T10:30:40Z</time>
      </trkpt>
      <trkpt lat="45.94691" lon="5.63489">
        <ele>1089.4</ele>
        <time>2026-05-12T10:30:41Z</time>
      </trkpt>
      <trkpt lat="45.94687" lon="5.6349">
        <ele>1089</ele>
        <time>2026-05-12T10:30:42Z</time>
      </trkpt>
      <trkpt lat="45.94686" lon="5.63491">
        <ele>1088.2</ele>
        <time>2026-05-12T10:30:43Z</time>
      </trkpt>
      <trkpt lat="45.94684" lon="5.6349">
        <ele>1087.4</ele>
        <time>2026-05-12T10:30:44Z</time>
      </trkpt>
      <trkpt lat="45.9468" lon="5.6349">
        <ele>1087</ele>
        <time>2026-05-12T10:30:45Z</time>
      </trkpt>
      <trkpt lat="45.94678" lon="5.6349">
        <ele>1086.8</ele>
        <time>2026-05-12T10:30:46Z</time>
      </trkpt>
      <trkpt lat="45.94675" lon="5.63489">
        <ele>1086.4</ele>
        <time>2026-05-12T10:30:47Z</time>
      </trkpt>
      <trkpt lat="45.94671" lon="5.63486">
        <ele>1086.4</ele>
        <time>2026-05-12T10:30:48Z</time>
      </trkpt>
      <trkpt lat="45.94667" lon="5.63488">
        <ele>1085.8</ele>
        <time>2026-05-12T10:30:49Z</time>
      </trkpt>
      <trkpt lat="45.94665" lon="5.63487">
        <ele>1085.8</ele>
        <time>2026-05-12T10:30:50Z</time>
      </trkpt>
      <trkpt lat="45.94664" lon="5.63485">
        <ele>1085.4</ele>
        <time>2026-05-12T10:30:51Z</time>
      </trkpt>
      <trkpt lat="45.94661" lon="5.63483">
        <ele>1085.4</ele>
        <time>2026-05-12T10:30:52Z</time>
      </trkpt>
      <trkpt lat="45.94659" lon="5.63482">
        <ele>1085.2</ele>
        <time>2026-05-12T10:30:53Z</time>
      </trkpt>
      <trkpt lat="45.94656" lon="5.63481">
        <ele>1084.2</ele>
        <time>2026-05-12T10:30:54Z</time>
      </trkpt>
      <trkpt lat="45.94654" lon="5.63481">
        <ele>1084.2</ele>
        <time>2026-05-12T10:30:55Z</time>
      </trkpt>
      <trkpt lat="45.94651" lon="5.6348">
        <ele>1083.6</ele>
        <time>2026-05-12T10:30:56Z</time>
      </trkpt>
      <trkpt lat="45.94647" lon="5.63479">
        <ele>1083</ele>
        <time>2026-05-12T10:30:57Z</time>
      </trkpt>
      <trkpt lat="45.94644" lon="5.63479">
        <ele>1082.8</ele>
        <time>2026-05-12T10:30:58Z</time>
      </trkpt>
      <trkpt lat="45.94641" lon="5.63478">
        <ele>1081.6</ele>
        <time>2026-05-12T10:30:59Z</time>
      </trkpt>
      <trkpt lat="45.94638" lon="5.63478">
        <ele>1081.4</ele>
        <time>2026-05-12T10:31:00Z</time>
      </trkpt>
      <trkpt lat="45.94635" lon="5.63477">
        <ele>1081.4</ele>
        <time>2026-05-12T10:31:01Z</time>
      </trkpt>
      <trkpt lat="45.94632" lon="5.63477">
        <ele>1080.8</ele>
        <time>2026-05-12T10:31:02Z</time>
      </trkpt>
      <trkpt lat="45.94629" lon="5.63476">
        <ele>1080</ele>
        <time>2026-05-12T10:31:03Z</time>
      </trkpt>
      <trkpt lat="45.94626" lon="5.63475">
        <ele>1080</ele>
        <time>2026-05-12T10:31:04Z</time>
      </trkpt>
      <trkpt lat="45.94623" lon="5.63476">
        <ele>1079</ele>
        <time>2026-05-12T10:31:05Z</time>
      </trkpt>
      <trkpt lat="45.94621" lon="5.63477">
        <ele>1078.2</ele>
        <time>2026-05-12T10:31:06Z</time>
      </trkpt>
      <trkpt lat="45.94618" lon="5.63479">
        <ele>1077.8</ele>
        <time>2026-05-12T10:31:07Z</time>
      </trkpt>
      <trkpt lat="45.94615" lon="5.6348">
        <ele>1077.2</ele>
        <time>2026-05-12T10:31:08Z</time>
      </trkpt>
      <trkpt lat="45.94613" lon="5.6348">
        <ele>1077</ele>
        <time>2026-05-12T10:31:09Z</time>
      </trkpt>
      <trkpt lat="45.94611" lon="5.6348">
        <ele>1076</ele>
        <time>2026-05-12T10:31:10Z</time>
      </trkpt>
      <trkpt lat="45.94609" lon="5.63479">
        <ele>1075.4</ele>
        <time>2026-05-12T10:31:11Z</time>
      </trkpt>
      <trkpt lat="45.94605" lon="5.63477">
        <ele>1075.4</ele>
        <time>2026-05-12T10:31:12Z</time>
      </trkpt>
      <trkpt lat="45.94601" lon="5.63476">
        <ele>1075.4</ele>
        <time>2026-05-12T10:31:13Z</time>
      </trkpt>
      <trkpt lat="45.94597" lon="5.63474">
        <ele>1074.8</ele>
        <time>2026-05-12T10:31:14Z</time>
      </trkpt>
      <trkpt lat="45.94593" lon="5.63472">
        <ele>1074.4</ele>
        <time>2026-05-12T10:31:15Z</time>
      </trkpt>
      <trkpt lat="45.94589" lon="5.6347">
        <ele>1073.8</ele>
        <time>2026-05-12T10:31:16Z</time>
      </trkpt>
      <trkpt lat="45.94585" lon="5.63469">
        <ele>1073.6</ele>
        <time>2026-05-12T10:31:17Z</time>
      </trkpt>
      <trkpt lat="45.94582" lon="5.63467">
        <ele>1073.6</ele>
        <time>2026-05-12T10:31:18Z</time>
      </trkpt>
      <trkpt lat="45.94579" lon="5.63466">
        <ele>1073</ele>
        <time>2026-05-12T10:31:19Z</time>
      </trkpt>
      <trkpt lat="45.94576" lon="5.63464">
        <ele>1072.4</ele>
        <time>2026-05-12T10:31:20Z</time>
      </trkpt>
      <trkpt lat="45.94573" lon="5.63463">
        <ele>1072.4</ele>
        <time>2026-05-12T10:31:21Z</time>
      </trkpt>
      <trkpt lat="45.9457" lon="5.63462">
        <ele>1072</ele>
        <time>2026-05-12T10:31:22Z</time>
      </trkpt>
      <trkpt lat="45.94568" lon="5.63462">
        <ele>1072</ele>
        <time>2026-05-12T10:31:23Z</time>
      </trkpt>
      <trkpt lat="45.94565" lon="5.63461">
        <ele>1071.6</ele>
        <time>2026-05-12T10:31:24Z</time>
      </trkpt>
      <trkpt lat="45.94563" lon="5.63461">
        <ele>1071.2</ele>
        <time>2026-05-12T10:31:25Z</time>
      </trkpt>
      <trkpt lat="45.9456" lon="5.6346">
        <ele>1071.2</ele>
        <time>2026-05-12T10:31:26Z</time>
      </trkpt>
      <trkpt lat="45.94558" lon="5.63459">
        <ele>1071</ele>
        <time>2026-05-12T10:31:27Z</time>
      </trkpt>
      <trkpt lat="45.94558" lon="5.63458">
        <ele>1070.8</ele>
        <time>2026-05-12T10:31:28Z</time>
      </trkpt>
      <trkpt lat="45.94557" lon="5.63456">
        <ele>1070.8</ele>
        <time>2026-05-12T10:31:29Z</time>
      </trkpt>
      <trkpt lat="45.94556" lon="5.63454">
        <ele>1070.4</ele>
        <time>2026-05-12T10:31:30Z</time>
      </trkpt>
      <trkpt lat="45.94556" lon="5.63454">
        <ele>1070.4</ele>
        <time>2026-05-12T10:31:31Z</time>
      </trkpt>
      <trkpt lat="45.94556" lon="5.63454">
        <ele>1070</ele>
        <time>2026-05-12T10:31:32Z</time>
      </trkpt>
      <trkpt lat="45.94556" lon="5.63453">
        <ele>1069.4</ele>
        <time>2026-05-12T10:33:22Z</time>
      </trkpt>
      <trkpt lat="45.94555" lon="5.63454">
        <ele>1069.4</ele>
        <time>2026-05-12T10:33:23Z</time>
      </trkpt>
      <trkpt lat="45.94555" lon="5.63454">
        <ele>1069.4</ele>
        <time>2026-05-12T10:33:24Z</time>
      </trkpt>
      <trkpt lat="45.94557" lon="5.63459">
        <ele>1069.4</ele>
        <time>2026-05-12T10:34:00Z</time>
      </trkpt>
      <trkpt lat="45.94557" lon="5.63459">
        <ele>1069.4</ele>
        <time>2026-05-12T10:34:01Z</time>
      </trkpt>
      <trkpt lat="45.94556" lon="5.63458">
        <ele>1069.6</ele>
        <time>2026-05-12T10:35:10Z</time>
      </trkpt>
      <trkpt lat="45.94555" lon="5.63457">
        <ele>1069.6</ele>
        <time>2026-05-12T10:35:11Z</time>
      </trkpt>
      <trkpt lat="45.94555" lon="5.63457">
        <ele>1069.6</ele>
        <time>2026-05-12T10:35:12Z</time>
      </trkpt>
      <trkpt lat="45.94555" lon="5.63457">
        <ele>1069.2</ele>
        <time>2026-05-12T10:35:13Z</time>
      </trkpt>
      <trkpt lat="45.94554" lon="5.63454">
        <ele>1069.2</ele>
        <time>2026-05-12T10:35:14Z</time>
      </trkpt>
      <trkpt lat="45.94553" lon="5.63453">
        <ele>1069</ele>
        <time>2026-05-12T10:35:15Z</time>
      </trkpt>
      <trkpt lat="45.94552" lon="5.63451">
        <ele>1069</ele>
        <time>2026-05-12T10:35:16Z</time>
      </trkpt>
      <trkpt lat="45.9455" lon="5.63449">
        <ele>1068.4</ele>
        <time>2026-05-12T10:35:17Z</time>
      </trkpt>
      <trkpt lat="45.94547" lon="5.63447">
        <ele>1068.4</ele>
        <time>2026-05-12T10:35:18Z</time>
      </trkpt>
      <trkpt lat="45.94546" lon="5.63446">
        <ele>1067.6</ele>
        <time>2026-05-12T10:35:19Z</time>
      </trkpt>
      <trkpt lat="45.94544" lon="5.63444">
        <ele>1067.6</ele>
        <time>2026-05-12T10:35:20Z</time>
      </trkpt>
      <trkpt lat="45.94542" lon="5.63443">
        <ele>1067</ele>
        <time>2026-05-12T10:35:21Z</time>
      </trkpt>
      <trkpt lat="45.9454" lon="5.63442">
        <ele>1066.6</ele>
        <time>2026-05-12T10:35:22Z</time>
      </trkpt>
      <trkpt lat="45.94539" lon="5.63443">
        <ele>1066.2</ele>
        <time>2026-05-12T10:35:23Z</time>
      </trkpt>
      <trkpt lat="45.94539" lon="5.63443">
        <ele>1065.6</ele>
        <time>2026-05-12T10:35:24Z</time>
      </trkpt>
      <trkpt lat="45.94538" lon="5.63443">
        <ele>1065.2</ele>
        <time>2026-05-12T10:35:25Z</time>
      </trkpt>
      <trkpt lat="45.94533" lon="5.63441">
        <ele>1065.2</ele>
        <time>2026-05-12T10:35:26Z</time>
      </trkpt>
      <trkpt lat="45.94529" lon="5.63439">
        <ele>1064.4</ele>
        <time>2026-05-12T10:35:27Z</time>
      </trkpt>
      <trkpt lat="45.94526" lon="5.63437">
        <ele>1063</ele>
        <time>2026-05-12T10:35:28Z</time>
      </trkpt>
      <trkpt lat="45.94522" lon="5.63435">
        <ele>1062.4</ele>
        <time>2026-05-12T10:35:29Z</time>
      </trkpt>
      <trkpt lat="45.94517" lon="5.63432">
        <ele>1062.2</ele>
        <time>2026-05-12T10:35:30Z</time>
      </trkpt>
      <trkpt lat="45.94513" lon="5.63431">
        <ele>1062.2</ele>
        <time>2026-05-12T10:35:31Z</time>
      </trkpt>
      <trkpt lat="45.94509" lon="5.63428">
        <ele>1061.6</ele>
        <time>2026-05-12T10:35:32Z</time>
      </trkpt>
      <trkpt lat="45.94505" lon="5.63427">
        <ele>1061.4</ele>
        <time>2026-05-12T10:35:33Z</time>
      </trkpt>
      <trkpt lat="45.94502" lon="5.63423">
        <ele>1061.4</ele>
        <time>2026-05-12T10:35:34Z</time>
      </trkpt>
      <trkpt lat="45.945" lon="5.63422">
        <ele>1061</ele>
        <time>2026-05-12T10:35:35Z</time>
      </trkpt>
      <trkpt lat="45.94497" lon="5.6342">
        <ele>1060.8</ele>
        <time>2026-05-12T10:35:36Z</time>
      </trkpt>
      <trkpt lat="45.94495" lon="5.63419">
        <ele>1060.8</ele>
        <time>2026-05-12T10:35:37Z</time>
      </trkpt>
      <trkpt lat="45.94494" lon="5.63419">
        <ele>1060.6</ele>
        <time>2026-05-12T10:35:38Z</time>
      </trkpt>
      <trkpt lat="45.94492" lon="5.63419">
        <ele>1060.2</ele>
        <time>2026-05-12T10:35:39Z</time>
      </trkpt>
      <trkpt lat="45.94489" lon="5.63418">
        <ele>1059.8</ele>
        <time>2026-05-12T10:35:40Z</time>
      </trkpt>
      <trkpt lat="45.94488" lon="5.63417">
        <ele>1059</ele>
        <time>2026-05-12T10:35:41Z</time>
      </trkpt>
      <trkpt lat="45.94486" lon="5.63415">
        <ele>1058.6</ele>
        <time>2026-05-12T10:35:42Z</time>
      </trkpt>
      <trkpt lat="45.94484" lon="5.6341">
        <ele>1058.6</ele>
        <time>2026-05-12T10:35:43Z</time>
      </trkpt>
      <trkpt lat="45.94482" lon="5.63406">
        <ele>1058</ele>
        <time>2026-05-12T10:35:44Z</time>
      </trkpt>
      <trkpt lat="45.9448" lon="5.63401">
        <ele>1057.6</ele>
        <time>2026-05-12T10:35:45Z</time>
      </trkpt>
      <trkpt lat="45.94478" lon="5.63394">
        <ele>1056.8</ele>
        <time>2026-05-12T10:35:46Z</time>
      </trkpt>
      <trkpt lat="45.94476" lon="5.63389">
        <ele>1056.2</ele>
        <time>2026-05-12T10:35:47Z</time>
      </trkpt>
      <trkpt lat="45.94472" lon="5.63385">
        <ele>1055.6</ele>
        <time>2026-05-12T10:35:48Z</time>
      </trkpt>
      <trkpt lat="45.94468" lon="5.63383">
        <ele>1055</ele>
        <time>2026-05-12T10:35:49Z</time>
      </trkpt>
      <trkpt lat="45.94466" lon="5.63378">
        <ele>1055</ele>
        <time>2026-05-12T10:35:50Z</time>
      </trkpt>
      <trkpt lat="45.94465" lon="5.63374">
        <ele>1054.8</ele>
        <time>2026-05-12T10:35:51Z</time>
      </trkpt>
      <trkpt lat="45.94464" lon="5.63373">
        <ele>1054.2</ele>
        <time>2026-05-12T10:35:52Z</time>
      </trkpt>
      <trkpt lat="45.94464" lon="5.63369">
        <ele>1054</ele>
        <time>2026-05-12T10:35:53Z</time>
      </trkpt>
      <trkpt lat="45.94463" lon="5.63367">
        <ele>1054</ele>
        <time>2026-05-12T10:35:54Z</time>
      </trkpt>
      <trkpt lat="45.94463" lon="5.63365">
        <ele>1053.6</ele>
        <time>2026-05-12T10:35:55Z</time>
      </trkpt>
      <trkpt lat="45.94463" lon="5.63361">
        <ele>1053.6</ele>
        <time>2026-05-12T10:35:56Z</time>
      </trkpt>
      <trkpt lat="45.94462" lon="5.63358">
        <ele>1053.6</ele>
        <time>2026-05-12T10:35:57Z</time>
      </trkpt>
      <trkpt lat="45.94462" lon="5.63356">
        <ele>1053.6</ele>
        <time>2026-05-12T10:35:58Z</time>
      </trkpt>
      <trkpt lat="45.94461" lon="5.63353">
        <ele>1053.2</ele>
        <time>2026-05-12T10:35:59Z</time>
      </trkpt>
      <trkpt lat="45.94459" lon="5.63351">
        <ele>1053.2</ele>
        <time>2026-05-12T10:36:00Z</time>
      </trkpt>
      <trkpt lat="45.94458" lon="5.6335">
        <ele>1053.2</ele>
        <time>2026-05-12T10:36:01Z</time>
      </trkpt>
      <trkpt lat="45.94456" lon="5.63349">
        <ele>1053.2</ele>
        <time>2026-05-12T10:36:02Z</time>
      </trkpt>
      <trkpt lat="45.94453" lon="5.63347">
        <ele>1052</ele>
        <time>2026-05-12T10:36:03Z</time>
      </trkpt>
      <trkpt lat="45.94451" lon="5.63343">
        <ele>1052</ele>
        <time>2026-05-12T10:36:04Z</time>
      </trkpt>
      <trkpt lat="45.94448" lon="5.63341">
        <ele>1052</ele>
        <time>2026-05-12T10:36:05Z</time>
      </trkpt>
      <trkpt lat="45.94447" lon="5.63339">
        <ele>1051.6</ele>
        <time>2026-05-12T10:36:06Z</time>
      </trkpt>
      <trkpt lat="45.94445" lon="5.63337">
        <ele>1051.6</ele>
        <time>2026-05-12T10:36:07Z</time>
      </trkpt>
      <trkpt lat="45.94443" lon="5.63336">
        <ele>1051.2</ele>
        <time>2026-05-12T10:36:08Z</time>
      </trkpt>
      <trkpt lat="45.94441" lon="5.63334">
        <ele>1050.8</ele>
        <time>2026-05-12T10:36:09Z</time>
      </trkpt>
      <trkpt lat="45.94439" lon="5.63331">
        <ele>1050.2</ele>
        <time>2026-05-12T10:36:10Z</time>
      </trkpt>
      <trkpt lat="45.94436" lon="5.63328">
        <ele>1050.2</ele>
        <time>2026-05-12T10:36:11Z</time>
      </trkpt>
      <trkpt lat="45.94433" lon="5.63325">
        <ele>1049.8</ele>
        <time>2026-05-12T10:36:12Z</time>
      </trkpt>
      <trkpt lat="45.94431" lon="5.63323">
        <ele>1049.6</ele>
        <time>2026-05-12T10:36:13Z</time>
      </trkpt>
      <trkpt lat="45.94429" lon="5.63322">
        <ele>1047</ele>
        <time>2026-05-12T10:36:14Z</time>
      </trkpt>
      <trkpt lat="45.94427" lon="5.63321">
        <ele>1047.2</ele>
        <time>2026-05-12T10:36:15Z</time>
      </trkpt>
      <trkpt lat="45.94424" lon="5.63319">
        <ele>1047.2</ele>
        <time>2026-05-12T10:36:16Z</time>
      </trkpt>
      <trkpt lat="45.94421" lon="5.63316">
        <ele>1047.2</ele>
        <time>2026-05-12T10:36:17Z</time>
      </trkpt>
      <trkpt lat="45.94417" lon="5.63314">
        <ele>1047</ele>
        <time>2026-05-12T10:36:18Z</time>
      </trkpt>
      <trkpt lat="45.94416" lon="5.63312">
        <ele>1046.6</ele>
        <time>2026-05-12T10:36:19Z</time>
      </trkpt>
      <trkpt lat="45.94415" lon="5.63311">
        <ele>1046.6</ele>
        <time>2026-05-12T10:36:20Z</time>
      </trkpt>
      <trkpt lat="45.94413" lon="5.63307">
        <ele>1046</ele>
        <time>2026-05-12T10:36:21Z</time>
      </trkpt>
      <trkpt lat="45.9441" lon="5.63303">
        <ele>1046</ele>
        <time>2026-05-12T10:36:22Z</time>
      </trkpt>
      <trkpt lat="45.94407" lon="5.633">
        <ele>1046</ele>
        <time>2026-05-12T10:36:23Z</time>
      </trkpt>
      <trkpt lat="45.944" lon="5.63296">
        <ele>1045.6</ele>
        <time>2026-05-12T10:36:24Z</time>
      </trkpt>
      <trkpt lat="45.94397" lon="5.63292">
        <ele>1045.4</ele>
        <time>2026-05-12T10:36:25Z</time>
      </trkpt>
      <trkpt lat="45.94395" lon="5.6329">
        <ele>1044.8</ele>
        <time>2026-05-12T10:36:26Z</time>
      </trkpt>
      <trkpt lat="45.94395" lon="5.63289">
        <ele>1044.8</ele>
        <time>2026-05-12T10:36:27Z</time>
      </trkpt>
      <trkpt lat="45.94393" lon="5.63285">
        <ele>1044.4</ele>
        <time>2026-05-12T10:36:28Z</time>
      </trkpt>
      <trkpt lat="45.94391" lon="5.63281">
        <ele>1044.4</ele>
        <time>2026-05-12T10:36:29Z</time>
      </trkpt>
      <trkpt lat="45.94388" lon="5.63277">
        <ele>1043.8</ele>
        <time>2026-05-12T10:36:30Z</time>
      </trkpt>
      <trkpt lat="45.94385" lon="5.63273">
        <ele>1043.8</ele>
        <time>2026-05-12T10:36:31Z</time>
      </trkpt>
      <trkpt lat="45.94385" lon="5.63271">
        <ele>1044</ele>
        <time>2026-05-12T10:36:32Z</time>
      </trkpt>
      <trkpt lat="45.94381" lon="5.63268">
        <ele>1043.6</ele>
        <time>2026-05-12T10:36:33Z</time>
      </trkpt>
      <trkpt lat="45.9438" lon="5.63265">
        <ele>1043.6</ele>
        <time>2026-05-12T10:36:34Z</time>
      </trkpt>
      <trkpt lat="45.94377" lon="5.63263">
        <ele>1043.6</ele>
        <time>2026-05-12T10:36:35Z</time>
      </trkpt>
      <trkpt lat="45.94375" lon="5.63261">
        <ele>1043.2</ele>
        <time>2026-05-12T10:36:36Z</time>
      </trkpt>
      <trkpt lat="45.94373" lon="5.6326">
        <ele>1043</ele>
        <time>2026-05-12T10:36:37Z</time>
      </trkpt>
      <trkpt lat="45.94372" lon="5.63258">
        <ele>1043</ele>
        <time>2026-05-12T10:36:38Z</time>
      </trkpt>
      <trkpt lat="45.94371" lon="5.63256">
        <ele>1043</ele>
        <time>2026-05-12T10:36:39Z</time>
      </trkpt>
      <trkpt lat="45.9437" lon="5.63255">
        <ele>1043</ele>
        <time>2026-05-12T10:36:40Z</time>
      </trkpt>
      <trkpt lat="45.94369" lon="5.63254">
        <ele>1042</ele>
        <time>2026-05-12T10:36:41Z</time>
      </trkpt>
      <trkpt lat="45.94367" lon="5.63252">
        <ele>1042</ele>
        <time>2026-05-12T10:36:42Z</time>
      </trkpt>
      <trkpt lat="45.94363" lon="5.63251">
        <ele>1041.6</ele>
        <time>2026-05-12T10:36:43Z</time>
      </trkpt>
      <trkpt lat="45.9436" lon="5.63249">
        <ele>1041.4</ele>
        <time>2026-05-12T10:36:44Z</time>
      </trkpt>
      <trkpt lat="45.94357" lon="5.63247">
        <ele>1041</ele>
        <time>2026-05-12T10:36:45Z</time>
      </trkpt>
      <trkpt lat="45.94354" lon="5.63244">
        <ele>1041.8</ele>
        <time>2026-05-12T10:36:46Z</time>
      </trkpt>
      <trkpt lat="45.9435" lon="5.63242">
        <ele>1041.8</ele>
        <time>2026-05-12T10:36:47Z</time>
      </trkpt>
      <trkpt lat="45.94347" lon="5.63241">
        <ele>1041.8</ele>
        <time>2026-05-12T10:36:48Z</time>
      </trkpt>
      <trkpt lat="45.9434" lon="5.63238">
        <ele>1041</ele>
        <time>2026-05-12T10:36:49Z</time>
      </trkpt>
      <trkpt lat="45.94338" lon="5.63236">
        <ele>1041.6</ele>
        <time>2026-05-12T10:36:50Z</time>
      </trkpt>
      <trkpt lat="45.94334" lon="5.63233">
        <ele>1041</ele>
        <time>2026-05-12T10:36:51Z</time>
      </trkpt>
      <trkpt lat="45.94333" lon="5.63231">
        <ele>1040.8</ele>
        <time>2026-05-12T10:36:52Z</time>
      </trkpt>
      <trkpt lat="45.94329" lon="5.63228">
        <ele>1040.8</ele>
        <time>2026-05-12T10:36:53Z</time>
      </trkpt>
      <trkpt lat="45.94326" lon="5.63226">
        <ele>1039.8</ele>
        <time>2026-05-12T10:36:54Z</time>
      </trkpt>
      <trkpt lat="45.94322" lon="5.63224">
        <ele>1039.8</ele>
        <time>2026-05-12T10:36:55Z</time>
      </trkpt>
      <trkpt lat="45.9432" lon="5.63223">
        <ele>1039.2</ele>
        <time>2026-05-12T10:36:56Z</time>
      </trkpt>
      <trkpt lat="45.94313" lon="5.63219">
        <ele>1038.8</ele>
        <time>2026-05-12T10:36:57Z</time>
      </trkpt>
      <trkpt lat="45.94314" lon="5.63219">
        <ele>1038.8</ele>
        <time>2026-05-12T10:36:58Z</time>
      </trkpt>
      <trkpt lat="45.9431" lon="5.63218">
        <ele>1038.8</ele>
        <time>2026-05-12T10:36:59Z</time>
      </trkpt>
      <trkpt lat="45.9431" lon="5.6322">
        <ele>1039</ele>
        <time>2026-05-12T10:37:00Z</time>
      </trkpt>
      <trkpt lat="45.94309" lon="5.63221">
        <ele>1039</ele>
        <time>2026-05-12T10:37:01Z</time>
      </trkpt>
      <trkpt lat="45.94306" lon="5.63218">
        <ele>1038</ele>
        <time>2026-05-12T10:37:02Z</time>
      </trkpt>
      <trkpt lat="45.94303" lon="5.6322">
        <ele>1037.4</ele>
        <time>2026-05-12T10:37:03Z</time>
      </trkpt>
      <trkpt lat="45.94304" lon="5.6322">
        <ele>1037.6</ele>
        <time>2026-05-12T10:37:04Z</time>
      </trkpt>
      <trkpt lat="45.943" lon="5.63218">
        <ele>1037.6</ele>
        <time>2026-05-12T10:37:05Z</time>
      </trkpt>
      <trkpt lat="45.94298" lon="5.63217">
        <ele>1037.2</ele>
        <time>2026-05-12T10:37:06Z</time>
      </trkpt>
      <trkpt lat="45.94295" lon="5.63214">
        <ele>1036.8</ele>
        <time>2026-05-12T10:37:07Z</time>
      </trkpt>
      <trkpt lat="45.94292" lon="5.63211">
        <ele>1036.8</ele>
        <time>2026-05-12T10:37:08Z</time>
      </trkpt>
      <trkpt lat="45.9429" lon="5.63209">
        <ele>1036.6</ele>
        <time>2026-05-12T10:37:09Z</time>
      </trkpt>
      <trkpt lat="45.94288" lon="5.63206">
        <ele>1036.4</ele>
        <time>2026-05-12T10:37:10Z</time>
      </trkpt>
      <trkpt lat="45.94287" lon="5.63202">
        <ele>1036.4</ele>
        <time>2026-05-12T10:37:11Z</time>
      </trkpt>
      <trkpt lat="45.94286" lon="5.63198">
        <ele>1035.8</ele>
        <time>2026-05-12T10:37:12Z</time>
      </trkpt>
      <trkpt lat="45.94285" lon="5.63194">
        <ele>1034.8</ele>
        <time>2026-05-12T10:37:13Z</time>
      </trkpt>
      <trkpt lat="45.94283" lon="5.6319">
        <ele>1035.2</ele>
        <time>2026-05-12T10:37:14Z</time>
      </trkpt>
      <trkpt lat="45.94281" lon="5.63187">
        <ele>1035.2</ele>
        <time>2026-05-12T10:37:15Z</time>
      </trkpt>
      <trkpt lat="45.94277" lon="5.63184">
        <ele>1035.2</ele>
        <time>2026-05-12T10:37:16Z</time>
      </trkpt>
      <trkpt lat="45.94275" lon="5.63182">
        <ele>1034.8</ele>
        <time>2026-05-12T10:37:17Z</time>
      </trkpt>
      <trkpt lat="45.94272" lon="5.63179">
        <ele>1035.4</ele>
        <time>2026-05-12T10:37:18Z</time>
      </trkpt>
      <trkpt lat="45.94269" lon="5.63176">
        <ele>1035.4</ele>
        <time>2026-05-12T10:37:19Z</time>
      </trkpt>
      <trkpt lat="45.94267" lon="5.63173">
        <ele>1035.2</ele>
        <time>2026-05-12T10:37:20Z</time>
      </trkpt>
      <trkpt lat="45.94265" lon="5.63171">
        <ele>1034.8</ele>
        <time>2026-05-12T10:37:21Z</time>
      </trkpt>
      <trkpt lat="45.94263" lon="5.63169">
        <ele>1034.8</ele>
        <time>2026-05-12T10:37:22Z</time>
      </trkpt>
      <trkpt lat="45.94261" lon="5.63168">
        <ele>1033.4</ele>
        <time>2026-05-12T10:37:23Z</time>
      </trkpt>
      <trkpt lat="45.94259" lon="5.63166">
        <ele>1033.4</ele>
        <time>2026-05-12T10:37:24Z</time>
      </trkpt>
      <trkpt lat="45.94257" lon="5.63165">
        <ele>1034</ele>
        <time>2026-05-12T10:37:25Z</time>
      </trkpt>
      <trkpt lat="45.94254" lon="5.63163">
        <ele>1033.6</ele>
        <time>2026-05-12T10:37:26Z</time>
      </trkpt>
      <trkpt lat="45.94251" lon="5.6316">
        <ele>1033.4</ele>
        <time>2026-05-12T10:37:27Z</time>
      </trkpt>
      <trkpt lat="45.94249" lon="5.63157">
        <ele>1033.4</ele>
        <time>2026-05-12T10:37:28Z</time>
      </trkpt>
      <trkpt lat="45.94246" lon="5.63154">
        <ele>1033.4</ele>
        <time>2026-05-12T10:37:29Z</time>
      </trkpt>
      <trkpt lat="45.94243" lon="5.63152">
        <ele>1033.2</ele>
        <time>2026-05-12T10:37:30Z</time>
      </trkpt>
      <trkpt lat="45.9424" lon="5.63152">
        <ele>1033.2</ele>
        <time>2026-05-12T10:37:31Z</time>
      </trkpt>
      <trkpt lat="45.94238" lon="5.63152">
        <ele>1033</ele>
        <time>2026-05-12T10:37:32Z</time>
      </trkpt>
      <trkpt lat="45.94235" lon="5.63151">
        <ele>1033</ele>
        <time>2026-05-12T10:37:33Z</time>
      </trkpt>
      <trkpt lat="45.94233" lon="5.63149">
        <ele>1033</ele>
        <time>2026-05-12T10:37:34Z</time>
      </trkpt>
      <trkpt lat="45.94232" lon="5.63149">
        <ele>1033</ele>
        <time>2026-05-12T10:37:35Z</time>
      </trkpt>
      <trkpt lat="45.94232" lon="5.63148">
        <ele>1033</ele>
        <time>2026-05-12T10:37:36Z</time>
      </trkpt>
      <trkpt lat="45.94225" lon="5.63143">
        <ele>1032.2</ele>
        <time>2026-05-12T10:37:48Z</time>
      </trkpt>
      <trkpt lat="45.94222" lon="5.63141">
        <ele>1032</ele>
        <time>2026-05-12T10:37:49Z</time>
      </trkpt>
      <trkpt lat="45.94219" lon="5.63139">
        <ele>1031.4</ele>
        <time>2026-05-12T10:37:50Z</time>
      </trkpt>
      <trkpt lat="45.94216" lon="5.63136">
        <ele>1031.4</ele>
        <time>2026-05-12T10:37:51Z</time>
      </trkpt>
      <trkpt lat="45.94213" lon="5.63133">
        <ele>1031.6</ele>
        <time>2026-05-12T10:37:52Z</time>
      </trkpt>
      <trkpt lat="45.9421" lon="5.63129">
        <ele>1031.6</ele>
        <time>2026-05-12T10:37:53Z</time>
      </trkpt>
      <trkpt lat="45.94207" lon="5.63126">
        <ele>1031.6</ele>
        <time>2026-05-12T10:37:54Z</time>
      </trkpt>
      <trkpt lat="45.94205" lon="5.63121">
        <ele>1031.6</ele>
        <time>2026-05-12T10:37:55Z</time>
      </trkpt>
      <trkpt lat="45.94203" lon="5.63117">
        <ele>1030.8</ele>
        <time>2026-05-12T10:37:56Z</time>
      </trkpt>
      <trkpt lat="45.94202" lon="5.63114">
        <ele>1030.8</ele>
        <time>2026-05-12T10:37:57Z</time>
      </trkpt>
      <trkpt lat="45.942" lon="5.63111">
        <ele>1030.8</ele>
        <time>2026-05-12T10:37:58Z</time>
      </trkpt>
      <trkpt lat="45.94199" lon="5.63106">
        <ele>1030.8</ele>
        <time>2026-05-12T10:37:59Z</time>
      </trkpt>
      <trkpt lat="45.94199" lon="5.63102">
        <ele>1030.8</ele>
        <time>2026-05-12T10:38:00Z</time>
      </trkpt>
      <trkpt lat="45.94199" lon="5.631">
        <ele>1030.8</ele>
        <time>2026-05-12T10:38:01Z</time>
      </trkpt>
      <trkpt lat="45.94198" lon="5.63098">
        <ele>1030.8</ele>
        <time>2026-05-12T10:38:02Z</time>
      </trkpt>
      <trkpt lat="45.94198" lon="5.63095">
        <ele>1030.8</ele>
        <time>2026-05-12T10:38:03Z</time>
      </trkpt>
      <trkpt lat="45.94197" lon="5.6309">
        <ele>1030.6</ele>
        <time>2026-05-12T10:38:04Z</time>
      </trkpt>
      <trkpt lat="45.94197" lon="5.63087">
        <ele>1030.6</ele>
        <time>2026-05-12T10:38:05Z</time>
      </trkpt>
      <trkpt lat="45.94197" lon="5.63086">
        <ele>1030.2</ele>
        <time>2026-05-12T10:38:06Z</time>
      </trkpt>
      <trkpt lat="45.94196" lon="5.63084">
        <ele>1030.2</ele>
        <time>2026-05-12T10:38:07Z</time>
      </trkpt>
      <trkpt lat="45.94195" lon="5.6308">
        <ele>1030.2</ele>
        <time>2026-05-12T10:38:08Z</time>
      </trkpt>
      <trkpt lat="45.94194" lon="5.63077">
        <ele>1030.4</ele>
        <time>2026-05-12T10:38:09Z</time>
      </trkpt>
      <trkpt lat="45.94192" lon="5.63073">
        <ele>1030.4</ele>
        <time>2026-05-12T10:38:10Z</time>
      </trkpt>
      <trkpt lat="45.9419" lon="5.6307">
        <ele>1030.4</ele>
        <time>2026-05-12T10:38:11Z</time>
      </trkpt>
      <trkpt lat="45.94188" lon="5.63067">
        <ele>1030</ele>
        <time>2026-05-12T10:38:12Z</time>
      </trkpt>
      <trkpt lat="45.94187" lon="5.63062">
        <ele>1030</ele>
        <time>2026-05-12T10:38:13Z</time>
      </trkpt>
      <trkpt lat="45.94186" lon="5.63056">
        <ele>1029.6</ele>
        <time>2026-05-12T10:38:14Z</time>
      </trkpt>
      <trkpt lat="45.94185" lon="5.63051">
        <ele>1029.6</ele>
        <time>2026-05-12T10:38:15Z</time>
      </trkpt>
      <trkpt lat="45.94184" lon="5.63046">
        <ele>1029.2</ele>
        <time>2026-05-12T10:38:16Z</time>
      </trkpt>
      <trkpt lat="45.94182" lon="5.63042">
        <ele>1029.2</ele>
        <time>2026-05-12T10:38:17Z</time>
      </trkpt>
      <trkpt lat="45.94181" lon="5.63038">
        <ele>1029.2</ele>
        <time>2026-05-12T10:38:18Z</time>
      </trkpt>
      <trkpt lat="45.9418" lon="5.63034">
        <ele>1029.2</ele>
        <time>2026-05-12T10:38:19Z</time>
      </trkpt>
      <trkpt lat="45.9418" lon="5.63029">
        <ele>1029.2</ele>
        <time>2026-05-12T10:38:20Z</time>
      </trkpt>
      <trkpt lat="45.9418" lon="5.63025">
        <ele>1028.4</ele>
        <time>2026-05-12T10:38:21Z</time>
      </trkpt>
      <trkpt lat="45.94179" lon="5.63021">
        <ele>1028.2</ele>
        <time>2026-05-12T10:38:22Z</time>
      </trkpt>
      <trkpt lat="45.94179" lon="5.63017">
        <ele>1027.8</ele>
        <time>2026-05-12T10:38:23Z</time>
      </trkpt>
      <trkpt lat="45.94178" lon="5.63012">
        <ele>1027.8</ele>
        <time>2026-05-12T10:38:24Z</time>
      </trkpt>
      <trkpt lat="45.94178" lon="5.63008">
        <ele>1027.8</ele>
        <time>2026-05-12T10:38:25Z</time>
      </trkpt>
      <trkpt lat="45.94177" lon="5.63005">
        <ele>1028.2</ele>
        <time>2026-05-12T10:38:26Z</time>
      </trkpt>
      <trkpt lat="45.94177" lon="5.63002">
        <ele>1028.6</ele>
        <time>2026-05-12T10:38:27Z</time>
      </trkpt>
      <trkpt lat="45.94178" lon="5.62998">
        <ele>1028.6</ele>
        <time>2026-05-12T10:38:28Z</time>
      </trkpt>
      <trkpt lat="45.94178" lon="5.62994">
        <ele>1028.6</ele>
        <time>2026-05-12T10:38:29Z</time>
      </trkpt>
      <trkpt lat="45.94179" lon="5.62991">
        <ele>1028.6</ele>
        <time>2026-05-12T10:38:30Z</time>
      </trkpt>
      <trkpt lat="45.94179" lon="5.62988">
        <ele>1028.6</ele>
        <time>2026-05-12T10:38:31Z</time>
      </trkpt>
      <trkpt lat="45.94179" lon="5.62986">
        <ele>1028.6</ele>
        <time>2026-05-12T10:38:32Z</time>
      </trkpt>
      <trkpt lat="45.94179" lon="5.62984">
        <ele>1028.6</ele>
        <time>2026-05-12T10:38:33Z</time>
      </trkpt>
      <trkpt lat="45.94179" lon="5.62981">
        <ele>1028.6</ele>
        <time>2026-05-12T10:38:34Z</time>
      </trkpt>
      <trkpt lat="45.94178" lon="5.62977">
        <ele>1028.6</ele>
        <time>2026-05-12T10:38:35Z</time>
      </trkpt>
      <trkpt lat="45.94178" lon="5.62974">
        <ele>1028.4</ele>
        <time>2026-05-12T10:38:36Z</time>
      </trkpt>
      <trkpt lat="45.94178" lon="5.6297">
        <ele>1028.2</ele>
        <time>2026-05-12T10:38:37Z</time>
      </trkpt>
      <trkpt lat="45.94178" lon="5.62967">
        <ele>1028.2</ele>
        <time>2026-05-12T10:38:38Z</time>
      </trkpt>
      <trkpt lat="45.94178" lon="5.62962">
        <ele>1028.2</ele>
        <time>2026-05-12T10:38:39Z</time>
      </trkpt>
      <trkpt lat="45.94175" lon="5.62957">
        <ele>1028</ele>
        <time>2026-05-12T10:38:40Z</time>
      </trkpt>
      <trkpt lat="45.94173" lon="5.62951">
        <ele>1027.8</ele>
        <time>2026-05-12T10:38:41Z</time>
      </trkpt>
      <trkpt lat="45.94171" lon="5.62945">
        <ele>1027.8</ele>
        <time>2026-05-12T10:38:42Z</time>
      </trkpt>
      <trkpt lat="45.9417" lon="5.62941">
        <ele>1027.8</ele>
        <time>2026-05-12T10:38:43Z</time>
      </trkpt>
      <trkpt lat="45.94165" lon="5.62932">
        <ele>1027.8</ele>
        <time>2026-05-12T10:38:44Z</time>
      </trkpt>
      <trkpt lat="45.94163" lon="5.62928">
        <ele>1027.8</ele>
        <time>2026-05-12T10:38:45Z</time>
      </trkpt>
      <trkpt lat="45.94162" lon="5.62924">
        <ele>1027.8</ele>
        <time>2026-05-12T10:38:46Z</time>
      </trkpt>
      <trkpt lat="45.9416" lon="5.6292">
        <ele>1027.8</ele>
        <time>2026-05-12T10:38:47Z</time>
      </trkpt>
      <trkpt lat="45.94158" lon="5.62915">
        <ele>1027.8</ele>
        <time>2026-05-12T10:38:48Z</time>
      </trkpt>
      <trkpt lat="45.94158" lon="5.62911">
        <ele>1027.8</ele>
        <time>2026-05-12T10:38:49Z</time>
      </trkpt>
      <trkpt lat="45.94156" lon="5.62906">
        <ele>1027.4</ele>
        <time>2026-05-12T10:38:50Z</time>
      </trkpt>
      <trkpt lat="45.94157" lon="5.62901">
        <ele>1027.4</ele>
        <time>2026-05-12T10:38:51Z</time>
      </trkpt>
      <trkpt lat="45.94157" lon="5.62898">
        <ele>1027.4</ele>
        <time>2026-05-12T10:38:52Z</time>
      </trkpt>
      <trkpt lat="45.94156" lon="5.62894">
        <ele>1027.4</ele>
        <time>2026-05-12T10:38:53Z</time>
      </trkpt>
      <trkpt lat="45.94156" lon="5.62891">
        <ele>1027.2</ele>
        <time>2026-05-12T10:38:54Z</time>
      </trkpt>
      <trkpt lat="45.94154" lon="5.62887">
        <ele>1027.2</ele>
        <time>2026-05-12T10:38:55Z</time>
      </trkpt>
      <trkpt lat="45.94153" lon="5.62882">
        <ele>1027.8</ele>
        <time>2026-05-12T10:38:56Z</time>
      </trkpt>
      <trkpt lat="45.94152" lon="5.62877">
        <ele>1027.6</ele>
        <time>2026-05-12T10:38:57Z</time>
      </trkpt>
      <trkpt lat="45.94152" lon="5.62873">
        <ele>1027.6</ele>
        <time>2026-05-12T10:38:58Z</time>
      </trkpt>
      <trkpt lat="45.94151" lon="5.62869">
        <ele>1027.2</ele>
        <time>2026-05-12T10:38:59Z</time>
      </trkpt>
      <trkpt lat="45.94151" lon="5.62865">
        <ele>1027.4</ele>
        <time>2026-05-12T10:39:00Z</time>
      </trkpt>
      <trkpt lat="45.94151" lon="5.62862">
        <ele>1027.4</ele>
        <time>2026-05-12T10:39:01Z</time>
      </trkpt>
      <trkpt lat="45.94151" lon="5.62859">
        <ele>1027.6</ele>
        <time>2026-05-12T10:39:02Z</time>
      </trkpt>
      <trkpt lat="45.9415" lon="5.62857">
        <ele>1027.6</ele>
        <time>2026-05-12T10:39:03Z</time>
      </trkpt>
      <trkpt lat="45.94149" lon="5.62854">
        <ele>1028</ele>
        <time>2026-05-12T10:39:04Z</time>
      </trkpt>
      <trkpt lat="45.94148" lon="5.6285">
        <ele>1028</ele>
        <time>2026-05-12T10:39:05Z</time>
      </trkpt>
      <trkpt lat="45.94147" lon="5.62847">
        <ele>1028</ele>
        <time>2026-05-12T10:39:06Z</time>
      </trkpt>
      <trkpt lat="45.94145" lon="5.62844">
        <ele>1028</ele>
        <time>2026-05-12T10:39:07Z</time>
      </trkpt>
      <trkpt lat="45.94145" lon="5.62842">
        <ele>1028.2</ele>
        <time>2026-05-12T10:39:08Z</time>
      </trkpt>
      <trkpt lat="45.94145" lon="5.6284">
        <ele>1028.2</ele>
        <time>2026-05-12T10:39:09Z</time>
      </trkpt>
      <trkpt lat="45.94145" lon="5.62837">
        <ele>1028.2</ele>
        <time>2026-05-12T10:39:10Z</time>
      </trkpt>
      <trkpt lat="45.94145" lon="5.62835">
        <ele>1028.2</ele>
        <time>2026-05-12T10:39:11Z</time>
      </trkpt>
      <trkpt lat="45.94145" lon="5.62833">
        <ele>1028.4</ele>
        <time>2026-05-12T10:39:12Z</time>
      </trkpt>
      <trkpt lat="45.94144" lon="5.62832">
        <ele>1028.4</ele>
        <time>2026-05-12T10:39:13Z</time>
      </trkpt>
      <trkpt lat="45.94144" lon="5.62828">
        <ele>1028.4</ele>
        <time>2026-05-12T10:39:14Z</time>
      </trkpt>
      <trkpt lat="45.94143" lon="5.62823">
        <ele>1028.4</ele>
        <time>2026-05-12T10:39:15Z</time>
      </trkpt>
      <trkpt lat="45.94141" lon="5.6282">
        <ele>1028</ele>
        <time>2026-05-12T10:39:16Z</time>
      </trkpt>
      <trkpt lat="45.9414" lon="5.62818">
        <ele>1028</ele>
        <time>2026-05-12T10:39:17Z</time>
      </trkpt>
      <trkpt lat="45.94138" lon="5.62816">
        <ele>1028</ele>
        <time>2026-05-12T10:39:18Z</time>
      </trkpt>
      <trkpt lat="45.94138" lon="5.62814">
        <ele>1027.6</ele>
        <time>2026-05-12T10:39:19Z</time>
      </trkpt>
      <trkpt lat="45.94137" lon="5.62811">
        <ele>1027.6</ele>
        <time>2026-05-12T10:39:20Z</time>
      </trkpt>
      <trkpt lat="45.94135" lon="5.62808">
        <ele>1027</ele>
        <time>2026-05-12T10:39:21Z</time>
      </trkpt>
      <trkpt lat="45.94133" lon="5.62805">
        <ele>1027.2</ele>
        <time>2026-05-12T10:39:22Z</time>
      </trkpt>
      <trkpt lat="45.94131" lon="5.62801">
        <ele>1027.2</ele>
        <time>2026-05-12T10:39:23Z</time>
      </trkpt>
      <trkpt lat="45.9413" lon="5.62796">
        <ele>1027.2</ele>
        <time>2026-05-12T10:39:24Z</time>
      </trkpt>
      <trkpt lat="45.9413" lon="5.62792">
        <ele>1026.8</ele>
        <time>2026-05-12T10:39:25Z</time>
      </trkpt>
      <trkpt lat="45.94132" lon="5.62786">
        <ele>1026.8</ele>
        <time>2026-05-12T10:39:26Z</time>
      </trkpt>
      <trkpt lat="45.94133" lon="5.62781">
        <ele>1026.6</ele>
        <time>2026-05-12T10:39:27Z</time>
      </trkpt>
      <trkpt lat="45.94133" lon="5.62775">
        <ele>1026.6</ele>
        <time>2026-05-12T10:39:28Z</time>
      </trkpt>
      <trkpt lat="45.94133" lon="5.62769">
        <ele>1026.6</ele>
        <time>2026-05-12T10:39:29Z</time>
      </trkpt>
      <trkpt lat="45.94132" lon="5.62762">
        <ele>1026.2</ele>
        <time>2026-05-12T10:39:30Z</time>
      </trkpt>
      <trkpt lat="45.94133" lon="5.62756">
        <ele>1025.6</ele>
        <time>2026-05-12T10:39:31Z</time>
      </trkpt>
      <trkpt lat="45.94132" lon="5.62749">
        <ele>1025.6</ele>
        <time>2026-05-12T10:39:32Z</time>
      </trkpt>
      <trkpt lat="45.94131" lon="5.62743">
        <ele>1025</ele>
        <time>2026-05-12T10:39:33Z</time>
      </trkpt>
      <trkpt lat="45.9413" lon="5.62736">
        <ele>1024.6</ele>
        <time>2026-05-12T10:39:34Z</time>
      </trkpt>
      <trkpt lat="45.9413" lon="5.62729">
        <ele>1023.6</ele>
        <time>2026-05-12T10:39:35Z</time>
      </trkpt>
      <trkpt lat="45.94128" lon="5.62722">
        <ele>1023.6</ele>
        <time>2026-05-12T10:39:36Z</time>
      </trkpt>
      <trkpt lat="45.94128" lon="5.62713">
        <ele>1022.6</ele>
        <time>2026-05-12T10:39:37Z</time>
      </trkpt>
      <trkpt lat="45.94127" lon="5.62704">
        <ele>1022.4</ele>
        <time>2026-05-12T10:39:38Z</time>
      </trkpt>
      <trkpt lat="45.94126" lon="5.62696">
        <ele>1022.2</ele>
        <time>2026-05-12T10:39:39Z</time>
      </trkpt>
      <trkpt lat="45.94125" lon="5.6269">
        <ele>1021.8</ele>
        <time>2026-05-12T10:39:40Z</time>
      </trkpt>
      <trkpt lat="45.94123" lon="5.62682">
        <ele>1022.4</ele>
        <time>2026-05-12T10:39:41Z</time>
      </trkpt>
      <trkpt lat="45.94122" lon="5.62674">
        <ele>1021.8</ele>
        <time>2026-05-12T10:39:42Z</time>
      </trkpt>
      <trkpt lat="45.94121" lon="5.62667">
        <ele>1021.8</ele>
        <time>2026-05-12T10:39:43Z</time>
      </trkpt>
      <trkpt lat="45.9412" lon="5.6266">
        <ele>1021.4</ele>
        <time>2026-05-12T10:39:44Z</time>
      </trkpt>
      <trkpt lat="45.94119" lon="5.62654">
        <ele>1021.4</ele>
        <time>2026-05-12T10:39:45Z</time>
      </trkpt>
      <trkpt lat="45.9412" lon="5.6265">
        <ele>1021.4</ele>
        <time>2026-05-12T10:39:46Z</time>
      </trkpt>
      <trkpt lat="45.9412" lon="5.62646">
        <ele>1021.4</ele>
        <time>2026-05-12T10:39:47Z</time>
      </trkpt>
      <trkpt lat="45.9412" lon="5.62642">
        <ele>1021.4</ele>
        <time>2026-05-12T10:39:48Z</time>
      </trkpt>
      <trkpt lat="45.94119" lon="5.62637">
        <ele>1021</ele>
        <time>2026-05-12T10:39:49Z</time>
      </trkpt>
      <trkpt lat="45.9412" lon="5.62631">
        <ele>1020.6</ele>
        <time>2026-05-12T10:39:50Z</time>
      </trkpt>
      <trkpt lat="45.9412" lon="5.62625">
        <ele>1020.4</ele>
        <time>2026-05-12T10:39:51Z</time>
      </trkpt>
      <trkpt lat="45.94119" lon="5.62618">
        <ele>1019.8</ele>
        <time>2026-05-12T10:39:52Z</time>
      </trkpt>
      <trkpt lat="45.94119" lon="5.6261">
        <ele>1019</ele>
        <time>2026-05-12T10:39:53Z</time>
      </trkpt>
      <trkpt lat="45.94114" lon="5.62596">
        <ele>1018.2</ele>
        <time>2026-05-12T10:39:54Z</time>
      </trkpt>
      <trkpt lat="45.94112" lon="5.62584">
        <ele>1016.8</ele>
        <time>2026-05-12T10:39:55Z</time>
      </trkpt>
      <trkpt lat="45.94107" lon="5.62573">
        <ele>1015.8</ele>
        <time>2026-05-12T10:39:56Z</time>
      </trkpt>
      <trkpt lat="45.94103" lon="5.62562">
        <ele>1014.6</ele>
        <time>2026-05-12T10:39:57Z</time>
      </trkpt>
      <trkpt lat="45.941" lon="5.62551">
        <ele>1013.4</ele>
        <time>2026-05-12T10:39:58Z</time>
      </trkpt>
      <trkpt lat="45.94096" lon="5.6254">
        <ele>1013</ele>
        <time>2026-05-12T10:39:59Z</time>
      </trkpt>
      <trkpt lat="45.94092" lon="5.62532">
        <ele>1012.4</ele>
        <time>2026-05-12T10:40:00Z</time>
      </trkpt>
      <trkpt lat="45.94087" lon="5.62522">
        <ele>1011.4</ele>
        <time>2026-05-12T10:40:01Z</time>
      </trkpt>
      <trkpt lat="45.94082" lon="5.62511">
        <ele>1010.6</ele>
        <time>2026-05-12T10:40:02Z</time>
      </trkpt>
      <trkpt lat="45.94075" lon="5.625">
        <ele>1009.8</ele>
        <time>2026-05-12T10:40:03Z</time>
      </trkpt>
      <trkpt lat="45.94071" lon="5.6249">
        <ele>1008.6</ele>
        <time>2026-05-12T10:40:04Z</time>
      </trkpt>
      <trkpt lat="45.94065" lon="5.62481">
        <ele>1007.8</ele>
        <time>2026-05-12T10:40:05Z</time>
      </trkpt>
      <trkpt lat="45.9406" lon="5.62474">
        <ele>1007.4</ele>
        <time>2026-05-12T10:40:06Z</time>
      </trkpt>
      <trkpt lat="45.94057" lon="5.6247">
        <ele>1007.4</ele>
        <time>2026-05-12T10:40:07Z</time>
      </trkpt>
      <trkpt lat="45.94055" lon="5.62466">
        <ele>1007.4</ele>
        <time>2026-05-12T10:40:08Z</time>
      </trkpt>
      <trkpt lat="45.94053" lon="5.62463">
        <ele>1007.8</ele>
        <time>2026-05-12T10:40:09Z</time>
      </trkpt>
      <trkpt lat="45.94051" lon="5.62459">
        <ele>1007.8</ele>
        <time>2026-05-12T10:40:10Z</time>
      </trkpt>
      <trkpt lat="45.94051" lon="5.62466">
        <ele>1008.2</ele>
        <time>2026-05-12T10:40:11Z</time>
      </trkpt>
      <trkpt lat="45.9405" lon="5.62469">
        <ele>1008.6</ele>
        <time>2026-05-12T10:40:12Z</time>
      </trkpt>
      <trkpt lat="45.94051" lon="5.62474">
        <ele>1008.6</ele>
        <time>2026-05-12T10:40:13Z</time>
      </trkpt>
      <trkpt lat="45.94053" lon="5.6248">
        <ele>1008</ele>
        <time>2026-05-12T10:40:14Z</time>
      </trkpt>
      <trkpt lat="45.94055" lon="5.62488">
        <ele>1007.6</ele>
        <time>2026-05-12T10:40:15Z</time>
      </trkpt>
      <trkpt lat="45.94057" lon="5.62496">
        <ele>1007</ele>
        <time>2026-05-12T10:40:16Z</time>
      </trkpt>
      <trkpt lat="45.94061" lon="5.62515">
        <ele>1007</ele>
        <time>2026-05-12T10:40:17Z</time>
      </trkpt>
      <trkpt lat="45.94058" lon="5.62526">
        <ele>1005.6</ele>
        <time>2026-05-12T10:40:18Z</time>
      </trkpt>
      <trkpt lat="45.9406" lon="5.62538">
        <ele>1004.6</ele>
        <time>2026-05-12T10:40:19Z</time>
      </trkpt>
      <trkpt lat="45.94062" lon="5.6255">
        <ele>1004</ele>
        <time>2026-05-12T10:40:20Z</time>
      </trkpt>
      <trkpt lat="45.9406" lon="5.62563">
        <ele>1003.2</ele>
        <time>2026-05-12T10:40:21Z</time>
      </trkpt>
      <trkpt lat="45.94059" lon="5.62574">
        <ele>1002.6</ele>
        <time>2026-05-12T10:40:22Z</time>
      </trkpt>
      <trkpt lat="45.94059" lon="5.62583">
        <ele>1002</ele>
        <time>2026-05-12T10:40:23Z</time>
      </trkpt>
      <trkpt lat="45.94052" lon="5.62593">
        <ele>1001.6</ele>
        <time>2026-05-12T10:40:24Z</time>
      </trkpt>
      <trkpt lat="45.94049" lon="5.62601">
        <ele>1001</ele>
        <time>2026-05-12T10:40:25Z</time>
      </trkpt>
      <trkpt lat="45.94045" lon="5.6261">
        <ele>1000.2</ele>
        <time>2026-05-12T10:40:26Z</time>
      </trkpt>
      <trkpt lat="45.9404" lon="5.62617">
        <ele>1000.2</ele>
        <time>2026-05-12T10:40:27Z</time>
      </trkpt>
      <trkpt lat="45.94033" lon="5.62621">
        <ele>1000.2</ele>
        <time>2026-05-12T10:40:28Z</time>
      </trkpt>
      <trkpt lat="45.94027" lon="5.62628">
        <ele>1000.2</ele>
        <time>2026-05-12T10:40:29Z</time>
      </trkpt>
      <trkpt lat="45.94024" lon="5.62632">
        <ele>1000.2</ele>
        <time>2026-05-12T10:40:30Z</time>
      </trkpt>
      <trkpt lat="45.94021" lon="5.62638">
        <ele>1000.6</ele>
        <time>2026-05-12T10:40:31Z</time>
      </trkpt>
      <trkpt lat="45.9402" lon="5.62641">
        <ele>1001</ele>
        <time>2026-05-12T10:40:32Z</time>
      </trkpt>
      <trkpt lat="45.94015" lon="5.62645">
        <ele>1001.2</ele>
        <time>2026-05-12T10:40:33Z</time>
      </trkpt>
      <trkpt lat="45.94013" lon="5.62648">
        <ele>1001.6</ele>
        <time>2026-05-12T10:40:34Z</time>
      </trkpt>
      <trkpt lat="45.9401" lon="5.62651">
        <ele>1002</ele>
        <time>2026-05-12T10:40:35Z</time>
      </trkpt>
      <trkpt lat="45.94009" lon="5.62655">
        <ele>1002.8</ele>
        <time>2026-05-12T10:40:36Z</time>
      </trkpt>
      <trkpt lat="45.94005" lon="5.62657">
        <ele>1003.2</ele>
        <time>2026-05-12T10:40:37Z</time>
      </trkpt>
      <trkpt lat="45.94002" lon="5.6266">
        <ele>1003.6</ele>
        <time>2026-05-12T10:40:38Z</time>
      </trkpt>
      <trkpt lat="45.94002" lon="5.62661">
        <ele>1004.2</ele>
        <time>2026-05-12T10:40:39Z</time>
      </trkpt>
      <trkpt lat="45.94003" lon="5.62664">
        <ele>1004.4</ele>
        <time>2026-05-12T10:40:40Z</time>
      </trkpt>
      <trkpt lat="45.94002" lon="5.62666">
        <ele>1005</ele>
        <time>2026-05-12T10:40:41Z</time>
      </trkpt>
      <trkpt lat="45.94001" lon="5.62668">
        <ele>1005.4</ele>
        <time>2026-05-12T10:40:42Z</time>
      </trkpt>
      <trkpt lat="45.94" lon="5.62671">
        <ele>1005.6</ele>
        <time>2026-05-12T10:40:43Z</time>
      </trkpt>
      <trkpt lat="45.93998" lon="5.62674">
        <ele>1005.8</ele>
        <time>2026-05-12T10:40:44Z</time>
      </trkpt>
      <trkpt lat="45.93996" lon="5.62678">
        <ele>1006.2</ele>
        <time>2026-05-12T10:40:45Z</time>
      </trkpt>
      <trkpt lat="45.93994" lon="5.6268">
        <ele>1006.8</ele>
        <time>2026-05-12T10:40:46Z</time>
      </trkpt>
      <trkpt lat="45.93993" lon="5.62683">
        <ele>1007</ele>
        <time>2026-05-12T10:40:47Z</time>
      </trkpt>
      <trkpt lat="45.93991" lon="5.62687">
        <ele>1007</ele>
        <time>2026-05-12T10:40:48Z</time>
      </trkpt>
      <trkpt lat="45.93989" lon="5.6269">
        <ele>1007.2</ele>
        <time>2026-05-12T10:40:49Z</time>
      </trkpt>
      <trkpt lat="45.93988" lon="5.62693">
        <ele>1007.4</ele>
        <time>2026-05-12T10:40:50Z</time>
      </trkpt>
      <trkpt lat="45.93987" lon="5.62697">
        <ele>1007.4</ele>
        <time>2026-05-12T10:40:51Z</time>
      </trkpt>
      <trkpt lat="45.93985" lon="5.627">
        <ele>1007.4</ele>
        <time>2026-05-12T10:40:52Z</time>
      </trkpt>
      <trkpt lat="45.93984" lon="5.62703">
        <ele>1008.2</ele>
        <time>2026-05-12T10:40:53Z</time>
      </trkpt>
      <trkpt lat="45.93983" lon="5.62705">
        <ele>1008.4</ele>
        <time>2026-05-12T10:40:54Z</time>
      </trkpt>
      <trkpt lat="45.93981" lon="5.62708">
        <ele>1008.4</ele>
        <time>2026-05-12T10:40:55Z</time>
      </trkpt>
      <trkpt lat="45.9398" lon="5.62711">
        <ele>1008.8</ele>
        <time>2026-05-12T10:40:56Z</time>
      </trkpt>
      <trkpt lat="45.93979" lon="5.62713">
        <ele>1009</ele>
        <time>2026-05-12T10:40:57Z</time>
      </trkpt>
      <trkpt lat="45.93978" lon="5.62716">
        <ele>1009.2</ele>
        <time>2026-05-12T10:40:58Z</time>
      </trkpt>
      <trkpt lat="45.93977" lon="5.62719">
        <ele>1009.4</ele>
        <time>2026-05-12T10:40:59Z</time>
      </trkpt>
      <trkpt lat="45.93976" lon="5.62723">
        <ele>1009.4</ele>
        <time>2026-05-12T10:41:00Z</time>
      </trkpt>
      <trkpt lat="45.93976" lon="5.62726">
        <ele>1009.8</ele>
        <time>2026-05-12T10:41:01Z</time>
      </trkpt>
      <trkpt lat="45.93975" lon="5.62728">
        <ele>1009.8</ele>
        <time>2026-05-12T10:41:02Z</time>
      </trkpt>
      <trkpt lat="45.93974" lon="5.62731">
        <ele>1010.2</ele>
        <time>2026-05-12T10:41:03Z</time>
      </trkpt>
      <trkpt lat="45.93973" lon="5.62734">
        <ele>1010.2</ele>
        <time>2026-05-12T10:41:04Z</time>
      </trkpt>
      <trkpt lat="45.93971" lon="5.62737">
        <ele>1010.4</ele>
        <time>2026-05-12T10:41:05Z</time>
      </trkpt>
      <trkpt lat="45.93969" lon="5.62739">
        <ele>1010.4</ele>
        <time>2026-05-12T10:41:06Z</time>
      </trkpt>
      <trkpt lat="45.93968" lon="5.62741">
        <ele>1010.8</ele>
        <time>2026-05-12T10:41:07Z</time>
      </trkpt>
      <trkpt lat="45.93967" lon="5.62744">
        <ele>1010.8</ele>
        <time>2026-05-12T10:41:08Z</time>
      </trkpt>
      <trkpt lat="45.93965" lon="5.62746">
        <ele>1011</ele>
        <time>2026-05-12T10:41:09Z</time>
      </trkpt>
      <trkpt lat="45.93964" lon="5.62749">
        <ele>1011</ele>
        <time>2026-05-12T10:41:10Z</time>
      </trkpt>
      <trkpt lat="45.93963" lon="5.62751">
        <ele>1011.4</ele>
        <time>2026-05-12T10:41:11Z</time>
      </trkpt>
      <trkpt lat="45.93962" lon="5.62754">
        <ele>1011.4</ele>
        <time>2026-05-12T10:41:12Z</time>
      </trkpt>
      <trkpt lat="45.9396" lon="5.62757">
        <ele>1011.6</ele>
        <time>2026-05-12T10:41:13Z</time>
      </trkpt>
      <trkpt lat="45.93959" lon="5.62759">
        <ele>1011.6</ele>
        <time>2026-05-12T10:41:14Z</time>
      </trkpt>
      <trkpt lat="45.93958" lon="5.62761">
        <ele>1011.6</ele>
        <time>2026-05-12T10:41:15Z</time>
      </trkpt>
      <trkpt lat="45.93957" lon="5.62764">
        <ele>1011.6</ele>
        <time>2026-05-12T10:41:16Z</time>
      </trkpt>
      <trkpt lat="45.93956" lon="5.62766">
        <ele>1012</ele>
        <time>2026-05-12T10:41:17Z</time>
      </trkpt>
      <trkpt lat="45.93954" lon="5.62769">
        <ele>1012</ele>
        <time>2026-05-12T10:41:18Z</time>
      </trkpt>
      <trkpt lat="45.93953" lon="5.62771">
        <ele>1012.4</ele>
        <time>2026-05-12T10:41:19Z</time>
      </trkpt>
      <trkpt lat="45.93951" lon="5.62773">
        <ele>1012.4</ele>
        <time>2026-05-12T10:41:20Z</time>
      </trkpt>
      <trkpt lat="45.93949" lon="5.62776">
        <ele>1012.6</ele>
        <time>2026-05-12T10:41:21Z</time>
      </trkpt>
      <trkpt lat="45.93947" lon="5.62778">
        <ele>1012.6</ele>
        <time>2026-05-12T10:41:22Z</time>
      </trkpt>
      <trkpt lat="45.93946" lon="5.6278">
        <ele>1012.8</ele>
        <time>2026-05-12T10:41:23Z</time>
      </trkpt>
      <trkpt lat="45.93944" lon="5.62783">
        <ele>1012.8</ele>
        <time>2026-05-12T10:41:24Z</time>
      </trkpt>
      <trkpt lat="45.93943" lon="5.62786">
        <ele>1013</ele>
        <time>2026-05-12T10:41:25Z</time>
      </trkpt>
      <trkpt lat="45.93942" lon="5.62789">
        <ele>1013</ele>
        <time>2026-05-12T10:41:26Z</time>
      </trkpt>
      <trkpt lat="45.9394" lon="5.62792">
        <ele>1013</ele>
        <time>2026-05-12T10:41:27Z</time>
      </trkpt>
      <trkpt lat="45.93938" lon="5.62794">
        <ele>1013</ele>
        <time>2026-05-12T10:41:28Z</time>
      </trkpt>
      <trkpt lat="45.93935" lon="5.62796">
        <ele>1013.2</ele>
        <time>2026-05-12T10:41:29Z</time>
      </trkpt>
      <trkpt lat="45.93932" lon="5.62798">
        <ele>1013.2</ele>
        <time>2026-05-12T10:41:30Z</time>
      </trkpt>
      <trkpt lat="45.9393" lon="5.628">
        <ele>1013.6</ele>
        <time>2026-05-12T10:41:31Z</time>
      </trkpt>
      <trkpt lat="45.93929" lon="5.62802">
        <ele>1013.6</ele>
        <time>2026-05-12T10:41:32Z</time>
      </trkpt>
      <trkpt lat="45.93929" lon="5.62802">
        <ele>1014</ele>
        <time>2026-05-12T10:41:33Z</time>
      </trkpt>
      <trkpt lat="45.93928" lon="5.62805">
        <ele>1014</ele>
        <time>2026-05-12T10:41:34Z</time>
      </trkpt>
      <trkpt lat="45.93927" lon="5.62808">
        <ele>1014</ele>
        <time>2026-05-12T10:41:35Z</time>
      </trkpt>
      <trkpt lat="45.93926" lon="5.62811">
        <ele>1014</ele>
        <time>2026-05-12T10:41:36Z</time>
      </trkpt>
      <trkpt lat="45.93926" lon="5.62814">
        <ele>1014</ele>
        <time>2026-05-12T10:41:37Z</time>
      </trkpt>
      <trkpt lat="45.93924" lon="5.62817">
        <ele>1014</ele>
        <time>2026-05-12T10:41:38Z</time>
      </trkpt>
      <trkpt lat="45.93922" lon="5.6282">
        <ele>1014</ele>
        <time>2026-05-12T10:41:39Z</time>
      </trkpt>
      <trkpt lat="45.9392" lon="5.62822">
        <ele>1014.4</ele>
        <time>2026-05-12T10:41:40Z</time>
      </trkpt>
      <trkpt lat="45.93919" lon="5.62825">
        <ele>1014.6</ele>
        <time>2026-05-12T10:41:41Z</time>
      </trkpt>
      <trkpt lat="45.93918" lon="5.62828">
        <ele>1014.6</ele>
        <time>2026-05-12T10:41:42Z</time>
      </trkpt>
      <trkpt lat="45.93918" lon="5.62832">
        <ele>1014.6</ele>
        <time>2026-05-12T10:41:43Z</time>
      </trkpt>
      <trkpt lat="45.93917" lon="5.62834">
        <ele>1014.6</ele>
        <time>2026-05-12T10:41:44Z</time>
      </trkpt>
      <trkpt lat="45.93916" lon="5.62836">
        <ele>1014.6</ele>
        <time>2026-05-12T10:41:45Z</time>
      </trkpt>
      <trkpt lat="45.93915" lon="5.6284">
        <ele>1014.8</ele>
        <time>2026-05-12T10:41:46Z</time>
      </trkpt>
      <trkpt lat="45.93916" lon="5.62844">
        <ele>1014.8</ele>
        <time>2026-05-12T10:41:47Z</time>
      </trkpt>
      <trkpt lat="45.93916" lon="5.62847">
        <ele>1014.8</ele>
        <time>2026-05-12T10:41:48Z</time>
      </trkpt>
      <trkpt lat="45.93916" lon="5.62851">
        <ele>1015</ele>
        <time>2026-05-12T10:41:49Z</time>
      </trkpt>
      <trkpt lat="45.93915" lon="5.62855">
        <ele>1015.2</ele>
        <time>2026-05-12T10:41:50Z</time>
      </trkpt>
      <trkpt lat="45.93914" lon="5.62858">
        <ele>1015.6</ele>
        <time>2026-05-12T10:41:51Z</time>
      </trkpt>
      <trkpt lat="45.93913" lon="5.62862">
        <ele>1015.8</ele>
        <time>2026-05-12T10:41:52Z</time>
      </trkpt>
      <trkpt lat="45.93912" lon="5.62865">
        <ele>1016</ele>
        <time>2026-05-12T10:41:53Z</time>
      </trkpt>
      <trkpt lat="45.93911" lon="5.62868">
        <ele>1016</ele>
        <time>2026-05-12T10:41:54Z</time>
      </trkpt>
      <trkpt lat="45.93911" lon="5.62872">
        <ele>1015.8</ele>
        <time>2026-05-12T10:41:55Z</time>
      </trkpt>
      <trkpt lat="45.9391" lon="5.62875">
        <ele>1016.2</ele>
        <time>2026-05-12T10:41:56Z</time>
      </trkpt>
      <trkpt lat="45.9391" lon="5.62878">
        <ele>1016.4</ele>
        <time>2026-05-12T10:41:57Z</time>
      </trkpt>
      <trkpt lat="45.93909" lon="5.62881">
        <ele>1016.6</ele>
        <time>2026-05-12T10:41:58Z</time>
      </trkpt>
      <trkpt lat="45.93909" lon="5.62884">
        <ele>1016.6</ele>
        <time>2026-05-12T10:41:59Z</time>
      </trkpt>
      <trkpt lat="45.93909" lon="5.62888">
        <ele>1017</ele>
        <time>2026-05-12T10:42:00Z</time>
      </trkpt>
      <trkpt lat="45.93909" lon="5.62891">
        <ele>1017</ele>
        <time>2026-05-12T10:42:01Z</time>
      </trkpt>
      <trkpt lat="45.93908" lon="5.62893">
        <ele>1017.2</ele>
        <time>2026-05-12T10:42:02Z</time>
      </trkpt>
      <trkpt lat="45.93906" lon="5.62896">
        <ele>1017.4</ele>
        <time>2026-05-12T10:42:03Z</time>
      </trkpt>
      <trkpt lat="45.93905" lon="5.62899">
        <ele>1017.4</ele>
        <time>2026-05-12T10:42:04Z</time>
      </trkpt>
      <trkpt lat="45.93904" lon="5.62902">
        <ele>1017.8</ele>
        <time>2026-05-12T10:42:05Z</time>
      </trkpt>
      <trkpt lat="45.93903" lon="5.62905">
        <ele>1018</ele>
        <time>2026-05-12T10:42:06Z</time>
      </trkpt>
      <trkpt lat="45.93904" lon="5.62909">
        <ele>1018.4</ele>
        <time>2026-05-12T10:42:07Z</time>
      </trkpt>
      <trkpt lat="45.93903" lon="5.62912">
        <ele>1018.4</ele>
        <time>2026-05-12T10:42:08Z</time>
      </trkpt>
      <trkpt lat="45.93903" lon="5.62916">
        <ele>1018.4</ele>
        <time>2026-05-12T10:42:09Z</time>
      </trkpt>
      <trkpt lat="45.93903" lon="5.62919">
        <ele>1018.6</ele>
        <time>2026-05-12T10:42:10Z</time>
      </trkpt>
      <trkpt lat="45.93902" lon="5.62923">
        <ele>1018.6</ele>
        <time>2026-05-12T10:42:11Z</time>
      </trkpt>
      <trkpt lat="45.93902" lon="5.62927">
        <ele>1018.6</ele>
        <time>2026-05-12T10:42:12Z</time>
      </trkpt>
      <trkpt lat="45.93902" lon="5.6293">
        <ele>1018.6</ele>
        <time>2026-05-12T10:42:13Z</time>
      </trkpt>
      <trkpt lat="45.93902" lon="5.62932">
        <ele>1018.8</ele>
        <time>2026-05-12T10:42:14Z</time>
      </trkpt>
      <trkpt lat="45.93902" lon="5.62936">
        <ele>1019.2</ele>
        <time>2026-05-12T10:42:15Z</time>
      </trkpt>
      <trkpt lat="45.93902" lon="5.6294">
        <ele>1019.2</ele>
        <time>2026-05-12T10:42:16Z</time>
      </trkpt>
      <trkpt lat="45.93902" lon="5.62944">
        <ele>1019.2</ele>
        <time>2026-05-12T10:42:17Z</time>
      </trkpt>
      <trkpt lat="45.93901" lon="5.62948">
        <ele>1019.2</ele>
        <time>2026-05-12T10:42:18Z</time>
      </trkpt>
      <trkpt lat="45.93899" lon="5.62952">
        <ele>1019.2</ele>
        <time>2026-05-12T10:42:19Z</time>
      </trkpt>
      <trkpt lat="45.93898" lon="5.62955">
        <ele>1019.2</ele>
        <time>2026-05-12T10:42:20Z</time>
      </trkpt>
      <trkpt lat="45.93897" lon="5.62959">
        <ele>1019.2</ele>
        <time>2026-05-12T10:42:21Z</time>
      </trkpt>
      <trkpt lat="45.93897" lon="5.62963">
        <ele>1019.2</ele>
        <time>2026-05-12T10:42:22Z</time>
      </trkpt>
      <trkpt lat="45.93896" lon="5.62967">
        <ele>1019.2</ele>
        <time>2026-05-12T10:42:23Z</time>
      </trkpt>
      <trkpt lat="45.93896" lon="5.6297">
        <ele>1019.2</ele>
        <time>2026-05-12T10:42:24Z</time>
      </trkpt>
      <trkpt lat="45.93896" lon="5.62974">
        <ele>1019.2</ele>
        <time>2026-05-12T10:42:25Z</time>
      </trkpt>
      <trkpt lat="45.93896" lon="5.62978">
        <ele>1019.2</ele>
        <time>2026-05-12T10:42:26Z</time>
      </trkpt>
      <trkpt lat="45.93897" lon="5.62982">
        <ele>1019.2</ele>
        <time>2026-05-12T10:42:27Z</time>
      </trkpt>
      <trkpt lat="45.93898" lon="5.62986">
        <ele>1019.2</ele>
        <time>2026-05-12T10:42:28Z</time>
      </trkpt>
      <trkpt lat="45.93898" lon="5.6299">
        <ele>1019.2</ele>
        <time>2026-05-12T10:42:29Z</time>
      </trkpt>
      <trkpt lat="45.93898" lon="5.62994">
        <ele>1019.2</ele>
        <time>2026-05-12T10:42:30Z</time>
      </trkpt>
      <trkpt lat="45.93898" lon="5.62998">
        <ele>1019.2</ele>
        <time>2026-05-12T10:42:31Z</time>
      </trkpt>
      <trkpt lat="45.93897" lon="5.63003">
        <ele>1018.8</ele>
        <time>2026-05-12T10:42:32Z</time>
      </trkpt>
      <trkpt lat="45.93895" lon="5.63007">
        <ele>1019</ele>
        <time>2026-05-12T10:42:33Z</time>
      </trkpt>
      <trkpt lat="45.93894" lon="5.63012">
        <ele>1019</ele>
        <time>2026-05-12T10:42:34Z</time>
      </trkpt>
      <trkpt lat="45.93895" lon="5.63016">
        <ele>1018.8</ele>
        <time>2026-05-12T10:42:35Z</time>
      </trkpt>
      <trkpt lat="45.93895" lon="5.6302">
        <ele>1018.8</ele>
        <time>2026-05-12T10:42:36Z</time>
      </trkpt>
      <trkpt lat="45.93896" lon="5.63024">
        <ele>1019</ele>
        <time>2026-05-12T10:42:37Z</time>
      </trkpt>
      <trkpt lat="45.93896" lon="5.63029">
        <ele>1018</ele>
        <time>2026-05-12T10:42:38Z</time>
      </trkpt>
      <trkpt lat="45.93895" lon="5.63033">
        <ele>1018.4</ele>
        <time>2026-05-12T10:42:39Z</time>
      </trkpt>
      <trkpt lat="45.93894" lon="5.63036">
        <ele>1018.6</ele>
        <time>2026-05-12T10:42:40Z</time>
      </trkpt>
      <trkpt lat="45.93894" lon="5.6304">
        <ele>1019</ele>
        <time>2026-05-12T10:42:41Z</time>
      </trkpt>
      <trkpt lat="45.93894" lon="5.63043">
        <ele>1019</ele>
        <time>2026-05-12T10:42:42Z</time>
      </trkpt>
      <trkpt lat="45.93894" lon="5.63046">
        <ele>1019.2</ele>
        <time>2026-05-12T10:42:43Z</time>
      </trkpt>
      <trkpt lat="45.93895" lon="5.6305">
        <ele>1019.2</ele>
        <time>2026-05-12T10:42:44Z</time>
      </trkpt>
      <trkpt lat="45.93895" lon="5.63053">
        <ele>1019.2</ele>
        <time>2026-05-12T10:42:45Z</time>
      </trkpt>
      <trkpt lat="45.93893" lon="5.63056">
        <ele>1019.2</ele>
        <time>2026-05-12T10:42:46Z</time>
      </trkpt>
      <trkpt lat="45.9389" lon="5.63057">
        <ele>1019.4</ele>
        <time>2026-05-12T10:42:47Z</time>
      </trkpt>
      <trkpt lat="45.93887" lon="5.63058">
        <ele>1019.6</ele>
        <time>2026-05-12T10:42:48Z</time>
      </trkpt>
      <trkpt lat="45.93884" lon="5.63058">
        <ele>1019.8</ele>
        <time>2026-05-12T10:42:49Z</time>
      </trkpt>
      <trkpt lat="45.93881" lon="5.63057">
        <ele>1019.8</ele>
        <time>2026-05-12T10:42:50Z</time>
      </trkpt>
      <trkpt lat="45.9388" lon="5.63057">
        <ele>1019.8</ele>
        <time>2026-05-12T10:42:51Z</time>
      </trkpt>
      <trkpt lat="45.93878" lon="5.63058">
        <ele>1019.8</ele>
        <time>2026-05-12T10:42:52Z</time>
      </trkpt>
      <trkpt lat="45.93875" lon="5.63059">
        <ele>1019.8</ele>
        <time>2026-05-12T10:42:53Z</time>
      </trkpt>
      <trkpt lat="45.93871" lon="5.63059">
        <ele>1019.8</ele>
        <time>2026-05-12T10:42:54Z</time>
      </trkpt>
      <trkpt lat="45.93868" lon="5.63059">
        <ele>1019.8</ele>
        <time>2026-05-12T10:42:55Z</time>
      </trkpt>
      <trkpt lat="45.93866" lon="5.63058">
        <ele>1019.4</ele>
        <time>2026-05-12T10:42:56Z</time>
      </trkpt>
      <trkpt lat="45.93863" lon="5.63057">
        <ele>1019</ele>
        <time>2026-05-12T10:42:57Z</time>
      </trkpt>
      <trkpt lat="45.93859" lon="5.63055">
        <ele>1018.6</ele>
        <time>2026-05-12T10:42:58Z</time>
      </trkpt>
      <trkpt lat="45.93855" lon="5.63053">
        <ele>1018</ele>
        <time>2026-05-12T10:42:59Z</time>
      </trkpt>
      <trkpt lat="45.93851" lon="5.63052">
        <ele>1017.4</ele>
        <time>2026-05-12T10:43:00Z</time>
      </trkpt>
      <trkpt lat="45.93847" lon="5.63051">
        <ele>1017</ele>
        <time>2026-05-12T10:43:01Z</time>
      </trkpt>
      <trkpt lat="45.93844" lon="5.6305">
        <ele>1017</ele>
        <time>2026-05-12T10:43:02Z</time>
      </trkpt>
      <trkpt lat="45.9384" lon="5.63051">
        <ele>1016.6</ele>
        <time>2026-05-12T10:43:03Z</time>
      </trkpt>
      <trkpt lat="45.93836" lon="5.63053">
        <ele>1016.6</ele>
        <time>2026-05-12T10:43:04Z</time>
      </trkpt>
      <trkpt lat="45.93832" lon="5.63055">
        <ele>1016.2</ele>
        <time>2026-05-12T10:43:05Z</time>
      </trkpt>
      <trkpt lat="45.93827" lon="5.6306">
        <ele>1015.8</ele>
        <time>2026-05-12T10:43:06Z</time>
      </trkpt>
      <trkpt lat="45.93822" lon="5.63059">
        <ele>1015</ele>
        <time>2026-05-12T10:43:07Z</time>
      </trkpt>
      <trkpt lat="45.93818" lon="5.63059">
        <ele>1014.4</ele>
        <time>2026-05-12T10:43:08Z</time>
      </trkpt>
      <trkpt lat="45.93814" lon="5.63061">
        <ele>1013.8</ele>
        <time>2026-05-12T10:43:09Z</time>
      </trkpt>
      <trkpt lat="45.93807" lon="5.63063">
        <ele>1013.2</ele>
        <time>2026-05-12T10:43:10Z</time>
      </trkpt>
      <trkpt lat="45.93803" lon="5.6307">
        <ele>1012.4</ele>
        <time>2026-05-12T10:43:11Z</time>
      </trkpt>
      <trkpt lat="45.93798" lon="5.63074">
        <ele>1012</ele>
        <time>2026-05-12T10:43:12Z</time>
      </trkpt>
      <trkpt lat="45.93795" lon="5.63079">
        <ele>1011.6</ele>
        <time>2026-05-12T10:43:13Z</time>
      </trkpt>
      <trkpt lat="45.9379" lon="5.63081">
        <ele>1011.6</ele>
        <time>2026-05-12T10:43:14Z</time>
      </trkpt>
      <trkpt lat="45.93788" lon="5.63087">
        <ele>1011.6</ele>
        <time>2026-05-12T10:43:15Z</time>
      </trkpt>
      <trkpt lat="45.93785" lon="5.63088">
        <ele>1011.2</ele>
        <time>2026-05-12T10:43:16Z</time>
      </trkpt>
      <trkpt lat="45.93783" lon="5.63089">
        <ele>1011.2</ele>
        <time>2026-05-12T10:43:17Z</time>
      </trkpt>
      <trkpt lat="45.9378" lon="5.6309">
        <ele>1010.4</ele>
        <time>2026-05-12T10:43:18Z</time>
      </trkpt>
      <trkpt lat="45.93774" lon="5.63092">
        <ele>1010</ele>
        <time>2026-05-12T10:43:19Z</time>
      </trkpt>
      <trkpt lat="45.9377" lon="5.63093">
        <ele>1010</ele>
        <time>2026-05-12T10:43:20Z</time>
      </trkpt>
      <trkpt lat="45.93766" lon="5.63095">
        <ele>1010</ele>
        <time>2026-05-12T10:43:21Z</time>
      </trkpt>
      <trkpt lat="45.93761" lon="5.63098">
        <ele>1010.4</ele>
        <time>2026-05-12T10:43:22Z</time>
      </trkpt>
      <trkpt lat="45.93758" lon="5.63103">
        <ele>1009.2</ele>
        <time>2026-05-12T10:43:23Z</time>
      </trkpt>
      <trkpt lat="45.93756" lon="5.63105">
        <ele>1009.2</ele>
        <time>2026-05-12T10:43:24Z</time>
      </trkpt>
      <trkpt lat="45.9375" lon="5.6311">
        <ele>1008.8</ele>
        <time>2026-05-12T10:43:25Z</time>
      </trkpt>
      <trkpt lat="45.93744" lon="5.63114">
        <ele>1008</ele>
        <time>2026-05-12T10:43:26Z</time>
      </trkpt>
      <trkpt lat="45.93739" lon="5.63118">
        <ele>1008.8</ele>
        <time>2026-05-12T10:43:27Z</time>
      </trkpt>
      <trkpt lat="45.93738" lon="5.63122">
        <ele>1008.6</ele>
        <time>2026-05-12T10:43:28Z</time>
      </trkpt>
      <trkpt lat="45.93734" lon="5.63125">
        <ele>1008.6</ele>
        <time>2026-05-12T10:43:29Z</time>
      </trkpt>
      <trkpt lat="45.93733" lon="5.63125">
        <ele>1008.6</ele>
        <time>2026-05-12T10:43:30Z</time>
      </trkpt>
      <trkpt lat="45.93732" lon="5.63129">
        <ele>1008.6</ele>
        <time>2026-05-12T10:43:31Z</time>
      </trkpt>
      <trkpt lat="45.93732" lon="5.63131">
        <ele>1008.8</ele>
        <time>2026-05-12T10:43:32Z</time>
      </trkpt>
      <trkpt lat="45.93732" lon="5.63134">
        <ele>1008.8</ele>
        <time>2026-05-12T10:43:33Z</time>
      </trkpt>
      <trkpt lat="45.93732" lon="5.63138">
        <ele>1008.8</ele>
        <time>2026-05-12T10:43:34Z</time>
      </trkpt>
      <trkpt lat="45.93732" lon="5.63141">
        <ele>1008.8</ele>
        <time>2026-05-12T10:43:35Z</time>
      </trkpt>
      <trkpt lat="45.9373" lon="5.63146">
        <ele>1008.6</ele>
        <time>2026-05-12T10:43:36Z</time>
      </trkpt>
      <trkpt lat="45.9373" lon="5.63147">
        <ele>1008.2</ele>
        <time>2026-05-12T10:43:37Z</time>
      </trkpt>
      <trkpt lat="45.93728" lon="5.63147">
        <ele>1008.2</ele>
        <time>2026-05-12T10:43:38Z</time>
      </trkpt>
      <trkpt lat="45.93726" lon="5.63148">
        <ele>1008</ele>
        <time>2026-05-12T10:43:41Z</time>
      </trkpt>
      <trkpt lat="45.93724" lon="5.63148">
        <ele>1007.8</ele>
        <time>2026-05-12T10:43:42Z</time>
      </trkpt>
      <trkpt lat="45.93723" lon="5.63149">
        <ele>1007.8</ele>
        <time>2026-05-12T10:43:43Z</time>
      </trkpt>
      <trkpt lat="45.93723" lon="5.6315">
        <ele>1007.8</ele>
        <time>2026-05-12T10:43:44Z</time>
      </trkpt>
      <trkpt lat="45.93721" lon="5.63149">
        <ele>1007.8</ele>
        <time>2026-05-12T10:44:18Z</time>
      </trkpt>
      <trkpt lat="45.9372" lon="5.63152">
        <ele>1007.8</ele>
        <time>2026-05-12T10:44:19Z</time>
      </trkpt>
      <trkpt lat="45.9372" lon="5.63156">
        <ele>1006.8</ele>
        <time>2026-05-12T10:44:20Z</time>
      </trkpt>
      <trkpt lat="45.93719" lon="5.6316">
        <ele>1006.6</ele>
        <time>2026-05-12T10:44:21Z</time>
      </trkpt>
      <trkpt lat="45.93718" lon="5.63164">
        <ele>1006.2</ele>
        <time>2026-05-12T10:44:22Z</time>
      </trkpt>
      <trkpt lat="45.93717" lon="5.63169">
        <ele>1005.4</ele>
        <time>2026-05-12T10:44:23Z</time>
      </trkpt>
      <trkpt lat="45.93716" lon="5.63176">
        <ele>1004.2</ele>
        <time>2026-05-12T10:44:24Z</time>
      </trkpt>
      <trkpt lat="45.93716" lon="5.63183">
        <ele>1003.8</ele>
        <time>2026-05-12T10:44:25Z</time>
      </trkpt>
      <trkpt lat="45.93715" lon="5.63197">
        <ele>1003</ele>
        <time>2026-05-12T10:44:26Z</time>
      </trkpt>
      <trkpt lat="45.93712" lon="5.63204">
        <ele>1002.6</ele>
        <time>2026-05-12T10:44:27Z</time>
      </trkpt>
      <trkpt lat="45.93711" lon="5.63208">
        <ele>1001.8</ele>
        <time>2026-05-12T10:44:28Z</time>
      </trkpt>
      <trkpt lat="45.93712" lon="5.63214">
        <ele>1001</ele>
        <time>2026-05-12T10:44:29Z</time>
      </trkpt>
      <trkpt lat="45.93712" lon="5.63221">
        <ele>1000</ele>
        <time>2026-05-12T10:44:30Z</time>
      </trkpt>
      <trkpt lat="45.93712" lon="5.63224">
        <ele>999.2</ele>
        <time>2026-05-12T10:44:31Z</time>
      </trkpt>
      <trkpt lat="45.93711" lon="5.63231">
        <ele>998.6</ele>
        <time>2026-05-12T10:44:32Z</time>
      </trkpt>
      <trkpt lat="45.9371" lon="5.63235">
        <ele>997.4</ele>
        <time>2026-05-12T10:44:33Z</time>
      </trkpt>
      <trkpt lat="45.93709" lon="5.63238">
        <ele>996.2</ele>
        <time>2026-05-12T10:44:34Z</time>
      </trkpt>
      <trkpt lat="45.93707" lon="5.63242">
        <ele>995.4</ele>
        <time>2026-05-12T10:44:35Z</time>
      </trkpt>
      <trkpt lat="45.93702" lon="5.63248">
        <ele>994.8</ele>
        <time>2026-05-12T10:44:36Z</time>
      </trkpt>
      <trkpt lat="45.93699" lon="5.63247">
        <ele>994.8</ele>
        <time>2026-05-12T10:44:37Z</time>
      </trkpt>
      <trkpt lat="45.937" lon="5.63249">
        <ele>994</ele>
        <time>2026-05-12T10:44:38Z</time>
      </trkpt>
      <trkpt lat="45.93696" lon="5.63249">
        <ele>992.8</ele>
        <time>2026-05-12T10:44:39Z</time>
      </trkpt>
      <trkpt lat="45.93692" lon="5.6325">
        <ele>992.2</ele>
        <time>2026-05-12T10:44:40Z</time>
      </trkpt>
      <trkpt lat="45.93689" lon="5.6325">
        <ele>991.6</ele>
        <time>2026-05-12T10:44:41Z</time>
      </trkpt>
      <trkpt lat="45.93688" lon="5.63254">
        <ele>991.2</ele>
        <time>2026-05-12T10:44:42Z</time>
      </trkpt>
      <trkpt lat="45.93684" lon="5.63256">
        <ele>991.2</ele>
        <time>2026-05-12T10:44:43Z</time>
      </trkpt>
      <trkpt lat="45.93682" lon="5.63255">
        <ele>990.4</ele>
        <time>2026-05-12T10:44:44Z</time>
      </trkpt>
      <trkpt lat="45.93677" lon="5.63255">
        <ele>989.6</ele>
        <time>2026-05-12T10:44:45Z</time>
      </trkpt>
      <trkpt lat="45.93673" lon="5.63255">
        <ele>989</ele>
        <time>2026-05-12T10:44:46Z</time>
      </trkpt>
      <trkpt lat="45.93671" lon="5.63251">
        <ele>988.2</ele>
        <time>2026-05-12T10:44:47Z</time>
      </trkpt>
      <trkpt lat="45.93667" lon="5.63248">
        <ele>987.8</ele>
        <time>2026-05-12T10:44:48Z</time>
      </trkpt>
      <trkpt lat="45.93661" lon="5.6325">
        <ele>987.2</ele>
        <time>2026-05-12T10:44:49Z</time>
      </trkpt>
      <trkpt lat="45.9366" lon="5.63251">
        <ele>986.4</ele>
        <time>2026-05-12T10:44:50Z</time>
      </trkpt>
      <trkpt lat="45.93659" lon="5.63253">
        <ele>985.8</ele>
        <time>2026-05-12T10:44:51Z</time>
      </trkpt>
      <trkpt lat="45.93658" lon="5.63253">
        <ele>985.4</ele>
        <time>2026-05-12T10:44:52Z</time>
      </trkpt>
      <trkpt lat="45.93657" lon="5.63253">
        <ele>985</ele>
        <time>2026-05-12T10:44:53Z</time>
      </trkpt>
      <trkpt lat="45.93657" lon="5.63253">
        <ele>985</ele>
        <time>2026-05-12T10:44:54Z</time>
      </trkpt>
      <trkpt lat="45.93657" lon="5.63253">
        <ele>984.8</ele>
        <time>2026-05-12T10:44:55Z</time>
      </trkpt>
      <trkpt lat="45.93657" lon="5.63253">
        <ele>984.8</ele>
        <time>2026-05-12T10:44:56Z</time>
      </trkpt>
      <trkpt lat="45.93657" lon="5.63253">
        <ele>984.8</ele>
        <time>2026-05-12T10:44:57Z</time>
      </trkpt>
      <trkpt lat="45.93655" lon="5.6325">
        <ele>984.4</ele>
        <time>2026-05-12T10:45:07Z</time>
      </trkpt>
      <trkpt lat="45.93654" lon="5.6325">
        <ele>984</ele>
        <time>2026-05-12T10:45:08Z</time>
      </trkpt>
      <trkpt lat="45.93653" lon="5.6325">
        <ele>984</ele>
        <time>2026-05-12T10:45:09Z</time>
      </trkpt>
      <trkpt lat="45.93652" lon="5.6325">
        <ele>983.6</ele>
        <time>2026-05-12T10:45:10Z</time>
      </trkpt>
      <trkpt lat="45.93651" lon="5.6325">
        <ele>983.4</ele>
        <time>2026-05-12T10:45:11Z</time>
      </trkpt>
      <trkpt lat="45.93651" lon="5.6325">
        <ele>983.4</ele>
        <time>2026-05-12T10:45:12Z</time>
      </trkpt>
      <trkpt lat="45.9365" lon="5.63251">
        <ele>983.2</ele>
        <time>2026-05-12T10:45:13Z</time>
      </trkpt>
      <trkpt lat="45.93649" lon="5.63251">
        <ele>982.8</ele>
        <time>2026-05-12T10:45:14Z</time>
      </trkpt>
      <trkpt lat="45.93648" lon="5.63252">
        <ele>982.6</ele>
        <time>2026-05-12T10:45:15Z</time>
      </trkpt>
      <trkpt lat="45.93647" lon="5.63252">
        <ele>982.4</ele>
        <time>2026-05-12T10:45:16Z</time>
      </trkpt>
      <trkpt lat="45.93646" lon="5.63252">
        <ele>982</ele>
        <time>2026-05-12T10:45:17Z</time>
      </trkpt>
      <trkpt lat="45.93645" lon="5.63252">
        <ele>982</ele>
        <time>2026-05-12T10:45:18Z</time>
      </trkpt>
      <trkpt lat="45.93644" lon="5.63251">
        <ele>981.8</ele>
        <time>2026-05-12T10:45:19Z</time>
      </trkpt>
      <trkpt lat="45.93644" lon="5.63251">
        <ele>981.8</ele>
        <time>2026-05-12T10:45:20Z</time>
      </trkpt>
      <trkpt lat="45.93644" lon="5.6325">
        <ele>981.6</ele>
        <time>2026-05-12T10:45:21Z</time>
      </trkpt>
      <trkpt lat="45.93643" lon="5.6325">
        <ele>981.6</ele>
        <time>2026-05-12T10:45:22Z</time>
      </trkpt>
      <trkpt lat="45.93643" lon="5.6325">
        <ele>981.6</ele>
        <time>2026-05-12T10:45:23Z</time>
      </trkpt>
      <trkpt lat="45.93642" lon="5.6325">
        <ele>981.2</ele>
        <time>2026-05-12T10:45:24Z</time>
      </trkpt>
      <trkpt lat="45.93642" lon="5.63249">
        <ele>981.2</ele>
        <time>2026-05-12T10:45:25Z</time>
      </trkpt>
      <trkpt lat="45.93642" lon="5.63249">
        <ele>980.8</ele>
        <time>2026-05-12T10:45:26Z</time>
      </trkpt>
      <trkpt lat="45.93641" lon="5.63249">
        <ele>980.6</ele>
        <time>2026-05-12T10:45:27Z</time>
      </trkpt>
      <trkpt lat="45.9364" lon="5.63248">
        <ele>980.6</ele>
        <time>2026-05-12T10:45:28Z</time>
      </trkpt>
      <trkpt lat="45.9364" lon="5.63248">
        <ele>980.2</ele>
        <time>2026-05-12T10:45:29Z</time>
      </trkpt>
      <trkpt lat="45.93639" lon="5.63247">
        <ele>980.2</ele>
        <time>2026-05-12T10:45:30Z</time>
      </trkpt>
      <trkpt lat="45.93638" lon="5.63247">
        <ele>979.8</ele>
        <time>2026-05-12T10:45:31Z</time>
      </trkpt>
      <trkpt lat="45.93638" lon="5.63246">
        <ele>979.8</ele>
        <time>2026-05-12T10:45:32Z</time>
      </trkpt>
      <trkpt lat="45.93637" lon="5.63246">
        <ele>979.6</ele>
        <time>2026-05-12T10:45:33Z</time>
      </trkpt>
      <trkpt lat="45.93637" lon="5.63246">
        <ele>979.4</ele>
        <time>2026-05-12T10:45:34Z</time>
      </trkpt>
      <trkpt lat="45.93637" lon="5.63246">
        <ele>979.2</ele>
        <time>2026-05-12T10:45:35Z</time>
      </trkpt>
      <trkpt lat="45.93636" lon="5.63245">
        <ele>979.2</ele>
        <time>2026-05-12T10:45:36Z</time>
      </trkpt>
      <trkpt lat="45.93635" lon="5.63245">
        <ele>979.2</ele>
        <time>2026-05-12T10:45:37Z</time>
      </trkpt>
      <trkpt lat="45.93635" lon="5.63245">
        <ele>979.2</ele>
        <time>2026-05-12T10:45:38Z</time>
      </trkpt>
      <trkpt lat="45.93635" lon="5.63245">
        <ele>979.2</ele>
        <time>2026-05-12T10:45:39Z</time>
      </trkpt>
      <trkpt lat="45.93634" lon="5.63245">
        <ele>978.8</ele>
        <time>2026-05-12T10:45:40Z</time>
      </trkpt>
      <trkpt lat="45.93632" lon="5.63246">
        <ele>977</ele>
        <time>2026-05-12T10:46:02Z</time>
      </trkpt>
      <trkpt lat="45.93631" lon="5.63246">
        <ele>977</ele>
        <time>2026-05-12T10:46:03Z</time>
      </trkpt>
      <trkpt lat="45.9363" lon="5.63247">
        <ele>976.8</ele>
        <time>2026-05-12T10:46:09Z</time>
      </trkpt>
      <trkpt lat="45.93629" lon="5.63247">
        <ele>976.6</ele>
        <time>2026-05-12T10:46:10Z</time>
      </trkpt>
      <trkpt lat="45.93628" lon="5.63247">
        <ele>976.2</ele>
        <time>2026-05-12T10:46:11Z</time>
      </trkpt>
      <trkpt lat="45.93628" lon="5.63247">
        <ele>976.2</ele>
        <time>2026-05-12T10:46:12Z</time>
      </trkpt>
      <trkpt lat="45.93627" lon="5.63248">
        <ele>976</ele>
        <time>2026-05-12T10:46:13Z</time>
      </trkpt>
      <trkpt lat="45.93626" lon="5.63248">
        <ele>976</ele>
        <time>2026-05-12T10:46:14Z</time>
      </trkpt>
      <trkpt lat="45.93625" lon="5.63249">
        <ele>976</ele>
        <time>2026-05-12T10:46:15Z</time>
      </trkpt>
      <trkpt lat="45.93625" lon="5.63249">
        <ele>975.8</ele>
        <time>2026-05-12T10:46:16Z</time>
      </trkpt>
      <trkpt lat="45.93625" lon="5.63249">
        <ele>975.4</ele>
        <time>2026-05-12T10:46:20Z</time>
      </trkpt>
      <trkpt lat="45.93625" lon="5.63249">
        <ele>975.4</ele>
        <time>2026-05-12T10:46:21Z</time>
      </trkpt>
      <trkpt lat="45.93625" lon="5.6325">
        <ele>975.4</ele>
        <time>2026-05-12T10:46:22Z</time>
      </trkpt>
      <trkpt lat="45.93624" lon="5.63251">
        <ele>975.4</ele>
        <time>2026-05-12T10:46:23Z</time>
      </trkpt>
      <trkpt lat="45.93622" lon="5.63252">
        <ele>975</ele>
        <time>2026-05-12T10:46:24Z</time>
      </trkpt>
      <trkpt lat="45.93621" lon="5.63254">
        <ele>974.6</ele>
        <time>2026-05-12T10:46:25Z</time>
      </trkpt>
      <trkpt lat="45.93618" lon="5.63257">
        <ele>974.4</ele>
        <time>2026-05-12T10:46:26Z</time>
      </trkpt>
      <trkpt lat="45.93616" lon="5.6326">
        <ele>974</ele>
        <time>2026-05-12T10:46:27Z</time>
      </trkpt>
      <trkpt lat="45.93614" lon="5.63264">
        <ele>974.2</ele>
        <time>2026-05-12T10:46:28Z</time>
      </trkpt>
      <trkpt lat="45.93609" lon="5.63271">
        <ele>973.4</ele>
        <time>2026-05-12T10:46:29Z</time>
      </trkpt>
      <trkpt lat="45.93606" lon="5.63275">
        <ele>973.2</ele>
        <time>2026-05-12T10:46:30Z</time>
      </trkpt>
      <trkpt lat="45.93603" lon="5.63279">
        <ele>972.6</ele>
        <time>2026-05-12T10:46:31Z</time>
      </trkpt>
      <trkpt lat="45.93599" lon="5.63282">
        <ele>972.6</ele>
        <time>2026-05-12T10:46:32Z</time>
      </trkpt>
      <trkpt lat="45.93596" lon="5.63284">
        <ele>972.6</ele>
        <time>2026-05-12T10:46:33Z</time>
      </trkpt>
      <trkpt lat="45.93596" lon="5.63287">
        <ele>972.2</ele>
        <time>2026-05-12T10:46:34Z</time>
      </trkpt>
      <trkpt lat="45.93595" lon="5.6329">
        <ele>972.2</ele>
        <time>2026-05-12T10:46:35Z</time>
      </trkpt>
      <trkpt lat="45.93595" lon="5.63291">
        <ele>971.4</ele>
        <time>2026-05-12T10:46:36Z</time>
      </trkpt>
      <trkpt lat="45.93594" lon="5.63293">
        <ele>971.2</ele>
        <time>2026-05-12T10:46:37Z</time>
      </trkpt>
      <trkpt lat="45.93592" lon="5.63294">
        <ele>971.2</ele>
        <time>2026-05-12T10:46:38Z</time>
      </trkpt>
      <trkpt lat="45.9359" lon="5.63297">
        <ele>970.6</ele>
        <time>2026-05-12T10:46:39Z</time>
      </trkpt>
      <trkpt lat="45.93588" lon="5.63298">
        <ele>970</ele>
        <time>2026-05-12T10:46:40Z</time>
      </trkpt>
      <trkpt lat="45.93587" lon="5.633">
        <ele>969.4</ele>
        <time>2026-05-12T10:46:41Z</time>
      </trkpt>
      <trkpt lat="45.93584" lon="5.63301">
        <ele>969.4</ele>
        <time>2026-05-12T10:46:42Z</time>
      </trkpt>
      <trkpt lat="45.93581" lon="5.63301">
        <ele>968.6</ele>
        <time>2026-05-12T10:46:43Z</time>
      </trkpt>
      <trkpt lat="45.93579" lon="5.633">
        <ele>968.2</ele>
        <time>2026-05-12T10:46:44Z</time>
      </trkpt>
      <trkpt lat="45.93577" lon="5.633">
        <ele>967.4</ele>
        <time>2026-05-12T10:46:45Z</time>
      </trkpt>
      <trkpt lat="45.93575" lon="5.633">
        <ele>966.8</ele>
        <time>2026-05-12T10:46:46Z</time>
      </trkpt>
      <trkpt lat="45.93573" lon="5.63299">
        <ele>966.2</ele>
        <time>2026-05-12T10:46:47Z</time>
      </trkpt>
      <trkpt lat="45.93571" lon="5.63299">
        <ele>965.6</ele>
        <time>2026-05-12T10:46:48Z</time>
      </trkpt>
      <trkpt lat="45.93569" lon="5.63299">
        <ele>964.8</ele>
        <time>2026-05-12T10:46:49Z</time>
      </trkpt>
      <trkpt lat="45.93566" lon="5.633">
        <ele>964</ele>
        <time>2026-05-12T10:46:50Z</time>
      </trkpt>
      <trkpt lat="45.93564" lon="5.63301">
        <ele>963.4</ele>
        <time>2026-05-12T10:46:51Z</time>
      </trkpt>
      <trkpt lat="45.93561" lon="5.63301">
        <ele>962.8</ele>
        <time>2026-05-12T10:46:52Z</time>
      </trkpt>
      <trkpt lat="45.93558" lon="5.63301">
        <ele>962</ele>
        <time>2026-05-12T10:46:53Z</time>
      </trkpt>
      <trkpt lat="45.93556" lon="5.633">
        <ele>961</ele>
        <time>2026-05-12T10:46:54Z</time>
      </trkpt>
      <trkpt lat="45.93553" lon="5.63299">
        <ele>960.6</ele>
        <time>2026-05-12T10:46:55Z</time>
      </trkpt>
      <trkpt lat="45.93551" lon="5.63298">
        <ele>960.2</ele>
        <time>2026-05-12T10:46:56Z</time>
      </trkpt>
      <trkpt lat="45.93548" lon="5.63297">
        <ele>959.8</ele>
        <time>2026-05-12T10:46:57Z</time>
      </trkpt>
      <trkpt lat="45.93544" lon="5.63294">
        <ele>959.2</ele>
        <time>2026-05-12T10:46:58Z</time>
      </trkpt>
      <trkpt lat="45.93542" lon="5.63292">
        <ele>958.6</ele>
        <time>2026-05-12T10:46:59Z</time>
      </trkpt>
      <trkpt lat="45.93536" lon="5.6329">
        <ele>958.6</ele>
        <time>2026-05-12T10:47:00Z</time>
      </trkpt>
      <trkpt lat="45.93533" lon="5.63288">
        <ele>958.2</ele>
        <time>2026-05-12T10:47:01Z</time>
      </trkpt>
      <trkpt lat="45.93529" lon="5.63286">
        <ele>957.8</ele>
        <time>2026-05-12T10:47:02Z</time>
      </trkpt>
      <trkpt lat="45.93526" lon="5.63285">
        <ele>957.8</ele>
        <time>2026-05-12T10:47:03Z</time>
      </trkpt>
      <trkpt lat="45.93523" lon="5.63283">
        <ele>957.4</ele>
        <time>2026-05-12T10:47:04Z</time>
      </trkpt>
      <trkpt lat="45.9352" lon="5.63282">
        <ele>956.6</ele>
        <time>2026-05-12T10:47:05Z</time>
      </trkpt>
      <trkpt lat="45.93517" lon="5.63281">
        <ele>956.6</ele>
        <time>2026-05-12T10:47:06Z</time>
      </trkpt>
      <trkpt lat="45.93513" lon="5.63279">
        <ele>955.8</ele>
        <time>2026-05-12T10:47:07Z</time>
      </trkpt>
      <trkpt lat="45.9351" lon="5.63278">
        <ele>955.2</ele>
        <time>2026-05-12T10:47:08Z</time>
      </trkpt>
      <trkpt lat="45.93506" lon="5.63277">
        <ele>954.4</ele>
        <time>2026-05-12T10:47:09Z</time>
      </trkpt>
      <trkpt lat="45.93503" lon="5.63275">
        <ele>954</ele>
        <time>2026-05-12T10:47:10Z</time>
      </trkpt>
      <trkpt lat="45.935" lon="5.63274">
        <ele>953.2</ele>
        <time>2026-05-12T10:47:11Z</time>
      </trkpt>
      <trkpt lat="45.93498" lon="5.63272">
        <ele>953.2</ele>
        <time>2026-05-12T10:47:12Z</time>
      </trkpt>
      <trkpt lat="45.93495" lon="5.63271">
        <ele>952.6</ele>
        <time>2026-05-12T10:47:13Z</time>
      </trkpt>
      <trkpt lat="45.93493" lon="5.6327">
        <ele>952.2</ele>
        <time>2026-05-12T10:47:14Z</time>
      </trkpt>
      <trkpt lat="45.9349" lon="5.63268">
        <ele>951.8</ele>
        <time>2026-05-12T10:47:15Z</time>
      </trkpt>
      <trkpt lat="45.93485" lon="5.63267">
        <ele>951.8</ele>
        <time>2026-05-12T10:47:16Z</time>
      </trkpt>
      <trkpt lat="45.93481" lon="5.63266">
        <ele>951.4</ele>
        <time>2026-05-12T10:47:17Z</time>
      </trkpt>
      <trkpt lat="45.93477" lon="5.63265">
        <ele>950.6</ele>
        <time>2026-05-12T10:47:18Z</time>
      </trkpt>
      <trkpt lat="45.93473" lon="5.63264">
        <ele>950</ele>
        <time>2026-05-12T10:47:19Z</time>
      </trkpt>
      <trkpt lat="45.9347" lon="5.63263">
        <ele>948.8</ele>
        <time>2026-05-12T10:47:20Z</time>
      </trkpt>
      <trkpt lat="45.93467" lon="5.63262">
        <ele>948.4</ele>
        <time>2026-05-12T10:47:21Z</time>
      </trkpt>
      <trkpt lat="45.93464" lon="5.63262">
        <ele>947.6</ele>
        <time>2026-05-12T10:47:22Z</time>
      </trkpt>
      <trkpt lat="45.9346" lon="5.63262">
        <ele>946.6</ele>
        <time>2026-05-12T10:47:23Z</time>
      </trkpt>
      <trkpt lat="45.93455" lon="5.63262">
        <ele>945.8</ele>
        <time>2026-05-12T10:47:24Z</time>
      </trkpt>
      <trkpt lat="45.9345" lon="5.63263">
        <ele>945</ele>
        <time>2026-05-12T10:47:25Z</time>
      </trkpt>
      <trkpt lat="45.93441" lon="5.63265">
        <ele>944.6</ele>
        <time>2026-05-12T10:47:26Z</time>
      </trkpt>
      <trkpt lat="45.93439" lon="5.63265">
        <ele>944</ele>
        <time>2026-05-12T10:47:27Z</time>
      </trkpt>
      <trkpt lat="45.9344" lon="5.63266">
        <ele>943.2</ele>
        <time>2026-05-12T10:47:28Z</time>
      </trkpt>
      <trkpt lat="45.93439" lon="5.63267">
        <ele>942.6</ele>
        <time>2026-05-12T10:47:29Z</time>
      </trkpt>
      <trkpt lat="45.93439" lon="5.63268">
        <ele>941.8</ele>
        <time>2026-05-12T10:47:30Z</time>
      </trkpt>
      <trkpt lat="45.93438" lon="5.63268">
        <ele>941.2</ele>
        <time>2026-05-12T10:47:31Z</time>
      </trkpt>
      <trkpt lat="45.93437" lon="5.63269">
        <ele>940.6</ele>
        <time>2026-05-12T10:47:32Z</time>
      </trkpt>
      <trkpt lat="45.93435" lon="5.63269">
        <ele>940</ele>
        <time>2026-05-12T10:47:33Z</time>
      </trkpt>
      <trkpt lat="45.93433" lon="5.63269">
        <ele>939.6</ele>
        <time>2026-05-12T10:47:34Z</time>
      </trkpt>
      <trkpt lat="45.93431" lon="5.63269">
        <ele>939</ele>
        <time>2026-05-12T10:47:35Z</time>
      </trkpt>
      <trkpt lat="45.9343" lon="5.63268">
        <ele>938.4</ele>
        <time>2026-05-12T10:47:36Z</time>
      </trkpt>
      <trkpt lat="45.93428" lon="5.63267">
        <ele>938</ele>
        <time>2026-05-12T10:47:37Z</time>
      </trkpt>
      <trkpt lat="45.93427" lon="5.63267">
        <ele>937.4</ele>
        <time>2026-05-12T10:47:38Z</time>
      </trkpt>
      <trkpt lat="45.93426" lon="5.63267">
        <ele>937</ele>
        <time>2026-05-12T10:47:39Z</time>
      </trkpt>
      <trkpt lat="45.93423" lon="5.63267">
        <ele>936.4</ele>
        <time>2026-05-12T10:47:40Z</time>
      </trkpt>
      <trkpt lat="45.9342" lon="5.63267">
        <ele>935.8</ele>
        <time>2026-05-12T10:47:41Z</time>
      </trkpt>
      <trkpt lat="45.93418" lon="5.63266">
        <ele>935.2</ele>
        <time>2026-05-12T10:47:42Z</time>
      </trkpt>
      <trkpt lat="45.93415" lon="5.63266">
        <ele>934.6</ele>
        <time>2026-05-12T10:47:43Z</time>
      </trkpt>
      <trkpt lat="45.93412" lon="5.63265">
        <ele>934</ele>
        <time>2026-05-12T10:47:44Z</time>
      </trkpt>
      <trkpt lat="45.93409" lon="5.63266">
        <ele>933.2</ele>
        <time>2026-05-12T10:47:45Z</time>
      </trkpt>
      <trkpt lat="45.93407" lon="5.63266">
        <ele>932.6</ele>
        <time>2026-05-12T10:47:46Z</time>
      </trkpt>
      <trkpt lat="45.93404" lon="5.63266">
        <ele>931.8</ele>
        <time>2026-05-12T10:47:47Z</time>
      </trkpt>
      <trkpt lat="45.93403" lon="5.63267">
        <ele>931</ele>
        <time>2026-05-12T10:47:48Z</time>
      </trkpt>
      <trkpt lat="45.934" lon="5.63267">
        <ele>930.2</ele>
        <time>2026-05-12T10:47:49Z</time>
      </trkpt>
      <trkpt lat="45.93397" lon="5.63269">
        <ele>929.6</ele>
        <time>2026-05-12T10:47:50Z</time>
      </trkpt>
      <trkpt lat="45.93394" lon="5.63271">
        <ele>928.8</ele>
        <time>2026-05-12T10:47:51Z</time>
      </trkpt>
      <trkpt lat="45.93391" lon="5.63272">
        <ele>927.8</ele>
        <time>2026-05-12T10:47:52Z</time>
      </trkpt>
      <trkpt lat="45.93389" lon="5.63273">
        <ele>927.2</ele>
        <time>2026-05-12T10:47:53Z</time>
      </trkpt>
      <trkpt lat="45.93386" lon="5.63274">
        <ele>926.4</ele>
        <time>2026-05-12T10:47:54Z</time>
      </trkpt>
      <trkpt lat="45.93383" lon="5.63276">
        <ele>925.6</ele>
        <time>2026-05-12T10:47:55Z</time>
      </trkpt>
      <trkpt lat="45.93379" lon="5.63277">
        <ele>924.4</ele>
        <time>2026-05-12T10:47:56Z</time>
      </trkpt>
      <trkpt lat="45.93375" lon="5.63277">
        <ele>923.8</ele>
        <time>2026-05-12T10:47:57Z</time>
      </trkpt>
      <trkpt lat="45.93371" lon="5.63278">
        <ele>923</ele>
        <time>2026-05-12T10:47:58Z</time>
      </trkpt>
      <trkpt lat="45.93369" lon="5.63278">
        <ele>922.6</ele>
        <time>2026-05-12T10:47:59Z</time>
      </trkpt>
      <trkpt lat="45.93366" lon="5.63278">
        <ele>922</ele>
        <time>2026-05-12T10:48:00Z</time>
      </trkpt>
      <trkpt lat="45.93364" lon="5.63277">
        <ele>921.4</ele>
        <time>2026-05-12T10:48:01Z</time>
      </trkpt>
      <trkpt lat="45.93361" lon="5.63277">
        <ele>920.8</ele>
        <time>2026-05-12T10:48:02Z</time>
      </trkpt>
      <trkpt lat="45.93358" lon="5.63276">
        <ele>920</ele>
        <time>2026-05-12T10:48:03Z</time>
      </trkpt>
      <trkpt lat="45.93356" lon="5.63274">
        <ele>919.2</ele>
        <time>2026-05-12T10:48:04Z</time>
      </trkpt>
      <trkpt lat="45.93352" lon="5.63273">
        <ele>918.2</ele>
        <time>2026-05-12T10:48:05Z</time>
      </trkpt>
      <trkpt lat="45.93349" lon="5.63272">
        <ele>917.4</ele>
        <time>2026-05-12T10:48:06Z</time>
      </trkpt>
      <trkpt lat="45.93346" lon="5.63272">
        <ele>916.6</ele>
        <time>2026-05-12T10:48:07Z</time>
      </trkpt>
      <trkpt lat="45.93342" lon="5.63272">
        <ele>916.4</ele>
        <time>2026-05-12T10:48:08Z</time>
      </trkpt>
      <trkpt lat="45.93337" lon="5.63272">
        <ele>916.4</ele>
        <time>2026-05-12T10:48:09Z</time>
      </trkpt>
      <trkpt lat="45.93332" lon="5.63271">
        <ele>915.4</ele>
        <time>2026-05-12T10:48:10Z</time>
      </trkpt>
      <trkpt lat="45.93327" lon="5.63273">
        <ele>914.8</ele>
        <time>2026-05-12T10:48:11Z</time>
      </trkpt>
      <trkpt lat="45.93322" lon="5.63271">
        <ele>914.8</ele>
        <time>2026-05-12T10:48:12Z</time>
      </trkpt>
      <trkpt lat="45.93318" lon="5.63271">
        <ele>913.8</ele>
        <time>2026-05-12T10:48:13Z</time>
      </trkpt>
      <trkpt lat="45.93314" lon="5.6327">
        <ele>913.2</ele>
        <time>2026-05-12T10:48:14Z</time>
      </trkpt>
      <trkpt lat="45.9331" lon="5.6327">
        <ele>912.2</ele>
        <time>2026-05-12T10:48:15Z</time>
      </trkpt>
      <trkpt lat="45.93307" lon="5.63269">
        <ele>911.6</ele>
        <time>2026-05-12T10:48:16Z</time>
      </trkpt>
      <trkpt lat="45.93302" lon="5.63269">
        <ele>911</ele>
        <time>2026-05-12T10:48:17Z</time>
      </trkpt>
      <trkpt lat="45.93299" lon="5.63268">
        <ele>910.6</ele>
        <time>2026-05-12T10:48:18Z</time>
      </trkpt>
      <trkpt lat="45.93298" lon="5.63267">
        <ele>910.4</ele>
        <time>2026-05-12T10:48:19Z</time>
      </trkpt>
      <trkpt lat="45.93295" lon="5.63267">
        <ele>909.8</ele>
        <time>2026-05-12T10:48:20Z</time>
      </trkpt>
      <trkpt lat="45.93296" lon="5.63268">
        <ele>909.8</ele>
        <time>2026-05-12T10:48:21Z</time>
      </trkpt>
      <trkpt lat="45.93296" lon="5.63268">
        <ele>909.4</ele>
        <time>2026-05-12T10:48:22Z</time>
      </trkpt>
      <trkpt lat="45.93296" lon="5.63267">
        <ele>909.6</ele>
        <time>2026-05-12T10:53:01Z</time>
      </trkpt>
      <trkpt lat="45.93294" lon="5.63266">
        <ele>909.2</ele>
        <time>2026-05-12T10:53:02Z</time>
      </trkpt>
      <trkpt lat="45.93292" lon="5.63265">
        <ele>908.8</ele>
        <time>2026-05-12T10:53:03Z</time>
      </trkpt>
      <trkpt lat="45.93291" lon="5.63263">
        <ele>908.8</ele>
        <time>2026-05-12T10:53:04Z</time>
      </trkpt>
      <trkpt lat="45.9329" lon="5.6326">
        <ele>908.8</ele>
        <time>2026-05-12T10:53:05Z</time>
      </trkpt>
      <trkpt lat="45.93289" lon="5.63258">
        <ele>908.8</ele>
        <time>2026-05-12T10:53:06Z</time>
      </trkpt>
      <trkpt lat="45.93288" lon="5.63256">
        <ele>908.8</ele>
        <time>2026-05-12T10:53:07Z</time>
      </trkpt>
      <trkpt lat="45.93287" lon="5.63253">
        <ele>908.8</ele>
        <time>2026-05-12T10:53:08Z</time>
      </trkpt>
      <trkpt lat="45.93286" lon="5.63251">
        <ele>909.2</ele>
        <time>2026-05-12T10:53:09Z</time>
      </trkpt>
      <trkpt lat="45.93285" lon="5.6325">
        <ele>909.2</ele>
        <time>2026-05-12T10:53:10Z</time>
      </trkpt>
      <trkpt lat="45.93285" lon="5.63248">
        <ele>909.6</ele>
        <time>2026-05-12T10:53:11Z</time>
      </trkpt>
      <trkpt lat="45.93284" lon="5.63247">
        <ele>909.6</ele>
        <time>2026-05-12T10:53:12Z</time>
      </trkpt>
      <trkpt lat="45.93284" lon="5.63245">
        <ele>910</ele>
        <time>2026-05-12T10:53:13Z</time>
      </trkpt>
      <trkpt lat="45.93283" lon="5.63243">
        <ele>910</ele>
        <time>2026-05-12T10:53:14Z</time>
      </trkpt>
      <trkpt lat="45.93282" lon="5.63241">
        <ele>910</ele>
        <time>2026-05-12T10:53:15Z</time>
      </trkpt>
      <trkpt lat="45.9328" lon="5.6324">
        <ele>910.4</ele>
        <time>2026-05-12T10:53:16Z</time>
      </trkpt>
      <trkpt lat="45.93279" lon="5.63239">
        <ele>911</ele>
        <time>2026-05-12T10:53:17Z</time>
      </trkpt>
      <trkpt lat="45.93279" lon="5.63238">
        <ele>911</ele>
        <time>2026-05-12T10:53:18Z</time>
      </trkpt>
      <trkpt lat="45.93278" lon="5.63236">
        <ele>911</ele>
        <time>2026-05-12T10:53:19Z</time>
      </trkpt>
      <trkpt lat="45.93276" lon="5.63234">
        <ele>911.2</ele>
        <time>2026-05-12T10:53:20Z</time>
      </trkpt>
      <trkpt lat="45.93275" lon="5.63232">
        <ele>911.2</ele>
        <time>2026-05-12T10:53:21Z</time>
      </trkpt>
      <trkpt lat="45.93274" lon="5.63231">
        <ele>911.6</ele>
        <time>2026-05-12T10:53:22Z</time>
      </trkpt>
      <trkpt lat="45.93272" lon="5.6323">
        <ele>911.6</ele>
        <time>2026-05-12T10:53:23Z</time>
      </trkpt>
      <trkpt lat="45.93271" lon="5.63227">
        <ele>911.6</ele>
        <time>2026-05-12T10:53:24Z</time>
      </trkpt>
      <trkpt lat="45.93269" lon="5.63226">
        <ele>912</ele>
        <time>2026-05-12T10:53:25Z</time>
      </trkpt>
      <trkpt lat="45.93268" lon="5.63223">
        <ele>912</ele>
        <time>2026-05-12T10:53:26Z</time>
      </trkpt>
      <trkpt lat="45.93266" lon="5.63221">
        <ele>912</ele>
        <time>2026-05-12T10:53:27Z</time>
      </trkpt>
      <trkpt lat="45.93264" lon="5.63219">
        <ele>912.2</ele>
        <time>2026-05-12T10:53:28Z</time>
      </trkpt>
      <trkpt lat="45.93263" lon="5.63216">
        <ele>912.2</ele>
        <time>2026-05-12T10:53:29Z</time>
      </trkpt>
      <trkpt lat="45.93261" lon="5.63214">
        <ele>912.2</ele>
        <time>2026-05-12T10:53:30Z</time>
      </trkpt>
      <trkpt lat="45.9326" lon="5.63212">
        <ele>912.4</ele>
        <time>2026-05-12T10:53:31Z</time>
      </trkpt>
      <trkpt lat="45.93259" lon="5.6321">
        <ele>912.4</ele>
        <time>2026-05-12T10:53:32Z</time>
      </trkpt>
      <trkpt lat="45.93257" lon="5.63209">
        <ele>912.4</ele>
        <time>2026-05-12T10:53:33Z</time>
      </trkpt>
      <trkpt lat="45.93256" lon="5.63207">
        <ele>913</ele>
        <time>2026-05-12T10:53:34Z</time>
      </trkpt>
      <trkpt lat="45.93255" lon="5.63205">
        <ele>913</ele>
        <time>2026-05-12T10:53:35Z</time>
      </trkpt>
      <trkpt lat="45.93254" lon="5.63201">
        <ele>913.4</ele>
        <time>2026-05-12T10:53:36Z</time>
      </trkpt>
      <trkpt lat="45.93254" lon="5.63198">
        <ele>913.4</ele>
        <time>2026-05-12T10:53:37Z</time>
      </trkpt>
      <trkpt lat="45.93253" lon="5.63196">
        <ele>913.6</ele>
        <time>2026-05-12T10:53:38Z</time>
      </trkpt>
      <trkpt lat="45.93253" lon="5.63193">
        <ele>913.6</ele>
        <time>2026-05-12T10:53:39Z</time>
      </trkpt>
      <trkpt lat="45.93252" lon="5.6319">
        <ele>913.6</ele>
        <time>2026-05-12T10:53:40Z</time>
      </trkpt>
      <trkpt lat="45.93251" lon="5.63186">
        <ele>914</ele>
        <time>2026-05-12T10:53:41Z</time>
      </trkpt>
      <trkpt lat="45.9325" lon="5.63182">
        <ele>914</ele>
        <time>2026-05-12T10:53:42Z</time>
      </trkpt>
      <trkpt lat="45.93249" lon="5.6318">
        <ele>914</ele>
        <time>2026-05-12T10:53:43Z</time>
      </trkpt>
      <trkpt lat="45.93247" lon="5.63178">
        <ele>914</ele>
        <time>2026-05-12T10:53:44Z</time>
      </trkpt>
      <trkpt lat="45.93245" lon="5.63175">
        <ele>914</ele>
        <time>2026-05-12T10:53:45Z</time>
      </trkpt>
      <trkpt lat="45.93244" lon="5.63173">
        <ele>914</ele>
        <time>2026-05-12T10:53:46Z</time>
      </trkpt>
      <trkpt lat="45.93244" lon="5.63172">
        <ele>914.2</ele>
        <time>2026-05-12T10:53:47Z</time>
      </trkpt>
      <trkpt lat="45.93244" lon="5.6317">
        <ele>914.4</ele>
        <time>2026-05-12T10:53:48Z</time>
      </trkpt>
      <trkpt lat="45.93243" lon="5.63166">
        <ele>914.4</ele>
        <time>2026-05-12T10:53:49Z</time>
      </trkpt>
      <trkpt lat="45.9324" lon="5.63163">
        <ele>914.8</ele>
        <time>2026-05-12T10:53:50Z</time>
      </trkpt>
      <trkpt lat="45.93236" lon="5.6316">
        <ele>914.8</ele>
        <time>2026-05-12T10:53:51Z</time>
      </trkpt>
      <trkpt lat="45.93234" lon="5.63158">
        <ele>914.8</ele>
        <time>2026-05-12T10:53:52Z</time>
      </trkpt>
      <trkpt lat="45.93233" lon="5.63158">
        <ele>915</ele>
        <time>2026-05-12T10:53:53Z</time>
      </trkpt>
      <trkpt lat="45.93231" lon="5.63157">
        <ele>915</ele>
        <time>2026-05-12T10:53:54Z</time>
      </trkpt>
      <trkpt lat="45.9323" lon="5.63157">
        <ele>915</ele>
        <time>2026-05-12T10:53:55Z</time>
      </trkpt>
      <trkpt lat="45.9323" lon="5.63156">
        <ele>915.2</ele>
        <time>2026-05-12T10:53:56Z</time>
      </trkpt>
      <trkpt lat="45.93228" lon="5.63156">
        <ele>915.2</ele>
        <time>2026-05-12T10:53:57Z</time>
      </trkpt>
      <trkpt lat="45.93226" lon="5.63155">
        <ele>915.4</ele>
        <time>2026-05-12T10:53:58Z</time>
      </trkpt>
      <trkpt lat="45.93225" lon="5.63154">
        <ele>915.8</ele>
        <time>2026-05-12T10:53:59Z</time>
      </trkpt>
      <trkpt lat="45.93223" lon="5.63154">
        <ele>916.2</ele>
        <time>2026-05-12T10:54:00Z</time>
      </trkpt>
      <trkpt lat="45.93221" lon="5.63153">
        <ele>916.6</ele>
        <time>2026-05-12T10:54:01Z</time>
      </trkpt>
      <trkpt lat="45.93219" lon="5.63153">
        <ele>916.8</ele>
        <time>2026-05-12T10:54:02Z</time>
      </trkpt>
      <trkpt lat="45.93217" lon="5.63152">
        <ele>917</ele>
        <time>2026-05-12T10:54:03Z</time>
      </trkpt>
      <trkpt lat="45.93216" lon="5.63151">
        <ele>917.2</ele>
        <time>2026-05-12T10:54:04Z</time>
      </trkpt>
      <trkpt lat="45.93214" lon="5.63151">
        <ele>917.2</ele>
        <time>2026-05-12T10:54:05Z</time>
      </trkpt>
      <trkpt lat="45.93212" lon="5.6315">
        <ele>917.8</ele>
        <time>2026-05-12T10:54:06Z</time>
      </trkpt>
      <trkpt lat="45.93211" lon="5.6315">
        <ele>917.8</ele>
        <time>2026-05-12T10:54:07Z</time>
      </trkpt>
      <trkpt lat="45.93211" lon="5.63149">
        <ele>917.8</ele>
        <time>2026-05-12T10:54:08Z</time>
      </trkpt>
      <trkpt lat="45.9321" lon="5.63148">
        <ele>918.2</ele>
        <time>2026-05-12T10:54:09Z</time>
      </trkpt>
      <trkpt lat="45.93209" lon="5.63147">
        <ele>918.4</ele>
        <time>2026-05-12T10:54:10Z</time>
      </trkpt>
      <trkpt lat="45.93207" lon="5.63146">
        <ele>918.4</ele>
        <time>2026-05-12T10:54:11Z</time>
      </trkpt>
      <trkpt lat="45.93206" lon="5.63146">
        <ele>918.4</ele>
        <time>2026-05-12T10:54:12Z</time>
      </trkpt>
      <trkpt lat="45.93204" lon="5.63145">
        <ele>918.8</ele>
        <time>2026-05-12T10:54:13Z</time>
      </trkpt>
      <trkpt lat="45.93203" lon="5.63144">
        <ele>919</ele>
        <time>2026-05-12T10:54:14Z</time>
      </trkpt>
      <trkpt lat="45.93203" lon="5.63144">
        <ele>919</ele>
        <time>2026-05-12T10:54:15Z</time>
      </trkpt>
      <trkpt lat="45.93202" lon="5.63143">
        <ele>919.2</ele>
        <time>2026-05-12T10:54:16Z</time>
      </trkpt>
      <trkpt lat="45.93202" lon="5.63142">
        <ele>919.4</ele>
        <time>2026-05-12T10:54:17Z</time>
      </trkpt>
      <trkpt lat="45.93201" lon="5.63142">
        <ele>919.4</ele>
        <time>2026-05-12T10:54:18Z</time>
      </trkpt>
      <trkpt lat="45.932" lon="5.63141">
        <ele>919.8</ele>
        <time>2026-05-12T10:54:19Z</time>
      </trkpt>
      <trkpt lat="45.93199" lon="5.63141">
        <ele>920</ele>
        <time>2026-05-12T10:54:20Z</time>
      </trkpt>
      <trkpt lat="45.93198" lon="5.6314">
        <ele>920.2</ele>
        <time>2026-05-12T10:54:21Z</time>
      </trkpt>
      <trkpt lat="45.93197" lon="5.63139">
        <ele>920.4</ele>
        <time>2026-05-12T10:54:22Z</time>
      </trkpt>
      <trkpt lat="45.93197" lon="5.63139">
        <ele>920.8</ele>
        <time>2026-05-12T10:54:23Z</time>
      </trkpt>
      <trkpt lat="45.93197" lon="5.6314">
        <ele>921</ele>
        <time>2026-05-12T10:54:24Z</time>
      </trkpt>
      <trkpt lat="45.93196" lon="5.63138">
        <ele>922</ele>
        <time>2026-05-12T10:54:33Z</time>
      </trkpt>
      <trkpt lat="45.93197" lon="5.63138">
        <ele>922.4</ele>
        <time>2026-05-12T10:54:34Z</time>
      </trkpt>
      <trkpt lat="45.93196" lon="5.63137">
        <ele>922.4</ele>
        <time>2026-05-12T10:54:35Z</time>
      </trkpt>
      <trkpt lat="45.93195" lon="5.63136">
        <ele>922.4</ele>
        <time>2026-05-12T10:54:36Z</time>
      </trkpt>
      <trkpt lat="45.93194" lon="5.63135">
        <ele>922.6</ele>
        <time>2026-05-12T10:54:37Z</time>
      </trkpt>
      <trkpt lat="45.93191" lon="5.63132">
        <ele>922.8</ele>
        <time>2026-05-12T10:54:38Z</time>
      </trkpt>
      <trkpt lat="45.93188" lon="5.6313">
        <ele>922.8</ele>
        <time>2026-05-12T10:54:39Z</time>
      </trkpt>
      <trkpt lat="45.93185" lon="5.63128">
        <ele>923</ele>
        <time>2026-05-12T10:54:40Z</time>
      </trkpt>
      <trkpt lat="45.93182" lon="5.63125">
        <ele>923.2</ele>
        <time>2026-05-12T10:54:41Z</time>
      </trkpt>
      <trkpt lat="45.9318" lon="5.63123">
        <ele>923.4</ele>
        <time>2026-05-12T10:54:42Z</time>
      </trkpt>
      <trkpt lat="45.93178" lon="5.63122">
        <ele>923.4</ele>
        <time>2026-05-12T10:54:43Z</time>
      </trkpt>
      <trkpt lat="45.93177" lon="5.6312">
        <ele>924</ele>
        <time>2026-05-12T10:54:44Z</time>
      </trkpt>
      <trkpt lat="45.93175" lon="5.63119">
        <ele>924.2</ele>
        <time>2026-05-12T10:54:45Z</time>
      </trkpt>
      <trkpt lat="45.93172" lon="5.63119">
        <ele>924.2</ele>
        <time>2026-05-12T10:54:46Z</time>
      </trkpt>
      <trkpt lat="45.93171" lon="5.63119">
        <ele>924.4</ele>
        <time>2026-05-12T10:54:47Z</time>
      </trkpt>
      <trkpt lat="45.93171" lon="5.63118">
        <ele>924.4</ele>
        <time>2026-05-12T10:54:48Z</time>
      </trkpt>
      <trkpt lat="45.93169" lon="5.63116">
        <ele>924.4</ele>
        <time>2026-05-12T10:54:49Z</time>
      </trkpt>
      <trkpt lat="45.93167" lon="5.63114">
        <ele>924.4</ele>
        <time>2026-05-12T10:54:50Z</time>
      </trkpt>
      <trkpt lat="45.93166" lon="5.63113">
        <ele>924.6</ele>
        <time>2026-05-12T10:54:51Z</time>
      </trkpt>
      <trkpt lat="45.93164" lon="5.63112">
        <ele>925</ele>
        <time>2026-05-12T10:54:52Z</time>
      </trkpt>
      <trkpt lat="45.93162" lon="5.6311">
        <ele>925</ele>
        <time>2026-05-12T10:54:53Z</time>
      </trkpt>
      <trkpt lat="45.93161" lon="5.63109">
        <ele>925.2</ele>
        <time>2026-05-12T10:54:54Z</time>
      </trkpt>
      <trkpt lat="45.93159" lon="5.63108">
        <ele>925.2</ele>
        <time>2026-05-12T10:54:55Z</time>
      </trkpt>
      <trkpt lat="45.93157" lon="5.63107">
        <ele>925.4</ele>
        <time>2026-05-12T10:54:56Z</time>
      </trkpt>
      <trkpt lat="45.93156" lon="5.63106">
        <ele>925.4</ele>
        <time>2026-05-12T10:54:57Z</time>
      </trkpt>
      <trkpt lat="45.93155" lon="5.63105">
        <ele>925.4</ele>
        <time>2026-05-12T10:54:58Z</time>
      </trkpt>
      <trkpt lat="45.93153" lon="5.63103">
        <ele>925.6</ele>
        <time>2026-05-12T10:54:59Z</time>
      </trkpt>
      <trkpt lat="45.93152" lon="5.63102">
        <ele>925.6</ele>
        <time>2026-05-12T10:55:00Z</time>
      </trkpt>
      <trkpt lat="45.9315" lon="5.63101">
        <ele>925.8</ele>
        <time>2026-05-12T10:55:01Z</time>
      </trkpt>
      <trkpt lat="45.93148" lon="5.631">
        <ele>926</ele>
        <time>2026-05-12T10:55:02Z</time>
      </trkpt>
      <trkpt lat="45.93147" lon="5.63099">
        <ele>926</ele>
        <time>2026-05-12T10:55:03Z</time>
      </trkpt>
      <trkpt lat="45.93146" lon="5.63098">
        <ele>926.4</ele>
        <time>2026-05-12T10:55:04Z</time>
      </trkpt>
      <trkpt lat="45.93145" lon="5.63097">
        <ele>926.4</ele>
        <time>2026-05-12T10:55:05Z</time>
      </trkpt>
      <trkpt lat="45.93143" lon="5.63095">
        <ele>926.8</ele>
        <time>2026-05-12T10:55:06Z</time>
      </trkpt>
      <trkpt lat="45.93141" lon="5.63094">
        <ele>926.8</ele>
        <time>2026-05-12T10:55:07Z</time>
      </trkpt>
      <trkpt lat="45.9314" lon="5.63093">
        <ele>926.8</ele>
        <time>2026-05-12T10:55:08Z</time>
      </trkpt>
      <trkpt lat="45.93138" lon="5.63092">
        <ele>927.2</ele>
        <time>2026-05-12T10:55:09Z</time>
      </trkpt>
      <trkpt lat="45.93138" lon="5.63092">
        <ele>927.6</ele>
        <time>2026-05-12T10:55:10Z</time>
      </trkpt>
      <trkpt lat="45.93138" lon="5.63092">
        <ele>927.6</ele>
        <time>2026-05-12T10:55:11Z</time>
      </trkpt>
      <trkpt lat="45.93132" lon="5.63088">
        <ele>927.8</ele>
        <time>2026-05-12T10:55:13Z</time>
      </trkpt>
      <trkpt lat="45.93131" lon="5.63087">
        <ele>928</ele>
        <time>2026-05-12T10:55:14Z</time>
      </trkpt>
      <trkpt lat="45.9313" lon="5.63086">
        <ele>928</ele>
        <time>2026-05-12T10:55:15Z</time>
      </trkpt>
      <trkpt lat="45.9313" lon="5.63085">
        <ele>928.2</ele>
        <time>2026-05-12T10:55:16Z</time>
      </trkpt>
      <trkpt lat="45.93129" lon="5.63083">
        <ele>928.2</ele>
        <time>2026-05-12T10:55:17Z</time>
      </trkpt>
      <trkpt lat="45.93128" lon="5.63081">
        <ele>928.2</ele>
        <time>2026-05-12T10:55:18Z</time>
      </trkpt>
      <trkpt lat="45.93127" lon="5.63079">
        <ele>928.6</ele>
        <time>2026-05-12T10:55:19Z</time>
      </trkpt>
      <trkpt lat="45.93125" lon="5.63077">
        <ele>928.8</ele>
        <time>2026-05-12T10:55:20Z</time>
      </trkpt>
      <trkpt lat="45.93122" lon="5.63074">
        <ele>928.8</ele>
        <time>2026-05-12T10:55:21Z</time>
      </trkpt>
      <trkpt lat="45.93119" lon="5.63072">
        <ele>929</ele>
        <time>2026-05-12T10:55:22Z</time>
      </trkpt>
      <trkpt lat="45.93116" lon="5.6307">
        <ele>929</ele>
        <time>2026-05-12T10:55:23Z</time>
      </trkpt>
      <trkpt lat="45.93114" lon="5.63069">
        <ele>929</ele>
        <time>2026-05-12T10:55:24Z</time>
      </trkpt>
      <trkpt lat="45.93111" lon="5.63068">
        <ele>929.2</ele>
        <time>2026-05-12T10:55:25Z</time>
      </trkpt>
      <trkpt lat="45.93107" lon="5.63067">
        <ele>929.2</ele>
        <time>2026-05-12T10:55:26Z</time>
      </trkpt>
      <trkpt lat="45.93104" lon="5.63065">
        <ele>929.6</ele>
        <time>2026-05-12T10:55:27Z</time>
      </trkpt>
      <trkpt lat="45.93101" lon="5.63064">
        <ele>929.6</ele>
        <time>2026-05-12T10:55:28Z</time>
      </trkpt>
      <trkpt lat="45.93098" lon="5.63062">
        <ele>929.8</ele>
        <time>2026-05-12T10:55:29Z</time>
      </trkpt>
      <trkpt lat="45.93096" lon="5.6306">
        <ele>930</ele>
        <time>2026-05-12T10:55:30Z</time>
      </trkpt>
      <trkpt lat="45.93093" lon="5.63058">
        <ele>930</ele>
        <time>2026-05-12T10:55:31Z</time>
      </trkpt>
      <trkpt lat="45.9309" lon="5.63055">
        <ele>930</ele>
        <time>2026-05-12T10:55:32Z</time>
      </trkpt>
      <trkpt lat="45.93088" lon="5.63053">
        <ele>930</ele>
        <time>2026-05-12T10:55:33Z</time>
      </trkpt>
      <trkpt lat="45.93085" lon="5.63052">
        <ele>930</ele>
        <time>2026-05-12T10:55:34Z</time>
      </trkpt>
      <trkpt lat="45.93081" lon="5.6305">
        <ele>929.8</ele>
        <time>2026-05-12T10:55:35Z</time>
      </trkpt>
      <trkpt lat="45.93076" lon="5.63048">
        <ele>929.8</ele>
        <time>2026-05-12T10:55:36Z</time>
      </trkpt>
      <trkpt lat="45.93073" lon="5.63046">
        <ele>929.4</ele>
        <time>2026-05-12T10:55:37Z</time>
      </trkpt>
      <trkpt lat="45.93071" lon="5.63045">
        <ele>929.4</ele>
        <time>2026-05-12T10:55:38Z</time>
      </trkpt>
      <trkpt lat="45.93068" lon="5.63043">
        <ele>929</ele>
        <time>2026-05-12T10:55:39Z</time>
      </trkpt>
      <trkpt lat="45.93065" lon="5.63041">
        <ele>928.8</ele>
        <time>2026-05-12T10:55:40Z</time>
      </trkpt>
      <trkpt lat="45.93062" lon="5.63038">
        <ele>928.8</ele>
        <time>2026-05-12T10:55:41Z</time>
      </trkpt>
      <trkpt lat="45.93058" lon="5.63036">
        <ele>928.4</ele>
        <time>2026-05-12T10:55:42Z</time>
      </trkpt>
      <trkpt lat="45.93055" lon="5.63033">
        <ele>928.4</ele>
        <time>2026-05-12T10:55:43Z</time>
      </trkpt>
      <trkpt lat="45.93052" lon="5.63031">
        <ele>928.4</ele>
        <time>2026-05-12T10:55:44Z</time>
      </trkpt>
      <trkpt lat="45.9305" lon="5.63029">
        <ele>928.4</ele>
        <time>2026-05-12T10:55:45Z</time>
      </trkpt>
      <trkpt lat="45.93047" lon="5.63028">
        <ele>928.4</ele>
        <time>2026-05-12T10:55:46Z</time>
      </trkpt>
      <trkpt lat="45.93045" lon="5.63026">
        <ele>928.4</ele>
        <time>2026-05-12T10:55:47Z</time>
      </trkpt>
      <trkpt lat="45.93042" lon="5.63025">
        <ele>928.4</ele>
        <time>2026-05-12T10:55:48Z</time>
      </trkpt>
      <trkpt lat="45.9304" lon="5.63024">
        <ele>928.2</ele>
        <time>2026-05-12T10:55:49Z</time>
      </trkpt>
      <trkpt lat="45.93038" lon="5.63022">
        <ele>928.2</ele>
        <time>2026-05-12T10:55:50Z</time>
      </trkpt>
      <trkpt lat="45.93035" lon="5.6302">
        <ele>928.2</ele>
        <time>2026-05-12T10:55:51Z</time>
      </trkpt>
      <trkpt lat="45.93033" lon="5.63017">
        <ele>928.2</ele>
        <time>2026-05-12T10:55:52Z</time>
      </trkpt>
      <trkpt lat="45.9303" lon="5.63015">
        <ele>928.2</ele>
        <time>2026-05-12T10:55:53Z</time>
      </trkpt>
      <trkpt lat="45.93027" lon="5.63013">
        <ele>927.8</ele>
        <time>2026-05-12T10:55:54Z</time>
      </trkpt>
      <trkpt lat="45.93025" lon="5.63011">
        <ele>927.8</ele>
        <time>2026-05-12T10:55:55Z</time>
      </trkpt>
      <trkpt lat="45.93021" lon="5.63009">
        <ele>927.8</ele>
        <time>2026-05-12T10:55:56Z</time>
      </trkpt>
      <trkpt lat="45.93018" lon="5.63006">
        <ele>926.8</ele>
        <time>2026-05-12T10:55:57Z</time>
      </trkpt>
      <trkpt lat="45.93014" lon="5.63003">
        <ele>926.2</ele>
        <time>2026-05-12T10:55:58Z</time>
      </trkpt>
      <trkpt lat="45.93009" lon="5.63001">
        <ele>925.6</ele>
        <time>2026-05-12T10:55:59Z</time>
      </trkpt>
      <trkpt lat="45.93005" lon="5.62998">
        <ele>924.2</ele>
        <time>2026-05-12T10:56:00Z</time>
      </trkpt>
      <trkpt lat="45.92996" lon="5.62994">
        <ele>923.6</ele>
        <time>2026-05-12T10:56:01Z</time>
      </trkpt>
      <trkpt lat="45.92989" lon="5.62988">
        <ele>923</ele>
        <time>2026-05-12T10:56:02Z</time>
      </trkpt>
      <trkpt lat="45.92981" lon="5.62984">
        <ele>921.2</ele>
        <time>2026-05-12T10:56:03Z</time>
      </trkpt>
      <trkpt lat="45.92973" lon="5.6298">
        <ele>920.6</ele>
        <time>2026-05-12T10:56:04Z</time>
      </trkpt>
      <trkpt lat="45.92963" lon="5.62974">
        <ele>919.4</ele>
        <time>2026-05-12T10:56:05Z</time>
      </trkpt>
      <trkpt lat="45.92957" lon="5.6297">
        <ele>919.4</ele>
        <time>2026-05-12T10:56:06Z</time>
      </trkpt>
      <trkpt lat="45.92948" lon="5.62964">
        <ele>919.6</ele>
        <time>2026-05-12T10:56:07Z</time>
      </trkpt>
      <trkpt lat="45.92943" lon="5.62959">
        <ele>919.4</ele>
        <time>2026-05-12T10:56:08Z</time>
      </trkpt>
      <trkpt lat="45.92935" lon="5.62954">
        <ele>919.4</ele>
        <time>2026-05-12T10:56:09Z</time>
      </trkpt>
      <trkpt lat="45.92931" lon="5.62948">
        <ele>918.4</ele>
        <time>2026-05-12T10:56:10Z</time>
      </trkpt>
      <trkpt lat="45.92925" lon="5.62943">
        <ele>917.6</ele>
        <time>2026-05-12T10:56:11Z</time>
      </trkpt>
      <trkpt lat="45.92919" lon="5.62939">
        <ele>917</ele>
        <time>2026-05-12T10:56:12Z</time>
      </trkpt>
      <trkpt lat="45.92914" lon="5.62935">
        <ele>916.6</ele>
        <time>2026-05-12T10:56:13Z</time>
      </trkpt>
      <trkpt lat="45.92907" lon="5.62929">
        <ele>915</ele>
        <time>2026-05-12T10:56:14Z</time>
      </trkpt>
      <trkpt lat="45.92901" lon="5.62924">
        <ele>914.4</ele>
        <time>2026-05-12T10:56:15Z</time>
      </trkpt>
      <trkpt lat="45.92885" lon="5.62916">
        <ele>913.8</ele>
        <time>2026-05-12T10:56:16Z</time>
      </trkpt>
      <trkpt lat="45.92875" lon="5.62907">
        <ele>914.2</ele>
        <time>2026-05-12T10:56:17Z</time>
      </trkpt>
      <trkpt lat="45.9286" lon="5.62901">
        <ele>913.6</ele>
        <time>2026-05-12T10:56:18Z</time>
      </trkpt>
      <trkpt lat="45.92851" lon="5.62897">
        <ele>913</ele>
        <time>2026-05-12T10:56:19Z</time>
      </trkpt>
      <trkpt lat="45.92846" lon="5.62892">
        <ele>912.8</ele>
        <time>2026-05-12T10:56:20Z</time>
      </trkpt>
      <trkpt lat="45.92841" lon="5.62889">
        <ele>913</ele>
        <time>2026-05-12T10:56:21Z</time>
      </trkpt>
      <trkpt lat="45.92837" lon="5.62885">
        <ele>913.4</ele>
        <time>2026-05-12T10:56:22Z</time>
      </trkpt>
      <trkpt lat="45.9283" lon="5.62881">
        <ele>913.4</ele>
        <time>2026-05-12T10:56:23Z</time>
      </trkpt>
      <trkpt lat="45.92824" lon="5.62879">
        <ele>913.8</ele>
        <time>2026-05-12T10:56:24Z</time>
      </trkpt>
      <trkpt lat="45.92816" lon="5.62874">
        <ele>914.4</ele>
        <time>2026-05-12T10:56:25Z</time>
      </trkpt>
      <trkpt lat="45.92808" lon="5.6287">
        <ele>914.6</ele>
        <time>2026-05-12T10:56:26Z</time>
      </trkpt>
      <trkpt lat="45.92805" lon="5.62868">
        <ele>914</ele>
        <time>2026-05-12T10:56:27Z</time>
      </trkpt>
      <trkpt lat="45.92798" lon="5.62866">
        <ele>915.2</ele>
        <time>2026-05-12T10:56:28Z</time>
      </trkpt>
      <trkpt lat="45.92794" lon="5.62863">
        <ele>915.8</ele>
        <time>2026-05-12T10:56:29Z</time>
      </trkpt>
      <trkpt lat="45.92789" lon="5.6286">
        <ele>916.2</ele>
        <time>2026-05-12T10:56:30Z</time>
      </trkpt>
      <trkpt lat="45.92784" lon="5.62858">
        <ele>916.4</ele>
        <time>2026-05-12T10:56:31Z</time>
      </trkpt>
      <trkpt lat="45.92776" lon="5.62854">
        <ele>917.2</ele>
        <time>2026-05-12T10:56:32Z</time>
      </trkpt>
      <trkpt lat="45.92772" lon="5.62852">
        <ele>917.6</ele>
        <time>2026-05-12T10:56:33Z</time>
      </trkpt>
      <trkpt lat="45.92768" lon="5.6285">
        <ele>918.4</ele>
        <time>2026-05-12T10:56:34Z</time>
      </trkpt>
      <trkpt lat="45.92764" lon="5.62848">
        <ele>918.6</ele>
        <time>2026-05-12T10:56:35Z</time>
      </trkpt>
      <trkpt lat="45.92758" lon="5.62844">
        <ele>918.6</ele>
        <time>2026-05-12T10:56:36Z</time>
      </trkpt>
      <trkpt lat="45.92755" lon="5.62842">
        <ele>918.6</ele>
        <time>2026-05-12T10:56:37Z</time>
      </trkpt>
      <trkpt lat="45.92751" lon="5.62839">
        <ele>918.8</ele>
        <time>2026-05-12T10:56:38Z</time>
      </trkpt>
      <trkpt lat="45.92749" lon="5.62836">
        <ele>918.8</ele>
        <time>2026-05-12T10:56:39Z</time>
      </trkpt>
      <trkpt lat="45.92746" lon="5.62833">
        <ele>918.2</ele>
        <time>2026-05-12T10:56:40Z</time>
      </trkpt>
      <trkpt lat="45.9274" lon="5.62828">
        <ele>917.2</ele>
        <time>2026-05-12T10:56:41Z</time>
      </trkpt>
      <trkpt lat="45.92735" lon="5.62823">
        <ele>916.8</ele>
        <time>2026-05-12T10:56:42Z</time>
      </trkpt>
      <trkpt lat="45.92727" lon="5.62817">
        <ele>916.4</ele>
        <time>2026-05-12T10:56:43Z</time>
      </trkpt>
      <trkpt lat="45.92723" lon="5.62812">
        <ele>916.4</ele>
        <time>2026-05-12T10:56:44Z</time>
      </trkpt>
      <trkpt lat="45.92719" lon="5.62809">
        <ele>915.8</ele>
        <time>2026-05-12T10:56:45Z</time>
      </trkpt>
      <trkpt lat="45.92714" lon="5.62805">
        <ele>915.6</ele>
        <time>2026-05-12T10:56:46Z</time>
      </trkpt>
      <trkpt lat="45.92711" lon="5.62803">
        <ele>915.6</ele>
        <time>2026-05-12T10:56:47Z</time>
      </trkpt>
      <trkpt lat="45.92706" lon="5.62799">
        <ele>915.6</ele>
        <time>2026-05-12T10:56:48Z</time>
      </trkpt>
      <trkpt lat="45.92699" lon="5.62798">
        <ele>915.4</ele>
        <time>2026-05-12T10:56:49Z</time>
      </trkpt>
      <trkpt lat="45.9269" lon="5.62795">
        <ele>915.8</ele>
        <time>2026-05-12T10:56:50Z</time>
      </trkpt>
      <trkpt lat="45.92686" lon="5.62795">
        <ele>915.8</ele>
        <time>2026-05-12T10:56:51Z</time>
      </trkpt>
      <trkpt lat="45.92681" lon="5.62793">
        <ele>915.8</ele>
        <time>2026-05-12T10:56:52Z</time>
      </trkpt>
      <trkpt lat="45.92677" lon="5.62792">
        <ele>915.8</ele>
        <time>2026-05-12T10:56:53Z</time>
      </trkpt>
      <trkpt lat="45.92672" lon="5.62791">
        <ele>916.4</ele>
        <time>2026-05-12T10:56:54Z</time>
      </trkpt>
      <trkpt lat="45.92664" lon="5.62791">
        <ele>916.4</ele>
        <time>2026-05-12T10:56:55Z</time>
      </trkpt>
      <trkpt lat="45.92657" lon="5.62791">
        <ele>916.8</ele>
        <time>2026-05-12T10:56:56Z</time>
      </trkpt>
      <trkpt lat="45.92649" lon="5.62789">
        <ele>916.4</ele>
        <time>2026-05-12T10:56:57Z</time>
      </trkpt>
      <trkpt lat="45.92648" lon="5.62788">
        <ele>916</ele>
        <time>2026-05-12T10:56:58Z</time>
      </trkpt>
      <trkpt lat="45.92641" lon="5.62787">
        <ele>916.6</ele>
        <time>2026-05-12T10:56:59Z</time>
      </trkpt>
      <trkpt lat="45.92634" lon="5.62786">
        <ele>916.6</ele>
        <time>2026-05-12T10:57:00Z</time>
      </trkpt>
      <trkpt lat="45.92628" lon="5.62784">
        <ele>916.6</ele>
        <time>2026-05-12T10:57:01Z</time>
      </trkpt>
      <trkpt lat="45.92622" lon="5.62785">
        <ele>916</ele>
        <time>2026-05-12T10:57:02Z</time>
      </trkpt>
      <trkpt lat="45.92611" lon="5.62784">
        <ele>916.2</ele>
        <time>2026-05-12T10:57:03Z</time>
      </trkpt>
      <trkpt lat="45.92604" lon="5.62783">
        <ele>916</ele>
        <time>2026-05-12T10:57:04Z</time>
      </trkpt>
      <trkpt lat="45.92598" lon="5.62783">
        <ele>916</ele>
        <time>2026-05-12T10:57:05Z</time>
      </trkpt>
      <trkpt lat="45.92593" lon="5.62782">
        <ele>916</ele>
        <time>2026-05-12T10:57:06Z</time>
      </trkpt>
      <trkpt lat="45.92587" lon="5.62781">
        <ele>916</ele>
        <time>2026-05-12T10:57:07Z</time>
      </trkpt>
      <trkpt lat="45.92582" lon="5.6278">
        <ele>916</ele>
        <time>2026-05-12T10:57:08Z</time>
      </trkpt>
      <trkpt lat="45.92577" lon="5.6278">
        <ele>916.2</ele>
        <time>2026-05-12T10:57:09Z</time>
      </trkpt>
      <trkpt lat="45.92573" lon="5.6278">
        <ele>916.2</ele>
        <time>2026-05-12T10:57:10Z</time>
      </trkpt>
      <trkpt lat="45.92568" lon="5.62779">
        <ele>916.2</ele>
        <time>2026-05-12T10:57:11Z</time>
      </trkpt>
      <trkpt lat="45.92563" lon="5.62779">
        <ele>916.2</ele>
        <time>2026-05-12T10:57:12Z</time>
      </trkpt>
      <trkpt lat="45.92558" lon="5.62779">
        <ele>916.2</ele>
        <time>2026-05-12T10:57:13Z</time>
      </trkpt>
      <trkpt lat="45.92554" lon="5.62778">
        <ele>916.2</ele>
        <time>2026-05-12T10:57:14Z</time>
      </trkpt>
      <trkpt lat="45.9255" lon="5.62778">
        <ele>916.6</ele>
        <time>2026-05-12T10:57:15Z</time>
      </trkpt>
      <trkpt lat="45.92546" lon="5.62778">
        <ele>916.8</ele>
        <time>2026-05-12T10:57:16Z</time>
      </trkpt>
      <trkpt lat="45.9254" lon="5.62776">
        <ele>916.8</ele>
        <time>2026-05-12T10:57:17Z</time>
      </trkpt>
      <trkpt lat="45.92537" lon="5.62777">
        <ele>916.8</ele>
        <time>2026-05-12T10:57:18Z</time>
      </trkpt>
      <trkpt lat="45.92533" lon="5.62774">
        <ele>916.8</ele>
        <time>2026-05-12T10:57:19Z</time>
      </trkpt>
      <trkpt lat="45.92528" lon="5.62774">
        <ele>916.8</ele>
        <time>2026-05-12T10:57:20Z</time>
      </trkpt>
      <trkpt lat="45.92523" lon="5.62773">
        <ele>916.6</ele>
        <time>2026-05-12T10:57:21Z</time>
      </trkpt>
      <trkpt lat="45.92519" lon="5.62772">
        <ele>916.6</ele>
        <time>2026-05-12T10:57:22Z</time>
      </trkpt>
      <trkpt lat="45.92514" lon="5.62771">
        <ele>916.6</ele>
        <time>2026-05-12T10:57:23Z</time>
      </trkpt>
      <trkpt lat="45.92509" lon="5.62769">
        <ele>916.6</ele>
        <time>2026-05-12T10:57:24Z</time>
      </trkpt>
      <trkpt lat="45.92504" lon="5.62768">
        <ele>917</ele>
        <time>2026-05-12T10:57:25Z</time>
      </trkpt>
      <trkpt lat="45.92499" lon="5.62767">
        <ele>917</ele>
        <time>2026-05-12T10:57:26Z</time>
      </trkpt>
      <trkpt lat="45.92494" lon="5.62768">
        <ele>917</ele>
        <time>2026-05-12T10:57:27Z</time>
      </trkpt>
      <trkpt lat="45.92491" lon="5.62765">
        <ele>916.6</ele>
        <time>2026-05-12T10:57:28Z</time>
      </trkpt>
      <trkpt lat="45.92485" lon="5.62766">
        <ele>916.4</ele>
        <time>2026-05-12T10:57:29Z</time>
      </trkpt>
      <trkpt lat="45.9248" lon="5.62765">
        <ele>916.8</ele>
        <time>2026-05-12T10:57:30Z</time>
      </trkpt>
      <trkpt lat="45.92475" lon="5.62765">
        <ele>916.8</ele>
        <time>2026-05-12T10:57:31Z</time>
      </trkpt>
      <trkpt lat="45.9247" lon="5.62765">
        <ele>916.8</ele>
        <time>2026-05-12T10:57:32Z</time>
      </trkpt>
      <trkpt lat="45.92466" lon="5.62764">
        <ele>916.8</ele>
        <time>2026-05-12T10:57:33Z</time>
      </trkpt>
      <trkpt lat="45.92461" lon="5.62761">
        <ele>916.8</ele>
        <time>2026-05-12T10:57:34Z</time>
      </trkpt>
      <trkpt lat="45.92457" lon="5.62758">
        <ele>916.8</ele>
        <time>2026-05-12T10:57:35Z</time>
      </trkpt>
      <trkpt lat="45.92453" lon="5.62758">
        <ele>916.8</ele>
        <time>2026-05-12T10:57:36Z</time>
      </trkpt>
      <trkpt lat="45.92453" lon="5.62758">
        <ele>916.8</ele>
        <time>2026-05-12T10:57:37Z</time>
      </trkpt>
      <trkpt lat="45.92449" lon="5.62758">
        <ele>917.2</ele>
        <time>2026-05-12T10:57:38Z</time>
      </trkpt>
      <trkpt lat="45.92443" lon="5.62756">
        <ele>917.4</ele>
        <time>2026-05-12T10:57:39Z</time>
      </trkpt>
      <trkpt lat="45.92438" lon="5.62757">
        <ele>917.4</ele>
        <time>2026-05-12T10:57:40Z</time>
      </trkpt>
      <trkpt lat="45.92433" lon="5.62755">
        <ele>917.4</ele>
        <time>2026-05-12T10:57:41Z</time>
      </trkpt>
      <trkpt lat="45.92427" lon="5.62755">
        <ele>917.4</ele>
        <time>2026-05-12T10:57:42Z</time>
      </trkpt>
      <trkpt lat="45.92421" lon="5.62754">
        <ele>917.4</ele>
        <time>2026-05-12T10:57:43Z</time>
      </trkpt>
      <trkpt lat="45.92416" lon="5.62754">
        <ele>917.2</ele>
        <time>2026-05-12T10:57:44Z</time>
      </trkpt>
      <trkpt lat="45.92411" lon="5.62754">
        <ele>917.2</ele>
        <time>2026-05-12T10:57:45Z</time>
      </trkpt>
      <trkpt lat="45.92407" lon="5.62754">
        <ele>917.2</ele>
        <time>2026-05-12T10:57:46Z</time>
      </trkpt>
      <trkpt lat="45.92403" lon="5.62755">
        <ele>917.2</ele>
        <time>2026-05-12T10:57:47Z</time>
      </trkpt>
      <trkpt lat="45.924" lon="5.62753">
        <ele>917.2</ele>
        <time>2026-05-12T10:57:48Z</time>
      </trkpt>
      <trkpt lat="45.92397" lon="5.62753">
        <ele>917.2</ele>
        <time>2026-05-12T10:57:49Z</time>
      </trkpt>
      <trkpt lat="45.92393" lon="5.62754">
        <ele>917.4</ele>
        <time>2026-05-12T10:57:50Z</time>
      </trkpt>
      <trkpt lat="45.92389" lon="5.62754">
        <ele>917.4</ele>
        <time>2026-05-12T10:57:51Z</time>
      </trkpt>
      <trkpt lat="45.92385" lon="5.62754">
        <ele>917.4</ele>
        <time>2026-05-12T10:57:52Z</time>
      </trkpt>
      <trkpt lat="45.92382" lon="5.62754">
        <ele>917.4</ele>
        <time>2026-05-12T10:57:53Z</time>
      </trkpt>
      <trkpt lat="45.92378" lon="5.62754">
        <ele>917.4</ele>
        <time>2026-05-12T10:57:54Z</time>
      </trkpt>
      <trkpt lat="45.92374" lon="5.62754">
        <ele>917.4</ele>
        <time>2026-05-12T10:57:55Z</time>
      </trkpt>
      <trkpt lat="45.9237" lon="5.62753">
        <ele>917.4</ele>
        <time>2026-05-12T10:57:56Z</time>
      </trkpt>
      <trkpt lat="45.92365" lon="5.62752">
        <ele>917.4</ele>
        <time>2026-05-12T10:57:57Z</time>
      </trkpt>
      <trkpt lat="45.92362" lon="5.62752">
        <ele>917.4</ele>
        <time>2026-05-12T10:57:58Z</time>
      </trkpt>
      <trkpt lat="45.92358" lon="5.62751">
        <ele>917.8</ele>
        <time>2026-05-12T10:57:59Z</time>
      </trkpt>
      <trkpt lat="45.92353" lon="5.62749">
        <ele>917.8</ele>
        <time>2026-05-12T10:58:00Z</time>
      </trkpt>
      <trkpt lat="45.92349" lon="5.62748">
        <ele>917</ele>
        <time>2026-05-12T10:58:01Z</time>
      </trkpt>
      <trkpt lat="45.92344" lon="5.62747">
        <ele>917</ele>
        <time>2026-05-12T10:58:02Z</time>
      </trkpt>
      <trkpt lat="45.92339" lon="5.62747">
        <ele>916.8</ele>
        <time>2026-05-12T10:58:03Z</time>
      </trkpt>
      <trkpt lat="45.92334" lon="5.62746">
        <ele>916.4</ele>
        <time>2026-05-12T10:58:04Z</time>
      </trkpt>
      <trkpt lat="45.9233" lon="5.62745">
        <ele>916.6</ele>
        <time>2026-05-12T10:58:05Z</time>
      </trkpt>
      <trkpt lat="45.92326" lon="5.62744">
        <ele>916.6</ele>
        <time>2026-05-12T10:58:06Z</time>
      </trkpt>
      <trkpt lat="45.92325" lon="5.62744">
        <ele>916.6</ele>
        <time>2026-05-12T10:58:07Z</time>
      </trkpt>
      <trkpt lat="45.92324" lon="5.62744">
        <ele>916.6</ele>
        <time>2026-05-12T10:58:08Z</time>
      </trkpt>
      <trkpt lat="45.92324" lon="5.62744">
        <ele>916.6</ele>
        <time>2026-05-12T10:58:09Z</time>
      </trkpt>
      <trkpt lat="45.92323" lon="5.62742">
        <ele>916.4</ele>
        <time>2026-05-12T10:58:23Z</time>
      </trkpt>
      <trkpt lat="45.92322" lon="5.62741">
        <ele>916.4</ele>
        <time>2026-05-12T10:58:24Z</time>
      </trkpt>
      <trkpt lat="45.92321" lon="5.62741">
        <ele>916.2</ele>
        <time>2026-05-12T10:58:25Z</time>
      </trkpt>
      <trkpt lat="45.9232" lon="5.6274">
        <ele>916.2</ele>
        <time>2026-05-12T10:58:26Z</time>
      </trkpt>
      <trkpt lat="45.92316" lon="5.6274">
        <ele>916.2</ele>
        <time>2026-05-12T10:58:27Z</time>
      </trkpt>
      <trkpt lat="45.92313" lon="5.62739">
        <ele>916</ele>
        <time>2026-05-12T10:58:28Z</time>
      </trkpt>
      <trkpt lat="45.9231" lon="5.62739">
        <ele>916</ele>
        <time>2026-05-12T10:58:29Z</time>
      </trkpt>
      <trkpt lat="45.92306" lon="5.62739">
        <ele>915.6</ele>
        <time>2026-05-12T10:58:30Z</time>
      </trkpt>
      <trkpt lat="45.92302" lon="5.62739">
        <ele>915</ele>
        <time>2026-05-12T10:58:31Z</time>
      </trkpt>
      <trkpt lat="45.92296" lon="5.62739">
        <ele>915</ele>
        <time>2026-05-12T10:58:32Z</time>
      </trkpt>
      <trkpt lat="45.92293" lon="5.62738">
        <ele>914.6</ele>
        <time>2026-05-12T10:58:33Z</time>
      </trkpt>
      <trkpt lat="45.92288" lon="5.62738">
        <ele>914</ele>
        <time>2026-05-12T10:58:34Z</time>
      </trkpt>
      <trkpt lat="45.92283" lon="5.62737">
        <ele>914</ele>
        <time>2026-05-12T10:58:35Z</time>
      </trkpt>
      <trkpt lat="45.92278" lon="5.62737">
        <ele>914</ele>
        <time>2026-05-12T10:58:36Z</time>
      </trkpt>
      <trkpt lat="45.92273" lon="5.62739">
        <ele>913.8</ele>
        <time>2026-05-12T10:58:37Z</time>
      </trkpt>
      <trkpt lat="45.92266" lon="5.62738">
        <ele>913.6</ele>
        <time>2026-05-12T10:58:38Z</time>
      </trkpt>
      <trkpt lat="45.9226" lon="5.62738">
        <ele>913</ele>
        <time>2026-05-12T10:58:39Z</time>
      </trkpt>
      <trkpt lat="45.92254" lon="5.62737">
        <ele>912.6</ele>
        <time>2026-05-12T10:58:40Z</time>
      </trkpt>
      <trkpt lat="45.92249" lon="5.62736">
        <ele>912.2</ele>
        <time>2026-05-12T10:58:41Z</time>
      </trkpt>
      <trkpt lat="45.92242" lon="5.62737">
        <ele>912.2</ele>
        <time>2026-05-12T10:58:42Z</time>
      </trkpt>
      <trkpt lat="45.92236" lon="5.62735">
        <ele>912</ele>
        <time>2026-05-12T10:58:43Z</time>
      </trkpt>
      <trkpt lat="45.9223" lon="5.62735">
        <ele>911.6</ele>
        <time>2026-05-12T10:58:44Z</time>
      </trkpt>
      <trkpt lat="45.92226" lon="5.62734">
        <ele>911</ele>
        <time>2026-05-12T10:58:45Z</time>
      </trkpt>
      <trkpt lat="45.9222" lon="5.62732">
        <ele>911</ele>
        <time>2026-05-12T10:58:46Z</time>
      </trkpt>
      <trkpt lat="45.92213" lon="5.62729">
        <ele>910.4</ele>
        <time>2026-05-12T10:58:47Z</time>
      </trkpt>
      <trkpt lat="45.92207" lon="5.62727">
        <ele>910.2</ele>
        <time>2026-05-12T10:58:48Z</time>
      </trkpt>
      <trkpt lat="45.92195" lon="5.62727">
        <ele>909.8</ele>
        <time>2026-05-12T10:58:49Z</time>
      </trkpt>
      <trkpt lat="45.92187" lon="5.62726">
        <ele>909</ele>
        <time>2026-05-12T10:58:50Z</time>
      </trkpt>
      <trkpt lat="45.92181" lon="5.62722">
        <ele>907.4</ele>
        <time>2026-05-12T10:58:51Z</time>
      </trkpt>
      <trkpt lat="45.92172" lon="5.62723">
        <ele>907.4</ele>
        <time>2026-05-12T10:58:52Z</time>
      </trkpt>
      <trkpt lat="45.92165" lon="5.62721">
        <ele>907</ele>
        <time>2026-05-12T10:58:53Z</time>
      </trkpt>
      <trkpt lat="45.92157" lon="5.62722">
        <ele>906.4</ele>
        <time>2026-05-12T10:58:54Z</time>
      </trkpt>
      <trkpt lat="45.92149" lon="5.62723">
        <ele>906.4</ele>
        <time>2026-05-12T10:58:55Z</time>
      </trkpt>
      <trkpt lat="45.92139" lon="5.62724">
        <ele>906</ele>
        <time>2026-05-12T10:58:56Z</time>
      </trkpt>
      <trkpt lat="45.9213" lon="5.62724">
        <ele>905.6</ele>
        <time>2026-05-12T10:58:57Z</time>
      </trkpt>
      <trkpt lat="45.92121" lon="5.62725">
        <ele>904.6</ele>
        <time>2026-05-12T10:58:58Z</time>
      </trkpt>
      <trkpt lat="45.92114" lon="5.62726">
        <ele>904.2</ele>
        <time>2026-05-12T10:58:59Z</time>
      </trkpt>
      <trkpt lat="45.92108" lon="5.62726">
        <ele>903.6</ele>
        <time>2026-05-12T10:59:00Z</time>
      </trkpt>
      <trkpt lat="45.92099" lon="5.62727">
        <ele>903.6</ele>
        <time>2026-05-12T10:59:01Z</time>
      </trkpt>
      <trkpt lat="45.92095" lon="5.62727">
        <ele>903.2</ele>
        <time>2026-05-12T10:59:02Z</time>
      </trkpt>
      <trkpt lat="45.9209" lon="5.62728">
        <ele>902.8</ele>
        <time>2026-05-12T10:59:03Z</time>
      </trkpt>
      <trkpt lat="45.92086" lon="5.62728">
        <ele>902.8</ele>
        <time>2026-05-12T10:59:04Z</time>
      </trkpt>
      <trkpt lat="45.92081" lon="5.62727">
        <ele>902.4</ele>
        <time>2026-05-12T10:59:05Z</time>
      </trkpt>
      <trkpt lat="45.92074" lon="5.62726">
        <ele>902</ele>
        <time>2026-05-12T10:59:06Z</time>
      </trkpt>
      <trkpt lat="45.92069" lon="5.62727">
        <ele>901.8</ele>
        <time>2026-05-12T10:59:07Z</time>
      </trkpt>
      <trkpt lat="45.92065" lon="5.62726">
        <ele>901.4</ele>
        <time>2026-05-12T10:59:08Z</time>
      </trkpt>
      <trkpt lat="45.92061" lon="5.62726">
        <ele>901.2</ele>
        <time>2026-05-12T10:59:09Z</time>
      </trkpt>
      <trkpt lat="45.92057" lon="5.62726">
        <ele>901.2</ele>
        <time>2026-05-12T10:59:10Z</time>
      </trkpt>
      <trkpt lat="45.92053" lon="5.62727">
        <ele>901</ele>
        <time>2026-05-12T10:59:11Z</time>
      </trkpt>
      <trkpt lat="45.92051" lon="5.62726">
        <ele>901</ele>
        <time>2026-05-12T10:59:12Z</time>
      </trkpt>
      <trkpt lat="45.92047" lon="5.62727">
        <ele>901</ele>
        <time>2026-05-12T10:59:13Z</time>
      </trkpt>
      <trkpt lat="45.92043" lon="5.62729">
        <ele>900.6</ele>
        <time>2026-05-12T10:59:14Z</time>
      </trkpt>
      <trkpt lat="45.9204" lon="5.6273">
        <ele>900.4</ele>
        <time>2026-05-12T10:59:15Z</time>
      </trkpt>
      <trkpt lat="45.92038" lon="5.6273">
        <ele>900</ele>
        <time>2026-05-12T10:59:16Z</time>
      </trkpt>
      <trkpt lat="45.92035" lon="5.6273">
        <ele>900</ele>
        <time>2026-05-12T10:59:17Z</time>
      </trkpt>
      <trkpt lat="45.92032" lon="5.62731">
        <ele>899.6</ele>
        <time>2026-05-12T10:59:18Z</time>
      </trkpt>
      <trkpt lat="45.92028" lon="5.62731">
        <ele>899.2</ele>
        <time>2026-05-12T10:59:19Z</time>
      </trkpt>
      <trkpt lat="45.92025" lon="5.62731">
        <ele>899.2</ele>
        <time>2026-05-12T10:59:20Z</time>
      </trkpt>
      <trkpt lat="45.92023" lon="5.62731">
        <ele>898.8</ele>
        <time>2026-05-12T10:59:21Z</time>
      </trkpt>
      <trkpt lat="45.92021" lon="5.62731">
        <ele>898.2</ele>
        <time>2026-05-12T10:59:22Z</time>
      </trkpt>
      <trkpt lat="45.92018" lon="5.62731">
        <ele>898</ele>
        <time>2026-05-12T10:59:23Z</time>
      </trkpt>
      <trkpt lat="45.92014" lon="5.62731">
        <ele>897.6</ele>
        <time>2026-05-12T10:59:24Z</time>
      </trkpt>
      <trkpt lat="45.92011" lon="5.62732">
        <ele>897.6</ele>
        <time>2026-05-12T10:59:25Z</time>
      </trkpt>
      <trkpt lat="45.92007" lon="5.62732">
        <ele>896.8</ele>
        <time>2026-05-12T10:59:26Z</time>
      </trkpt>
      <trkpt lat="45.92003" lon="5.62732">
        <ele>895.8</ele>
        <time>2026-05-12T10:59:27Z</time>
      </trkpt>
      <trkpt lat="45.91998" lon="5.62732">
        <ele>895.4</ele>
        <time>2026-05-12T10:59:28Z</time>
      </trkpt>
      <trkpt lat="45.91989" lon="5.62732">
        <ele>894.4</ele>
        <time>2026-05-12T10:59:29Z</time>
      </trkpt>
      <trkpt lat="45.91982" lon="5.62733">
        <ele>893.2</ele>
        <time>2026-05-12T10:59:30Z</time>
      </trkpt>
      <trkpt lat="45.91974" lon="5.62733">
        <ele>893.2</ele>
        <time>2026-05-12T10:59:31Z</time>
      </trkpt>
      <trkpt lat="45.91967" lon="5.62733">
        <ele>892.2</ele>
        <time>2026-05-12T10:59:32Z</time>
      </trkpt>
      <trkpt lat="45.91959" lon="5.62733">
        <ele>890.8</ele>
        <time>2026-05-12T10:59:33Z</time>
      </trkpt>
      <trkpt lat="45.9195" lon="5.62733">
        <ele>889.8</ele>
        <time>2026-05-12T10:59:34Z</time>
      </trkpt>
      <trkpt lat="45.91942" lon="5.62734">
        <ele>889.2</ele>
        <time>2026-05-12T10:59:35Z</time>
      </trkpt>
      <trkpt lat="45.9193" lon="5.62734">
        <ele>887.6</ele>
        <time>2026-05-12T10:59:36Z</time>
      </trkpt>
      <trkpt lat="45.91921" lon="5.62733">
        <ele>886.4</ele>
        <time>2026-05-12T10:59:37Z</time>
      </trkpt>
      <trkpt lat="45.91908" lon="5.62734">
        <ele>885.2</ele>
        <time>2026-05-12T10:59:38Z</time>
      </trkpt>
      <trkpt lat="45.919" lon="5.62735">
        <ele>884.4</ele>
        <time>2026-05-12T10:59:39Z</time>
      </trkpt>
      <trkpt lat="45.91888" lon="5.62733">
        <ele>883</ele>
        <time>2026-05-12T10:59:40Z</time>
      </trkpt>
      <trkpt lat="45.91877" lon="5.62734">
        <ele>881.2</ele>
        <time>2026-05-12T10:59:41Z</time>
      </trkpt>
      <trkpt lat="45.91868" lon="5.62734">
        <ele>880</ele>
        <time>2026-05-12T10:59:42Z</time>
      </trkpt>
      <trkpt lat="45.91858" lon="5.62734">
        <ele>878</ele>
        <time>2026-05-12T10:59:43Z</time>
      </trkpt>
      <trkpt lat="45.9185" lon="5.62735">
        <ele>877.2</ele>
        <time>2026-05-12T10:59:44Z</time>
      </trkpt>
      <trkpt lat="45.9184" lon="5.62736">
        <ele>876.4</ele>
        <time>2026-05-12T10:59:45Z</time>
      </trkpt>
      <trkpt lat="45.91831" lon="5.62736">
        <ele>875.2</ele>
        <time>2026-05-12T10:59:46Z</time>
      </trkpt>
      <trkpt lat="45.91822" lon="5.62735">
        <ele>874</ele>
        <time>2026-05-12T10:59:47Z</time>
      </trkpt>
      <trkpt lat="45.91812" lon="5.62735">
        <ele>873.2</ele>
        <time>2026-05-12T10:59:48Z</time>
      </trkpt>
      <trkpt lat="45.91801" lon="5.62734">
        <ele>872.2</ele>
        <time>2026-05-12T10:59:49Z</time>
      </trkpt>
      <trkpt lat="45.91793" lon="5.62734">
        <ele>871.6</ele>
        <time>2026-05-12T10:59:50Z</time>
      </trkpt>
      <trkpt lat="45.91784" lon="5.62734">
        <ele>870.4</ele>
        <time>2026-05-12T10:59:51Z</time>
      </trkpt>
      <trkpt lat="45.91776" lon="5.62733">
        <ele>870</ele>
        <time>2026-05-12T10:59:52Z</time>
      </trkpt>
      <trkpt lat="45.91768" lon="5.62733">
        <ele>869.6</ele>
        <time>2026-05-12T10:59:53Z</time>
      </trkpt>
      <trkpt lat="45.91758" lon="5.62731">
        <ele>869.2</ele>
        <time>2026-05-12T10:59:54Z</time>
      </trkpt>
      <trkpt lat="45.9175" lon="5.62731">
        <ele>868</ele>
        <time>2026-05-12T10:59:55Z</time>
      </trkpt>
      <trkpt lat="45.91744" lon="5.62728">
        <ele>867.2</ele>
        <time>2026-05-12T10:59:56Z</time>
      </trkpt>
      <trkpt lat="45.91728" lon="5.62722">
        <ele>866</ele>
        <time>2026-05-12T10:59:57Z</time>
      </trkpt>
      <trkpt lat="45.9172" lon="5.62719">
        <ele>864.8</ele>
        <time>2026-05-12T10:59:58Z</time>
      </trkpt>
      <trkpt lat="45.91707" lon="5.62716">
        <ele>863.6</ele>
        <time>2026-05-12T10:59:59Z</time>
      </trkpt>
      <trkpt lat="45.91698" lon="5.62714">
        <ele>862.6</ele>
        <time>2026-05-12T11:00:00Z</time>
      </trkpt>
      <trkpt lat="45.91687" lon="5.62711">
        <ele>861.6</ele>
        <time>2026-05-12T11:00:01Z</time>
      </trkpt>
      <trkpt lat="45.91678" lon="5.62709">
        <ele>861.2</ele>
        <time>2026-05-12T11:00:02Z</time>
      </trkpt>
      <trkpt lat="45.91669" lon="5.62707">
        <ele>858.4</ele>
        <time>2026-05-12T11:00:03Z</time>
      </trkpt>
      <trkpt lat="45.91658" lon="5.62703">
        <ele>858.4</ele>
        <time>2026-05-12T11:00:04Z</time>
      </trkpt>
      <trkpt lat="45.91651" lon="5.62702">
        <ele>858</ele>
        <time>2026-05-12T11:00:05Z</time>
      </trkpt>
      <trkpt lat="45.91641" lon="5.627">
        <ele>858.2</ele>
        <time>2026-05-12T11:00:06Z</time>
      </trkpt>
      <trkpt lat="45.91634" lon="5.62697">
        <ele>859</ele>
        <time>2026-05-12T11:00:07Z</time>
      </trkpt>
      <trkpt lat="45.91628" lon="5.62692">
        <ele>859.4</ele>
        <time>2026-05-12T11:00:08Z</time>
      </trkpt>
      <trkpt lat="45.91623" lon="5.62691">
        <ele>859.6</ele>
        <time>2026-05-12T11:00:09Z</time>
      </trkpt>
      <trkpt lat="45.91617" lon="5.62688">
        <ele>859.6</ele>
        <time>2026-05-12T11:00:10Z</time>
      </trkpt>
      <trkpt lat="45.91612" lon="5.62685">
        <ele>859.8</ele>
        <time>2026-05-12T11:00:11Z</time>
      </trkpt>
      <trkpt lat="45.91607" lon="5.62682">
        <ele>859.8</ele>
        <time>2026-05-12T11:00:12Z</time>
      </trkpt>
      <trkpt lat="45.91602" lon="5.6268">
        <ele>859.8</ele>
        <time>2026-05-12T11:00:13Z</time>
      </trkpt>
      <trkpt lat="45.91598" lon="5.62677">
        <ele>859.8</ele>
        <time>2026-05-12T11:00:14Z</time>
      </trkpt>
      <trkpt lat="45.91594" lon="5.62673">
        <ele>859.8</ele>
        <time>2026-05-12T11:00:15Z</time>
      </trkpt>
      <trkpt lat="45.91589" lon="5.6267">
        <ele>859.8</ele>
        <time>2026-05-12T11:00:16Z</time>
      </trkpt>
      <trkpt lat="45.91586" lon="5.62668">
        <ele>860</ele>
        <time>2026-05-12T11:00:17Z</time>
      </trkpt>
      <trkpt lat="45.91583" lon="5.62667">
        <ele>860</ele>
        <time>2026-05-12T11:00:18Z</time>
      </trkpt>
      <trkpt lat="45.91581" lon="5.62666">
        <ele>860</ele>
        <time>2026-05-12T11:00:19Z</time>
      </trkpt>
      <trkpt lat="45.91578" lon="5.62665">
        <ele>860</ele>
        <time>2026-05-12T11:00:20Z</time>
      </trkpt>
      <trkpt lat="45.91575" lon="5.62664">
        <ele>859.8</ele>
        <time>2026-05-12T11:00:21Z</time>
      </trkpt>
      <trkpt lat="45.91575" lon="5.62662">
        <ele>859.8</ele>
        <time>2026-05-12T11:00:22Z</time>
      </trkpt>
      <trkpt lat="45.91573" lon="5.6266">
        <ele>859.8</ele>
        <time>2026-05-12T11:00:23Z</time>
      </trkpt>
      <trkpt lat="45.9157" lon="5.62659">
        <ele>859.2</ele>
        <time>2026-05-12T11:00:24Z</time>
      </trkpt>
      <trkpt lat="45.91567" lon="5.62656">
        <ele>859.2</ele>
        <time>2026-05-12T11:00:25Z</time>
      </trkpt>
      <trkpt lat="45.91564" lon="5.62653">
        <ele>859.2</ele>
        <time>2026-05-12T11:00:26Z</time>
      </trkpt>
      <trkpt lat="45.91563" lon="5.62649">
        <ele>859.2</ele>
        <time>2026-05-12T11:00:27Z</time>
      </trkpt>
      <trkpt lat="45.91561" lon="5.62646">
        <ele>859.2</ele>
        <time>2026-05-12T11:00:28Z</time>
      </trkpt>
      <trkpt lat="45.91561" lon="5.62644">
        <ele>859.6</ele>
        <time>2026-05-12T11:00:29Z</time>
      </trkpt>
      <trkpt lat="45.91561" lon="5.62642">
        <ele>859.6</ele>
        <time>2026-05-12T11:00:30Z</time>
      </trkpt>
      <trkpt lat="45.91561" lon="5.62641">
        <ele>860</ele>
        <time>2026-05-12T11:00:31Z</time>
      </trkpt>
      <trkpt lat="45.91561" lon="5.62639">
        <ele>860.2</ele>
        <time>2026-05-12T11:00:32Z</time>
      </trkpt>
      <trkpt lat="45.91562" lon="5.62637">
        <ele>860.2</ele>
        <time>2026-05-12T11:00:33Z</time>
      </trkpt>
      <trkpt lat="45.91562" lon="5.62635">
        <ele>860.6</ele>
        <time>2026-05-12T11:00:34Z</time>
      </trkpt>
      <trkpt lat="45.91561" lon="5.62633">
        <ele>860.6</ele>
        <time>2026-05-12T11:00:35Z</time>
      </trkpt>
      <trkpt lat="45.9156" lon="5.62632">
        <ele>860.8</ele>
        <time>2026-05-12T11:00:36Z</time>
      </trkpt>
      <trkpt lat="45.91559" lon="5.62631">
        <ele>860.8</ele>
        <time>2026-05-12T11:00:37Z</time>
      </trkpt>
      <trkpt lat="45.91558" lon="5.62631">
        <ele>861</ele>
        <time>2026-05-12T11:00:38Z</time>
      </trkpt>
      <trkpt lat="45.91559" lon="5.62631">
        <ele>861</ele>
        <time>2026-05-12T11:00:39Z</time>
      </trkpt>
      <trkpt lat="45.91559" lon="5.62631">
        <ele>861.2</ele>
        <time>2026-05-12T11:00:40Z</time>
      </trkpt>
      <trkpt lat="45.91559" lon="5.62631">
        <ele>861.2</ele>
        <time>2026-05-12T11:00:41Z</time>
      </trkpt>
      <trkpt lat="45.91559" lon="5.6263">
        <ele>861.2</ele>
        <time>2026-05-12T11:00:42Z</time>
      </trkpt>
      <trkpt lat="45.91559" lon="5.62631">
        <ele>861.2</ele>
        <time>2026-05-12T11:00:43Z</time>
      </trkpt>
      <trkpt lat="45.91558" lon="5.6263">
        <ele>861.2</ele>
        <time>2026-05-12T11:00:44Z</time>
      </trkpt>
      <trkpt lat="45.9156" lon="5.62631">
        <ele>861.2</ele>
        <time>2026-05-12T11:07:03Z</time>
      </trkpt>
      <trkpt lat="45.9156" lon="5.62632">
        <ele>861.2</ele>
        <time>2026-05-12T11:07:04Z</time>
      </trkpt>
      <trkpt lat="45.9156" lon="5.62632">
        <ele>861.2</ele>
        <time>2026-05-12T11:07:05Z</time>
      </trkpt>
      <trkpt lat="45.9156" lon="5.62632">
        <ele>861.2</ele>
        <time>2026-05-12T11:07:06Z</time>
      </trkpt>
      <trkpt lat="45.9156" lon="5.62634">
        <ele>861</ele>
        <time>2026-05-12T11:07:08Z</time>
      </trkpt>
      <trkpt lat="45.9156" lon="5.62636">
        <ele>861</ele>
        <time>2026-05-12T11:07:09Z</time>
      </trkpt>
      <trkpt lat="45.91561" lon="5.62638">
        <ele>860.6</ele>
        <time>2026-05-12T11:07:10Z</time>
      </trkpt>
      <trkpt lat="45.91561" lon="5.6264">
        <ele>860.2</ele>
        <time>2026-05-12T11:07:11Z</time>
      </trkpt>
      <trkpt lat="45.91561" lon="5.62643">
        <ele>859.8</ele>
        <time>2026-05-12T11:07:12Z</time>
      </trkpt>
      <trkpt lat="45.9156" lon="5.62647">
        <ele>859.4</ele>
        <time>2026-05-12T11:07:13Z</time>
      </trkpt>
      <trkpt lat="45.91559" lon="5.6265">
        <ele>859</ele>
        <time>2026-05-12T11:07:14Z</time>
      </trkpt>
      <trkpt lat="45.91556" lon="5.62653">
        <ele>858.8</ele>
        <time>2026-05-12T11:07:15Z</time>
      </trkpt>
      <trkpt lat="45.91554" lon="5.62655">
        <ele>858.6</ele>
        <time>2026-05-12T11:07:16Z</time>
      </trkpt>
      <trkpt lat="45.91552" lon="5.62657">
        <ele>858.6</ele>
        <time>2026-05-12T11:07:17Z</time>
      </trkpt>
      <trkpt lat="45.9155" lon="5.62657">
        <ele>857.6</ele>
        <time>2026-05-12T11:07:18Z</time>
      </trkpt>
      <trkpt lat="45.91547" lon="5.62656">
        <ele>857.4</ele>
        <time>2026-05-12T11:07:19Z</time>
      </trkpt>
      <trkpt lat="45.91544" lon="5.62655">
        <ele>857.4</ele>
        <time>2026-05-12T11:07:20Z</time>
      </trkpt>
      <trkpt lat="45.91541" lon="5.62654">
        <ele>857.4</ele>
        <time>2026-05-12T11:07:21Z</time>
      </trkpt>
      <trkpt lat="45.91538" lon="5.62654">
        <ele>857.4</ele>
        <time>2026-05-12T11:07:22Z</time>
      </trkpt>
      <trkpt lat="45.91534" lon="5.62653">
        <ele>857</ele>
        <time>2026-05-12T11:07:23Z</time>
      </trkpt>
      <trkpt lat="45.91531" lon="5.62652">
        <ele>857</ele>
        <time>2026-05-12T11:07:24Z</time>
      </trkpt>
      <trkpt lat="45.91528" lon="5.62651">
        <ele>857</ele>
        <time>2026-05-12T11:07:25Z</time>
      </trkpt>
      <trkpt lat="45.91526" lon="5.6265">
        <ele>856.8</ele>
        <time>2026-05-12T11:07:26Z</time>
      </trkpt>
      <trkpt lat="45.91524" lon="5.62648">
        <ele>856.8</ele>
        <time>2026-05-12T11:07:27Z</time>
      </trkpt>
      <trkpt lat="45.91521" lon="5.62647">
        <ele>856.8</ele>
        <time>2026-05-12T11:07:28Z</time>
      </trkpt>
      <trkpt lat="45.91519" lon="5.62646">
        <ele>856.6</ele>
        <time>2026-05-12T11:07:29Z</time>
      </trkpt>
      <trkpt lat="45.91516" lon="5.62645">
        <ele>856.8</ele>
        <time>2026-05-12T11:07:30Z</time>
      </trkpt>
      <trkpt lat="45.91513" lon="5.62644">
        <ele>856.8</ele>
        <time>2026-05-12T11:07:31Z</time>
      </trkpt>
      <trkpt lat="45.9151" lon="5.62642">
        <ele>856.8</ele>
        <time>2026-05-12T11:07:32Z</time>
      </trkpt>
      <trkpt lat="45.91506" lon="5.62639">
        <ele>856.8</ele>
        <time>2026-05-12T11:07:33Z</time>
      </trkpt>
      <trkpt lat="45.91502" lon="5.62637">
        <ele>856.8</ele>
        <time>2026-05-12T11:07:34Z</time>
      </trkpt>
      <trkpt lat="45.91498" lon="5.62635">
        <ele>856.4</ele>
        <time>2026-05-12T11:07:35Z</time>
      </trkpt>
      <trkpt lat="45.91491" lon="5.62634">
        <ele>855.8</ele>
        <time>2026-05-12T11:07:36Z</time>
      </trkpt>
      <trkpt lat="45.91486" lon="5.62632">
        <ele>855.4</ele>
        <time>2026-05-12T11:07:37Z</time>
      </trkpt>
      <trkpt lat="45.91481" lon="5.6263">
        <ele>855</ele>
        <time>2026-05-12T11:07:38Z</time>
      </trkpt>
      <trkpt lat="45.91475" lon="5.62631">
        <ele>855</ele>
        <time>2026-05-12T11:07:39Z</time>
      </trkpt>
      <trkpt lat="45.9147" lon="5.62633">
        <ele>855.2</ele>
        <time>2026-05-12T11:07:40Z</time>
      </trkpt>
      <trkpt lat="45.91466" lon="5.62636">
        <ele>854.8</ele>
        <time>2026-05-12T11:07:41Z</time>
      </trkpt>
      <trkpt lat="45.91463" lon="5.62639">
        <ele>855</ele>
        <time>2026-05-12T11:07:42Z</time>
      </trkpt>
      <trkpt lat="45.9146" lon="5.62642">
        <ele>855.4</ele>
        <time>2026-05-12T11:07:43Z</time>
      </trkpt>
      <trkpt lat="45.91457" lon="5.62644">
        <ele>855.4</ele>
        <time>2026-05-12T11:07:44Z</time>
      </trkpt>
      <trkpt lat="45.91457" lon="5.62644">
        <ele>855.6</ele>
        <time>2026-05-12T11:07:45Z</time>
      </trkpt>
      <trkpt lat="45.91451" lon="5.62647">
        <ele>855.2</ele>
        <time>2026-05-12T11:07:46Z</time>
      </trkpt>
      <trkpt lat="45.91447" lon="5.62647">
        <ele>855.2</ele>
        <time>2026-05-12T11:07:47Z</time>
      </trkpt>
      <trkpt lat="45.91443" lon="5.62648">
        <ele>855.2</ele>
        <time>2026-05-12T11:07:48Z</time>
      </trkpt>
      <trkpt lat="45.91439" lon="5.62648">
        <ele>855.8</ele>
        <time>2026-05-12T11:07:49Z</time>
      </trkpt>
      <trkpt lat="45.91435" lon="5.62649">
        <ele>855.8</ele>
        <time>2026-05-12T11:07:50Z</time>
      </trkpt>
      <trkpt lat="45.91432" lon="5.62649">
        <ele>855.8</ele>
        <time>2026-05-12T11:07:51Z</time>
      </trkpt>
      <trkpt lat="45.91428" lon="5.6265">
        <ele>855.6</ele>
        <time>2026-05-12T11:07:52Z</time>
      </trkpt>
      <trkpt lat="45.91423" lon="5.6265">
        <ele>855.2</ele>
        <time>2026-05-12T11:07:53Z</time>
      </trkpt>
      <trkpt lat="45.91414" lon="5.62651">
        <ele>855.4</ele>
        <time>2026-05-12T11:07:54Z</time>
      </trkpt>
      <trkpt lat="45.91408" lon="5.62651">
        <ele>855.6</ele>
        <time>2026-05-12T11:07:55Z</time>
      </trkpt>
      <trkpt lat="45.91403" lon="5.62651">
        <ele>855.6</ele>
        <time>2026-05-12T11:07:56Z</time>
      </trkpt>
      <trkpt lat="45.91399" lon="5.6265">
        <ele>855.6</ele>
        <time>2026-05-12T11:07:57Z</time>
      </trkpt>
      <trkpt lat="45.91395" lon="5.62649">
        <ele>855.6</ele>
        <time>2026-05-12T11:07:58Z</time>
      </trkpt>
      <trkpt lat="45.91392" lon="5.62649">
        <ele>856</ele>
        <time>2026-05-12T11:07:59Z</time>
      </trkpt>
      <trkpt lat="45.91389" lon="5.62648">
        <ele>856</ele>
        <time>2026-05-12T11:08:00Z</time>
      </trkpt>
      <trkpt lat="45.91386" lon="5.62647">
        <ele>856.4</ele>
        <time>2026-05-12T11:08:01Z</time>
      </trkpt>
      <trkpt lat="45.91384" lon="5.62646">
        <ele>856.4</ele>
        <time>2026-05-12T11:08:02Z</time>
      </trkpt>
      <trkpt lat="45.91381" lon="5.62645">
        <ele>856.6</ele>
        <time>2026-05-12T11:08:03Z</time>
      </trkpt>
      <trkpt lat="45.91376" lon="5.62644">
        <ele>857</ele>
        <time>2026-05-12T11:08:04Z</time>
      </trkpt>
      <trkpt lat="45.91373" lon="5.62642">
        <ele>857</ele>
        <time>2026-05-12T11:08:05Z</time>
      </trkpt>
      <trkpt lat="45.9137" lon="5.62639">
        <ele>857</ele>
        <time>2026-05-12T11:08:06Z</time>
      </trkpt>
      <trkpt lat="45.91366" lon="5.62636">
        <ele>857</ele>
        <time>2026-05-12T11:08:07Z</time>
      </trkpt>
      <trkpt lat="45.91362" lon="5.62631">
        <ele>857</ele>
        <time>2026-05-12T11:08:08Z</time>
      </trkpt>
      <trkpt lat="45.91358" lon="5.62626">
        <ele>857</ele>
        <time>2026-05-12T11:08:09Z</time>
      </trkpt>
      <trkpt lat="45.91353" lon="5.6262">
        <ele>856.6</ele>
        <time>2026-05-12T11:08:10Z</time>
      </trkpt>
      <trkpt lat="45.91349" lon="5.62615">
        <ele>856.2</ele>
        <time>2026-05-12T11:08:11Z</time>
      </trkpt>
      <trkpt lat="45.91343" lon="5.6261">
        <ele>855.2</ele>
        <time>2026-05-12T11:08:12Z</time>
      </trkpt>
      <trkpt lat="45.91338" lon="5.62606">
        <ele>854.4</ele>
        <time>2026-05-12T11:08:13Z</time>
      </trkpt>
      <trkpt lat="45.91333" lon="5.62602">
        <ele>854.8</ele>
        <time>2026-05-12T11:08:14Z</time>
      </trkpt>
      <trkpt lat="45.91327" lon="5.626">
        <ele>854.8</ele>
        <time>2026-05-12T11:08:15Z</time>
      </trkpt>
      <trkpt lat="45.91322" lon="5.62597">
        <ele>854.8</ele>
        <time>2026-05-12T11:08:16Z</time>
      </trkpt>
      <trkpt lat="45.91318" lon="5.62595">
        <ele>854.8</ele>
        <time>2026-05-12T11:08:17Z</time>
      </trkpt>
      <trkpt lat="45.91314" lon="5.62593">
        <ele>855</ele>
        <time>2026-05-12T11:08:18Z</time>
      </trkpt>
      <trkpt lat="45.91309" lon="5.62592">
        <ele>855.4</ele>
        <time>2026-05-12T11:08:19Z</time>
      </trkpt>
      <trkpt lat="45.91309" lon="5.62592">
        <ele>855.4</ele>
        <time>2026-05-12T11:08:20Z</time>
      </trkpt>
      <trkpt lat="45.91306" lon="5.6259">
        <ele>855.4</ele>
        <time>2026-05-12T11:08:21Z</time>
      </trkpt>
      <trkpt lat="45.91303" lon="5.62589">
        <ele>855.6</ele>
        <time>2026-05-12T11:08:22Z</time>
      </trkpt>
      <trkpt lat="45.91299" lon="5.62587">
        <ele>855.6</ele>
        <time>2026-05-12T11:08:23Z</time>
      </trkpt>
      <trkpt lat="45.91297" lon="5.62586">
        <ele>855.6</ele>
        <time>2026-05-12T11:08:24Z</time>
      </trkpt>
      <trkpt lat="45.91291" lon="5.62585">
        <ele>855.6</ele>
        <time>2026-05-12T11:08:25Z</time>
      </trkpt>
      <trkpt lat="45.91286" lon="5.62583">
        <ele>855.4</ele>
        <time>2026-05-12T11:08:26Z</time>
      </trkpt>
      <trkpt lat="45.91281" lon="5.6258">
        <ele>855.4</ele>
        <time>2026-05-12T11:08:27Z</time>
      </trkpt>
      <trkpt lat="45.91275" lon="5.62578">
        <ele>855.4</ele>
        <time>2026-05-12T11:08:28Z</time>
      </trkpt>
      <trkpt lat="45.9127" lon="5.62576">
        <ele>855</ele>
        <time>2026-05-12T11:08:29Z</time>
      </trkpt>
      <trkpt lat="45.91265" lon="5.62574">
        <ele>855</ele>
        <time>2026-05-12T11:08:30Z</time>
      </trkpt>
      <trkpt lat="45.91258" lon="5.62571">
        <ele>854.8</ele>
        <time>2026-05-12T11:08:31Z</time>
      </trkpt>
      <trkpt lat="45.91251" lon="5.62568">
        <ele>854.8</ele>
        <time>2026-05-12T11:08:32Z</time>
      </trkpt>
      <trkpt lat="45.91245" lon="5.62565">
        <ele>854.2</ele>
        <time>2026-05-12T11:08:33Z</time>
      </trkpt>
      <trkpt lat="45.91239" lon="5.62562">
        <ele>853.6</ele>
        <time>2026-05-12T11:08:34Z</time>
      </trkpt>
      <trkpt lat="45.91231" lon="5.62564">
        <ele>853.2</ele>
        <time>2026-05-12T11:08:35Z</time>
      </trkpt>
      <trkpt lat="45.91224" lon="5.62567">
        <ele>852.6</ele>
        <time>2026-05-12T11:08:36Z</time>
      </trkpt>
      <trkpt lat="45.91217" lon="5.62572">
        <ele>852</ele>
        <time>2026-05-12T11:08:37Z</time>
      </trkpt>
      <trkpt lat="45.91211" lon="5.62581">
        <ele>851.4</ele>
        <time>2026-05-12T11:08:38Z</time>
      </trkpt>
      <trkpt lat="45.91205" lon="5.62589">
        <ele>850.4</ele>
        <time>2026-05-12T11:08:39Z</time>
      </trkpt>
      <trkpt lat="45.91199" lon="5.62596">
        <ele>849.6</ele>
        <time>2026-05-12T11:08:40Z</time>
      </trkpt>
      <trkpt lat="45.91188" lon="5.62602">
        <ele>848.8</ele>
        <time>2026-05-12T11:08:41Z</time>
      </trkpt>
      <trkpt lat="45.9118" lon="5.62611">
        <ele>848</ele>
        <time>2026-05-12T11:08:42Z</time>
      </trkpt>
      <trkpt lat="45.91173" lon="5.62615">
        <ele>847.6</ele>
        <time>2026-05-12T11:08:43Z</time>
      </trkpt>
      <trkpt lat="45.91166" lon="5.62619">
        <ele>847.2</ele>
        <time>2026-05-12T11:08:44Z</time>
      </trkpt>
      <trkpt lat="45.91161" lon="5.62622">
        <ele>847</ele>
        <time>2026-05-12T11:08:45Z</time>
      </trkpt>
      <trkpt lat="45.91155" lon="5.62624">
        <ele>846.6</ele>
        <time>2026-05-12T11:08:46Z</time>
      </trkpt>
      <trkpt lat="45.91149" lon="5.62623">
        <ele>846.6</ele>
        <time>2026-05-12T11:08:47Z</time>
      </trkpt>
      <trkpt lat="45.91144" lon="5.62623">
        <ele>846.6</ele>
        <time>2026-05-12T11:08:48Z</time>
      </trkpt>
      <trkpt lat="45.9114" lon="5.62621">
        <ele>846.6</ele>
        <time>2026-05-12T11:08:49Z</time>
      </trkpt>
      <trkpt lat="45.91137" lon="5.62619">
        <ele>846.2</ele>
        <time>2026-05-12T11:08:50Z</time>
      </trkpt>
      <trkpt lat="45.91134" lon="5.62617">
        <ele>846</ele>
        <time>2026-05-12T11:08:51Z</time>
      </trkpt>
      <trkpt lat="45.9113" lon="5.62615">
        <ele>846</ele>
        <time>2026-05-12T11:08:52Z</time>
      </trkpt>
      <trkpt lat="45.91126" lon="5.62614">
        <ele>846</ele>
        <time>2026-05-12T11:08:53Z</time>
      </trkpt>
      <trkpt lat="45.91123" lon="5.62613">
        <ele>845.8</ele>
        <time>2026-05-12T11:08:54Z</time>
      </trkpt>
      <trkpt lat="45.91119" lon="5.62611">
        <ele>845.8</ele>
        <time>2026-05-12T11:08:55Z</time>
      </trkpt>
      <trkpt lat="45.91116" lon="5.6261">
        <ele>845.8</ele>
        <time>2026-05-12T11:08:56Z</time>
      </trkpt>
      <trkpt lat="45.91113" lon="5.62609">
        <ele>845.4</ele>
        <time>2026-05-12T11:08:57Z</time>
      </trkpt>
      <trkpt lat="45.91109" lon="5.62608">
        <ele>845.4</ele>
        <time>2026-05-12T11:08:58Z</time>
      </trkpt>
      <trkpt lat="45.91105" lon="5.62606">
        <ele>845.4</ele>
        <time>2026-05-12T11:08:59Z</time>
      </trkpt>
      <trkpt lat="45.91102" lon="5.62605">
        <ele>845.4</ele>
        <time>2026-05-12T11:09:00Z</time>
      </trkpt>
      <trkpt lat="45.91098" lon="5.62604">
        <ele>845.4</ele>
        <time>2026-05-12T11:09:01Z</time>
      </trkpt>
      <trkpt lat="45.91094" lon="5.62603">
        <ele>844.8</ele>
        <time>2026-05-12T11:09:02Z</time>
      </trkpt>
      <trkpt lat="45.91091" lon="5.62603">
        <ele>844.4</ele>
        <time>2026-05-12T11:09:03Z</time>
      </trkpt>
      <trkpt lat="45.91087" lon="5.62604">
        <ele>844.4</ele>
        <time>2026-05-12T11:09:04Z</time>
      </trkpt>
      <trkpt lat="45.91082" lon="5.62603">
        <ele>844.4</ele>
        <time>2026-05-12T11:09:05Z</time>
      </trkpt>
      <trkpt lat="45.91077" lon="5.62603">
        <ele>844.4</ele>
        <time>2026-05-12T11:09:06Z</time>
      </trkpt>
      <trkpt lat="45.91072" lon="5.62605">
        <ele>844.4</ele>
        <time>2026-05-12T11:09:07Z</time>
      </trkpt>
      <trkpt lat="45.91065" lon="5.62607">
        <ele>844.4</ele>
        <time>2026-05-12T11:09:08Z</time>
      </trkpt>
      <trkpt lat="45.9106" lon="5.62611">
        <ele>844.2</ele>
        <time>2026-05-12T11:09:09Z</time>
      </trkpt>
      <trkpt lat="45.91053" lon="5.62615">
        <ele>844.2</ele>
        <time>2026-05-12T11:09:10Z</time>
      </trkpt>
      <trkpt lat="45.91049" lon="5.62619">
        <ele>844.2</ele>
        <time>2026-05-12T11:09:11Z</time>
      </trkpt>
      <trkpt lat="45.91046" lon="5.62623">
        <ele>844.2</ele>
        <time>2026-05-12T11:09:12Z</time>
      </trkpt>
      <trkpt lat="45.91042" lon="5.62628">
        <ele>844.2</ele>
        <time>2026-05-12T11:09:13Z</time>
      </trkpt>
      <trkpt lat="45.91038" lon="5.62632">
        <ele>844.2</ele>
        <time>2026-05-12T11:09:14Z</time>
      </trkpt>
      <trkpt lat="45.91035" lon="5.62637">
        <ele>844.2</ele>
        <time>2026-05-12T11:09:15Z</time>
      </trkpt>
      <trkpt lat="45.91031" lon="5.62641">
        <ele>844.6</ele>
        <time>2026-05-12T11:09:16Z</time>
      </trkpt>
      <trkpt lat="45.91028" lon="5.62644">
        <ele>844.6</ele>
        <time>2026-05-12T11:09:17Z</time>
      </trkpt>
      <trkpt lat="45.91026" lon="5.62649">
        <ele>844.6</ele>
        <time>2026-05-12T11:09:18Z</time>
      </trkpt>
      <trkpt lat="45.91023" lon="5.62653">
        <ele>845</ele>
        <time>2026-05-12T11:09:19Z</time>
      </trkpt>
      <trkpt lat="45.9102" lon="5.62657">
        <ele>845</ele>
        <time>2026-05-12T11:09:20Z</time>
      </trkpt>
      <trkpt lat="45.91017" lon="5.6266">
        <ele>845.2</ele>
        <time>2026-05-12T11:09:21Z</time>
      </trkpt>
      <trkpt lat="45.91013" lon="5.62663">
        <ele>845.2</ele>
        <time>2026-05-12T11:09:22Z</time>
      </trkpt>
      <trkpt lat="45.9101" lon="5.62664">
        <ele>845.6</ele>
        <time>2026-05-12T11:09:23Z</time>
      </trkpt>
      <trkpt lat="45.9101" lon="5.62664">
        <ele>845.6</ele>
        <time>2026-05-12T11:09:24Z</time>
      </trkpt>
      <trkpt lat="45.91008" lon="5.62664">
        <ele>845.8</ele>
        <time>2026-05-12T11:09:25Z</time>
      </trkpt>
      <trkpt lat="45.91007" lon="5.62666">
        <ele>845.8</ele>
        <time>2026-05-12T11:09:26Z</time>
      </trkpt>
      <trkpt lat="45.91005" lon="5.62667">
        <ele>846.2</ele>
        <time>2026-05-12T11:09:27Z</time>
      </trkpt>
      <trkpt lat="45.91003" lon="5.62667">
        <ele>846.6</ele>
        <time>2026-05-12T11:09:28Z</time>
      </trkpt>
      <trkpt lat="45.91002" lon="5.62667">
        <ele>846.6</ele>
        <time>2026-05-12T11:09:29Z</time>
      </trkpt>
      <trkpt lat="45.91" lon="5.62668">
        <ele>846.6</ele>
        <time>2026-05-12T11:09:30Z</time>
      </trkpt>
      <trkpt lat="45.90998" lon="5.62669">
        <ele>846.6</ele>
        <time>2026-05-12T11:09:31Z</time>
      </trkpt>
      <trkpt lat="45.90996" lon="5.62672">
        <ele>846.6</ele>
        <time>2026-05-12T11:09:32Z</time>
      </trkpt>
      <trkpt lat="45.90994" lon="5.62675">
        <ele>846.6</ele>
        <time>2026-05-12T11:09:33Z</time>
      </trkpt>
      <trkpt lat="45.90991" lon="5.62678">
        <ele>846.2</ele>
        <time>2026-05-12T11:09:34Z</time>
      </trkpt>
      <trkpt lat="45.90989" lon="5.62682">
        <ele>846.2</ele>
        <time>2026-05-12T11:09:35Z</time>
      </trkpt>
      <trkpt lat="45.90987" lon="5.62686">
        <ele>846</ele>
        <time>2026-05-12T11:09:36Z</time>
      </trkpt>
      <trkpt lat="45.90984" lon="5.62691">
        <ele>845.6</ele>
        <time>2026-05-12T11:09:37Z</time>
      </trkpt>
      <trkpt lat="45.90981" lon="5.62697">
        <ele>845.4</ele>
        <time>2026-05-12T11:09:38Z</time>
      </trkpt>
      <trkpt lat="45.90979" lon="5.62704">
        <ele>844.8</ele>
        <time>2026-05-12T11:09:39Z</time>
      </trkpt>
      <trkpt lat="45.90976" lon="5.62711">
        <ele>844.6</ele>
        <time>2026-05-12T11:09:40Z</time>
      </trkpt>
      <trkpt lat="45.90974" lon="5.62718">
        <ele>844</ele>
        <time>2026-05-12T11:09:41Z</time>
      </trkpt>
      <trkpt lat="45.90971" lon="5.62726">
        <ele>843.4</ele>
        <time>2026-05-12T11:09:42Z</time>
      </trkpt>
      <trkpt lat="45.90969" lon="5.62734">
        <ele>843</ele>
        <time>2026-05-12T11:09:43Z</time>
      </trkpt>
      <trkpt lat="45.90966" lon="5.62743">
        <ele>842.4</ele>
        <time>2026-05-12T11:09:44Z</time>
      </trkpt>
      <trkpt lat="45.90963" lon="5.62751">
        <ele>841.8</ele>
        <time>2026-05-12T11:09:45Z</time>
      </trkpt>
      <trkpt lat="45.90958" lon="5.62761">
        <ele>841.6</ele>
        <time>2026-05-12T11:09:46Z</time>
      </trkpt>
      <trkpt lat="45.90955" lon="5.62771">
        <ele>841.6</ele>
        <time>2026-05-12T11:09:47Z</time>
      </trkpt>
      <trkpt lat="45.90952" lon="5.6278">
        <ele>840.8</ele>
        <time>2026-05-12T11:09:48Z</time>
      </trkpt>
      <trkpt lat="45.90948" lon="5.6279">
        <ele>840.6</ele>
        <time>2026-05-12T11:09:49Z</time>
      </trkpt>
      <trkpt lat="45.90943" lon="5.628">
        <ele>840</ele>
        <time>2026-05-12T11:09:50Z</time>
      </trkpt>
      <trkpt lat="45.9094" lon="5.6281">
        <ele>839.4</ele>
        <time>2026-05-12T11:09:51Z</time>
      </trkpt>
      <trkpt lat="45.90937" lon="5.62821">
        <ele>838.8</ele>
        <time>2026-05-12T11:09:52Z</time>
      </trkpt>
      <trkpt lat="45.90935" lon="5.62832">
        <ele>838.4</ele>
        <time>2026-05-12T11:09:53Z</time>
      </trkpt>
      <trkpt lat="45.90936" lon="5.62843">
        <ele>838</ele>
        <time>2026-05-12T11:09:54Z</time>
      </trkpt>
      <trkpt lat="45.90937" lon="5.62854">
        <ele>837.4</ele>
        <time>2026-05-12T11:09:55Z</time>
      </trkpt>
      <trkpt lat="45.9094" lon="5.62862">
        <ele>837</ele>
        <time>2026-05-12T11:09:56Z</time>
      </trkpt>
      <trkpt lat="45.90942" lon="5.62869">
        <ele>836.8</ele>
        <time>2026-05-12T11:09:57Z</time>
      </trkpt>
      <trkpt lat="45.90944" lon="5.62875">
        <ele>836.8</ele>
        <time>2026-05-12T11:09:58Z</time>
      </trkpt>
      <trkpt lat="45.90942" lon="5.62882">
        <ele>836.6</ele>
        <time>2026-05-12T11:09:59Z</time>
      </trkpt>
      <trkpt lat="45.9094" lon="5.62885">
        <ele>836.6</ele>
        <time>2026-05-12T11:10:00Z</time>
      </trkpt>
      <trkpt lat="45.90937" lon="5.62887">
        <ele>836.8</ele>
        <time>2026-05-12T11:10:01Z</time>
      </trkpt>
      <trkpt lat="45.90935" lon="5.62887">
        <ele>837.2</ele>
        <time>2026-05-12T11:10:02Z</time>
      </trkpt>
      <trkpt lat="45.90933" lon="5.62886">
        <ele>837.2</ele>
        <time>2026-05-12T11:10:03Z</time>
      </trkpt>
      <trkpt lat="45.90931" lon="5.62887">
        <ele>837.4</ele>
        <time>2026-05-12T11:10:04Z</time>
      </trkpt>
      <trkpt lat="45.90929" lon="5.62886">
        <ele>837.8</ele>
        <time>2026-05-12T11:10:05Z</time>
      </trkpt>
      <trkpt lat="45.90927" lon="5.62886">
        <ele>838.2</ele>
        <time>2026-05-12T11:10:06Z</time>
      </trkpt>
      <trkpt lat="45.90925" lon="5.62886">
        <ele>838.4</ele>
        <time>2026-05-12T11:10:07Z</time>
      </trkpt>
      <trkpt lat="45.90923" lon="5.62886">
        <ele>838.8</ele>
        <time>2026-05-12T11:10:08Z</time>
      </trkpt>
      <trkpt lat="45.90921" lon="5.62886">
        <ele>839.2</ele>
        <time>2026-05-12T11:10:09Z</time>
      </trkpt>
      <trkpt lat="45.90919" lon="5.62886">
        <ele>839.4</ele>
        <time>2026-05-12T11:10:10Z</time>
      </trkpt>
      <trkpt lat="45.90917" lon="5.62885">
        <ele>839.6</ele>
        <time>2026-05-12T11:10:11Z</time>
      </trkpt>
      <trkpt lat="45.90915" lon="5.62885">
        <ele>840.2</ele>
        <time>2026-05-12T11:10:12Z</time>
      </trkpt>
      <trkpt lat="45.90914" lon="5.62885">
        <ele>840.6</ele>
        <time>2026-05-12T11:10:13Z</time>
      </trkpt>
      <trkpt lat="45.90912" lon="5.62885">
        <ele>840.6</ele>
        <time>2026-05-12T11:10:14Z</time>
      </trkpt>
      <trkpt lat="45.90911" lon="5.62885">
        <ele>840.8</ele>
        <time>2026-05-12T11:10:15Z</time>
      </trkpt>
      <trkpt lat="45.90909" lon="5.62884">
        <ele>841.2</ele>
        <time>2026-05-12T11:10:16Z</time>
      </trkpt>
      <trkpt lat="45.90909" lon="5.62885">
        <ele>841.2</ele>
        <time>2026-05-12T11:10:17Z</time>
      </trkpt>
      <trkpt lat="45.90907" lon="5.62884">
        <ele>841.8</ele>
        <time>2026-05-12T11:10:18Z</time>
      </trkpt>
      <trkpt lat="45.90906" lon="5.62884">
        <ele>842</ele>
        <time>2026-05-12T11:10:19Z</time>
      </trkpt>
      <trkpt lat="45.90904" lon="5.62884">
        <ele>842</ele>
        <time>2026-05-12T11:10:20Z</time>
      </trkpt>
      <trkpt lat="45.90902" lon="5.62884">
        <ele>842.4</ele>
        <time>2026-05-12T11:10:21Z</time>
      </trkpt>
      <trkpt lat="45.909" lon="5.62885">
        <ele>842.6</ele>
        <time>2026-05-12T11:10:22Z</time>
      </trkpt>
      <trkpt lat="45.90899" lon="5.62885">
        <ele>842.6</ele>
        <time>2026-05-12T11:10:23Z</time>
      </trkpt>
      <trkpt lat="45.90898" lon="5.62885">
        <ele>843</ele>
        <time>2026-05-12T11:10:24Z</time>
      </trkpt>
      <trkpt lat="45.90896" lon="5.62885">
        <ele>843</ele>
        <time>2026-05-12T11:10:25Z</time>
      </trkpt>
      <trkpt lat="45.90894" lon="5.62886">
        <ele>843</ele>
        <time>2026-05-12T11:10:26Z</time>
      </trkpt>
      <trkpt lat="45.90892" lon="5.62886">
        <ele>843.4</ele>
        <time>2026-05-12T11:10:27Z</time>
      </trkpt>
      <trkpt lat="45.90891" lon="5.62887">
        <ele>843.4</ele>
        <time>2026-05-12T11:10:28Z</time>
      </trkpt>
      <trkpt lat="45.9089" lon="5.62887">
        <ele>843.6</ele>
        <time>2026-05-12T11:10:29Z</time>
      </trkpt>
      <trkpt lat="45.90888" lon="5.62888">
        <ele>843.8</ele>
        <time>2026-05-12T11:10:30Z</time>
      </trkpt>
      <trkpt lat="45.90887" lon="5.62889">
        <ele>844.2</ele>
        <time>2026-05-12T11:10:31Z</time>
      </trkpt>
      <trkpt lat="45.90887" lon="5.6289">
        <ele>844.4</ele>
        <time>2026-05-12T11:10:32Z</time>
      </trkpt>
      <trkpt lat="45.90886" lon="5.62892">
        <ele>844.8</ele>
        <time>2026-05-12T11:10:33Z</time>
      </trkpt>
      <trkpt lat="45.90885" lon="5.62893">
        <ele>844.8</ele>
        <time>2026-05-12T11:10:34Z</time>
      </trkpt>
      <trkpt lat="45.90883" lon="5.62894">
        <ele>845.2</ele>
        <time>2026-05-12T11:10:35Z</time>
      </trkpt>
      <trkpt lat="45.90882" lon="5.62895">
        <ele>845.2</ele>
        <time>2026-05-12T11:10:36Z</time>
      </trkpt>
      <trkpt lat="45.90881" lon="5.62896">
        <ele>845.6</ele>
        <time>2026-05-12T11:10:37Z</time>
      </trkpt>
      <trkpt lat="45.9088" lon="5.62896">
        <ele>845.6</ele>
        <time>2026-05-12T11:10:38Z</time>
      </trkpt>
      <trkpt lat="45.90879" lon="5.62896">
        <ele>846</ele>
        <time>2026-05-12T11:10:39Z</time>
      </trkpt>
      <trkpt lat="45.90876" lon="5.62897">
        <ele>846</ele>
        <time>2026-05-12T11:10:40Z</time>
      </trkpt>
      <trkpt lat="45.90875" lon="5.62898">
        <ele>846.2</ele>
        <time>2026-05-12T11:10:41Z</time>
      </trkpt>
      <trkpt lat="45.90876" lon="5.62898">
        <ele>846.2</ele>
        <time>2026-05-12T11:10:42Z</time>
      </trkpt>
      <trkpt lat="45.90875" lon="5.62899">
        <ele>846.6</ele>
        <time>2026-05-12T11:10:43Z</time>
      </trkpt>
      <trkpt lat="45.90874" lon="5.62899">
        <ele>846.6</ele>
        <time>2026-05-12T11:10:44Z</time>
      </trkpt>
      <trkpt lat="45.90872" lon="5.629">
        <ele>846.8</ele>
        <time>2026-05-12T11:10:45Z</time>
      </trkpt>
      <trkpt lat="45.9087" lon="5.62901">
        <ele>846.8</ele>
        <time>2026-05-12T11:10:46Z</time>
      </trkpt>
      <trkpt lat="45.90867" lon="5.62902">
        <ele>847</ele>
        <time>2026-05-12T11:10:47Z</time>
      </trkpt>
      <trkpt lat="45.90866" lon="5.62903">
        <ele>847.4</ele>
        <time>2026-05-12T11:10:48Z</time>
      </trkpt>
      <trkpt lat="45.90866" lon="5.62905">
        <ele>847.6</ele>
        <time>2026-05-12T11:10:49Z</time>
      </trkpt>
      <trkpt lat="45.90865" lon="5.62906">
        <ele>847.6</ele>
        <time>2026-05-12T11:10:50Z</time>
      </trkpt>
      <trkpt lat="45.90864" lon="5.62907">
        <ele>848</ele>
        <time>2026-05-12T11:10:51Z</time>
      </trkpt>
      <trkpt lat="45.90863" lon="5.62908">
        <ele>848</ele>
        <time>2026-05-12T11:10:52Z</time>
      </trkpt>
      <trkpt lat="45.90861" lon="5.62909">
        <ele>848.2</ele>
        <time>2026-05-12T11:10:53Z</time>
      </trkpt>
      <trkpt lat="45.9086" lon="5.6291">
        <ele>848.2</ele>
        <time>2026-05-12T11:10:54Z</time>
      </trkpt>
      <trkpt lat="45.90859" lon="5.6291">
        <ele>848.2</ele>
        <time>2026-05-12T11:10:55Z</time>
      </trkpt>
      <trkpt lat="45.90857" lon="5.62911">
        <ele>848.6</ele>
        <time>2026-05-12T11:10:56Z</time>
      </trkpt>
      <trkpt lat="45.90856" lon="5.62912">
        <ele>848.6</ele>
        <time>2026-05-12T11:10:57Z</time>
      </trkpt>
      <trkpt lat="45.90854" lon="5.62913">
        <ele>849</ele>
        <time>2026-05-12T11:10:58Z</time>
      </trkpt>
      <trkpt lat="45.90852" lon="5.62914">
        <ele>849</ele>
        <time>2026-05-12T11:10:59Z</time>
      </trkpt>
      <trkpt lat="45.90851" lon="5.62915">
        <ele>849</ele>
        <time>2026-05-12T11:11:00Z</time>
      </trkpt>
      <trkpt lat="45.90849" lon="5.62916">
        <ele>849.4</ele>
        <time>2026-05-12T11:11:01Z</time>
      </trkpt>
      <trkpt lat="45.90849" lon="5.62917">
        <ele>849.4</ele>
        <time>2026-05-12T11:11:02Z</time>
      </trkpt>
      <trkpt lat="45.90848" lon="5.62918">
        <ele>849.6</ele>
        <time>2026-05-12T11:11:03Z</time>
      </trkpt>
      <trkpt lat="45.90846" lon="5.62919">
        <ele>849.6</ele>
        <time>2026-05-12T11:11:04Z</time>
      </trkpt>
      <trkpt lat="45.90846" lon="5.62919">
        <ele>849.8</ele>
        <time>2026-05-12T11:11:05Z</time>
      </trkpt>
      <trkpt lat="45.90845" lon="5.6292">
        <ele>849.8</ele>
        <time>2026-05-12T11:11:06Z</time>
      </trkpt>
      <trkpt lat="45.90844" lon="5.62921">
        <ele>850.2</ele>
        <time>2026-05-12T11:11:07Z</time>
      </trkpt>
      <trkpt lat="45.90843" lon="5.62922">
        <ele>850.2</ele>
        <time>2026-05-12T11:11:08Z</time>
      </trkpt>
      <trkpt lat="45.90842" lon="5.62924">
        <ele>850.4</ele>
        <time>2026-05-12T11:11:09Z</time>
      </trkpt>
      <trkpt lat="45.90842" lon="5.62925">
        <ele>850.8</ele>
        <time>2026-05-12T11:11:10Z</time>
      </trkpt>
      <trkpt lat="45.90841" lon="5.62926">
        <ele>851</ele>
        <time>2026-05-12T11:11:11Z</time>
      </trkpt>
      <trkpt lat="45.90841" lon="5.62926">
        <ele>851.2</ele>
        <time>2026-05-12T11:11:12Z</time>
      </trkpt>
      <trkpt lat="45.90839" lon="5.62927">
        <ele>851.2</ele>
        <time>2026-05-12T11:11:13Z</time>
      </trkpt>
      <trkpt lat="45.90837" lon="5.62928">
        <ele>851.4</ele>
        <time>2026-05-12T11:11:14Z</time>
      </trkpt>
      <trkpt lat="45.90836" lon="5.62929">
        <ele>851.4</ele>
        <time>2026-05-12T11:11:15Z</time>
      </trkpt>
      <trkpt lat="45.90835" lon="5.6293">
        <ele>851.8</ele>
        <time>2026-05-12T11:11:16Z</time>
      </trkpt>
      <trkpt lat="45.90834" lon="5.62932">
        <ele>851.8</ele>
        <time>2026-05-12T11:11:17Z</time>
      </trkpt>
      <trkpt lat="45.90833" lon="5.62934">
        <ele>852</ele>
        <time>2026-05-12T11:11:18Z</time>
      </trkpt>
      <trkpt lat="45.90832" lon="5.62935">
        <ele>852</ele>
        <time>2026-05-12T11:11:19Z</time>
      </trkpt>
      <trkpt lat="45.9083" lon="5.62936">
        <ele>852</ele>
        <time>2026-05-12T11:11:20Z</time>
      </trkpt>
      <trkpt lat="45.90828" lon="5.62937">
        <ele>852.4</ele>
        <time>2026-05-12T11:11:21Z</time>
      </trkpt>
      <trkpt lat="45.90827" lon="5.62938">
        <ele>852.8</ele>
        <time>2026-05-12T11:11:22Z</time>
      </trkpt>
      <trkpt lat="45.90826" lon="5.62938">
        <ele>852.8</ele>
        <time>2026-05-12T11:11:23Z</time>
      </trkpt>
      <trkpt lat="45.90824" lon="5.62939">
        <ele>853.2</ele>
        <time>2026-05-12T11:11:24Z</time>
      </trkpt>
      <trkpt lat="45.90822" lon="5.6294">
        <ele>853.4</ele>
        <time>2026-05-12T11:11:25Z</time>
      </trkpt>
      <trkpt lat="45.9082" lon="5.6294">
        <ele>853.4</ele>
        <time>2026-05-12T11:11:26Z</time>
      </trkpt>
      <trkpt lat="45.90818" lon="5.62942">
        <ele>853.8</ele>
        <time>2026-05-12T11:11:27Z</time>
      </trkpt>
      <trkpt lat="45.90815" lon="5.62943">
        <ele>853.8</ele>
        <time>2026-05-12T11:11:28Z</time>
      </trkpt>
      <trkpt lat="45.90814" lon="5.62944">
        <ele>853.8</ele>
        <time>2026-05-12T11:11:29Z</time>
      </trkpt>
      <trkpt lat="45.90811" lon="5.62945">
        <ele>854</ele>
        <time>2026-05-12T11:11:30Z</time>
      </trkpt>
      <trkpt lat="45.90809" lon="5.62947">
        <ele>854</ele>
        <time>2026-05-12T11:11:31Z</time>
      </trkpt>
      <trkpt lat="45.90807" lon="5.62948">
        <ele>854</ele>
        <time>2026-05-12T11:11:32Z</time>
      </trkpt>
      <trkpt lat="45.90806" lon="5.62948">
        <ele>853</ele>
        <time>2026-05-12T11:11:33Z</time>
      </trkpt>
      <trkpt lat="45.90805" lon="5.62949">
        <ele>853.4</ele>
        <time>2026-05-12T11:11:34Z</time>
      </trkpt>
      <trkpt lat="45.90803" lon="5.62949">
        <ele>853.6</ele>
        <time>2026-05-12T11:11:35Z</time>
      </trkpt>
      <trkpt lat="45.908" lon="5.62949">
        <ele>854</ele>
        <time>2026-05-12T11:11:36Z</time>
      </trkpt>
      <trkpt lat="45.90797" lon="5.62949">
        <ele>854</ele>
        <time>2026-05-12T11:11:37Z</time>
      </trkpt>
      <trkpt lat="45.90794" lon="5.62948">
        <ele>854.2</ele>
        <time>2026-05-12T11:11:38Z</time>
      </trkpt>
      <trkpt lat="45.90791" lon="5.62948">
        <ele>854.4</ele>
        <time>2026-05-12T11:11:39Z</time>
      </trkpt>
      <trkpt lat="45.90789" lon="5.62949">
        <ele>854.4</ele>
        <time>2026-05-12T11:11:40Z</time>
      </trkpt>
      <trkpt lat="45.90788" lon="5.6295">
        <ele>854.4</ele>
        <time>2026-05-12T11:11:41Z</time>
      </trkpt>
      <trkpt lat="45.90786" lon="5.62952">
        <ele>854.4</ele>
        <time>2026-05-12T11:11:42Z</time>
      </trkpt>
      <trkpt lat="45.90784" lon="5.62952">
        <ele>854.4</ele>
        <time>2026-05-12T11:11:43Z</time>
      </trkpt>
      <trkpt lat="45.90783" lon="5.62953">
        <ele>854.4</ele>
        <time>2026-05-12T11:11:44Z</time>
      </trkpt>
      <trkpt lat="45.90781" lon="5.62954">
        <ele>854.6</ele>
        <time>2026-05-12T11:11:45Z</time>
      </trkpt>
      <trkpt lat="45.90778" lon="5.62955">
        <ele>855</ele>
        <time>2026-05-12T11:11:46Z</time>
      </trkpt>
      <trkpt lat="45.90777" lon="5.62956">
        <ele>855</ele>
        <time>2026-05-12T11:11:47Z</time>
      </trkpt>
      <trkpt lat="45.90775" lon="5.62957">
        <ele>855</ele>
        <time>2026-05-12T11:11:48Z</time>
      </trkpt>
      <trkpt lat="45.90773" lon="5.62958">
        <ele>855</ele>
        <time>2026-05-12T11:11:49Z</time>
      </trkpt>
      <trkpt lat="45.90771" lon="5.62958">
        <ele>855</ele>
        <time>2026-05-12T11:11:50Z</time>
      </trkpt>
      <trkpt lat="45.90768" lon="5.62959">
        <ele>855</ele>
        <time>2026-05-12T11:11:51Z</time>
      </trkpt>
      <trkpt lat="45.90765" lon="5.6296">
        <ele>855</ele>
        <time>2026-05-12T11:11:52Z</time>
      </trkpt>
      <trkpt lat="45.90762" lon="5.6296">
        <ele>855.2</ele>
        <time>2026-05-12T11:11:53Z</time>
      </trkpt>
      <trkpt lat="45.90758" lon="5.62961">
        <ele>855.2</ele>
        <time>2026-05-12T11:11:54Z</time>
      </trkpt>
      <trkpt lat="45.90756" lon="5.62961">
        <ele>855.6</ele>
        <time>2026-05-12T11:11:55Z</time>
      </trkpt>
      <trkpt lat="45.90754" lon="5.6296">
        <ele>855.6</ele>
        <time>2026-05-12T11:11:56Z</time>
      </trkpt>
      <trkpt lat="45.90751" lon="5.62959">
        <ele>855.6</ele>
        <time>2026-05-12T11:11:57Z</time>
      </trkpt>
      <trkpt lat="45.90748" lon="5.6296">
        <ele>855.2</ele>
        <time>2026-05-12T11:11:58Z</time>
      </trkpt>
      <trkpt lat="45.90744" lon="5.62961">
        <ele>855.2</ele>
        <time>2026-05-12T11:11:59Z</time>
      </trkpt>
      <trkpt lat="45.90741" lon="5.62962">
        <ele>855.2</ele>
        <time>2026-05-12T11:12:00Z</time>
      </trkpt>
      <trkpt lat="45.90739" lon="5.62963">
        <ele>855.2</ele>
        <time>2026-05-12T11:12:01Z</time>
      </trkpt>
      <trkpt lat="45.90737" lon="5.62964">
        <ele>855.2</ele>
        <time>2026-05-12T11:12:02Z</time>
      </trkpt>
      <trkpt lat="45.9073" lon="5.62961">
        <ele>855.2</ele>
        <time>2026-05-12T11:12:03Z</time>
      </trkpt>
      <trkpt lat="45.90725" lon="5.62964">
        <ele>855.2</ele>
        <time>2026-05-12T11:12:04Z</time>
      </trkpt>
      <trkpt lat="45.90724" lon="5.62965">
        <ele>855</ele>
        <time>2026-05-12T11:12:05Z</time>
      </trkpt>
      <trkpt lat="45.90721" lon="5.62966">
        <ele>855</ele>
        <time>2026-05-12T11:12:06Z</time>
      </trkpt>
      <trkpt lat="45.90714" lon="5.62966">
        <ele>855</ele>
        <time>2026-05-12T11:12:07Z</time>
      </trkpt>
      <trkpt lat="45.90721" lon="5.62967">
        <ele>855</ele>
        <time>2026-05-12T11:12:08Z</time>
      </trkpt>
      <trkpt lat="45.90717" lon="5.62967">
        <ele>855</ele>
        <time>2026-05-12T11:12:09Z</time>
      </trkpt>
      <trkpt lat="45.90714" lon="5.62966">
        <ele>855</ele>
        <time>2026-05-12T11:12:10Z</time>
      </trkpt>
      <trkpt lat="45.90713" lon="5.62969">
        <ele>854.8</ele>
        <time>2026-05-12T11:12:11Z</time>
      </trkpt>
      <trkpt lat="45.90708" lon="5.62969">
        <ele>854.8</ele>
        <time>2026-05-12T11:12:12Z</time>
      </trkpt>
      <trkpt lat="45.90706" lon="5.6297">
        <ele>855</ele>
        <time>2026-05-12T11:12:13Z</time>
      </trkpt>
      <trkpt lat="45.90705" lon="5.62972">
        <ele>855</ele>
        <time>2026-05-12T11:12:14Z</time>
      </trkpt>
      <trkpt lat="45.90703" lon="5.62973">
        <ele>855</ele>
        <time>2026-05-12T11:12:15Z</time>
      </trkpt>
      <trkpt lat="45.90702" lon="5.62973">
        <ele>855.2</ele>
        <time>2026-05-12T11:12:16Z</time>
      </trkpt>
      <trkpt lat="45.90699" lon="5.62975">
        <ele>855.2</ele>
        <time>2026-05-12T11:12:17Z</time>
      </trkpt>
      <trkpt lat="45.90697" lon="5.62976">
        <ele>855.2</ele>
        <time>2026-05-12T11:12:18Z</time>
      </trkpt>
      <trkpt lat="45.90695" lon="5.62978">
        <ele>855.2</ele>
        <time>2026-05-12T11:12:19Z</time>
      </trkpt>
      <trkpt lat="45.90693" lon="5.6298">
        <ele>855.2</ele>
        <time>2026-05-12T11:12:20Z</time>
      </trkpt>
      <trkpt lat="45.90691" lon="5.62981">
        <ele>855.2</ele>
        <time>2026-05-12T11:12:21Z</time>
      </trkpt>
      <trkpt lat="45.90689" lon="5.62984">
        <ele>855.2</ele>
        <time>2026-05-12T11:12:22Z</time>
      </trkpt>
      <trkpt lat="45.90689" lon="5.62986">
        <ele>855.2</ele>
        <time>2026-05-12T11:12:23Z</time>
      </trkpt>
      <trkpt lat="45.90688" lon="5.62988">
        <ele>855</ele>
        <time>2026-05-12T11:12:24Z</time>
      </trkpt>
      <trkpt lat="45.90686" lon="5.62989">
        <ele>854.6</ele>
        <time>2026-05-12T11:12:25Z</time>
      </trkpt>
      <trkpt lat="45.90683" lon="5.6299">
        <ele>854.6</ele>
        <time>2026-05-12T11:12:26Z</time>
      </trkpt>
      <trkpt lat="45.90679" lon="5.62991">
        <ele>854.6</ele>
        <time>2026-05-12T11:12:27Z</time>
      </trkpt>
      <trkpt lat="45.90675" lon="5.62992">
        <ele>854.6</ele>
        <time>2026-05-12T11:12:28Z</time>
      </trkpt>
      <trkpt lat="45.90672" lon="5.62993">
        <ele>854.6</ele>
        <time>2026-05-12T11:12:29Z</time>
      </trkpt>
      <trkpt lat="45.90669" lon="5.62995">
        <ele>854</ele>
        <time>2026-05-12T11:12:30Z</time>
      </trkpt>
      <trkpt lat="45.90666" lon="5.62997">
        <ele>854.2</ele>
        <time>2026-05-12T11:12:31Z</time>
      </trkpt>
      <trkpt lat="45.90665" lon="5.62999">
        <ele>854.2</ele>
        <time>2026-05-12T11:12:32Z</time>
      </trkpt>
      <trkpt lat="45.90665" lon="5.63">
        <ele>854.2</ele>
        <time>2026-05-12T11:12:33Z</time>
      </trkpt>
      <trkpt lat="45.90666" lon="5.63001">
        <ele>854.2</ele>
        <time>2026-05-12T11:12:34Z</time>
      </trkpt>
      <trkpt lat="45.90666" lon="5.63002">
        <ele>854.2</ele>
        <time>2026-05-12T11:12:35Z</time>
      </trkpt>
      <trkpt lat="45.90664" lon="5.63003">
        <ele>854.8</ele>
        <time>2026-05-12T11:12:36Z</time>
      </trkpt>
      <trkpt lat="45.90662" lon="5.63005">
        <ele>854.8</ele>
        <time>2026-05-12T11:12:37Z</time>
      </trkpt>
      <trkpt lat="45.90662" lon="5.63006">
        <ele>854.8</ele>
        <time>2026-05-12T11:12:38Z</time>
      </trkpt>
      <trkpt lat="45.90664" lon="5.63008">
        <ele>854.8</ele>
        <time>2026-05-12T11:12:39Z</time>
      </trkpt>
      <trkpt lat="45.90667" lon="5.6301">
        <ele>854.8</ele>
        <time>2026-05-12T11:12:40Z</time>
      </trkpt>
      <trkpt lat="45.90668" lon="5.63011">
        <ele>854.6</ele>
        <time>2026-05-12T11:12:41Z</time>
      </trkpt>
      <trkpt lat="45.90669" lon="5.63012">
        <ele>854.6</ele>
        <time>2026-05-12T11:12:42Z</time>
      </trkpt>
      <trkpt lat="45.90669" lon="5.63013">
        <ele>855</ele>
        <time>2026-05-12T11:12:43Z</time>
      </trkpt>
      <trkpt lat="45.90647" lon="5.63009">
        <ele>855</ele>
        <time>2026-05-12T11:12:44Z</time>
      </trkpt>
      <trkpt lat="45.90644" lon="5.6301">
        <ele>855</ele>
        <time>2026-05-12T11:12:45Z</time>
      </trkpt>
      <trkpt lat="45.90642" lon="5.63011">
        <ele>855.2</ele>
        <time>2026-05-12T11:12:46Z</time>
      </trkpt>
      <trkpt lat="45.90639" lon="5.63013">
        <ele>855.2</ele>
        <time>2026-05-12T11:12:47Z</time>
      </trkpt>
      <trkpt lat="45.90636" lon="5.63014">
        <ele>855</ele>
        <time>2026-05-12T11:12:48Z</time>
      </trkpt>
      <trkpt lat="45.90633" lon="5.63016">
        <ele>855</ele>
        <time>2026-05-12T11:12:49Z</time>
      </trkpt>
      <trkpt lat="45.90629" lon="5.63017">
        <ele>855</ele>
        <time>2026-05-12T11:12:50Z</time>
      </trkpt>
      <trkpt lat="45.90627" lon="5.63018">
        <ele>855.4</ele>
        <time>2026-05-12T11:12:51Z</time>
      </trkpt>
      <trkpt lat="45.90626" lon="5.63019">
        <ele>855.8</ele>
        <time>2026-05-12T11:12:52Z</time>
      </trkpt>
      <trkpt lat="45.90624" lon="5.63021">
        <ele>855.8</ele>
        <time>2026-05-12T11:12:53Z</time>
      </trkpt>
      <trkpt lat="45.90621" lon="5.63022">
        <ele>855.8</ele>
        <time>2026-05-12T11:12:54Z</time>
      </trkpt>
      <trkpt lat="45.90619" lon="5.63024">
        <ele>855.8</ele>
        <time>2026-05-12T11:12:55Z</time>
      </trkpt>
      <trkpt lat="45.90617" lon="5.63026">
        <ele>855.8</ele>
        <time>2026-05-12T11:12:56Z</time>
      </trkpt>
      <trkpt lat="45.90613" lon="5.63027">
        <ele>855.8</ele>
        <time>2026-05-12T11:12:57Z</time>
      </trkpt>
      <trkpt lat="45.90611" lon="5.63028">
        <ele>856.2</ele>
        <time>2026-05-12T11:12:58Z</time>
      </trkpt>
      <trkpt lat="45.9061" lon="5.63029">
        <ele>856.2</ele>
        <time>2026-05-12T11:12:59Z</time>
      </trkpt>
      <trkpt lat="45.90608" lon="5.63029">
        <ele>856.2</ele>
        <time>2026-05-12T11:13:00Z</time>
      </trkpt>
      <trkpt lat="45.90606" lon="5.6303">
        <ele>856.4</ele>
        <time>2026-05-12T11:13:01Z</time>
      </trkpt>
      <trkpt lat="45.90604" lon="5.63031">
        <ele>856.8</ele>
        <time>2026-05-12T11:13:02Z</time>
      </trkpt>
      <trkpt lat="45.90601" lon="5.63031">
        <ele>856.8</ele>
        <time>2026-05-12T11:13:03Z</time>
      </trkpt>
      <trkpt lat="45.906" lon="5.63031">
        <ele>856.8</ele>
        <time>2026-05-12T11:13:04Z</time>
      </trkpt>
      <trkpt lat="45.90598" lon="5.63031">
        <ele>857</ele>
        <time>2026-05-12T11:13:05Z</time>
      </trkpt>
      <trkpt lat="45.90597" lon="5.63031">
        <ele>857</ele>
        <time>2026-05-12T11:13:06Z</time>
      </trkpt>
      <trkpt lat="45.90595" lon="5.63032">
        <ele>857</ele>
        <time>2026-05-12T11:13:07Z</time>
      </trkpt>
      <trkpt lat="45.90592" lon="5.63032">
        <ele>857.2</ele>
        <time>2026-05-12T11:13:08Z</time>
      </trkpt>
      <trkpt lat="45.90588" lon="5.63033">
        <ele>857.2</ele>
        <time>2026-05-12T11:13:09Z</time>
      </trkpt>
      <trkpt lat="45.90586" lon="5.63033">
        <ele>857.2</ele>
        <time>2026-05-12T11:13:10Z</time>
      </trkpt>
      <trkpt lat="45.90583" lon="5.63033">
        <ele>857.6</ele>
        <time>2026-05-12T11:13:11Z</time>
      </trkpt>
      <trkpt lat="45.90581" lon="5.63033">
        <ele>857.6</ele>
        <time>2026-05-12T11:13:12Z</time>
      </trkpt>
      <trkpt lat="45.90578" lon="5.63033">
        <ele>857.6</ele>
        <time>2026-05-12T11:13:13Z</time>
      </trkpt>
      <trkpt lat="45.90576" lon="5.63033">
        <ele>857.8</ele>
        <time>2026-05-12T11:13:14Z</time>
      </trkpt>
      <trkpt lat="45.90574" lon="5.63034">
        <ele>858.2</ele>
        <time>2026-05-12T11:13:15Z</time>
      </trkpt>
      <trkpt lat="45.90572" lon="5.63034">
        <ele>858.2</ele>
        <time>2026-05-12T11:13:16Z</time>
      </trkpt>
      <trkpt lat="45.9057" lon="5.63034">
        <ele>858.4</ele>
        <time>2026-05-12T11:13:17Z</time>
      </trkpt>
      <trkpt lat="45.90568" lon="5.63034">
        <ele>858.4</ele>
        <time>2026-05-12T11:13:18Z</time>
      </trkpt>
      <trkpt lat="45.90566" lon="5.63034">
        <ele>858.6</ele>
        <time>2026-05-12T11:13:19Z</time>
      </trkpt>
      <trkpt lat="45.90563" lon="5.63035">
        <ele>858.6</ele>
        <time>2026-05-12T11:13:20Z</time>
      </trkpt>
      <trkpt lat="45.90561" lon="5.63036">
        <ele>859</ele>
        <time>2026-05-12T11:13:21Z</time>
      </trkpt>
      <trkpt lat="45.90559" lon="5.63037">
        <ele>859</ele>
        <time>2026-05-12T11:13:22Z</time>
      </trkpt>
      <trkpt lat="45.90557" lon="5.63038">
        <ele>859.4</ele>
        <time>2026-05-12T11:13:23Z</time>
      </trkpt>
      <trkpt lat="45.90554" lon="5.6304">
        <ele>859.6</ele>
        <time>2026-05-12T11:13:24Z</time>
      </trkpt>
      <trkpt lat="45.90552" lon="5.63041">
        <ele>859.6</ele>
        <time>2026-05-12T11:13:25Z</time>
      </trkpt>
      <trkpt lat="45.90549" lon="5.63042">
        <ele>859.8</ele>
        <time>2026-05-12T11:13:26Z</time>
      </trkpt>
      <trkpt lat="45.90547" lon="5.63043">
        <ele>859.8</ele>
        <time>2026-05-12T11:13:27Z</time>
      </trkpt>
      <trkpt lat="45.90546" lon="5.63044">
        <ele>860.2</ele>
        <time>2026-05-12T11:13:28Z</time>
      </trkpt>
      <trkpt lat="45.90545" lon="5.63045">
        <ele>860.2</ele>
        <time>2026-05-12T11:13:29Z</time>
      </trkpt>
      <trkpt lat="45.90544" lon="5.63046">
        <ele>860.2</ele>
        <time>2026-05-12T11:13:30Z</time>
      </trkpt>
      <trkpt lat="45.90544" lon="5.63047">
        <ele>860.4</ele>
        <time>2026-05-12T11:13:31Z</time>
      </trkpt>
      <trkpt lat="45.90545" lon="5.63049">
        <ele>860.4</ele>
        <time>2026-05-12T11:13:32Z</time>
      </trkpt>
      <trkpt lat="45.90547" lon="5.63051">
        <ele>860.6</ele>
        <time>2026-05-12T11:13:33Z</time>
      </trkpt>
      <trkpt lat="45.90549" lon="5.63052">
        <ele>860.6</ele>
        <time>2026-05-12T11:13:34Z</time>
      </trkpt>
      <trkpt lat="45.90549" lon="5.63053">
        <ele>860.6</ele>
        <time>2026-05-12T11:13:35Z</time>
      </trkpt>
      <trkpt lat="45.90548" lon="5.63055">
        <ele>861</ele>
        <time>2026-05-12T11:13:36Z</time>
      </trkpt>
      <trkpt lat="45.90546" lon="5.63056">
        <ele>861</ele>
        <time>2026-05-12T11:13:37Z</time>
      </trkpt>
      <trkpt lat="45.90544" lon="5.63057">
        <ele>861.4</ele>
        <time>2026-05-12T11:13:38Z</time>
      </trkpt>
      <trkpt lat="45.90541" lon="5.63058">
        <ele>861.4</ele>
        <time>2026-05-12T11:13:39Z</time>
      </trkpt>
      <trkpt lat="45.90539" lon="5.63059">
        <ele>861.8</ele>
        <time>2026-05-12T11:13:40Z</time>
      </trkpt>
      <trkpt lat="45.90536" lon="5.6306">
        <ele>862</ele>
        <time>2026-05-12T11:13:41Z</time>
      </trkpt>
      <trkpt lat="45.90534" lon="5.63061">
        <ele>862.2</ele>
        <time>2026-05-12T11:13:42Z</time>
      </trkpt>
      <trkpt lat="45.90531" lon="5.63062">
        <ele>862.2</ele>
        <time>2026-05-12T11:13:43Z</time>
      </trkpt>
      <trkpt lat="45.90529" lon="5.63064">
        <ele>862.2</ele>
        <time>2026-05-12T11:13:44Z</time>
      </trkpt>
      <trkpt lat="45.90527" lon="5.63066">
        <ele>862.2</ele>
        <time>2026-05-12T11:13:45Z</time>
      </trkpt>
      <trkpt lat="45.90523" lon="5.63067">
        <ele>862.2</ele>
        <time>2026-05-12T11:13:46Z</time>
      </trkpt>
      <trkpt lat="45.90517" lon="5.63069">
        <ele>862.4</ele>
        <time>2026-05-12T11:13:47Z</time>
      </trkpt>
      <trkpt lat="45.90516" lon="5.63069">
        <ele>862.4</ele>
        <time>2026-05-12T11:13:48Z</time>
      </trkpt>
      <trkpt lat="45.90515" lon="5.6307">
        <ele>862.4</ele>
        <time>2026-05-12T11:13:49Z</time>
      </trkpt>
      <trkpt lat="45.90515" lon="5.6307">
        <ele>862.4</ele>
        <time>2026-05-12T11:13:50Z</time>
      </trkpt>
      <trkpt lat="45.90516" lon="5.6307">
        <ele>862.8</ele>
        <time>2026-05-12T11:13:51Z</time>
      </trkpt>
      <trkpt lat="45.90516" lon="5.63071">
        <ele>862.8</ele>
        <time>2026-05-12T11:13:52Z</time>
      </trkpt>
      <trkpt lat="45.90515" lon="5.63072">
        <ele>863</ele>
        <time>2026-05-12T11:13:53Z</time>
      </trkpt>
      <trkpt lat="45.90514" lon="5.63074">
        <ele>863</ele>
        <time>2026-05-12T11:13:54Z</time>
      </trkpt>
      <trkpt lat="45.90514" lon="5.63074">
        <ele>863</ele>
        <time>2026-05-12T11:13:55Z</time>
      </trkpt>
      <trkpt lat="45.90513" lon="5.63076">
        <ele>863</ele>
        <time>2026-05-12T11:13:56Z</time>
      </trkpt>
      <trkpt lat="45.90511" lon="5.63078">
        <ele>863</ele>
        <time>2026-05-12T11:13:57Z</time>
      </trkpt>
      <trkpt lat="45.90509" lon="5.6308">
        <ele>863.4</ele>
        <time>2026-05-12T11:13:58Z</time>
      </trkpt>
      <trkpt lat="45.90507" lon="5.63081">
        <ele>863.6</ele>
        <time>2026-05-12T11:13:59Z</time>
      </trkpt>
      <trkpt lat="45.90505" lon="5.63083">
        <ele>863.6</ele>
        <time>2026-05-12T11:14:00Z</time>
      </trkpt>
      <trkpt lat="45.90503" lon="5.63084">
        <ele>863.6</ele>
        <time>2026-05-12T11:14:01Z</time>
      </trkpt>
      <trkpt lat="45.90501" lon="5.63087">
        <ele>863.8</ele>
        <time>2026-05-12T11:14:02Z</time>
      </trkpt>
      <trkpt lat="45.90499" lon="5.63089">
        <ele>863.8</ele>
        <time>2026-05-12T11:14:03Z</time>
      </trkpt>
      <trkpt lat="45.90497" lon="5.6309">
        <ele>863.8</ele>
        <time>2026-05-12T11:14:04Z</time>
      </trkpt>
      <trkpt lat="45.90495" lon="5.63091">
        <ele>864.2</ele>
        <time>2026-05-12T11:14:05Z</time>
      </trkpt>
      <trkpt lat="45.90493" lon="5.63091">
        <ele>864.2</ele>
        <time>2026-05-12T11:14:06Z</time>
      </trkpt>
      <trkpt lat="45.9049" lon="5.63091">
        <ele>864.2</ele>
        <time>2026-05-12T11:14:07Z</time>
      </trkpt>
      <trkpt lat="45.90487" lon="5.63091">
        <ele>864.2</ele>
        <time>2026-05-12T11:14:08Z</time>
      </trkpt>
      <trkpt lat="45.90484" lon="5.63092">
        <ele>864.4</ele>
        <time>2026-05-12T11:14:09Z</time>
      </trkpt>
      <trkpt lat="45.90482" lon="5.63094">
        <ele>864.4</ele>
        <time>2026-05-12T11:14:10Z</time>
      </trkpt>
      <trkpt lat="45.9048" lon="5.63095">
        <ele>864.4</ele>
        <time>2026-05-12T11:14:11Z</time>
      </trkpt>
      <trkpt lat="45.90479" lon="5.63097">
        <ele>864.4</ele>
        <time>2026-05-12T11:14:12Z</time>
      </trkpt>
      <trkpt lat="45.90478" lon="5.63098">
        <ele>864.4</ele>
        <time>2026-05-12T11:14:13Z</time>
      </trkpt>
      <trkpt lat="45.90478" lon="5.63098">
        <ele>864.4</ele>
        <time>2026-05-12T11:14:14Z</time>
      </trkpt>
      <trkpt lat="45.90477" lon="5.631">
        <ele>864.4</ele>
        <time>2026-05-12T11:14:15Z</time>
      </trkpt>
      <trkpt lat="45.90476" lon="5.63102">
        <ele>864</ele>
        <time>2026-05-12T11:14:16Z</time>
      </trkpt>
      <trkpt lat="45.90474" lon="5.63104">
        <ele>864</ele>
        <time>2026-05-12T11:14:17Z</time>
      </trkpt>
      <trkpt lat="45.90473" lon="5.63106">
        <ele>863.8</ele>
        <time>2026-05-12T11:14:18Z</time>
      </trkpt>
      <trkpt lat="45.90471" lon="5.63108">
        <ele>863.8</ele>
        <time>2026-05-12T11:14:19Z</time>
      </trkpt>
      <trkpt lat="45.90469" lon="5.63111">
        <ele>863.4</ele>
        <time>2026-05-12T11:14:20Z</time>
      </trkpt>
      <trkpt lat="45.90467" lon="5.63114">
        <ele>863.4</ele>
        <time>2026-05-12T11:14:21Z</time>
      </trkpt>
      <trkpt lat="45.90466" lon="5.63117">
        <ele>862.6</ele>
        <time>2026-05-12T11:14:22Z</time>
      </trkpt>
      <trkpt lat="45.90465" lon="5.6312">
        <ele>862.4</ele>
        <time>2026-05-12T11:14:23Z</time>
      </trkpt>
      <trkpt lat="45.90464" lon="5.63124">
        <ele>862.4</ele>
        <time>2026-05-12T11:14:24Z</time>
      </trkpt>
      <trkpt lat="45.90462" lon="5.63127">
        <ele>861.8</ele>
        <time>2026-05-12T11:14:25Z</time>
      </trkpt>
      <trkpt lat="45.90459" lon="5.6313">
        <ele>860.8</ele>
        <time>2026-05-12T11:14:26Z</time>
      </trkpt>
      <trkpt lat="45.90456" lon="5.63133">
        <ele>860.4</ele>
        <time>2026-05-12T11:14:27Z</time>
      </trkpt>
      <trkpt lat="45.90454" lon="5.63137">
        <ele>860.2</ele>
        <time>2026-05-12T11:14:28Z</time>
      </trkpt>
      <trkpt lat="45.90452" lon="5.63142">
        <ele>859.8</ele>
        <time>2026-05-12T11:14:29Z</time>
      </trkpt>
      <trkpt lat="45.9045" lon="5.63147">
        <ele>859</ele>
        <time>2026-05-12T11:14:30Z</time>
      </trkpt>
      <trkpt lat="45.90447" lon="5.63151">
        <ele>857.6</ele>
        <time>2026-05-12T11:14:31Z</time>
      </trkpt>
      <trkpt lat="45.90444" lon="5.63155">
        <ele>857.2</ele>
        <time>2026-05-12T11:14:32Z</time>
      </trkpt>
      <trkpt lat="45.90437" lon="5.63161">
        <ele>856.6</ele>
        <time>2026-05-12T11:14:33Z</time>
      </trkpt>
      <trkpt lat="45.90437" lon="5.63164">
        <ele>856</ele>
        <time>2026-05-12T11:14:34Z</time>
      </trkpt>
      <trkpt lat="45.90436" lon="5.63168">
        <ele>856</ele>
        <time>2026-05-12T11:14:35Z</time>
      </trkpt>
      <trkpt lat="45.90436" lon="5.63171">
        <ele>856</ele>
        <time>2026-05-12T11:14:36Z</time>
      </trkpt>
      <trkpt lat="45.90428" lon="5.63176">
        <ele>855</ele>
        <time>2026-05-12T11:14:37Z</time>
      </trkpt>
      <trkpt lat="45.90424" lon="5.6318">
        <ele>853.2</ele>
        <time>2026-05-12T11:14:38Z</time>
      </trkpt>
      <trkpt lat="45.90419" lon="5.63185">
        <ele>853</ele>
        <time>2026-05-12T11:14:39Z</time>
      </trkpt>
      <trkpt lat="45.90415" lon="5.63186">
        <ele>850.8</ele>
        <time>2026-05-12T11:14:40Z</time>
      </trkpt>
      <trkpt lat="45.9041" lon="5.6319">
        <ele>850.8</ele>
        <time>2026-05-12T11:14:41Z</time>
      </trkpt>
      <trkpt lat="45.90403" lon="5.63196">
        <ele>850</ele>
        <time>2026-05-12T11:14:42Z</time>
      </trkpt>
      <trkpt lat="45.90397" lon="5.63199">
        <ele>849.8</ele>
        <time>2026-05-12T11:14:43Z</time>
      </trkpt>
      <trkpt lat="45.90394" lon="5.63204">
        <ele>849</ele>
        <time>2026-05-12T11:14:44Z</time>
      </trkpt>
      <trkpt lat="45.90389" lon="5.63207">
        <ele>847.8</ele>
        <time>2026-05-12T11:14:45Z</time>
      </trkpt>
      <trkpt lat="45.90385" lon="5.63211">
        <ele>847.4</ele>
        <time>2026-05-12T11:14:46Z</time>
      </trkpt>
      <trkpt lat="45.90379" lon="5.63213">
        <ele>847.4</ele>
        <time>2026-05-12T11:14:47Z</time>
      </trkpt>
      <trkpt lat="45.90376" lon="5.63215">
        <ele>846.8</ele>
        <time>2026-05-12T11:14:48Z</time>
      </trkpt>
      <trkpt lat="45.90371" lon="5.63215">
        <ele>846.8</ele>
        <time>2026-05-12T11:14:49Z</time>
      </trkpt>
      <trkpt lat="45.90368" lon="5.6322">
        <ele>845.8</ele>
        <time>2026-05-12T11:14:50Z</time>
      </trkpt>
      <trkpt lat="45.90359" lon="5.63222">
        <ele>845.6</ele>
        <time>2026-05-12T11:14:51Z</time>
      </trkpt>
      <trkpt lat="45.9036" lon="5.63224">
        <ele>844.8</ele>
        <time>2026-05-12T11:14:52Z</time>
      </trkpt>
      <trkpt lat="45.90359" lon="5.63227">
        <ele>844.4</ele>
        <time>2026-05-12T11:14:53Z</time>
      </trkpt>
      <trkpt lat="45.90357" lon="5.63228">
        <ele>843.6</ele>
        <time>2026-05-12T11:14:54Z</time>
      </trkpt>
      <trkpt lat="45.90351" lon="5.6323">
        <ele>843.8</ele>
        <time>2026-05-12T11:14:55Z</time>
      </trkpt>
      <trkpt lat="45.90348" lon="5.63233">
        <ele>843.8</ele>
        <time>2026-05-12T11:14:56Z</time>
      </trkpt>
      <trkpt lat="45.90344" lon="5.63233">
        <ele>843.4</ele>
        <time>2026-05-12T11:14:57Z</time>
      </trkpt>
      <trkpt lat="45.90338" lon="5.63235">
        <ele>842.4</ele>
        <time>2026-05-12T11:14:58Z</time>
      </trkpt>
      <trkpt lat="45.90336" lon="5.63238">
        <ele>842.2</ele>
        <time>2026-05-12T11:14:59Z</time>
      </trkpt>
      <trkpt lat="45.90332" lon="5.63242">
        <ele>842.2</ele>
        <time>2026-05-12T11:15:00Z</time>
      </trkpt>
      <trkpt lat="45.90329" lon="5.63243">
        <ele>842</ele>
        <time>2026-05-12T11:15:01Z</time>
      </trkpt>
      <trkpt lat="45.90324" lon="5.63245">
        <ele>841.4</ele>
        <time>2026-05-12T11:15:02Z</time>
      </trkpt>
      <trkpt lat="45.90322" lon="5.6325">
        <ele>840.8</ele>
        <time>2026-05-12T11:15:03Z</time>
      </trkpt>
      <trkpt lat="45.90319" lon="5.63253">
        <ele>840.4</ele>
        <time>2026-05-12T11:15:04Z</time>
      </trkpt>
      <trkpt lat="45.90314" lon="5.63257">
        <ele>840</ele>
        <time>2026-05-12T11:15:05Z</time>
      </trkpt>
      <trkpt lat="45.90311" lon="5.63258">
        <ele>839.4</ele>
        <time>2026-05-12T11:15:06Z</time>
      </trkpt>
      <trkpt lat="45.90309" lon="5.6326">
        <ele>839.4</ele>
        <time>2026-05-12T11:15:07Z</time>
      </trkpt>
      <trkpt lat="45.90307" lon="5.63261">
        <ele>838.8</ele>
        <time>2026-05-12T11:15:08Z</time>
      </trkpt>
      <trkpt lat="45.90306" lon="5.63262">
        <ele>837.6</ele>
        <time>2026-05-12T11:15:09Z</time>
      </trkpt>
      <trkpt lat="45.90299" lon="5.63267">
        <ele>837.2</ele>
        <time>2026-05-12T11:15:10Z</time>
      </trkpt>
      <trkpt lat="45.90294" lon="5.6327">
        <ele>837.2</ele>
        <time>2026-05-12T11:15:11Z</time>
      </trkpt>
      <trkpt lat="45.90287" lon="5.63274">
        <ele>836.2</ele>
        <time>2026-05-12T11:15:12Z</time>
      </trkpt>
      <trkpt lat="45.9028" lon="5.63277">
        <ele>834.6</ele>
        <time>2026-05-12T11:15:13Z</time>
      </trkpt>
      <trkpt lat="45.90277" lon="5.63281">
        <ele>833.4</ele>
        <time>2026-05-12T11:15:14Z</time>
      </trkpt>
      <trkpt lat="45.90273" lon="5.63286">
        <ele>832.4</ele>
        <time>2026-05-12T11:15:15Z</time>
      </trkpt>
      <trkpt lat="45.90269" lon="5.63287">
        <ele>831.8</ele>
        <time>2026-05-12T11:15:16Z</time>
      </trkpt>
      <trkpt lat="45.90271" lon="5.63293">
        <ele>831</ele>
        <time>2026-05-12T11:15:17Z</time>
      </trkpt>
      <trkpt lat="45.90268" lon="5.63296">
        <ele>830.6</ele>
        <time>2026-05-12T11:15:18Z</time>
      </trkpt>
      <trkpt lat="45.90264" lon="5.63301">
        <ele>829.2</ele>
        <time>2026-05-12T11:15:19Z</time>
      </trkpt>
      <trkpt lat="45.9026" lon="5.63304">
        <ele>828.4</ele>
        <time>2026-05-12T11:15:20Z</time>
      </trkpt>
      <trkpt lat="45.90259" lon="5.63308">
        <ele>828</ele>
        <time>2026-05-12T11:15:21Z</time>
      </trkpt>
      <trkpt lat="45.90258" lon="5.63312">
        <ele>827.2</ele>
        <time>2026-05-12T11:15:22Z</time>
      </trkpt>
      <trkpt lat="45.90254" lon="5.63315">
        <ele>826.6</ele>
        <time>2026-05-12T11:15:23Z</time>
      </trkpt>
      <trkpt lat="45.90251" lon="5.63318">
        <ele>825.2</ele>
        <time>2026-05-12T11:15:24Z</time>
      </trkpt>
      <trkpt lat="45.90238" lon="5.63319">
        <ele>825</ele>
        <time>2026-05-12T11:15:25Z</time>
      </trkpt>
      <trkpt lat="45.90231" lon="5.63321">
        <ele>825</ele>
        <time>2026-05-12T11:15:26Z</time>
      </trkpt>
      <trkpt lat="45.90224" lon="5.63321">
        <ele>824.6</ele>
        <time>2026-05-12T11:15:27Z</time>
      </trkpt>
      <trkpt lat="45.90219" lon="5.63322">
        <ele>824.6</ele>
        <time>2026-05-12T11:15:28Z</time>
      </trkpt>
      <trkpt lat="45.90214" lon="5.63324">
        <ele>824.4</ele>
        <time>2026-05-12T11:15:29Z</time>
      </trkpt>
      <trkpt lat="45.90211" lon="5.63327">
        <ele>824.4</ele>
        <time>2026-05-12T11:15:30Z</time>
      </trkpt>
      <trkpt lat="45.90203" lon="5.6333">
        <ele>823.8</ele>
        <time>2026-05-12T11:15:31Z</time>
      </trkpt>
      <trkpt lat="45.90198" lon="5.63331">
        <ele>823.8</ele>
        <time>2026-05-12T11:15:32Z</time>
      </trkpt>
      <trkpt lat="45.90192" lon="5.63333">
        <ele>823.6</ele>
        <time>2026-05-12T11:15:33Z</time>
      </trkpt>
      <trkpt lat="45.90187" lon="5.63336">
        <ele>823.6</ele>
        <time>2026-05-12T11:15:34Z</time>
      </trkpt>
      <trkpt lat="45.90182" lon="5.63338">
        <ele>823.6</ele>
        <time>2026-05-12T11:15:35Z</time>
      </trkpt>
      <trkpt lat="45.90178" lon="5.63341">
        <ele>823.2</ele>
        <time>2026-05-12T11:15:36Z</time>
      </trkpt>
      <trkpt lat="45.90174" lon="5.63341">
        <ele>822.8</ele>
        <time>2026-05-12T11:15:37Z</time>
      </trkpt>
      <trkpt lat="45.90168" lon="5.63342">
        <ele>822.6</ele>
        <time>2026-05-12T11:15:38Z</time>
      </trkpt>
      <trkpt lat="45.90163" lon="5.63346">
        <ele>822.6</ele>
        <time>2026-05-12T11:15:39Z</time>
      </trkpt>
      <trkpt lat="45.90158" lon="5.6335">
        <ele>822.6</ele>
        <time>2026-05-12T11:15:40Z</time>
      </trkpt>
      <trkpt lat="45.90153" lon="5.6335">
        <ele>822.6</ele>
        <time>2026-05-12T11:15:41Z</time>
      </trkpt>
      <trkpt lat="45.90149" lon="5.63352">
        <ele>822.6</ele>
        <time>2026-05-12T11:15:42Z</time>
      </trkpt>
      <trkpt lat="45.90144" lon="5.63353">
        <ele>822.8</ele>
        <time>2026-05-12T11:15:43Z</time>
      </trkpt>
      <trkpt lat="45.90139" lon="5.63355">
        <ele>822.6</ele>
        <time>2026-05-12T11:15:44Z</time>
      </trkpt>
      <trkpt lat="45.90135" lon="5.63358">
        <ele>822.2</ele>
        <time>2026-05-12T11:15:45Z</time>
      </trkpt>
      <trkpt lat="45.90129" lon="5.63358">
        <ele>822.2</ele>
        <time>2026-05-12T11:15:46Z</time>
      </trkpt>
      <trkpt lat="45.90125" lon="5.6336">
        <ele>823</ele>
        <time>2026-05-12T11:15:47Z</time>
      </trkpt>
      <trkpt lat="45.90121" lon="5.63361">
        <ele>823</ele>
        <time>2026-05-12T11:15:48Z</time>
      </trkpt>
      <trkpt lat="45.90117" lon="5.63361">
        <ele>822.8</ele>
        <time>2026-05-12T11:15:49Z</time>
      </trkpt>
      <trkpt lat="45.90113" lon="5.63364">
        <ele>823.2</ele>
        <time>2026-05-12T11:15:50Z</time>
      </trkpt>
      <trkpt lat="45.9011" lon="5.63366">
        <ele>823</ele>
        <time>2026-05-12T11:15:51Z</time>
      </trkpt>
      <trkpt lat="45.90109" lon="5.63367">
        <ele>823</ele>
        <time>2026-05-12T11:15:52Z</time>
      </trkpt>
      <trkpt lat="45.90105" lon="5.6337">
        <ele>822.4</ele>
        <time>2026-05-12T11:15:53Z</time>
      </trkpt>
      <trkpt lat="45.90101" lon="5.63372">
        <ele>822</ele>
        <time>2026-05-12T11:15:54Z</time>
      </trkpt>
      <trkpt lat="45.90097" lon="5.63374">
        <ele>821.4</ele>
        <time>2026-05-12T11:15:55Z</time>
      </trkpt>
      <trkpt lat="45.90093" lon="5.63376">
        <ele>820.8</ele>
        <time>2026-05-12T11:15:56Z</time>
      </trkpt>
      <trkpt lat="45.90088" lon="5.63378">
        <ele>820.4</ele>
        <time>2026-05-12T11:15:57Z</time>
      </trkpt>
      <trkpt lat="45.90082" lon="5.63381">
        <ele>819.6</ele>
        <time>2026-05-12T11:15:58Z</time>
      </trkpt>
      <trkpt lat="45.90075" lon="5.63381">
        <ele>818.4</ele>
        <time>2026-05-12T11:15:59Z</time>
      </trkpt>
      <trkpt lat="45.90067" lon="5.63382">
        <ele>817.8</ele>
        <time>2026-05-12T11:16:00Z</time>
      </trkpt>
      <trkpt lat="45.90061" lon="5.63385">
        <ele>817.2</ele>
        <time>2026-05-12T11:16:01Z</time>
      </trkpt>
      <trkpt lat="45.90056" lon="5.63386">
        <ele>817.8</ele>
        <time>2026-05-12T11:16:02Z</time>
      </trkpt>
      <trkpt lat="45.90049" lon="5.63388">
        <ele>816.8</ele>
        <time>2026-05-12T11:16:03Z</time>
      </trkpt>
      <trkpt lat="45.90042" lon="5.63393">
        <ele>816.8</ele>
        <time>2026-05-12T11:16:04Z</time>
      </trkpt>
      <trkpt lat="45.90039" lon="5.63397">
        <ele>816.2</ele>
        <time>2026-05-12T11:16:05Z</time>
      </trkpt>
      <trkpt lat="45.90033" lon="5.63399">
        <ele>815.8</ele>
        <time>2026-05-12T11:16:06Z</time>
      </trkpt>
      <trkpt lat="45.90031" lon="5.63402">
        <ele>815.4</ele>
        <time>2026-05-12T11:16:07Z</time>
      </trkpt>
      <trkpt lat="45.90028" lon="5.63404">
        <ele>815.4</ele>
        <time>2026-05-12T11:16:08Z</time>
      </trkpt>
      <trkpt lat="45.90022" lon="5.63407">
        <ele>814.8</ele>
        <time>2026-05-12T11:16:09Z</time>
      </trkpt>
      <trkpt lat="45.90016" lon="5.63408">
        <ele>814.4</ele>
        <time>2026-05-12T11:16:10Z</time>
      </trkpt>
      <trkpt lat="45.90012" lon="5.63409">
        <ele>814</ele>
        <time>2026-05-12T11:16:11Z</time>
      </trkpt>
      <trkpt lat="45.90007" lon="5.6341">
        <ele>813.2</ele>
        <time>2026-05-12T11:16:12Z</time>
      </trkpt>
      <trkpt lat="45.90008" lon="5.63413">
        <ele>812.8</ele>
        <time>2026-05-12T11:16:13Z</time>
      </trkpt>
      <trkpt lat="45.90004" lon="5.63413">
        <ele>812.6</ele>
        <time>2026-05-12T11:16:14Z</time>
      </trkpt>
      <trkpt lat="45.89998" lon="5.63413">
        <ele>811.6</ele>
        <time>2026-05-12T11:16:15Z</time>
      </trkpt>
      <trkpt lat="45.89993" lon="5.63413">
        <ele>811.4</ele>
        <time>2026-05-12T11:16:16Z</time>
      </trkpt>
      <trkpt lat="45.8999" lon="5.63417">
        <ele>810.8</ele>
        <time>2026-05-12T11:16:17Z</time>
      </trkpt>
      <trkpt lat="45.89985" lon="5.63419">
        <ele>810.2</ele>
        <time>2026-05-12T11:16:18Z</time>
      </trkpt>
      <trkpt lat="45.89977" lon="5.6342">
        <ele>809.2</ele>
        <time>2026-05-12T11:16:19Z</time>
      </trkpt>
      <trkpt lat="45.89973" lon="5.63423">
        <ele>808.8</ele>
        <time>2026-05-12T11:16:20Z</time>
      </trkpt>
      <trkpt lat="45.8997" lon="5.63424">
        <ele>808.4</ele>
        <time>2026-05-12T11:16:21Z</time>
      </trkpt>
      <trkpt lat="45.89968" lon="5.63426">
        <ele>808.4</ele>
        <time>2026-05-12T11:16:22Z</time>
      </trkpt>
      <trkpt lat="45.89965" lon="5.63426">
        <ele>807.8</ele>
        <time>2026-05-12T11:16:23Z</time>
      </trkpt>
      <trkpt lat="45.89961" lon="5.63426">
        <ele>807.4</ele>
        <time>2026-05-12T11:16:24Z</time>
      </trkpt>
      <trkpt lat="45.89957" lon="5.63428">
        <ele>806.2</ele>
        <time>2026-05-12T11:16:25Z</time>
      </trkpt>
      <trkpt lat="45.89953" lon="5.63429">
        <ele>805.8</ele>
        <time>2026-05-12T11:16:26Z</time>
      </trkpt>
      <trkpt lat="45.89948" lon="5.63432">
        <ele>805</ele>
        <time>2026-05-12T11:16:27Z</time>
      </trkpt>
      <trkpt lat="45.8994" lon="5.63435">
        <ele>804.6</ele>
        <time>2026-05-12T11:16:28Z</time>
      </trkpt>
      <trkpt lat="45.89939" lon="5.63437">
        <ele>804.6</ele>
        <time>2026-05-12T11:16:29Z</time>
      </trkpt>
      <trkpt lat="45.89939" lon="5.63439">
        <ele>804.2</ele>
        <time>2026-05-12T11:16:30Z</time>
      </trkpt>
      <trkpt lat="45.89936" lon="5.6344">
        <ele>804.2</ele>
        <time>2026-05-12T11:16:31Z</time>
      </trkpt>
      <trkpt lat="45.89934" lon="5.63437">
        <ele>804.2</ele>
        <time>2026-05-12T11:16:32Z</time>
      </trkpt>
      <trkpt lat="45.89935" lon="5.63437">
        <ele>803.8</ele>
        <time>2026-05-12T11:16:33Z</time>
      </trkpt>
      <trkpt lat="45.89931" lon="5.63439">
        <ele>803.2</ele>
        <time>2026-05-12T11:17:06Z</time>
      </trkpt>
      <trkpt lat="45.89928" lon="5.6344">
        <ele>803</ele>
        <time>2026-05-12T11:17:07Z</time>
      </trkpt>
      <trkpt lat="45.89925" lon="5.63439">
        <ele>803</ele>
        <time>2026-05-12T11:17:08Z</time>
      </trkpt>
      <trkpt lat="45.89922" lon="5.63441">
        <ele>803.2</ele>
        <time>2026-05-12T11:17:09Z</time>
      </trkpt>
      <trkpt lat="45.89919" lon="5.63442">
        <ele>802.6</ele>
        <time>2026-05-12T11:17:10Z</time>
      </trkpt>
      <trkpt lat="45.89915" lon="5.63443">
        <ele>802.2</ele>
        <time>2026-05-12T11:17:11Z</time>
      </trkpt>
      <trkpt lat="45.89908" lon="5.63445">
        <ele>801.6</ele>
        <time>2026-05-12T11:17:12Z</time>
      </trkpt>
      <trkpt lat="45.89905" lon="5.63447">
        <ele>801.2</ele>
        <time>2026-05-12T11:17:13Z</time>
      </trkpt>
      <trkpt lat="45.89899" lon="5.63448">
        <ele>800.8</ele>
        <time>2026-05-12T11:17:14Z</time>
      </trkpt>
      <trkpt lat="45.89893" lon="5.63449">
        <ele>800.2</ele>
        <time>2026-05-12T11:17:15Z</time>
      </trkpt>
      <trkpt lat="45.89886" lon="5.6345">
        <ele>800.2</ele>
        <time>2026-05-12T11:17:16Z</time>
      </trkpt>
      <trkpt lat="45.89877" lon="5.63452">
        <ele>800.2</ele>
        <time>2026-05-12T11:17:17Z</time>
      </trkpt>
      <trkpt lat="45.89873" lon="5.63453">
        <ele>799.4</ele>
        <time>2026-05-12T11:17:18Z</time>
      </trkpt>
      <trkpt lat="45.89868" lon="5.63454">
        <ele>798.8</ele>
        <time>2026-05-12T11:17:19Z</time>
      </trkpt>
      <trkpt lat="45.89862" lon="5.63455">
        <ele>798.8</ele>
        <time>2026-05-12T11:17:20Z</time>
      </trkpt>
      <trkpt lat="45.89856" lon="5.63456">
        <ele>798.8</ele>
        <time>2026-05-12T11:17:21Z</time>
      </trkpt>
      <trkpt lat="45.89851" lon="5.63458">
        <ele>798</ele>
        <time>2026-05-12T11:17:22Z</time>
      </trkpt>
      <trkpt lat="45.89848" lon="5.63462">
        <ele>798</ele>
        <time>2026-05-12T11:17:23Z</time>
      </trkpt>
      <trkpt lat="45.89843" lon="5.63464">
        <ele>798</ele>
        <time>2026-05-12T11:17:24Z</time>
      </trkpt>
      <trkpt lat="45.89839" lon="5.63464">
        <ele>797.6</ele>
        <time>2026-05-12T11:17:25Z</time>
      </trkpt>
      <trkpt lat="45.89837" lon="5.63463">
        <ele>797.4</ele>
        <time>2026-05-12T11:17:26Z</time>
      </trkpt>
      <trkpt lat="45.89837" lon="5.63464">
        <ele>797.4</ele>
        <time>2026-05-12T11:17:27Z</time>
      </trkpt>
      <trkpt lat="45.89838" lon="5.63466">
        <ele>797.4</ele>
        <time>2026-05-12T11:17:28Z</time>
      </trkpt>
      <trkpt lat="45.89838" lon="5.63466">
        <ele>797.4</ele>
        <time>2026-05-12T11:17:29Z</time>
      </trkpt>
      <trkpt lat="45.89839" lon="5.63465">
        <ele>797.4</ele>
        <time>2026-05-12T11:17:30Z</time>
      </trkpt>
      <trkpt lat="45.89838" lon="5.63464">
        <ele>797.4</ele>
        <time>2026-05-12T11:17:31Z</time>
      </trkpt>
      <trkpt lat="45.89838" lon="5.63466">
        <ele>797.4</ele>
        <time>2026-05-12T11:17:32Z</time>
      </trkpt>
      <trkpt lat="45.89837" lon="5.63464">
        <ele>797.2</ele>
        <time>2026-05-12T11:17:36Z</time>
      </trkpt>
      <trkpt lat="45.89837" lon="5.63465">
        <ele>797.2</ele>
        <time>2026-05-12T11:17:37Z</time>
      </trkpt>
      <trkpt lat="45.89837" lon="5.63463">
        <ele>797.2</ele>
        <time>2026-05-12T11:17:44Z</time>
      </trkpt>
      <trkpt lat="45.89837" lon="5.63463">
        <ele>797.2</ele>
        <time>2026-05-12T11:17:45Z</time>
      </trkpt>
      <trkpt lat="45.89834" lon="5.6346">
        <ele>798.4</ele>
        <time>2026-05-12T11:19:59Z</time>
      </trkpt>
      <trkpt lat="45.89834" lon="5.6346">
        <ele>798.4</ele>
        <time>2026-05-12T11:20:00Z</time>
      </trkpt>
      <trkpt lat="45.89834" lon="5.6346">
        <ele>798.4</ele>
        <time>2026-05-12T11:20:01Z</time>
      </trkpt>
      <trkpt lat="45.89835" lon="5.63461">
        <ele>798</ele>
        <time>2026-05-12T11:20:02Z</time>
      </trkpt>
      <trkpt lat="45.89837" lon="5.6346">
        <ele>797.8</ele>
        <time>2026-05-12T11:20:10Z</time>
      </trkpt>
      <trkpt lat="45.89837" lon="5.63461">
        <ele>797.8</ele>
        <time>2026-05-12T11:20:11Z</time>
      </trkpt>
      <trkpt lat="45.89837" lon="5.63461">
        <ele>798</ele>
        <time>2026-05-12T11:20:12Z</time>
      </trkpt>
      <trkpt lat="45.89835" lon="5.63461">
        <ele>798.8</ele>
        <time>2026-05-12T11:22:33Z</time>
      </trkpt>
      <trkpt lat="45.89835" lon="5.63461">
        <ele>798.8</ele>
        <time>2026-05-12T11:22:34Z</time>
      </trkpt>
      <trkpt lat="45.89834" lon="5.63461">
        <ele>798.6</ele>
        <time>2026-05-12T11:22:35Z</time>
      </trkpt>
      <trkpt lat="45.89833" lon="5.63461">
        <ele>798.6</ele>
        <time>2026-05-12T11:22:36Z</time>
      </trkpt>
      <trkpt lat="45.89833" lon="5.63461">
        <ele>798.6</ele>
        <time>2026-05-12T11:22:37Z</time>
      </trkpt>
      <trkpt lat="45.89834" lon="5.63464">
        <ele>798.4</ele>
        <time>2026-05-12T11:22:48Z</time>
      </trkpt>
      <trkpt lat="45.89834" lon="5.63465">
        <ele>798.4</ele>
        <time>2026-05-12T11:22:49Z</time>
      </trkpt>
      <trkpt lat="45.89833" lon="5.63466">
        <ele>798.4</ele>
        <time>2026-05-12T11:22:50Z</time>
      </trkpt>
      <trkpt lat="45.89831" lon="5.63467">
        <ele>798.4</ele>
        <time>2026-05-12T11:22:51Z</time>
      </trkpt>
      <trkpt lat="45.8983" lon="5.63468">
        <ele>798</ele>
        <time>2026-05-12T11:22:52Z</time>
      </trkpt>
      <trkpt lat="45.89829" lon="5.6347">
        <ele>798</ele>
        <time>2026-05-12T11:22:53Z</time>
      </trkpt>
      <trkpt lat="45.89828" lon="5.63471">
        <ele>797.8</ele>
        <time>2026-05-12T11:22:54Z</time>
      </trkpt>
      <trkpt lat="45.89828" lon="5.63472">
        <ele>797.8</ele>
        <time>2026-05-12T11:22:55Z</time>
      </trkpt>
      <trkpt lat="45.89828" lon="5.63473">
        <ele>797.8</ele>
        <time>2026-05-12T11:22:56Z</time>
      </trkpt>
      <trkpt lat="45.89827" lon="5.63472">
        <ele>797.2</ele>
        <time>2026-05-12T11:22:57Z</time>
      </trkpt>
      <trkpt lat="45.89825" lon="5.63471">
        <ele>796.6</ele>
        <time>2026-05-12T11:22:58Z</time>
      </trkpt>
      <trkpt lat="45.89818" lon="5.63474">
        <ele>796.2</ele>
        <time>2026-05-12T11:22:59Z</time>
      </trkpt>
      <trkpt lat="45.89814" lon="5.63475">
        <ele>794.8</ele>
        <time>2026-05-12T11:23:00Z</time>
      </trkpt>
      <trkpt lat="45.89808" lon="5.63478">
        <ele>795.2</ele>
        <time>2026-05-12T11:23:01Z</time>
      </trkpt>
      <trkpt lat="45.89803" lon="5.63481">
        <ele>793.6</ele>
        <time>2026-05-12T11:23:02Z</time>
      </trkpt>
      <trkpt lat="45.89797" lon="5.63482">
        <ele>792.6</ele>
        <time>2026-05-12T11:23:03Z</time>
      </trkpt>
      <trkpt lat="45.8979" lon="5.63484">
        <ele>792.6</ele>
        <time>2026-05-12T11:23:04Z</time>
      </trkpt>
      <trkpt lat="45.89784" lon="5.63486">
        <ele>792.4</ele>
        <time>2026-05-12T11:23:05Z</time>
      </trkpt>
      <trkpt lat="45.89779" lon="5.63488">
        <ele>792.2</ele>
        <time>2026-05-12T11:23:06Z</time>
      </trkpt>
      <trkpt lat="45.89774" lon="5.6349">
        <ele>792.2</ele>
        <time>2026-05-12T11:23:07Z</time>
      </trkpt>
      <trkpt lat="45.89769" lon="5.63493">
        <ele>792.2</ele>
        <time>2026-05-12T11:23:08Z</time>
      </trkpt>
      <trkpt lat="45.89765" lon="5.63493">
        <ele>791.8</ele>
        <time>2026-05-12T11:23:09Z</time>
      </trkpt>
      <trkpt lat="45.8976" lon="5.63495">
        <ele>791.6</ele>
        <time>2026-05-12T11:23:10Z</time>
      </trkpt>
      <trkpt lat="45.89758" lon="5.63496">
        <ele>791.6</ele>
        <time>2026-05-12T11:23:11Z</time>
      </trkpt>
      <trkpt lat="45.89754" lon="5.63497">
        <ele>791.2</ele>
        <time>2026-05-12T11:23:12Z</time>
      </trkpt>
      <trkpt lat="45.89751" lon="5.63499">
        <ele>790.8</ele>
        <time>2026-05-12T11:23:13Z</time>
      </trkpt>
      <trkpt lat="45.89747" lon="5.635">
        <ele>790.8</ele>
        <time>2026-05-12T11:23:14Z</time>
      </trkpt>
      <trkpt lat="45.89744" lon="5.63502">
        <ele>790.8</ele>
        <time>2026-05-12T11:23:15Z</time>
      </trkpt>
      <trkpt lat="45.8974" lon="5.63502">
        <ele>790.8</ele>
        <time>2026-05-12T11:23:16Z</time>
      </trkpt>
      <trkpt lat="45.89737" lon="5.63503">
        <ele>790.8</ele>
        <time>2026-05-12T11:23:17Z</time>
      </trkpt>
      <trkpt lat="45.89733" lon="5.63504">
        <ele>790.8</ele>
        <time>2026-05-12T11:23:18Z</time>
      </trkpt>
      <trkpt lat="45.89733" lon="5.63504">
        <ele>790.8</ele>
        <time>2026-05-12T11:23:19Z</time>
      </trkpt>
      <trkpt lat="45.8973" lon="5.63506">
        <ele>790.8</ele>
        <time>2026-05-12T11:23:20Z</time>
      </trkpt>
      <trkpt lat="45.89728" lon="5.63508">
        <ele>791.2</ele>
        <time>2026-05-12T11:23:21Z</time>
      </trkpt>
      <trkpt lat="45.89727" lon="5.63509">
        <ele>791</ele>
        <time>2026-05-12T11:23:22Z</time>
      </trkpt>
      <trkpt lat="45.89726" lon="5.6351">
        <ele>790.6</ele>
        <time>2026-05-12T11:23:23Z</time>
      </trkpt>
      <trkpt lat="45.89723" lon="5.6351">
        <ele>790.2</ele>
        <time>2026-05-12T11:23:24Z</time>
      </trkpt>
      <trkpt lat="45.8972" lon="5.63511">
        <ele>789.8</ele>
        <time>2026-05-12T11:23:25Z</time>
      </trkpt>
      <trkpt lat="45.89716" lon="5.63511">
        <ele>789.8</ele>
        <time>2026-05-12T11:23:26Z</time>
      </trkpt>
      <trkpt lat="45.89712" lon="5.63513">
        <ele>789</ele>
        <time>2026-05-12T11:23:27Z</time>
      </trkpt>
      <trkpt lat="45.89708" lon="5.63514">
        <ele>789</ele>
        <time>2026-05-12T11:23:28Z</time>
      </trkpt>
      <trkpt lat="45.897" lon="5.63517">
        <ele>789</ele>
        <time>2026-05-12T11:23:29Z</time>
      </trkpt>
      <trkpt lat="45.89695" lon="5.63518">
        <ele>789</ele>
        <time>2026-05-12T11:23:30Z</time>
      </trkpt>
      <trkpt lat="45.89687" lon="5.63519">
        <ele>788.8</ele>
        <time>2026-05-12T11:23:31Z</time>
      </trkpt>
      <trkpt lat="45.89681" lon="5.6352">
        <ele>788.8</ele>
        <time>2026-05-12T11:23:32Z</time>
      </trkpt>
      <trkpt lat="45.89675" lon="5.63521">
        <ele>788.8</ele>
        <time>2026-05-12T11:23:33Z</time>
      </trkpt>
      <trkpt lat="45.89669" lon="5.63523">
        <ele>788.4</ele>
        <time>2026-05-12T11:23:34Z</time>
      </trkpt>
      <trkpt lat="45.89663" lon="5.63524">
        <ele>788.6</ele>
        <time>2026-05-12T11:23:35Z</time>
      </trkpt>
      <trkpt lat="45.89664" lon="5.63523">
        <ele>789</ele>
        <time>2026-05-12T11:23:36Z</time>
      </trkpt>
      <trkpt lat="45.89661" lon="5.63523">
        <ele>789</ele>
        <time>2026-05-12T11:23:37Z</time>
      </trkpt>
      <trkpt lat="45.89658" lon="5.63524">
        <ele>789.4</ele>
        <time>2026-05-12T11:23:38Z</time>
      </trkpt>
      <trkpt lat="45.89653" lon="5.63525">
        <ele>790.2</ele>
        <time>2026-05-12T11:23:39Z</time>
      </trkpt>
      <trkpt lat="45.89651" lon="5.63527">
        <ele>790.4</ele>
        <time>2026-05-12T11:23:40Z</time>
      </trkpt>
      <trkpt lat="45.89652" lon="5.63526">
        <ele>790.8</ele>
        <time>2026-05-12T11:23:41Z</time>
      </trkpt>
      <trkpt lat="45.89652" lon="5.63527">
        <ele>790.8</ele>
        <time>2026-05-12T11:23:42Z</time>
      </trkpt>
      <trkpt lat="45.89649" lon="5.63528">
        <ele>790.8</ele>
        <time>2026-05-12T11:23:43Z</time>
      </trkpt>
      <trkpt lat="45.89649" lon="5.63528">
        <ele>791</ele>
        <time>2026-05-12T11:23:44Z</time>
      </trkpt>
      <trkpt lat="45.89649" lon="5.63528">
        <ele>791</ele>
        <time>2026-05-12T11:23:45Z</time>
      </trkpt>
      <trkpt lat="45.89648" lon="5.63528">
        <ele>791</ele>
        <time>2026-05-12T11:23:46Z</time>
      </trkpt>
      <trkpt lat="45.89642" lon="5.6353">
        <ele>791.4</ele>
        <time>2026-05-12T11:23:47Z</time>
      </trkpt>
      <trkpt lat="45.8964" lon="5.6353">
        <ele>791.8</ele>
        <time>2026-05-12T11:23:48Z</time>
      </trkpt>
      <trkpt lat="45.89637" lon="5.63531">
        <ele>792</ele>
        <time>2026-05-12T11:23:49Z</time>
      </trkpt>
      <trkpt lat="45.89635" lon="5.63531">
        <ele>792.4</ele>
        <time>2026-05-12T11:23:50Z</time>
      </trkpt>
      <trkpt lat="45.89633" lon="5.63531">
        <ele>793</ele>
        <time>2026-05-12T11:23:51Z</time>
      </trkpt>
      <trkpt lat="45.89632" lon="5.63532">
        <ele>793.2</ele>
        <time>2026-05-12T11:23:52Z</time>
      </trkpt>
      <trkpt lat="45.8963" lon="5.63532">
        <ele>793.4</ele>
        <time>2026-05-12T11:23:53Z</time>
      </trkpt>
      <trkpt lat="45.89628" lon="5.63533">
        <ele>793.4</ele>
        <time>2026-05-12T11:23:54Z</time>
      </trkpt>
      <trkpt lat="45.89624" lon="5.63531">
        <ele>793.6</ele>
        <time>2026-05-12T11:23:55Z</time>
      </trkpt>
      <trkpt lat="45.89621" lon="5.63531">
        <ele>794</ele>
        <time>2026-05-12T11:23:56Z</time>
      </trkpt>
      <trkpt lat="45.89619" lon="5.63531">
        <ele>794.4</ele>
        <time>2026-05-12T11:23:57Z</time>
      </trkpt>
      <trkpt lat="45.89618" lon="5.63531">
        <ele>794.4</ele>
        <time>2026-05-12T11:23:58Z</time>
      </trkpt>
      <trkpt lat="45.89616" lon="5.6353">
        <ele>794.4</ele>
        <time>2026-05-12T11:23:59Z</time>
      </trkpt>
      <trkpt lat="45.89615" lon="5.6353">
        <ele>794.6</ele>
        <time>2026-05-12T11:24:00Z</time>
      </trkpt>
      <trkpt lat="45.89614" lon="5.63529">
        <ele>795</ele>
        <time>2026-05-12T11:24:01Z</time>
      </trkpt>
      <trkpt lat="45.89613" lon="5.63528">
        <ele>795</ele>
        <time>2026-05-12T11:24:02Z</time>
      </trkpt>
      <trkpt lat="45.89611" lon="5.63528">
        <ele>795.2</ele>
        <time>2026-05-12T11:24:03Z</time>
      </trkpt>
      <trkpt lat="45.89609" lon="5.63528">
        <ele>795.6</ele>
        <time>2026-05-12T11:24:04Z</time>
      </trkpt>
      <trkpt lat="45.89608" lon="5.63528">
        <ele>795.6</ele>
        <time>2026-05-12T11:24:05Z</time>
      </trkpt>
      <trkpt lat="45.89607" lon="5.63527">
        <ele>795.6</ele>
        <time>2026-05-12T11:24:06Z</time>
      </trkpt>
      <trkpt lat="45.89605" lon="5.63527">
        <ele>796</ele>
        <time>2026-05-12T11:24:07Z</time>
      </trkpt>
      <trkpt lat="45.89603" lon="5.63527">
        <ele>796.2</ele>
        <time>2026-05-12T11:24:08Z</time>
      </trkpt>
      <trkpt lat="45.89593" lon="5.63527">
        <ele>796.2</ele>
        <time>2026-05-12T11:24:09Z</time>
      </trkpt>
      <trkpt lat="45.89592" lon="5.63527">
        <ele>796.4</ele>
        <time>2026-05-12T11:24:10Z</time>
      </trkpt>
      <trkpt lat="45.89588" lon="5.63527">
        <ele>796.4</ele>
        <time>2026-05-12T11:24:11Z</time>
      </trkpt>
      <trkpt lat="45.89586" lon="5.63527">
        <ele>796.4</ele>
        <time>2026-05-12T11:24:12Z</time>
      </trkpt>
      <trkpt lat="45.89583" lon="5.63528">
        <ele>796.8</ele>
        <time>2026-05-12T11:24:13Z</time>
      </trkpt>
      <trkpt lat="45.89585" lon="5.63527">
        <ele>796.2</ele>
        <time>2026-05-12T11:24:14Z</time>
      </trkpt>
      <trkpt lat="45.89585" lon="5.63527">
        <ele>796.6</ele>
        <time>2026-05-12T11:24:15Z</time>
      </trkpt>
      <trkpt lat="45.89585" lon="5.63527">
        <ele>796.8</ele>
        <time>2026-05-12T11:24:16Z</time>
      </trkpt>
      <trkpt lat="45.89584" lon="5.63527">
        <ele>797</ele>
        <time>2026-05-12T11:24:17Z</time>
      </trkpt>
      <trkpt lat="45.89584" lon="5.63527">
        <ele>797.4</ele>
        <time>2026-05-12T11:24:18Z</time>
      </trkpt>
      <trkpt lat="45.89582" lon="5.63527">
        <ele>797.4</ele>
        <time>2026-05-12T11:24:19Z</time>
      </trkpt>
      <trkpt lat="45.89582" lon="5.63528">
        <ele>797.6</ele>
        <time>2026-05-12T11:24:20Z</time>
      </trkpt>
      <trkpt lat="45.8958" lon="5.63528">
        <ele>797.8</ele>
        <time>2026-05-12T11:24:21Z</time>
      </trkpt>
      <trkpt lat="45.89577" lon="5.63528">
        <ele>797.8</ele>
        <time>2026-05-12T11:24:22Z</time>
      </trkpt>
      <trkpt lat="45.89575" lon="5.63528">
        <ele>798</ele>
        <time>2026-05-12T11:24:23Z</time>
      </trkpt>
      <trkpt lat="45.89573" lon="5.63528">
        <ele>798</ele>
        <time>2026-05-12T11:24:24Z</time>
      </trkpt>
      <trkpt lat="45.89572" lon="5.63528">
        <ele>798</ele>
        <time>2026-05-12T11:24:25Z</time>
      </trkpt>
      <trkpt lat="45.8957" lon="5.63529">
        <ele>798</ele>
        <time>2026-05-12T11:24:26Z</time>
      </trkpt>
      <trkpt lat="45.89568" lon="5.6353">
        <ele>798</ele>
        <time>2026-05-12T11:24:27Z</time>
      </trkpt>
      <trkpt lat="45.89565" lon="5.63531">
        <ele>798.4</ele>
        <time>2026-05-12T11:24:28Z</time>
      </trkpt>
      <trkpt lat="45.89563" lon="5.63531">
        <ele>798.8</ele>
        <time>2026-05-12T11:24:29Z</time>
      </trkpt>
      <trkpt lat="45.8956" lon="5.63532">
        <ele>798.8</ele>
        <time>2026-05-12T11:24:30Z</time>
      </trkpt>
      <trkpt lat="45.89558" lon="5.63532">
        <ele>799</ele>
        <time>2026-05-12T11:24:31Z</time>
      </trkpt>
      <trkpt lat="45.89557" lon="5.63533">
        <ele>799</ele>
        <time>2026-05-12T11:24:32Z</time>
      </trkpt>
      <trkpt lat="45.89556" lon="5.63533">
        <ele>799.2</ele>
        <time>2026-05-12T11:24:33Z</time>
      </trkpt>
      <trkpt lat="45.89554" lon="5.63533">
        <ele>799.4</ele>
        <time>2026-05-12T11:24:34Z</time>
      </trkpt>
      <trkpt lat="45.89553" lon="5.63533">
        <ele>799.8</ele>
        <time>2026-05-12T11:24:35Z</time>
      </trkpt>
      <trkpt lat="45.89552" lon="5.63533">
        <ele>799.8</ele>
        <time>2026-05-12T11:24:36Z</time>
      </trkpt>
      <trkpt lat="45.8955" lon="5.63533">
        <ele>800</ele>
        <time>2026-05-12T11:24:37Z</time>
      </trkpt>
      <trkpt lat="45.8955" lon="5.63533">
        <ele>800</ele>
        <time>2026-05-12T11:24:38Z</time>
      </trkpt>
      <trkpt lat="45.89548" lon="5.63534">
        <ele>800.6</ele>
        <time>2026-05-12T11:24:39Z</time>
      </trkpt>
      <trkpt lat="45.89547" lon="5.63534">
        <ele>800.6</ele>
        <time>2026-05-12T11:24:40Z</time>
      </trkpt>
      <trkpt lat="45.89546" lon="5.63535">
        <ele>801</ele>
        <time>2026-05-12T11:24:41Z</time>
      </trkpt>
      <trkpt lat="45.89546" lon="5.63535">
        <ele>801.2</ele>
        <time>2026-05-12T11:24:42Z</time>
      </trkpt>
      <trkpt lat="45.89547" lon="5.63535">
        <ele>801.2</ele>
        <time>2026-05-12T11:24:43Z</time>
      </trkpt>
      <trkpt lat="45.89547" lon="5.63536">
        <ele>801.6</ele>
        <time>2026-05-12T11:24:44Z</time>
      </trkpt>
      <trkpt lat="45.89546" lon="5.63536">
        <ele>801.8</ele>
        <time>2026-05-12T11:24:45Z</time>
      </trkpt>
      <trkpt lat="45.89546" lon="5.63536">
        <ele>802.2</ele>
        <time>2026-05-12T11:24:46Z</time>
      </trkpt>
      <trkpt lat="45.89547" lon="5.63537">
        <ele>802.4</ele>
        <time>2026-05-12T11:24:47Z</time>
      </trkpt>
      <trkpt lat="45.89547" lon="5.63537">
        <ele>802.6</ele>
        <time>2026-05-12T11:24:48Z</time>
      </trkpt>
      <trkpt lat="45.89546" lon="5.63537">
        <ele>802.6</ele>
        <time>2026-05-12T11:24:49Z</time>
      </trkpt>
      <trkpt lat="45.89545" lon="5.63538">
        <ele>803</ele>
        <time>2026-05-12T11:24:50Z</time>
      </trkpt>
      <trkpt lat="45.89543" lon="5.63538">
        <ele>803.2</ele>
        <time>2026-05-12T11:24:51Z</time>
      </trkpt>
      <trkpt lat="45.89542" lon="5.63539">
        <ele>803.2</ele>
        <time>2026-05-12T11:24:52Z</time>
      </trkpt>
      <trkpt lat="45.8954" lon="5.63539">
        <ele>803.4</ele>
        <time>2026-05-12T11:24:53Z</time>
      </trkpt>
      <trkpt lat="45.89539" lon="5.6354">
        <ele>803.8</ele>
        <time>2026-05-12T11:24:54Z</time>
      </trkpt>
      <trkpt lat="45.89538" lon="5.6354">
        <ele>804</ele>
        <time>2026-05-12T11:24:55Z</time>
      </trkpt>
      <trkpt lat="45.89537" lon="5.6354">
        <ele>804</ele>
        <time>2026-05-12T11:24:56Z</time>
      </trkpt>
      <trkpt lat="45.89535" lon="5.63541">
        <ele>804.2</ele>
        <time>2026-05-12T11:24:57Z</time>
      </trkpt>
      <trkpt lat="45.89533" lon="5.63541">
        <ele>804.2</ele>
        <time>2026-05-12T11:24:58Z</time>
      </trkpt>
      <trkpt lat="45.89532" lon="5.63542">
        <ele>804.4</ele>
        <time>2026-05-12T11:24:59Z</time>
      </trkpt>
      <trkpt lat="45.8953" lon="5.63542">
        <ele>804.4</ele>
        <time>2026-05-12T11:25:00Z</time>
      </trkpt>
      <trkpt lat="45.89528" lon="5.63543">
        <ele>804.4</ele>
        <time>2026-05-12T11:25:01Z</time>
      </trkpt>
      <trkpt lat="45.89527" lon="5.63543">
        <ele>804.4</ele>
        <time>2026-05-12T11:25:02Z</time>
      </trkpt>
      <trkpt lat="45.89525" lon="5.63543">
        <ele>804.4</ele>
        <time>2026-05-12T11:25:03Z</time>
      </trkpt>
      <trkpt lat="45.89523" lon="5.63544">
        <ele>804.8</ele>
        <time>2026-05-12T11:25:04Z</time>
      </trkpt>
      <trkpt lat="45.89522" lon="5.63544">
        <ele>804.8</ele>
        <time>2026-05-12T11:25:05Z</time>
      </trkpt>
      <trkpt lat="45.8952" lon="5.63544">
        <ele>804.8</ele>
        <time>2026-05-12T11:25:06Z</time>
      </trkpt>
      <trkpt lat="45.89519" lon="5.63544">
        <ele>804.8</ele>
        <time>2026-05-12T11:25:07Z</time>
      </trkpt>
      <trkpt lat="45.89518" lon="5.63544">
        <ele>804.8</ele>
        <time>2026-05-12T11:25:08Z</time>
      </trkpt>
      <trkpt lat="45.89516" lon="5.63544">
        <ele>805</ele>
        <time>2026-05-12T11:25:09Z</time>
      </trkpt>
      <trkpt lat="45.89515" lon="5.63544">
        <ele>805.2</ele>
        <time>2026-05-12T11:25:10Z</time>
      </trkpt>
      <trkpt lat="45.89514" lon="5.63544">
        <ele>805.2</ele>
        <time>2026-05-12T11:25:11Z</time>
      </trkpt>
      <trkpt lat="45.89513" lon="5.63544">
        <ele>805.6</ele>
        <time>2026-05-12T11:25:12Z</time>
      </trkpt>
      <trkpt lat="45.89512" lon="5.63545">
        <ele>805.8</ele>
        <time>2026-05-12T11:25:13Z</time>
      </trkpt>
      <trkpt lat="45.89509" lon="5.63544">
        <ele>805.8</ele>
        <time>2026-05-12T11:25:14Z</time>
      </trkpt>
      <trkpt lat="45.89508" lon="5.63544">
        <ele>805.8</ele>
        <time>2026-05-12T11:25:15Z</time>
      </trkpt>
      <trkpt lat="45.89507" lon="5.63544">
        <ele>805.8</ele>
        <time>2026-05-12T11:25:16Z</time>
      </trkpt>
      <trkpt lat="45.89506" lon="5.63544">
        <ele>806</ele>
        <time>2026-05-12T11:25:17Z</time>
      </trkpt>
      <trkpt lat="45.89504" lon="5.63545">
        <ele>806</ele>
        <time>2026-05-12T11:25:18Z</time>
      </trkpt>
      <trkpt lat="45.89503" lon="5.63545">
        <ele>806.2</ele>
        <time>2026-05-12T11:25:19Z</time>
      </trkpt>
      <trkpt lat="45.89501" lon="5.63545">
        <ele>806.2</ele>
        <time>2026-05-12T11:25:20Z</time>
      </trkpt>
      <trkpt lat="45.895" lon="5.63546">
        <ele>806.4</ele>
        <time>2026-05-12T11:25:21Z</time>
      </trkpt>
      <trkpt lat="45.895" lon="5.63546">
        <ele>806.4</ele>
        <time>2026-05-12T11:25:22Z</time>
      </trkpt>
      <trkpt lat="45.89499" lon="5.63546">
        <ele>806.6</ele>
        <time>2026-05-12T11:25:23Z</time>
      </trkpt>
      <trkpt lat="45.89499" lon="5.63546">
        <ele>806.6</ele>
        <time>2026-05-12T11:25:24Z</time>
      </trkpt>
      <trkpt lat="45.89498" lon="5.63546">
        <ele>807</ele>
        <time>2026-05-12T11:25:25Z</time>
      </trkpt>
      <trkpt lat="45.89497" lon="5.63547">
        <ele>807</ele>
        <time>2026-05-12T11:25:26Z</time>
      </trkpt>
      <trkpt lat="45.89496" lon="5.63547">
        <ele>807</ele>
        <time>2026-05-12T11:25:27Z</time>
      </trkpt>
      <trkpt lat="45.89494" lon="5.63547">
        <ele>807.2</ele>
        <time>2026-05-12T11:25:28Z</time>
      </trkpt>
      <trkpt lat="45.89492" lon="5.63548">
        <ele>807.2</ele>
        <time>2026-05-12T11:25:29Z</time>
      </trkpt>
      <trkpt lat="45.8949" lon="5.63548">
        <ele>807.2</ele>
        <time>2026-05-12T11:25:30Z</time>
      </trkpt>
      <trkpt lat="45.89488" lon="5.63548">
        <ele>807.2</ele>
        <time>2026-05-12T11:25:31Z</time>
      </trkpt>
      <trkpt lat="45.89486" lon="5.63549">
        <ele>807.2</ele>
        <time>2026-05-12T11:25:32Z</time>
      </trkpt>
      <trkpt lat="45.89484" lon="5.6355">
        <ele>807.2</ele>
        <time>2026-05-12T11:25:33Z</time>
      </trkpt>
      <trkpt lat="45.89482" lon="5.63551">
        <ele>807.6</ele>
        <time>2026-05-12T11:25:34Z</time>
      </trkpt>
      <trkpt lat="45.89481" lon="5.63551">
        <ele>807.6</ele>
        <time>2026-05-12T11:25:35Z</time>
      </trkpt>
      <trkpt lat="45.8948" lon="5.6355">
        <ele>807.8</ele>
        <time>2026-05-12T11:25:36Z</time>
      </trkpt>
      <trkpt lat="45.89478" lon="5.6355">
        <ele>807.8</ele>
        <time>2026-05-12T11:25:37Z</time>
      </trkpt>
      <trkpt lat="45.89476" lon="5.6355">
        <ele>808</ele>
        <time>2026-05-12T11:25:38Z</time>
      </trkpt>
      <trkpt lat="45.89475" lon="5.63549">
        <ele>808</ele>
        <time>2026-05-12T11:25:39Z</time>
      </trkpt>
      <trkpt lat="45.89474" lon="5.63549">
        <ele>808</ele>
        <time>2026-05-12T11:25:40Z</time>
      </trkpt>
      <trkpt lat="45.89473" lon="5.63548">
        <ele>808.4</ele>
        <time>2026-05-12T11:25:41Z</time>
      </trkpt>
      <trkpt lat="45.89472" lon="5.63547">
        <ele>808.6</ele>
        <time>2026-05-12T11:25:42Z</time>
      </trkpt>
      <trkpt lat="45.8947" lon="5.63547">
        <ele>809</ele>
        <time>2026-05-12T11:25:43Z</time>
      </trkpt>
      <trkpt lat="45.89469" lon="5.63547">
        <ele>809</ele>
        <time>2026-05-12T11:25:44Z</time>
      </trkpt>
      <trkpt lat="45.89468" lon="5.63546">
        <ele>809.2</ele>
        <time>2026-05-12T11:25:45Z</time>
      </trkpt>
      <trkpt lat="45.89468" lon="5.63546">
        <ele>809.2</ele>
        <time>2026-05-12T11:25:46Z</time>
      </trkpt>
      <trkpt lat="45.89466" lon="5.63546">
        <ele>809.4</ele>
        <time>2026-05-12T11:25:47Z</time>
      </trkpt>
      <trkpt lat="45.89465" lon="5.63545">
        <ele>809.6</ele>
        <time>2026-05-12T11:25:48Z</time>
      </trkpt>
      <trkpt lat="45.89464" lon="5.63545">
        <ele>810</ele>
        <time>2026-05-12T11:25:49Z</time>
      </trkpt>
      <trkpt lat="45.89463" lon="5.63544">
        <ele>810</ele>
        <time>2026-05-12T11:25:50Z</time>
      </trkpt>
      <trkpt lat="45.89462" lon="5.63543">
        <ele>810</ele>
        <time>2026-05-12T11:25:51Z</time>
      </trkpt>
      <trkpt lat="45.8946" lon="5.63543">
        <ele>810.2</ele>
        <time>2026-05-12T11:25:52Z</time>
      </trkpt>
      <trkpt lat="45.89458" lon="5.63542">
        <ele>810.4</ele>
        <time>2026-05-12T11:25:53Z</time>
      </trkpt>
      <trkpt lat="45.89456" lon="5.63542">
        <ele>810.4</ele>
        <time>2026-05-12T11:25:54Z</time>
      </trkpt>
      <trkpt lat="45.89454" lon="5.63542">
        <ele>811</ele>
        <time>2026-05-12T11:25:55Z</time>
      </trkpt>
      <trkpt lat="45.89453" lon="5.63542">
        <ele>811.4</ele>
        <time>2026-05-12T11:25:56Z</time>
      </trkpt>
      <trkpt lat="45.89451" lon="5.63541">
        <ele>811.6</ele>
        <time>2026-05-12T11:25:57Z</time>
      </trkpt>
      <trkpt lat="45.89449" lon="5.6354">
        <ele>811.8</ele>
        <time>2026-05-12T11:25:58Z</time>
      </trkpt>
      <trkpt lat="45.89448" lon="5.6354">
        <ele>812</ele>
        <time>2026-05-12T11:25:59Z</time>
      </trkpt>
      <trkpt lat="45.89449" lon="5.6354">
        <ele>812</ele>
        <time>2026-05-12T11:26:00Z</time>
      </trkpt>
      <trkpt lat="45.89449" lon="5.6354">
        <ele>812.4</ele>
        <time>2026-05-12T11:26:01Z</time>
      </trkpt>
      <trkpt lat="45.89447" lon="5.6354">
        <ele>812.6</ele>
        <time>2026-05-12T11:26:02Z</time>
      </trkpt>
      <trkpt lat="45.89445" lon="5.63539">
        <ele>812.6</ele>
        <time>2026-05-12T11:26:03Z</time>
      </trkpt>
      <trkpt lat="45.89444" lon="5.6354">
        <ele>812.6</ele>
        <time>2026-05-12T11:26:04Z</time>
      </trkpt>
      <trkpt lat="45.89443" lon="5.63539">
        <ele>813</ele>
        <time>2026-05-12T11:26:05Z</time>
      </trkpt>
      <trkpt lat="45.89442" lon="5.63539">
        <ele>813</ele>
        <time>2026-05-12T11:26:06Z</time>
      </trkpt>
      <trkpt lat="45.89441" lon="5.63539">
        <ele>813</ele>
        <time>2026-05-12T11:26:07Z</time>
      </trkpt>
      <trkpt lat="45.89439" lon="5.6354">
        <ele>813.2</ele>
        <time>2026-05-12T11:26:08Z</time>
      </trkpt>
      <trkpt lat="45.89438" lon="5.6354">
        <ele>813.2</ele>
        <time>2026-05-12T11:26:09Z</time>
      </trkpt>
      <trkpt lat="45.89436" lon="5.6354">
        <ele>813.2</ele>
        <time>2026-05-12T11:26:10Z</time>
      </trkpt>
      <trkpt lat="45.89435" lon="5.63541">
        <ele>813.2</ele>
        <time>2026-05-12T11:26:11Z</time>
      </trkpt>
      <trkpt lat="45.89433" lon="5.63541">
        <ele>813.6</ele>
        <time>2026-05-12T11:26:12Z</time>
      </trkpt>
      <trkpt lat="45.89432" lon="5.63541">
        <ele>813.6</ele>
        <time>2026-05-12T11:26:13Z</time>
      </trkpt>
      <trkpt lat="45.89431" lon="5.63542">
        <ele>813.8</ele>
        <time>2026-05-12T11:26:14Z</time>
      </trkpt>
      <trkpt lat="45.8943" lon="5.63541">
        <ele>813.8</ele>
        <time>2026-05-12T11:26:15Z</time>
      </trkpt>
      <trkpt lat="45.89428" lon="5.63542">
        <ele>813.8</ele>
        <time>2026-05-12T11:26:16Z</time>
      </trkpt>
      <trkpt lat="45.89426" lon="5.63542">
        <ele>813.8</ele>
        <time>2026-05-12T11:26:17Z</time>
      </trkpt>
      <trkpt lat="45.89424" lon="5.63541">
        <ele>814.2</ele>
        <time>2026-05-12T11:26:18Z</time>
      </trkpt>
      <trkpt lat="45.89422" lon="5.63541">
        <ele>814.2</ele>
        <time>2026-05-12T11:26:19Z</time>
      </trkpt>
      <trkpt lat="45.89421" lon="5.63541">
        <ele>814.4</ele>
        <time>2026-05-12T11:26:20Z</time>
      </trkpt>
      <trkpt lat="45.8942" lon="5.63542">
        <ele>814.4</ele>
        <time>2026-05-12T11:26:21Z</time>
      </trkpt>
      <trkpt lat="45.89419" lon="5.63542">
        <ele>814.6</ele>
        <time>2026-05-12T11:26:22Z</time>
      </trkpt>
      <trkpt lat="45.89418" lon="5.63542">
        <ele>814.6</ele>
        <time>2026-05-12T11:26:23Z</time>
      </trkpt>
      <trkpt lat="45.89416" lon="5.63541">
        <ele>814.6</ele>
        <time>2026-05-12T11:26:24Z</time>
      </trkpt>
      <trkpt lat="45.89414" lon="5.6354">
        <ele>815</ele>
        <time>2026-05-12T11:26:25Z</time>
      </trkpt>
      <trkpt lat="45.89413" lon="5.63539">
        <ele>815.2</ele>
        <time>2026-05-12T11:26:26Z</time>
      </trkpt>
      <trkpt lat="45.89411" lon="5.63539">
        <ele>815.4</ele>
        <time>2026-05-12T11:26:27Z</time>
      </trkpt>
      <trkpt lat="45.89409" lon="5.63539">
        <ele>815.4</ele>
        <time>2026-05-12T11:26:28Z</time>
      </trkpt>
      <trkpt lat="45.89408" lon="5.63539">
        <ele>815.6</ele>
        <time>2026-05-12T11:26:29Z</time>
      </trkpt>
      <trkpt lat="45.89406" lon="5.63539">
        <ele>815.6</ele>
        <time>2026-05-12T11:26:30Z</time>
      </trkpt>
      <trkpt lat="45.89405" lon="5.63539">
        <ele>816</ele>
        <time>2026-05-12T11:26:31Z</time>
      </trkpt>
      <trkpt lat="45.89404" lon="5.63539">
        <ele>816</ele>
        <time>2026-05-12T11:26:32Z</time>
      </trkpt>
      <trkpt lat="45.89403" lon="5.63539">
        <ele>816.2</ele>
        <time>2026-05-12T11:26:33Z</time>
      </trkpt>
      <trkpt lat="45.89402" lon="5.63538">
        <ele>816.2</ele>
        <time>2026-05-12T11:26:34Z</time>
      </trkpt>
      <trkpt lat="45.894" lon="5.63538">
        <ele>816.2</ele>
        <time>2026-05-12T11:26:35Z</time>
      </trkpt>
      <trkpt lat="45.89399" lon="5.63538">
        <ele>816.4</ele>
        <time>2026-05-12T11:26:36Z</time>
      </trkpt>
      <trkpt lat="45.89398" lon="5.63539">
        <ele>816.4</ele>
        <time>2026-05-12T11:26:37Z</time>
      </trkpt>
      <trkpt lat="45.89398" lon="5.63541">
        <ele>816.8</ele>
        <time>2026-05-12T11:26:38Z</time>
      </trkpt>
      <trkpt lat="45.89397" lon="5.63542">
        <ele>816.8</ele>
        <time>2026-05-12T11:26:39Z</time>
      </trkpt>
      <trkpt lat="45.89395" lon="5.63542">
        <ele>817</ele>
        <time>2026-05-12T11:26:40Z</time>
      </trkpt>
      <trkpt lat="45.89394" lon="5.63542">
        <ele>817.2</ele>
        <time>2026-05-12T11:26:41Z</time>
      </trkpt>
      <trkpt lat="45.89392" lon="5.63543">
        <ele>817.6</ele>
        <time>2026-05-12T11:26:42Z</time>
      </trkpt>
      <trkpt lat="45.89391" lon="5.63544">
        <ele>817.6</ele>
        <time>2026-05-12T11:26:43Z</time>
      </trkpt>
      <trkpt lat="45.89389" lon="5.63545">
        <ele>817.8</ele>
        <time>2026-05-12T11:26:44Z</time>
      </trkpt>
      <trkpt lat="45.89388" lon="5.63546">
        <ele>817.8</ele>
        <time>2026-05-12T11:26:45Z</time>
      </trkpt>
      <trkpt lat="45.89387" lon="5.63547">
        <ele>818</ele>
        <time>2026-05-12T11:26:46Z</time>
      </trkpt>
      <trkpt lat="45.89385" lon="5.63549">
        <ele>818</ele>
        <time>2026-05-12T11:26:47Z</time>
      </trkpt>
      <trkpt lat="45.89383" lon="5.6355">
        <ele>818.4</ele>
        <time>2026-05-12T11:26:48Z</time>
      </trkpt>
      <trkpt lat="45.89382" lon="5.6355">
        <ele>818.4</ele>
        <time>2026-05-12T11:26:49Z</time>
      </trkpt>
      <trkpt lat="45.89381" lon="5.6355">
        <ele>818.8</ele>
        <time>2026-05-12T11:26:50Z</time>
      </trkpt>
      <trkpt lat="45.89379" lon="5.63551">
        <ele>818.8</ele>
        <time>2026-05-12T11:26:51Z</time>
      </trkpt>
      <trkpt lat="45.89377" lon="5.6355">
        <ele>818.8</ele>
        <time>2026-05-12T11:26:52Z</time>
      </trkpt>
      <trkpt lat="45.89375" lon="5.6355">
        <ele>818.8</ele>
        <time>2026-05-12T11:26:53Z</time>
      </trkpt>
      <trkpt lat="45.89373" lon="5.6355">
        <ele>819</ele>
        <time>2026-05-12T11:26:54Z</time>
      </trkpt>
      <trkpt lat="45.89371" lon="5.63551">
        <ele>819</ele>
        <time>2026-05-12T11:26:55Z</time>
      </trkpt>
      <trkpt lat="45.89368" lon="5.63552">
        <ele>819.4</ele>
        <time>2026-05-12T11:26:56Z</time>
      </trkpt>
      <trkpt lat="45.89366" lon="5.63552">
        <ele>819.6</ele>
        <time>2026-05-12T11:26:57Z</time>
      </trkpt>
      <trkpt lat="45.89365" lon="5.63552">
        <ele>819.6</ele>
        <time>2026-05-12T11:26:58Z</time>
      </trkpt>
      <trkpt lat="45.89364" lon="5.63552">
        <ele>819.8</ele>
        <time>2026-05-12T11:26:59Z</time>
      </trkpt>
      <trkpt lat="45.89362" lon="5.63552">
        <ele>819.8</ele>
        <time>2026-05-12T11:27:00Z</time>
      </trkpt>
      <trkpt lat="45.8936" lon="5.63552">
        <ele>820.2</ele>
        <time>2026-05-12T11:27:01Z</time>
      </trkpt>
      <trkpt lat="45.89358" lon="5.63552">
        <ele>820.4</ele>
        <time>2026-05-12T11:27:02Z</time>
      </trkpt>
      <trkpt lat="45.89356" lon="5.63552">
        <ele>820.4</ele>
        <time>2026-05-12T11:27:03Z</time>
      </trkpt>
      <trkpt lat="45.89354" lon="5.63552">
        <ele>820.8</ele>
        <time>2026-05-12T11:27:04Z</time>
      </trkpt>
      <trkpt lat="45.89352" lon="5.63552">
        <ele>821</ele>
        <time>2026-05-12T11:27:05Z</time>
      </trkpt>
      <trkpt lat="45.89351" lon="5.63552">
        <ele>821</ele>
        <time>2026-05-12T11:27:06Z</time>
      </trkpt>
      <trkpt lat="45.8935" lon="5.63552">
        <ele>821.2</ele>
        <time>2026-05-12T11:27:07Z</time>
      </trkpt>
      <trkpt lat="45.89348" lon="5.63552">
        <ele>821.2</ele>
        <time>2026-05-12T11:27:08Z</time>
      </trkpt>
      <trkpt lat="45.89345" lon="5.63552">
        <ele>821.6</ele>
        <time>2026-05-12T11:27:09Z</time>
      </trkpt>
      <trkpt lat="45.89344" lon="5.63552">
        <ele>821.6</ele>
        <time>2026-05-12T11:27:10Z</time>
      </trkpt>
      <trkpt lat="45.89343" lon="5.63552">
        <ele>821.8</ele>
        <time>2026-05-12T11:27:11Z</time>
      </trkpt>
      <trkpt lat="45.89341" lon="5.63552">
        <ele>821.8</ele>
        <time>2026-05-12T11:27:12Z</time>
      </trkpt>
      <trkpt lat="45.8934" lon="5.63552">
        <ele>822</ele>
        <time>2026-05-12T11:27:13Z</time>
      </trkpt>
      <trkpt lat="45.89337" lon="5.63553">
        <ele>822</ele>
        <time>2026-05-12T11:27:14Z</time>
      </trkpt>
      <trkpt lat="45.89335" lon="5.63553">
        <ele>822</ele>
        <time>2026-05-12T11:27:15Z</time>
      </trkpt>
      <trkpt lat="45.89333" lon="5.63553">
        <ele>822</ele>
        <time>2026-05-12T11:27:16Z</time>
      </trkpt>
      <trkpt lat="45.89331" lon="5.63554">
        <ele>822.4</ele>
        <time>2026-05-12T11:27:17Z</time>
      </trkpt>
      <trkpt lat="45.8933" lon="5.63554">
        <ele>822.4</ele>
        <time>2026-05-12T11:27:18Z</time>
      </trkpt>
      <trkpt lat="45.89328" lon="5.63554">
        <ele>822.4</ele>
        <time>2026-05-12T11:27:19Z</time>
      </trkpt>
      <trkpt lat="45.89326" lon="5.63555">
        <ele>822.2</ele>
        <time>2026-05-12T11:27:20Z</time>
      </trkpt>
      <trkpt lat="45.89325" lon="5.63555">
        <ele>822.2</ele>
        <time>2026-05-12T11:27:21Z</time>
      </trkpt>
      <trkpt lat="45.89323" lon="5.63556">
        <ele>822.2</ele>
        <time>2026-05-12T11:27:22Z</time>
      </trkpt>
      <trkpt lat="45.8932" lon="5.63556">
        <ele>822.4</ele>
        <time>2026-05-12T11:27:23Z</time>
      </trkpt>
      <trkpt lat="45.89319" lon="5.63556">
        <ele>822.8</ele>
        <time>2026-05-12T11:27:24Z</time>
      </trkpt>
      <trkpt lat="45.89319" lon="5.63557">
        <ele>822.8</ele>
        <time>2026-05-12T11:27:25Z</time>
      </trkpt>
      <trkpt lat="45.89317" lon="5.63557">
        <ele>823</ele>
        <time>2026-05-12T11:27:26Z</time>
      </trkpt>
      <trkpt lat="45.89315" lon="5.63557">
        <ele>823</ele>
        <time>2026-05-12T11:27:27Z</time>
      </trkpt>
      <trkpt lat="45.89314" lon="5.63557">
        <ele>823.6</ele>
        <time>2026-05-12T11:27:28Z</time>
      </trkpt>
      <trkpt lat="45.89312" lon="5.63557">
        <ele>824</ele>
        <time>2026-05-12T11:27:29Z</time>
      </trkpt>
      <trkpt lat="45.8931" lon="5.63557">
        <ele>824.2</ele>
        <time>2026-05-12T11:27:30Z</time>
      </trkpt>
      <trkpt lat="45.89308" lon="5.63557">
        <ele>824.4</ele>
        <time>2026-05-12T11:27:31Z</time>
      </trkpt>
      <trkpt lat="45.89306" lon="5.63557">
        <ele>824.4</ele>
        <time>2026-05-12T11:27:32Z</time>
      </trkpt>
      <trkpt lat="45.89305" lon="5.63557">
        <ele>824.8</ele>
        <time>2026-05-12T11:27:33Z</time>
      </trkpt>
      <trkpt lat="45.89304" lon="5.63556">
        <ele>824.8</ele>
        <time>2026-05-12T11:27:34Z</time>
      </trkpt>
      <trkpt lat="45.89304" lon="5.63556">
        <ele>825</ele>
        <time>2026-05-12T11:27:35Z</time>
      </trkpt>
      <trkpt lat="45.89303" lon="5.63557">
        <ele>825</ele>
        <time>2026-05-12T11:27:36Z</time>
      </trkpt>
      <trkpt lat="45.89301" lon="5.63557">
        <ele>825.4</ele>
        <time>2026-05-12T11:27:37Z</time>
      </trkpt>
      <trkpt lat="45.893" lon="5.63557">
        <ele>825.8</ele>
        <time>2026-05-12T11:27:38Z</time>
      </trkpt>
      <trkpt lat="45.89298" lon="5.63558">
        <ele>825.8</ele>
        <time>2026-05-12T11:27:39Z</time>
      </trkpt>
      <trkpt lat="45.89296" lon="5.63558">
        <ele>826</ele>
        <time>2026-05-12T11:27:40Z</time>
      </trkpt>
      <trkpt lat="45.89294" lon="5.63559">
        <ele>826.4</ele>
        <time>2026-05-12T11:27:41Z</time>
      </trkpt>
      <trkpt lat="45.89293" lon="5.63558">
        <ele>826.4</ele>
        <time>2026-05-12T11:27:42Z</time>
      </trkpt>
      <trkpt lat="45.89292" lon="5.63558">
        <ele>826.4</ele>
        <time>2026-05-12T11:27:43Z</time>
      </trkpt>
      <trkpt lat="45.89291" lon="5.63558">
        <ele>826.6</ele>
        <time>2026-05-12T11:27:44Z</time>
      </trkpt>
      <trkpt lat="45.89289" lon="5.63558">
        <ele>826.8</ele>
        <time>2026-05-12T11:27:45Z</time>
      </trkpt>
      <trkpt lat="45.89287" lon="5.63559">
        <ele>826.8</ele>
        <time>2026-05-12T11:27:46Z</time>
      </trkpt>
      <trkpt lat="45.89285" lon="5.63559">
        <ele>826.8</ele>
        <time>2026-05-12T11:27:47Z</time>
      </trkpt>
      <trkpt lat="45.89283" lon="5.63559">
        <ele>827.2</ele>
        <time>2026-05-12T11:27:48Z</time>
      </trkpt>
      <trkpt lat="45.89281" lon="5.6356">
        <ele>827.2</ele>
        <time>2026-05-12T11:27:49Z</time>
      </trkpt>
      <trkpt lat="45.89279" lon="5.6356">
        <ele>827</ele>
        <time>2026-05-12T11:27:50Z</time>
      </trkpt>
      <trkpt lat="45.89277" lon="5.63561">
        <ele>827</ele>
        <time>2026-05-12T11:27:51Z</time>
      </trkpt>
      <trkpt lat="45.89275" lon="5.63561">
        <ele>827</ele>
        <time>2026-05-12T11:27:52Z</time>
      </trkpt>
      <trkpt lat="45.89272" lon="5.63561">
        <ele>827</ele>
        <time>2026-05-12T11:27:53Z</time>
      </trkpt>
      <trkpt lat="45.8927" lon="5.63562">
        <ele>826.8</ele>
        <time>2026-05-12T11:27:54Z</time>
      </trkpt>
      <trkpt lat="45.89267" lon="5.63564">
        <ele>826.4</ele>
        <time>2026-05-12T11:27:55Z</time>
      </trkpt>
      <trkpt lat="45.89264" lon="5.63566">
        <ele>826.4</ele>
        <time>2026-05-12T11:27:56Z</time>
      </trkpt>
      <trkpt lat="45.89261" lon="5.63568">
        <ele>826.4</ele>
        <time>2026-05-12T11:27:57Z</time>
      </trkpt>
      <trkpt lat="45.89256" lon="5.63569">
        <ele>825.8</ele>
        <time>2026-05-12T11:27:58Z</time>
      </trkpt>
      <trkpt lat="45.89248" lon="5.6357">
        <ele>825.8</ele>
        <time>2026-05-12T11:27:59Z</time>
      </trkpt>
      <trkpt lat="45.89244" lon="5.63572">
        <ele>825.4</ele>
        <time>2026-05-12T11:28:00Z</time>
      </trkpt>
      <trkpt lat="45.89241" lon="5.63574">
        <ele>825.4</ele>
        <time>2026-05-12T11:28:01Z</time>
      </trkpt>
      <trkpt lat="45.89238" lon="5.63575">
        <ele>825.4</ele>
        <time>2026-05-12T11:28:02Z</time>
      </trkpt>
      <trkpt lat="45.89235" lon="5.63576">
        <ele>825.4</ele>
        <time>2026-05-12T11:28:03Z</time>
      </trkpt>
      <trkpt lat="45.89232" lon="5.63577">
        <ele>825.4</ele>
        <time>2026-05-12T11:28:04Z</time>
      </trkpt>
      <trkpt lat="45.89232" lon="5.63577">
        <ele>825.6</ele>
        <time>2026-05-12T11:28:05Z</time>
      </trkpt>
      <trkpt lat="45.89228" lon="5.63578">
        <ele>825.8</ele>
        <time>2026-05-12T11:28:06Z</time>
      </trkpt>
      <trkpt lat="45.89225" lon="5.63579">
        <ele>825.8</ele>
        <time>2026-05-12T11:28:07Z</time>
      </trkpt>
      <trkpt lat="45.89222" lon="5.6358">
        <ele>825.8</ele>
        <time>2026-05-12T11:28:08Z</time>
      </trkpt>
      <trkpt lat="45.89218" lon="5.63581">
        <ele>826.2</ele>
        <time>2026-05-12T11:28:09Z</time>
      </trkpt>
      <trkpt lat="45.89216" lon="5.63581">
        <ele>826.2</ele>
        <time>2026-05-12T11:28:10Z</time>
      </trkpt>
      <trkpt lat="45.89214" lon="5.63582">
        <ele>826.2</ele>
        <time>2026-05-12T11:28:11Z</time>
      </trkpt>
      <trkpt lat="45.89211" lon="5.63582">
        <ele>826.2</ele>
        <time>2026-05-12T11:28:12Z</time>
      </trkpt>
      <trkpt lat="45.89209" lon="5.63583">
        <ele>826.2</ele>
        <time>2026-05-12T11:28:13Z</time>
      </trkpt>
      <trkpt lat="45.89208" lon="5.63583">
        <ele>826.6</ele>
        <time>2026-05-12T11:28:14Z</time>
      </trkpt>
      <trkpt lat="45.89207" lon="5.63582">
        <ele>826.8</ele>
        <time>2026-05-12T11:28:15Z</time>
      </trkpt>
      <trkpt lat="45.89205" lon="5.63582">
        <ele>826.8</ele>
        <time>2026-05-12T11:28:16Z</time>
      </trkpt>
      <trkpt lat="45.89204" lon="5.63581">
        <ele>827.4</ele>
        <time>2026-05-12T11:28:17Z</time>
      </trkpt>
      <trkpt lat="45.89202" lon="5.63581">
        <ele>827.6</ele>
        <time>2026-05-12T11:28:18Z</time>
      </trkpt>
      <trkpt lat="45.89201" lon="5.6358">
        <ele>827.6</ele>
        <time>2026-05-12T11:28:19Z</time>
      </trkpt>
      <trkpt lat="45.89199" lon="5.6358">
        <ele>827.8</ele>
        <time>2026-05-12T11:28:20Z</time>
      </trkpt>
      <trkpt lat="45.89198" lon="5.6358">
        <ele>827.8</ele>
        <time>2026-05-12T11:28:21Z</time>
      </trkpt>
      <trkpt lat="45.89197" lon="5.6358">
        <ele>827.8</ele>
        <time>2026-05-12T11:28:22Z</time>
      </trkpt>
      <trkpt lat="45.89194" lon="5.63579">
        <ele>828.4</ele>
        <time>2026-05-12T11:28:23Z</time>
      </trkpt>
      <trkpt lat="45.89192" lon="5.63579">
        <ele>828.4</ele>
        <time>2026-05-12T11:28:24Z</time>
      </trkpt>
      <trkpt lat="45.8919" lon="5.6358">
        <ele>828.4</ele>
        <time>2026-05-12T11:28:25Z</time>
      </trkpt>
      <trkpt lat="45.89188" lon="5.6358">
        <ele>828.6</ele>
        <time>2026-05-12T11:28:26Z</time>
      </trkpt>
      <trkpt lat="45.89186" lon="5.6358">
        <ele>828.6</ele>
        <time>2026-05-12T11:28:27Z</time>
      </trkpt>
      <trkpt lat="45.89184" lon="5.6358">
        <ele>828.6</ele>
        <time>2026-05-12T11:28:28Z</time>
      </trkpt>
      <trkpt lat="45.89184" lon="5.6358">
        <ele>828.8</ele>
        <time>2026-05-12T11:28:29Z</time>
      </trkpt>
      <trkpt lat="45.89182" lon="5.6358">
        <ele>828.8</ele>
        <time>2026-05-12T11:28:30Z</time>
      </trkpt>
      <trkpt lat="45.89181" lon="5.63579">
        <ele>828.8</ele>
        <time>2026-05-12T11:28:31Z</time>
      </trkpt>
      <trkpt lat="45.89179" lon="5.63579">
        <ele>829.2</ele>
        <time>2026-05-12T11:28:32Z</time>
      </trkpt>
      <trkpt lat="45.89178" lon="5.63579">
        <ele>829.2</ele>
        <time>2026-05-12T11:28:33Z</time>
      </trkpt>
      <trkpt lat="45.89177" lon="5.63579">
        <ele>829.2</ele>
        <time>2026-05-12T11:28:34Z</time>
      </trkpt>
      <trkpt lat="45.89176" lon="5.63578">
        <ele>829.4</ele>
        <time>2026-05-12T11:28:35Z</time>
      </trkpt>
      <trkpt lat="45.89174" lon="5.63578">
        <ele>829.4</ele>
        <time>2026-05-12T11:28:36Z</time>
      </trkpt>
      <trkpt lat="45.89174" lon="5.63578">
        <ele>829.4</ele>
        <time>2026-05-12T11:28:37Z</time>
      </trkpt>
      <trkpt lat="45.89174" lon="5.63578">
        <ele>829.4</ele>
        <time>2026-05-12T11:28:38Z</time>
      </trkpt>
      <trkpt lat="45.89165" lon="5.63578">
        <ele>829.4</ele>
        <time>2026-05-12T11:28:40Z</time>
      </trkpt>
      <trkpt lat="45.89163" lon="5.63578">
        <ele>829.8</ele>
        <time>2026-05-12T11:28:41Z</time>
      </trkpt>
      <trkpt lat="45.89161" lon="5.63578">
        <ele>829.8</ele>
        <time>2026-05-12T11:28:42Z</time>
      </trkpt>
      <trkpt lat="45.89159" lon="5.63578">
        <ele>829.8</ele>
        <time>2026-05-12T11:28:43Z</time>
      </trkpt>
      <trkpt lat="45.89158" lon="5.63578">
        <ele>830.2</ele>
        <time>2026-05-12T11:28:44Z</time>
      </trkpt>
      <trkpt lat="45.89155" lon="5.63579">
        <ele>830.2</ele>
        <time>2026-05-12T11:28:45Z</time>
      </trkpt>
      <trkpt lat="45.89153" lon="5.63579">
        <ele>830.2</ele>
        <time>2026-05-12T11:28:46Z</time>
      </trkpt>
      <trkpt lat="45.89151" lon="5.6358">
        <ele>830.2</ele>
        <time>2026-05-12T11:28:47Z</time>
      </trkpt>
      <trkpt lat="45.89148" lon="5.63581">
        <ele>830.2</ele>
        <time>2026-05-12T11:28:48Z</time>
      </trkpt>
      <trkpt lat="45.89145" lon="5.63581">
        <ele>830.4</ele>
        <time>2026-05-12T11:28:49Z</time>
      </trkpt>
      <trkpt lat="45.89142" lon="5.63581">
        <ele>830.4</ele>
        <time>2026-05-12T11:28:50Z</time>
      </trkpt>
      <trkpt lat="45.89141" lon="5.63582">
        <ele>830.4</ele>
        <time>2026-05-12T11:28:51Z</time>
      </trkpt>
      <trkpt lat="45.8914" lon="5.63582">
        <ele>830.4</ele>
        <time>2026-05-12T11:28:52Z</time>
      </trkpt>
      <trkpt lat="45.89137" lon="5.63582">
        <ele>830.4</ele>
        <time>2026-05-12T11:28:53Z</time>
      </trkpt>
      <trkpt lat="45.89134" lon="5.63583">
        <ele>830.4</ele>
        <time>2026-05-12T11:28:54Z</time>
      </trkpt>
      <trkpt lat="45.8913" lon="5.63583">
        <ele>830.4</ele>
        <time>2026-05-12T11:28:55Z</time>
      </trkpt>
      <trkpt lat="45.89128" lon="5.63582">
        <ele>830.4</ele>
        <time>2026-05-12T11:28:56Z</time>
      </trkpt>
      <trkpt lat="45.89126" lon="5.63582">
        <ele>830.8</ele>
        <time>2026-05-12T11:28:57Z</time>
      </trkpt>
      <trkpt lat="45.89123" lon="5.63582">
        <ele>830.8</ele>
        <time>2026-05-12T11:28:58Z</time>
      </trkpt>
      <trkpt lat="45.89123" lon="5.63582">
        <ele>830.4</ele>
        <time>2026-05-12T11:28:59Z</time>
      </trkpt>
      <trkpt lat="45.89123" lon="5.63582">
        <ele>830.4</ele>
        <time>2026-05-12T11:29:00Z</time>
      </trkpt>
      <trkpt lat="45.89119" lon="5.63582">
        <ele>830.8</ele>
        <time>2026-05-12T11:29:01Z</time>
      </trkpt>
      <trkpt lat="45.89116" lon="5.63583">
        <ele>830.8</ele>
        <time>2026-05-12T11:29:02Z</time>
      </trkpt>
      <trkpt lat="45.89114" lon="5.63583">
        <ele>830.8</ele>
        <time>2026-05-12T11:29:03Z</time>
      </trkpt>
      <trkpt lat="45.89112" lon="5.63583">
        <ele>830.8</ele>
        <time>2026-05-12T11:29:04Z</time>
      </trkpt>
      <trkpt lat="45.89111" lon="5.63583">
        <ele>830.8</ele>
        <time>2026-05-12T11:29:05Z</time>
      </trkpt>
      <trkpt lat="45.89111" lon="5.63583">
        <ele>830.8</ele>
        <time>2026-05-12T11:29:06Z</time>
      </trkpt>
      <trkpt lat="45.89108" lon="5.63583">
        <ele>831</ele>
        <time>2026-05-12T11:29:07Z</time>
      </trkpt>
      <trkpt lat="45.89105" lon="5.63583">
        <ele>831.4</ele>
        <time>2026-05-12T11:29:08Z</time>
      </trkpt>
      <trkpt lat="45.89103" lon="5.63584">
        <ele>831.6</ele>
        <time>2026-05-12T11:29:09Z</time>
      </trkpt>
      <trkpt lat="45.89101" lon="5.63584">
        <ele>831.6</ele>
        <time>2026-05-12T11:29:10Z</time>
      </trkpt>
      <trkpt lat="45.89099" lon="5.63584">
        <ele>831.6</ele>
        <time>2026-05-12T11:29:11Z</time>
      </trkpt>
      <trkpt lat="45.89097" lon="5.63584">
        <ele>831.8</ele>
        <time>2026-05-12T11:29:12Z</time>
      </trkpt>
      <trkpt lat="45.89095" lon="5.63585">
        <ele>831.8</ele>
        <time>2026-05-12T11:29:13Z</time>
      </trkpt>
      <trkpt lat="45.89093" lon="5.63587">
        <ele>831.8</ele>
        <time>2026-05-12T11:29:14Z</time>
      </trkpt>
      <trkpt lat="45.8909" lon="5.63589">
        <ele>832.2</ele>
        <time>2026-05-12T11:29:15Z</time>
      </trkpt>
      <trkpt lat="45.89088" lon="5.6359">
        <ele>832.2</ele>
        <time>2026-05-12T11:29:16Z</time>
      </trkpt>
      <trkpt lat="45.89086" lon="5.6359">
        <ele>832.2</ele>
        <time>2026-05-12T11:29:17Z</time>
      </trkpt>
      <trkpt lat="45.89083" lon="5.63591">
        <ele>832.2</ele>
        <time>2026-05-12T11:29:18Z</time>
      </trkpt>
      <trkpt lat="45.8908" lon="5.63592">
        <ele>832.4</ele>
        <time>2026-05-12T11:29:19Z</time>
      </trkpt>
      <trkpt lat="45.89078" lon="5.63592">
        <ele>832.6</ele>
        <time>2026-05-12T11:29:20Z</time>
      </trkpt>
      <trkpt lat="45.89076" lon="5.63592">
        <ele>832.6</ele>
        <time>2026-05-12T11:29:21Z</time>
      </trkpt>
      <trkpt lat="45.89073" lon="5.63592">
        <ele>832.6</ele>
        <time>2026-05-12T11:29:22Z</time>
      </trkpt>
      <trkpt lat="45.89071" lon="5.63593">
        <ele>832.6</ele>
        <time>2026-05-12T11:29:23Z</time>
      </trkpt>
      <trkpt lat="45.8907" lon="5.63593">
        <ele>832.6</ele>
        <time>2026-05-12T11:29:24Z</time>
      </trkpt>
      <trkpt lat="45.89069" lon="5.63593">
        <ele>832.8</ele>
        <time>2026-05-12T11:29:25Z</time>
      </trkpt>
      <trkpt lat="45.89068" lon="5.63593">
        <ele>832.8</ele>
        <time>2026-05-12T11:29:26Z</time>
      </trkpt>
      <trkpt lat="45.89067" lon="5.63593">
        <ele>833.2</ele>
        <time>2026-05-12T11:29:27Z</time>
      </trkpt>
      <trkpt lat="45.89065" lon="5.63593">
        <ele>833.2</ele>
        <time>2026-05-12T11:29:28Z</time>
      </trkpt>
      <trkpt lat="45.89064" lon="5.63593">
        <ele>833.6</ele>
        <time>2026-05-12T11:29:29Z</time>
      </trkpt>
      <trkpt lat="45.89064" lon="5.63593">
        <ele>833.6</ele>
        <time>2026-05-12T11:29:30Z</time>
      </trkpt>
      <trkpt lat="45.89063" lon="5.63593">
        <ele>834</ele>
        <time>2026-05-12T11:29:31Z</time>
      </trkpt>
      <trkpt lat="45.89061" lon="5.63594">
        <ele>834</ele>
        <time>2026-05-12T11:29:32Z</time>
      </trkpt>
      <trkpt lat="45.89059" lon="5.63596">
        <ele>834</ele>
        <time>2026-05-12T11:29:33Z</time>
      </trkpt>
      <trkpt lat="45.89057" lon="5.63597">
        <ele>834</ele>
        <time>2026-05-12T11:29:34Z</time>
      </trkpt>
      <trkpt lat="45.89055" lon="5.63598">
        <ele>834.2</ele>
        <time>2026-05-12T11:29:35Z</time>
      </trkpt>
      <trkpt lat="45.89053" lon="5.63599">
        <ele>834.2</ele>
        <time>2026-05-12T11:29:36Z</time>
      </trkpt>
      <trkpt lat="45.89051" lon="5.636">
        <ele>834.2</ele>
        <time>2026-05-12T11:29:37Z</time>
      </trkpt>
      <trkpt lat="45.89049" lon="5.636">
        <ele>834.2</ele>
        <time>2026-05-12T11:29:38Z</time>
      </trkpt>
      <trkpt lat="45.89047" lon="5.636">
        <ele>834.6</ele>
        <time>2026-05-12T11:29:39Z</time>
      </trkpt>
      <trkpt lat="45.89045" lon="5.636">
        <ele>834.6</ele>
        <time>2026-05-12T11:29:40Z</time>
      </trkpt>
      <trkpt lat="45.89043" lon="5.636">
        <ele>834.6</ele>
        <time>2026-05-12T11:29:41Z</time>
      </trkpt>
      <trkpt lat="45.89042" lon="5.63601">
        <ele>834.8</ele>
        <time>2026-05-12T11:29:42Z</time>
      </trkpt>
      <trkpt lat="45.89041" lon="5.63602">
        <ele>834.8</ele>
        <time>2026-05-12T11:29:43Z</time>
      </trkpt>
      <trkpt lat="45.89039" lon="5.63603">
        <ele>834.8</ele>
        <time>2026-05-12T11:29:44Z</time>
      </trkpt>
      <trkpt lat="45.89038" lon="5.63604">
        <ele>834.6</ele>
        <time>2026-05-12T11:29:45Z</time>
      </trkpt>
      <trkpt lat="45.89036" lon="5.63606">
        <ele>834.6</ele>
        <time>2026-05-12T11:29:46Z</time>
      </trkpt>
      <trkpt lat="45.89034" lon="5.63608">
        <ele>835</ele>
        <time>2026-05-12T11:29:47Z</time>
      </trkpt>
      <trkpt lat="45.89032" lon="5.63609">
        <ele>835</ele>
        <time>2026-05-12T11:29:48Z</time>
      </trkpt>
      <trkpt lat="45.8903" lon="5.6361">
        <ele>835</ele>
        <time>2026-05-12T11:29:49Z</time>
      </trkpt>
      <trkpt lat="45.89027" lon="5.63611">
        <ele>834.6</ele>
        <time>2026-05-12T11:29:50Z</time>
      </trkpt>
      <trkpt lat="45.89024" lon="5.63612">
        <ele>834.6</ele>
        <time>2026-05-12T11:29:51Z</time>
      </trkpt>
      <trkpt lat="45.89021" lon="5.63613">
        <ele>834.4</ele>
        <time>2026-05-12T11:29:52Z</time>
      </trkpt>
      <trkpt lat="45.89018" lon="5.63616">
        <ele>834.4</ele>
        <time>2026-05-12T11:29:53Z</time>
      </trkpt>
      <trkpt lat="45.89014" lon="5.63618">
        <ele>834.4</ele>
        <time>2026-05-12T11:29:54Z</time>
      </trkpt>
      <trkpt lat="45.89011" lon="5.63621">
        <ele>834</ele>
        <time>2026-05-12T11:29:55Z</time>
      </trkpt>
      <trkpt lat="45.89008" lon="5.63623">
        <ele>833.8</ele>
        <time>2026-05-12T11:29:56Z</time>
      </trkpt>
      <trkpt lat="45.89005" lon="5.63625">
        <ele>833.6</ele>
        <time>2026-05-12T11:29:57Z</time>
      </trkpt>
      <trkpt lat="45.89001" lon="5.63627">
        <ele>833.2</ele>
        <time>2026-05-12T11:29:58Z</time>
      </trkpt>
      <trkpt lat="45.88994" lon="5.63627">
        <ele>832.6</ele>
        <time>2026-05-12T11:29:59Z</time>
      </trkpt>
      <trkpt lat="45.88989" lon="5.63631">
        <ele>831.2</ele>
        <time>2026-05-12T11:30:00Z</time>
      </trkpt>
      <trkpt lat="45.88983" lon="5.63634">
        <ele>831.2</ele>
        <time>2026-05-12T11:30:01Z</time>
      </trkpt>
      <trkpt lat="45.88978" lon="5.63636">
        <ele>830</ele>
        <time>2026-05-12T11:30:02Z</time>
      </trkpt>
      <trkpt lat="45.88971" lon="5.63639">
        <ele>829.2</ele>
        <time>2026-05-12T11:30:03Z</time>
      </trkpt>
      <trkpt lat="45.88964" lon="5.63641">
        <ele>828.6</ele>
        <time>2026-05-12T11:30:04Z</time>
      </trkpt>
      <trkpt lat="45.88963" lon="5.63642">
        <ele>828.6</ele>
        <time>2026-05-12T11:30:05Z</time>
      </trkpt>
      <trkpt lat="45.88957" lon="5.63644">
        <ele>827.8</ele>
        <time>2026-05-12T11:30:06Z</time>
      </trkpt>
      <trkpt lat="45.8895" lon="5.63647">
        <ele>827.2</ele>
        <time>2026-05-12T11:30:07Z</time>
      </trkpt>
      <trkpt lat="45.88945" lon="5.63647">
        <ele>826.8</ele>
        <time>2026-05-12T11:30:08Z</time>
      </trkpt>
      <trkpt lat="45.88947" lon="5.63647">
        <ele>826.6</ele>
        <time>2026-05-12T11:30:09Z</time>
      </trkpt>
      <trkpt lat="45.88945" lon="5.63645">
        <ele>826.4</ele>
        <time>2026-05-12T11:30:10Z</time>
      </trkpt>
      <trkpt lat="45.88944" lon="5.63647">
        <ele>826.4</ele>
        <time>2026-05-12T11:30:11Z</time>
      </trkpt>
      <trkpt lat="45.88941" lon="5.63645">
        <ele>826</ele>
        <time>2026-05-12T11:30:12Z</time>
      </trkpt>
      <trkpt lat="45.88938" lon="5.63647">
        <ele>826</ele>
        <time>2026-05-12T11:30:13Z</time>
      </trkpt>
      <trkpt lat="45.88935" lon="5.63647">
        <ele>826</ele>
        <time>2026-05-12T11:30:14Z</time>
      </trkpt>
      <trkpt lat="45.88934" lon="5.63648">
        <ele>826</ele>
        <time>2026-05-12T11:30:15Z</time>
      </trkpt>
      <trkpt lat="45.88932" lon="5.63648">
        <ele>826</ele>
        <time>2026-05-12T11:30:16Z</time>
      </trkpt>
      <trkpt lat="45.8893" lon="5.63648">
        <ele>826</ele>
        <time>2026-05-12T11:30:17Z</time>
      </trkpt>
      <trkpt lat="45.8893" lon="5.63648">
        <ele>825.8</ele>
        <time>2026-05-12T11:30:18Z</time>
      </trkpt>
      <trkpt lat="45.88929" lon="5.63648">
        <ele>825.8</ele>
        <time>2026-05-12T11:30:19Z</time>
      </trkpt>
      <trkpt lat="45.88927" lon="5.63648">
        <ele>825.8</ele>
        <time>2026-05-12T11:30:20Z</time>
      </trkpt>
      <trkpt lat="45.88927" lon="5.63649">
        <ele>825.8</ele>
        <time>2026-05-12T11:30:21Z</time>
      </trkpt>
      <trkpt lat="45.88925" lon="5.6365">
        <ele>825.8</ele>
        <time>2026-05-12T11:30:22Z</time>
      </trkpt>
      <trkpt lat="45.88924" lon="5.63651">
        <ele>825.8</ele>
        <time>2026-05-12T11:30:23Z</time>
      </trkpt>
      <trkpt lat="45.88923" lon="5.63652">
        <ele>825.8</ele>
        <time>2026-05-12T11:30:24Z</time>
      </trkpt>
      <trkpt lat="45.88921" lon="5.63651">
        <ele>825.8</ele>
        <time>2026-05-12T11:30:25Z</time>
      </trkpt>
      <trkpt lat="45.88919" lon="5.63651">
        <ele>825.6</ele>
        <time>2026-05-12T11:30:26Z</time>
      </trkpt>
      <trkpt lat="45.88917" lon="5.63649">
        <ele>825.6</ele>
        <time>2026-05-12T11:30:27Z</time>
      </trkpt>
      <trkpt lat="45.88914" lon="5.63648">
        <ele>825.6</ele>
        <time>2026-05-12T11:30:28Z</time>
      </trkpt>
      <trkpt lat="45.88911" lon="5.63648">
        <ele>826</ele>
        <time>2026-05-12T11:30:29Z</time>
      </trkpt>
      <trkpt lat="45.88907" lon="5.63648">
        <ele>826</ele>
        <time>2026-05-12T11:30:30Z</time>
      </trkpt>
      <trkpt lat="45.88905" lon="5.63648">
        <ele>826</ele>
        <time>2026-05-12T11:30:31Z</time>
      </trkpt>
      <trkpt lat="45.88904" lon="5.63649">
        <ele>826</ele>
        <time>2026-05-12T11:30:32Z</time>
      </trkpt>
      <trkpt lat="45.88903" lon="5.6365">
        <ele>826</ele>
        <time>2026-05-12T11:30:33Z</time>
      </trkpt>
      <trkpt lat="45.88902" lon="5.6365">
        <ele>825.6</ele>
        <time>2026-05-12T11:30:34Z</time>
      </trkpt>
      <trkpt lat="45.889" lon="5.6365">
        <ele>825.6</ele>
        <time>2026-05-12T11:30:35Z</time>
      </trkpt>
      <trkpt lat="45.88897" lon="5.63649">
        <ele>825.6</ele>
        <time>2026-05-12T11:30:36Z</time>
      </trkpt>
      <trkpt lat="45.88895" lon="5.63649">
        <ele>825.6</ele>
        <time>2026-05-12T11:30:37Z</time>
      </trkpt>
      <trkpt lat="45.88893" lon="5.6365">
        <ele>825.6</ele>
        <time>2026-05-12T11:30:38Z</time>
      </trkpt>
      <trkpt lat="45.88892" lon="5.63651">
        <ele>825.6</ele>
        <time>2026-05-12T11:30:39Z</time>
      </trkpt>
      <trkpt lat="45.88892" lon="5.63652">
        <ele>825.6</ele>
        <time>2026-05-12T11:30:40Z</time>
      </trkpt>
      <trkpt lat="45.88893" lon="5.63653">
        <ele>825.4</ele>
        <time>2026-05-12T11:30:41Z</time>
      </trkpt>
      <trkpt lat="45.88892" lon="5.63653">
        <ele>825.4</ele>
        <time>2026-05-12T11:30:42Z</time>
      </trkpt>
      <trkpt lat="45.8889" lon="5.63654">
        <ele>825.4</ele>
        <time>2026-05-12T11:30:43Z</time>
      </trkpt>
      <trkpt lat="45.88887" lon="5.63655">
        <ele>824.8</ele>
        <time>2026-05-12T11:30:44Z</time>
      </trkpt>
      <trkpt lat="45.88884" lon="5.63656">
        <ele>825.6</ele>
        <time>2026-05-12T11:30:45Z</time>
      </trkpt>
      <trkpt lat="45.88881" lon="5.63658">
        <ele>825.6</ele>
        <time>2026-05-12T11:30:46Z</time>
      </trkpt>
      <trkpt lat="45.88877" lon="5.6366">
        <ele>825</ele>
        <time>2026-05-12T11:30:47Z</time>
      </trkpt>
      <trkpt lat="45.88872" lon="5.63666">
        <ele>824.6</ele>
        <time>2026-05-12T11:30:48Z</time>
      </trkpt>
      <trkpt lat="45.88867" lon="5.6367">
        <ele>824.4</ele>
        <time>2026-05-12T11:30:49Z</time>
      </trkpt>
      <trkpt lat="45.88864" lon="5.63671">
        <ele>824.2</ele>
        <time>2026-05-12T11:30:50Z</time>
      </trkpt>
      <trkpt lat="45.88863" lon="5.63676">
        <ele>824.2</ele>
        <time>2026-05-12T11:30:51Z</time>
      </trkpt>
      <trkpt lat="45.88859" lon="5.63679">
        <ele>823.6</ele>
        <time>2026-05-12T11:30:52Z</time>
      </trkpt>
      <trkpt lat="45.88857" lon="5.63681">
        <ele>823.6</ele>
        <time>2026-05-12T11:30:53Z</time>
      </trkpt>
      <trkpt lat="45.88855" lon="5.63683">
        <ele>822.8</ele>
        <time>2026-05-12T11:30:54Z</time>
      </trkpt>
      <trkpt lat="45.88852" lon="5.63686">
        <ele>822.2</ele>
        <time>2026-05-12T11:30:55Z</time>
      </trkpt>
      <trkpt lat="45.88848" lon="5.6369">
        <ele>821</ele>
        <time>2026-05-12T11:30:56Z</time>
      </trkpt>
      <trkpt lat="45.88845" lon="5.63695">
        <ele>820.4</ele>
        <time>2026-05-12T11:30:57Z</time>
      </trkpt>
      <trkpt lat="45.88842" lon="5.63699">
        <ele>820.4</ele>
        <time>2026-05-12T11:30:58Z</time>
      </trkpt>
      <trkpt lat="45.88837" lon="5.63702">
        <ele>820.4</ele>
        <time>2026-05-12T11:30:59Z</time>
      </trkpt>
      <trkpt lat="45.88832" lon="5.63707">
        <ele>819.2</ele>
        <time>2026-05-12T11:31:00Z</time>
      </trkpt>
      <trkpt lat="45.88828" lon="5.63711">
        <ele>818</ele>
        <time>2026-05-12T11:31:01Z</time>
      </trkpt>
      <trkpt lat="45.88824" lon="5.63715">
        <ele>817.6</ele>
        <time>2026-05-12T11:31:02Z</time>
      </trkpt>
      <trkpt lat="45.88815" lon="5.63724">
        <ele>817</ele>
        <time>2026-05-12T11:31:03Z</time>
      </trkpt>
      <trkpt lat="45.8881" lon="5.63726">
        <ele>816.2</ele>
        <time>2026-05-12T11:31:04Z</time>
      </trkpt>
      <trkpt lat="45.88806" lon="5.63728">
        <ele>816.2</ele>
        <time>2026-05-12T11:31:05Z</time>
      </trkpt>
      <trkpt lat="45.88804" lon="5.63729">
        <ele>816.2</ele>
        <time>2026-05-12T11:31:06Z</time>
      </trkpt>
      <trkpt lat="45.88796" lon="5.63732">
        <ele>813.6</ele>
        <time>2026-05-12T11:31:07Z</time>
      </trkpt>
      <trkpt lat="45.8879" lon="5.63735">
        <ele>813.6</ele>
        <time>2026-05-12T11:31:08Z</time>
      </trkpt>
      <trkpt lat="45.88786" lon="5.63735">
        <ele>813.6</ele>
        <time>2026-05-12T11:31:09Z</time>
      </trkpt>
      <trkpt lat="45.88784" lon="5.63735">
        <ele>813.2</ele>
        <time>2026-05-12T11:31:10Z</time>
      </trkpt>
      <trkpt lat="45.8878" lon="5.63736">
        <ele>813.2</ele>
        <time>2026-05-12T11:31:11Z</time>
      </trkpt>
      <trkpt lat="45.88778" lon="5.63736">
        <ele>813.6</ele>
        <time>2026-05-12T11:31:12Z</time>
      </trkpt>
      <trkpt lat="45.88775" lon="5.63735">
        <ele>813.6</ele>
        <time>2026-05-12T11:31:13Z</time>
      </trkpt>
      <trkpt lat="45.88774" lon="5.63735">
        <ele>814</ele>
        <time>2026-05-12T11:31:14Z</time>
      </trkpt>
      <trkpt lat="45.8877" lon="5.63734">
        <ele>814</ele>
        <time>2026-05-12T11:31:15Z</time>
      </trkpt>
      <trkpt lat="45.88768" lon="5.63734">
        <ele>814</ele>
        <time>2026-05-12T11:31:16Z</time>
      </trkpt>
      <trkpt lat="45.88764" lon="5.63733">
        <ele>814.6</ele>
        <time>2026-05-12T11:31:17Z</time>
      </trkpt>
      <trkpt lat="45.88761" lon="5.63732">
        <ele>814.8</ele>
        <time>2026-05-12T11:31:18Z</time>
      </trkpt>
      <trkpt lat="45.8876" lon="5.6373">
        <ele>814.8</ele>
        <time>2026-05-12T11:31:19Z</time>
      </trkpt>
      <trkpt lat="45.88759" lon="5.6373">
        <ele>815.2</ele>
        <time>2026-05-12T11:31:20Z</time>
      </trkpt>
      <trkpt lat="45.88758" lon="5.63729">
        <ele>815.6</ele>
        <time>2026-05-12T11:31:21Z</time>
      </trkpt>
      <trkpt lat="45.88756" lon="5.63728">
        <ele>815.6</ele>
        <time>2026-05-12T11:31:22Z</time>
      </trkpt>
      <trkpt lat="45.88755" lon="5.63728">
        <ele>816</ele>
        <time>2026-05-12T11:31:23Z</time>
      </trkpt>
      <trkpt lat="45.88753" lon="5.63728">
        <ele>816.2</ele>
        <time>2026-05-12T11:31:24Z</time>
      </trkpt>
      <trkpt lat="45.88751" lon="5.63728">
        <ele>816.2</ele>
        <time>2026-05-12T11:31:25Z</time>
      </trkpt>
      <trkpt lat="45.88749" lon="5.63728">
        <ele>816.4</ele>
        <time>2026-05-12T11:31:26Z</time>
      </trkpt>
      <trkpt lat="45.88747" lon="5.63727">
        <ele>816.8</ele>
        <time>2026-05-12T11:31:27Z</time>
      </trkpt>
      <trkpt lat="45.88746" lon="5.63726">
        <ele>816.8</ele>
        <time>2026-05-12T11:31:28Z</time>
      </trkpt>
      <trkpt lat="45.88744" lon="5.63726">
        <ele>817.2</ele>
        <time>2026-05-12T11:31:29Z</time>
      </trkpt>
      <trkpt lat="45.88743" lon="5.63726">
        <ele>817.4</ele>
        <time>2026-05-12T11:31:30Z</time>
      </trkpt>
      <trkpt lat="45.88743" lon="5.63726">
        <ele>817.8</ele>
        <time>2026-05-12T11:31:31Z</time>
      </trkpt>
      <trkpt lat="45.88741" lon="5.63725">
        <ele>818</ele>
        <time>2026-05-12T11:31:32Z</time>
      </trkpt>
      <trkpt lat="45.88739" lon="5.63725">
        <ele>818.2</ele>
        <time>2026-05-12T11:31:33Z</time>
      </trkpt>
      <trkpt lat="45.88738" lon="5.63724">
        <ele>818.4</ele>
        <time>2026-05-12T11:31:34Z</time>
      </trkpt>
      <trkpt lat="45.88737" lon="5.63724">
        <ele>818.4</ele>
        <time>2026-05-12T11:31:35Z</time>
      </trkpt>
      <trkpt lat="45.88735" lon="5.63724">
        <ele>819</ele>
        <time>2026-05-12T11:31:36Z</time>
      </trkpt>
      <trkpt lat="45.88732" lon="5.63724">
        <ele>819.2</ele>
        <time>2026-05-12T11:31:37Z</time>
      </trkpt>
      <trkpt lat="45.8873" lon="5.63724">
        <ele>819.6</ele>
        <time>2026-05-12T11:31:38Z</time>
      </trkpt>
      <trkpt lat="45.88729" lon="5.63723">
        <ele>819.8</ele>
        <time>2026-05-12T11:31:39Z</time>
      </trkpt>
      <trkpt lat="45.88727" lon="5.63723">
        <ele>819.8</ele>
        <time>2026-05-12T11:31:40Z</time>
      </trkpt>
      <trkpt lat="45.88727" lon="5.63724">
        <ele>820.2</ele>
        <time>2026-05-12T11:31:41Z</time>
      </trkpt>
      <trkpt lat="45.88726" lon="5.63724">
        <ele>820.4</ele>
        <time>2026-05-12T11:31:42Z</time>
      </trkpt>
      <trkpt lat="45.88724" lon="5.63723">
        <ele>820.4</ele>
        <time>2026-05-12T11:31:43Z</time>
      </trkpt>
      <trkpt lat="45.88722" lon="5.63722">
        <ele>820.6</ele>
        <time>2026-05-12T11:31:44Z</time>
      </trkpt>
      <trkpt lat="45.88721" lon="5.63722">
        <ele>821</ele>
        <time>2026-05-12T11:31:45Z</time>
      </trkpt>
      <trkpt lat="45.8872" lon="5.63722">
        <ele>821.2</ele>
        <time>2026-05-12T11:31:46Z</time>
      </trkpt>
      <trkpt lat="45.88719" lon="5.63721">
        <ele>821.2</ele>
        <time>2026-05-12T11:31:47Z</time>
      </trkpt>
      <trkpt lat="45.88718" lon="5.63721">
        <ele>821.6</ele>
        <time>2026-05-12T11:31:48Z</time>
      </trkpt>
      <trkpt lat="45.88717" lon="5.63721">
        <ele>821.6</ele>
        <time>2026-05-12T11:31:49Z</time>
      </trkpt>
      <trkpt lat="45.88715" lon="5.6372">
        <ele>821.8</ele>
        <time>2026-05-12T11:31:50Z</time>
      </trkpt>
      <trkpt lat="45.88714" lon="5.6372">
        <ele>822</ele>
        <time>2026-05-12T11:31:51Z</time>
      </trkpt>
      <trkpt lat="45.88712" lon="5.63719">
        <ele>822</ele>
        <time>2026-05-12T11:31:52Z</time>
      </trkpt>
      <trkpt lat="45.8871" lon="5.63718">
        <ele>822.4</ele>
        <time>2026-05-12T11:31:53Z</time>
      </trkpt>
      <trkpt lat="45.88708" lon="5.63717">
        <ele>822.4</ele>
        <time>2026-05-12T11:31:54Z</time>
      </trkpt>
      <trkpt lat="45.88706" lon="5.63717">
        <ele>822.8</ele>
        <time>2026-05-12T11:31:55Z</time>
      </trkpt>
      <trkpt lat="45.88704" lon="5.63717">
        <ele>822.8</ele>
        <time>2026-05-12T11:31:56Z</time>
      </trkpt>
      <trkpt lat="45.88703" lon="5.63716">
        <ele>823</ele>
        <time>2026-05-12T11:31:57Z</time>
      </trkpt>
      <trkpt lat="45.88701" lon="5.63716">
        <ele>823</ele>
        <time>2026-05-12T11:31:58Z</time>
      </trkpt>
      <trkpt lat="45.887" lon="5.63716">
        <ele>823.4</ele>
        <time>2026-05-12T11:31:59Z</time>
      </trkpt>
      <trkpt lat="45.88699" lon="5.63715">
        <ele>823.6</ele>
        <time>2026-05-12T11:32:00Z</time>
      </trkpt>
      <trkpt lat="45.88697" lon="5.63715">
        <ele>823.6</ele>
        <time>2026-05-12T11:32:01Z</time>
      </trkpt>
      <trkpt lat="45.88696" lon="5.63715">
        <ele>823.6</ele>
        <time>2026-05-12T11:32:02Z</time>
      </trkpt>
      <trkpt lat="45.88695" lon="5.63714">
        <ele>824</ele>
        <time>2026-05-12T11:32:03Z</time>
      </trkpt>
      <trkpt lat="45.88693" lon="5.63714">
        <ele>824</ele>
        <time>2026-05-12T11:32:04Z</time>
      </trkpt>
      <trkpt lat="45.88691" lon="5.63714">
        <ele>824.4</ele>
        <time>2026-05-12T11:32:05Z</time>
      </trkpt>
      <trkpt lat="45.88689" lon="5.63714">
        <ele>824.4</ele>
        <time>2026-05-12T11:32:06Z</time>
      </trkpt>
      <trkpt lat="45.88688" lon="5.63713">
        <ele>824.8</ele>
        <time>2026-05-12T11:32:07Z</time>
      </trkpt>
      <trkpt lat="45.88687" lon="5.63713">
        <ele>824.8</ele>
        <time>2026-05-12T11:32:08Z</time>
      </trkpt>
      <trkpt lat="45.88686" lon="5.63714">
        <ele>825</ele>
        <time>2026-05-12T11:32:09Z</time>
      </trkpt>
      <trkpt lat="45.88684" lon="5.63714">
        <ele>825.2</ele>
        <time>2026-05-12T11:32:10Z</time>
      </trkpt>
      <trkpt lat="45.88683" lon="5.63713">
        <ele>825.6</ele>
        <time>2026-05-12T11:32:11Z</time>
      </trkpt>
      <trkpt lat="45.88682" lon="5.63713">
        <ele>825.8</ele>
        <time>2026-05-12T11:32:12Z</time>
      </trkpt>
      <trkpt lat="45.88681" lon="5.63713">
        <ele>825.8</ele>
        <time>2026-05-12T11:32:13Z</time>
      </trkpt>
      <trkpt lat="45.8868" lon="5.63713">
        <ele>826</ele>
        <time>2026-05-12T11:32:14Z</time>
      </trkpt>
      <trkpt lat="45.88678" lon="5.63713">
        <ele>826</ele>
        <time>2026-05-12T11:32:15Z</time>
      </trkpt>
      <trkpt lat="45.88677" lon="5.63713">
        <ele>826.2</ele>
        <time>2026-05-12T11:32:16Z</time>
      </trkpt>
      <trkpt lat="45.88677" lon="5.63712">
        <ele>826.2</ele>
        <time>2026-05-12T11:32:17Z</time>
      </trkpt>
      <trkpt lat="45.88676" lon="5.63712">
        <ele>826.6</ele>
        <time>2026-05-12T11:32:18Z</time>
      </trkpt>
      <trkpt lat="45.88674" lon="5.63713">
        <ele>826.6</ele>
        <time>2026-05-12T11:32:19Z</time>
      </trkpt>
      <trkpt lat="45.88672" lon="5.63713">
        <ele>826.6</ele>
        <time>2026-05-12T11:32:20Z</time>
      </trkpt>
      <trkpt lat="45.88671" lon="5.63712">
        <ele>826.8</ele>
        <time>2026-05-12T11:32:21Z</time>
      </trkpt>
      <trkpt lat="45.88669" lon="5.63711">
        <ele>826.8</ele>
        <time>2026-05-12T11:32:22Z</time>
      </trkpt>
      <trkpt lat="45.88668" lon="5.6371">
        <ele>827.2</ele>
        <time>2026-05-12T11:32:23Z</time>
      </trkpt>
      <trkpt lat="45.88666" lon="5.6371">
        <ele>827.4</ele>
        <time>2026-05-12T11:32:24Z</time>
      </trkpt>
      <trkpt lat="45.88665" lon="5.6371">
        <ele>827.6</ele>
        <time>2026-05-12T11:32:25Z</time>
      </trkpt>
      <trkpt lat="45.88664" lon="5.6371">
        <ele>827.6</ele>
        <time>2026-05-12T11:32:26Z</time>
      </trkpt>
      <trkpt lat="45.88662" lon="5.6371">
        <ele>827.6</ele>
        <time>2026-05-12T11:32:27Z</time>
      </trkpt>
      <trkpt lat="45.88661" lon="5.6371">
        <ele>828</ele>
        <time>2026-05-12T11:32:28Z</time>
      </trkpt>
      <trkpt lat="45.88659" lon="5.6371">
        <ele>828.2</ele>
        <time>2026-05-12T11:32:29Z</time>
      </trkpt>
      <trkpt lat="45.88657" lon="5.6371">
        <ele>828.6</ele>
        <time>2026-05-12T11:32:30Z</time>
      </trkpt>
      <trkpt lat="45.88655" lon="5.6371">
        <ele>828.6</ele>
        <time>2026-05-12T11:32:31Z</time>
      </trkpt>
      <trkpt lat="45.88654" lon="5.6371">
        <ele>828.8</ele>
        <time>2026-05-12T11:32:32Z</time>
      </trkpt>
      <trkpt lat="45.88652" lon="5.63711">
        <ele>828.8</ele>
        <time>2026-05-12T11:32:33Z</time>
      </trkpt>
      <trkpt lat="45.88651" lon="5.63711">
        <ele>829.2</ele>
        <time>2026-05-12T11:32:34Z</time>
      </trkpt>
      <trkpt lat="45.88651" lon="5.63711">
        <ele>829.2</ele>
        <time>2026-05-12T11:32:35Z</time>
      </trkpt>
      <trkpt lat="45.8865" lon="5.63711">
        <ele>829.6</ele>
        <time>2026-05-12T11:32:36Z</time>
      </trkpt>
      <trkpt lat="45.88649" lon="5.63712">
        <ele>829.6</ele>
        <time>2026-05-12T11:32:37Z</time>
      </trkpt>
      <trkpt lat="45.88649" lon="5.63713">
        <ele>830</ele>
        <time>2026-05-12T11:32:38Z</time>
      </trkpt>
      <trkpt lat="45.88649" lon="5.63712">
        <ele>830</ele>
        <time>2026-05-12T11:32:39Z</time>
      </trkpt>
      <trkpt lat="45.88648" lon="5.63712">
        <ele>830.2</ele>
        <time>2026-05-12T11:32:40Z</time>
      </trkpt>
      <trkpt lat="45.88646" lon="5.63712">
        <ele>830.2</ele>
        <time>2026-05-12T11:32:41Z</time>
      </trkpt>
      <trkpt lat="45.88644" lon="5.63712">
        <ele>830.4</ele>
        <time>2026-05-12T11:32:42Z</time>
      </trkpt>
      <trkpt lat="45.88643" lon="5.63712">
        <ele>830.4</ele>
        <time>2026-05-12T11:32:43Z</time>
      </trkpt>
      <trkpt lat="45.88641" lon="5.63712">
        <ele>830.6</ele>
        <time>2026-05-12T11:32:44Z</time>
      </trkpt>
      <trkpt lat="45.88641" lon="5.63712">
        <ele>831</ele>
        <time>2026-05-12T11:32:45Z</time>
      </trkpt>
      <trkpt lat="45.8864" lon="5.63712">
        <ele>831</ele>
        <time>2026-05-12T11:32:46Z</time>
      </trkpt>
      <trkpt lat="45.88638" lon="5.63712">
        <ele>831.4</ele>
        <time>2026-05-12T11:32:47Z</time>
      </trkpt>
      <trkpt lat="45.88637" lon="5.63712">
        <ele>831.6</ele>
        <time>2026-05-12T11:32:48Z</time>
      </trkpt>
      <trkpt lat="45.88636" lon="5.63712">
        <ele>831.6</ele>
        <time>2026-05-12T11:32:49Z</time>
      </trkpt>
      <trkpt lat="45.88635" lon="5.63711">
        <ele>831.6</ele>
        <time>2026-05-12T11:32:50Z</time>
      </trkpt>
      <trkpt lat="45.88632" lon="5.63711">
        <ele>832</ele>
        <time>2026-05-12T11:32:51Z</time>
      </trkpt>
      <trkpt lat="45.8863" lon="5.6371">
        <ele>832</ele>
        <time>2026-05-12T11:32:52Z</time>
      </trkpt>
      <trkpt lat="45.88628" lon="5.6371">
        <ele>832</ele>
        <time>2026-05-12T11:32:53Z</time>
      </trkpt>
      <trkpt lat="45.88627" lon="5.6371">
        <ele>832.4</ele>
        <time>2026-05-12T11:32:54Z</time>
      </trkpt>
      <trkpt lat="45.88625" lon="5.63711">
        <ele>832.6</ele>
        <time>2026-05-12T11:32:55Z</time>
      </trkpt>
      <trkpt lat="45.88623" lon="5.63711">
        <ele>832.6</ele>
        <time>2026-05-12T11:32:56Z</time>
      </trkpt>
      <trkpt lat="45.88621" lon="5.63711">
        <ele>832.6</ele>
        <time>2026-05-12T11:32:57Z</time>
      </trkpt>
      <trkpt lat="45.8862" lon="5.6371">
        <ele>833</ele>
        <time>2026-05-12T11:32:58Z</time>
      </trkpt>
      <trkpt lat="45.88618" lon="5.6371">
        <ele>833.4</ele>
        <time>2026-05-12T11:32:59Z</time>
      </trkpt>
      <trkpt lat="45.88616" lon="5.63709">
        <ele>833.4</ele>
        <time>2026-05-12T11:33:00Z</time>
      </trkpt>
      <trkpt lat="45.88615" lon="5.63709">
        <ele>833.4</ele>
        <time>2026-05-12T11:33:01Z</time>
      </trkpt>
      <trkpt lat="45.88614" lon="5.6371">
        <ele>833.6</ele>
        <time>2026-05-12T11:33:02Z</time>
      </trkpt>
      <trkpt lat="45.88614" lon="5.6371">
        <ele>833.8</ele>
        <time>2026-05-12T11:33:03Z</time>
      </trkpt>
      <trkpt lat="45.88613" lon="5.6371">
        <ele>834.2</ele>
        <time>2026-05-12T11:33:04Z</time>
      </trkpt>
      <trkpt lat="45.88611" lon="5.6371">
        <ele>834.2</ele>
        <time>2026-05-12T11:33:05Z</time>
      </trkpt>
      <trkpt lat="45.8861" lon="5.6371">
        <ele>834.6</ele>
        <time>2026-05-12T11:33:06Z</time>
      </trkpt>
      <trkpt lat="45.88609" lon="5.6371">
        <ele>834.6</ele>
        <time>2026-05-12T11:33:07Z</time>
      </trkpt>
      <trkpt lat="45.88608" lon="5.6371">
        <ele>835</ele>
        <time>2026-05-12T11:33:08Z</time>
      </trkpt>
      <trkpt lat="45.88607" lon="5.6371">
        <ele>835</ele>
        <time>2026-05-12T11:33:09Z</time>
      </trkpt>
      <trkpt lat="45.88607" lon="5.63711">
        <ele>835.2</ele>
        <time>2026-05-12T11:33:10Z</time>
      </trkpt>
      <trkpt lat="45.88606" lon="5.63712">
        <ele>835.2</ele>
        <time>2026-05-12T11:33:11Z</time>
      </trkpt>
      <trkpt lat="45.88604" lon="5.63712">
        <ele>835.4</ele>
        <time>2026-05-12T11:33:12Z</time>
      </trkpt>
      <trkpt lat="45.88602" lon="5.63712">
        <ele>835.4</ele>
        <time>2026-05-12T11:33:13Z</time>
      </trkpt>
      <trkpt lat="45.886" lon="5.63712">
        <ele>835.8</ele>
        <time>2026-05-12T11:33:14Z</time>
      </trkpt>
      <trkpt lat="45.88598" lon="5.63712">
        <ele>835.8</ele>
        <time>2026-05-12T11:33:15Z</time>
      </trkpt>
      <trkpt lat="45.88597" lon="5.63711">
        <ele>836.2</ele>
        <time>2026-05-12T11:33:16Z</time>
      </trkpt>
      <trkpt lat="45.88596" lon="5.63712">
        <ele>836.2</ele>
        <time>2026-05-12T11:33:17Z</time>
      </trkpt>
      <trkpt lat="45.88594" lon="5.63713">
        <ele>836.6</ele>
        <time>2026-05-12T11:33:18Z</time>
      </trkpt>
      <trkpt lat="45.88592" lon="5.63714">
        <ele>836.8</ele>
        <time>2026-05-12T11:33:19Z</time>
      </trkpt>
      <trkpt lat="45.8859" lon="5.63714">
        <ele>836.8</ele>
        <time>2026-05-12T11:33:20Z</time>
      </trkpt>
      <trkpt lat="45.88587" lon="5.63715">
        <ele>836.8</ele>
        <time>2026-05-12T11:33:21Z</time>
      </trkpt>
      <trkpt lat="45.88585" lon="5.63715">
        <ele>837</ele>
        <time>2026-05-12T11:33:22Z</time>
      </trkpt>
      <trkpt lat="45.88583" lon="5.63715">
        <ele>837</ele>
        <time>2026-05-12T11:33:23Z</time>
      </trkpt>
      <trkpt lat="45.88581" lon="5.63715">
        <ele>837.4</ele>
        <time>2026-05-12T11:33:24Z</time>
      </trkpt>
      <trkpt lat="45.8858" lon="5.63715">
        <ele>837.8</ele>
        <time>2026-05-12T11:33:25Z</time>
      </trkpt>
      <trkpt lat="45.88578" lon="5.63714">
        <ele>838</ele>
        <time>2026-05-12T11:33:26Z</time>
      </trkpt>
      <trkpt lat="45.88576" lon="5.63714">
        <ele>838.2</ele>
        <time>2026-05-12T11:33:27Z</time>
      </trkpt>
      <trkpt lat="45.88575" lon="5.63714">
        <ele>838.4</ele>
        <time>2026-05-12T11:33:28Z</time>
      </trkpt>
      <trkpt lat="45.88573" lon="5.63715">
        <ele>838.6</ele>
        <time>2026-05-12T11:33:29Z</time>
      </trkpt>
      <trkpt lat="45.88571" lon="5.63715">
        <ele>838.6</ele>
        <time>2026-05-12T11:33:30Z</time>
      </trkpt>
      <trkpt lat="45.8857" lon="5.63715">
        <ele>838.6</ele>
        <time>2026-05-12T11:33:31Z</time>
      </trkpt>
      <trkpt lat="45.88569" lon="5.63715">
        <ele>839.2</ele>
        <time>2026-05-12T11:33:32Z</time>
      </trkpt>
      <trkpt lat="45.88568" lon="5.63715">
        <ele>839.2</ele>
        <time>2026-05-12T11:33:33Z</time>
      </trkpt>
      <trkpt lat="45.88566" lon="5.63715">
        <ele>839.4</ele>
        <time>2026-05-12T11:33:34Z</time>
      </trkpt>
      <trkpt lat="45.88565" lon="5.63714">
        <ele>839.4</ele>
        <time>2026-05-12T11:33:35Z</time>
      </trkpt>
      <trkpt lat="45.88563" lon="5.63714">
        <ele>839.6</ele>
        <time>2026-05-12T11:33:36Z</time>
      </trkpt>
      <trkpt lat="45.88562" lon="5.63714">
        <ele>839.6</ele>
        <time>2026-05-12T11:33:37Z</time>
      </trkpt>
      <trkpt lat="45.8856" lon="5.63714">
        <ele>839.8</ele>
        <time>2026-05-12T11:33:38Z</time>
      </trkpt>
      <trkpt lat="45.88558" lon="5.63713">
        <ele>840.2</ele>
        <time>2026-05-12T11:33:39Z</time>
      </trkpt>
      <trkpt lat="45.88556" lon="5.63712">
        <ele>840.2</ele>
        <time>2026-05-12T11:33:40Z</time>
      </trkpt>
      <trkpt lat="45.88555" lon="5.63712">
        <ele>840.4</ele>
        <time>2026-05-12T11:33:41Z</time>
      </trkpt>
      <trkpt lat="45.88553" lon="5.63712">
        <ele>840.4</ele>
        <time>2026-05-12T11:33:42Z</time>
      </trkpt>
      <trkpt lat="45.88551" lon="5.63713">
        <ele>841</ele>
        <time>2026-05-12T11:33:43Z</time>
      </trkpt>
      <trkpt lat="45.8855" lon="5.63713">
        <ele>841.2</ele>
        <time>2026-05-12T11:33:44Z</time>
      </trkpt>
      <trkpt lat="45.88548" lon="5.63713">
        <ele>841.6</ele>
        <time>2026-05-12T11:33:45Z</time>
      </trkpt>
      <trkpt lat="45.88547" lon="5.63713">
        <ele>841.8</ele>
        <time>2026-05-12T11:33:46Z</time>
      </trkpt>
      <trkpt lat="45.88545" lon="5.63713">
        <ele>841.8</ele>
        <time>2026-05-12T11:33:47Z</time>
      </trkpt>
      <trkpt lat="45.88543" lon="5.63712">
        <ele>842</ele>
        <time>2026-05-12T11:33:48Z</time>
      </trkpt>
      <trkpt lat="45.88541" lon="5.63712">
        <ele>842</ele>
        <time>2026-05-12T11:33:49Z</time>
      </trkpt>
      <trkpt lat="45.88539" lon="5.63711">
        <ele>842.6</ele>
        <time>2026-05-12T11:33:50Z</time>
      </trkpt>
      <trkpt lat="45.88537" lon="5.63711">
        <ele>842.6</ele>
        <time>2026-05-12T11:33:51Z</time>
      </trkpt>
      <trkpt lat="45.88536" lon="5.63711">
        <ele>842.8</ele>
        <time>2026-05-12T11:33:52Z</time>
      </trkpt>
      <trkpt lat="45.88533" lon="5.63712">
        <ele>842.8</ele>
        <time>2026-05-12T11:33:53Z</time>
      </trkpt>
      <trkpt lat="45.88531" lon="5.63712">
        <ele>843.2</ele>
        <time>2026-05-12T11:33:54Z</time>
      </trkpt>
      <trkpt lat="45.88529" lon="5.63712">
        <ele>843.2</ele>
        <time>2026-05-12T11:33:55Z</time>
      </trkpt>
      <trkpt lat="45.88527" lon="5.63711">
        <ele>843.4</ele>
        <time>2026-05-12T11:33:56Z</time>
      </trkpt>
      <trkpt lat="45.88525" lon="5.63711">
        <ele>843.4</ele>
        <time>2026-05-12T11:33:57Z</time>
      </trkpt>
      <trkpt lat="45.88524" lon="5.6371">
        <ele>843.8</ele>
        <time>2026-05-12T11:33:58Z</time>
      </trkpt>
      <trkpt lat="45.88522" lon="5.6371">
        <ele>843.8</ele>
        <time>2026-05-12T11:33:59Z</time>
      </trkpt>
      <trkpt lat="45.88522" lon="5.63709">
        <ele>843.8</ele>
        <time>2026-05-12T11:34:00Z</time>
      </trkpt>
      <trkpt lat="45.88521" lon="5.63709">
        <ele>844.2</ele>
        <time>2026-05-12T11:34:01Z</time>
      </trkpt>
      <trkpt lat="45.88521" lon="5.63708">
        <ele>844.2</ele>
        <time>2026-05-12T11:34:02Z</time>
      </trkpt>
      <trkpt lat="45.8852" lon="5.63706">
        <ele>844.4</ele>
        <time>2026-05-12T11:34:03Z</time>
      </trkpt>
      <trkpt lat="45.88519" lon="5.63706">
        <ele>844.8</ele>
        <time>2026-05-12T11:34:04Z</time>
      </trkpt>
      <trkpt lat="45.88519" lon="5.63706">
        <ele>844.8</ele>
        <time>2026-05-12T11:34:05Z</time>
      </trkpt>
      <trkpt lat="45.88518" lon="5.63705">
        <ele>845.2</ele>
        <time>2026-05-12T11:34:06Z</time>
      </trkpt>
      <trkpt lat="45.88517" lon="5.63704">
        <ele>845.4</ele>
        <time>2026-05-12T11:34:07Z</time>
      </trkpt>
      <trkpt lat="45.88515" lon="5.63704">
        <ele>845.4</ele>
        <time>2026-05-12T11:34:08Z</time>
      </trkpt>
      <trkpt lat="45.88514" lon="5.63704">
        <ele>845.8</ele>
        <time>2026-05-12T11:34:09Z</time>
      </trkpt>
      <trkpt lat="45.88513" lon="5.63704">
        <ele>846</ele>
        <time>2026-05-12T11:34:10Z</time>
      </trkpt>
      <trkpt lat="45.88511" lon="5.63704">
        <ele>846</ele>
        <time>2026-05-12T11:34:11Z</time>
      </trkpt>
      <trkpt lat="45.8851" lon="5.63704">
        <ele>846.4</ele>
        <time>2026-05-12T11:34:12Z</time>
      </trkpt>
      <trkpt lat="45.88508" lon="5.63703">
        <ele>846.4</ele>
        <time>2026-05-12T11:34:13Z</time>
      </trkpt>
      <trkpt lat="45.88507" lon="5.63702">
        <ele>846.6</ele>
        <time>2026-05-12T11:34:14Z</time>
      </trkpt>
      <trkpt lat="45.88506" lon="5.63701">
        <ele>846.6</ele>
        <time>2026-05-12T11:34:15Z</time>
      </trkpt>
      <trkpt lat="45.88505" lon="5.637">
        <ele>847</ele>
        <time>2026-05-12T11:34:16Z</time>
      </trkpt>
      <trkpt lat="45.88504" lon="5.637">
        <ele>847</ele>
        <time>2026-05-12T11:34:17Z</time>
      </trkpt>
      <trkpt lat="45.88503" lon="5.63699">
        <ele>847.4</ele>
        <time>2026-05-12T11:34:18Z</time>
      </trkpt>
      <trkpt lat="45.88502" lon="5.63699">
        <ele>847.4</ele>
        <time>2026-05-12T11:34:19Z</time>
      </trkpt>
      <trkpt lat="45.88501" lon="5.63699">
        <ele>847.8</ele>
        <time>2026-05-12T11:34:20Z</time>
      </trkpt>
      <trkpt lat="45.885" lon="5.63699">
        <ele>848</ele>
        <time>2026-05-12T11:34:21Z</time>
      </trkpt>
      <trkpt lat="45.88499" lon="5.63699">
        <ele>848.4</ele>
        <time>2026-05-12T11:34:22Z</time>
      </trkpt>
      <trkpt lat="45.88498" lon="5.63698">
        <ele>848.6</ele>
        <time>2026-05-12T11:34:23Z</time>
      </trkpt>
      <trkpt lat="45.88497" lon="5.63697">
        <ele>848.6</ele>
        <time>2026-05-12T11:34:24Z</time>
      </trkpt>
      <trkpt lat="45.88496" lon="5.63696">
        <ele>848.8</ele>
        <time>2026-05-12T11:34:25Z</time>
      </trkpt>
      <trkpt lat="45.88495" lon="5.63696">
        <ele>848.8</ele>
        <time>2026-05-12T11:34:26Z</time>
      </trkpt>
      <trkpt lat="45.88494" lon="5.63695">
        <ele>849.2</ele>
        <time>2026-05-12T11:34:27Z</time>
      </trkpt>
      <trkpt lat="45.88493" lon="5.63694">
        <ele>849.2</ele>
        <time>2026-05-12T11:34:28Z</time>
      </trkpt>
      <trkpt lat="45.88492" lon="5.63693">
        <ele>849.2</ele>
        <time>2026-05-12T11:34:29Z</time>
      </trkpt>
      <trkpt lat="45.88491" lon="5.63693">
        <ele>849.8</ele>
        <time>2026-05-12T11:34:30Z</time>
      </trkpt>
      <trkpt lat="45.8849" lon="5.63692">
        <ele>849.8</ele>
        <time>2026-05-12T11:34:31Z</time>
      </trkpt>
      <trkpt lat="45.88488" lon="5.63691">
        <ele>850</ele>
        <time>2026-05-12T11:34:32Z</time>
      </trkpt>
      <trkpt lat="45.88488" lon="5.63691">
        <ele>850</ele>
        <time>2026-05-12T11:34:33Z</time>
      </trkpt>
      <trkpt lat="45.88487" lon="5.63691">
        <ele>850.4</ele>
        <time>2026-05-12T11:34:34Z</time>
      </trkpt>
      <trkpt lat="45.88486" lon="5.63691">
        <ele>850.4</ele>
        <time>2026-05-12T11:34:35Z</time>
      </trkpt>
      <trkpt lat="45.88485" lon="5.63692">
        <ele>850.8</ele>
        <time>2026-05-12T11:34:36Z</time>
      </trkpt>
      <trkpt lat="45.88484" lon="5.63693">
        <ele>850.8</ele>
        <time>2026-05-12T11:34:37Z</time>
      </trkpt>
      <trkpt lat="45.88483" lon="5.63692">
        <ele>851</ele>
        <time>2026-05-12T11:34:38Z</time>
      </trkpt>
      <trkpt lat="45.88481" lon="5.63692">
        <ele>851</ele>
        <time>2026-05-12T11:34:39Z</time>
      </trkpt>
      <trkpt lat="45.8848" lon="5.63693">
        <ele>851.2</ele>
        <time>2026-05-12T11:34:40Z</time>
      </trkpt>
      <trkpt lat="45.88479" lon="5.63693">
        <ele>851.4</ele>
        <time>2026-05-12T11:34:41Z</time>
      </trkpt>
      <trkpt lat="45.88477" lon="5.63694">
        <ele>851.4</ele>
        <time>2026-05-12T11:34:42Z</time>
      </trkpt>
      <trkpt lat="45.88475" lon="5.63695">
        <ele>851.4</ele>
        <time>2026-05-12T11:34:43Z</time>
      </trkpt>
      <trkpt lat="45.88473" lon="5.63695">
        <ele>851.8</ele>
        <time>2026-05-12T11:34:44Z</time>
      </trkpt>
      <trkpt lat="45.88472" lon="5.63696">
        <ele>852</ele>
        <time>2026-05-12T11:34:45Z</time>
      </trkpt>
      <trkpt lat="45.8847" lon="5.63696">
        <ele>852</ele>
        <time>2026-05-12T11:34:46Z</time>
      </trkpt>
      <trkpt lat="45.8847" lon="5.63697">
        <ele>852.4</ele>
        <time>2026-05-12T11:34:47Z</time>
      </trkpt>
      <trkpt lat="45.88469" lon="5.63696">
        <ele>852.6</ele>
        <time>2026-05-12T11:34:48Z</time>
      </trkpt>
      <trkpt lat="45.88468" lon="5.63695">
        <ele>853</ele>
        <time>2026-05-12T11:34:49Z</time>
      </trkpt>
      <trkpt lat="45.88466" lon="5.63694">
        <ele>853</ele>
        <time>2026-05-12T11:34:50Z</time>
      </trkpt>
      <trkpt lat="45.88464" lon="5.63693">
        <ele>853.2</ele>
        <time>2026-05-12T11:34:51Z</time>
      </trkpt>
      <trkpt lat="45.88463" lon="5.63692">
        <ele>853.2</ele>
        <time>2026-05-12T11:34:52Z</time>
      </trkpt>
      <trkpt lat="45.88462" lon="5.63692">
        <ele>853.6</ele>
        <time>2026-05-12T11:34:53Z</time>
      </trkpt>
      <trkpt lat="45.88462" lon="5.63692">
        <ele>853.8</ele>
        <time>2026-05-12T11:34:54Z</time>
      </trkpt>
      <trkpt lat="45.88461" lon="5.63692">
        <ele>853.8</ele>
        <time>2026-05-12T11:34:55Z</time>
      </trkpt>
      <trkpt lat="45.8846" lon="5.63692">
        <ele>854.2</ele>
        <time>2026-05-12T11:34:56Z</time>
      </trkpt>
      <trkpt lat="45.88458" lon="5.63692">
        <ele>854.2</ele>
        <time>2026-05-12T11:34:57Z</time>
      </trkpt>
      <trkpt lat="45.88456" lon="5.63692">
        <ele>854.4</ele>
        <time>2026-05-12T11:34:58Z</time>
      </trkpt>
      <trkpt lat="45.88455" lon="5.63691">
        <ele>854.4</ele>
        <time>2026-05-12T11:34:59Z</time>
      </trkpt>
      <trkpt lat="45.88454" lon="5.63691">
        <ele>854.6</ele>
        <time>2026-05-12T11:35:00Z</time>
      </trkpt>
      <trkpt lat="45.88454" lon="5.63691">
        <ele>854.8</ele>
        <time>2026-05-12T11:35:01Z</time>
      </trkpt>
      <trkpt lat="45.88454" lon="5.6369">
        <ele>854.8</ele>
        <time>2026-05-12T11:35:02Z</time>
      </trkpt>
      <trkpt lat="45.88454" lon="5.63689">
        <ele>855.2</ele>
        <time>2026-05-12T11:35:03Z</time>
      </trkpt>
      <trkpt lat="45.88453" lon="5.63689">
        <ele>855.4</ele>
        <time>2026-05-12T11:35:04Z</time>
      </trkpt>
      <trkpt lat="45.88451" lon="5.63689">
        <ele>855.4</ele>
        <time>2026-05-12T11:35:05Z</time>
      </trkpt>
      <trkpt lat="45.88449" lon="5.63688">
        <ele>855.8</ele>
        <time>2026-05-12T11:35:06Z</time>
      </trkpt>
      <trkpt lat="45.88447" lon="5.63687">
        <ele>856</ele>
        <time>2026-05-12T11:35:07Z</time>
      </trkpt>
      <trkpt lat="45.88446" lon="5.63687">
        <ele>856</ele>
        <time>2026-05-12T11:35:08Z</time>
      </trkpt>
      <trkpt lat="45.88445" lon="5.63688">
        <ele>856.4</ele>
        <time>2026-05-12T11:35:09Z</time>
      </trkpt>
      <trkpt lat="45.88443" lon="5.63688">
        <ele>856.6</ele>
        <time>2026-05-12T11:35:10Z</time>
      </trkpt>
      <trkpt lat="45.88441" lon="5.63688">
        <ele>856.8</ele>
        <time>2026-05-12T11:35:11Z</time>
      </trkpt>
      <trkpt lat="45.8844" lon="5.63688">
        <ele>856.8</ele>
        <time>2026-05-12T11:35:12Z</time>
      </trkpt>
      <trkpt lat="45.88438" lon="5.63687">
        <ele>857</ele>
        <time>2026-05-12T11:35:13Z</time>
      </trkpt>
      <trkpt lat="45.88437" lon="5.63687">
        <ele>857.4</ele>
        <time>2026-05-12T11:35:14Z</time>
      </trkpt>
      <trkpt lat="45.88436" lon="5.63687">
        <ele>857.4</ele>
        <time>2026-05-12T11:35:15Z</time>
      </trkpt>
      <trkpt lat="45.88435" lon="5.63687">
        <ele>857.6</ele>
        <time>2026-05-12T11:35:16Z</time>
      </trkpt>
      <trkpt lat="45.88434" lon="5.63687">
        <ele>857.8</ele>
        <time>2026-05-12T11:35:17Z</time>
      </trkpt>
      <trkpt lat="45.88433" lon="5.63687">
        <ele>858</ele>
        <time>2026-05-12T11:35:18Z</time>
      </trkpt>
      <trkpt lat="45.88431" lon="5.63687">
        <ele>858.2</ele>
        <time>2026-05-12T11:35:19Z</time>
      </trkpt>
      <trkpt lat="45.8843" lon="5.63688">
        <ele>858.2</ele>
        <time>2026-05-12T11:35:20Z</time>
      </trkpt>
      <trkpt lat="45.88428" lon="5.63688">
        <ele>858.6</ele>
        <time>2026-05-12T11:35:21Z</time>
      </trkpt>
      <trkpt lat="45.88426" lon="5.63689">
        <ele>858.6</ele>
        <time>2026-05-12T11:35:22Z</time>
      </trkpt>
      <trkpt lat="45.88424" lon="5.63689">
        <ele>859</ele>
        <time>2026-05-12T11:35:23Z</time>
      </trkpt>
      <trkpt lat="45.88423" lon="5.63689">
        <ele>859</ele>
        <time>2026-05-12T11:35:24Z</time>
      </trkpt>
      <trkpt lat="45.88421" lon="5.63689">
        <ele>859.2</ele>
        <time>2026-05-12T11:35:25Z</time>
      </trkpt>
      <trkpt lat="45.8842" lon="5.6369">
        <ele>859.2</ele>
        <time>2026-05-12T11:35:26Z</time>
      </trkpt>
      <trkpt lat="45.88418" lon="5.6369">
        <ele>859.8</ele>
        <time>2026-05-12T11:35:27Z</time>
      </trkpt>
      <trkpt lat="45.88417" lon="5.6369">
        <ele>859.8</ele>
        <time>2026-05-12T11:35:28Z</time>
      </trkpt>
      <trkpt lat="45.88415" lon="5.63691">
        <ele>860</ele>
        <time>2026-05-12T11:35:29Z</time>
      </trkpt>
      <trkpt lat="45.88414" lon="5.63691">
        <ele>860</ele>
        <time>2026-05-12T11:35:30Z</time>
      </trkpt>
      <trkpt lat="45.88413" lon="5.6369">
        <ele>860.6</ele>
        <time>2026-05-12T11:35:31Z</time>
      </trkpt>
      <trkpt lat="45.88412" lon="5.6369">
        <ele>860.8</ele>
        <time>2026-05-12T11:35:32Z</time>
      </trkpt>
      <trkpt lat="45.88411" lon="5.6369">
        <ele>861</ele>
        <time>2026-05-12T11:35:33Z</time>
      </trkpt>
      <trkpt lat="45.88409" lon="5.6369">
        <ele>861.6</ele>
        <time>2026-05-12T11:35:34Z</time>
      </trkpt>
      <trkpt lat="45.88407" lon="5.6369">
        <ele>861.8</ele>
        <time>2026-05-12T11:35:35Z</time>
      </trkpt>
      <trkpt lat="45.88405" lon="5.6369">
        <ele>861.8</ele>
        <time>2026-05-12T11:35:36Z</time>
      </trkpt>
      <trkpt lat="45.88404" lon="5.6369">
        <ele>861.8</ele>
        <time>2026-05-12T11:35:37Z</time>
      </trkpt>
      <trkpt lat="45.88402" lon="5.6369">
        <ele>861.8</ele>
        <time>2026-05-12T11:35:38Z</time>
      </trkpt>
      <trkpt lat="45.88401" lon="5.6369">
        <ele>861.8</ele>
        <time>2026-05-12T11:35:39Z</time>
      </trkpt>
      <trkpt lat="45.88399" lon="5.63691">
        <ele>861.8</ele>
        <time>2026-05-12T11:35:40Z</time>
      </trkpt>
      <trkpt lat="45.88398" lon="5.63691">
        <ele>862.4</ele>
        <time>2026-05-12T11:35:41Z</time>
      </trkpt>
      <trkpt lat="45.88397" lon="5.63691">
        <ele>862.4</ele>
        <time>2026-05-12T11:35:42Z</time>
      </trkpt>
      <trkpt lat="45.88396" lon="5.63692">
        <ele>862.6</ele>
        <time>2026-05-12T11:35:43Z</time>
      </trkpt>
      <trkpt lat="45.88394" lon="5.63691">
        <ele>862.6</ele>
        <time>2026-05-12T11:35:44Z</time>
      </trkpt>
      <trkpt lat="45.88393" lon="5.63691">
        <ele>862.8</ele>
        <time>2026-05-12T11:35:45Z</time>
      </trkpt>
      <trkpt lat="45.88391" lon="5.63691">
        <ele>862.8</ele>
        <time>2026-05-12T11:35:46Z</time>
      </trkpt>
      <trkpt lat="45.8839" lon="5.63691">
        <ele>863.2</ele>
        <time>2026-05-12T11:35:47Z</time>
      </trkpt>
      <trkpt lat="45.88389" lon="5.63691">
        <ele>863.2</ele>
        <time>2026-05-12T11:35:48Z</time>
      </trkpt>
      <trkpt lat="45.88388" lon="5.63692">
        <ele>863.4</ele>
        <time>2026-05-12T11:35:49Z</time>
      </trkpt>
      <trkpt lat="45.88387" lon="5.63692">
        <ele>863.6</ele>
        <time>2026-05-12T11:35:50Z</time>
      </trkpt>
      <trkpt lat="45.88387" lon="5.63693">
        <ele>864</ele>
        <time>2026-05-12T11:35:51Z</time>
      </trkpt>
      <trkpt lat="45.88387" lon="5.63693">
        <ele>864</ele>
        <time>2026-05-12T11:35:52Z</time>
      </trkpt>
      <trkpt lat="45.88386" lon="5.63694">
        <ele>864</ele>
        <time>2026-05-12T11:35:53Z</time>
      </trkpt>
      <trkpt lat="45.88385" lon="5.63694">
        <ele>864</ele>
        <time>2026-05-12T11:35:54Z</time>
      </trkpt>
      <trkpt lat="45.88383" lon="5.63695">
        <ele>864.2</ele>
        <time>2026-05-12T11:35:55Z</time>
      </trkpt>
      <trkpt lat="45.88382" lon="5.63695">
        <ele>864.2</ele>
        <time>2026-05-12T11:35:56Z</time>
      </trkpt>
      <trkpt lat="45.88381" lon="5.63695">
        <ele>864.6</ele>
        <time>2026-05-12T11:35:57Z</time>
      </trkpt>
      <trkpt lat="45.8838" lon="5.63695">
        <ele>864.6</ele>
        <time>2026-05-12T11:35:58Z</time>
      </trkpt>
      <trkpt lat="45.88379" lon="5.63695">
        <ele>864.6</ele>
        <time>2026-05-12T11:35:59Z</time>
      </trkpt>
      <trkpt lat="45.88378" lon="5.63695">
        <ele>864.8</ele>
        <time>2026-05-12T11:36:00Z</time>
      </trkpt>
      <trkpt lat="45.88376" lon="5.63695">
        <ele>865.2</ele>
        <time>2026-05-12T11:36:01Z</time>
      </trkpt>
      <trkpt lat="45.88375" lon="5.63695">
        <ele>865.4</ele>
        <time>2026-05-12T11:36:02Z</time>
      </trkpt>
      <trkpt lat="45.88374" lon="5.63695">
        <ele>865.4</ele>
        <time>2026-05-12T11:36:03Z</time>
      </trkpt>
      <trkpt lat="45.88372" lon="5.63696">
        <ele>865.6</ele>
        <time>2026-05-12T11:36:04Z</time>
      </trkpt>
      <trkpt lat="45.88371" lon="5.63696">
        <ele>865.6</ele>
        <time>2026-05-12T11:36:05Z</time>
      </trkpt>
      <trkpt lat="45.88369" lon="5.63697">
        <ele>866</ele>
        <time>2026-05-12T11:36:06Z</time>
      </trkpt>
      <trkpt lat="45.88368" lon="5.63697">
        <ele>866.2</ele>
        <time>2026-05-12T11:36:07Z</time>
      </trkpt>
      <trkpt lat="45.88368" lon="5.63697">
        <ele>866.6</ele>
        <time>2026-05-12T11:36:08Z</time>
      </trkpt>
      <trkpt lat="45.88366" lon="5.63698">
        <ele>866.6</ele>
        <time>2026-05-12T11:36:09Z</time>
      </trkpt>
      <trkpt lat="45.88365" lon="5.63698">
        <ele>866.8</ele>
        <time>2026-05-12T11:36:10Z</time>
      </trkpt>
      <trkpt lat="45.88363" lon="5.63698">
        <ele>866.8</ele>
        <time>2026-05-12T11:36:11Z</time>
      </trkpt>
      <trkpt lat="45.88362" lon="5.63698">
        <ele>867.2</ele>
        <time>2026-05-12T11:36:12Z</time>
      </trkpt>
      <trkpt lat="45.88361" lon="5.63698">
        <ele>867.2</ele>
        <time>2026-05-12T11:36:13Z</time>
      </trkpt>
      <trkpt lat="45.8836" lon="5.63698">
        <ele>867.4</ele>
        <time>2026-05-12T11:36:14Z</time>
      </trkpt>
      <trkpt lat="45.88359" lon="5.63698">
        <ele>867.4</ele>
        <time>2026-05-12T11:36:15Z</time>
      </trkpt>
      <trkpt lat="45.88358" lon="5.63698">
        <ele>867.4</ele>
        <time>2026-05-12T11:36:16Z</time>
      </trkpt>
      <trkpt lat="45.88357" lon="5.63699">
        <ele>868</ele>
        <time>2026-05-12T11:36:17Z</time>
      </trkpt>
      <trkpt lat="45.88357" lon="5.63699">
        <ele>868.2</ele>
        <time>2026-05-12T11:36:18Z</time>
      </trkpt>
      <trkpt lat="45.88356" lon="5.637">
        <ele>868.2</ele>
        <time>2026-05-12T11:36:19Z</time>
      </trkpt>
      <trkpt lat="45.88355" lon="5.637">
        <ele>868.6</ele>
        <time>2026-05-12T11:36:20Z</time>
      </trkpt>
      <trkpt lat="45.88354" lon="5.637">
        <ele>868.6</ele>
        <time>2026-05-12T11:36:21Z</time>
      </trkpt>
      <trkpt lat="45.88353" lon="5.637">
        <ele>869</ele>
        <time>2026-05-12T11:36:22Z</time>
      </trkpt>
      <trkpt lat="45.88352" lon="5.637">
        <ele>869.4</ele>
        <time>2026-05-12T11:36:23Z</time>
      </trkpt>
      <trkpt lat="45.88351" lon="5.63701">
        <ele>869.6</ele>
        <time>2026-05-12T11:36:24Z</time>
      </trkpt>
      <trkpt lat="45.8835" lon="5.63701">
        <ele>869.8</ele>
        <time>2026-05-12T11:36:25Z</time>
      </trkpt>
      <trkpt lat="45.88349" lon="5.63701">
        <ele>870</ele>
        <time>2026-05-12T11:36:26Z</time>
      </trkpt>
      <trkpt lat="45.88348" lon="5.63701">
        <ele>870</ele>
        <time>2026-05-12T11:36:27Z</time>
      </trkpt>
      <trkpt lat="45.88347" lon="5.63701">
        <ele>870.4</ele>
        <time>2026-05-12T11:36:28Z</time>
      </trkpt>
      <trkpt lat="45.88347" lon="5.63701">
        <ele>870.4</ele>
        <time>2026-05-12T11:36:29Z</time>
      </trkpt>
      <trkpt lat="45.88346" lon="5.63702">
        <ele>870.6</ele>
        <time>2026-05-12T11:36:30Z</time>
      </trkpt>
      <trkpt lat="45.88344" lon="5.63702">
        <ele>870.8</ele>
        <time>2026-05-12T11:36:31Z</time>
      </trkpt>
      <trkpt lat="45.88343" lon="5.63702">
        <ele>870.8</ele>
        <time>2026-05-12T11:36:32Z</time>
      </trkpt>
      <trkpt lat="45.88341" lon="5.63702">
        <ele>871.2</ele>
        <time>2026-05-12T11:36:33Z</time>
      </trkpt>
      <trkpt lat="45.88339" lon="5.63702">
        <ele>871.2</ele>
        <time>2026-05-12T11:36:34Z</time>
      </trkpt>
      <trkpt lat="45.88338" lon="5.63702">
        <ele>871.6</ele>
        <time>2026-05-12T11:36:35Z</time>
      </trkpt>
      <trkpt lat="45.88337" lon="5.63702">
        <ele>871.6</ele>
        <time>2026-05-12T11:36:36Z</time>
      </trkpt>
      <trkpt lat="45.88336" lon="5.63702">
        <ele>872</ele>
        <time>2026-05-12T11:36:37Z</time>
      </trkpt>
      <trkpt lat="45.88335" lon="5.63702">
        <ele>872</ele>
        <time>2026-05-12T11:36:38Z</time>
      </trkpt>
      <trkpt lat="45.88333" lon="5.63703">
        <ele>872.4</ele>
        <time>2026-05-12T11:36:39Z</time>
      </trkpt>
      <trkpt lat="45.88332" lon="5.63703">
        <ele>872.4</ele>
        <time>2026-05-12T11:36:40Z</time>
      </trkpt>
      <trkpt lat="45.8833" lon="5.63704">
        <ele>872.6</ele>
        <time>2026-05-12T11:36:41Z</time>
      </trkpt>
      <trkpt lat="45.88329" lon="5.63705">
        <ele>872.6</ele>
        <time>2026-05-12T11:36:42Z</time>
      </trkpt>
      <trkpt lat="45.88328" lon="5.63706">
        <ele>872.8</ele>
        <time>2026-05-12T11:36:43Z</time>
      </trkpt>
      <trkpt lat="45.88327" lon="5.63706">
        <ele>873.2</ele>
        <time>2026-05-12T11:36:44Z</time>
      </trkpt>
      <trkpt lat="45.88327" lon="5.63707">
        <ele>873.2</ele>
        <time>2026-05-12T11:36:45Z</time>
      </trkpt>
      <trkpt lat="45.88325" lon="5.63707">
        <ele>873.4</ele>
        <time>2026-05-12T11:36:46Z</time>
      </trkpt>
      <trkpt lat="45.88323" lon="5.63707">
        <ele>873.8</ele>
        <time>2026-05-12T11:36:47Z</time>
      </trkpt>
      <trkpt lat="45.88322" lon="5.63707">
        <ele>874</ele>
        <time>2026-05-12T11:36:48Z</time>
      </trkpt>
      <trkpt lat="45.8832" lon="5.63707">
        <ele>874.4</ele>
        <time>2026-05-12T11:36:49Z</time>
      </trkpt>
      <trkpt lat="45.88319" lon="5.63706">
        <ele>874.6</ele>
        <time>2026-05-12T11:36:50Z</time>
      </trkpt>
      <trkpt lat="45.88317" lon="5.63706">
        <ele>874.6</ele>
        <time>2026-05-12T11:36:51Z</time>
      </trkpt>
      <trkpt lat="45.88316" lon="5.63706">
        <ele>874.8</ele>
        <time>2026-05-12T11:36:52Z</time>
      </trkpt>
      <trkpt lat="45.88314" lon="5.63706">
        <ele>875</ele>
        <time>2026-05-12T11:36:53Z</time>
      </trkpt>
      <trkpt lat="45.88313" lon="5.63706">
        <ele>875</ele>
        <time>2026-05-12T11:36:54Z</time>
      </trkpt>
      <trkpt lat="45.88311" lon="5.63706">
        <ele>875.4</ele>
        <time>2026-05-12T11:36:55Z</time>
      </trkpt>
      <trkpt lat="45.8831" lon="5.63706">
        <ele>875.8</ele>
        <time>2026-05-12T11:36:56Z</time>
      </trkpt>
      <trkpt lat="45.88309" lon="5.63705">
        <ele>876</ele>
        <time>2026-05-12T11:36:57Z</time>
      </trkpt>
      <trkpt lat="45.88308" lon="5.63705">
        <ele>876.2</ele>
        <time>2026-05-12T11:36:58Z</time>
      </trkpt>
      <trkpt lat="45.88307" lon="5.63706">
        <ele>876.2</ele>
        <time>2026-05-12T11:36:59Z</time>
      </trkpt>
      <trkpt lat="45.88303" lon="5.63706">
        <ele>876.6</ele>
        <time>2026-05-12T11:37:00Z</time>
      </trkpt>
      <trkpt lat="45.88302" lon="5.63707">
        <ele>876.8</ele>
        <time>2026-05-12T11:37:01Z</time>
      </trkpt>
      <trkpt lat="45.88301" lon="5.63707">
        <ele>876.8</ele>
        <time>2026-05-12T11:37:02Z</time>
      </trkpt>
      <trkpt lat="45.883" lon="5.63708">
        <ele>877.2</ele>
        <time>2026-05-12T11:37:03Z</time>
      </trkpt>
      <trkpt lat="45.88299" lon="5.63708">
        <ele>877.4</ele>
        <time>2026-05-12T11:37:04Z</time>
      </trkpt>
      <trkpt lat="45.88297" lon="5.63708">
        <ele>877.8</ele>
        <time>2026-05-12T11:37:05Z</time>
      </trkpt>
      <trkpt lat="45.88296" lon="5.63708">
        <ele>877.8</ele>
        <time>2026-05-12T11:37:06Z</time>
      </trkpt>
      <trkpt lat="45.88295" lon="5.63709">
        <ele>877.8</ele>
        <time>2026-05-12T11:37:07Z</time>
      </trkpt>
      <trkpt lat="45.88294" lon="5.63709">
        <ele>878</ele>
        <time>2026-05-12T11:37:08Z</time>
      </trkpt>
      <trkpt lat="45.88293" lon="5.63709">
        <ele>878</ele>
        <time>2026-05-12T11:37:09Z</time>
      </trkpt>
      <trkpt lat="45.88292" lon="5.6371">
        <ele>878.4</ele>
        <time>2026-05-12T11:37:10Z</time>
      </trkpt>
      <trkpt lat="45.88291" lon="5.6371">
        <ele>878.6</ele>
        <time>2026-05-12T11:37:11Z</time>
      </trkpt>
      <trkpt lat="45.88289" lon="5.63711">
        <ele>878.6</ele>
        <time>2026-05-12T11:37:12Z</time>
      </trkpt>
      <trkpt lat="45.88288" lon="5.63711">
        <ele>878.6</ele>
        <time>2026-05-12T11:37:13Z</time>
      </trkpt>
      <trkpt lat="45.88286" lon="5.63711">
        <ele>879</ele>
        <time>2026-05-12T11:37:14Z</time>
      </trkpt>
      <trkpt lat="45.88285" lon="5.63711">
        <ele>879</ele>
        <time>2026-05-12T11:37:15Z</time>
      </trkpt>
      <trkpt lat="45.88284" lon="5.63711">
        <ele>879.4</ele>
        <time>2026-05-12T11:37:16Z</time>
      </trkpt>
      <trkpt lat="45.88283" lon="5.63712">
        <ele>879.4</ele>
        <time>2026-05-12T11:37:17Z</time>
      </trkpt>
      <trkpt lat="45.88281" lon="5.63711">
        <ele>879.6</ele>
        <time>2026-05-12T11:37:18Z</time>
      </trkpt>
      <trkpt lat="45.8828" lon="5.63711">
        <ele>880</ele>
        <time>2026-05-12T11:37:19Z</time>
      </trkpt>
      <trkpt lat="45.88278" lon="5.63711">
        <ele>880</ele>
        <time>2026-05-12T11:37:20Z</time>
      </trkpt>
      <trkpt lat="45.88278" lon="5.63711">
        <ele>880.4</ele>
        <time>2026-05-12T11:37:21Z</time>
      </trkpt>
      <trkpt lat="45.88277" lon="5.63712">
        <ele>880.8</ele>
        <time>2026-05-12T11:37:22Z</time>
      </trkpt>
      <trkpt lat="45.88275" lon="5.63713">
        <ele>880.8</ele>
        <time>2026-05-12T11:37:23Z</time>
      </trkpt>
      <trkpt lat="45.88275" lon="5.63713">
        <ele>881.2</ele>
        <time>2026-05-12T11:37:24Z</time>
      </trkpt>
      <trkpt lat="45.88275" lon="5.63713">
        <ele>881.2</ele>
        <time>2026-05-12T11:37:25Z</time>
      </trkpt>
      <trkpt lat="45.88273" lon="5.63713">
        <ele>881.4</ele>
        <time>2026-05-12T11:37:26Z</time>
      </trkpt>
      <trkpt lat="45.88272" lon="5.63713">
        <ele>881.6</ele>
        <time>2026-05-12T11:37:27Z</time>
      </trkpt>
      <trkpt lat="45.88271" lon="5.63713">
        <ele>881.6</ele>
        <time>2026-05-12T11:37:28Z</time>
      </trkpt>
      <trkpt lat="45.8827" lon="5.63714">
        <ele>882</ele>
        <time>2026-05-12T11:37:29Z</time>
      </trkpt>
      <trkpt lat="45.88269" lon="5.63714">
        <ele>882.2</ele>
        <time>2026-05-12T11:37:30Z</time>
      </trkpt>
      <trkpt lat="45.88267" lon="5.63714">
        <ele>882.8</ele>
        <time>2026-05-12T11:37:31Z</time>
      </trkpt>
      <trkpt lat="45.88266" lon="5.63714">
        <ele>882.8</ele>
        <time>2026-05-12T11:37:32Z</time>
      </trkpt>
      <trkpt lat="45.88265" lon="5.63715">
        <ele>883.2</ele>
        <time>2026-05-12T11:37:33Z</time>
      </trkpt>
      <trkpt lat="45.88264" lon="5.63715">
        <ele>883.2</ele>
        <time>2026-05-12T11:37:34Z</time>
      </trkpt>
      <trkpt lat="45.88263" lon="5.63716">
        <ele>883.6</ele>
        <time>2026-05-12T11:37:35Z</time>
      </trkpt>
      <trkpt lat="45.88262" lon="5.63716">
        <ele>883.6</ele>
        <time>2026-05-12T11:37:36Z</time>
      </trkpt>
      <trkpt lat="45.88261" lon="5.63716">
        <ele>883.6</ele>
        <time>2026-05-12T11:37:37Z</time>
      </trkpt>
      <trkpt lat="45.8826" lon="5.63716">
        <ele>883.8</ele>
        <time>2026-05-12T11:37:38Z</time>
      </trkpt>
      <trkpt lat="45.88259" lon="5.63716">
        <ele>884</ele>
        <time>2026-05-12T11:37:39Z</time>
      </trkpt>
      <trkpt lat="45.88258" lon="5.63716">
        <ele>884</ele>
        <time>2026-05-12T11:37:40Z</time>
      </trkpt>
      <trkpt lat="45.88256" lon="5.63716">
        <ele>884.4</ele>
        <time>2026-05-12T11:37:41Z</time>
      </trkpt>
      <trkpt lat="45.88255" lon="5.63716">
        <ele>884.4</ele>
        <time>2026-05-12T11:37:42Z</time>
      </trkpt>
      <trkpt lat="45.88254" lon="5.63716">
        <ele>884.8</ele>
        <time>2026-05-12T11:37:43Z</time>
      </trkpt>
      <trkpt lat="45.88253" lon="5.63716">
        <ele>884.8</ele>
        <time>2026-05-12T11:37:44Z</time>
      </trkpt>
      <trkpt lat="45.88252" lon="5.63717">
        <ele>885</ele>
        <time>2026-05-12T11:37:45Z</time>
      </trkpt>
      <trkpt lat="45.8825" lon="5.63717">
        <ele>885.4</ele>
        <time>2026-05-12T11:37:46Z</time>
      </trkpt>
      <trkpt lat="45.8825" lon="5.63717">
        <ele>885.4</ele>
        <time>2026-05-12T11:37:47Z</time>
      </trkpt>
      <trkpt lat="45.88248" lon="5.63717">
        <ele>885.8</ele>
        <time>2026-05-12T11:37:48Z</time>
      </trkpt>
      <trkpt lat="45.88247" lon="5.63718">
        <ele>886</ele>
        <time>2026-05-12T11:37:49Z</time>
      </trkpt>
      <trkpt lat="45.88245" lon="5.63718">
        <ele>886</ele>
        <time>2026-05-12T11:37:50Z</time>
      </trkpt>
      <trkpt lat="45.88244" lon="5.63718">
        <ele>886.2</ele>
        <time>2026-05-12T11:37:51Z</time>
      </trkpt>
      <trkpt lat="45.88243" lon="5.63718">
        <ele>886.2</ele>
        <time>2026-05-12T11:37:52Z</time>
      </trkpt>
      <trkpt lat="45.88241" lon="5.63718">
        <ele>886.6</ele>
        <time>2026-05-12T11:37:53Z</time>
      </trkpt>
      <trkpt lat="45.8824" lon="5.63718">
        <ele>886.6</ele>
        <time>2026-05-12T11:37:54Z</time>
      </trkpt>
      <trkpt lat="45.88239" lon="5.63719">
        <ele>886.6</ele>
        <time>2026-05-12T11:37:55Z</time>
      </trkpt>
      <trkpt lat="45.88237" lon="5.63719">
        <ele>887</ele>
        <time>2026-05-12T11:37:56Z</time>
      </trkpt>
      <trkpt lat="45.88235" lon="5.6372">
        <ele>887.4</ele>
        <time>2026-05-12T11:37:57Z</time>
      </trkpt>
      <trkpt lat="45.88234" lon="5.6372">
        <ele>887.6</ele>
        <time>2026-05-12T11:37:58Z</time>
      </trkpt>
      <trkpt lat="45.88232" lon="5.6372">
        <ele>888</ele>
        <time>2026-05-12T11:37:59Z</time>
      </trkpt>
      <trkpt lat="45.88231" lon="5.6372">
        <ele>888</ele>
        <time>2026-05-12T11:38:00Z</time>
      </trkpt>
      <trkpt lat="45.8823" lon="5.63719">
        <ele>887</ele>
        <time>2026-05-12T11:38:01Z</time>
      </trkpt>
      <trkpt lat="45.88228" lon="5.63719">
        <ele>887.6</ele>
        <time>2026-05-12T11:38:02Z</time>
      </trkpt>
      <trkpt lat="45.88226" lon="5.63718">
        <ele>887.8</ele>
        <time>2026-05-12T11:38:03Z</time>
      </trkpt>
      <trkpt lat="45.88225" lon="5.63717">
        <ele>888</ele>
        <time>2026-05-12T11:38:04Z</time>
      </trkpt>
      <trkpt lat="45.88224" lon="5.63717">
        <ele>888.4</ele>
        <time>2026-05-12T11:38:05Z</time>
      </trkpt>
      <trkpt lat="45.88222" lon="5.63716">
        <ele>888.6</ele>
        <time>2026-05-12T11:38:06Z</time>
      </trkpt>
      <trkpt lat="45.88221" lon="5.63716">
        <ele>889</ele>
        <time>2026-05-12T11:38:07Z</time>
      </trkpt>
      <trkpt lat="45.88219" lon="5.63716">
        <ele>889.2</ele>
        <time>2026-05-12T11:38:08Z</time>
      </trkpt>
      <trkpt lat="45.88218" lon="5.63716">
        <ele>889.4</ele>
        <time>2026-05-12T11:38:09Z</time>
      </trkpt>
      <trkpt lat="45.88217" lon="5.63716">
        <ele>889.4</ele>
        <time>2026-05-12T11:38:10Z</time>
      </trkpt>
      <trkpt lat="45.88215" lon="5.63716">
        <ele>889.4</ele>
        <time>2026-05-12T11:38:11Z</time>
      </trkpt>
      <trkpt lat="45.88214" lon="5.63716">
        <ele>889.4</ele>
        <time>2026-05-12T11:38:12Z</time>
      </trkpt>
      <trkpt lat="45.88212" lon="5.63716">
        <ele>889.8</ele>
        <time>2026-05-12T11:38:13Z</time>
      </trkpt>
      <trkpt lat="45.8821" lon="5.63715">
        <ele>889.8</ele>
        <time>2026-05-12T11:38:14Z</time>
      </trkpt>
      <trkpt lat="45.88208" lon="5.63714">
        <ele>890</ele>
        <time>2026-05-12T11:38:15Z</time>
      </trkpt>
      <trkpt lat="45.88206" lon="5.63713">
        <ele>890.2</ele>
        <time>2026-05-12T11:38:16Z</time>
      </trkpt>
      <trkpt lat="45.88205" lon="5.63713">
        <ele>890.2</ele>
        <time>2026-05-12T11:38:17Z</time>
      </trkpt>
      <trkpt lat="45.88203" lon="5.63712">
        <ele>890.2</ele>
        <time>2026-05-12T11:38:18Z</time>
      </trkpt>
      <trkpt lat="45.88202" lon="5.63711">
        <ele>890.4</ele>
        <time>2026-05-12T11:38:19Z</time>
      </trkpt>
      <trkpt lat="45.88201" lon="5.63711">
        <ele>890.4</ele>
        <time>2026-05-12T11:38:20Z</time>
      </trkpt>
      <trkpt lat="45.882" lon="5.6371">
        <ele>890.6</ele>
        <time>2026-05-12T11:38:21Z</time>
      </trkpt>
      <trkpt lat="45.88198" lon="5.6371">
        <ele>891</ele>
        <time>2026-05-12T11:38:22Z</time>
      </trkpt>
      <trkpt lat="45.88197" lon="5.6371">
        <ele>891</ele>
        <time>2026-05-12T11:38:23Z</time>
      </trkpt>
      <trkpt lat="45.88195" lon="5.6371">
        <ele>891.2</ele>
        <time>2026-05-12T11:38:24Z</time>
      </trkpt>
      <trkpt lat="45.88194" lon="5.6371">
        <ele>891.2</ele>
        <time>2026-05-12T11:38:25Z</time>
      </trkpt>
      <trkpt lat="45.88192" lon="5.63709">
        <ele>891.6</ele>
        <time>2026-05-12T11:38:26Z</time>
      </trkpt>
      <trkpt lat="45.88191" lon="5.63708">
        <ele>891.8</ele>
        <time>2026-05-12T11:38:27Z</time>
      </trkpt>
      <trkpt lat="45.8819" lon="5.63708">
        <ele>891.8</ele>
        <time>2026-05-12T11:38:28Z</time>
      </trkpt>
      <trkpt lat="45.88188" lon="5.63708">
        <ele>892</ele>
        <time>2026-05-12T11:38:29Z</time>
      </trkpt>
      <trkpt lat="45.88186" lon="5.63708">
        <ele>892.4</ele>
        <time>2026-05-12T11:38:30Z</time>
      </trkpt>
      <trkpt lat="45.88185" lon="5.63708">
        <ele>892.4</ele>
        <time>2026-05-12T11:38:31Z</time>
      </trkpt>
      <trkpt lat="45.88184" lon="5.63708">
        <ele>892.4</ele>
        <time>2026-05-12T11:38:32Z</time>
      </trkpt>
      <trkpt lat="45.88183" lon="5.63708">
        <ele>892.6</ele>
        <time>2026-05-12T11:38:33Z</time>
      </trkpt>
      <trkpt lat="45.88181" lon="5.63707">
        <ele>892.6</ele>
        <time>2026-05-12T11:38:34Z</time>
      </trkpt>
      <trkpt lat="45.8818" lon="5.63707">
        <ele>893</ele>
        <time>2026-05-12T11:38:35Z</time>
      </trkpt>
      <trkpt lat="45.88179" lon="5.63706">
        <ele>893</ele>
        <time>2026-05-12T11:38:36Z</time>
      </trkpt>
      <trkpt lat="45.88177" lon="5.63706">
        <ele>893.2</ele>
        <time>2026-05-12T11:38:37Z</time>
      </trkpt>
      <trkpt lat="45.88176" lon="5.63706">
        <ele>893.2</ele>
        <time>2026-05-12T11:38:38Z</time>
      </trkpt>
      <trkpt lat="45.88174" lon="5.63706">
        <ele>893.6</ele>
        <time>2026-05-12T11:38:39Z</time>
      </trkpt>
      <trkpt lat="45.88173" lon="5.63706">
        <ele>894</ele>
        <time>2026-05-12T11:38:40Z</time>
      </trkpt>
      <trkpt lat="45.88171" lon="5.63706">
        <ele>894.2</ele>
        <time>2026-05-12T11:38:41Z</time>
      </trkpt>
      <trkpt lat="45.88171" lon="5.63706">
        <ele>894.2</ele>
        <time>2026-05-12T11:38:42Z</time>
      </trkpt>
      <trkpt lat="45.88171" lon="5.63706">
        <ele>894.6</ele>
        <time>2026-05-12T11:38:43Z</time>
      </trkpt>
      <trkpt lat="45.88166" lon="5.63705">
        <ele>895</ele>
        <time>2026-05-12T11:38:45Z</time>
      </trkpt>
      <trkpt lat="45.88164" lon="5.63705">
        <ele>895.2</ele>
        <time>2026-05-12T11:38:46Z</time>
      </trkpt>
      <trkpt lat="45.88163" lon="5.63705">
        <ele>895.2</ele>
        <time>2026-05-12T11:38:47Z</time>
      </trkpt>
      <trkpt lat="45.88162" lon="5.63706">
        <ele>895.4</ele>
        <time>2026-05-12T11:38:48Z</time>
      </trkpt>
      <trkpt lat="45.88161" lon="5.63707">
        <ele>895.6</ele>
        <time>2026-05-12T11:38:49Z</time>
      </trkpt>
      <trkpt lat="45.8816" lon="5.63707">
        <ele>895.6</ele>
        <time>2026-05-12T11:38:50Z</time>
      </trkpt>
      <trkpt lat="45.88159" lon="5.63707">
        <ele>896</ele>
        <time>2026-05-12T11:38:51Z</time>
      </trkpt>
      <trkpt lat="45.88158" lon="5.63707">
        <ele>896.2</ele>
        <time>2026-05-12T11:38:52Z</time>
      </trkpt>
      <trkpt lat="45.88157" lon="5.63707">
        <ele>896.2</ele>
        <time>2026-05-12T11:38:53Z</time>
      </trkpt>
      <trkpt lat="45.88157" lon="5.63707">
        <ele>896.6</ele>
        <time>2026-05-12T11:38:54Z</time>
      </trkpt>
      <trkpt lat="45.88155" lon="5.63706">
        <ele>896.6</ele>
        <time>2026-05-12T11:38:55Z</time>
      </trkpt>
      <trkpt lat="45.88153" lon="5.63706">
        <ele>897</ele>
        <time>2026-05-12T11:38:56Z</time>
      </trkpt>
      <trkpt lat="45.88152" lon="5.63706">
        <ele>897</ele>
        <time>2026-05-12T11:38:57Z</time>
      </trkpt>
      <trkpt lat="45.88152" lon="5.63707">
        <ele>897.2</ele>
        <time>2026-05-12T11:38:58Z</time>
      </trkpt>
      <trkpt lat="45.88151" lon="5.63707">
        <ele>897.2</ele>
        <time>2026-05-12T11:38:59Z</time>
      </trkpt>
      <trkpt lat="45.8815" lon="5.63707">
        <ele>897.6</ele>
        <time>2026-05-12T11:39:00Z</time>
      </trkpt>
      <trkpt lat="45.88149" lon="5.63707">
        <ele>897.6</ele>
        <time>2026-05-12T11:39:01Z</time>
      </trkpt>
      <trkpt lat="45.88148" lon="5.63707">
        <ele>898</ele>
        <time>2026-05-12T11:39:02Z</time>
      </trkpt>
      <trkpt lat="45.88146" lon="5.63707">
        <ele>898.2</ele>
        <time>2026-05-12T11:39:03Z</time>
      </trkpt>
      <trkpt lat="45.88145" lon="5.63706">
        <ele>898.4</ele>
        <time>2026-05-12T11:39:04Z</time>
      </trkpt>
      <trkpt lat="45.88144" lon="5.63706">
        <ele>898.4</ele>
        <time>2026-05-12T11:39:05Z</time>
      </trkpt>
      <trkpt lat="45.88143" lon="5.63706">
        <ele>898.8</ele>
        <time>2026-05-12T11:39:06Z</time>
      </trkpt>
      <trkpt lat="45.88141" lon="5.63706">
        <ele>898.8</ele>
        <time>2026-05-12T11:39:07Z</time>
      </trkpt>
      <trkpt lat="45.8814" lon="5.63706">
        <ele>898.8</ele>
        <time>2026-05-12T11:39:08Z</time>
      </trkpt>
      <trkpt lat="45.88139" lon="5.63706">
        <ele>898.8</ele>
        <time>2026-05-12T11:39:09Z</time>
      </trkpt>
      <trkpt lat="45.88138" lon="5.63706">
        <ele>899.2</ele>
        <time>2026-05-12T11:39:10Z</time>
      </trkpt>
      <trkpt lat="45.88137" lon="5.63706">
        <ele>899.6</ele>
        <time>2026-05-12T11:39:11Z</time>
      </trkpt>
      <trkpt lat="45.88136" lon="5.63706">
        <ele>899.6</ele>
        <time>2026-05-12T11:39:12Z</time>
      </trkpt>
      <trkpt lat="45.88134" lon="5.63705">
        <ele>899.8</ele>
        <time>2026-05-12T11:39:13Z</time>
      </trkpt>
      <trkpt lat="45.88133" lon="5.63705">
        <ele>899.8</ele>
        <time>2026-05-12T11:39:14Z</time>
      </trkpt>
      <trkpt lat="45.88132" lon="5.63705">
        <ele>899.8</ele>
        <time>2026-05-12T11:39:15Z</time>
      </trkpt>
      <trkpt lat="45.88131" lon="5.63705">
        <ele>900.2</ele>
        <time>2026-05-12T11:39:16Z</time>
      </trkpt>
      <trkpt lat="45.88131" lon="5.63705">
        <ele>900.2</ele>
        <time>2026-05-12T11:39:17Z</time>
      </trkpt>
      <trkpt lat="45.8813" lon="5.63705">
        <ele>900.2</ele>
        <time>2026-05-12T11:39:18Z</time>
      </trkpt>
      <trkpt lat="45.88128" lon="5.63705">
        <ele>900.4</ele>
        <time>2026-05-12T11:39:19Z</time>
      </trkpt>
      <trkpt lat="45.88126" lon="5.63705">
        <ele>900.6</ele>
        <time>2026-05-12T11:39:20Z</time>
      </trkpt>
      <trkpt lat="45.88124" lon="5.63705">
        <ele>900.6</ele>
        <time>2026-05-12T11:39:21Z</time>
      </trkpt>
      <trkpt lat="45.88122" lon="5.63704">
        <ele>900.6</ele>
        <time>2026-05-12T11:39:22Z</time>
      </trkpt>
      <trkpt lat="45.8812" lon="5.63704">
        <ele>900.6</ele>
        <time>2026-05-12T11:39:23Z</time>
      </trkpt>
      <trkpt lat="45.88118" lon="5.63703">
        <ele>901.2</ele>
        <time>2026-05-12T11:39:24Z</time>
      </trkpt>
      <trkpt lat="45.88116" lon="5.63702">
        <ele>901.6</ele>
        <time>2026-05-12T11:39:25Z</time>
      </trkpt>
      <trkpt lat="45.88115" lon="5.63702">
        <ele>901.6</ele>
        <time>2026-05-12T11:39:26Z</time>
      </trkpt>
      <trkpt lat="45.88114" lon="5.63701">
        <ele>901.6</ele>
        <time>2026-05-12T11:39:27Z</time>
      </trkpt>
      <trkpt lat="45.88112" lon="5.63701">
        <ele>901.8</ele>
        <time>2026-05-12T11:39:28Z</time>
      </trkpt>
      <trkpt lat="45.8811" lon="5.637">
        <ele>901.8</ele>
        <time>2026-05-12T11:39:29Z</time>
      </trkpt>
      <trkpt lat="45.88108" lon="5.637">
        <ele>901.8</ele>
        <time>2026-05-12T11:39:30Z</time>
      </trkpt>
      <trkpt lat="45.88106" lon="5.63699">
        <ele>902.4</ele>
        <time>2026-05-12T11:39:31Z</time>
      </trkpt>
      <trkpt lat="45.88105" lon="5.63699">
        <ele>902.4</ele>
        <time>2026-05-12T11:39:32Z</time>
      </trkpt>
      <trkpt lat="45.88104" lon="5.63698">
        <ele>902.4</ele>
        <time>2026-05-12T11:39:33Z</time>
      </trkpt>
      <trkpt lat="45.88102" lon="5.63697">
        <ele>902.4</ele>
        <time>2026-05-12T11:39:34Z</time>
      </trkpt>
      <trkpt lat="45.88101" lon="5.63697">
        <ele>902.6</ele>
        <time>2026-05-12T11:39:35Z</time>
      </trkpt>
      <trkpt lat="45.881" lon="5.63697">
        <ele>902.6</ele>
        <time>2026-05-12T11:39:36Z</time>
      </trkpt>
      <trkpt lat="45.88099" lon="5.63696">
        <ele>903</ele>
        <time>2026-05-12T11:39:37Z</time>
      </trkpt>
      <trkpt lat="45.88098" lon="5.63695">
        <ele>903</ele>
        <time>2026-05-12T11:39:38Z</time>
      </trkpt>
      <trkpt lat="45.88095" lon="5.63694">
        <ele>903</ele>
        <time>2026-05-12T11:39:39Z</time>
      </trkpt>
      <trkpt lat="45.88094" lon="5.63693">
        <ele>903.2</ele>
        <time>2026-05-12T11:39:40Z</time>
      </trkpt>
      <trkpt lat="45.88093" lon="5.63692">
        <ele>903.2</ele>
        <time>2026-05-12T11:39:41Z</time>
      </trkpt>
      <trkpt lat="45.88092" lon="5.63691">
        <ele>903.4</ele>
        <time>2026-05-12T11:39:42Z</time>
      </trkpt>
      <trkpt lat="45.8809" lon="5.6369">
        <ele>903.4</ele>
        <time>2026-05-12T11:39:43Z</time>
      </trkpt>
      <trkpt lat="45.88089" lon="5.63689">
        <ele>903.6</ele>
        <time>2026-05-12T11:39:44Z</time>
      </trkpt>
      <trkpt lat="45.88088" lon="5.63688">
        <ele>903.6</ele>
        <time>2026-05-12T11:39:45Z</time>
      </trkpt>
      <trkpt lat="45.88087" lon="5.63687">
        <ele>904</ele>
        <time>2026-05-12T11:39:46Z</time>
      </trkpt>
      <trkpt lat="45.88086" lon="5.63686">
        <ele>904</ele>
        <time>2026-05-12T11:39:47Z</time>
      </trkpt>
      <trkpt lat="45.88085" lon="5.63685">
        <ele>904.4</ele>
        <time>2026-05-12T11:39:48Z</time>
      </trkpt>
      <trkpt lat="45.88084" lon="5.63684">
        <ele>904.4</ele>
        <time>2026-05-12T11:39:49Z</time>
      </trkpt>
      <trkpt lat="45.88082" lon="5.63683">
        <ele>904.6</ele>
        <time>2026-05-12T11:39:50Z</time>
      </trkpt>
      <trkpt lat="45.8808" lon="5.63682">
        <ele>904.6</ele>
        <time>2026-05-12T11:39:51Z</time>
      </trkpt>
      <trkpt lat="45.88079" lon="5.6368">
        <ele>904.6</ele>
        <time>2026-05-12T11:39:52Z</time>
      </trkpt>
      <trkpt lat="45.88077" lon="5.63679">
        <ele>904.8</ele>
        <time>2026-05-12T11:39:53Z</time>
      </trkpt>
      <trkpt lat="45.88076" lon="5.63678">
        <ele>905</ele>
        <time>2026-05-12T11:39:54Z</time>
      </trkpt>
      <trkpt lat="45.88074" lon="5.63677">
        <ele>905</ele>
        <time>2026-05-12T11:39:55Z</time>
      </trkpt>
      <trkpt lat="45.88073" lon="5.63676">
        <ele>905</ele>
        <time>2026-05-12T11:39:56Z</time>
      </trkpt>
      <trkpt lat="45.88072" lon="5.63674">
        <ele>905.4</ele>
        <time>2026-05-12T11:39:57Z</time>
      </trkpt>
      <trkpt lat="45.88071" lon="5.63673">
        <ele>905.6</ele>
        <time>2026-05-12T11:39:58Z</time>
      </trkpt>
      <trkpt lat="45.88069" lon="5.63673">
        <ele>905.8</ele>
        <time>2026-05-12T11:39:59Z</time>
      </trkpt>
      <trkpt lat="45.88068" lon="5.63672">
        <ele>905.8</ele>
        <time>2026-05-12T11:40:00Z</time>
      </trkpt>
      <trkpt lat="45.88067" lon="5.63672">
        <ele>906.2</ele>
        <time>2026-05-12T11:40:01Z</time>
      </trkpt>
      <trkpt lat="45.88065" lon="5.63671">
        <ele>906.2</ele>
        <time>2026-05-12T11:40:02Z</time>
      </trkpt>
      <trkpt lat="45.88063" lon="5.63671">
        <ele>906.2</ele>
        <time>2026-05-12T11:40:03Z</time>
      </trkpt>
      <trkpt lat="45.88062" lon="5.6367">
        <ele>906.2</ele>
        <time>2026-05-12T11:40:04Z</time>
      </trkpt>
      <trkpt lat="45.8806" lon="5.63669">
        <ele>906.4</ele>
        <time>2026-05-12T11:40:05Z</time>
      </trkpt>
      <trkpt lat="45.88059" lon="5.63669">
        <ele>906.4</ele>
        <time>2026-05-12T11:40:06Z</time>
      </trkpt>
      <trkpt lat="45.88058" lon="5.63668">
        <ele>906.8</ele>
        <time>2026-05-12T11:40:07Z</time>
      </trkpt>
      <trkpt lat="45.88056" lon="5.63667">
        <ele>906.8</ele>
        <time>2026-05-12T11:40:08Z</time>
      </trkpt>
      <trkpt lat="45.88056" lon="5.63667">
        <ele>907</ele>
        <time>2026-05-12T11:40:09Z</time>
      </trkpt>
      <trkpt lat="45.88054" lon="5.63666">
        <ele>907</ele>
        <time>2026-05-12T11:40:10Z</time>
      </trkpt>
      <trkpt lat="45.88052" lon="5.63666">
        <ele>907</ele>
        <time>2026-05-12T11:40:11Z</time>
      </trkpt>
      <trkpt lat="45.88051" lon="5.63665">
        <ele>907</ele>
        <time>2026-05-12T11:40:12Z</time>
      </trkpt>
      <trkpt lat="45.88049" lon="5.63664">
        <ele>907.4</ele>
        <time>2026-05-12T11:40:13Z</time>
      </trkpt>
      <trkpt lat="45.88047" lon="5.63663">
        <ele>907.4</ele>
        <time>2026-05-12T11:40:14Z</time>
      </trkpt>
      <trkpt lat="45.88045" lon="5.63663">
        <ele>907.8</ele>
        <time>2026-05-12T11:40:15Z</time>
      </trkpt>
      <trkpt lat="45.88044" lon="5.63662">
        <ele>907.8</ele>
        <time>2026-05-12T11:40:16Z</time>
      </trkpt>
      <trkpt lat="45.88044" lon="5.63662">
        <ele>908</ele>
        <time>2026-05-12T11:40:17Z</time>
      </trkpt>
      <trkpt lat="45.88042" lon="5.63661">
        <ele>908</ele>
        <time>2026-05-12T11:40:18Z</time>
      </trkpt>
      <trkpt lat="45.88041" lon="5.63661">
        <ele>908.4</ele>
        <time>2026-05-12T11:40:19Z</time>
      </trkpt>
      <trkpt lat="45.8804" lon="5.6366">
        <ele>908.6</ele>
        <time>2026-05-12T11:40:20Z</time>
      </trkpt>
      <trkpt lat="45.88039" lon="5.63659">
        <ele>908.6</ele>
        <time>2026-05-12T11:40:21Z</time>
      </trkpt>
      <trkpt lat="45.88039" lon="5.63658">
        <ele>908.8</ele>
        <time>2026-05-12T11:40:22Z</time>
      </trkpt>
      <trkpt lat="45.88038" lon="5.63657">
        <ele>908.8</ele>
        <time>2026-05-12T11:40:23Z</time>
      </trkpt>
      <trkpt lat="45.88038" lon="5.63657">
        <ele>909</ele>
        <time>2026-05-12T11:40:24Z</time>
      </trkpt>
      <trkpt lat="45.88036" lon="5.63657">
        <ele>909</ele>
        <time>2026-05-12T11:40:25Z</time>
      </trkpt>
      <trkpt lat="45.88035" lon="5.63657">
        <ele>909.4</ele>
        <time>2026-05-12T11:40:26Z</time>
      </trkpt>
      <trkpt lat="45.88033" lon="5.63656">
        <ele>909.4</ele>
        <time>2026-05-12T11:40:27Z</time>
      </trkpt>
      <trkpt lat="45.88031" lon="5.63655">
        <ele>909.4</ele>
        <time>2026-05-12T11:40:28Z</time>
      </trkpt>
      <trkpt lat="45.8803" lon="5.63654">
        <ele>909.8</ele>
        <time>2026-05-12T11:40:29Z</time>
      </trkpt>
      <trkpt lat="45.88029" lon="5.63653">
        <ele>909.8</ele>
        <time>2026-05-12T11:40:30Z</time>
      </trkpt>
      <trkpt lat="45.88027" lon="5.63652">
        <ele>910</ele>
        <time>2026-05-12T11:40:31Z</time>
      </trkpt>
      <trkpt lat="45.88026" lon="5.6365">
        <ele>910</ele>
        <time>2026-05-12T11:40:32Z</time>
      </trkpt>
      <trkpt lat="45.88025" lon="5.63649">
        <ele>910.4</ele>
        <time>2026-05-12T11:40:33Z</time>
      </trkpt>
      <trkpt lat="45.88024" lon="5.63648">
        <ele>910.6</ele>
        <time>2026-05-12T11:40:34Z</time>
      </trkpt>
      <trkpt lat="45.88023" lon="5.63648">
        <ele>911</ele>
        <time>2026-05-12T11:40:35Z</time>
      </trkpt>
      <trkpt lat="45.88022" lon="5.63647">
        <ele>911</ele>
        <time>2026-05-12T11:40:36Z</time>
      </trkpt>
      <trkpt lat="45.8802" lon="5.63646">
        <ele>911.2</ele>
        <time>2026-05-12T11:40:37Z</time>
      </trkpt>
      <trkpt lat="45.88018" lon="5.63645">
        <ele>911.4</ele>
        <time>2026-05-12T11:40:38Z</time>
      </trkpt>
      <trkpt lat="45.88017" lon="5.63644">
        <ele>911.6</ele>
        <time>2026-05-12T11:40:39Z</time>
      </trkpt>
      <trkpt lat="45.88015" lon="5.63643">
        <ele>911.6</ele>
        <time>2026-05-12T11:40:40Z</time>
      </trkpt>
      <trkpt lat="45.88014" lon="5.63643">
        <ele>911.8</ele>
        <time>2026-05-12T11:40:41Z</time>
      </trkpt>
      <trkpt lat="45.88013" lon="5.63642">
        <ele>911.8</ele>
        <time>2026-05-12T11:40:42Z</time>
      </trkpt>
      <trkpt lat="45.88011" lon="5.63641">
        <ele>912.2</ele>
        <time>2026-05-12T11:40:43Z</time>
      </trkpt>
      <trkpt lat="45.8801" lon="5.6364">
        <ele>912.2</ele>
        <time>2026-05-12T11:40:44Z</time>
      </trkpt>
      <trkpt lat="45.88009" lon="5.6364">
        <ele>912.6</ele>
        <time>2026-05-12T11:40:45Z</time>
      </trkpt>
      <trkpt lat="45.88009" lon="5.6364">
        <ele>912.6</ele>
        <time>2026-05-12T11:40:46Z</time>
      </trkpt>
      <trkpt lat="45.88009" lon="5.6364">
        <ele>912.8</ele>
        <time>2026-05-12T11:40:47Z</time>
      </trkpt>
      <trkpt lat="45.88004" lon="5.63636">
        <ele>912.8</ele>
        <time>2026-05-12T11:40:48Z</time>
      </trkpt>
      <trkpt lat="45.88003" lon="5.63635">
        <ele>913.2</ele>
        <time>2026-05-12T11:40:49Z</time>
      </trkpt>
      <trkpt lat="45.88003" lon="5.63634">
        <ele>913.2</ele>
        <time>2026-05-12T11:40:50Z</time>
      </trkpt>
      <trkpt lat="45.88002" lon="5.63634">
        <ele>913.2</ele>
        <time>2026-05-12T11:40:51Z</time>
      </trkpt>
      <trkpt lat="45.88001" lon="5.63634">
        <ele>913.4</ele>
        <time>2026-05-12T11:40:52Z</time>
      </trkpt>
      <trkpt lat="45.88" lon="5.63634">
        <ele>913.6</ele>
        <time>2026-05-12T11:40:53Z</time>
      </trkpt>
      <trkpt lat="45.87998" lon="5.63634">
        <ele>913.6</ele>
        <time>2026-05-12T11:40:54Z</time>
      </trkpt>
      <trkpt lat="45.87997" lon="5.63634">
        <ele>914</ele>
        <time>2026-05-12T11:40:55Z</time>
      </trkpt>
      <trkpt lat="45.87996" lon="5.63634">
        <ele>914</ele>
        <time>2026-05-12T11:40:56Z</time>
      </trkpt>
      <trkpt lat="45.87994" lon="5.63635">
        <ele>914</ele>
        <time>2026-05-12T11:40:57Z</time>
      </trkpt>
      <trkpt lat="45.87993" lon="5.63635">
        <ele>914.2</ele>
        <time>2026-05-12T11:40:58Z</time>
      </trkpt>
      <trkpt lat="45.87992" lon="5.63635">
        <ele>914.4</ele>
        <time>2026-05-12T11:40:59Z</time>
      </trkpt>
      <trkpt lat="45.8799" lon="5.63635">
        <ele>914.4</ele>
        <time>2026-05-12T11:41:00Z</time>
      </trkpt>
      <trkpt lat="45.87989" lon="5.63636">
        <ele>914.4</ele>
        <time>2026-05-12T11:41:01Z</time>
      </trkpt>
      <trkpt lat="45.87987" lon="5.63636">
        <ele>914.8</ele>
        <time>2026-05-12T11:41:02Z</time>
      </trkpt>
      <trkpt lat="45.87986" lon="5.63637">
        <ele>914.8</ele>
        <time>2026-05-12T11:41:03Z</time>
      </trkpt>
      <trkpt lat="45.87984" lon="5.63637">
        <ele>915.2</ele>
        <time>2026-05-12T11:41:04Z</time>
      </trkpt>
      <trkpt lat="45.87983" lon="5.63637">
        <ele>915.2</ele>
        <time>2026-05-12T11:41:05Z</time>
      </trkpt>
      <trkpt lat="45.87981" lon="5.63638">
        <ele>915.4</ele>
        <time>2026-05-12T11:41:06Z</time>
      </trkpt>
      <trkpt lat="45.87979" lon="5.63638">
        <ele>915.8</ele>
        <time>2026-05-12T11:41:07Z</time>
      </trkpt>
      <trkpt lat="45.87978" lon="5.63638">
        <ele>916</ele>
        <time>2026-05-12T11:41:08Z</time>
      </trkpt>
      <trkpt lat="45.87976" lon="5.63638">
        <ele>916.4</ele>
        <time>2026-05-12T11:41:09Z</time>
      </trkpt>
      <trkpt lat="45.87975" lon="5.63638">
        <ele>916.4</ele>
        <time>2026-05-12T11:41:10Z</time>
      </trkpt>
      <trkpt lat="45.87974" lon="5.63638">
        <ele>916.8</ele>
        <time>2026-05-12T11:41:11Z</time>
      </trkpt>
      <trkpt lat="45.87972" lon="5.63638">
        <ele>916.8</ele>
        <time>2026-05-12T11:41:12Z</time>
      </trkpt>
      <trkpt lat="45.87971" lon="5.63639">
        <ele>917</ele>
        <time>2026-05-12T11:41:13Z</time>
      </trkpt>
      <trkpt lat="45.8797" lon="5.63639">
        <ele>917</ele>
        <time>2026-05-12T11:41:14Z</time>
      </trkpt>
      <trkpt lat="45.87969" lon="5.6364">
        <ele>917.4</ele>
        <time>2026-05-12T11:41:15Z</time>
      </trkpt>
      <trkpt lat="45.87968" lon="5.6364">
        <ele>917.4</ele>
        <time>2026-05-12T11:41:16Z</time>
      </trkpt>
      <trkpt lat="45.87967" lon="5.63639">
        <ele>917.6</ele>
        <time>2026-05-12T11:41:17Z</time>
      </trkpt>
      <trkpt lat="45.87966" lon="5.63638">
        <ele>917.6</ele>
        <time>2026-05-12T11:41:18Z</time>
      </trkpt>
      <trkpt lat="45.87964" lon="5.63638">
        <ele>918</ele>
        <time>2026-05-12T11:41:19Z</time>
      </trkpt>
      <trkpt lat="45.87963" lon="5.63638">
        <ele>918</ele>
        <time>2026-05-12T11:41:20Z</time>
      </trkpt>
      <trkpt lat="45.87962" lon="5.63638">
        <ele>918.4</ele>
        <time>2026-05-12T11:41:21Z</time>
      </trkpt>
      <trkpt lat="45.8796" lon="5.63638">
        <ele>918.4</ele>
        <time>2026-05-12T11:41:22Z</time>
      </trkpt>
      <trkpt lat="45.87959" lon="5.63639">
        <ele>918.6</ele>
        <time>2026-05-12T11:41:23Z</time>
      </trkpt>
      <trkpt lat="45.87958" lon="5.63638">
        <ele>918.6</ele>
        <time>2026-05-12T11:41:24Z</time>
      </trkpt>
      <trkpt lat="45.87957" lon="5.63637">
        <ele>918.8</ele>
        <time>2026-05-12T11:41:25Z</time>
      </trkpt>
      <trkpt lat="45.87955" lon="5.63636">
        <ele>918.8</ele>
        <time>2026-05-12T11:41:26Z</time>
      </trkpt>
      <trkpt lat="45.87954" lon="5.63634">
        <ele>919.2</ele>
        <time>2026-05-12T11:41:27Z</time>
      </trkpt>
      <trkpt lat="45.87953" lon="5.63633">
        <ele>919.2</ele>
        <time>2026-05-12T11:41:28Z</time>
      </trkpt>
      <trkpt lat="45.87952" lon="5.63631">
        <ele>919.4</ele>
        <time>2026-05-12T11:41:29Z</time>
      </trkpt>
      <trkpt lat="45.8795" lon="5.6363">
        <ele>919.4</ele>
        <time>2026-05-12T11:41:30Z</time>
      </trkpt>
      <trkpt lat="45.87949" lon="5.6363">
        <ele>919.8</ele>
        <time>2026-05-12T11:41:31Z</time>
      </trkpt>
      <trkpt lat="45.87948" lon="5.6363">
        <ele>919.8</ele>
        <time>2026-05-12T11:41:32Z</time>
      </trkpt>
      <trkpt lat="45.87946" lon="5.6363">
        <ele>919.8</ele>
        <time>2026-05-12T11:41:33Z</time>
      </trkpt>
      <trkpt lat="45.87945" lon="5.63629">
        <ele>920</ele>
        <time>2026-05-12T11:41:34Z</time>
      </trkpt>
      <trkpt lat="45.87943" lon="5.63627">
        <ele>920</ele>
        <time>2026-05-12T11:41:35Z</time>
      </trkpt>
      <trkpt lat="45.87941" lon="5.63626">
        <ele>920</ele>
        <time>2026-05-12T11:41:36Z</time>
      </trkpt>
      <trkpt lat="45.8794" lon="5.63625">
        <ele>920</ele>
        <time>2026-05-12T11:41:37Z</time>
      </trkpt>
      <trkpt lat="45.87938" lon="5.63625">
        <ele>920.4</ele>
        <time>2026-05-12T11:41:38Z</time>
      </trkpt>
      <trkpt lat="45.87937" lon="5.63625">
        <ele>920.4</ele>
        <time>2026-05-12T11:41:39Z</time>
      </trkpt>
      <trkpt lat="45.87936" lon="5.63626">
        <ele>920.8</ele>
        <time>2026-05-12T11:41:40Z</time>
      </trkpt>
      <trkpt lat="45.87934" lon="5.63625">
        <ele>920.8</ele>
        <time>2026-05-12T11:41:41Z</time>
      </trkpt>
      <trkpt lat="45.87933" lon="5.63625">
        <ele>920.8</ele>
        <time>2026-05-12T11:41:42Z</time>
      </trkpt>
      <trkpt lat="45.87931" lon="5.63624">
        <ele>921.2</ele>
        <time>2026-05-12T11:41:43Z</time>
      </trkpt>
      <trkpt lat="45.8793" lon="5.63623">
        <ele>921.2</ele>
        <time>2026-05-12T11:41:44Z</time>
      </trkpt>
      <trkpt lat="45.87929" lon="5.63623">
        <ele>921.2</ele>
        <time>2026-05-12T11:41:45Z</time>
      </trkpt>
      <trkpt lat="45.87927" lon="5.63623">
        <ele>921.4</ele>
        <time>2026-05-12T11:41:46Z</time>
      </trkpt>
      <trkpt lat="45.87924" lon="5.63622">
        <ele>921.4</ele>
        <time>2026-05-12T11:41:47Z</time>
      </trkpt>
      <trkpt lat="45.87922" lon="5.63622">
        <ele>921.6</ele>
        <time>2026-05-12T11:41:48Z</time>
      </trkpt>
      <trkpt lat="45.87921" lon="5.63621">
        <ele>921.6</ele>
        <time>2026-05-12T11:41:49Z</time>
      </trkpt>
      <trkpt lat="45.87919" lon="5.63621">
        <ele>921.8</ele>
        <time>2026-05-12T11:41:50Z</time>
      </trkpt>
      <trkpt lat="45.87918" lon="5.6362">
        <ele>921.8</ele>
        <time>2026-05-12T11:41:51Z</time>
      </trkpt>
      <trkpt lat="45.87916" lon="5.6362">
        <ele>922.2</ele>
        <time>2026-05-12T11:41:52Z</time>
      </trkpt>
      <trkpt lat="45.87914" lon="5.6362">
        <ele>922.2</ele>
        <time>2026-05-12T11:41:53Z</time>
      </trkpt>
      <trkpt lat="45.87912" lon="5.6362">
        <ele>922.6</ele>
        <time>2026-05-12T11:41:54Z</time>
      </trkpt>
      <trkpt lat="45.8791" lon="5.6362">
        <ele>922.6</ele>
        <time>2026-05-12T11:41:55Z</time>
      </trkpt>
      <trkpt lat="45.87909" lon="5.6362">
        <ele>922.8</ele>
        <time>2026-05-12T11:41:56Z</time>
      </trkpt>
      <trkpt lat="45.87907" lon="5.6362">
        <ele>922.8</ele>
        <time>2026-05-12T11:41:57Z</time>
      </trkpt>
      <trkpt lat="45.87906" lon="5.6362">
        <ele>922.8</ele>
        <time>2026-05-12T11:41:58Z</time>
      </trkpt>
      <trkpt lat="45.87904" lon="5.6362">
        <ele>923</ele>
        <time>2026-05-12T11:41:59Z</time>
      </trkpt>
      <trkpt lat="45.87903" lon="5.6362">
        <ele>923</ele>
        <time>2026-05-12T11:42:00Z</time>
      </trkpt>
      <trkpt lat="45.87901" lon="5.6362">
        <ele>923</ele>
        <time>2026-05-12T11:42:01Z</time>
      </trkpt>
      <trkpt lat="45.879" lon="5.63621">
        <ele>923.2</ele>
        <time>2026-05-12T11:42:02Z</time>
      </trkpt>
      <trkpt lat="45.87899" lon="5.63621">
        <ele>923.2</ele>
        <time>2026-05-12T11:42:03Z</time>
      </trkpt>
      <trkpt lat="45.87898" lon="5.63622">
        <ele>923.4</ele>
        <time>2026-05-12T11:42:04Z</time>
      </trkpt>
      <trkpt lat="45.87896" lon="5.63622">
        <ele>923.4</ele>
        <time>2026-05-12T11:42:05Z</time>
      </trkpt>
      <trkpt lat="45.87895" lon="5.63623">
        <ele>923.4</ele>
        <time>2026-05-12T11:42:06Z</time>
      </trkpt>
      <trkpt lat="45.87893" lon="5.63624">
        <ele>923.4</ele>
        <time>2026-05-12T11:42:07Z</time>
      </trkpt>
      <trkpt lat="45.87891" lon="5.63624">
        <ele>923.4</ele>
        <time>2026-05-12T11:42:08Z</time>
      </trkpt>
      <trkpt lat="45.87889" lon="5.63625">
        <ele>923.8</ele>
        <time>2026-05-12T11:42:09Z</time>
      </trkpt>
      <trkpt lat="45.87888" lon="5.63625">
        <ele>923.8</ele>
        <time>2026-05-12T11:42:10Z</time>
      </trkpt>
      <trkpt lat="45.87886" lon="5.63626">
        <ele>923.8</ele>
        <time>2026-05-12T11:42:11Z</time>
      </trkpt>
      <trkpt lat="45.87886" lon="5.63626">
        <ele>924</ele>
        <time>2026-05-12T11:42:12Z</time>
      </trkpt>
      <trkpt lat="45.87885" lon="5.63626">
        <ele>924</ele>
        <time>2026-05-12T11:42:13Z</time>
      </trkpt>
      <trkpt lat="45.87884" lon="5.63627">
        <ele>924.2</ele>
        <time>2026-05-12T11:42:14Z</time>
      </trkpt>
      <trkpt lat="45.87882" lon="5.63627">
        <ele>924.4</ele>
        <time>2026-05-12T11:42:15Z</time>
      </trkpt>
      <trkpt lat="45.87881" lon="5.63628">
        <ele>924.4</ele>
        <time>2026-05-12T11:42:16Z</time>
      </trkpt>
      <trkpt lat="45.8788" lon="5.63628">
        <ele>924.4</ele>
        <time>2026-05-12T11:42:17Z</time>
      </trkpt>
      <trkpt lat="45.87879" lon="5.63628">
        <ele>924.6</ele>
        <time>2026-05-12T11:42:18Z</time>
      </trkpt>
      <trkpt lat="45.87878" lon="5.63629">
        <ele>924.8</ele>
        <time>2026-05-12T11:42:19Z</time>
      </trkpt>
      <trkpt lat="45.87877" lon="5.63629">
        <ele>924.8</ele>
        <time>2026-05-12T11:42:20Z</time>
      </trkpt>
      <trkpt lat="45.87876" lon="5.6363">
        <ele>925.2</ele>
        <time>2026-05-12T11:42:21Z</time>
      </trkpt>
      <trkpt lat="45.87875" lon="5.63632">
        <ele>925.6</ele>
        <time>2026-05-12T11:42:22Z</time>
      </trkpt>
      <trkpt lat="45.87874" lon="5.63633">
        <ele>925.6</ele>
        <time>2026-05-12T11:42:23Z</time>
      </trkpt>
      <trkpt lat="45.87873" lon="5.63634">
        <ele>925.8</ele>
        <time>2026-05-12T11:42:24Z</time>
      </trkpt>
      <trkpt lat="45.8787" lon="5.63636">
        <ele>926</ele>
        <time>2026-05-12T11:42:25Z</time>
      </trkpt>
      <trkpt lat="45.87869" lon="5.63637">
        <ele>926</ele>
        <time>2026-05-12T11:42:26Z</time>
      </trkpt>
      <trkpt lat="45.87868" lon="5.63638">
        <ele>926.2</ele>
        <time>2026-05-12T11:42:27Z</time>
      </trkpt>
      <trkpt lat="45.87868" lon="5.63639">
        <ele>926.2</ele>
        <time>2026-05-12T11:42:28Z</time>
      </trkpt>
      <trkpt lat="45.87867" lon="5.63641">
        <ele>926.2</ele>
        <time>2026-05-12T11:42:29Z</time>
      </trkpt>
      <trkpt lat="45.87866" lon="5.63642">
        <ele>926.6</ele>
        <time>2026-05-12T11:42:30Z</time>
      </trkpt>
      <trkpt lat="45.87864" lon="5.63642">
        <ele>926.6</ele>
        <time>2026-05-12T11:42:31Z</time>
      </trkpt>
      <trkpt lat="45.87862" lon="5.63642">
        <ele>926.8</ele>
        <time>2026-05-12T11:42:32Z</time>
      </trkpt>
      <trkpt lat="45.87861" lon="5.63643">
        <ele>926.8</ele>
        <time>2026-05-12T11:42:33Z</time>
      </trkpt>
      <trkpt lat="45.87859" lon="5.63644">
        <ele>927</ele>
        <time>2026-05-12T11:42:34Z</time>
      </trkpt>
      <trkpt lat="45.87858" lon="5.63646">
        <ele>927</ele>
        <time>2026-05-12T11:42:35Z</time>
      </trkpt>
      <trkpt lat="45.87857" lon="5.63647">
        <ele>927</ele>
        <time>2026-05-12T11:42:36Z</time>
      </trkpt>
      <trkpt lat="45.87855" lon="5.63648">
        <ele>927</ele>
        <time>2026-05-12T11:42:37Z</time>
      </trkpt>
      <trkpt lat="45.87854" lon="5.6365">
        <ele>927.2</ele>
        <time>2026-05-12T11:42:38Z</time>
      </trkpt>
      <trkpt lat="45.87853" lon="5.63651">
        <ele>927.2</ele>
        <time>2026-05-12T11:42:39Z</time>
      </trkpt>
      <trkpt lat="45.87851" lon="5.63652">
        <ele>927.2</ele>
        <time>2026-05-12T11:42:40Z</time>
      </trkpt>
      <trkpt lat="45.8785" lon="5.63653">
        <ele>927.6</ele>
        <time>2026-05-12T11:42:41Z</time>
      </trkpt>
      <trkpt lat="45.87847" lon="5.63654">
        <ele>927.6</ele>
        <time>2026-05-12T11:42:42Z</time>
      </trkpt>
      <trkpt lat="45.87846" lon="5.63655">
        <ele>927.6</ele>
        <time>2026-05-12T11:42:43Z</time>
      </trkpt>
      <trkpt lat="45.87845" lon="5.63655">
        <ele>927.8</ele>
        <time>2026-05-12T11:42:44Z</time>
      </trkpt>
      <trkpt lat="45.87843" lon="5.63656">
        <ele>927.8</ele>
        <time>2026-05-12T11:42:45Z</time>
      </trkpt>
      <trkpt lat="45.87842" lon="5.63657">
        <ele>928.2</ele>
        <time>2026-05-12T11:42:46Z</time>
      </trkpt>
      <trkpt lat="45.87841" lon="5.63657">
        <ele>928.2</ele>
        <time>2026-05-12T11:42:47Z</time>
      </trkpt>
      <trkpt lat="45.87839" lon="5.63658">
        <ele>928.2</ele>
        <time>2026-05-12T11:42:48Z</time>
      </trkpt>
      <trkpt lat="45.87838" lon="5.63658">
        <ele>928.2</ele>
        <time>2026-05-12T11:42:49Z</time>
      </trkpt>
      <trkpt lat="45.87837" lon="5.63658">
        <ele>928.4</ele>
        <time>2026-05-12T11:42:50Z</time>
      </trkpt>
      <trkpt lat="45.87836" lon="5.63659">
        <ele>928.4</ele>
        <time>2026-05-12T11:42:51Z</time>
      </trkpt>
      <trkpt lat="45.87834" lon="5.6366">
        <ele>928.8</ele>
        <time>2026-05-12T11:42:52Z</time>
      </trkpt>
      <trkpt lat="45.87833" lon="5.6366">
        <ele>928.8</ele>
        <time>2026-05-12T11:42:53Z</time>
      </trkpt>
      <trkpt lat="45.87832" lon="5.63661">
        <ele>929</ele>
        <time>2026-05-12T11:42:54Z</time>
      </trkpt>
      <trkpt lat="45.87831" lon="5.6366">
        <ele>929</ele>
        <time>2026-05-12T11:42:55Z</time>
      </trkpt>
      <trkpt lat="45.87829" lon="5.6366">
        <ele>929</ele>
        <time>2026-05-12T11:42:56Z</time>
      </trkpt>
      <trkpt lat="45.87828" lon="5.63661">
        <ele>929.2</ele>
        <time>2026-05-12T11:42:57Z</time>
      </trkpt>
      <trkpt lat="45.87826" lon="5.63661">
        <ele>929.2</ele>
        <time>2026-05-12T11:42:58Z</time>
      </trkpt>
      <trkpt lat="45.87825" lon="5.63661">
        <ele>929.6</ele>
        <time>2026-05-12T11:42:59Z</time>
      </trkpt>
      <trkpt lat="45.87823" lon="5.63661">
        <ele>929.6</ele>
        <time>2026-05-12T11:43:00Z</time>
      </trkpt>
      <trkpt lat="45.87822" lon="5.63661">
        <ele>929.8</ele>
        <time>2026-05-12T11:43:01Z</time>
      </trkpt>
      <trkpt lat="45.8782" lon="5.63662">
        <ele>929.8</ele>
        <time>2026-05-12T11:43:02Z</time>
      </trkpt>
      <trkpt lat="45.87819" lon="5.63662">
        <ele>929.8</ele>
        <time>2026-05-12T11:43:03Z</time>
      </trkpt>
      <trkpt lat="45.87817" lon="5.63662">
        <ele>930.2</ele>
        <time>2026-05-12T11:43:04Z</time>
      </trkpt>
      <trkpt lat="45.87815" lon="5.63662">
        <ele>930.2</ele>
        <time>2026-05-12T11:43:05Z</time>
      </trkpt>
      <trkpt lat="45.87814" lon="5.63662">
        <ele>930.2</ele>
        <time>2026-05-12T11:43:06Z</time>
      </trkpt>
      <trkpt lat="45.87813" lon="5.63663">
        <ele>930.2</ele>
        <time>2026-05-12T11:43:07Z</time>
      </trkpt>
      <trkpt lat="45.87811" lon="5.63664">
        <ele>930.2</ele>
        <time>2026-05-12T11:43:08Z</time>
      </trkpt>
      <trkpt lat="45.87809" lon="5.63665">
        <ele>930.4</ele>
        <time>2026-05-12T11:43:09Z</time>
      </trkpt>
      <trkpt lat="45.87807" lon="5.63665">
        <ele>930.4</ele>
        <time>2026-05-12T11:43:10Z</time>
      </trkpt>
      <trkpt lat="45.87805" lon="5.63666">
        <ele>930.6</ele>
        <time>2026-05-12T11:43:11Z</time>
      </trkpt>
      <trkpt lat="45.87803" lon="5.63667">
        <ele>930.6</ele>
        <time>2026-05-12T11:43:12Z</time>
      </trkpt>
      <trkpt lat="45.87802" lon="5.63669">
        <ele>931</ele>
        <time>2026-05-12T11:43:13Z</time>
      </trkpt>
      <trkpt lat="45.87801" lon="5.6367">
        <ele>931</ele>
        <time>2026-05-12T11:43:14Z</time>
      </trkpt>
      <trkpt lat="45.878" lon="5.6367">
        <ele>931</ele>
        <time>2026-05-12T11:43:15Z</time>
      </trkpt>
      <trkpt lat="45.87799" lon="5.63672">
        <ele>931.4</ele>
        <time>2026-05-12T11:43:16Z</time>
      </trkpt>
      <trkpt lat="45.87798" lon="5.63673">
        <ele>931.4</ele>
        <time>2026-05-12T11:43:17Z</time>
      </trkpt>
      <trkpt lat="45.87797" lon="5.63674">
        <ele>931.6</ele>
        <time>2026-05-12T11:43:18Z</time>
      </trkpt>
      <trkpt lat="45.87796" lon="5.63675">
        <ele>931.6</ele>
        <time>2026-05-12T11:43:19Z</time>
      </trkpt>
      <trkpt lat="45.87794" lon="5.63676">
        <ele>931.8</ele>
        <time>2026-05-12T11:43:20Z</time>
      </trkpt>
      <trkpt lat="45.87793" lon="5.63678">
        <ele>931.8</ele>
        <time>2026-05-12T11:43:21Z</time>
      </trkpt>
      <trkpt lat="45.87791" lon="5.63679">
        <ele>931.8</ele>
        <time>2026-05-12T11:43:22Z</time>
      </trkpt>
      <trkpt lat="45.8779" lon="5.6368">
        <ele>932.2</ele>
        <time>2026-05-12T11:43:23Z</time>
      </trkpt>
      <trkpt lat="45.87788" lon="5.63681">
        <ele>932.2</ele>
        <time>2026-05-12T11:43:24Z</time>
      </trkpt>
      <trkpt lat="45.87787" lon="5.63682">
        <ele>932.4</ele>
        <time>2026-05-12T11:43:25Z</time>
      </trkpt>
      <trkpt lat="45.87786" lon="5.63683">
        <ele>932.4</ele>
        <time>2026-05-12T11:43:26Z</time>
      </trkpt>
      <trkpt lat="45.87784" lon="5.63684">
        <ele>932.4</ele>
        <time>2026-05-12T11:43:27Z</time>
      </trkpt>
      <trkpt lat="45.87781" lon="5.63685">
        <ele>932.6</ele>
        <time>2026-05-12T11:43:28Z</time>
      </trkpt>
      <trkpt lat="45.8778" lon="5.63686">
        <ele>932.6</ele>
        <time>2026-05-12T11:43:29Z</time>
      </trkpt>
      <trkpt lat="45.87778" lon="5.63687">
        <ele>933</ele>
        <time>2026-05-12T11:43:30Z</time>
      </trkpt>
      <trkpt lat="45.87777" lon="5.63688">
        <ele>933</ele>
        <time>2026-05-12T11:43:31Z</time>
      </trkpt>
      <trkpt lat="45.87775" lon="5.63689">
        <ele>933</ele>
        <time>2026-05-12T11:43:32Z</time>
      </trkpt>
      <trkpt lat="45.87774" lon="5.6369">
        <ele>933.2</ele>
        <time>2026-05-12T11:43:33Z</time>
      </trkpt>
      <trkpt lat="45.87772" lon="5.63691">
        <ele>933.4</ele>
        <time>2026-05-12T11:43:34Z</time>
      </trkpt>
      <trkpt lat="45.87771" lon="5.63692">
        <ele>933.4</ele>
        <time>2026-05-12T11:43:35Z</time>
      </trkpt>
      <trkpt lat="45.87769" lon="5.63693">
        <ele>933.4</ele>
        <time>2026-05-12T11:43:36Z</time>
      </trkpt>
      <trkpt lat="45.87768" lon="5.63694">
        <ele>933.8</ele>
        <time>2026-05-12T11:43:37Z</time>
      </trkpt>
      <trkpt lat="45.87766" lon="5.63694">
        <ele>933.8</ele>
        <time>2026-05-12T11:43:38Z</time>
      </trkpt>
      <trkpt lat="45.87764" lon="5.63695">
        <ele>933.8</ele>
        <time>2026-05-12T11:43:39Z</time>
      </trkpt>
      <trkpt lat="45.87761" lon="5.63696">
        <ele>933.8</ele>
        <time>2026-05-12T11:43:40Z</time>
      </trkpt>
      <trkpt lat="45.87759" lon="5.63697">
        <ele>934.2</ele>
        <time>2026-05-12T11:43:41Z</time>
      </trkpt>
      <trkpt lat="45.87757" lon="5.63698">
        <ele>934.2</ele>
        <time>2026-05-12T11:43:42Z</time>
      </trkpt>
      <trkpt lat="45.87755" lon="5.63699">
        <ele>934.2</ele>
        <time>2026-05-12T11:43:43Z</time>
      </trkpt>
      <trkpt lat="45.87752" lon="5.63699">
        <ele>934.4</ele>
        <time>2026-05-12T11:43:44Z</time>
      </trkpt>
      <trkpt lat="45.8775" lon="5.63698">
        <ele>934.4</ele>
        <time>2026-05-12T11:43:45Z</time>
      </trkpt>
      <trkpt lat="45.87749" lon="5.63698">
        <ele>934.2</ele>
        <time>2026-05-12T11:43:46Z</time>
      </trkpt>
      <trkpt lat="45.87747" lon="5.63698">
        <ele>934.6</ele>
        <time>2026-05-12T11:43:47Z</time>
      </trkpt>
      <trkpt lat="45.87746" lon="5.63698">
        <ele>934.6</ele>
        <time>2026-05-12T11:43:48Z</time>
      </trkpt>
      <trkpt lat="45.87745" lon="5.63698">
        <ele>934.6</ele>
        <time>2026-05-12T11:43:49Z</time>
      </trkpt>
      <trkpt lat="45.87743" lon="5.63699">
        <ele>934.6</ele>
        <time>2026-05-12T11:43:50Z</time>
      </trkpt>
      <trkpt lat="45.87741" lon="5.637">
        <ele>934.6</ele>
        <time>2026-05-12T11:43:51Z</time>
      </trkpt>
      <trkpt lat="45.87739" lon="5.63701">
        <ele>934.2</ele>
        <time>2026-05-12T11:43:52Z</time>
      </trkpt>
      <trkpt lat="45.87737" lon="5.63702">
        <ele>935</ele>
        <time>2026-05-12T11:43:53Z</time>
      </trkpt>
      <trkpt lat="45.87736" lon="5.63703">
        <ele>935</ele>
        <time>2026-05-12T11:43:54Z</time>
      </trkpt>
      <trkpt lat="45.87734" lon="5.63704">
        <ele>935</ele>
        <time>2026-05-12T11:43:55Z</time>
      </trkpt>
      <trkpt lat="45.87732" lon="5.63704">
        <ele>935</ele>
        <time>2026-05-12T11:43:56Z</time>
      </trkpt>
      <trkpt lat="45.8773" lon="5.63705">
        <ele>934.6</ele>
        <time>2026-05-12T11:43:57Z</time>
      </trkpt>
      <trkpt lat="45.87729" lon="5.63705">
        <ele>934.6</ele>
        <time>2026-05-12T11:43:58Z</time>
      </trkpt>
      <trkpt lat="45.87727" lon="5.63705">
        <ele>934.6</ele>
        <time>2026-05-12T11:43:59Z</time>
      </trkpt>
      <trkpt lat="45.87726" lon="5.63705">
        <ele>934.6</ele>
        <time>2026-05-12T11:44:00Z</time>
      </trkpt>
      <trkpt lat="45.87724" lon="5.63704">
        <ele>934.6</ele>
        <time>2026-05-12T11:44:01Z</time>
      </trkpt>
      <trkpt lat="45.87723" lon="5.63704">
        <ele>934.8</ele>
        <time>2026-05-12T11:44:02Z</time>
      </trkpt>
      <trkpt lat="45.87721" lon="5.63703">
        <ele>934.8</ele>
        <time>2026-05-12T11:44:03Z</time>
      </trkpt>
      <trkpt lat="45.87719" lon="5.63703">
        <ele>934.8</ele>
        <time>2026-05-12T11:44:04Z</time>
      </trkpt>
      <trkpt lat="45.87718" lon="5.63702">
        <ele>934.8</ele>
        <time>2026-05-12T11:44:05Z</time>
      </trkpt>
      <trkpt lat="45.87716" lon="5.63702">
        <ele>934.8</ele>
        <time>2026-05-12T11:44:06Z</time>
      </trkpt>
      <trkpt lat="45.87715" lon="5.63702">
        <ele>934.8</ele>
        <time>2026-05-12T11:44:07Z</time>
      </trkpt>
      <trkpt lat="45.87713" lon="5.63702">
        <ele>935.2</ele>
        <time>2026-05-12T11:44:08Z</time>
      </trkpt>
      <trkpt lat="45.87711" lon="5.63702">
        <ele>935.2</ele>
        <time>2026-05-12T11:44:09Z</time>
      </trkpt>
      <trkpt lat="45.87708" lon="5.63703">
        <ele>935.2</ele>
        <time>2026-05-12T11:44:10Z</time>
      </trkpt>
      <trkpt lat="45.87707" lon="5.63703">
        <ele>935.4</ele>
        <time>2026-05-12T11:44:11Z</time>
      </trkpt>
      <trkpt lat="45.87706" lon="5.63703">
        <ele>935.4</ele>
        <time>2026-05-12T11:44:12Z</time>
      </trkpt>
      <trkpt lat="45.87705" lon="5.63702">
        <ele>935.8</ele>
        <time>2026-05-12T11:44:13Z</time>
      </trkpt>
      <trkpt lat="45.87703" lon="5.63702">
        <ele>935.8</ele>
        <time>2026-05-12T11:44:14Z</time>
      </trkpt>
      <trkpt lat="45.87702" lon="5.63702">
        <ele>935.8</ele>
        <time>2026-05-12T11:44:15Z</time>
      </trkpt>
      <trkpt lat="45.87701" lon="5.63702">
        <ele>936</ele>
        <time>2026-05-12T11:44:16Z</time>
      </trkpt>
      <trkpt lat="45.87701" lon="5.63702">
        <ele>936</ele>
        <time>2026-05-12T11:44:17Z</time>
      </trkpt>
      <trkpt lat="45.87699" lon="5.63702">
        <ele>936</ele>
        <time>2026-05-12T11:44:18Z</time>
      </trkpt>
      <trkpt lat="45.87698" lon="5.63703">
        <ele>936.2</ele>
        <time>2026-05-12T11:44:19Z</time>
      </trkpt>
      <trkpt lat="45.87698" lon="5.63703">
        <ele>936.4</ele>
        <time>2026-05-12T11:44:20Z</time>
      </trkpt>
      <trkpt lat="45.87697" lon="5.63702">
        <ele>936.4</ele>
        <time>2026-05-12T11:44:21Z</time>
      </trkpt>
      <trkpt lat="45.87695" lon="5.63702">
        <ele>936.4</ele>
        <time>2026-05-12T11:44:22Z</time>
      </trkpt>
      <trkpt lat="45.87694" lon="5.63701">
        <ele>936.4</ele>
        <time>2026-05-12T11:44:23Z</time>
      </trkpt>
      <trkpt lat="45.87693" lon="5.63701">
        <ele>936.8</ele>
        <time>2026-05-12T11:44:24Z</time>
      </trkpt>
      <trkpt lat="45.87691" lon="5.63701">
        <ele>936.8</ele>
        <time>2026-05-12T11:44:25Z</time>
      </trkpt>
      <trkpt lat="45.87689" lon="5.63701">
        <ele>937</ele>
        <time>2026-05-12T11:44:26Z</time>
      </trkpt>
      <trkpt lat="45.87687" lon="5.63701">
        <ele>937.2</ele>
        <time>2026-05-12T11:44:27Z</time>
      </trkpt>
      <trkpt lat="45.87685" lon="5.63701">
        <ele>937.2</ele>
        <time>2026-05-12T11:44:28Z</time>
      </trkpt>
      <trkpt lat="45.87684" lon="5.63702">
        <ele>937.2</ele>
        <time>2026-05-12T11:44:29Z</time>
      </trkpt>
      <trkpt lat="45.87682" lon="5.63703">
        <ele>937.4</ele>
        <time>2026-05-12T11:44:30Z</time>
      </trkpt>
      <trkpt lat="45.8768" lon="5.63704">
        <ele>937.4</ele>
        <time>2026-05-12T11:44:31Z</time>
      </trkpt>
      <trkpt lat="45.87679" lon="5.63704">
        <ele>937.4</ele>
        <time>2026-05-12T11:44:32Z</time>
      </trkpt>
      <trkpt lat="45.87677" lon="5.63705">
        <ele>937.8</ele>
        <time>2026-05-12T11:44:33Z</time>
      </trkpt>
      <trkpt lat="45.87675" lon="5.63705">
        <ele>937.8</ele>
        <time>2026-05-12T11:44:34Z</time>
      </trkpt>
      <trkpt lat="45.87674" lon="5.63706">
        <ele>937.8</ele>
        <time>2026-05-12T11:44:35Z</time>
      </trkpt>
      <trkpt lat="45.87673" lon="5.63706">
        <ele>938</ele>
        <time>2026-05-12T11:44:36Z</time>
      </trkpt>
      <trkpt lat="45.87671" lon="5.63708">
        <ele>938.2</ele>
        <time>2026-05-12T11:44:37Z</time>
      </trkpt>
      <trkpt lat="45.87669" lon="5.63709">
        <ele>938.2</ele>
        <time>2026-05-12T11:44:38Z</time>
      </trkpt>
      <trkpt lat="45.87668" lon="5.63711">
        <ele>938.6</ele>
        <time>2026-05-12T11:44:39Z</time>
      </trkpt>
      <trkpt lat="45.87667" lon="5.63712">
        <ele>938.6</ele>
        <time>2026-05-12T11:44:40Z</time>
      </trkpt>
      <trkpt lat="45.87665" lon="5.63712">
        <ele>938.8</ele>
        <time>2026-05-12T11:44:41Z</time>
      </trkpt>
      <trkpt lat="45.87664" lon="5.63713">
        <ele>938.8</ele>
        <time>2026-05-12T11:44:42Z</time>
      </trkpt>
      <trkpt lat="45.87662" lon="5.63715">
        <ele>938.8</ele>
        <time>2026-05-12T11:44:43Z</time>
      </trkpt>
      <trkpt lat="45.87661" lon="5.63716">
        <ele>938.8</ele>
        <time>2026-05-12T11:44:44Z</time>
      </trkpt>
      <trkpt lat="45.8766" lon="5.63716">
        <ele>939</ele>
        <time>2026-05-12T11:44:45Z</time>
      </trkpt>
      <trkpt lat="45.87659" lon="5.63717">
        <ele>939</ele>
        <time>2026-05-12T11:44:46Z</time>
      </trkpt>
      <trkpt lat="45.87657" lon="5.63719">
        <ele>939.4</ele>
        <time>2026-05-12T11:44:47Z</time>
      </trkpt>
      <trkpt lat="45.87655" lon="5.63719">
        <ele>939.4</ele>
        <time>2026-05-12T11:44:48Z</time>
      </trkpt>
      <trkpt lat="45.87654" lon="5.63719">
        <ele>939.8</ele>
        <time>2026-05-12T11:44:49Z</time>
      </trkpt>
      <trkpt lat="45.87653" lon="5.63719">
        <ele>940</ele>
        <time>2026-05-12T11:44:50Z</time>
      </trkpt>
      <trkpt lat="45.87651" lon="5.6372">
        <ele>940</ele>
        <time>2026-05-12T11:44:51Z</time>
      </trkpt>
      <trkpt lat="45.87648" lon="5.63723">
        <ele>940.2</ele>
        <time>2026-05-12T11:44:52Z</time>
      </trkpt>
      <trkpt lat="45.87646" lon="5.63724">
        <ele>940.2</ele>
        <time>2026-05-12T11:44:53Z</time>
      </trkpt>
      <trkpt lat="45.87645" lon="5.63724">
        <ele>940.2</ele>
        <time>2026-05-12T11:44:54Z</time>
      </trkpt>
      <trkpt lat="45.87644" lon="5.63725">
        <ele>940.6</ele>
        <time>2026-05-12T11:44:55Z</time>
      </trkpt>
      <trkpt lat="45.87643" lon="5.63725">
        <ele>940.6</ele>
        <time>2026-05-12T11:44:56Z</time>
      </trkpt>
      <trkpt lat="45.87641" lon="5.63726">
        <ele>940.8</ele>
        <time>2026-05-12T11:44:57Z</time>
      </trkpt>
      <trkpt lat="45.8764" lon="5.63727">
        <ele>941</ele>
        <time>2026-05-12T11:44:58Z</time>
      </trkpt>
      <trkpt lat="45.87638" lon="5.63727">
        <ele>941</ele>
        <time>2026-05-12T11:44:59Z</time>
      </trkpt>
      <trkpt lat="45.87636" lon="5.63728">
        <ele>941.4</ele>
        <time>2026-05-12T11:45:00Z</time>
      </trkpt>
      <trkpt lat="45.87634" lon="5.63728">
        <ele>941.4</ele>
        <time>2026-05-12T11:45:01Z</time>
      </trkpt>
      <trkpt lat="45.87633" lon="5.63727">
        <ele>941.6</ele>
        <time>2026-05-12T11:45:02Z</time>
      </trkpt>
      <trkpt lat="45.87631" lon="5.63727">
        <ele>941.6</ele>
        <time>2026-05-12T11:45:03Z</time>
      </trkpt>
      <trkpt lat="45.8763" lon="5.63726">
        <ele>941.8</ele>
        <time>2026-05-12T11:45:04Z</time>
      </trkpt>
      <trkpt lat="45.87628" lon="5.63726">
        <ele>941.8</ele>
        <time>2026-05-12T11:45:05Z</time>
      </trkpt>
      <trkpt lat="45.87626" lon="5.63726">
        <ele>942.2</ele>
        <time>2026-05-12T11:45:06Z</time>
      </trkpt>
      <trkpt lat="45.87624" lon="5.63726">
        <ele>942.4</ele>
        <time>2026-05-12T11:45:07Z</time>
      </trkpt>
      <trkpt lat="45.87622" lon="5.63725">
        <ele>942.4</ele>
        <time>2026-05-12T11:45:08Z</time>
      </trkpt>
      <trkpt lat="45.87621" lon="5.63726">
        <ele>942.4</ele>
        <time>2026-05-12T11:45:09Z</time>
      </trkpt>
      <trkpt lat="45.87619" lon="5.63726">
        <ele>942.8</ele>
        <time>2026-05-12T11:45:10Z</time>
      </trkpt>
      <trkpt lat="45.87617" lon="5.63727">
        <ele>942.8</ele>
        <time>2026-05-12T11:45:11Z</time>
      </trkpt>
      <trkpt lat="45.87615" lon="5.63727">
        <ele>943.2</ele>
        <time>2026-05-12T11:45:12Z</time>
      </trkpt>
      <trkpt lat="45.87614" lon="5.63728">
        <ele>943.2</ele>
        <time>2026-05-12T11:45:13Z</time>
      </trkpt>
      <trkpt lat="45.87612" lon="5.63728">
        <ele>943.4</ele>
        <time>2026-05-12T11:45:14Z</time>
      </trkpt>
      <trkpt lat="45.8761" lon="5.63729">
        <ele>943.4</ele>
        <time>2026-05-12T11:45:15Z</time>
      </trkpt>
      <trkpt lat="45.87609" lon="5.6373">
        <ele>943.8</ele>
        <time>2026-05-12T11:45:16Z</time>
      </trkpt>
      <trkpt lat="45.87607" lon="5.63731">
        <ele>943.8</ele>
        <time>2026-05-12T11:45:17Z</time>
      </trkpt>
      <trkpt lat="45.87605" lon="5.63732">
        <ele>943.8</ele>
        <time>2026-05-12T11:45:18Z</time>
      </trkpt>
      <trkpt lat="45.87604" lon="5.63732">
        <ele>944</ele>
        <time>2026-05-12T11:45:19Z</time>
      </trkpt>
      <trkpt lat="45.87602" lon="5.63733">
        <ele>944</ele>
        <time>2026-05-12T11:45:20Z</time>
      </trkpt>
      <trkpt lat="45.876" lon="5.63734">
        <ele>944.4</ele>
        <time>2026-05-12T11:45:21Z</time>
      </trkpt>
      <trkpt lat="45.876" lon="5.63734">
        <ele>944.4</ele>
        <time>2026-05-12T11:45:22Z</time>
      </trkpt>
      <trkpt lat="45.87599" lon="5.63735">
        <ele>945</ele>
        <time>2026-05-12T11:45:23Z</time>
      </trkpt>
      <trkpt lat="45.87597" lon="5.63735">
        <ele>945</ele>
        <time>2026-05-12T11:45:24Z</time>
      </trkpt>
      <trkpt lat="45.87595" lon="5.63736">
        <ele>945.2</ele>
        <time>2026-05-12T11:45:25Z</time>
      </trkpt>
      <trkpt lat="45.87594" lon="5.63737">
        <ele>945.2</ele>
        <time>2026-05-12T11:45:26Z</time>
      </trkpt>
      <trkpt lat="45.87593" lon="5.63737">
        <ele>945.2</ele>
        <time>2026-05-12T11:45:27Z</time>
      </trkpt>
      <trkpt lat="45.87591" lon="5.63738">
        <ele>945.4</ele>
        <time>2026-05-12T11:45:28Z</time>
      </trkpt>
      <trkpt lat="45.8759" lon="5.63739">
        <ele>945.4</ele>
        <time>2026-05-12T11:45:29Z</time>
      </trkpt>
      <trkpt lat="45.87588" lon="5.6374">
        <ele>945.4</ele>
        <time>2026-05-12T11:45:30Z</time>
      </trkpt>
      <trkpt lat="45.87587" lon="5.63741">
        <ele>945.4</ele>
        <time>2026-05-12T11:45:31Z</time>
      </trkpt>
      <trkpt lat="45.87586" lon="5.63742">
        <ele>945.8</ele>
        <time>2026-05-12T11:45:32Z</time>
      </trkpt>
      <trkpt lat="45.87585" lon="5.63743">
        <ele>945.8</ele>
        <time>2026-05-12T11:45:33Z</time>
      </trkpt>
      <trkpt lat="45.87584" lon="5.63744">
        <ele>946</ele>
        <time>2026-05-12T11:45:34Z</time>
      </trkpt>
      <trkpt lat="45.87583" lon="5.63745">
        <ele>946</ele>
        <time>2026-05-12T11:45:35Z</time>
      </trkpt>
      <trkpt lat="45.87581" lon="5.63746">
        <ele>946</ele>
        <time>2026-05-12T11:45:36Z</time>
      </trkpt>
      <trkpt lat="45.87579" lon="5.63747">
        <ele>946.4</ele>
        <time>2026-05-12T11:45:37Z</time>
      </trkpt>
      <trkpt lat="45.87577" lon="5.63748">
        <ele>946.4</ele>
        <time>2026-05-12T11:45:38Z</time>
      </trkpt>
      <trkpt lat="45.87575" lon="5.63748">
        <ele>946.6</ele>
        <time>2026-05-12T11:45:39Z</time>
      </trkpt>
      <trkpt lat="45.87573" lon="5.63748">
        <ele>946.6</ele>
        <time>2026-05-12T11:45:40Z</time>
      </trkpt>
      <trkpt lat="45.87571" lon="5.63749">
        <ele>947</ele>
        <time>2026-05-12T11:45:41Z</time>
      </trkpt>
      <trkpt lat="45.87569" lon="5.6375">
        <ele>947</ele>
        <time>2026-05-12T11:45:42Z</time>
      </trkpt>
      <trkpt lat="45.87568" lon="5.63751">
        <ele>947.2</ele>
        <time>2026-05-12T11:45:43Z</time>
      </trkpt>
      <trkpt lat="45.87566" lon="5.63752">
        <ele>947.2</ele>
        <time>2026-05-12T11:45:44Z</time>
      </trkpt>
      <trkpt lat="45.87565" lon="5.63752">
        <ele>947.6</ele>
        <time>2026-05-12T11:45:45Z</time>
      </trkpt>
      <trkpt lat="45.87564" lon="5.63753">
        <ele>947.6</ele>
        <time>2026-05-12T11:45:46Z</time>
      </trkpt>
      <trkpt lat="45.87562" lon="5.63753">
        <ele>947.6</ele>
        <time>2026-05-12T11:45:47Z</time>
      </trkpt>
      <trkpt lat="45.8756" lon="5.63753">
        <ele>947.8</ele>
        <time>2026-05-12T11:45:48Z</time>
      </trkpt>
      <trkpt lat="45.87558" lon="5.63754">
        <ele>947.8</ele>
        <time>2026-05-12T11:45:49Z</time>
      </trkpt>
      <trkpt lat="45.87557" lon="5.63755">
        <ele>947.8</ele>
        <time>2026-05-12T11:45:50Z</time>
      </trkpt>
      <trkpt lat="45.87556" lon="5.63755">
        <ele>948.2</ele>
        <time>2026-05-12T11:45:51Z</time>
      </trkpt>
      <trkpt lat="45.87555" lon="5.63756">
        <ele>948.2</ele>
        <time>2026-05-12T11:45:52Z</time>
      </trkpt>
      <trkpt lat="45.87554" lon="5.63756">
        <ele>948.2</ele>
        <time>2026-05-12T11:45:53Z</time>
      </trkpt>
      <trkpt lat="45.87552" lon="5.63756">
        <ele>948.4</ele>
        <time>2026-05-12T11:45:54Z</time>
      </trkpt>
      <trkpt lat="45.8755" lon="5.63757">
        <ele>948.6</ele>
        <time>2026-05-12T11:45:55Z</time>
      </trkpt>
      <trkpt lat="45.87548" lon="5.63757">
        <ele>948.6</ele>
        <time>2026-05-12T11:45:56Z</time>
      </trkpt>
      <trkpt lat="45.87546" lon="5.63758">
        <ele>948.6</ele>
        <time>2026-05-12T11:45:57Z</time>
      </trkpt>
      <trkpt lat="45.87544" lon="5.63758">
        <ele>948.8</ele>
        <time>2026-05-12T11:45:58Z</time>
      </trkpt>
      <trkpt lat="45.87542" lon="5.63758">
        <ele>948.8</ele>
        <time>2026-05-12T11:45:59Z</time>
      </trkpt>
      <trkpt lat="45.87539" lon="5.63758">
        <ele>949</ele>
        <time>2026-05-12T11:46:00Z</time>
      </trkpt>
      <trkpt lat="45.87537" lon="5.63758">
        <ele>949</ele>
        <time>2026-05-12T11:46:01Z</time>
      </trkpt>
      <trkpt lat="45.87535" lon="5.63758">
        <ele>949</ele>
        <time>2026-05-12T11:46:02Z</time>
      </trkpt>
      <trkpt lat="45.87533" lon="5.63758">
        <ele>949.4</ele>
        <time>2026-05-12T11:46:03Z</time>
      </trkpt>
      <trkpt lat="45.87531" lon="5.63759">
        <ele>949.4</ele>
        <time>2026-05-12T11:46:04Z</time>
      </trkpt>
      <trkpt lat="45.87529" lon="5.63759">
        <ele>949.4</ele>
        <time>2026-05-12T11:46:05Z</time>
      </trkpt>
      <trkpt lat="45.87526" lon="5.63759">
        <ele>949.4</ele>
        <time>2026-05-12T11:46:06Z</time>
      </trkpt>
      <trkpt lat="45.87524" lon="5.63758">
        <ele>949.8</ele>
        <time>2026-05-12T11:46:07Z</time>
      </trkpt>
      <trkpt lat="45.87522" lon="5.63758">
        <ele>949.8</ele>
        <time>2026-05-12T11:46:08Z</time>
      </trkpt>
      <trkpt lat="45.8752" lon="5.63758">
        <ele>950</ele>
        <time>2026-05-12T11:46:09Z</time>
      </trkpt>
      <trkpt lat="45.87517" lon="5.63758">
        <ele>950</ele>
        <time>2026-05-12T11:46:10Z</time>
      </trkpt>
      <trkpt lat="45.87516" lon="5.63758">
        <ele>950</ele>
        <time>2026-05-12T11:46:11Z</time>
      </trkpt>
      <trkpt lat="45.87514" lon="5.63758">
        <ele>950.4</ele>
        <time>2026-05-12T11:46:12Z</time>
      </trkpt>
      <trkpt lat="45.87513" lon="5.63759">
        <ele>950.4</ele>
        <time>2026-05-12T11:46:13Z</time>
      </trkpt>
      <trkpt lat="45.87512" lon="5.63759">
        <ele>950.4</ele>
        <time>2026-05-12T11:46:14Z</time>
      </trkpt>
      <trkpt lat="45.8751" lon="5.6376">
        <ele>950.8</ele>
        <time>2026-05-12T11:46:15Z</time>
      </trkpt>
      <trkpt lat="45.87508" lon="5.6376">
        <ele>950.8</ele>
        <time>2026-05-12T11:46:16Z</time>
      </trkpt>
      <trkpt lat="45.87507" lon="5.6376">
        <ele>950.8</ele>
        <time>2026-05-12T11:46:17Z</time>
      </trkpt>
      <trkpt lat="45.87505" lon="5.6376">
        <ele>951.2</ele>
        <time>2026-05-12T11:46:18Z</time>
      </trkpt>
      <trkpt lat="45.87503" lon="5.6376">
        <ele>951.2</ele>
        <time>2026-05-12T11:46:19Z</time>
      </trkpt>
      <trkpt lat="45.87501" lon="5.63761">
        <ele>951.2</ele>
        <time>2026-05-12T11:46:20Z</time>
      </trkpt>
      <trkpt lat="45.87499" lon="5.63761">
        <ele>951.4</ele>
        <time>2026-05-12T11:46:21Z</time>
      </trkpt>
      <trkpt lat="45.87497" lon="5.63762">
        <ele>951.4</ele>
        <time>2026-05-12T11:46:22Z</time>
      </trkpt>
      <trkpt lat="45.87496" lon="5.63763">
        <ele>951.6</ele>
        <time>2026-05-12T11:46:23Z</time>
      </trkpt>
      <trkpt lat="45.87494" lon="5.63763">
        <ele>951.6</ele>
        <time>2026-05-12T11:46:24Z</time>
      </trkpt>
      <trkpt lat="45.87492" lon="5.63762">
        <ele>951.6</ele>
        <time>2026-05-12T11:46:25Z</time>
      </trkpt>
      <trkpt lat="45.8749" lon="5.63762">
        <ele>952</ele>
        <time>2026-05-12T11:46:26Z</time>
      </trkpt>
      <trkpt lat="45.87489" lon="5.63762">
        <ele>952</ele>
        <time>2026-05-12T11:46:27Z</time>
      </trkpt>
      <trkpt lat="45.87487" lon="5.63762">
        <ele>952.2</ele>
        <time>2026-05-12T11:46:28Z</time>
      </trkpt>
      <trkpt lat="45.87485" lon="5.63762">
        <ele>952.2</ele>
        <time>2026-05-12T11:46:29Z</time>
      </trkpt>
      <trkpt lat="45.87483" lon="5.63762">
        <ele>952.2</ele>
        <time>2026-05-12T11:46:30Z</time>
      </trkpt>
      <trkpt lat="45.87481" lon="5.63762">
        <ele>952.2</ele>
        <time>2026-05-12T11:46:31Z</time>
      </trkpt>
      <trkpt lat="45.87479" lon="5.63763">
        <ele>952.6</ele>
        <time>2026-05-12T11:46:32Z</time>
      </trkpt>
      <trkpt lat="45.87478" lon="5.63763">
        <ele>952.6</ele>
        <time>2026-05-12T11:46:33Z</time>
      </trkpt>
      <trkpt lat="45.87476" lon="5.63762">
        <ele>952.6</ele>
        <time>2026-05-12T11:46:34Z</time>
      </trkpt>
      <trkpt lat="45.87474" lon="5.63762">
        <ele>952.8</ele>
        <time>2026-05-12T11:46:35Z</time>
      </trkpt>
      <trkpt lat="45.87472" lon="5.63762">
        <ele>952.8</ele>
        <time>2026-05-12T11:46:36Z</time>
      </trkpt>
      <trkpt lat="45.87471" lon="5.63763">
        <ele>952.8</ele>
        <time>2026-05-12T11:46:37Z</time>
      </trkpt>
      <trkpt lat="45.87469" lon="5.63763">
        <ele>953</ele>
        <time>2026-05-12T11:46:38Z</time>
      </trkpt>
      <trkpt lat="45.87467" lon="5.63763">
        <ele>953</ele>
        <time>2026-05-12T11:46:39Z</time>
      </trkpt>
      <trkpt lat="45.87465" lon="5.63763">
        <ele>953</ele>
        <time>2026-05-12T11:46:40Z</time>
      </trkpt>
      <trkpt lat="45.87463" lon="5.63763">
        <ele>953.2</ele>
        <time>2026-05-12T11:46:41Z</time>
      </trkpt>
      <trkpt lat="45.87461" lon="5.63764">
        <ele>953.2</ele>
        <time>2026-05-12T11:46:42Z</time>
      </trkpt>
      <trkpt lat="45.87459" lon="5.63764">
        <ele>953.2</ele>
        <time>2026-05-12T11:46:43Z</time>
      </trkpt>
      <trkpt lat="45.87457" lon="5.63764">
        <ele>953.2</ele>
        <time>2026-05-12T11:46:44Z</time>
      </trkpt>
      <trkpt lat="45.87455" lon="5.63764">
        <ele>953.4</ele>
        <time>2026-05-12T11:46:45Z</time>
      </trkpt>
      <trkpt lat="45.87453" lon="5.63764">
        <ele>953.4</ele>
        <time>2026-05-12T11:46:46Z</time>
      </trkpt>
      <trkpt lat="45.87452" lon="5.63764">
        <ele>953.4</ele>
        <time>2026-05-12T11:46:47Z</time>
      </trkpt>
      <trkpt lat="45.8745" lon="5.63764">
        <ele>953.4</ele>
        <time>2026-05-12T11:46:48Z</time>
      </trkpt>
      <trkpt lat="45.87448" lon="5.63764">
        <ele>953.8</ele>
        <time>2026-05-12T11:46:49Z</time>
      </trkpt>
      <trkpt lat="45.87446" lon="5.63764">
        <ele>953.8</ele>
        <time>2026-05-12T11:46:50Z</time>
      </trkpt>
      <trkpt lat="45.87444" lon="5.63763">
        <ele>953.8</ele>
        <time>2026-05-12T11:46:51Z</time>
      </trkpt>
      <trkpt lat="45.87443" lon="5.63763">
        <ele>954</ele>
        <time>2026-05-12T11:46:52Z</time>
      </trkpt>
      <trkpt lat="45.87441" lon="5.63763">
        <ele>954</ele>
        <time>2026-05-12T11:46:53Z</time>
      </trkpt>
      <trkpt lat="45.87439" lon="5.63763">
        <ele>954.2</ele>
        <time>2026-05-12T11:46:54Z</time>
      </trkpt>
      <trkpt lat="45.87437" lon="5.63764">
        <ele>954.2</ele>
        <time>2026-05-12T11:46:55Z</time>
      </trkpt>
      <trkpt lat="45.87435" lon="5.63764">
        <ele>954.2</ele>
        <time>2026-05-12T11:46:56Z</time>
      </trkpt>
      <trkpt lat="45.87433" lon="5.63764">
        <ele>954.2</ele>
        <time>2026-05-12T11:46:57Z</time>
      </trkpt>
      <trkpt lat="45.87431" lon="5.63764">
        <ele>954.4</ele>
        <time>2026-05-12T11:46:58Z</time>
      </trkpt>
      <trkpt lat="45.87429" lon="5.63764">
        <ele>954.4</ele>
        <time>2026-05-12T11:46:59Z</time>
      </trkpt>
      <trkpt lat="45.87427" lon="5.63764">
        <ele>954.4</ele>
        <time>2026-05-12T11:47:00Z</time>
      </trkpt>
      <trkpt lat="45.87425" lon="5.63764">
        <ele>954.6</ele>
        <time>2026-05-12T11:47:01Z</time>
      </trkpt>
      <trkpt lat="45.87423" lon="5.63765">
        <ele>954.6</ele>
        <time>2026-05-12T11:47:02Z</time>
      </trkpt>
      <trkpt lat="45.87421" lon="5.63765">
        <ele>954.8</ele>
        <time>2026-05-12T11:47:03Z</time>
      </trkpt>
      <trkpt lat="45.87419" lon="5.63765">
        <ele>955.2</ele>
        <time>2026-05-12T11:47:04Z</time>
      </trkpt>
      <trkpt lat="45.87417" lon="5.63765">
        <ele>955.2</ele>
        <time>2026-05-12T11:47:05Z</time>
      </trkpt>
      <trkpt lat="45.87416" lon="5.63765">
        <ele>955.4</ele>
        <time>2026-05-12T11:47:06Z</time>
      </trkpt>
      <trkpt lat="45.87414" lon="5.63766">
        <ele>955.4</ele>
        <time>2026-05-12T11:47:07Z</time>
      </trkpt>
      <trkpt lat="45.87412" lon="5.63766">
        <ele>955.4</ele>
        <time>2026-05-12T11:47:08Z</time>
      </trkpt>
      <trkpt lat="45.8741" lon="5.63765">
        <ele>955.4</ele>
        <time>2026-05-12T11:47:09Z</time>
      </trkpt>
      <trkpt lat="45.87408" lon="5.63765">
        <ele>955.4</ele>
        <time>2026-05-12T11:47:10Z</time>
      </trkpt>
      <trkpt lat="45.87406" lon="5.63765">
        <ele>955.4</ele>
        <time>2026-05-12T11:47:11Z</time>
      </trkpt>
      <trkpt lat="45.87404" lon="5.63766">
        <ele>955.6</ele>
        <time>2026-05-12T11:47:12Z</time>
      </trkpt>
      <trkpt lat="45.87402" lon="5.63766">
        <ele>955.6</ele>
        <time>2026-05-12T11:47:13Z</time>
      </trkpt>
      <trkpt lat="45.874" lon="5.63767">
        <ele>955.6</ele>
        <time>2026-05-12T11:47:14Z</time>
      </trkpt>
      <trkpt lat="45.87398" lon="5.63768">
        <ele>955.6</ele>
        <time>2026-05-12T11:47:15Z</time>
      </trkpt>
      <trkpt lat="45.87397" lon="5.63769">
        <ele>955.6</ele>
        <time>2026-05-12T11:47:16Z</time>
      </trkpt>
      <trkpt lat="45.87395" lon="5.6377">
        <ele>956</ele>
        <time>2026-05-12T11:47:17Z</time>
      </trkpt>
      <trkpt lat="45.87393" lon="5.63771">
        <ele>956</ele>
        <time>2026-05-12T11:47:18Z</time>
      </trkpt>
      <trkpt lat="45.87391" lon="5.63772">
        <ele>956</ele>
        <time>2026-05-12T11:47:19Z</time>
      </trkpt>
      <trkpt lat="45.8739" lon="5.63774">
        <ele>956</ele>
        <time>2026-05-12T11:47:20Z</time>
      </trkpt>
      <trkpt lat="45.87388" lon="5.63775">
        <ele>956</ele>
        <time>2026-05-12T11:47:21Z</time>
      </trkpt>
      <trkpt lat="45.87387" lon="5.63776">
        <ele>956</ele>
        <time>2026-05-12T11:47:22Z</time>
      </trkpt>
      <trkpt lat="45.87385" lon="5.63777">
        <ele>956</ele>
        <time>2026-05-12T11:47:23Z</time>
      </trkpt>
      <trkpt lat="45.87383" lon="5.63777">
        <ele>956.2</ele>
        <time>2026-05-12T11:47:24Z</time>
      </trkpt>
      <trkpt lat="45.87381" lon="5.63777">
        <ele>956.2</ele>
        <time>2026-05-12T11:47:25Z</time>
      </trkpt>
      <trkpt lat="45.87379" lon="5.63778">
        <ele>956.2</ele>
        <time>2026-05-12T11:47:26Z</time>
      </trkpt>
      <trkpt lat="45.87377" lon="5.63779">
        <ele>956.2</ele>
        <time>2026-05-12T11:47:27Z</time>
      </trkpt>
      <trkpt lat="45.87376" lon="5.63779">
        <ele>956.2</ele>
        <time>2026-05-12T11:47:28Z</time>
      </trkpt>
      <trkpt lat="45.87374" lon="5.63781">
        <ele>956.2</ele>
        <time>2026-05-12T11:47:29Z</time>
      </trkpt>
      <trkpt lat="45.87372" lon="5.63782">
        <ele>956.2</ele>
        <time>2026-05-12T11:47:30Z</time>
      </trkpt>
      <trkpt lat="45.8737" lon="5.63784">
        <ele>956.2</ele>
        <time>2026-05-12T11:47:31Z</time>
      </trkpt>
      <trkpt lat="45.87368" lon="5.63785">
        <ele>956.2</ele>
        <time>2026-05-12T11:47:32Z</time>
      </trkpt>
      <trkpt lat="45.87366" lon="5.63787">
        <ele>956.2</ele>
        <time>2026-05-12T11:47:33Z</time>
      </trkpt>
      <trkpt lat="45.87365" lon="5.63789">
        <ele>956.2</ele>
        <time>2026-05-12T11:47:34Z</time>
      </trkpt>
      <trkpt lat="45.87363" lon="5.6379">
        <ele>956</ele>
        <time>2026-05-12T11:47:35Z</time>
      </trkpt>
      <trkpt lat="45.8736" lon="5.63791">
        <ele>956</ele>
        <time>2026-05-12T11:47:36Z</time>
      </trkpt>
      <trkpt lat="45.87359" lon="5.63791">
        <ele>956</ele>
        <time>2026-05-12T11:47:37Z</time>
      </trkpt>
      <trkpt lat="45.87357" lon="5.63792">
        <ele>956</ele>
        <time>2026-05-12T11:47:38Z</time>
      </trkpt>
      <trkpt lat="45.87355" lon="5.63792">
        <ele>956</ele>
        <time>2026-05-12T11:47:39Z</time>
      </trkpt>
      <trkpt lat="45.87354" lon="5.63793">
        <ele>956</ele>
        <time>2026-05-12T11:47:40Z</time>
      </trkpt>
      <trkpt lat="45.87353" lon="5.63793">
        <ele>956.2</ele>
        <time>2026-05-12T11:47:41Z</time>
      </trkpt>
      <trkpt lat="45.87351" lon="5.63794">
        <ele>956.2</ele>
        <time>2026-05-12T11:47:42Z</time>
      </trkpt>
      <trkpt lat="45.87349" lon="5.63794">
        <ele>956.2</ele>
        <time>2026-05-12T11:47:43Z</time>
      </trkpt>
      <trkpt lat="45.87348" lon="5.63794">
        <ele>956.2</ele>
        <time>2026-05-12T11:47:44Z</time>
      </trkpt>
      <trkpt lat="45.87347" lon="5.63794">
        <ele>956.6</ele>
        <time>2026-05-12T11:47:45Z</time>
      </trkpt>
      <trkpt lat="45.87347" lon="5.63794">
        <ele>957</ele>
        <time>2026-05-12T11:47:46Z</time>
      </trkpt>
      <trkpt lat="45.87346" lon="5.63793">
        <ele>957</ele>
        <time>2026-05-12T11:47:47Z</time>
      </trkpt>
      <trkpt lat="45.87345" lon="5.63793">
        <ele>957</ele>
        <time>2026-05-12T11:47:48Z</time>
      </trkpt>
      <trkpt lat="45.87343" lon="5.63792">
        <ele>957</ele>
        <time>2026-05-12T11:47:49Z</time>
      </trkpt>
      <trkpt lat="45.87342" lon="5.63791">
        <ele>956.8</ele>
        <time>2026-05-12T11:47:50Z</time>
      </trkpt>
      <trkpt lat="45.87341" lon="5.6379">
        <ele>956.6</ele>
        <time>2026-05-12T11:47:51Z</time>
      </trkpt>
      <trkpt lat="45.8734" lon="5.6379">
        <ele>956.6</ele>
        <time>2026-05-12T11:47:52Z</time>
      </trkpt>
      <trkpt lat="45.87338" lon="5.6379">
        <ele>956.6</ele>
        <time>2026-05-12T11:47:53Z</time>
      </trkpt>
      <trkpt lat="45.87337" lon="5.6379">
        <ele>956.4</ele>
        <time>2026-05-12T11:47:54Z</time>
      </trkpt>
      <trkpt lat="45.87335" lon="5.6379">
        <ele>956.4</ele>
        <time>2026-05-12T11:47:55Z</time>
      </trkpt>
      <trkpt lat="45.87335" lon="5.6379">
        <ele>956.4</ele>
        <time>2026-05-12T11:47:56Z</time>
      </trkpt>
      <trkpt lat="45.87336" lon="5.6379">
        <ele>956.4</ele>
        <time>2026-05-12T11:47:57Z</time>
      </trkpt>
      <trkpt lat="45.87334" lon="5.63791">
        <ele>956.2</ele>
        <time>2026-05-12T11:48:37Z</time>
      </trkpt>
      <trkpt lat="45.87332" lon="5.6379">
        <ele>956.2</ele>
        <time>2026-05-12T11:48:38Z</time>
      </trkpt>
      <trkpt lat="45.8733" lon="5.6379">
        <ele>956.2</ele>
        <time>2026-05-12T11:48:39Z</time>
      </trkpt>
      <trkpt lat="45.87327" lon="5.63791">
        <ele>956</ele>
        <time>2026-05-12T11:48:40Z</time>
      </trkpt>
      <trkpt lat="45.87324" lon="5.63791">
        <ele>956</ele>
        <time>2026-05-12T11:48:41Z</time>
      </trkpt>
      <trkpt lat="45.87322" lon="5.6379">
        <ele>955.8</ele>
        <time>2026-05-12T11:48:42Z</time>
      </trkpt>
      <trkpt lat="45.8732" lon="5.63791">
        <ele>955.8</ele>
        <time>2026-05-12T11:48:43Z</time>
      </trkpt>
      <trkpt lat="45.87318" lon="5.63791">
        <ele>955.4</ele>
        <time>2026-05-12T11:48:44Z</time>
      </trkpt>
      <trkpt lat="45.87315" lon="5.63791">
        <ele>955.2</ele>
        <time>2026-05-12T11:48:45Z</time>
      </trkpt>
      <trkpt lat="45.87313" lon="5.63792">
        <ele>954.8</ele>
        <time>2026-05-12T11:48:46Z</time>
      </trkpt>
      <trkpt lat="45.87311" lon="5.63792">
        <ele>954.6</ele>
        <time>2026-05-12T11:48:47Z</time>
      </trkpt>
      <trkpt lat="45.8731" lon="5.63792">
        <ele>954.6</ele>
        <time>2026-05-12T11:48:48Z</time>
      </trkpt>
      <trkpt lat="45.87309" lon="5.63792">
        <ele>954.6</ele>
        <time>2026-05-12T11:48:49Z</time>
      </trkpt>
      <trkpt lat="45.87308" lon="5.63792">
        <ele>954.4</ele>
        <time>2026-05-12T11:48:50Z</time>
      </trkpt>
      <trkpt lat="45.87308" lon="5.63791">
        <ele>954.4</ele>
        <time>2026-05-12T11:48:51Z</time>
      </trkpt>
      <trkpt lat="45.87307" lon="5.63791">
        <ele>953.4</ele>
        <time>2026-05-12T11:48:52Z</time>
      </trkpt>
      <trkpt lat="45.87306" lon="5.63791">
        <ele>954.2</ele>
        <time>2026-05-12T11:48:53Z</time>
      </trkpt>
      <trkpt lat="45.87305" lon="5.63791">
        <ele>954.4</ele>
        <time>2026-05-12T11:48:54Z</time>
      </trkpt>
      <trkpt lat="45.87304" lon="5.63791">
        <ele>954.4</ele>
        <time>2026-05-12T11:48:55Z</time>
      </trkpt>
      <trkpt lat="45.87302" lon="5.63791">
        <ele>954.4</ele>
        <time>2026-05-12T11:48:56Z</time>
      </trkpt>
      <trkpt lat="45.873" lon="5.6379">
        <ele>954</ele>
        <time>2026-05-12T11:48:57Z</time>
      </trkpt>
      <trkpt lat="45.87298" lon="5.6379">
        <ele>954</ele>
        <time>2026-05-12T11:48:58Z</time>
      </trkpt>
      <trkpt lat="45.87295" lon="5.63791">
        <ele>953.4</ele>
        <time>2026-05-12T11:48:59Z</time>
      </trkpt>
      <trkpt lat="45.87292" lon="5.63791">
        <ele>953.2</ele>
        <time>2026-05-12T11:49:00Z</time>
      </trkpt>
      <trkpt lat="45.87289" lon="5.63791">
        <ele>953.2</ele>
        <time>2026-05-12T11:49:01Z</time>
      </trkpt>
      <trkpt lat="45.87285" lon="5.63792">
        <ele>953</ele>
        <time>2026-05-12T11:49:02Z</time>
      </trkpt>
      <trkpt lat="45.87282" lon="5.63792">
        <ele>952.6</ele>
        <time>2026-05-12T11:49:03Z</time>
      </trkpt>
      <trkpt lat="45.87278" lon="5.63791">
        <ele>951.8</ele>
        <time>2026-05-12T11:49:04Z</time>
      </trkpt>
      <trkpt lat="45.87275" lon="5.63791">
        <ele>951.2</ele>
        <time>2026-05-12T11:49:05Z</time>
      </trkpt>
      <trkpt lat="45.87275" lon="5.63791">
        <ele>951.2</ele>
        <time>2026-05-12T11:49:06Z</time>
      </trkpt>
      <trkpt lat="45.87273" lon="5.6379">
        <ele>950.4</ele>
        <time>2026-05-12T11:49:07Z</time>
      </trkpt>
      <trkpt lat="45.8727" lon="5.6379">
        <ele>950.4</ele>
        <time>2026-05-12T11:49:08Z</time>
      </trkpt>
      <trkpt lat="45.87267" lon="5.6379">
        <ele>950.4</ele>
        <time>2026-05-12T11:49:09Z</time>
      </trkpt>
      <trkpt lat="45.87264" lon="5.6379">
        <ele>950.4</ele>
        <time>2026-05-12T11:49:10Z</time>
      </trkpt>
      <trkpt lat="45.87261" lon="5.6379">
        <ele>950.2</ele>
        <time>2026-05-12T11:49:11Z</time>
      </trkpt>
      <trkpt lat="45.87258" lon="5.6379">
        <ele>950.2</ele>
        <time>2026-05-12T11:49:12Z</time>
      </trkpt>
      <trkpt lat="45.87255" lon="5.63791">
        <ele>949.8</ele>
        <time>2026-05-12T11:49:13Z</time>
      </trkpt>
      <trkpt lat="45.87253" lon="5.63792">
        <ele>949</ele>
        <time>2026-05-12T11:49:14Z</time>
      </trkpt>
      <trkpt lat="45.8725" lon="5.63794">
        <ele>949</ele>
        <time>2026-05-12T11:49:15Z</time>
      </trkpt>
      <trkpt lat="45.87241" lon="5.63794">
        <ele>948.6</ele>
        <time>2026-05-12T11:49:16Z</time>
      </trkpt>
      <trkpt lat="45.87236" lon="5.63792">
        <ele>947.8</ele>
        <time>2026-05-12T11:49:17Z</time>
      </trkpt>
      <trkpt lat="45.87231" lon="5.63791">
        <ele>947.2</ele>
        <time>2026-05-12T11:49:18Z</time>
      </trkpt>
      <trkpt lat="45.87226" lon="5.63788">
        <ele>947.2</ele>
        <time>2026-05-12T11:49:19Z</time>
      </trkpt>
      <trkpt lat="45.87219" lon="5.63786">
        <ele>946.6</ele>
        <time>2026-05-12T11:49:20Z</time>
      </trkpt>
      <trkpt lat="45.87215" lon="5.63786">
        <ele>946.2</ele>
        <time>2026-05-12T11:49:21Z</time>
      </trkpt>
      <trkpt lat="45.87211" lon="5.63783">
        <ele>945.6</ele>
        <time>2026-05-12T11:49:22Z</time>
      </trkpt>
      <trkpt lat="45.87208" lon="5.63782">
        <ele>945</ele>
        <time>2026-05-12T11:49:23Z</time>
      </trkpt>
      <trkpt lat="45.87206" lon="5.63782">
        <ele>944.4</ele>
        <time>2026-05-12T11:49:24Z</time>
      </trkpt>
      <trkpt lat="45.87203" lon="5.63781">
        <ele>944.6</ele>
        <time>2026-05-12T11:49:25Z</time>
      </trkpt>
      <trkpt lat="45.87199" lon="5.63781">
        <ele>944.2</ele>
        <time>2026-05-12T11:49:26Z</time>
      </trkpt>
      <trkpt lat="45.87196" lon="5.6378">
        <ele>944.4</ele>
        <time>2026-05-12T11:49:27Z</time>
      </trkpt>
      <trkpt lat="45.87192" lon="5.63776">
        <ele>943.4</ele>
        <time>2026-05-12T11:49:28Z</time>
      </trkpt>
      <trkpt lat="45.87187" lon="5.63775">
        <ele>942.8</ele>
        <time>2026-05-12T11:49:29Z</time>
      </trkpt>
      <trkpt lat="45.87181" lon="5.63775">
        <ele>942.4</ele>
        <time>2026-05-12T11:49:30Z</time>
      </trkpt>
      <trkpt lat="45.87176" lon="5.63776">
        <ele>941.8</ele>
        <time>2026-05-12T11:49:31Z</time>
      </trkpt>
      <trkpt lat="45.87171" lon="5.63776">
        <ele>941</ele>
        <time>2026-05-12T11:49:32Z</time>
      </trkpt>
      <trkpt lat="45.87165" lon="5.63776">
        <ele>940.4</ele>
        <time>2026-05-12T11:49:33Z</time>
      </trkpt>
      <trkpt lat="45.87159" lon="5.63778">
        <ele>940.2</ele>
        <time>2026-05-12T11:49:34Z</time>
      </trkpt>
      <trkpt lat="45.87153" lon="5.6378">
        <ele>940.8</ele>
        <time>2026-05-12T11:49:35Z</time>
      </trkpt>
      <trkpt lat="45.8715" lon="5.63782">
        <ele>940</ele>
        <time>2026-05-12T11:49:36Z</time>
      </trkpt>
      <trkpt lat="45.87146" lon="5.63783">
        <ele>937.4</ele>
        <time>2026-05-12T11:49:37Z</time>
      </trkpt>
      <trkpt lat="45.87146" lon="5.63783">
        <ele>937.4</ele>
        <time>2026-05-12T11:49:38Z</time>
      </trkpt>
      <trkpt lat="45.87146" lon="5.63783">
        <ele>938</ele>
        <time>2026-05-12T11:49:39Z</time>
      </trkpt>
      <trkpt lat="45.87126" lon="5.63793">
        <ele>938.6</ele>
        <time>2026-05-12T11:49:41Z</time>
      </trkpt>
      <trkpt lat="45.87122" lon="5.63795">
        <ele>938.4</ele>
        <time>2026-05-12T11:49:42Z</time>
      </trkpt>
      <trkpt lat="45.87118" lon="5.63796">
        <ele>936</ele>
        <time>2026-05-12T11:49:43Z</time>
      </trkpt>
      <trkpt lat="45.87113" lon="5.63797">
        <ele>935.8</ele>
        <time>2026-05-12T11:49:44Z</time>
      </trkpt>
      <trkpt lat="45.87109" lon="5.63797">
        <ele>935.8</ele>
        <time>2026-05-12T11:49:45Z</time>
      </trkpt>
      <trkpt lat="45.87104" lon="5.63797">
        <ele>935.8</ele>
        <time>2026-05-12T11:49:46Z</time>
      </trkpt>
      <trkpt lat="45.87099" lon="5.63796">
        <ele>935.6</ele>
        <time>2026-05-12T11:49:47Z</time>
      </trkpt>
      <trkpt lat="45.87094" lon="5.63795">
        <ele>935.6</ele>
        <time>2026-05-12T11:49:48Z</time>
      </trkpt>
      <trkpt lat="45.87089" lon="5.63795">
        <ele>935.6</ele>
        <time>2026-05-12T11:49:49Z</time>
      </trkpt>
      <trkpt lat="45.87083" lon="5.63794">
        <ele>936</ele>
        <time>2026-05-12T11:49:50Z</time>
      </trkpt>
      <trkpt lat="45.87078" lon="5.63795">
        <ele>935.4</ele>
        <time>2026-05-12T11:49:51Z</time>
      </trkpt>
      <trkpt lat="45.87073" lon="5.63795">
        <ele>935.6</ele>
        <time>2026-05-12T11:49:52Z</time>
      </trkpt>
      <trkpt lat="45.87068" lon="5.63796">
        <ele>936</ele>
        <time>2026-05-12T11:49:53Z</time>
      </trkpt>
      <trkpt lat="45.87063" lon="5.63797">
        <ele>934.8</ele>
        <time>2026-05-12T11:49:54Z</time>
      </trkpt>
      <trkpt lat="45.87059" lon="5.63799">
        <ele>935</ele>
        <time>2026-05-12T11:49:55Z</time>
      </trkpt>
      <trkpt lat="45.87055" lon="5.63801">
        <ele>935</ele>
        <time>2026-05-12T11:49:56Z</time>
      </trkpt>
      <trkpt lat="45.87052" lon="5.63801">
        <ele>935</ele>
        <time>2026-05-12T11:49:57Z</time>
      </trkpt>
      <trkpt lat="45.87048" lon="5.63802">
        <ele>935.4</ele>
        <time>2026-05-12T11:49:58Z</time>
      </trkpt>
      <trkpt lat="45.87043" lon="5.63804">
        <ele>935.4</ele>
        <time>2026-05-12T11:49:59Z</time>
      </trkpt>
      <trkpt lat="45.87039" lon="5.63803">
        <ele>935.6</ele>
        <time>2026-05-12T11:50:00Z</time>
      </trkpt>
      <trkpt lat="45.87035" lon="5.63803">
        <ele>935.6</ele>
        <time>2026-05-12T11:50:01Z</time>
      </trkpt>
      <trkpt lat="45.8703" lon="5.63806">
        <ele>935.4</ele>
        <time>2026-05-12T11:50:02Z</time>
      </trkpt>
      <trkpt lat="45.87027" lon="5.63808">
        <ele>935</ele>
        <time>2026-05-12T11:50:03Z</time>
      </trkpt>
      <trkpt lat="45.87022" lon="5.63809">
        <ele>935</ele>
        <time>2026-05-12T11:50:04Z</time>
      </trkpt>
      <trkpt lat="45.87017" lon="5.6381">
        <ele>934</ele>
        <time>2026-05-12T11:50:05Z</time>
      </trkpt>
      <trkpt lat="45.87011" lon="5.63811">
        <ele>933.2</ele>
        <time>2026-05-12T11:50:06Z</time>
      </trkpt>
      <trkpt lat="45.87006" lon="5.63811">
        <ele>932.6</ele>
        <time>2026-05-12T11:50:07Z</time>
      </trkpt>
      <trkpt lat="45.87001" lon="5.63811">
        <ele>932</ele>
        <time>2026-05-12T11:50:08Z</time>
      </trkpt>
      <trkpt lat="45.86993" lon="5.63812">
        <ele>931.8</ele>
        <time>2026-05-12T11:50:09Z</time>
      </trkpt>
      <trkpt lat="45.86987" lon="5.63813">
        <ele>931.4</ele>
        <time>2026-05-12T11:50:10Z</time>
      </trkpt>
      <trkpt lat="45.86984" lon="5.63815">
        <ele>930.6</ele>
        <time>2026-05-12T11:50:11Z</time>
      </trkpt>
      <trkpt lat="45.8698" lon="5.63815">
        <ele>930.4</ele>
        <time>2026-05-12T11:50:12Z</time>
      </trkpt>
      <trkpt lat="45.86975" lon="5.63818">
        <ele>930.4</ele>
        <time>2026-05-12T11:50:13Z</time>
      </trkpt>
      <trkpt lat="45.86971" lon="5.6382">
        <ele>930.4</ele>
        <time>2026-05-12T11:50:14Z</time>
      </trkpt>
      <trkpt lat="45.86968" lon="5.63821">
        <ele>930.4</ele>
        <time>2026-05-12T11:50:15Z</time>
      </trkpt>
      <trkpt lat="45.86965" lon="5.63822">
        <ele>930.2</ele>
        <time>2026-05-12T11:50:16Z</time>
      </trkpt>
      <trkpt lat="45.86962" lon="5.63823">
        <ele>930.2</ele>
        <time>2026-05-12T11:50:17Z</time>
      </trkpt>
      <trkpt lat="45.86959" lon="5.63824">
        <ele>930.2</ele>
        <time>2026-05-12T11:50:18Z</time>
      </trkpt>
      <trkpt lat="45.86955" lon="5.63825">
        <ele>930.2</ele>
        <time>2026-05-12T11:50:19Z</time>
      </trkpt>
      <trkpt lat="45.86952" lon="5.63825">
        <ele>930.2</ele>
        <time>2026-05-12T11:50:20Z</time>
      </trkpt>
      <trkpt lat="45.86949" lon="5.63826">
        <ele>930.2</ele>
        <time>2026-05-12T11:50:21Z</time>
      </trkpt>
      <trkpt lat="45.86945" lon="5.63826">
        <ele>930.6</ele>
        <time>2026-05-12T11:50:22Z</time>
      </trkpt>
      <trkpt lat="45.86942" lon="5.63827">
        <ele>930</ele>
        <time>2026-05-12T11:50:23Z</time>
      </trkpt>
      <trkpt lat="45.86939" lon="5.63828">
        <ele>930</ele>
        <time>2026-05-12T11:50:24Z</time>
      </trkpt>
      <trkpt lat="45.86935" lon="5.63829">
        <ele>929.8</ele>
        <time>2026-05-12T11:50:25Z</time>
      </trkpt>
      <trkpt lat="45.86932" lon="5.6383">
        <ele>930.4</ele>
        <time>2026-05-12T11:50:26Z</time>
      </trkpt>
      <trkpt lat="45.86929" lon="5.63831">
        <ele>930.4</ele>
        <time>2026-05-12T11:50:27Z</time>
      </trkpt>
      <trkpt lat="45.86926" lon="5.63832">
        <ele>930.4</ele>
        <time>2026-05-12T11:50:28Z</time>
      </trkpt>
      <trkpt lat="45.86923" lon="5.63833">
        <ele>930.4</ele>
        <time>2026-05-12T11:50:29Z</time>
      </trkpt>
      <trkpt lat="45.8692" lon="5.63834">
        <ele>930.6</ele>
        <time>2026-05-12T11:50:30Z</time>
      </trkpt>
      <trkpt lat="45.86916" lon="5.63835">
        <ele>931</ele>
        <time>2026-05-12T11:50:31Z</time>
      </trkpt>
      <trkpt lat="45.86914" lon="5.63835">
        <ele>931.4</ele>
        <time>2026-05-12T11:50:32Z</time>
      </trkpt>
      <trkpt lat="45.86912" lon="5.63836">
        <ele>931.4</ele>
        <time>2026-05-12T11:50:33Z</time>
      </trkpt>
      <trkpt lat="45.8691" lon="5.63836">
        <ele>931.4</ele>
        <time>2026-05-12T11:50:34Z</time>
      </trkpt>
      <trkpt lat="45.86909" lon="5.63838">
        <ele>931</ele>
        <time>2026-05-12T11:50:35Z</time>
      </trkpt>
      <trkpt lat="45.86906" lon="5.63839">
        <ele>931.6</ele>
        <time>2026-05-12T11:50:36Z</time>
      </trkpt>
      <trkpt lat="45.86902" lon="5.63841">
        <ele>931.4</ele>
        <time>2026-05-12T11:50:37Z</time>
      </trkpt>
      <trkpt lat="45.86898" lon="5.63842">
        <ele>931.2</ele>
        <time>2026-05-12T11:50:38Z</time>
      </trkpt>
      <trkpt lat="45.86894" lon="5.63843">
        <ele>931</ele>
        <time>2026-05-12T11:50:39Z</time>
      </trkpt>
      <trkpt lat="45.86891" lon="5.63845">
        <ele>930.2</ele>
        <time>2026-05-12T11:50:40Z</time>
      </trkpt>
      <trkpt lat="45.86888" lon="5.63847">
        <ele>930.4</ele>
        <time>2026-05-12T11:50:41Z</time>
      </trkpt>
      <trkpt lat="45.86886" lon="5.63848">
        <ele>930.4</ele>
        <time>2026-05-12T11:50:42Z</time>
      </trkpt>
      <trkpt lat="45.86884" lon="5.6385">
        <ele>930.6</ele>
        <time>2026-05-12T11:50:43Z</time>
      </trkpt>
      <trkpt lat="45.86882" lon="5.63851">
        <ele>931</ele>
        <time>2026-05-12T11:50:44Z</time>
      </trkpt>
      <trkpt lat="45.8688" lon="5.63853">
        <ele>931.2</ele>
        <time>2026-05-12T11:50:45Z</time>
      </trkpt>
      <trkpt lat="45.86878" lon="5.63855">
        <ele>931.2</ele>
        <time>2026-05-12T11:50:46Z</time>
      </trkpt>
      <trkpt lat="45.86876" lon="5.63857">
        <ele>931.4</ele>
        <time>2026-05-12T11:50:47Z</time>
      </trkpt>
      <trkpt lat="45.86873" lon="5.63859">
        <ele>931.4</ele>
        <time>2026-05-12T11:50:48Z</time>
      </trkpt>
      <trkpt lat="45.86871" lon="5.6386">
        <ele>931.8</ele>
        <time>2026-05-12T11:50:49Z</time>
      </trkpt>
      <trkpt lat="45.86868" lon="5.63862">
        <ele>931.8</ele>
        <time>2026-05-12T11:50:50Z</time>
      </trkpt>
      <trkpt lat="45.86866" lon="5.63863">
        <ele>931.8</ele>
        <time>2026-05-12T11:50:51Z</time>
      </trkpt>
      <trkpt lat="45.86864" lon="5.63865">
        <ele>932</ele>
        <time>2026-05-12T11:50:52Z</time>
      </trkpt>
      <trkpt lat="45.86863" lon="5.63865">
        <ele>932</ele>
        <time>2026-05-12T11:50:53Z</time>
      </trkpt>
      <trkpt lat="45.86861" lon="5.63866">
        <ele>932</ele>
        <time>2026-05-12T11:50:54Z</time>
      </trkpt>
      <trkpt lat="45.86859" lon="5.63868">
        <ele>932</ele>
        <time>2026-05-12T11:50:55Z</time>
      </trkpt>
      <trkpt lat="45.86858" lon="5.6387">
        <ele>932</ele>
        <time>2026-05-12T11:50:56Z</time>
      </trkpt>
      <trkpt lat="45.86856" lon="5.63871">
        <ele>931.8</ele>
        <time>2026-05-12T11:50:57Z</time>
      </trkpt>
      <trkpt lat="45.86854" lon="5.63873">
        <ele>931.8</ele>
        <time>2026-05-12T11:50:58Z</time>
      </trkpt>
      <trkpt lat="45.86853" lon="5.63875">
        <ele>931.2</ele>
        <time>2026-05-12T11:50:59Z</time>
      </trkpt>
      <trkpt lat="45.86851" lon="5.63878">
        <ele>930.8</ele>
        <time>2026-05-12T11:51:00Z</time>
      </trkpt>
      <trkpt lat="45.86848" lon="5.6388">
        <ele>930.6</ele>
        <time>2026-05-12T11:51:01Z</time>
      </trkpt>
      <trkpt lat="45.86847" lon="5.63882">
        <ele>930.6</ele>
        <time>2026-05-12T11:51:02Z</time>
      </trkpt>
      <trkpt lat="45.86844" lon="5.63884">
        <ele>930.8</ele>
        <time>2026-05-12T11:51:03Z</time>
      </trkpt>
      <trkpt lat="45.86842" lon="5.63885">
        <ele>930.8</ele>
        <time>2026-05-12T11:51:04Z</time>
      </trkpt>
      <trkpt lat="45.8684" lon="5.63887">
        <ele>930.8</ele>
        <time>2026-05-12T11:51:05Z</time>
      </trkpt>
      <trkpt lat="45.86838" lon="5.63889">
        <ele>930.8</ele>
        <time>2026-05-12T11:51:06Z</time>
      </trkpt>
      <trkpt lat="45.86836" lon="5.63891">
        <ele>930.8</ele>
        <time>2026-05-12T11:51:07Z</time>
      </trkpt>
      <trkpt lat="45.86834" lon="5.63893">
        <ele>931</ele>
        <time>2026-05-12T11:51:08Z</time>
      </trkpt>
      <trkpt lat="45.86832" lon="5.63893">
        <ele>931.4</ele>
        <time>2026-05-12T11:51:09Z</time>
      </trkpt>
      <trkpt lat="45.86829" lon="5.63894">
        <ele>931.4</ele>
        <time>2026-05-12T11:51:10Z</time>
      </trkpt>
      <trkpt lat="45.86827" lon="5.63896">
        <ele>931.4</ele>
        <time>2026-05-12T11:51:11Z</time>
      </trkpt>
      <trkpt lat="45.86825" lon="5.63899">
        <ele>931.4</ele>
        <time>2026-05-12T11:51:12Z</time>
      </trkpt>
      <trkpt lat="45.86822" lon="5.63902">
        <ele>931.4</ele>
        <time>2026-05-12T11:51:13Z</time>
      </trkpt>
      <trkpt lat="45.86819" lon="5.63905">
        <ele>931.4</ele>
        <time>2026-05-12T11:51:14Z</time>
      </trkpt>
      <trkpt lat="45.86817" lon="5.63906">
        <ele>931.4</ele>
        <time>2026-05-12T11:51:15Z</time>
      </trkpt>
      <trkpt lat="45.86816" lon="5.63908">
        <ele>931</ele>
        <time>2026-05-12T11:51:16Z</time>
      </trkpt>
      <trkpt lat="45.86813" lon="5.6391">
        <ele>931</ele>
        <time>2026-05-12T11:51:17Z</time>
      </trkpt>
      <trkpt lat="45.8681" lon="5.63913">
        <ele>931</ele>
        <time>2026-05-12T11:51:18Z</time>
      </trkpt>
      <trkpt lat="45.86807" lon="5.63916">
        <ele>930.8</ele>
        <time>2026-05-12T11:51:19Z</time>
      </trkpt>
      <trkpt lat="45.86799" lon="5.63923">
        <ele>930.8</ele>
        <time>2026-05-12T11:51:20Z</time>
      </trkpt>
      <trkpt lat="45.86797" lon="5.63926">
        <ele>930.8</ele>
        <time>2026-05-12T11:51:21Z</time>
      </trkpt>
      <trkpt lat="45.86794" lon="5.63928">
        <ele>930.6</ele>
        <time>2026-05-12T11:51:22Z</time>
      </trkpt>
      <trkpt lat="45.86792" lon="5.6393">
        <ele>930.6</ele>
        <time>2026-05-12T11:51:23Z</time>
      </trkpt>
      <trkpt lat="45.86789" lon="5.6393">
        <ele>930.2</ele>
        <time>2026-05-12T11:51:24Z</time>
      </trkpt>
      <trkpt lat="45.86787" lon="5.63931">
        <ele>930.4</ele>
        <time>2026-05-12T11:51:25Z</time>
      </trkpt>
      <trkpt lat="45.86784" lon="5.63932">
        <ele>930.4</ele>
        <time>2026-05-12T11:51:26Z</time>
      </trkpt>
      <trkpt lat="45.86782" lon="5.63934">
        <ele>930.4</ele>
        <time>2026-05-12T11:51:27Z</time>
      </trkpt>
      <trkpt lat="45.86779" lon="5.63935">
        <ele>930.4</ele>
        <time>2026-05-12T11:51:28Z</time>
      </trkpt>
      <trkpt lat="45.86777" lon="5.63936">
        <ele>930.4</ele>
        <time>2026-05-12T11:51:29Z</time>
      </trkpt>
      <trkpt lat="45.86775" lon="5.63938">
        <ele>930.8</ele>
        <time>2026-05-12T11:51:30Z</time>
      </trkpt>
      <trkpt lat="45.86772" lon="5.63939">
        <ele>930.8</ele>
        <time>2026-05-12T11:51:31Z</time>
      </trkpt>
      <trkpt lat="45.86769" lon="5.6394">
        <ele>930.8</ele>
        <time>2026-05-12T11:51:32Z</time>
      </trkpt>
      <trkpt lat="45.86767" lon="5.63941">
        <ele>931.6</ele>
        <time>2026-05-12T11:51:33Z</time>
      </trkpt>
      <trkpt lat="45.86762" lon="5.63943">
        <ele>930.6</ele>
        <time>2026-05-12T11:51:34Z</time>
      </trkpt>
      <trkpt lat="45.86759" lon="5.63943">
        <ele>930.4</ele>
        <time>2026-05-12T11:51:35Z</time>
      </trkpt>
      <trkpt lat="45.86756" lon="5.63943">
        <ele>930.4</ele>
        <time>2026-05-12T11:51:36Z</time>
      </trkpt>
      <trkpt lat="45.86753" lon="5.63943">
        <ele>930</ele>
        <time>2026-05-12T11:51:37Z</time>
      </trkpt>
      <trkpt lat="45.8675" lon="5.63944">
        <ele>930</ele>
        <time>2026-05-12T11:51:38Z</time>
      </trkpt>
      <trkpt lat="45.86749" lon="5.63944">
        <ele>930.2</ele>
        <time>2026-05-12T11:51:39Z</time>
      </trkpt>
      <trkpt lat="45.86747" lon="5.63944">
        <ele>930.2</ele>
        <time>2026-05-12T11:51:40Z</time>
      </trkpt>
      <trkpt lat="45.86744" lon="5.63945">
        <ele>930.4</ele>
        <time>2026-05-12T11:51:41Z</time>
      </trkpt>
      <trkpt lat="45.8674" lon="5.63945">
        <ele>930.4</ele>
        <time>2026-05-12T11:51:42Z</time>
      </trkpt>
      <trkpt lat="45.86739" lon="5.63945">
        <ele>930.4</ele>
        <time>2026-05-12T11:51:43Z</time>
      </trkpt>
      <trkpt lat="45.86736" lon="5.63946">
        <ele>931.4</ele>
        <time>2026-05-12T11:51:44Z</time>
      </trkpt>
      <trkpt lat="45.86733" lon="5.63945">
        <ele>931.2</ele>
        <time>2026-05-12T11:51:45Z</time>
      </trkpt>
      <trkpt lat="45.8673" lon="5.63943">
        <ele>930.8</ele>
        <time>2026-05-12T11:51:46Z</time>
      </trkpt>
      <trkpt lat="45.86725" lon="5.63943">
        <ele>930.4</ele>
        <time>2026-05-12T11:51:47Z</time>
      </trkpt>
      <trkpt lat="45.8672" lon="5.63943">
        <ele>930.2</ele>
        <time>2026-05-12T11:51:48Z</time>
      </trkpt>
      <trkpt lat="45.8672" lon="5.63943">
        <ele>930.2</ele>
        <time>2026-05-12T11:51:49Z</time>
      </trkpt>
      <trkpt lat="45.86717" lon="5.63944">
        <ele>930.2</ele>
        <time>2026-05-12T11:51:50Z</time>
      </trkpt>
      <trkpt lat="45.86716" lon="5.63944">
        <ele>929.8</ele>
        <time>2026-05-12T11:51:51Z</time>
      </trkpt>
      <trkpt lat="45.86712" lon="5.63944">
        <ele>929.4</ele>
        <time>2026-05-12T11:51:52Z</time>
      </trkpt>
      <trkpt lat="45.86709" lon="5.63944">
        <ele>929.4</ele>
        <time>2026-05-12T11:51:53Z</time>
      </trkpt>
      <trkpt lat="45.86705" lon="5.63945">
        <ele>929.4</ele>
        <time>2026-05-12T11:51:54Z</time>
      </trkpt>
      <trkpt lat="45.86702" lon="5.63944">
        <ele>929.2</ele>
        <time>2026-05-12T11:51:55Z</time>
      </trkpt>
      <trkpt lat="45.867" lon="5.63945">
        <ele>929.2</ele>
        <time>2026-05-12T11:51:56Z</time>
      </trkpt>
      <trkpt lat="45.86698" lon="5.63945">
        <ele>929.2</ele>
        <time>2026-05-12T11:51:57Z</time>
      </trkpt>
      <trkpt lat="45.86693" lon="5.63945">
        <ele>929.2</ele>
        <time>2026-05-12T11:51:58Z</time>
      </trkpt>
      <trkpt lat="45.86691" lon="5.63942">
        <ele>929.6</ele>
        <time>2026-05-12T11:51:59Z</time>
      </trkpt>
      <trkpt lat="45.86688" lon="5.63941">
        <ele>929.6</ele>
        <time>2026-05-12T11:52:00Z</time>
      </trkpt>
      <trkpt lat="45.86686" lon="5.63942">
        <ele>930</ele>
        <time>2026-05-12T11:52:01Z</time>
      </trkpt>
      <trkpt lat="45.86684" lon="5.63942">
        <ele>930</ele>
        <time>2026-05-12T11:52:02Z</time>
      </trkpt>
      <trkpt lat="45.86682" lon="5.63943">
        <ele>930</ele>
        <time>2026-05-12T11:52:03Z</time>
      </trkpt>
      <trkpt lat="45.86681" lon="5.63945">
        <ele>930</ele>
        <time>2026-05-12T11:52:04Z</time>
      </trkpt>
      <trkpt lat="45.86679" lon="5.63945">
        <ele>930.2</ele>
        <time>2026-05-12T11:52:05Z</time>
      </trkpt>
      <trkpt lat="45.86677" lon="5.63946">
        <ele>930.4</ele>
        <time>2026-05-12T11:52:06Z</time>
      </trkpt>
      <trkpt lat="45.86674" lon="5.63947">
        <ele>930.4</ele>
        <time>2026-05-12T11:52:07Z</time>
      </trkpt>
      <trkpt lat="45.86672" lon="5.63948">
        <ele>930.4</ele>
        <time>2026-05-12T11:52:08Z</time>
      </trkpt>
      <trkpt lat="45.8667" lon="5.63949">
        <ele>930.8</ele>
        <time>2026-05-12T11:52:09Z</time>
      </trkpt>
      <trkpt lat="45.86668" lon="5.63949">
        <ele>930.8</ele>
        <time>2026-05-12T11:52:10Z</time>
      </trkpt>
      <trkpt lat="45.86667" lon="5.63949">
        <ele>931</ele>
        <time>2026-05-12T11:52:11Z</time>
      </trkpt>
      <trkpt lat="45.86666" lon="5.6395">
        <ele>931</ele>
        <time>2026-05-12T11:52:12Z</time>
      </trkpt>
      <trkpt lat="45.86664" lon="5.6395">
        <ele>931</ele>
        <time>2026-05-12T11:52:13Z</time>
      </trkpt>
      <trkpt lat="45.86662" lon="5.63951">
        <ele>931.4</ele>
        <time>2026-05-12T11:52:14Z</time>
      </trkpt>
      <trkpt lat="45.86659" lon="5.63952">
        <ele>931.8</ele>
        <time>2026-05-12T11:52:15Z</time>
      </trkpt>
      <trkpt lat="45.86656" lon="5.63953">
        <ele>931.4</ele>
        <time>2026-05-12T11:52:16Z</time>
      </trkpt>
      <trkpt lat="45.86652" lon="5.63953">
        <ele>931.2</ele>
        <time>2026-05-12T11:52:17Z</time>
      </trkpt>
      <trkpt lat="45.86648" lon="5.63954">
        <ele>931.2</ele>
        <time>2026-05-12T11:52:18Z</time>
      </trkpt>
      <trkpt lat="45.86645" lon="5.63955">
        <ele>931.2</ele>
        <time>2026-05-12T11:52:19Z</time>
      </trkpt>
      <trkpt lat="45.86642" lon="5.63955">
        <ele>931</ele>
        <time>2026-05-12T11:52:20Z</time>
      </trkpt>
      <trkpt lat="45.86639" lon="5.63956">
        <ele>931</ele>
        <time>2026-05-12T11:52:21Z</time>
      </trkpt>
      <trkpt lat="45.86635" lon="5.63957">
        <ele>931</ele>
        <time>2026-05-12T11:52:22Z</time>
      </trkpt>
      <trkpt lat="45.86631" lon="5.63958">
        <ele>931.2</ele>
        <time>2026-05-12T11:52:23Z</time>
      </trkpt>
      <trkpt lat="45.86628" lon="5.63958">
        <ele>931.2</ele>
        <time>2026-05-12T11:52:24Z</time>
      </trkpt>
      <trkpt lat="45.86626" lon="5.63959">
        <ele>931.2</ele>
        <time>2026-05-12T11:52:25Z</time>
      </trkpt>
      <trkpt lat="45.86624" lon="5.6396">
        <ele>931.2</ele>
        <time>2026-05-12T11:52:26Z</time>
      </trkpt>
      <trkpt lat="45.86622" lon="5.63962">
        <ele>931.2</ele>
        <time>2026-05-12T11:52:27Z</time>
      </trkpt>
      <trkpt lat="45.8662" lon="5.63964">
        <ele>931.2</ele>
        <time>2026-05-12T11:52:28Z</time>
      </trkpt>
      <trkpt lat="45.86618" lon="5.63966">
        <ele>931.2</ele>
        <time>2026-05-12T11:52:29Z</time>
      </trkpt>
      <trkpt lat="45.86617" lon="5.63968">
        <ele>931.6</ele>
        <time>2026-05-12T11:52:30Z</time>
      </trkpt>
      <trkpt lat="45.86615" lon="5.63969">
        <ele>931.6</ele>
        <time>2026-05-12T11:52:31Z</time>
      </trkpt>
      <trkpt lat="45.86613" lon="5.6397">
        <ele>931.8</ele>
        <time>2026-05-12T11:52:32Z</time>
      </trkpt>
      <trkpt lat="45.86612" lon="5.63971">
        <ele>931.8</ele>
        <time>2026-05-12T11:52:33Z</time>
      </trkpt>
      <trkpt lat="45.86611" lon="5.63971">
        <ele>931.8</ele>
        <time>2026-05-12T11:52:34Z</time>
      </trkpt>
      <trkpt lat="45.8661" lon="5.63972">
        <ele>932.2</ele>
        <time>2026-05-12T11:52:35Z</time>
      </trkpt>
      <trkpt lat="45.86609" lon="5.63973">
        <ele>932</ele>
        <time>2026-05-12T11:52:36Z</time>
      </trkpt>
      <trkpt lat="45.86607" lon="5.63974">
        <ele>932</ele>
        <time>2026-05-12T11:52:37Z</time>
      </trkpt>
      <trkpt lat="45.86604" lon="5.63975">
        <ele>932</ele>
        <time>2026-05-12T11:52:38Z</time>
      </trkpt>
      <trkpt lat="45.866" lon="5.63975">
        <ele>932.2</ele>
        <time>2026-05-12T11:52:39Z</time>
      </trkpt>
      <trkpt lat="45.86597" lon="5.63975">
        <ele>931.4</ele>
        <time>2026-05-12T11:52:40Z</time>
      </trkpt>
      <trkpt lat="45.86594" lon="5.63975">
        <ele>931.4</ele>
        <time>2026-05-12T11:52:41Z</time>
      </trkpt>
      <trkpt lat="45.86592" lon="5.63974">
        <ele>931.4</ele>
        <time>2026-05-12T11:52:42Z</time>
      </trkpt>
      <trkpt lat="45.86591" lon="5.63973">
        <ele>931.4</ele>
        <time>2026-05-12T11:52:43Z</time>
      </trkpt>
      <trkpt lat="45.86591" lon="5.63973">
        <ele>931.4</ele>
        <time>2026-05-12T11:52:44Z</time>
      </trkpt>
      <trkpt lat="45.86586" lon="5.63974">
        <ele>930.6</ele>
        <time>2026-05-12T11:52:49Z</time>
      </trkpt>
      <trkpt lat="45.86584" lon="5.63974">
        <ele>930.4</ele>
        <time>2026-05-12T11:52:50Z</time>
      </trkpt>
      <trkpt lat="45.86582" lon="5.63973">
        <ele>930.4</ele>
        <time>2026-05-12T11:52:51Z</time>
      </trkpt>
      <trkpt lat="45.8658" lon="5.63972">
        <ele>930.4</ele>
        <time>2026-05-12T11:52:52Z</time>
      </trkpt>
      <trkpt lat="45.86579" lon="5.63971">
        <ele>930.8</ele>
        <time>2026-05-12T11:52:53Z</time>
      </trkpt>
      <trkpt lat="45.86577" lon="5.6397">
        <ele>931</ele>
        <time>2026-05-12T11:52:54Z</time>
      </trkpt>
      <trkpt lat="45.86576" lon="5.63969">
        <ele>931</ele>
        <time>2026-05-12T11:52:55Z</time>
      </trkpt>
      <trkpt lat="45.86575" lon="5.63968">
        <ele>931</ele>
        <time>2026-05-12T11:52:56Z</time>
      </trkpt>
      <trkpt lat="45.86574" lon="5.63967">
        <ele>930.8</ele>
        <time>2026-05-12T11:52:57Z</time>
      </trkpt>
      <trkpt lat="45.86572" lon="5.63966">
        <ele>930.8</ele>
        <time>2026-05-12T11:52:58Z</time>
      </trkpt>
      <trkpt lat="45.86569" lon="5.63965">
        <ele>930</ele>
        <time>2026-05-12T11:52:59Z</time>
      </trkpt>
      <trkpt lat="45.86567" lon="5.63964">
        <ele>930.4</ele>
        <time>2026-05-12T11:53:00Z</time>
      </trkpt>
      <trkpt lat="45.86564" lon="5.63963">
        <ele>930.4</ele>
        <time>2026-05-12T11:53:01Z</time>
      </trkpt>
      <trkpt lat="45.86562" lon="5.63961">
        <ele>930.4</ele>
        <time>2026-05-12T11:53:02Z</time>
      </trkpt>
      <trkpt lat="45.86559" lon="5.6396">
        <ele>930</ele>
        <time>2026-05-12T11:53:03Z</time>
      </trkpt>
      <trkpt lat="45.86557" lon="5.63958">
        <ele>929.6</ele>
        <time>2026-05-12T11:53:04Z</time>
      </trkpt>
      <trkpt lat="45.86555" lon="5.63957">
        <ele>929.6</ele>
        <time>2026-05-12T11:53:05Z</time>
      </trkpt>
      <trkpt lat="45.86554" lon="5.63956">
        <ele>929.6</ele>
        <time>2026-05-12T11:53:06Z</time>
      </trkpt>
      <trkpt lat="45.86553" lon="5.63957">
        <ele>929.6</ele>
        <time>2026-05-12T11:53:07Z</time>
      </trkpt>
      <trkpt lat="45.8655" lon="5.63957">
        <ele>929.6</ele>
        <time>2026-05-12T11:53:08Z</time>
      </trkpt>
      <trkpt lat="45.86548" lon="5.63957">
        <ele>929.6</ele>
        <time>2026-05-12T11:53:09Z</time>
      </trkpt>
      <trkpt lat="45.86546" lon="5.63957">
        <ele>929.6</ele>
        <time>2026-05-12T11:53:10Z</time>
      </trkpt>
      <trkpt lat="45.86543" lon="5.63956">
        <ele>929.6</ele>
        <time>2026-05-12T11:53:11Z</time>
      </trkpt>
      <trkpt lat="45.86541" lon="5.63956">
        <ele>929.6</ele>
        <time>2026-05-12T11:53:12Z</time>
      </trkpt>
      <trkpt lat="45.86538" lon="5.63955">
        <ele>929.6</ele>
        <time>2026-05-12T11:53:13Z</time>
      </trkpt>
      <trkpt lat="45.86535" lon="5.63955">
        <ele>929.6</ele>
        <time>2026-05-12T11:53:14Z</time>
      </trkpt>
      <trkpt lat="45.86532" lon="5.63955">
        <ele>929.2</ele>
        <time>2026-05-12T11:53:15Z</time>
      </trkpt>
      <trkpt lat="45.86529" lon="5.63955">
        <ele>928.8</ele>
        <time>2026-05-12T11:53:16Z</time>
      </trkpt>
      <trkpt lat="45.86526" lon="5.63955">
        <ele>929.2</ele>
        <time>2026-05-12T11:53:17Z</time>
      </trkpt>
      <trkpt lat="45.86523" lon="5.63955">
        <ele>929.6</ele>
        <time>2026-05-12T11:53:18Z</time>
      </trkpt>
      <trkpt lat="45.86519" lon="5.63955">
        <ele>929.6</ele>
        <time>2026-05-12T11:53:19Z</time>
      </trkpt>
      <trkpt lat="45.86516" lon="5.63956">
        <ele>929.6</ele>
        <time>2026-05-12T11:53:20Z</time>
      </trkpt>
      <trkpt lat="45.86514" lon="5.63956">
        <ele>930</ele>
        <time>2026-05-12T11:53:21Z</time>
      </trkpt>
      <trkpt lat="45.86512" lon="5.63956">
        <ele>930.4</ele>
        <time>2026-05-12T11:53:22Z</time>
      </trkpt>
      <trkpt lat="45.86509" lon="5.63957">
        <ele>930.6</ele>
        <time>2026-05-12T11:53:23Z</time>
      </trkpt>
      <trkpt lat="45.86507" lon="5.63957">
        <ele>930.8</ele>
        <time>2026-05-12T11:53:24Z</time>
      </trkpt>
      <trkpt lat="45.86505" lon="5.63957">
        <ele>930.8</ele>
        <time>2026-05-12T11:53:25Z</time>
      </trkpt>
      <trkpt lat="45.86503" lon="5.63957">
        <ele>930.8</ele>
        <time>2026-05-12T11:53:26Z</time>
      </trkpt>
      <trkpt lat="45.86502" lon="5.63957">
        <ele>931.2</ele>
        <time>2026-05-12T11:53:27Z</time>
      </trkpt>
      <trkpt lat="45.86502" lon="5.63956">
        <ele>931.2</ele>
        <time>2026-05-12T11:53:28Z</time>
      </trkpt>
      <trkpt lat="45.86501" lon="5.63953">
        <ele>931.4</ele>
        <time>2026-05-12T11:53:37Z</time>
      </trkpt>
      <trkpt lat="45.86501" lon="5.63952">
        <ele>931.4</ele>
        <time>2026-05-12T11:53:38Z</time>
      </trkpt>
      <trkpt lat="45.865" lon="5.63952">
        <ele>931.4</ele>
        <time>2026-05-12T11:53:39Z</time>
      </trkpt>
      <trkpt lat="45.865" lon="5.63952">
        <ele>931</ele>
        <time>2026-05-12T11:53:47Z</time>
      </trkpt>
      <trkpt lat="45.865" lon="5.63953">
        <ele>931</ele>
        <time>2026-05-12T11:53:48Z</time>
      </trkpt>
      <trkpt lat="45.865" lon="5.63952">
        <ele>931</ele>
        <time>2026-05-12T11:53:49Z</time>
      </trkpt>
      <trkpt lat="45.86499" lon="5.63949">
        <ele>931.4</ele>
        <time>2026-05-12T11:55:10Z</time>
      </trkpt>
      <trkpt lat="45.86499" lon="5.63948">
        <ele>931.4</ele>
        <time>2026-05-12T11:55:11Z</time>
      </trkpt>
      <trkpt lat="45.86499" lon="5.63947">
        <ele>931.4</ele>
        <time>2026-05-12T11:55:12Z</time>
      </trkpt>
      <trkpt lat="45.86499" lon="5.63946">
        <ele>931.4</ele>
        <time>2026-05-12T11:55:13Z</time>
      </trkpt>
      <trkpt lat="45.86499" lon="5.63946">
        <ele>931</ele>
        <time>2026-05-12T11:55:14Z</time>
      </trkpt>
      <trkpt lat="45.86498" lon="5.63949">
        <ele>931</ele>
        <time>2026-05-12T11:55:22Z</time>
      </trkpt>
      <trkpt lat="45.86496" lon="5.63949">
        <ele>931</ele>
        <time>2026-05-12T11:55:23Z</time>
      </trkpt>
      <trkpt lat="45.86495" lon="5.6395">
        <ele>931</ele>
        <time>2026-05-12T11:55:24Z</time>
      </trkpt>
      <trkpt lat="45.86495" lon="5.6395">
        <ele>930.8</ele>
        <time>2026-05-12T11:55:25Z</time>
      </trkpt>
      <trkpt lat="45.86494" lon="5.6395">
        <ele>931</ele>
        <time>2026-05-12T11:55:26Z</time>
      </trkpt>
      <trkpt lat="45.86494" lon="5.63951">
        <ele>931</ele>
        <time>2026-05-12T11:55:27Z</time>
      </trkpt>
      <trkpt lat="45.86493" lon="5.63951">
        <ele>931</ele>
        <time>2026-05-12T11:55:28Z</time>
      </trkpt>
      <trkpt lat="45.86491" lon="5.63952">
        <ele>930.6</ele>
        <time>2026-05-12T11:55:31Z</time>
      </trkpt>
      <trkpt lat="45.86488" lon="5.63952">
        <ele>931</ele>
        <time>2026-05-12T11:55:32Z</time>
      </trkpt>
      <trkpt lat="45.86486" lon="5.63952">
        <ele>931</ele>
        <time>2026-05-12T11:55:33Z</time>
      </trkpt>
      <trkpt lat="45.86483" lon="5.63951">
        <ele>930.6</ele>
        <time>2026-05-12T11:55:34Z</time>
      </trkpt>
      <trkpt lat="45.86481" lon="5.63951">
        <ele>930.6</ele>
        <time>2026-05-12T11:55:35Z</time>
      </trkpt>
      <trkpt lat="45.86478" lon="5.63951">
        <ele>930</ele>
        <time>2026-05-12T11:55:36Z</time>
      </trkpt>
      <trkpt lat="45.86475" lon="5.6395">
        <ele>929.4</ele>
        <time>2026-05-12T11:55:37Z</time>
      </trkpt>
      <trkpt lat="45.86473" lon="5.63951">
        <ele>929</ele>
        <time>2026-05-12T11:55:38Z</time>
      </trkpt>
      <trkpt lat="45.8647" lon="5.63951">
        <ele>928.6</ele>
        <time>2026-05-12T11:55:39Z</time>
      </trkpt>
      <trkpt lat="45.86466" lon="5.63951">
        <ele>927.8</ele>
        <time>2026-05-12T11:55:40Z</time>
      </trkpt>
      <trkpt lat="45.86464" lon="5.63951">
        <ele>927.8</ele>
        <time>2026-05-12T11:55:41Z</time>
      </trkpt>
      <trkpt lat="45.86461" lon="5.63951">
        <ele>927.2</ele>
        <time>2026-05-12T11:55:42Z</time>
      </trkpt>
      <trkpt lat="45.86458" lon="5.63952">
        <ele>926.8</ele>
        <time>2026-05-12T11:55:43Z</time>
      </trkpt>
      <trkpt lat="45.86455" lon="5.63951">
        <ele>926.8</ele>
        <time>2026-05-12T11:55:44Z</time>
      </trkpt>
      <trkpt lat="45.86452" lon="5.6395">
        <ele>926.4</ele>
        <time>2026-05-12T11:55:45Z</time>
      </trkpt>
      <trkpt lat="45.86449" lon="5.63949">
        <ele>926.4</ele>
        <time>2026-05-12T11:55:46Z</time>
      </trkpt>
      <trkpt lat="45.86447" lon="5.63949">
        <ele>927</ele>
        <time>2026-05-12T11:55:47Z</time>
      </trkpt>
      <trkpt lat="45.86444" lon="5.63949">
        <ele>927</ele>
        <time>2026-05-12T11:55:48Z</time>
      </trkpt>
      <trkpt lat="45.86442" lon="5.63949">
        <ele>927</ele>
        <time>2026-05-12T11:55:49Z</time>
      </trkpt>
      <trkpt lat="45.86438" lon="5.63949">
        <ele>927</ele>
        <time>2026-05-12T11:55:50Z</time>
      </trkpt>
      <trkpt lat="45.86436" lon="5.63949">
        <ele>927</ele>
        <time>2026-05-12T11:55:51Z</time>
      </trkpt>
      <trkpt lat="45.86433" lon="5.63949">
        <ele>927</ele>
        <time>2026-05-12T11:55:52Z</time>
      </trkpt>
      <trkpt lat="45.8643" lon="5.63949">
        <ele>926.8</ele>
        <time>2026-05-12T11:55:53Z</time>
      </trkpt>
      <trkpt lat="45.86427" lon="5.63948">
        <ele>926.2</ele>
        <time>2026-05-12T11:55:54Z</time>
      </trkpt>
      <trkpt lat="45.86423" lon="5.63947">
        <ele>925.8</ele>
        <time>2026-05-12T11:55:55Z</time>
      </trkpt>
      <trkpt lat="45.8642" lon="5.63945">
        <ele>925.8</ele>
        <time>2026-05-12T11:55:56Z</time>
      </trkpt>
      <trkpt lat="45.86417" lon="5.63944">
        <ele>925.8</ele>
        <time>2026-05-12T11:55:57Z</time>
      </trkpt>
      <trkpt lat="45.86414" lon="5.63942">
        <ele>925.2</ele>
        <time>2026-05-12T11:55:58Z</time>
      </trkpt>
      <trkpt lat="45.86411" lon="5.6394">
        <ele>925</ele>
        <time>2026-05-12T11:55:59Z</time>
      </trkpt>
      <trkpt lat="45.86407" lon="5.63938">
        <ele>924.6</ele>
        <time>2026-05-12T11:56:00Z</time>
      </trkpt>
      <trkpt lat="45.86403" lon="5.63938">
        <ele>924.8</ele>
        <time>2026-05-12T11:56:01Z</time>
      </trkpt>
      <trkpt lat="45.86401" lon="5.63937">
        <ele>924.2</ele>
        <time>2026-05-12T11:56:02Z</time>
      </trkpt>
      <trkpt lat="45.86398" lon="5.63937">
        <ele>924</ele>
        <time>2026-05-12T11:56:03Z</time>
      </trkpt>
      <trkpt lat="45.86395" lon="5.63937">
        <ele>923.2</ele>
        <time>2026-05-12T11:56:04Z</time>
      </trkpt>
      <trkpt lat="45.8639" lon="5.63937">
        <ele>923.2</ele>
        <time>2026-05-12T11:56:05Z</time>
      </trkpt>
      <trkpt lat="45.86385" lon="5.63937">
        <ele>923.2</ele>
        <time>2026-05-12T11:56:06Z</time>
      </trkpt>
      <trkpt lat="45.86381" lon="5.63937">
        <ele>922.6</ele>
        <time>2026-05-12T11:56:07Z</time>
      </trkpt>
      <trkpt lat="45.86378" lon="5.63937">
        <ele>922.8</ele>
        <time>2026-05-12T11:56:08Z</time>
      </trkpt>
      <trkpt lat="45.86374" lon="5.63936">
        <ele>922.8</ele>
        <time>2026-05-12T11:56:09Z</time>
      </trkpt>
      <trkpt lat="45.86371" lon="5.63936">
        <ele>923.2</ele>
        <time>2026-05-12T11:56:10Z</time>
      </trkpt>
      <trkpt lat="45.8637" lon="5.63936">
        <ele>923.6</ele>
        <time>2026-05-12T11:56:11Z</time>
      </trkpt>
      <trkpt lat="45.86369" lon="5.63936">
        <ele>924</ele>
        <time>2026-05-12T11:56:12Z</time>
      </trkpt>
      <trkpt lat="45.86367" lon="5.63936">
        <ele>924.2</ele>
        <time>2026-05-12T11:56:13Z</time>
      </trkpt>
      <trkpt lat="45.86366" lon="5.63935">
        <ele>924.4</ele>
        <time>2026-05-12T11:56:14Z</time>
      </trkpt>
      <trkpt lat="45.86365" lon="5.63935">
        <ele>924.4</ele>
        <time>2026-05-12T11:56:15Z</time>
      </trkpt>
      <trkpt lat="45.86364" lon="5.63935">
        <ele>924.4</ele>
        <time>2026-05-12T11:56:16Z</time>
      </trkpt>
      <trkpt lat="45.86362" lon="5.63935">
        <ele>925</ele>
        <time>2026-05-12T11:56:17Z</time>
      </trkpt>
      <trkpt lat="45.86361" lon="5.63935">
        <ele>925.4</ele>
        <time>2026-05-12T11:56:18Z</time>
      </trkpt>
      <trkpt lat="45.86359" lon="5.63935">
        <ele>925.8</ele>
        <time>2026-05-12T11:56:19Z</time>
      </trkpt>
      <trkpt lat="45.86356" lon="5.63935">
        <ele>926</ele>
        <time>2026-05-12T11:56:20Z</time>
      </trkpt>
      <trkpt lat="45.86354" lon="5.63935">
        <ele>926</ele>
        <time>2026-05-12T11:56:21Z</time>
      </trkpt>
      <trkpt lat="45.86353" lon="5.63934">
        <ele>926.4</ele>
        <time>2026-05-12T11:56:22Z</time>
      </trkpt>
      <trkpt lat="45.8635" lon="5.63934">
        <ele>926.4</ele>
        <time>2026-05-12T11:56:23Z</time>
      </trkpt>
      <trkpt lat="45.86347" lon="5.63932">
        <ele>926.4</ele>
        <time>2026-05-12T11:56:24Z</time>
      </trkpt>
      <trkpt lat="45.86344" lon="5.63931">
        <ele>926.4</ele>
        <time>2026-05-12T11:56:25Z</time>
      </trkpt>
      <trkpt lat="45.86342" lon="5.6393">
        <ele>926.8</ele>
        <time>2026-05-12T11:56:26Z</time>
      </trkpt>
      <trkpt lat="45.8634" lon="5.63929">
        <ele>926.8</ele>
        <time>2026-05-12T11:56:27Z</time>
      </trkpt>
      <trkpt lat="45.86338" lon="5.63927">
        <ele>926.6</ele>
        <time>2026-05-12T11:56:28Z</time>
      </trkpt>
      <trkpt lat="45.86335" lon="5.63925">
        <ele>926.8</ele>
        <time>2026-05-12T11:56:29Z</time>
      </trkpt>
      <trkpt lat="45.86332" lon="5.63922">
        <ele>926.4</ele>
        <time>2026-05-12T11:56:30Z</time>
      </trkpt>
      <trkpt lat="45.86326" lon="5.63918">
        <ele>925.6</ele>
        <time>2026-05-12T11:56:31Z</time>
      </trkpt>
      <trkpt lat="45.86323" lon="5.63916">
        <ele>923.6</ele>
        <time>2026-05-12T11:56:32Z</time>
      </trkpt>
      <trkpt lat="45.8632" lon="5.63914">
        <ele>923.4</ele>
        <time>2026-05-12T11:56:33Z</time>
      </trkpt>
      <trkpt lat="45.86314" lon="5.63913">
        <ele>924.8</ele>
        <time>2026-05-12T11:56:34Z</time>
      </trkpt>
      <trkpt lat="45.86311" lon="5.63912">
        <ele>924.8</ele>
        <time>2026-05-12T11:56:35Z</time>
      </trkpt>
      <trkpt lat="45.86308" lon="5.6391">
        <ele>925.2</ele>
        <time>2026-05-12T11:56:36Z</time>
      </trkpt>
      <trkpt lat="45.86304" lon="5.6391">
        <ele>925.6</ele>
        <time>2026-05-12T11:56:37Z</time>
      </trkpt>
      <trkpt lat="45.86302" lon="5.63908">
        <ele>925.8</ele>
        <time>2026-05-12T11:56:38Z</time>
      </trkpt>
      <trkpt lat="45.863" lon="5.63907">
        <ele>925.8</ele>
        <time>2026-05-12T11:56:39Z</time>
      </trkpt>
      <trkpt lat="45.86298" lon="5.63907">
        <ele>926.2</ele>
        <time>2026-05-12T11:56:40Z</time>
      </trkpt>
      <trkpt lat="45.86297" lon="5.63906">
        <ele>926.2</ele>
        <time>2026-05-12T11:56:41Z</time>
      </trkpt>
      <trkpt lat="45.86295" lon="5.63905">
        <ele>926.2</ele>
        <time>2026-05-12T11:56:42Z</time>
      </trkpt>
      <trkpt lat="45.86293" lon="5.63904">
        <ele>926.4</ele>
        <time>2026-05-12T11:56:43Z</time>
      </trkpt>
      <trkpt lat="45.86291" lon="5.63904">
        <ele>926.4</ele>
        <time>2026-05-12T11:56:44Z</time>
      </trkpt>
      <trkpt lat="45.86289" lon="5.63903">
        <ele>926.6</ele>
        <time>2026-05-12T11:56:45Z</time>
      </trkpt>
      <trkpt lat="45.86288" lon="5.63902">
        <ele>926.6</ele>
        <time>2026-05-12T11:56:46Z</time>
      </trkpt>
      <trkpt lat="45.86286" lon="5.63901">
        <ele>926.6</ele>
        <time>2026-05-12T11:56:47Z</time>
      </trkpt>
      <trkpt lat="45.86283" lon="5.63899">
        <ele>926.2</ele>
        <time>2026-05-12T11:56:48Z</time>
      </trkpt>
      <trkpt lat="45.86279" lon="5.63898">
        <ele>926.2</ele>
        <time>2026-05-12T11:56:49Z</time>
      </trkpt>
      <trkpt lat="45.86276" lon="5.63896">
        <ele>926.2</ele>
        <time>2026-05-12T11:56:50Z</time>
      </trkpt>
      <trkpt lat="45.86273" lon="5.63894">
        <ele>926.2</ele>
        <time>2026-05-12T11:56:51Z</time>
      </trkpt>
      <trkpt lat="45.8627" lon="5.63894">
        <ele>926</ele>
        <time>2026-05-12T11:56:52Z</time>
      </trkpt>
      <trkpt lat="45.86267" lon="5.63894">
        <ele>925.8</ele>
        <time>2026-05-12T11:56:53Z</time>
      </trkpt>
      <trkpt lat="45.86263" lon="5.63894">
        <ele>925.8</ele>
        <time>2026-05-12T11:56:54Z</time>
      </trkpt>
      <trkpt lat="45.86259" lon="5.63895">
        <ele>925.4</ele>
        <time>2026-05-12T11:56:55Z</time>
      </trkpt>
      <trkpt lat="45.86256" lon="5.63894">
        <ele>925.2</ele>
        <time>2026-05-12T11:56:56Z</time>
      </trkpt>
      <trkpt lat="45.8625" lon="5.63894">
        <ele>924.8</ele>
        <time>2026-05-12T11:56:57Z</time>
      </trkpt>
      <trkpt lat="45.86247" lon="5.63891">
        <ele>924.8</ele>
        <time>2026-05-12T11:56:58Z</time>
      </trkpt>
      <trkpt lat="45.86243" lon="5.6389">
        <ele>924.8</ele>
        <time>2026-05-12T11:56:59Z</time>
      </trkpt>
      <trkpt lat="45.86242" lon="5.63889">
        <ele>925.2</ele>
        <time>2026-05-12T11:57:00Z</time>
      </trkpt>
      <trkpt lat="45.8624" lon="5.63888">
        <ele>925.2</ele>
        <time>2026-05-12T11:57:01Z</time>
      </trkpt>
      <trkpt lat="45.86238" lon="5.63887">
        <ele>925.2</ele>
        <time>2026-05-12T11:57:02Z</time>
      </trkpt>
      <trkpt lat="45.86235" lon="5.63887">
        <ele>925.6</ele>
        <time>2026-05-12T11:57:03Z</time>
      </trkpt>
      <trkpt lat="45.86232" lon="5.63886">
        <ele>925.8</ele>
        <time>2026-05-12T11:57:04Z</time>
      </trkpt>
      <trkpt lat="45.86231" lon="5.63886">
        <ele>926.2</ele>
        <time>2026-05-12T11:57:05Z</time>
      </trkpt>
      <trkpt lat="45.8623" lon="5.63886">
        <ele>926.4</ele>
        <time>2026-05-12T11:57:06Z</time>
      </trkpt>
      <trkpt lat="45.86227" lon="5.63886">
        <ele>926.4</ele>
        <time>2026-05-12T11:57:07Z</time>
      </trkpt>
      <trkpt lat="45.86224" lon="5.63886">
        <ele>926.4</ele>
        <time>2026-05-12T11:57:08Z</time>
      </trkpt>
      <trkpt lat="45.86222" lon="5.63885">
        <ele>926.4</ele>
        <time>2026-05-12T11:57:09Z</time>
      </trkpt>
      <trkpt lat="45.8622" lon="5.63885">
        <ele>926.4</ele>
        <time>2026-05-12T11:57:10Z</time>
      </trkpt>
      <trkpt lat="45.86218" lon="5.63885">
        <ele>926.4</ele>
        <time>2026-05-12T11:57:11Z</time>
      </trkpt>
      <trkpt lat="45.86216" lon="5.63884">
        <ele>926.4</ele>
        <time>2026-05-12T11:57:12Z</time>
      </trkpt>
      <trkpt lat="45.86214" lon="5.63884">
        <ele>926</ele>
        <time>2026-05-12T11:57:13Z</time>
      </trkpt>
      <trkpt lat="45.86212" lon="5.63883">
        <ele>926.2</ele>
        <time>2026-05-12T11:57:14Z</time>
      </trkpt>
      <trkpt lat="45.86209" lon="5.6388">
        <ele>926</ele>
        <time>2026-05-12T11:57:15Z</time>
      </trkpt>
      <trkpt lat="45.86205" lon="5.63878">
        <ele>926</ele>
        <time>2026-05-12T11:57:16Z</time>
      </trkpt>
      <trkpt lat="45.86202" lon="5.63876">
        <ele>926</ele>
        <time>2026-05-12T11:57:17Z</time>
      </trkpt>
      <trkpt lat="45.86198" lon="5.63875">
        <ele>925.6</ele>
        <time>2026-05-12T11:57:18Z</time>
      </trkpt>
      <trkpt lat="45.86195" lon="5.63874">
        <ele>925.6</ele>
        <time>2026-05-12T11:57:19Z</time>
      </trkpt>
      <trkpt lat="45.86193" lon="5.63873">
        <ele>925.6</ele>
        <time>2026-05-12T11:57:20Z</time>
      </trkpt>
      <trkpt lat="45.86191" lon="5.63872">
        <ele>925.6</ele>
        <time>2026-05-12T11:57:21Z</time>
      </trkpt>
      <trkpt lat="45.86189" lon="5.63872">
        <ele>925.4</ele>
        <time>2026-05-12T11:57:22Z</time>
      </trkpt>
      <trkpt lat="45.86186" lon="5.63872">
        <ele>925.6</ele>
        <time>2026-05-12T11:57:23Z</time>
      </trkpt>
      <trkpt lat="45.86183" lon="5.63872">
        <ele>926</ele>
        <time>2026-05-12T11:57:24Z</time>
      </trkpt>
      <trkpt lat="45.8618" lon="5.63872">
        <ele>926</ele>
        <time>2026-05-12T11:57:25Z</time>
      </trkpt>
      <trkpt lat="45.86177" lon="5.63871">
        <ele>926.4</ele>
        <time>2026-05-12T11:57:26Z</time>
      </trkpt>
      <trkpt lat="45.86175" lon="5.6387">
        <ele>926.6</ele>
        <time>2026-05-12T11:57:27Z</time>
      </trkpt>
      <trkpt lat="45.86172" lon="5.63869">
        <ele>926.8</ele>
        <time>2026-05-12T11:57:28Z</time>
      </trkpt>
      <trkpt lat="45.8617" lon="5.63868">
        <ele>927.2</ele>
        <time>2026-05-12T11:57:29Z</time>
      </trkpt>
      <trkpt lat="45.86168" lon="5.63868">
        <ele>927.2</ele>
        <time>2026-05-12T11:57:30Z</time>
      </trkpt>
      <trkpt lat="45.86166" lon="5.63867">
        <ele>927.6</ele>
        <time>2026-05-12T11:57:31Z</time>
      </trkpt>
      <trkpt lat="45.86164" lon="5.63867">
        <ele>927.6</ele>
        <time>2026-05-12T11:57:32Z</time>
      </trkpt>
      <trkpt lat="45.86162" lon="5.63866">
        <ele>927.6</ele>
        <time>2026-05-12T11:57:33Z</time>
      </trkpt>
      <trkpt lat="45.8616" lon="5.63866">
        <ele>927.6</ele>
        <time>2026-05-12T11:57:34Z</time>
      </trkpt>
      <trkpt lat="45.86158" lon="5.63865">
        <ele>927.8</ele>
        <time>2026-05-12T11:57:35Z</time>
      </trkpt>
      <trkpt lat="45.86156" lon="5.63863">
        <ele>927.8</ele>
        <time>2026-05-12T11:57:36Z</time>
      </trkpt>
      <trkpt lat="45.86154" lon="5.63863">
        <ele>927.8</ele>
        <time>2026-05-12T11:57:37Z</time>
      </trkpt>
      <trkpt lat="45.86152" lon="5.63862">
        <ele>927.8</ele>
        <time>2026-05-12T11:57:38Z</time>
      </trkpt>
      <trkpt lat="45.86149" lon="5.6386">
        <ele>927.8</ele>
        <time>2026-05-12T11:57:39Z</time>
      </trkpt>
      <trkpt lat="45.86147" lon="5.63859">
        <ele>927.8</ele>
        <time>2026-05-12T11:57:40Z</time>
      </trkpt>
      <trkpt lat="45.86144" lon="5.63858">
        <ele>927.8</ele>
        <time>2026-05-12T11:57:41Z</time>
      </trkpt>
      <trkpt lat="45.86141" lon="5.63858">
        <ele>927.8</ele>
        <time>2026-05-12T11:57:42Z</time>
      </trkpt>
      <trkpt lat="45.86139" lon="5.63857">
        <ele>927.8</ele>
        <time>2026-05-12T11:57:43Z</time>
      </trkpt>
      <trkpt lat="45.86136" lon="5.63856">
        <ele>928</ele>
        <time>2026-05-12T11:57:44Z</time>
      </trkpt>
      <trkpt lat="45.86133" lon="5.63854">
        <ele>928</ele>
        <time>2026-05-12T11:57:45Z</time>
      </trkpt>
      <trkpt lat="45.8613" lon="5.63853">
        <ele>928.2</ele>
        <time>2026-05-12T11:57:46Z</time>
      </trkpt>
      <trkpt lat="45.86128" lon="5.63852">
        <ele>928.2</ele>
        <time>2026-05-12T11:57:47Z</time>
      </trkpt>
      <trkpt lat="45.86125" lon="5.6385">
        <ele>928.2</ele>
        <time>2026-05-12T11:57:48Z</time>
      </trkpt>
      <trkpt lat="45.86123" lon="5.63847">
        <ele>928.2</ele>
        <time>2026-05-12T11:57:49Z</time>
      </trkpt>
      <trkpt lat="45.8612" lon="5.63845">
        <ele>928.2</ele>
        <time>2026-05-12T11:57:50Z</time>
      </trkpt>
      <trkpt lat="45.86118" lon="5.63843">
        <ele>928.2</ele>
        <time>2026-05-12T11:57:51Z</time>
      </trkpt>
      <trkpt lat="45.86115" lon="5.6384">
        <ele>928.2</ele>
        <time>2026-05-12T11:57:52Z</time>
      </trkpt>
      <trkpt lat="45.86112" lon="5.63838">
        <ele>928.6</ele>
        <time>2026-05-12T11:57:53Z</time>
      </trkpt>
      <trkpt lat="45.86111" lon="5.63837">
        <ele>928.6</ele>
        <time>2026-05-12T11:57:54Z</time>
      </trkpt>
      <trkpt lat="45.86109" lon="5.63835">
        <ele>929</ele>
        <time>2026-05-12T11:57:55Z</time>
      </trkpt>
      <trkpt lat="45.86108" lon="5.63833">
        <ele>929</ele>
        <time>2026-05-12T11:57:56Z</time>
      </trkpt>
      <trkpt lat="45.86108" lon="5.63832">
        <ele>929</ele>
        <time>2026-05-12T11:57:57Z</time>
      </trkpt>
      <trkpt lat="45.86107" lon="5.63831">
        <ele>929.4</ele>
        <time>2026-05-12T11:57:58Z</time>
      </trkpt>
      <trkpt lat="45.86107" lon="5.6383">
        <ele>929.8</ele>
        <time>2026-05-12T11:57:59Z</time>
      </trkpt>
      <trkpt lat="45.86106" lon="5.63828">
        <ele>930.2</ele>
        <time>2026-05-12T11:58:00Z</time>
      </trkpt>
      <trkpt lat="45.86105" lon="5.63827">
        <ele>930.4</ele>
        <time>2026-05-12T11:58:01Z</time>
      </trkpt>
      <trkpt lat="45.86105" lon="5.63826">
        <ele>930.8</ele>
        <time>2026-05-12T11:58:02Z</time>
      </trkpt>
      <trkpt lat="45.86104" lon="5.63825">
        <ele>930.8</ele>
        <time>2026-05-12T11:58:03Z</time>
      </trkpt>
      <trkpt lat="45.86103" lon="5.63823">
        <ele>931</ele>
        <time>2026-05-12T11:58:04Z</time>
      </trkpt>
      <trkpt lat="45.86102" lon="5.63822">
        <ele>931.4</ele>
        <time>2026-05-12T11:58:05Z</time>
      </trkpt>
      <trkpt lat="45.86101" lon="5.63821">
        <ele>931.4</ele>
        <time>2026-05-12T11:58:06Z</time>
      </trkpt>
      <trkpt lat="45.86101" lon="5.6382">
        <ele>931.6</ele>
        <time>2026-05-12T11:58:07Z</time>
      </trkpt>
      <trkpt lat="45.861" lon="5.63819">
        <ele>931.6</ele>
        <time>2026-05-12T11:58:08Z</time>
      </trkpt>
      <trkpt lat="45.861" lon="5.63817">
        <ele>931.8</ele>
        <time>2026-05-12T11:58:09Z</time>
      </trkpt>
      <trkpt lat="45.86099" lon="5.63816">
        <ele>932.2</ele>
        <time>2026-05-12T11:58:10Z</time>
      </trkpt>
      <trkpt lat="45.86099" lon="5.63815">
        <ele>932.2</ele>
        <time>2026-05-12T11:58:11Z</time>
      </trkpt>
      <trkpt lat="45.86098" lon="5.63813">
        <ele>932.2</ele>
        <time>2026-05-12T11:58:12Z</time>
      </trkpt>
      <trkpt lat="45.86097" lon="5.63811">
        <ele>932.4</ele>
        <time>2026-05-12T11:58:13Z</time>
      </trkpt>
      <trkpt lat="45.86097" lon="5.6381">
        <ele>932.4</ele>
        <time>2026-05-12T11:58:14Z</time>
      </trkpt>
      <trkpt lat="45.86096" lon="5.63809">
        <ele>932.4</ele>
        <time>2026-05-12T11:58:15Z</time>
      </trkpt>
      <trkpt lat="45.86095" lon="5.63807">
        <ele>932.6</ele>
        <time>2026-05-12T11:58:16Z</time>
      </trkpt>
      <trkpt lat="45.86094" lon="5.63805">
        <ele>932.6</ele>
        <time>2026-05-12T11:58:17Z</time>
      </trkpt>
      <trkpt lat="45.86093" lon="5.63801">
        <ele>933</ele>
        <time>2026-05-12T11:58:18Z</time>
      </trkpt>
      <trkpt lat="45.86093" lon="5.638">
        <ele>933</ele>
        <time>2026-05-12T11:58:19Z</time>
      </trkpt>
      <trkpt lat="45.86092" lon="5.63799">
        <ele>933.2</ele>
        <time>2026-05-12T11:58:20Z</time>
      </trkpt>
      <trkpt lat="45.86091" lon="5.63799">
        <ele>933.2</ele>
        <time>2026-05-12T11:58:21Z</time>
      </trkpt>
      <trkpt lat="45.86089" lon="5.63798">
        <ele>933.2</ele>
        <time>2026-05-12T11:58:22Z</time>
      </trkpt>
      <trkpt lat="45.86088" lon="5.63797">
        <ele>933.4</ele>
        <time>2026-05-12T11:58:23Z</time>
      </trkpt>
      <trkpt lat="45.86087" lon="5.63795">
        <ele>933.4</ele>
        <time>2026-05-12T11:58:24Z</time>
      </trkpt>
      <trkpt lat="45.86085" lon="5.63794">
        <ele>933.8</ele>
        <time>2026-05-12T11:58:25Z</time>
      </trkpt>
      <trkpt lat="45.86084" lon="5.63792">
        <ele>934.2</ele>
        <time>2026-05-12T11:58:26Z</time>
      </trkpt>
      <trkpt lat="45.86083" lon="5.63791">
        <ele>934.2</ele>
        <time>2026-05-12T11:58:27Z</time>
      </trkpt>
      <trkpt lat="45.86082" lon="5.6379">
        <ele>934.6</ele>
        <time>2026-05-12T11:58:28Z</time>
      </trkpt>
      <trkpt lat="45.86082" lon="5.63789">
        <ele>934.6</ele>
        <time>2026-05-12T11:58:29Z</time>
      </trkpt>
      <trkpt lat="45.86081" lon="5.63787">
        <ele>934.8</ele>
        <time>2026-05-12T11:58:30Z</time>
      </trkpt>
      <trkpt lat="45.86081" lon="5.63785">
        <ele>935.2</ele>
        <time>2026-05-12T11:58:31Z</time>
      </trkpt>
      <trkpt lat="45.86081" lon="5.63784">
        <ele>935.2</ele>
        <time>2026-05-12T11:58:32Z</time>
      </trkpt>
      <trkpt lat="45.8608" lon="5.63783">
        <ele>935.4</ele>
        <time>2026-05-12T11:58:33Z</time>
      </trkpt>
      <trkpt lat="45.86079" lon="5.63781">
        <ele>935.4</ele>
        <time>2026-05-12T11:58:34Z</time>
      </trkpt>
      <trkpt lat="45.86078" lon="5.6378">
        <ele>935.8</ele>
        <time>2026-05-12T11:58:35Z</time>
      </trkpt>
      <trkpt lat="45.86077" lon="5.63779">
        <ele>936</ele>
        <time>2026-05-12T11:58:36Z</time>
      </trkpt>
      <trkpt lat="45.86076" lon="5.63777">
        <ele>936</ele>
        <time>2026-05-12T11:58:37Z</time>
      </trkpt>
      <trkpt lat="45.86075" lon="5.63776">
        <ele>936.4</ele>
        <time>2026-05-12T11:58:38Z</time>
      </trkpt>
      <trkpt lat="45.86074" lon="5.63775">
        <ele>936.4</ele>
        <time>2026-05-12T11:58:39Z</time>
      </trkpt>
      <trkpt lat="45.86073" lon="5.63773">
        <ele>936.6</ele>
        <time>2026-05-12T11:58:40Z</time>
      </trkpt>
      <trkpt lat="45.86072" lon="5.63771">
        <ele>936.6</ele>
        <time>2026-05-12T11:58:41Z</time>
      </trkpt>
      <trkpt lat="45.86071" lon="5.6377">
        <ele>936.8</ele>
        <time>2026-05-12T11:58:42Z</time>
      </trkpt>
      <trkpt lat="45.8607" lon="5.63768">
        <ele>936.8</ele>
        <time>2026-05-12T11:58:43Z</time>
      </trkpt>
      <trkpt lat="45.86069" lon="5.63767">
        <ele>937.2</ele>
        <time>2026-05-12T11:58:44Z</time>
      </trkpt>
      <trkpt lat="45.86068" lon="5.63766">
        <ele>937.2</ele>
        <time>2026-05-12T11:58:45Z</time>
      </trkpt>
      <trkpt lat="45.86068" lon="5.63764">
        <ele>937.6</ele>
        <time>2026-05-12T11:58:46Z</time>
      </trkpt>
      <trkpt lat="45.86068" lon="5.63763">
        <ele>937.6</ele>
        <time>2026-05-12T11:58:47Z</time>
      </trkpt>
      <trkpt lat="45.86068" lon="5.63763">
        <ele>937.8</ele>
        <time>2026-05-12T11:58:48Z</time>
      </trkpt>
      <trkpt lat="45.86068" lon="5.63761">
        <ele>937.8</ele>
        <time>2026-05-12T11:58:49Z</time>
      </trkpt>
      <trkpt lat="45.86068" lon="5.6376">
        <ele>938</ele>
        <time>2026-05-12T11:58:50Z</time>
      </trkpt>
      <trkpt lat="45.86068" lon="5.63758">
        <ele>938</ele>
        <time>2026-05-12T11:58:51Z</time>
      </trkpt>
      <trkpt lat="45.86068" lon="5.63757">
        <ele>938</ele>
        <time>2026-05-12T11:58:52Z</time>
      </trkpt>
      <trkpt lat="45.86067" lon="5.63754">
        <ele>938</ele>
        <time>2026-05-12T11:58:53Z</time>
      </trkpt>
      <trkpt lat="45.86067" lon="5.63752">
        <ele>938.6</ele>
        <time>2026-05-12T11:58:54Z</time>
      </trkpt>
      <trkpt lat="45.86067" lon="5.6375">
        <ele>938.6</ele>
        <time>2026-05-12T11:58:55Z</time>
      </trkpt>
      <trkpt lat="45.86067" lon="5.63749">
        <ele>938.8</ele>
        <time>2026-05-12T11:58:56Z</time>
      </trkpt>
      <trkpt lat="45.86067" lon="5.63747">
        <ele>939.2</ele>
        <time>2026-05-12T11:58:57Z</time>
      </trkpt>
      <trkpt lat="45.86066" lon="5.63746">
        <ele>939.2</ele>
        <time>2026-05-12T11:58:58Z</time>
      </trkpt>
      <trkpt lat="45.86066" lon="5.63745">
        <ele>939.4</ele>
        <time>2026-05-12T11:58:59Z</time>
      </trkpt>
      <trkpt lat="45.86065" lon="5.63743">
        <ele>939.4</ele>
        <time>2026-05-12T11:59:00Z</time>
      </trkpt>
      <trkpt lat="45.86065" lon="5.63741">
        <ele>939.6</ele>
        <time>2026-05-12T11:59:01Z</time>
      </trkpt>
      <trkpt lat="45.86064" lon="5.6374">
        <ele>939.6</ele>
        <time>2026-05-12T11:59:02Z</time>
      </trkpt>
      <trkpt lat="45.86063" lon="5.63738">
        <ele>939.6</ele>
        <time>2026-05-12T11:59:03Z</time>
      </trkpt>
      <trkpt lat="45.86063" lon="5.63737">
        <ele>939.6</ele>
        <time>2026-05-12T11:59:04Z</time>
      </trkpt>
      <trkpt lat="45.86062" lon="5.63735">
        <ele>940.2</ele>
        <time>2026-05-12T11:59:05Z</time>
      </trkpt>
      <trkpt lat="45.86062" lon="5.63733">
        <ele>940.2</ele>
        <time>2026-05-12T11:59:06Z</time>
      </trkpt>
      <trkpt lat="45.86062" lon="5.6373">
        <ele>940.2</ele>
        <time>2026-05-12T11:59:07Z</time>
      </trkpt>
      <trkpt lat="45.86063" lon="5.63729">
        <ele>940.8</ele>
        <time>2026-05-12T11:59:08Z</time>
      </trkpt>
      <trkpt lat="45.86063" lon="5.63728">
        <ele>941</ele>
        <time>2026-05-12T11:59:09Z</time>
      </trkpt>
      <trkpt lat="45.86062" lon="5.63727">
        <ele>941.2</ele>
        <time>2026-05-12T11:59:10Z</time>
      </trkpt>
      <trkpt lat="45.86062" lon="5.63726">
        <ele>941.6</ele>
        <time>2026-05-12T11:59:11Z</time>
      </trkpt>
      <trkpt lat="45.86062" lon="5.63726">
        <ele>941.6</ele>
        <time>2026-05-12T11:59:14Z</time>
      </trkpt>
      <trkpt lat="45.86062" lon="5.63724">
        <ele>941.6</ele>
        <time>2026-05-12T11:59:15Z</time>
      </trkpt>
      <trkpt lat="45.86063" lon="5.63723">
        <ele>941.6</ele>
        <time>2026-05-12T11:59:16Z</time>
      </trkpt>
      <trkpt lat="45.86063" lon="5.63722">
        <ele>941.6</ele>
        <time>2026-05-12T11:59:17Z</time>
      </trkpt>
      <trkpt lat="45.86063" lon="5.6372">
        <ele>941.6</ele>
        <time>2026-05-12T11:59:18Z</time>
      </trkpt>
      <trkpt lat="45.86063" lon="5.6372">
        <ele>941.8</ele>
        <time>2026-05-12T11:59:19Z</time>
      </trkpt>
      <trkpt lat="45.86062" lon="5.63718">
        <ele>941.8</ele>
        <time>2026-05-12T11:59:20Z</time>
      </trkpt>
      <trkpt lat="45.86062" lon="5.63718">
        <ele>942.2</ele>
        <time>2026-05-12T11:59:21Z</time>
      </trkpt>
      <trkpt lat="45.86062" lon="5.63717">
        <ele>942.2</ele>
        <time>2026-05-12T11:59:22Z</time>
      </trkpt>
      <trkpt lat="45.86061" lon="5.63716">
        <ele>942.6</ele>
        <time>2026-05-12T11:59:23Z</time>
      </trkpt>
      <trkpt lat="45.86061" lon="5.63715">
        <ele>942.6</ele>
        <time>2026-05-12T11:59:24Z</time>
      </trkpt>
      <trkpt lat="45.86061" lon="5.63714">
        <ele>942.8</ele>
        <time>2026-05-12T11:59:25Z</time>
      </trkpt>
      <trkpt lat="45.8606" lon="5.63713">
        <ele>943</ele>
        <time>2026-05-12T11:59:26Z</time>
      </trkpt>
      <trkpt lat="45.8606" lon="5.63712">
        <ele>943</ele>
        <time>2026-05-12T11:59:27Z</time>
      </trkpt>
      <trkpt lat="45.8606" lon="5.63711">
        <ele>943.4</ele>
        <time>2026-05-12T11:59:28Z</time>
      </trkpt>
      <trkpt lat="45.86059" lon="5.6371">
        <ele>943.4</ele>
        <time>2026-05-12T11:59:29Z</time>
      </trkpt>
      <trkpt lat="45.86059" lon="5.63709">
        <ele>943.4</ele>
        <time>2026-05-12T11:59:30Z</time>
      </trkpt>
      <trkpt lat="45.86058" lon="5.63708">
        <ele>943.6</ele>
        <time>2026-05-12T11:59:31Z</time>
      </trkpt>
      <trkpt lat="45.86058" lon="5.63707">
        <ele>944</ele>
        <time>2026-05-12T11:59:32Z</time>
      </trkpt>
      <trkpt lat="45.86058" lon="5.63706">
        <ele>944.2</ele>
        <time>2026-05-12T11:59:33Z</time>
      </trkpt>
      <trkpt lat="45.86057" lon="5.63704">
        <ele>944.4</ele>
        <time>2026-05-12T11:59:34Z</time>
      </trkpt>
      <trkpt lat="45.86057" lon="5.63703">
        <ele>944.4</ele>
        <time>2026-05-12T11:59:35Z</time>
      </trkpt>
      <trkpt lat="45.86057" lon="5.63702">
        <ele>944.8</ele>
        <time>2026-05-12T11:59:36Z</time>
      </trkpt>
      <trkpt lat="45.86058" lon="5.63701">
        <ele>944.8</ele>
        <time>2026-05-12T11:59:37Z</time>
      </trkpt>
      <trkpt lat="45.86059" lon="5.637">
        <ele>945</ele>
        <time>2026-05-12T11:59:38Z</time>
      </trkpt>
      <trkpt lat="45.8606" lon="5.63698">
        <ele>945</ele>
        <time>2026-05-12T11:59:39Z</time>
      </trkpt>
      <trkpt lat="45.8606" lon="5.63697">
        <ele>945</ele>
        <time>2026-05-12T11:59:40Z</time>
      </trkpt>
      <trkpt lat="45.86059" lon="5.63696">
        <ele>945</ele>
        <time>2026-05-12T11:59:41Z</time>
      </trkpt>
      <trkpt lat="45.86059" lon="5.63695">
        <ele>945.2</ele>
        <time>2026-05-12T11:59:42Z</time>
      </trkpt>
      <trkpt lat="45.86058" lon="5.63694">
        <ele>945.2</ele>
        <time>2026-05-12T11:59:43Z</time>
      </trkpt>
      <trkpt lat="45.86057" lon="5.63693">
        <ele>945.2</ele>
        <time>2026-05-12T11:59:44Z</time>
      </trkpt>
      <trkpt lat="45.86057" lon="5.63691">
        <ele>945.2</ele>
        <time>2026-05-12T11:59:45Z</time>
      </trkpt>
      <trkpt lat="45.86057" lon="5.63689">
        <ele>945.4</ele>
        <time>2026-05-12T11:59:46Z</time>
      </trkpt>
      <trkpt lat="45.86056" lon="5.63688">
        <ele>945.4</ele>
        <time>2026-05-12T11:59:47Z</time>
      </trkpt>
      <trkpt lat="45.86057" lon="5.63687">
        <ele>945.4</ele>
        <time>2026-05-12T11:59:48Z</time>
      </trkpt>
      <trkpt lat="45.86057" lon="5.63685">
        <ele>945.8</ele>
        <time>2026-05-12T11:59:49Z</time>
      </trkpt>
      <trkpt lat="45.86057" lon="5.63683">
        <ele>945.8</ele>
        <time>2026-05-12T11:59:50Z</time>
      </trkpt>
      <trkpt lat="45.86057" lon="5.63682">
        <ele>945.8</ele>
        <time>2026-05-12T11:59:51Z</time>
      </trkpt>
      <trkpt lat="45.86057" lon="5.63682">
        <ele>945.8</ele>
        <time>2026-05-12T11:59:52Z</time>
      </trkpt>
      <trkpt lat="45.86057" lon="5.63682">
        <ele>945.8</ele>
        <time>2026-05-12T11:59:53Z</time>
      </trkpt>
      <trkpt lat="45.86057" lon="5.63682">
        <ele>945.8</ele>
        <time>2026-05-12T11:59:54Z</time>
      </trkpt>
      <trkpt lat="45.86057" lon="5.63682">
        <ele>945.8</ele>
        <time>2026-05-12T11:59:55Z</time>
      </trkpt>
      <trkpt lat="45.86057" lon="5.63677">
        <ele>946</ele>
        <time>2026-05-12T11:59:57Z</time>
      </trkpt>
      <trkpt lat="45.86057" lon="5.63675">
        <ele>946</ele>
        <time>2026-05-12T11:59:58Z</time>
      </trkpt>
      <trkpt lat="45.86057" lon="5.63672">
        <ele>946</ele>
        <time>2026-05-12T11:59:59Z</time>
      </trkpt>
      <trkpt lat="45.86057" lon="5.6367">
        <ele>946</ele>
        <time>2026-05-12T12:00:00Z</time>
      </trkpt>
      <trkpt lat="45.86057" lon="5.63668">
        <ele>946</ele>
        <time>2026-05-12T12:00:01Z</time>
      </trkpt>
      <trkpt lat="45.86057" lon="5.63665">
        <ele>946.4</ele>
        <time>2026-05-12T12:00:02Z</time>
      </trkpt>
      <trkpt lat="45.86057" lon="5.63663">
        <ele>946.4</ele>
        <time>2026-05-12T12:00:03Z</time>
      </trkpt>
      <trkpt lat="45.86057" lon="5.6366">
        <ele>946.4</ele>
        <time>2026-05-12T12:00:04Z</time>
      </trkpt>
      <trkpt lat="45.86056" lon="5.63659">
        <ele>946.4</ele>
        <time>2026-05-12T12:00:05Z</time>
      </trkpt>
      <trkpt lat="45.86056" lon="5.63657">
        <ele>946.4</ele>
        <time>2026-05-12T12:00:06Z</time>
      </trkpt>
      <trkpt lat="45.86056" lon="5.63654">
        <ele>946.4</ele>
        <time>2026-05-12T12:00:07Z</time>
      </trkpt>
      <trkpt lat="45.86056" lon="5.63651">
        <ele>946.6</ele>
        <time>2026-05-12T12:00:08Z</time>
      </trkpt>
      <trkpt lat="45.86056" lon="5.63648">
        <ele>946.6</ele>
        <time>2026-05-12T12:00:09Z</time>
      </trkpt>
      <trkpt lat="45.86055" lon="5.63645">
        <ele>946.6</ele>
        <time>2026-05-12T12:00:10Z</time>
      </trkpt>
      <trkpt lat="45.86055" lon="5.63642">
        <ele>946.2</ele>
        <time>2026-05-12T12:00:11Z</time>
      </trkpt>
      <trkpt lat="45.86055" lon="5.63639">
        <ele>946.2</ele>
        <time>2026-05-12T12:00:12Z</time>
      </trkpt>
      <trkpt lat="45.86054" lon="5.63636">
        <ele>946.2</ele>
        <time>2026-05-12T12:00:13Z</time>
      </trkpt>
      <trkpt lat="45.86053" lon="5.63633">
        <ele>946.2</ele>
        <time>2026-05-12T12:00:14Z</time>
      </trkpt>
      <trkpt lat="45.86054" lon="5.63631">
        <ele>946.2</ele>
        <time>2026-05-12T12:00:15Z</time>
      </trkpt>
      <trkpt lat="45.86054" lon="5.63628">
        <ele>946.6</ele>
        <time>2026-05-12T12:00:16Z</time>
      </trkpt>
      <trkpt lat="45.86054" lon="5.63626">
        <ele>946.6</ele>
        <time>2026-05-12T12:00:17Z</time>
      </trkpt>
      <trkpt lat="45.86054" lon="5.63623">
        <ele>946.6</ele>
        <time>2026-05-12T12:00:18Z</time>
      </trkpt>
      <trkpt lat="45.86054" lon="5.63621">
        <ele>946.6</ele>
        <time>2026-05-12T12:00:19Z</time>
      </trkpt>
      <trkpt lat="45.86054" lon="5.63619">
        <ele>946.8</ele>
        <time>2026-05-12T12:00:20Z</time>
      </trkpt>
      <trkpt lat="45.86054" lon="5.63616">
        <ele>947</ele>
        <time>2026-05-12T12:00:21Z</time>
      </trkpt>
      <trkpt lat="45.86053" lon="5.63614">
        <ele>947.2</ele>
        <time>2026-05-12T12:00:22Z</time>
      </trkpt>
      <trkpt lat="45.86054" lon="5.63609">
        <ele>947.4</ele>
        <time>2026-05-12T12:00:23Z</time>
      </trkpt>
      <trkpt lat="45.86054" lon="5.63607">
        <ele>947.4</ele>
        <time>2026-05-12T12:00:24Z</time>
      </trkpt>
      <trkpt lat="45.86053" lon="5.63604">
        <ele>948</ele>
        <time>2026-05-12T12:00:25Z</time>
      </trkpt>
      <trkpt lat="45.86053" lon="5.63602">
        <ele>948</ele>
        <time>2026-05-12T12:00:26Z</time>
      </trkpt>
      <trkpt lat="45.86052" lon="5.636">
        <ele>948.4</ele>
        <time>2026-05-12T12:00:27Z</time>
      </trkpt>
      <trkpt lat="45.86052" lon="5.63597">
        <ele>948.8</ele>
        <time>2026-05-12T12:00:28Z</time>
      </trkpt>
      <trkpt lat="45.86051" lon="5.63595">
        <ele>948.8</ele>
        <time>2026-05-12T12:00:29Z</time>
      </trkpt>
      <trkpt lat="45.86051" lon="5.63593">
        <ele>949</ele>
        <time>2026-05-12T12:00:30Z</time>
      </trkpt>
      <trkpt lat="45.86051" lon="5.6359">
        <ele>949.4</ele>
        <time>2026-05-12T12:00:31Z</time>
      </trkpt>
      <trkpt lat="45.86051" lon="5.63588">
        <ele>949.4</ele>
        <time>2026-05-12T12:00:32Z</time>
      </trkpt>
      <trkpt lat="45.86052" lon="5.63586">
        <ele>949.6</ele>
        <time>2026-05-12T12:00:33Z</time>
      </trkpt>
      <trkpt lat="45.86053" lon="5.63584">
        <ele>949.8</ele>
        <time>2026-05-12T12:00:34Z</time>
      </trkpt>
      <trkpt lat="45.86053" lon="5.63581">
        <ele>950.2</ele>
        <time>2026-05-12T12:00:35Z</time>
      </trkpt>
      <trkpt lat="45.86053" lon="5.63579">
        <ele>950.2</ele>
        <time>2026-05-12T12:00:36Z</time>
      </trkpt>
      <trkpt lat="45.86053" lon="5.63577">
        <ele>950.6</ele>
        <time>2026-05-12T12:00:37Z</time>
      </trkpt>
      <trkpt lat="45.86052" lon="5.63575">
        <ele>950.8</ele>
        <time>2026-05-12T12:00:38Z</time>
      </trkpt>
      <trkpt lat="45.86052" lon="5.63574">
        <ele>951.2</ele>
        <time>2026-05-12T12:00:39Z</time>
      </trkpt>
      <trkpt lat="45.86051" lon="5.63572">
        <ele>951.2</ele>
        <time>2026-05-12T12:00:40Z</time>
      </trkpt>
      <trkpt lat="45.86051" lon="5.6357">
        <ele>951.6</ele>
        <time>2026-05-12T12:00:41Z</time>
      </trkpt>
      <trkpt lat="45.8605" lon="5.63568">
        <ele>952.2</ele>
        <time>2026-05-12T12:00:42Z</time>
      </trkpt>
      <trkpt lat="45.8605" lon="5.63566">
        <ele>952.2</ele>
        <time>2026-05-12T12:00:43Z</time>
      </trkpt>
      <trkpt lat="45.8605" lon="5.63564">
        <ele>952.6</ele>
        <time>2026-05-12T12:00:44Z</time>
      </trkpt>
      <trkpt lat="45.8605" lon="5.63562">
        <ele>952.8</ele>
        <time>2026-05-12T12:00:45Z</time>
      </trkpt>
      <trkpt lat="45.8605" lon="5.6356">
        <ele>953</ele>
        <time>2026-05-12T12:00:46Z</time>
      </trkpt>
      <trkpt lat="45.8605" lon="5.63557">
        <ele>953.2</ele>
        <time>2026-05-12T12:00:47Z</time>
      </trkpt>
      <trkpt lat="45.8605" lon="5.63555">
        <ele>953.6</ele>
        <time>2026-05-12T12:00:48Z</time>
      </trkpt>
      <trkpt lat="45.86049" lon="5.63553">
        <ele>953.6</ele>
        <time>2026-05-12T12:00:49Z</time>
      </trkpt>
      <trkpt lat="45.86049" lon="5.63551">
        <ele>953.6</ele>
        <time>2026-05-12T12:00:50Z</time>
      </trkpt>
      <trkpt lat="45.86048" lon="5.63548">
        <ele>953.8</ele>
        <time>2026-05-12T12:00:51Z</time>
      </trkpt>
      <trkpt lat="45.86049" lon="5.63546">
        <ele>953.8</ele>
        <time>2026-05-12T12:00:52Z</time>
      </trkpt>
      <trkpt lat="45.86049" lon="5.63546">
        <ele>953.8</ele>
        <time>2026-05-12T12:00:53Z</time>
      </trkpt>
      <trkpt lat="45.86049" lon="5.63545">
        <ele>954.2</ele>
        <time>2026-05-12T12:00:54Z</time>
      </trkpt>
      <trkpt lat="45.8605" lon="5.63543">
        <ele>954.2</ele>
        <time>2026-05-12T12:00:55Z</time>
      </trkpt>
      <trkpt lat="45.8605" lon="5.63542">
        <ele>954.6</ele>
        <time>2026-05-12T12:00:56Z</time>
      </trkpt>
      <trkpt lat="45.86051" lon="5.6354">
        <ele>954.8</ele>
        <time>2026-05-12T12:00:57Z</time>
      </trkpt>
      <trkpt lat="45.8605" lon="5.63538">
        <ele>954.8</ele>
        <time>2026-05-12T12:00:58Z</time>
      </trkpt>
      <trkpt lat="45.86049" lon="5.63535">
        <ele>955</ele>
        <time>2026-05-12T12:00:59Z</time>
      </trkpt>
      <trkpt lat="45.86048" lon="5.63533">
        <ele>955</ele>
        <time>2026-05-12T12:01:00Z</time>
      </trkpt>
      <trkpt lat="45.86047" lon="5.63532">
        <ele>955.4</ele>
        <time>2026-05-12T12:01:01Z</time>
      </trkpt>
      <trkpt lat="45.86045" lon="5.6353">
        <ele>955.6</ele>
        <time>2026-05-12T12:01:02Z</time>
      </trkpt>
      <trkpt lat="45.86045" lon="5.63528">
        <ele>955.6</ele>
        <time>2026-05-12T12:01:03Z</time>
      </trkpt>
      <trkpt lat="45.86045" lon="5.63526">
        <ele>955.6</ele>
        <time>2026-05-12T12:01:04Z</time>
      </trkpt>
      <trkpt lat="45.86045" lon="5.63524">
        <ele>955.8</ele>
        <time>2026-05-12T12:01:05Z</time>
      </trkpt>
      <trkpt lat="45.86044" lon="5.63523">
        <ele>955.8</ele>
        <time>2026-05-12T12:01:06Z</time>
      </trkpt>
      <trkpt lat="45.86043" lon="5.63521">
        <ele>955.8</ele>
        <time>2026-05-12T12:01:07Z</time>
      </trkpt>
      <trkpt lat="45.86042" lon="5.63519">
        <ele>955.8</ele>
        <time>2026-05-12T12:01:08Z</time>
      </trkpt>
      <trkpt lat="45.86041" lon="5.63517">
        <ele>954.6</ele>
        <time>2026-05-12T12:01:09Z</time>
      </trkpt>
      <trkpt lat="45.86041" lon="5.63517">
        <ele>955</ele>
        <time>2026-05-12T12:01:10Z</time>
      </trkpt>
      <trkpt lat="45.86039" lon="5.63511">
        <ele>955</ele>
        <time>2026-05-12T12:01:12Z</time>
      </trkpt>
      <trkpt lat="45.86038" lon="5.63509">
        <ele>955</ele>
        <time>2026-05-12T12:01:13Z</time>
      </trkpt>
      <trkpt lat="45.86037" lon="5.63505">
        <ele>955.2</ele>
        <time>2026-05-12T12:01:14Z</time>
      </trkpt>
      <trkpt lat="45.86036" lon="5.63502">
        <ele>955.2</ele>
        <time>2026-05-12T12:01:15Z</time>
      </trkpt>
      <trkpt lat="45.86036" lon="5.63499">
        <ele>955.2</ele>
        <time>2026-05-12T12:01:16Z</time>
      </trkpt>
      <trkpt lat="45.86036" lon="5.63495">
        <ele>955.2</ele>
        <time>2026-05-12T12:01:17Z</time>
      </trkpt>
      <trkpt lat="45.86035" lon="5.63491">
        <ele>954.4</ele>
        <time>2026-05-12T12:01:18Z</time>
      </trkpt>
      <trkpt lat="45.86035" lon="5.63487">
        <ele>955</ele>
        <time>2026-05-12T12:01:19Z</time>
      </trkpt>
      <trkpt lat="45.86035" lon="5.63483">
        <ele>955</ele>
        <time>2026-05-12T12:01:20Z</time>
      </trkpt>
      <trkpt lat="45.86035" lon="5.63477">
        <ele>955</ele>
        <time>2026-05-12T12:01:21Z</time>
      </trkpt>
      <trkpt lat="45.86035" lon="5.6347">
        <ele>955</ele>
        <time>2026-05-12T12:01:22Z</time>
      </trkpt>
      <trkpt lat="45.86037" lon="5.63463">
        <ele>954.2</ele>
        <time>2026-05-12T12:01:23Z</time>
      </trkpt>
      <trkpt lat="45.86039" lon="5.63456">
        <ele>954.2</ele>
        <time>2026-05-12T12:01:24Z</time>
      </trkpt>
      <trkpt lat="45.86041" lon="5.63451">
        <ele>954.2</ele>
        <time>2026-05-12T12:01:25Z</time>
      </trkpt>
      <trkpt lat="45.86042" lon="5.63446">
        <ele>954.2</ele>
        <time>2026-05-12T12:01:26Z</time>
      </trkpt>
      <trkpt lat="45.86043" lon="5.63442">
        <ele>954.2</ele>
        <time>2026-05-12T12:01:27Z</time>
      </trkpt>
      <trkpt lat="45.86044" lon="5.6344">
        <ele>954.2</ele>
        <time>2026-05-12T12:01:28Z</time>
      </trkpt>
      <trkpt lat="45.86045" lon="5.63437">
        <ele>954.2</ele>
        <time>2026-05-12T12:01:29Z</time>
      </trkpt>
      <trkpt lat="45.86047" lon="5.63436">
        <ele>954.2</ele>
        <time>2026-05-12T12:01:30Z</time>
      </trkpt>
      <trkpt lat="45.86049" lon="5.63432">
        <ele>954.2</ele>
        <time>2026-05-12T12:01:31Z</time>
      </trkpt>
      <trkpt lat="45.86052" lon="5.63431">
        <ele>954.6</ele>
        <time>2026-05-12T12:01:32Z</time>
      </trkpt>
      <trkpt lat="45.86052" lon="5.6343">
        <ele>954.6</ele>
        <time>2026-05-12T12:01:33Z</time>
      </trkpt>
      <trkpt lat="45.86053" lon="5.63427">
        <ele>954.6</ele>
        <time>2026-05-12T12:01:34Z</time>
      </trkpt>
      <trkpt lat="45.86054" lon="5.63425">
        <ele>954.6</ele>
        <time>2026-05-12T12:01:35Z</time>
      </trkpt>
      <trkpt lat="45.86054" lon="5.63422">
        <ele>955.2</ele>
        <time>2026-05-12T12:01:36Z</time>
      </trkpt>
      <trkpt lat="45.86055" lon="5.6342">
        <ele>955.4</ele>
        <time>2026-05-12T12:01:37Z</time>
      </trkpt>
      <trkpt lat="45.86056" lon="5.63418">
        <ele>955.4</ele>
        <time>2026-05-12T12:01:38Z</time>
      </trkpt>
      <trkpt lat="45.86057" lon="5.63416">
        <ele>955.8</ele>
        <time>2026-05-12T12:01:39Z</time>
      </trkpt>
      <trkpt lat="45.86058" lon="5.63414">
        <ele>955.8</ele>
        <time>2026-05-12T12:01:40Z</time>
      </trkpt>
      <trkpt lat="45.86059" lon="5.63412">
        <ele>955.8</ele>
        <time>2026-05-12T12:01:41Z</time>
      </trkpt>
      <trkpt lat="45.8606" lon="5.6341">
        <ele>956.2</ele>
        <time>2026-05-12T12:01:42Z</time>
      </trkpt>
      <trkpt lat="45.86061" lon="5.63407">
        <ele>956.2</ele>
        <time>2026-05-12T12:01:43Z</time>
      </trkpt>
      <trkpt lat="45.86062" lon="5.63405">
        <ele>956.6</ele>
        <time>2026-05-12T12:01:44Z</time>
      </trkpt>
      <trkpt lat="45.86062" lon="5.63403">
        <ele>956.6</ele>
        <time>2026-05-12T12:01:45Z</time>
      </trkpt>
      <trkpt lat="45.86063" lon="5.634">
        <ele>956.8</ele>
        <time>2026-05-12T12:01:46Z</time>
      </trkpt>
      <trkpt lat="45.86063" lon="5.63398">
        <ele>956.8</ele>
        <time>2026-05-12T12:01:47Z</time>
      </trkpt>
      <trkpt lat="45.86064" lon="5.63396">
        <ele>957.2</ele>
        <time>2026-05-12T12:01:48Z</time>
      </trkpt>
      <trkpt lat="45.86065" lon="5.63393">
        <ele>957.2</ele>
        <time>2026-05-12T12:01:49Z</time>
      </trkpt>
      <trkpt lat="45.86065" lon="5.63391">
        <ele>957.4</ele>
        <time>2026-05-12T12:01:50Z</time>
      </trkpt>
      <trkpt lat="45.86066" lon="5.63389">
        <ele>957.4</ele>
        <time>2026-05-12T12:01:51Z</time>
      </trkpt>
      <trkpt lat="45.86067" lon="5.63387">
        <ele>957.8</ele>
        <time>2026-05-12T12:01:52Z</time>
      </trkpt>
      <trkpt lat="45.86068" lon="5.63385">
        <ele>957.8</ele>
        <time>2026-05-12T12:01:53Z</time>
      </trkpt>
      <trkpt lat="45.86069" lon="5.63383">
        <ele>958</ele>
        <time>2026-05-12T12:01:54Z</time>
      </trkpt>
      <trkpt lat="45.8607" lon="5.63381">
        <ele>958.2</ele>
        <time>2026-05-12T12:01:55Z</time>
      </trkpt>
      <trkpt lat="45.86071" lon="5.63379">
        <ele>958.2</ele>
        <time>2026-05-12T12:01:56Z</time>
      </trkpt>
      <trkpt lat="45.86072" lon="5.63376">
        <ele>958.4</ele>
        <time>2026-05-12T12:01:57Z</time>
      </trkpt>
      <trkpt lat="45.86073" lon="5.63374">
        <ele>958.4</ele>
        <time>2026-05-12T12:01:58Z</time>
      </trkpt>
      <trkpt lat="45.86073" lon="5.63371">
        <ele>958.4</ele>
        <time>2026-05-12T12:01:59Z</time>
      </trkpt>
      <trkpt lat="45.86075" lon="5.63369">
        <ele>958.6</ele>
        <time>2026-05-12T12:02:00Z</time>
      </trkpt>
      <trkpt lat="45.86076" lon="5.63366">
        <ele>958.6</ele>
        <time>2026-05-12T12:02:01Z</time>
      </trkpt>
      <trkpt lat="45.86078" lon="5.63364">
        <ele>959</ele>
        <time>2026-05-12T12:02:02Z</time>
      </trkpt>
      <trkpt lat="45.86079" lon="5.63363">
        <ele>959.4</ele>
        <time>2026-05-12T12:02:03Z</time>
      </trkpt>
      <trkpt lat="45.86081" lon="5.63362">
        <ele>959.8</ele>
        <time>2026-05-12T12:02:04Z</time>
      </trkpt>
      <trkpt lat="45.86082" lon="5.63361">
        <ele>960</ele>
        <time>2026-05-12T12:02:05Z</time>
      </trkpt>
      <trkpt lat="45.86084" lon="5.6336">
        <ele>960.2</ele>
        <time>2026-05-12T12:02:06Z</time>
      </trkpt>
      <trkpt lat="45.86085" lon="5.63358">
        <ele>960.4</ele>
        <time>2026-05-12T12:02:07Z</time>
      </trkpt>
      <trkpt lat="45.86086" lon="5.63356">
        <ele>960.4</ele>
        <time>2026-05-12T12:02:08Z</time>
      </trkpt>
      <trkpt lat="45.86087" lon="5.63354">
        <ele>960.8</ele>
        <time>2026-05-12T12:02:09Z</time>
      </trkpt>
      <trkpt lat="45.86088" lon="5.63353">
        <ele>961</ele>
        <time>2026-05-12T12:02:10Z</time>
      </trkpt>
      <trkpt lat="45.86089" lon="5.63351">
        <ele>961</ele>
        <time>2026-05-12T12:02:11Z</time>
      </trkpt>
      <trkpt lat="45.8609" lon="5.63349">
        <ele>961.4</ele>
        <time>2026-05-12T12:02:12Z</time>
      </trkpt>
      <trkpt lat="45.86091" lon="5.63347">
        <ele>961.4</ele>
        <time>2026-05-12T12:02:13Z</time>
      </trkpt>
      <trkpt lat="45.86093" lon="5.63346">
        <ele>961.6</ele>
        <time>2026-05-12T12:02:14Z</time>
      </trkpt>
      <trkpt lat="45.86094" lon="5.63345">
        <ele>961.6</ele>
        <time>2026-05-12T12:02:15Z</time>
      </trkpt>
      <trkpt lat="45.86095" lon="5.63344">
        <ele>962</ele>
        <time>2026-05-12T12:02:16Z</time>
      </trkpt>
      <trkpt lat="45.86095" lon="5.63343">
        <ele>962</ele>
        <time>2026-05-12T12:02:17Z</time>
      </trkpt>
      <trkpt lat="45.86096" lon="5.63341">
        <ele>962</ele>
        <time>2026-05-12T12:02:18Z</time>
      </trkpt>
      <trkpt lat="45.86097" lon="5.63339">
        <ele>962.2</ele>
        <time>2026-05-12T12:02:19Z</time>
      </trkpt>
      <trkpt lat="45.86098" lon="5.63338">
        <ele>962.2</ele>
        <time>2026-05-12T12:02:20Z</time>
      </trkpt>
      <trkpt lat="45.86098" lon="5.63337">
        <ele>962.8</ele>
        <time>2026-05-12T12:02:21Z</time>
      </trkpt>
      <trkpt lat="45.86099" lon="5.63336">
        <ele>963.2</ele>
        <time>2026-05-12T12:02:22Z</time>
      </trkpt>
      <trkpt lat="45.86101" lon="5.63335">
        <ele>963.2</ele>
        <time>2026-05-12T12:02:23Z</time>
      </trkpt>
      <trkpt lat="45.86102" lon="5.63334">
        <ele>963.8</ele>
        <time>2026-05-12T12:02:24Z</time>
      </trkpt>
      <trkpt lat="45.86103" lon="5.63333">
        <ele>964</ele>
        <time>2026-05-12T12:02:25Z</time>
      </trkpt>
      <trkpt lat="45.86104" lon="5.63332">
        <ele>964</ele>
        <time>2026-05-12T12:02:26Z</time>
      </trkpt>
      <trkpt lat="45.86105" lon="5.63331">
        <ele>964.4</ele>
        <time>2026-05-12T12:02:27Z</time>
      </trkpt>
      <trkpt lat="45.86106" lon="5.63329">
        <ele>964.8</ele>
        <time>2026-05-12T12:02:28Z</time>
      </trkpt>
      <trkpt lat="45.86107" lon="5.63328">
        <ele>965.2</ele>
        <time>2026-05-12T12:02:29Z</time>
      </trkpt>
      <trkpt lat="45.86108" lon="5.63326">
        <ele>965.2</ele>
        <time>2026-05-12T12:02:30Z</time>
      </trkpt>
      <trkpt lat="45.86109" lon="5.63325">
        <ele>965.4</ele>
        <time>2026-05-12T12:02:31Z</time>
      </trkpt>
      <trkpt lat="45.8611" lon="5.63324">
        <ele>965.8</ele>
        <time>2026-05-12T12:02:32Z</time>
      </trkpt>
      <trkpt lat="45.86111" lon="5.63322">
        <ele>965.8</ele>
        <time>2026-05-12T12:02:33Z</time>
      </trkpt>
      <trkpt lat="45.86111" lon="5.63321">
        <ele>965.8</ele>
        <time>2026-05-12T12:02:34Z</time>
      </trkpt>
      <trkpt lat="45.86112" lon="5.6332">
        <ele>966.2</ele>
        <time>2026-05-12T12:02:35Z</time>
      </trkpt>
      <trkpt lat="45.86113" lon="5.63319">
        <ele>966.4</ele>
        <time>2026-05-12T12:02:36Z</time>
      </trkpt>
      <trkpt lat="45.86113" lon="5.63317">
        <ele>966.4</ele>
        <time>2026-05-12T12:02:37Z</time>
      </trkpt>
      <trkpt lat="45.86114" lon="5.63316">
        <ele>966.8</ele>
        <time>2026-05-12T12:02:38Z</time>
      </trkpt>
      <trkpt lat="45.86115" lon="5.63315">
        <ele>967</ele>
        <time>2026-05-12T12:02:39Z</time>
      </trkpt>
      <trkpt lat="45.86116" lon="5.63314">
        <ele>967</ele>
        <time>2026-05-12T12:02:40Z</time>
      </trkpt>
      <trkpt lat="45.86117" lon="5.63313">
        <ele>967.6</ele>
        <time>2026-05-12T12:02:41Z</time>
      </trkpt>
      <trkpt lat="45.86119" lon="5.63311">
        <ele>967.6</ele>
        <time>2026-05-12T12:02:42Z</time>
      </trkpt>
      <trkpt lat="45.8612" lon="5.6331">
        <ele>968</ele>
        <time>2026-05-12T12:02:43Z</time>
      </trkpt>
      <trkpt lat="45.86122" lon="5.6331">
        <ele>968.4</ele>
        <time>2026-05-12T12:02:44Z</time>
      </trkpt>
      <trkpt lat="45.86124" lon="5.6331">
        <ele>968.6</ele>
        <time>2026-05-12T12:02:45Z</time>
      </trkpt>
      <trkpt lat="45.86126" lon="5.63309">
        <ele>968.6</ele>
        <time>2026-05-12T12:02:46Z</time>
      </trkpt>
      <trkpt lat="45.86127" lon="5.63309">
        <ele>968.6</ele>
        <time>2026-05-12T12:02:47Z</time>
      </trkpt>
      <trkpt lat="45.86127" lon="5.63308">
        <ele>968.6</ele>
        <time>2026-05-12T12:02:48Z</time>
      </trkpt>
      <trkpt lat="45.86128" lon="5.63307">
        <ele>968.6</ele>
        <time>2026-05-12T12:02:49Z</time>
      </trkpt>
      <trkpt lat="45.86129" lon="5.63306">
        <ele>969</ele>
        <time>2026-05-12T12:02:50Z</time>
      </trkpt>
      <trkpt lat="45.86131" lon="5.63305">
        <ele>969</ele>
        <time>2026-05-12T12:02:51Z</time>
      </trkpt>
      <trkpt lat="45.86132" lon="5.63304">
        <ele>969</ele>
        <time>2026-05-12T12:02:52Z</time>
      </trkpt>
      <trkpt lat="45.86133" lon="5.63303">
        <ele>969.2</ele>
        <time>2026-05-12T12:02:53Z</time>
      </trkpt>
      <trkpt lat="45.86134" lon="5.63301">
        <ele>969.2</ele>
        <time>2026-05-12T12:02:54Z</time>
      </trkpt>
      <trkpt lat="45.86135" lon="5.633">
        <ele>969.4</ele>
        <time>2026-05-12T12:02:55Z</time>
      </trkpt>
      <trkpt lat="45.86136" lon="5.63298">
        <ele>969.8</ele>
        <time>2026-05-12T12:02:56Z</time>
      </trkpt>
      <trkpt lat="45.86137" lon="5.63297">
        <ele>970</ele>
        <time>2026-05-12T12:02:57Z</time>
      </trkpt>
      <trkpt lat="45.86137" lon="5.63296">
        <ele>970.2</ele>
        <time>2026-05-12T12:02:58Z</time>
      </trkpt>
      <trkpt lat="45.86137" lon="5.63294">
        <ele>970.2</ele>
        <time>2026-05-12T12:02:59Z</time>
      </trkpt>
      <trkpt lat="45.86138" lon="5.63293">
        <ele>970.6</ele>
        <time>2026-05-12T12:03:00Z</time>
      </trkpt>
      <trkpt lat="45.86139" lon="5.63291">
        <ele>970.6</ele>
        <time>2026-05-12T12:03:01Z</time>
      </trkpt>
      <trkpt lat="45.8614" lon="5.6329">
        <ele>970.6</ele>
        <time>2026-05-12T12:03:02Z</time>
      </trkpt>
      <trkpt lat="45.8614" lon="5.63289">
        <ele>970.8</ele>
        <time>2026-05-12T12:03:03Z</time>
      </trkpt>
      <trkpt lat="45.86141" lon="5.63288">
        <ele>970.8</ele>
        <time>2026-05-12T12:03:04Z</time>
      </trkpt>
      <trkpt lat="45.86141" lon="5.63287">
        <ele>970.8</ele>
        <time>2026-05-12T12:03:05Z</time>
      </trkpt>
      <trkpt lat="45.86142" lon="5.63286">
        <ele>970.8</ele>
        <time>2026-05-12T12:03:06Z</time>
      </trkpt>
      <trkpt lat="45.86143" lon="5.63284">
        <ele>970.8</ele>
        <time>2026-05-12T12:03:07Z</time>
      </trkpt>
      <trkpt lat="45.86143" lon="5.63284">
        <ele>970.8</ele>
        <time>2026-05-12T12:03:08Z</time>
      </trkpt>
      <trkpt lat="45.86143" lon="5.63283">
        <ele>970.8</ele>
        <time>2026-05-12T12:03:09Z</time>
      </trkpt>
      <trkpt lat="45.86141" lon="5.63282">
        <ele>970.4</ele>
        <time>2026-05-12T12:03:30Z</time>
      </trkpt>
      <trkpt lat="45.86141" lon="5.63281">
        <ele>970.4</ele>
        <time>2026-05-12T12:03:31Z</time>
      </trkpt>
      <trkpt lat="45.86141" lon="5.6328">
        <ele>970.4</ele>
        <time>2026-05-12T12:03:32Z</time>
      </trkpt>
      <trkpt lat="45.86141" lon="5.63278">
        <ele>970.4</ele>
        <time>2026-05-12T12:03:33Z</time>
      </trkpt>
      <trkpt lat="45.8614" lon="5.63276">
        <ele>970.4</ele>
        <time>2026-05-12T12:03:34Z</time>
      </trkpt>
      <trkpt lat="45.8614" lon="5.63274">
        <ele>970.4</ele>
        <time>2026-05-12T12:03:35Z</time>
      </trkpt>
      <trkpt lat="45.8614" lon="5.63271">
        <ele>970</ele>
        <time>2026-05-12T12:03:36Z</time>
      </trkpt>
      <trkpt lat="45.8614" lon="5.63267">
        <ele>970</ele>
        <time>2026-05-12T12:03:37Z</time>
      </trkpt>
      <trkpt lat="45.86141" lon="5.63263">
        <ele>969.6</ele>
        <time>2026-05-12T12:03:38Z</time>
      </trkpt>
      <trkpt lat="45.86141" lon="5.63259">
        <ele>969.6</ele>
        <time>2026-05-12T12:03:39Z</time>
      </trkpt>
      <trkpt lat="45.8614" lon="5.63253">
        <ele>969.6</ele>
        <time>2026-05-12T12:03:40Z</time>
      </trkpt>
      <trkpt lat="45.86139" lon="5.63247">
        <ele>968.6</ele>
        <time>2026-05-12T12:03:41Z</time>
      </trkpt>
      <trkpt lat="45.86137" lon="5.63238">
        <ele>968.2</ele>
        <time>2026-05-12T12:03:42Z</time>
      </trkpt>
      <trkpt lat="45.86135" lon="5.63231">
        <ele>968.2</ele>
        <time>2026-05-12T12:03:43Z</time>
      </trkpt>
      <trkpt lat="45.86134" lon="5.63223">
        <ele>967.6</ele>
        <time>2026-05-12T12:03:44Z</time>
      </trkpt>
      <trkpt lat="45.86134" lon="5.63214">
        <ele>967</ele>
        <time>2026-05-12T12:03:45Z</time>
      </trkpt>
      <trkpt lat="45.86135" lon="5.63206">
        <ele>966.6</ele>
        <time>2026-05-12T12:03:46Z</time>
      </trkpt>
      <trkpt lat="45.86135" lon="5.63197">
        <ele>966.4</ele>
        <time>2026-05-12T12:03:47Z</time>
      </trkpt>
      <trkpt lat="45.86133" lon="5.63189">
        <ele>966</ele>
        <time>2026-05-12T12:03:48Z</time>
      </trkpt>
      <trkpt lat="45.86133" lon="5.63181">
        <ele>965.4</ele>
        <time>2026-05-12T12:03:49Z</time>
      </trkpt>
      <trkpt lat="45.86132" lon="5.63174">
        <ele>965.4</ele>
        <time>2026-05-12T12:03:50Z</time>
      </trkpt>
      <trkpt lat="45.86132" lon="5.63167">
        <ele>965.8</ele>
        <time>2026-05-12T12:03:51Z</time>
      </trkpt>
      <trkpt lat="45.86128" lon="5.63164">
        <ele>966.2</ele>
        <time>2026-05-12T12:03:52Z</time>
      </trkpt>
      <trkpt lat="45.86127" lon="5.6316">
        <ele>966.2</ele>
        <time>2026-05-12T12:03:53Z</time>
      </trkpt>
      <trkpt lat="45.86126" lon="5.63157">
        <ele>966.8</ele>
        <time>2026-05-12T12:03:54Z</time>
      </trkpt>
      <trkpt lat="45.86127" lon="5.63154">
        <ele>967</ele>
        <time>2026-05-12T12:03:55Z</time>
      </trkpt>
      <trkpt lat="45.86128" lon="5.63152">
        <ele>967.2</ele>
        <time>2026-05-12T12:03:56Z</time>
      </trkpt>
      <trkpt lat="45.86127" lon="5.63149">
        <ele>967.2</ele>
        <time>2026-05-12T12:03:57Z</time>
      </trkpt>
      <trkpt lat="45.86126" lon="5.63146">
        <ele>968</ele>
        <time>2026-05-12T12:03:58Z</time>
      </trkpt>
      <trkpt lat="45.86127" lon="5.63144">
        <ele>968</ele>
        <time>2026-05-12T12:03:59Z</time>
      </trkpt>
      <trkpt lat="45.86127" lon="5.63142">
        <ele>968.4</ele>
        <time>2026-05-12T12:04:00Z</time>
      </trkpt>
      <trkpt lat="45.86129" lon="5.6314">
        <ele>968.6</ele>
        <time>2026-05-12T12:04:01Z</time>
      </trkpt>
      <trkpt lat="45.86131" lon="5.63137">
        <ele>968.6</ele>
        <time>2026-05-12T12:04:02Z</time>
      </trkpt>
      <trkpt lat="45.86132" lon="5.63136">
        <ele>968.8</ele>
        <time>2026-05-12T12:04:03Z</time>
      </trkpt>
      <trkpt lat="45.86133" lon="5.63134">
        <ele>968.8</ele>
        <time>2026-05-12T12:04:04Z</time>
      </trkpt>
      <trkpt lat="45.86133" lon="5.63131">
        <ele>969.2</ele>
        <time>2026-05-12T12:04:05Z</time>
      </trkpt>
      <trkpt lat="45.86132" lon="5.63128">
        <ele>969.4</ele>
        <time>2026-05-12T12:04:06Z</time>
      </trkpt>
      <trkpt lat="45.86132" lon="5.63126">
        <ele>969.6</ele>
        <time>2026-05-12T12:04:07Z</time>
      </trkpt>
      <trkpt lat="45.86131" lon="5.63122">
        <ele>969.6</ele>
        <time>2026-05-12T12:04:08Z</time>
      </trkpt>
      <trkpt lat="45.8613" lon="5.6312">
        <ele>970.2</ele>
        <time>2026-05-12T12:04:09Z</time>
      </trkpt>
      <trkpt lat="45.86129" lon="5.63117">
        <ele>970.4</ele>
        <time>2026-05-12T12:04:10Z</time>
      </trkpt>
      <trkpt lat="45.86127" lon="5.63114">
        <ele>970.8</ele>
        <time>2026-05-12T12:04:11Z</time>
      </trkpt>
      <trkpt lat="45.86126" lon="5.63112">
        <ele>970.8</ele>
        <time>2026-05-12T12:04:12Z</time>
      </trkpt>
      <trkpt lat="45.86125" lon="5.6311">
        <ele>971</ele>
        <time>2026-05-12T12:04:13Z</time>
      </trkpt>
      <trkpt lat="45.86124" lon="5.63108">
        <ele>971</ele>
        <time>2026-05-12T12:04:14Z</time>
      </trkpt>
      <trkpt lat="45.86123" lon="5.63106">
        <ele>971.6</ele>
        <time>2026-05-12T12:04:15Z</time>
      </trkpt>
      <trkpt lat="45.86121" lon="5.63103">
        <ele>971.8</ele>
        <time>2026-05-12T12:04:16Z</time>
      </trkpt>
      <trkpt lat="45.8612" lon="5.63101">
        <ele>971.8</ele>
        <time>2026-05-12T12:04:17Z</time>
      </trkpt>
      <trkpt lat="45.8612" lon="5.63098">
        <ele>972</ele>
        <time>2026-05-12T12:04:18Z</time>
      </trkpt>
      <trkpt lat="45.8612" lon="5.63096">
        <ele>972.2</ele>
        <time>2026-05-12T12:04:19Z</time>
      </trkpt>
      <trkpt lat="45.86119" lon="5.63095">
        <ele>972.6</ele>
        <time>2026-05-12T12:04:20Z</time>
      </trkpt>
      <trkpt lat="45.86119" lon="5.63093">
        <ele>972.8</ele>
        <time>2026-05-12T12:04:21Z</time>
      </trkpt>
      <trkpt lat="45.86118" lon="5.63091">
        <ele>972.8</ele>
        <time>2026-05-12T12:04:22Z</time>
      </trkpt>
      <trkpt lat="45.86117" lon="5.63089">
        <ele>973.4</ele>
        <time>2026-05-12T12:04:23Z</time>
      </trkpt>
      <trkpt lat="45.86116" lon="5.63088">
        <ele>973.4</ele>
        <time>2026-05-12T12:04:24Z</time>
      </trkpt>
      <trkpt lat="45.86115" lon="5.63086">
        <ele>973.8</ele>
        <time>2026-05-12T12:04:25Z</time>
      </trkpt>
      <trkpt lat="45.86114" lon="5.63084">
        <ele>973.8</ele>
        <time>2026-05-12T12:04:26Z</time>
      </trkpt>
      <trkpt lat="45.86113" lon="5.63082">
        <ele>974</ele>
        <time>2026-05-12T12:04:27Z</time>
      </trkpt>
      <trkpt lat="45.86113" lon="5.6308">
        <ele>974</ele>
        <time>2026-05-12T12:04:28Z</time>
      </trkpt>
      <trkpt lat="45.86113" lon="5.63079">
        <ele>974</ele>
        <time>2026-05-12T12:04:29Z</time>
      </trkpt>
      <trkpt lat="45.86113" lon="5.63077">
        <ele>974.6</ele>
        <time>2026-05-12T12:04:30Z</time>
      </trkpt>
      <trkpt lat="45.86113" lon="5.63075">
        <ele>974.6</ele>
        <time>2026-05-12T12:04:31Z</time>
      </trkpt>
      <trkpt lat="45.86112" lon="5.63073">
        <ele>974.6</ele>
        <time>2026-05-12T12:04:32Z</time>
      </trkpt>
      <trkpt lat="45.86112" lon="5.63071">
        <ele>974.8</ele>
        <time>2026-05-12T12:04:33Z</time>
      </trkpt>
      <trkpt lat="45.86111" lon="5.63069">
        <ele>975.2</ele>
        <time>2026-05-12T12:04:34Z</time>
      </trkpt>
      <trkpt lat="45.8611" lon="5.63067">
        <ele>975.2</ele>
        <time>2026-05-12T12:04:35Z</time>
      </trkpt>
      <trkpt lat="45.86111" lon="5.63065">
        <ele>975.4</ele>
        <time>2026-05-12T12:04:36Z</time>
      </trkpt>
      <trkpt lat="45.86112" lon="5.63062">
        <ele>975.4</ele>
        <time>2026-05-12T12:04:37Z</time>
      </trkpt>
      <trkpt lat="45.86113" lon="5.63061">
        <ele>975.4</ele>
        <time>2026-05-12T12:04:38Z</time>
      </trkpt>
      <trkpt lat="45.86113" lon="5.63058">
        <ele>975.4</ele>
        <time>2026-05-12T12:04:39Z</time>
      </trkpt>
      <trkpt lat="45.86113" lon="5.63055">
        <ele>975.8</ele>
        <time>2026-05-12T12:04:40Z</time>
      </trkpt>
      <trkpt lat="45.86113" lon="5.63052">
        <ele>976</ele>
        <time>2026-05-12T12:04:41Z</time>
      </trkpt>
      <trkpt lat="45.86114" lon="5.6305">
        <ele>976</ele>
        <time>2026-05-12T12:04:42Z</time>
      </trkpt>
      <trkpt lat="45.86114" lon="5.63048">
        <ele>976</ele>
        <time>2026-05-12T12:04:43Z</time>
      </trkpt>
      <trkpt lat="45.86114" lon="5.63046">
        <ele>976</ele>
        <time>2026-05-12T12:04:44Z</time>
      </trkpt>
      <trkpt lat="45.86114" lon="5.63044">
        <ele>976.4</ele>
        <time>2026-05-12T12:04:45Z</time>
      </trkpt>
      <trkpt lat="45.86115" lon="5.63042">
        <ele>976.4</ele>
        <time>2026-05-12T12:04:46Z</time>
      </trkpt>
      <trkpt lat="45.86115" lon="5.6304">
        <ele>976.4</ele>
        <time>2026-05-12T12:04:47Z</time>
      </trkpt>
      <trkpt lat="45.86115" lon="5.63038">
        <ele>976.8</ele>
        <time>2026-05-12T12:04:48Z</time>
      </trkpt>
      <trkpt lat="45.86115" lon="5.63035">
        <ele>976.8</ele>
        <time>2026-05-12T12:04:49Z</time>
      </trkpt>
      <trkpt lat="45.86115" lon="5.63033">
        <ele>976.8</ele>
        <time>2026-05-12T12:04:50Z</time>
      </trkpt>
      <trkpt lat="45.86115" lon="5.6303">
        <ele>976.8</ele>
        <time>2026-05-12T12:04:51Z</time>
      </trkpt>
      <trkpt lat="45.86115" lon="5.63029">
        <ele>976.8</ele>
        <time>2026-05-12T12:04:52Z</time>
      </trkpt>
      <trkpt lat="45.86115" lon="5.63027">
        <ele>976</ele>
        <time>2026-05-12T12:04:53Z</time>
      </trkpt>
      <trkpt lat="45.86116" lon="5.63026">
        <ele>976</ele>
        <time>2026-05-12T12:04:54Z</time>
      </trkpt>
      <trkpt lat="45.86116" lon="5.63024">
        <ele>976.2</ele>
        <time>2026-05-12T12:04:55Z</time>
      </trkpt>
      <trkpt lat="45.86115" lon="5.63022">
        <ele>976.2</ele>
        <time>2026-05-12T12:04:56Z</time>
      </trkpt>
      <trkpt lat="45.86115" lon="5.63019">
        <ele>975.4</ele>
        <time>2026-05-12T12:04:57Z</time>
      </trkpt>
      <trkpt lat="45.86115" lon="5.63018">
        <ele>975.8</ele>
        <time>2026-05-12T12:04:58Z</time>
      </trkpt>
      <trkpt lat="45.86115" lon="5.63016">
        <ele>975.2</ele>
        <time>2026-05-12T12:04:59Z</time>
      </trkpt>
      <trkpt lat="45.86115" lon="5.63013">
        <ele>975.6</ele>
        <time>2026-05-12T12:05:00Z</time>
      </trkpt>
      <trkpt lat="45.86116" lon="5.63011">
        <ele>975.6</ele>
        <time>2026-05-12T12:05:01Z</time>
      </trkpt>
      <trkpt lat="45.86116" lon="5.63008">
        <ele>975.6</ele>
        <time>2026-05-12T12:05:02Z</time>
      </trkpt>
      <trkpt lat="45.86116" lon="5.63005">
        <ele>975.6</ele>
        <time>2026-05-12T12:05:03Z</time>
      </trkpt>
      <trkpt lat="45.86116" lon="5.63002">
        <ele>975.2</ele>
        <time>2026-05-12T12:05:04Z</time>
      </trkpt>
      <trkpt lat="45.86116" lon="5.62999">
        <ele>975.6</ele>
        <time>2026-05-12T12:05:05Z</time>
      </trkpt>
      <trkpt lat="45.86116" lon="5.62995">
        <ele>975.2</ele>
        <time>2026-05-12T12:05:06Z</time>
      </trkpt>
      <trkpt lat="45.86116" lon="5.62991">
        <ele>975</ele>
        <time>2026-05-12T12:05:07Z</time>
      </trkpt>
      <trkpt lat="45.86116" lon="5.62988">
        <ele>975</ele>
        <time>2026-05-12T12:05:08Z</time>
      </trkpt>
      <trkpt lat="45.86117" lon="5.62983">
        <ele>975</ele>
        <time>2026-05-12T12:05:09Z</time>
      </trkpt>
      <trkpt lat="45.86117" lon="5.62979">
        <ele>974.8</ele>
        <time>2026-05-12T12:05:10Z</time>
      </trkpt>
      <trkpt lat="45.86117" lon="5.62974">
        <ele>974.8</ele>
        <time>2026-05-12T12:05:11Z</time>
      </trkpt>
      <trkpt lat="45.86116" lon="5.62964">
        <ele>974.4</ele>
        <time>2026-05-12T12:05:12Z</time>
      </trkpt>
      <trkpt lat="45.86114" lon="5.62958">
        <ele>973.8</ele>
        <time>2026-05-12T12:05:13Z</time>
      </trkpt>
      <trkpt lat="45.86112" lon="5.62953">
        <ele>973.6</ele>
        <time>2026-05-12T12:05:14Z</time>
      </trkpt>
      <trkpt lat="45.86109" lon="5.62946">
        <ele>973.8</ele>
        <time>2026-05-12T12:05:15Z</time>
      </trkpt>
      <trkpt lat="45.86106" lon="5.6294">
        <ele>973</ele>
        <time>2026-05-12T12:05:16Z</time>
      </trkpt>
      <trkpt lat="45.86103" lon="5.62935">
        <ele>973.4</ele>
        <time>2026-05-12T12:05:17Z</time>
      </trkpt>
      <trkpt lat="45.86101" lon="5.6293">
        <ele>973.4</ele>
        <time>2026-05-12T12:05:18Z</time>
      </trkpt>
      <trkpt lat="45.86098" lon="5.62922">
        <ele>973.4</ele>
        <time>2026-05-12T12:05:19Z</time>
      </trkpt>
      <trkpt lat="45.86097" lon="5.62916">
        <ele>973</ele>
        <time>2026-05-12T12:05:20Z</time>
      </trkpt>
      <trkpt lat="45.86094" lon="5.6291">
        <ele>972.4</ele>
        <time>2026-05-12T12:05:21Z</time>
      </trkpt>
      <trkpt lat="45.86091" lon="5.62906">
        <ele>971.8</ele>
        <time>2026-05-12T12:05:22Z</time>
      </trkpt>
      <trkpt lat="45.86089" lon="5.629">
        <ele>971.8</ele>
        <time>2026-05-12T12:05:23Z</time>
      </trkpt>
      <trkpt lat="45.86087" lon="5.62894">
        <ele>971.4</ele>
        <time>2026-05-12T12:05:24Z</time>
      </trkpt>
      <trkpt lat="45.86085" lon="5.62889">
        <ele>971.4</ele>
        <time>2026-05-12T12:05:25Z</time>
      </trkpt>
      <trkpt lat="45.86083" lon="5.62882">
        <ele>971.4</ele>
        <time>2026-05-12T12:05:26Z</time>
      </trkpt>
      <trkpt lat="45.86082" lon="5.62876">
        <ele>971.2</ele>
        <time>2026-05-12T12:05:27Z</time>
      </trkpt>
      <trkpt lat="45.8608" lon="5.6287">
        <ele>971.2</ele>
        <time>2026-05-12T12:05:28Z</time>
      </trkpt>
      <trkpt lat="45.86077" lon="5.62865">
        <ele>971.2</ele>
        <time>2026-05-12T12:05:29Z</time>
      </trkpt>
      <trkpt lat="45.86077" lon="5.62859">
        <ele>971.2</ele>
        <time>2026-05-12T12:05:30Z</time>
      </trkpt>
      <trkpt lat="45.86077" lon="5.62856">
        <ele>971.2</ele>
        <time>2026-05-12T12:05:31Z</time>
      </trkpt>
      <trkpt lat="45.86074" lon="5.62853">
        <ele>971.4</ele>
        <time>2026-05-12T12:05:32Z</time>
      </trkpt>
      <trkpt lat="45.86073" lon="5.6285">
        <ele>971.4</ele>
        <time>2026-05-12T12:05:33Z</time>
      </trkpt>
      <trkpt lat="45.86071" lon="5.62846">
        <ele>971.4</ele>
        <time>2026-05-12T12:05:34Z</time>
      </trkpt>
      <trkpt lat="45.86069" lon="5.62843">
        <ele>971.4</ele>
        <time>2026-05-12T12:05:35Z</time>
      </trkpt>
      <trkpt lat="45.86068" lon="5.6284">
        <ele>971.6</ele>
        <time>2026-05-12T12:05:36Z</time>
      </trkpt>
      <trkpt lat="45.86067" lon="5.62837">
        <ele>971.6</ele>
        <time>2026-05-12T12:05:37Z</time>
      </trkpt>
      <trkpt lat="45.86067" lon="5.62834">
        <ele>971.6</ele>
        <time>2026-05-12T12:05:38Z</time>
      </trkpt>
      <trkpt lat="45.86066" lon="5.62831">
        <ele>972</ele>
        <time>2026-05-12T12:05:39Z</time>
      </trkpt>
      <trkpt lat="45.86065" lon="5.62828">
        <ele>971.6</ele>
        <time>2026-05-12T12:05:40Z</time>
      </trkpt>
      <trkpt lat="45.86065" lon="5.62826">
        <ele>972</ele>
        <time>2026-05-12T12:05:41Z</time>
      </trkpt>
      <trkpt lat="45.86064" lon="5.62823">
        <ele>972.4</ele>
        <time>2026-05-12T12:05:42Z</time>
      </trkpt>
      <trkpt lat="45.86064" lon="5.6282">
        <ele>972.8</ele>
        <time>2026-05-12T12:05:43Z</time>
      </trkpt>
      <trkpt lat="45.86063" lon="5.62817">
        <ele>973</ele>
        <time>2026-05-12T12:05:44Z</time>
      </trkpt>
      <trkpt lat="45.86062" lon="5.62815">
        <ele>973</ele>
        <time>2026-05-12T12:05:45Z</time>
      </trkpt>
      <trkpt lat="45.86061" lon="5.62813">
        <ele>973.2</ele>
        <time>2026-05-12T12:05:46Z</time>
      </trkpt>
      <trkpt lat="45.8606" lon="5.62811">
        <ele>973.2</ele>
        <time>2026-05-12T12:05:47Z</time>
      </trkpt>
      <trkpt lat="45.86059" lon="5.62808">
        <ele>973.2</ele>
        <time>2026-05-12T12:05:48Z</time>
      </trkpt>
      <trkpt lat="45.86058" lon="5.62805">
        <ele>973.2</ele>
        <time>2026-05-12T12:05:49Z</time>
      </trkpt>
      <trkpt lat="45.86058" lon="5.62803">
        <ele>973.2</ele>
        <time>2026-05-12T12:05:50Z</time>
      </trkpt>
      <trkpt lat="45.86057" lon="5.62801">
        <ele>973</ele>
        <time>2026-05-12T12:05:51Z</time>
      </trkpt>
      <trkpt lat="45.86057" lon="5.62799">
        <ele>972.6</ele>
        <time>2026-05-12T12:05:52Z</time>
      </trkpt>
      <trkpt lat="45.86058" lon="5.62799">
        <ele>972.6</ele>
        <time>2026-05-12T12:05:53Z</time>
      </trkpt>
      <trkpt lat="45.86058" lon="5.62797">
        <ele>972.6</ele>
        <time>2026-05-12T12:05:54Z</time>
      </trkpt>
      <trkpt lat="45.86058" lon="5.62795">
        <ele>972.6</ele>
        <time>2026-05-12T12:05:55Z</time>
      </trkpt>
      <trkpt lat="45.86058" lon="5.62793">
        <ele>972.6</ele>
        <time>2026-05-12T12:05:56Z</time>
      </trkpt>
      <trkpt lat="45.86058" lon="5.62793">
        <ele>972.6</ele>
        <time>2026-05-12T12:05:57Z</time>
      </trkpt>
      <trkpt lat="45.86058" lon="5.62791">
        <ele>972.6</ele>
        <time>2026-05-12T12:05:58Z</time>
      </trkpt>
      <trkpt lat="45.86057" lon="5.62789">
        <ele>972.6</ele>
        <time>2026-05-12T12:05:59Z</time>
      </trkpt>
      <trkpt lat="45.86058" lon="5.62786">
        <ele>972.4</ele>
        <time>2026-05-12T12:06:00Z</time>
      </trkpt>
      <trkpt lat="45.86058" lon="5.62783">
        <ele>972</ele>
        <time>2026-05-12T12:06:01Z</time>
      </trkpt>
      <trkpt lat="45.86058" lon="5.6278">
        <ele>972</ele>
        <time>2026-05-12T12:06:02Z</time>
      </trkpt>
      <trkpt lat="45.86059" lon="5.62777">
        <ele>972</ele>
        <time>2026-05-12T12:06:03Z</time>
      </trkpt>
      <trkpt lat="45.86061" lon="5.62774">
        <ele>972</ele>
        <time>2026-05-12T12:06:04Z</time>
      </trkpt>
      <trkpt lat="45.86062" lon="5.62772">
        <ele>972</ele>
        <time>2026-05-12T12:06:05Z</time>
      </trkpt>
      <trkpt lat="45.86064" lon="5.6277">
        <ele>972</ele>
        <time>2026-05-12T12:06:06Z</time>
      </trkpt>
      <trkpt lat="45.86065" lon="5.62769">
        <ele>972</ele>
        <time>2026-05-12T12:06:07Z</time>
      </trkpt>
      <trkpt lat="45.86066" lon="5.62767">
        <ele>972</ele>
        <time>2026-05-12T12:06:08Z</time>
      </trkpt>
      <trkpt lat="45.86067" lon="5.62765">
        <ele>972.4</ele>
        <time>2026-05-12T12:06:09Z</time>
      </trkpt>
      <trkpt lat="45.86068" lon="5.62763">
        <ele>972.4</ele>
        <time>2026-05-12T12:06:10Z</time>
      </trkpt>
      <trkpt lat="45.86069" lon="5.62761">
        <ele>972.4</ele>
        <time>2026-05-12T12:06:11Z</time>
      </trkpt>
      <trkpt lat="45.8607" lon="5.62759">
        <ele>972.4</ele>
        <time>2026-05-12T12:06:12Z</time>
      </trkpt>
      <trkpt lat="45.86071" lon="5.62758">
        <ele>972.6</ele>
        <time>2026-05-12T12:06:13Z</time>
      </trkpt>
      <trkpt lat="45.86072" lon="5.62756">
        <ele>973</ele>
        <time>2026-05-12T12:06:14Z</time>
      </trkpt>
      <trkpt lat="45.86072" lon="5.62755">
        <ele>973</ele>
        <time>2026-05-12T12:06:15Z</time>
      </trkpt>
      <trkpt lat="45.86073" lon="5.62753">
        <ele>973</ele>
        <time>2026-05-12T12:06:16Z</time>
      </trkpt>
      <trkpt lat="45.86073" lon="5.62751">
        <ele>973</ele>
        <time>2026-05-12T12:06:17Z</time>
      </trkpt>
      <trkpt lat="45.86073" lon="5.62749">
        <ele>973</ele>
        <time>2026-05-12T12:06:18Z</time>
      </trkpt>
      <trkpt lat="45.86073" lon="5.62747">
        <ele>973</ele>
        <time>2026-05-12T12:06:19Z</time>
      </trkpt>
      <trkpt lat="45.86072" lon="5.62745">
        <ele>973.2</ele>
        <time>2026-05-12T12:06:20Z</time>
      </trkpt>
      <trkpt lat="45.86071" lon="5.62743">
        <ele>973.2</ele>
        <time>2026-05-12T12:06:21Z</time>
      </trkpt>
      <trkpt lat="45.8607" lon="5.62741">
        <ele>973.4</ele>
        <time>2026-05-12T12:06:22Z</time>
      </trkpt>
      <trkpt lat="45.86069" lon="5.62739">
        <ele>973.4</ele>
        <time>2026-05-12T12:06:23Z</time>
      </trkpt>
      <trkpt lat="45.86068" lon="5.62736">
        <ele>973.4</ele>
        <time>2026-05-12T12:06:24Z</time>
      </trkpt>
      <trkpt lat="45.86068" lon="5.62734">
        <ele>973.4</ele>
        <time>2026-05-12T12:06:25Z</time>
      </trkpt>
      <trkpt lat="45.86068" lon="5.62732">
        <ele>973.4</ele>
        <time>2026-05-12T12:06:26Z</time>
      </trkpt>
      <trkpt lat="45.86068" lon="5.6273">
        <ele>973.4</ele>
        <time>2026-05-12T12:06:27Z</time>
      </trkpt>
      <trkpt lat="45.86067" lon="5.62729">
        <ele>973.2</ele>
        <time>2026-05-12T12:06:28Z</time>
      </trkpt>
      <trkpt lat="45.86066" lon="5.62728">
        <ele>973.2</ele>
        <time>2026-05-12T12:06:29Z</time>
      </trkpt>
      <trkpt lat="45.86065" lon="5.62727">
        <ele>973.4</ele>
        <time>2026-05-12T12:06:30Z</time>
      </trkpt>
      <trkpt lat="45.86064" lon="5.62726">
        <ele>973.4</ele>
        <time>2026-05-12T12:06:31Z</time>
      </trkpt>
      <trkpt lat="45.86062" lon="5.62725">
        <ele>973.4</ele>
        <time>2026-05-12T12:06:32Z</time>
      </trkpt>
      <trkpt lat="45.8606" lon="5.62723">
        <ele>973.2</ele>
        <time>2026-05-12T12:06:33Z</time>
      </trkpt>
      <trkpt lat="45.86059" lon="5.62722">
        <ele>973.2</ele>
        <time>2026-05-12T12:06:34Z</time>
      </trkpt>
      <trkpt lat="45.86059" lon="5.62721">
        <ele>973.2</ele>
        <time>2026-05-12T12:06:35Z</time>
      </trkpt>
      <trkpt lat="45.86059" lon="5.62721">
        <ele>972.8</ele>
        <time>2026-05-12T12:06:36Z</time>
      </trkpt>
      <trkpt lat="45.86059" lon="5.62721">
        <ele>972.8</ele>
        <time>2026-05-12T12:06:37Z</time>
      </trkpt>
      <trkpt lat="45.86059" lon="5.6272">
        <ele>972.6</ele>
        <time>2026-05-12T12:06:38Z</time>
      </trkpt>
      <trkpt lat="45.86059" lon="5.62719">
        <ele>972.6</ele>
        <time>2026-05-12T12:06:39Z</time>
      </trkpt>
      <trkpt lat="45.86058" lon="5.62719">
        <ele>972.4</ele>
        <time>2026-05-12T12:06:40Z</time>
      </trkpt>
      <trkpt lat="45.86058" lon="5.62719">
        <ele>973.2</ele>
        <time>2026-05-12T12:06:41Z</time>
      </trkpt>
      <trkpt lat="45.86058" lon="5.62719">
        <ele>972.8</ele>
        <time>2026-05-12T12:06:42Z</time>
      </trkpt>
      <trkpt lat="45.86057" lon="5.62719">
        <ele>972.2</ele>
        <time>2026-05-12T12:06:43Z</time>
      </trkpt>
      <trkpt lat="45.86056" lon="5.62718">
        <ele>972</ele>
        <time>2026-05-12T12:06:44Z</time>
      </trkpt>
      <trkpt lat="45.86054" lon="5.62718">
        <ele>971.4</ele>
        <time>2026-05-12T12:06:45Z</time>
      </trkpt>
      <trkpt lat="45.86052" lon="5.62717">
        <ele>970.8</ele>
        <time>2026-05-12T12:06:46Z</time>
      </trkpt>
      <trkpt lat="45.8605" lon="5.62716">
        <ele>970.8</ele>
        <time>2026-05-12T12:06:47Z</time>
      </trkpt>
      <trkpt lat="45.86048" lon="5.62715">
        <ele>970</ele>
        <time>2026-05-12T12:06:48Z</time>
      </trkpt>
      <trkpt lat="45.86045" lon="5.62715">
        <ele>969.4</ele>
        <time>2026-05-12T12:06:49Z</time>
      </trkpt>
      <trkpt lat="45.86043" lon="5.62714">
        <ele>969</ele>
        <time>2026-05-12T12:06:50Z</time>
      </trkpt>
      <trkpt lat="45.86041" lon="5.62713">
        <ele>968</ele>
        <time>2026-05-12T12:06:51Z</time>
      </trkpt>
      <trkpt lat="45.86039" lon="5.62712">
        <ele>968</ele>
        <time>2026-05-12T12:06:52Z</time>
      </trkpt>
      <trkpt lat="45.86038" lon="5.6271">
        <ele>968</ele>
        <time>2026-05-12T12:06:53Z</time>
      </trkpt>
      <trkpt lat="45.86037" lon="5.62709">
        <ele>967.4</ele>
        <time>2026-05-12T12:06:54Z</time>
      </trkpt>
      <trkpt lat="45.86034" lon="5.62707">
        <ele>967.4</ele>
        <time>2026-05-12T12:06:55Z</time>
      </trkpt>
      <trkpt lat="45.86032" lon="5.62706">
        <ele>967</ele>
        <time>2026-05-12T12:06:56Z</time>
      </trkpt>
      <trkpt lat="45.86025" lon="5.627">
        <ele>966.8</ele>
        <time>2026-05-12T12:06:57Z</time>
      </trkpt>
      <trkpt lat="45.86024" lon="5.627">
        <ele>966.6</ele>
        <time>2026-05-12T12:06:58Z</time>
      </trkpt>
      <trkpt lat="45.86019" lon="5.62697">
        <ele>966.6</ele>
        <time>2026-05-12T12:06:59Z</time>
      </trkpt>
      <trkpt lat="45.86018" lon="5.62697">
        <ele>966.2</ele>
        <time>2026-05-12T12:07:00Z</time>
      </trkpt>
      <trkpt lat="45.86016" lon="5.62697">
        <ele>966.2</ele>
        <time>2026-05-12T12:07:01Z</time>
      </trkpt>
      <trkpt lat="45.86015" lon="5.62697">
        <ele>966.2</ele>
        <time>2026-05-12T12:07:02Z</time>
      </trkpt>
      <trkpt lat="45.86014" lon="5.62697">
        <ele>966.2</ele>
        <time>2026-05-12T12:07:03Z</time>
      </trkpt>
      <trkpt lat="45.86014" lon="5.62697">
        <ele>966.2</ele>
        <time>2026-05-12T12:07:04Z</time>
      </trkpt>
      <trkpt lat="45.86013" lon="5.62698">
        <ele>966.2</ele>
        <time>2026-05-12T12:07:07Z</time>
      </trkpt>
      <trkpt lat="45.8601" lon="5.62698">
        <ele>966.2</ele>
        <time>2026-05-12T12:07:08Z</time>
      </trkpt>
      <trkpt lat="45.86009" lon="5.62698">
        <ele>965.8</ele>
        <time>2026-05-12T12:07:09Z</time>
      </trkpt>
      <trkpt lat="45.86009" lon="5.62698">
        <ele>965.6</ele>
        <time>2026-05-12T12:07:10Z</time>
      </trkpt>
      <trkpt lat="45.86008" lon="5.62698">
        <ele>965.6</ele>
        <time>2026-05-12T12:07:11Z</time>
      </trkpt>
      <trkpt lat="45.86008" lon="5.62698">
        <ele>965.6</ele>
        <time>2026-05-12T12:07:12Z</time>
      </trkpt>
      <trkpt lat="45.86008" lon="5.62699">
        <ele>965.2</ele>
        <time>2026-05-12T12:07:13Z</time>
      </trkpt>
      <trkpt lat="45.86008" lon="5.62699">
        <ele>965.2</ele>
        <time>2026-05-12T12:07:14Z</time>
      </trkpt>
      <trkpt lat="45.86007" lon="5.62699">
        <ele>964.8</ele>
        <time>2026-05-12T12:07:15Z</time>
      </trkpt>
      <trkpt lat="45.86006" lon="5.62699">
        <ele>964.8</ele>
        <time>2026-05-12T12:07:16Z</time>
      </trkpt>
      <trkpt lat="45.86006" lon="5.62699">
        <ele>964.8</ele>
        <time>2026-05-12T12:07:17Z</time>
      </trkpt>
      <trkpt lat="45.86006" lon="5.62698">
        <ele>965</ele>
        <time>2026-05-12T12:07:18Z</time>
      </trkpt>
      <trkpt lat="45.86006" lon="5.62699">
        <ele>965.2</ele>
        <time>2026-05-12T12:08:23Z</time>
      </trkpt>
      <trkpt lat="45.86005" lon="5.62699">
        <ele>965.2</ele>
        <time>2026-05-12T12:08:24Z</time>
      </trkpt>
      <trkpt lat="45.86005" lon="5.627">
        <ele>964.6</ele>
        <time>2026-05-12T12:08:25Z</time>
      </trkpt>
      <trkpt lat="45.86004" lon="5.62701">
        <ele>964.6</ele>
        <time>2026-05-12T12:08:26Z</time>
      </trkpt>
      <trkpt lat="45.86004" lon="5.62702">
        <ele>964.2</ele>
        <time>2026-05-12T12:08:27Z</time>
      </trkpt>
      <trkpt lat="45.86002" lon="5.62703">
        <ele>963.8</ele>
        <time>2026-05-12T12:08:28Z</time>
      </trkpt>
      <trkpt lat="45.86001" lon="5.62703">
        <ele>963.8</ele>
        <time>2026-05-12T12:08:29Z</time>
      </trkpt>
      <trkpt lat="45.86001" lon="5.62703">
        <ele>963.6</ele>
        <time>2026-05-12T12:08:30Z</time>
      </trkpt>
      <trkpt lat="45.86" lon="5.62702">
        <ele>963.6</ele>
        <time>2026-05-12T12:08:31Z</time>
      </trkpt>
      <trkpt lat="45.86" lon="5.62701">
        <ele>963.6</ele>
        <time>2026-05-12T12:08:32Z</time>
      </trkpt>
      <trkpt lat="45.86" lon="5.627">
        <ele>963.2</ele>
        <time>2026-05-12T12:08:33Z</time>
      </trkpt>
      <trkpt lat="45.85999" lon="5.62699">
        <ele>963.2</ele>
        <time>2026-05-12T12:08:34Z</time>
      </trkpt>
      <trkpt lat="45.85999" lon="5.62699">
        <ele>963</ele>
        <time>2026-05-12T12:08:35Z</time>
      </trkpt>
      <trkpt lat="45.85998" lon="5.627">
        <ele>962.8</ele>
        <time>2026-05-12T12:08:36Z</time>
      </trkpt>
      <trkpt lat="45.85997" lon="5.62701">
        <ele>962.8</ele>
        <time>2026-05-12T12:08:37Z</time>
      </trkpt>
      <trkpt lat="45.85997" lon="5.62701">
        <ele>962.6</ele>
        <time>2026-05-12T12:08:38Z</time>
      </trkpt>
      <trkpt lat="45.85997" lon="5.62701">
        <ele>962.6</ele>
        <time>2026-05-12T12:08:39Z</time>
      </trkpt>
      <trkpt lat="45.85997" lon="5.62699">
        <ele>970</ele>
        <time>2026-05-12T13:21:52Z</time>
      </trkpt>
      <trkpt lat="45.85998" lon="5.62698">
        <ele>970</ele>
        <time>2026-05-12T13:21:53Z</time>
      </trkpt>
      <trkpt lat="45.85998" lon="5.62698">
        <ele>970</ele>
        <time>2026-05-12T13:21:54Z</time>
      </trkpt>
      <trkpt lat="45.85998" lon="5.62698">
        <ele>970</ele>
        <time>2026-05-12T13:21:55Z</time>
      </trkpt>
      <trkpt lat="45.86001" lon="5.62698">
        <ele>970</ele>
        <time>2026-05-12T13:21:56Z</time>
      </trkpt>
      <trkpt lat="45.86002" lon="5.62699">
        <ele>970</ele>
        <time>2026-05-12T13:21:57Z</time>
      </trkpt>
      <trkpt lat="45.86002" lon="5.627">
        <ele>970</ele>
        <time>2026-05-12T13:21:58Z</time>
      </trkpt>
      <trkpt lat="45.86002" lon="5.627">
        <ele>970</ele>
        <time>2026-05-12T13:21:59Z</time>
      </trkpt>
      <trkpt lat="45.86002" lon="5.627">
        <ele>970.4</ele>
        <time>2026-05-12T13:22:00Z</time>
      </trkpt>
      <trkpt lat="45.86003" lon="5.62701">
        <ele>970.8</ele>
        <time>2026-05-12T13:22:01Z</time>
      </trkpt>
      <trkpt lat="45.86003" lon="5.62701">
        <ele>971.2</ele>
        <time>2026-05-12T13:22:02Z</time>
      </trkpt>
      <trkpt lat="45.86004" lon="5.62701">
        <ele>971.2</ele>
        <time>2026-05-12T13:22:03Z</time>
      </trkpt>
      <trkpt lat="45.86004" lon="5.62701">
        <ele>971.4</ele>
        <time>2026-05-12T13:22:04Z</time>
      </trkpt>
      <trkpt lat="45.86005" lon="5.62701">
        <ele>971.4</ele>
        <time>2026-05-12T13:22:05Z</time>
      </trkpt>
      <trkpt lat="45.86005" lon="5.62701">
        <ele>972</ele>
        <time>2026-05-12T13:22:06Z</time>
      </trkpt>
      <trkpt lat="45.86005" lon="5.62701">
        <ele>972</ele>
        <time>2026-05-12T13:22:07Z</time>
      </trkpt>
      <trkpt lat="45.86006" lon="5.62701">
        <ele>972.4</ele>
        <time>2026-05-12T13:22:08Z</time>
      </trkpt>
      <trkpt lat="45.86006" lon="5.627">
        <ele>972.4</ele>
        <time>2026-05-12T13:22:09Z</time>
      </trkpt>
      <trkpt lat="45.86007" lon="5.627">
        <ele>972.8</ele>
        <time>2026-05-12T13:22:10Z</time>
      </trkpt>
      <trkpt lat="45.86007" lon="5.62699">
        <ele>973</ele>
        <time>2026-05-12T13:22:11Z</time>
      </trkpt>
      <trkpt lat="45.86008" lon="5.62698">
        <ele>973.4</ele>
        <time>2026-05-12T13:22:12Z</time>
      </trkpt>
      <trkpt lat="45.86009" lon="5.62697">
        <ele>973.4</ele>
        <time>2026-05-12T13:22:13Z</time>
      </trkpt>
      <trkpt lat="45.8601" lon="5.62696">
        <ele>973.6</ele>
        <time>2026-05-12T13:22:14Z</time>
      </trkpt>
      <trkpt lat="45.8601" lon="5.62696">
        <ele>973.6</ele>
        <time>2026-05-12T13:22:15Z</time>
      </trkpt>
      <trkpt lat="45.86011" lon="5.62695">
        <ele>973.6</ele>
        <time>2026-05-12T13:22:16Z</time>
      </trkpt>
      <trkpt lat="45.86011" lon="5.62695">
        <ele>973.8</ele>
        <time>2026-05-12T13:22:17Z</time>
      </trkpt>
      <trkpt lat="45.86012" lon="5.62694">
        <ele>973.8</ele>
        <time>2026-05-12T13:22:18Z</time>
      </trkpt>
      <trkpt lat="45.86012" lon="5.62694">
        <ele>973.8</ele>
        <time>2026-05-12T13:22:19Z</time>
      </trkpt>
      <trkpt lat="45.86013" lon="5.62693">
        <ele>973.8</ele>
        <time>2026-05-12T13:22:20Z</time>
      </trkpt>
      <trkpt lat="45.86014" lon="5.62694">
        <ele>974.2</ele>
        <time>2026-05-12T13:22:21Z</time>
      </trkpt>
      <trkpt lat="45.86014" lon="5.62694">
        <ele>974.2</ele>
        <time>2026-05-12T13:22:22Z</time>
      </trkpt>
      <trkpt lat="45.86015" lon="5.62694">
        <ele>974.6</ele>
        <time>2026-05-12T13:22:23Z</time>
      </trkpt>
      <trkpt lat="45.86015" lon="5.62694">
        <ele>974.6</ele>
        <time>2026-05-12T13:22:24Z</time>
      </trkpt>
      <trkpt lat="45.86014" lon="5.62694">
        <ele>974.6</ele>
        <time>2026-05-12T13:22:25Z</time>
      </trkpt>
      <trkpt lat="45.86014" lon="5.62694">
        <ele>974.6</ele>
        <time>2026-05-12T13:22:28Z</time>
      </trkpt>
      <trkpt lat="45.86015" lon="5.62693">
        <ele>974.6</ele>
        <time>2026-05-12T13:22:29Z</time>
      </trkpt>
      <trkpt lat="45.86017" lon="5.62692">
        <ele>974.6</ele>
        <time>2026-05-12T13:22:30Z</time>
      </trkpt>
      <trkpt lat="45.86019" lon="5.62692">
        <ele>974.6</ele>
        <time>2026-05-12T13:22:31Z</time>
      </trkpt>
      <trkpt lat="45.8602" lon="5.62692">
        <ele>974.6</ele>
        <time>2026-05-12T13:22:32Z</time>
      </trkpt>
      <trkpt lat="45.86024" lon="5.62694">
        <ele>975.4</ele>
        <time>2026-05-12T13:22:37Z</time>
      </trkpt>
      <trkpt lat="45.86025" lon="5.62695">
        <ele>974.8</ele>
        <time>2026-05-12T13:22:43Z</time>
      </trkpt>
      <trkpt lat="45.86026" lon="5.62696">
        <ele>974.8</ele>
        <time>2026-05-12T13:22:44Z</time>
      </trkpt>
      <trkpt lat="45.86027" lon="5.62696">
        <ele>974.8</ele>
        <time>2026-05-12T13:22:48Z</time>
      </trkpt>
      <trkpt lat="45.86028" lon="5.62697">
        <ele>974.8</ele>
        <time>2026-05-12T13:22:49Z</time>
      </trkpt>
      <trkpt lat="45.86029" lon="5.62698">
        <ele>974.8</ele>
        <time>2026-05-12T13:22:50Z</time>
      </trkpt>
      <trkpt lat="45.8603" lon="5.627">
        <ele>975.2</ele>
        <time>2026-05-12T13:22:51Z</time>
      </trkpt>
      <trkpt lat="45.86031" lon="5.62701">
        <ele>975.2</ele>
        <time>2026-05-12T13:22:52Z</time>
      </trkpt>
      <trkpt lat="45.86032" lon="5.62702">
        <ele>975.2</ele>
        <time>2026-05-12T13:22:53Z</time>
      </trkpt>
      <trkpt lat="45.86032" lon="5.62702">
        <ele>975.4</ele>
        <time>2026-05-12T13:22:54Z</time>
      </trkpt>
      <trkpt lat="45.86033" lon="5.62703">
        <ele>975.4</ele>
        <time>2026-05-12T13:22:55Z</time>
      </trkpt>
      <trkpt lat="45.86033" lon="5.62704">
        <ele>975.4</ele>
        <time>2026-05-12T13:22:56Z</time>
      </trkpt>
      <trkpt lat="45.86035" lon="5.62704">
        <ele>975.8</ele>
        <time>2026-05-12T13:23:00Z</time>
      </trkpt>
      <trkpt lat="45.86035" lon="5.62704">
        <ele>975.8</ele>
        <time>2026-05-12T13:23:01Z</time>
      </trkpt>
      <trkpt lat="45.86035" lon="5.62704">
        <ele>975.8</ele>
        <time>2026-05-12T13:23:02Z</time>
      </trkpt>
      <trkpt lat="45.86036" lon="5.62704">
        <ele>975.8</ele>
        <time>2026-05-12T13:23:03Z</time>
      </trkpt>
      <trkpt lat="45.86037" lon="5.62705">
        <ele>975.8</ele>
        <time>2026-05-12T13:23:04Z</time>
      </trkpt>
      <trkpt lat="45.86038" lon="5.62706">
        <ele>976.2</ele>
        <time>2026-05-12T13:23:05Z</time>
      </trkpt>
      <trkpt lat="45.86039" lon="5.62708">
        <ele>976.2</ele>
        <time>2026-05-12T13:23:06Z</time>
      </trkpt>
      <trkpt lat="45.8604" lon="5.62709">
        <ele>976.2</ele>
        <time>2026-05-12T13:23:07Z</time>
      </trkpt>
      <trkpt lat="45.86041" lon="5.6271">
        <ele>976.2</ele>
        <time>2026-05-12T13:23:08Z</time>
      </trkpt>
      <trkpt lat="45.86041" lon="5.6271">
        <ele>976.4</ele>
        <time>2026-05-12T13:23:09Z</time>
      </trkpt>
      <trkpt lat="45.86041" lon="5.6271">
        <ele>976.6</ele>
        <time>2026-05-12T13:23:10Z</time>
      </trkpt>
      <trkpt lat="45.86042" lon="5.62712">
        <ele>976.6</ele>
        <time>2026-05-12T13:23:11Z</time>
      </trkpt>
      <trkpt lat="45.86043" lon="5.62713">
        <ele>977</ele>
        <time>2026-05-12T13:23:12Z</time>
      </trkpt>
      <trkpt lat="45.86044" lon="5.62713">
        <ele>977</ele>
        <time>2026-05-12T13:23:13Z</time>
      </trkpt>
      <trkpt lat="45.86045" lon="5.62713">
        <ele>977.2</ele>
        <time>2026-05-12T13:23:14Z</time>
      </trkpt>
      <trkpt lat="45.86045" lon="5.62713">
        <ele>977.2</ele>
        <time>2026-05-12T13:23:15Z</time>
      </trkpt>
      <trkpt lat="45.86046" lon="5.62713">
        <ele>977.6</ele>
        <time>2026-05-12T13:23:16Z</time>
      </trkpt>
      <trkpt lat="45.86046" lon="5.62713">
        <ele>977.6</ele>
        <time>2026-05-12T13:23:17Z</time>
      </trkpt>
      <trkpt lat="45.86047" lon="5.62713">
        <ele>977.8</ele>
        <time>2026-05-12T13:23:18Z</time>
      </trkpt>
      <trkpt lat="45.86048" lon="5.62714">
        <ele>977.8</ele>
        <time>2026-05-12T13:23:19Z</time>
      </trkpt>
      <trkpt lat="45.86049" lon="5.62715">
        <ele>978</ele>
        <time>2026-05-12T13:23:20Z</time>
      </trkpt>
      <trkpt lat="45.8605" lon="5.62715">
        <ele>978.4</ele>
        <time>2026-05-12T13:23:21Z</time>
      </trkpt>
      <trkpt lat="45.8605" lon="5.62715">
        <ele>978.4</ele>
        <time>2026-05-12T13:23:22Z</time>
      </trkpt>
      <trkpt lat="45.86049" lon="5.62715">
        <ele>978.6</ele>
        <time>2026-05-12T13:23:23Z</time>
      </trkpt>
      <trkpt lat="45.8605" lon="5.62715">
        <ele>978.6</ele>
        <time>2026-05-12T13:23:24Z</time>
      </trkpt>
      <trkpt lat="45.8605" lon="5.62715">
        <ele>979</ele>
        <time>2026-05-12T13:23:25Z</time>
      </trkpt>
      <trkpt lat="45.86051" lon="5.62716">
        <ele>979</ele>
        <time>2026-05-12T13:23:26Z</time>
      </trkpt>
      <trkpt lat="45.86051" lon="5.62716">
        <ele>979.4</ele>
        <time>2026-05-12T13:23:27Z</time>
      </trkpt>
      <trkpt lat="45.86052" lon="5.62716">
        <ele>979.4</ele>
        <time>2026-05-12T13:23:28Z</time>
      </trkpt>
      <trkpt lat="45.86052" lon="5.62716">
        <ele>979.8</ele>
        <time>2026-05-12T13:23:29Z</time>
      </trkpt>
      <trkpt lat="45.86053" lon="5.62717">
        <ele>980</ele>
        <time>2026-05-12T13:23:30Z</time>
      </trkpt>
      <trkpt lat="45.86056" lon="5.62717">
        <ele>981</ele>
        <time>2026-05-12T13:23:38Z</time>
      </trkpt>
      <trkpt lat="45.86057" lon="5.62717">
        <ele>981</ele>
        <time>2026-05-12T13:23:39Z</time>
      </trkpt>
      <trkpt lat="45.86058" lon="5.62718">
        <ele>981.4</ele>
        <time>2026-05-12T13:23:40Z</time>
      </trkpt>
      <trkpt lat="45.86058" lon="5.62718">
        <ele>981.4</ele>
        <time>2026-05-12T13:23:41Z</time>
      </trkpt>
      <trkpt lat="45.86059" lon="5.62719">
        <ele>981.4</ele>
        <time>2026-05-12T13:23:42Z</time>
      </trkpt>
      <trkpt lat="45.8606" lon="5.6272">
        <ele>981.4</ele>
        <time>2026-05-12T13:23:43Z</time>
      </trkpt>
      <trkpt lat="45.8606" lon="5.62721">
        <ele>981.6</ele>
        <time>2026-05-12T13:23:44Z</time>
      </trkpt>
      <trkpt lat="45.86061" lon="5.62722">
        <ele>981.6</ele>
        <time>2026-05-12T13:23:45Z</time>
      </trkpt>
      <trkpt lat="45.86062" lon="5.62723">
        <ele>981.6</ele>
        <time>2026-05-12T13:23:46Z</time>
      </trkpt>
      <trkpt lat="45.86062" lon="5.62723">
        <ele>981.6</ele>
        <time>2026-05-12T13:23:47Z</time>
      </trkpt>
      <trkpt lat="45.86062" lon="5.62724">
        <ele>981.8</ele>
        <time>2026-05-12T13:23:48Z</time>
      </trkpt>
      <trkpt lat="45.86063" lon="5.62725">
        <ele>981.8</ele>
        <time>2026-05-12T13:23:49Z</time>
      </trkpt>
      <trkpt lat="45.86064" lon="5.62726">
        <ele>981.8</ele>
        <time>2026-05-12T13:23:50Z</time>
      </trkpt>
      <trkpt lat="45.86065" lon="5.62727">
        <ele>981.8</ele>
        <time>2026-05-12T13:23:51Z</time>
      </trkpt>
      <trkpt lat="45.86066" lon="5.62728">
        <ele>982.4</ele>
        <time>2026-05-12T13:23:52Z</time>
      </trkpt>
      <trkpt lat="45.86067" lon="5.62729">
        <ele>982.4</ele>
        <time>2026-05-12T13:23:53Z</time>
      </trkpt>
      <trkpt lat="45.86068" lon="5.6273">
        <ele>982.4</ele>
        <time>2026-05-12T13:23:54Z</time>
      </trkpt>
      <trkpt lat="45.86068" lon="5.62731">
        <ele>982.4</ele>
        <time>2026-05-12T13:23:55Z</time>
      </trkpt>
      <trkpt lat="45.86068" lon="5.62732">
        <ele>982.4</ele>
        <time>2026-05-12T13:23:56Z</time>
      </trkpt>
      <trkpt lat="45.86068" lon="5.62733">
        <ele>982.4</ele>
        <time>2026-05-12T13:23:57Z</time>
      </trkpt>
      <trkpt lat="45.86069" lon="5.62735">
        <ele>982.4</ele>
        <time>2026-05-12T13:23:58Z</time>
      </trkpt>
      <trkpt lat="45.86069" lon="5.62736">
        <ele>982.4</ele>
        <time>2026-05-12T13:23:59Z</time>
      </trkpt>
      <trkpt lat="45.8607" lon="5.62736">
        <ele>982.4</ele>
        <time>2026-05-12T13:24:00Z</time>
      </trkpt>
      <trkpt lat="45.8607" lon="5.62737">
        <ele>982.2</ele>
        <time>2026-05-12T13:24:01Z</time>
      </trkpt>
      <trkpt lat="45.86071" lon="5.62739">
        <ele>982.2</ele>
        <time>2026-05-12T13:24:02Z</time>
      </trkpt>
      <trkpt lat="45.86072" lon="5.62739">
        <ele>982.2</ele>
        <time>2026-05-12T13:24:03Z</time>
      </trkpt>
      <trkpt lat="45.86073" lon="5.62741">
        <ele>982.2</ele>
        <time>2026-05-12T13:24:04Z</time>
      </trkpt>
      <trkpt lat="45.86074" lon="5.62741">
        <ele>982.4</ele>
        <time>2026-05-12T13:24:05Z</time>
      </trkpt>
      <trkpt lat="45.86075" lon="5.62742">
        <ele>982.4</ele>
        <time>2026-05-12T13:24:06Z</time>
      </trkpt>
      <trkpt lat="45.86076" lon="5.62742">
        <ele>982.6</ele>
        <time>2026-05-12T13:24:07Z</time>
      </trkpt>
      <trkpt lat="45.86076" lon="5.62743">
        <ele>982.6</ele>
        <time>2026-05-12T13:24:08Z</time>
      </trkpt>
      <trkpt lat="45.86077" lon="5.62743">
        <ele>983</ele>
        <time>2026-05-12T13:24:09Z</time>
      </trkpt>
      <trkpt lat="45.86077" lon="5.62743">
        <ele>983</ele>
        <time>2026-05-12T13:24:10Z</time>
      </trkpt>
      <trkpt lat="45.86077" lon="5.62743">
        <ele>983</ele>
        <time>2026-05-12T13:24:11Z</time>
      </trkpt>
      <trkpt lat="45.86078" lon="5.62746">
        <ele>983.2</ele>
        <time>2026-05-12T13:24:16Z</time>
      </trkpt>
      <trkpt lat="45.86078" lon="5.62746">
        <ele>983.2</ele>
        <time>2026-05-12T13:24:17Z</time>
      </trkpt>
      <trkpt lat="45.86079" lon="5.62747">
        <ele>983.2</ele>
        <time>2026-05-12T13:24:18Z</time>
      </trkpt>
      <trkpt lat="45.86081" lon="5.62747">
        <ele>983.4</ele>
        <time>2026-05-12T13:24:19Z</time>
      </trkpt>
      <trkpt lat="45.86082" lon="5.62748">
        <ele>983.4</ele>
        <time>2026-05-12T13:24:20Z</time>
      </trkpt>
      <trkpt lat="45.86083" lon="5.62748">
        <ele>983.4</ele>
        <time>2026-05-12T13:24:21Z</time>
      </trkpt>
      <trkpt lat="45.86084" lon="5.62748">
        <ele>983.4</ele>
        <time>2026-05-12T13:24:22Z</time>
      </trkpt>
      <trkpt lat="45.86085" lon="5.62748">
        <ele>983.4</ele>
        <time>2026-05-12T13:24:23Z</time>
      </trkpt>
      <trkpt lat="45.86086" lon="5.62748">
        <ele>983.4</ele>
        <time>2026-05-12T13:24:24Z</time>
      </trkpt>
      <trkpt lat="45.86086" lon="5.62748">
        <ele>983.4</ele>
        <time>2026-05-12T13:24:25Z</time>
      </trkpt>
      <trkpt lat="45.8609" lon="5.62746">
        <ele>984.6</ele>
        <time>2026-05-12T13:26:02Z</time>
      </trkpt>
      <trkpt lat="45.86091" lon="5.62746">
        <ele>984.6</ele>
        <time>2026-05-12T13:26:03Z</time>
      </trkpt>
      <trkpt lat="45.86092" lon="5.62746">
        <ele>984.6</ele>
        <time>2026-05-12T13:26:04Z</time>
      </trkpt>
      <trkpt lat="45.86093" lon="5.62746">
        <ele>984.6</ele>
        <time>2026-05-12T13:26:05Z</time>
      </trkpt>
      <trkpt lat="45.86095" lon="5.62746">
        <ele>984.6</ele>
        <time>2026-05-12T13:26:06Z</time>
      </trkpt>
      <trkpt lat="45.86097" lon="5.62746">
        <ele>984.6</ele>
        <time>2026-05-12T13:26:07Z</time>
      </trkpt>
      <trkpt lat="45.86098" lon="5.62746">
        <ele>984.6</ele>
        <time>2026-05-12T13:26:08Z</time>
      </trkpt>
      <trkpt lat="45.861" lon="5.62745">
        <ele>984.8</ele>
        <time>2026-05-12T13:26:09Z</time>
      </trkpt>
      <trkpt lat="45.86102" lon="5.62745">
        <ele>984.8</ele>
        <time>2026-05-12T13:26:10Z</time>
      </trkpt>
      <trkpt lat="45.86103" lon="5.62744">
        <ele>984.8</ele>
        <time>2026-05-12T13:26:11Z</time>
      </trkpt>
      <trkpt lat="45.86104" lon="5.62743">
        <ele>984.8</ele>
        <time>2026-05-12T13:26:12Z</time>
      </trkpt>
      <trkpt lat="45.86105" lon="5.62741">
        <ele>985</ele>
        <time>2026-05-12T13:26:13Z</time>
      </trkpt>
      <trkpt lat="45.86106" lon="5.6274">
        <ele>985</ele>
        <time>2026-05-12T13:26:14Z</time>
      </trkpt>
      <trkpt lat="45.86107" lon="5.62739">
        <ele>985.4</ele>
        <time>2026-05-12T13:26:15Z</time>
      </trkpt>
      <trkpt lat="45.86108" lon="5.62737">
        <ele>985.4</ele>
        <time>2026-05-12T13:26:16Z</time>
      </trkpt>
      <trkpt lat="45.86109" lon="5.62736">
        <ele>985.4</ele>
        <time>2026-05-12T13:26:17Z</time>
      </trkpt>
      <trkpt lat="45.8611" lon="5.62733">
        <ele>985</ele>
        <time>2026-05-12T13:26:18Z</time>
      </trkpt>
      <trkpt lat="45.86111" lon="5.6273">
        <ele>984.6</ele>
        <time>2026-05-12T13:26:19Z</time>
      </trkpt>
      <trkpt lat="45.86112" lon="5.62727">
        <ele>984.6</ele>
        <time>2026-05-12T13:26:20Z</time>
      </trkpt>
      <trkpt lat="45.86113" lon="5.62724">
        <ele>984.2</ele>
        <time>2026-05-12T13:26:21Z</time>
      </trkpt>
      <trkpt lat="45.86114" lon="5.62721">
        <ele>983.8</ele>
        <time>2026-05-12T13:26:22Z</time>
      </trkpt>
      <trkpt lat="45.86114" lon="5.62719">
        <ele>983.6</ele>
        <time>2026-05-12T13:26:23Z</time>
      </trkpt>
      <trkpt lat="45.86115" lon="5.62717">
        <ele>983.4</ele>
        <time>2026-05-12T13:26:24Z</time>
      </trkpt>
      <trkpt lat="45.86115" lon="5.62715">
        <ele>983.6</ele>
        <time>2026-05-12T13:26:25Z</time>
      </trkpt>
      <trkpt lat="45.86116" lon="5.62713">
        <ele>982.8</ele>
        <time>2026-05-12T13:26:26Z</time>
      </trkpt>
      <trkpt lat="45.86116" lon="5.6271">
        <ele>982.4</ele>
        <time>2026-05-12T13:26:27Z</time>
      </trkpt>
      <trkpt lat="45.86116" lon="5.62706">
        <ele>981.8</ele>
        <time>2026-05-12T13:26:28Z</time>
      </trkpt>
      <trkpt lat="45.86116" lon="5.62704">
        <ele>981.4</ele>
        <time>2026-05-12T13:26:29Z</time>
      </trkpt>
      <trkpt lat="45.86116" lon="5.62701">
        <ele>981.2</ele>
        <time>2026-05-12T13:26:30Z</time>
      </trkpt>
      <trkpt lat="45.86116" lon="5.62697">
        <ele>981.2</ele>
        <time>2026-05-12T13:26:31Z</time>
      </trkpt>
      <trkpt lat="45.86117" lon="5.62693">
        <ele>980.8</ele>
        <time>2026-05-12T13:26:32Z</time>
      </trkpt>
      <trkpt lat="45.86118" lon="5.62689">
        <ele>980.4</ele>
        <time>2026-05-12T13:26:33Z</time>
      </trkpt>
      <trkpt lat="45.86118" lon="5.62685">
        <ele>979.8</ele>
        <time>2026-05-12T13:26:34Z</time>
      </trkpt>
      <trkpt lat="45.86119" lon="5.62682">
        <ele>979.4</ele>
        <time>2026-05-12T13:26:35Z</time>
      </trkpt>
      <trkpt lat="45.86119" lon="5.62678">
        <ele>979</ele>
        <time>2026-05-12T13:26:36Z</time>
      </trkpt>
      <trkpt lat="45.86119" lon="5.62673">
        <ele>978.8</ele>
        <time>2026-05-12T13:26:37Z</time>
      </trkpt>
      <trkpt lat="45.86119" lon="5.62669">
        <ele>978</ele>
        <time>2026-05-12T13:26:38Z</time>
      </trkpt>
      <trkpt lat="45.86119" lon="5.62664">
        <ele>977.6</ele>
        <time>2026-05-12T13:26:39Z</time>
      </trkpt>
      <trkpt lat="45.86119" lon="5.6266">
        <ele>977</ele>
        <time>2026-05-12T13:26:40Z</time>
      </trkpt>
      <trkpt lat="45.86118" lon="5.62656">
        <ele>977</ele>
        <time>2026-05-12T13:26:41Z</time>
      </trkpt>
      <trkpt lat="45.86118" lon="5.62651">
        <ele>976.6</ele>
        <time>2026-05-12T13:26:42Z</time>
      </trkpt>
      <trkpt lat="45.86118" lon="5.62646">
        <ele>975.8</ele>
        <time>2026-05-12T13:26:43Z</time>
      </trkpt>
      <trkpt lat="45.86119" lon="5.62638">
        <ele>975.4</ele>
        <time>2026-05-12T13:26:44Z</time>
      </trkpt>
      <trkpt lat="45.8612" lon="5.6263">
        <ele>975</ele>
        <time>2026-05-12T13:26:45Z</time>
      </trkpt>
      <trkpt lat="45.86121" lon="5.62623">
        <ele>975.6</ele>
        <time>2026-05-12T13:26:46Z</time>
      </trkpt>
      <trkpt lat="45.86124" lon="5.62614">
        <ele>975.6</ele>
        <time>2026-05-12T13:26:47Z</time>
      </trkpt>
      <trkpt lat="45.86126" lon="5.62606">
        <ele>974.6</ele>
        <time>2026-05-12T13:26:48Z</time>
      </trkpt>
      <trkpt lat="45.86129" lon="5.62598">
        <ele>973.8</ele>
        <time>2026-05-12T13:26:49Z</time>
      </trkpt>
      <trkpt lat="45.86133" lon="5.62589">
        <ele>973.4</ele>
        <time>2026-05-12T13:26:50Z</time>
      </trkpt>
      <trkpt lat="45.86136" lon="5.62579">
        <ele>972.2</ele>
        <time>2026-05-12T13:26:51Z</time>
      </trkpt>
      <trkpt lat="45.8614" lon="5.6257">
        <ele>970.8</ele>
        <time>2026-05-12T13:26:52Z</time>
      </trkpt>
      <trkpt lat="45.86144" lon="5.62562">
        <ele>970.2</ele>
        <time>2026-05-12T13:26:53Z</time>
      </trkpt>
      <trkpt lat="45.86147" lon="5.62556">
        <ele>969.8</ele>
        <time>2026-05-12T13:26:54Z</time>
      </trkpt>
      <trkpt lat="45.86149" lon="5.62548">
        <ele>969.8</ele>
        <time>2026-05-12T13:26:55Z</time>
      </trkpt>
      <trkpt lat="45.8615" lon="5.62541">
        <ele>969.8</ele>
        <time>2026-05-12T13:26:56Z</time>
      </trkpt>
      <trkpt lat="45.8615" lon="5.62534">
        <ele>970.2</ele>
        <time>2026-05-12T13:26:57Z</time>
      </trkpt>
      <trkpt lat="45.86151" lon="5.62528">
        <ele>969.6</ele>
        <time>2026-05-12T13:26:58Z</time>
      </trkpt>
      <trkpt lat="45.86152" lon="5.62522">
        <ele>969.8</ele>
        <time>2026-05-12T13:26:59Z</time>
      </trkpt>
      <trkpt lat="45.86154" lon="5.62519">
        <ele>970.2</ele>
        <time>2026-05-12T13:27:00Z</time>
      </trkpt>
      <trkpt lat="45.86156" lon="5.6251">
        <ele>970.2</ele>
        <time>2026-05-12T13:27:01Z</time>
      </trkpt>
      <trkpt lat="45.86158" lon="5.62505">
        <ele>970.6</ele>
        <time>2026-05-12T13:27:02Z</time>
      </trkpt>
      <trkpt lat="45.86159" lon="5.625">
        <ele>970.6</ele>
        <time>2026-05-12T13:27:03Z</time>
      </trkpt>
      <trkpt lat="45.86159" lon="5.62496">
        <ele>970.6</ele>
        <time>2026-05-12T13:27:04Z</time>
      </trkpt>
      <trkpt lat="45.8616" lon="5.62491">
        <ele>971</ele>
        <time>2026-05-12T13:27:05Z</time>
      </trkpt>
      <trkpt lat="45.86161" lon="5.62486">
        <ele>971</ele>
        <time>2026-05-12T13:27:06Z</time>
      </trkpt>
      <trkpt lat="45.86161" lon="5.62481">
        <ele>971.4</ele>
        <time>2026-05-12T13:27:07Z</time>
      </trkpt>
      <trkpt lat="45.86162" lon="5.62478">
        <ele>971.4</ele>
        <time>2026-05-12T13:27:08Z</time>
      </trkpt>
      <trkpt lat="45.86162" lon="5.62474">
        <ele>971.4</ele>
        <time>2026-05-12T13:27:09Z</time>
      </trkpt>
      <trkpt lat="45.86163" lon="5.6247">
        <ele>972</ele>
        <time>2026-05-12T13:27:10Z</time>
      </trkpt>
      <trkpt lat="45.86163" lon="5.62467">
        <ele>972.2</ele>
        <time>2026-05-12T13:27:11Z</time>
      </trkpt>
      <trkpt lat="45.86163" lon="5.62464">
        <ele>972.2</ele>
        <time>2026-05-12T13:27:12Z</time>
      </trkpt>
      <trkpt lat="45.86163" lon="5.62461">
        <ele>972.4</ele>
        <time>2026-05-12T13:27:13Z</time>
      </trkpt>
      <trkpt lat="45.86163" lon="5.62458">
        <ele>972.8</ele>
        <time>2026-05-12T13:27:14Z</time>
      </trkpt>
      <trkpt lat="45.86164" lon="5.62455">
        <ele>973.4</ele>
        <time>2026-05-12T13:27:15Z</time>
      </trkpt>
      <trkpt lat="45.86164" lon="5.62452">
        <ele>973.4</ele>
        <time>2026-05-12T13:27:16Z</time>
      </trkpt>
      <trkpt lat="45.86165" lon="5.62449">
        <ele>973.8</ele>
        <time>2026-05-12T13:27:17Z</time>
      </trkpt>
      <trkpt lat="45.86166" lon="5.62446">
        <ele>974</ele>
        <time>2026-05-12T13:27:18Z</time>
      </trkpt>
      <trkpt lat="45.86166" lon="5.62443">
        <ele>973.8</ele>
        <time>2026-05-12T13:27:19Z</time>
      </trkpt>
      <trkpt lat="45.86167" lon="5.6244">
        <ele>974</ele>
        <time>2026-05-12T13:27:20Z</time>
      </trkpt>
      <trkpt lat="45.86169" lon="5.62437">
        <ele>974</ele>
        <time>2026-05-12T13:27:21Z</time>
      </trkpt>
      <trkpt lat="45.8617" lon="5.62433">
        <ele>974</ele>
        <time>2026-05-12T13:27:22Z</time>
      </trkpt>
      <trkpt lat="45.86172" lon="5.6243">
        <ele>974</ele>
        <time>2026-05-12T13:27:23Z</time>
      </trkpt>
      <trkpt lat="45.86173" lon="5.62427">
        <ele>974</ele>
        <time>2026-05-12T13:27:24Z</time>
      </trkpt>
      <trkpt lat="45.86175" lon="5.62424">
        <ele>974</ele>
        <time>2026-05-12T13:27:25Z</time>
      </trkpt>
      <trkpt lat="45.86177" lon="5.6242">
        <ele>973.6</ele>
        <time>2026-05-12T13:27:26Z</time>
      </trkpt>
      <trkpt lat="45.86179" lon="5.62417">
        <ele>973</ele>
        <time>2026-05-12T13:27:27Z</time>
      </trkpt>
      <trkpt lat="45.8618" lon="5.62414">
        <ele>973</ele>
        <time>2026-05-12T13:27:28Z</time>
      </trkpt>
      <trkpt lat="45.86182" lon="5.62411">
        <ele>973.4</ele>
        <time>2026-05-12T13:27:29Z</time>
      </trkpt>
      <trkpt lat="45.86185" lon="5.62408">
        <ele>973.4</ele>
        <time>2026-05-12T13:27:30Z</time>
      </trkpt>
      <trkpt lat="45.86187" lon="5.62405">
        <ele>973.4</ele>
        <time>2026-05-12T13:27:31Z</time>
      </trkpt>
      <trkpt lat="45.8619" lon="5.62403">
        <ele>973</ele>
        <time>2026-05-12T13:27:32Z</time>
      </trkpt>
      <trkpt lat="45.86192" lon="5.62401">
        <ele>973</ele>
        <time>2026-05-12T13:27:33Z</time>
      </trkpt>
      <trkpt lat="45.86195" lon="5.62398">
        <ele>973.2</ele>
        <time>2026-05-12T13:27:34Z</time>
      </trkpt>
      <trkpt lat="45.86198" lon="5.62396">
        <ele>973.2</ele>
        <time>2026-05-12T13:27:35Z</time>
      </trkpt>
      <trkpt lat="45.86201" lon="5.62394">
        <ele>973.2</ele>
        <time>2026-05-12T13:27:36Z</time>
      </trkpt>
      <trkpt lat="45.86203" lon="5.62392">
        <ele>973.2</ele>
        <time>2026-05-12T13:27:37Z</time>
      </trkpt>
      <trkpt lat="45.86206" lon="5.6239">
        <ele>972.8</ele>
        <time>2026-05-12T13:27:38Z</time>
      </trkpt>
      <trkpt lat="45.8621" lon="5.62388">
        <ele>973</ele>
        <time>2026-05-12T13:27:39Z</time>
      </trkpt>
      <trkpt lat="45.86212" lon="5.62385">
        <ele>973</ele>
        <time>2026-05-12T13:27:40Z</time>
      </trkpt>
      <trkpt lat="45.86215" lon="5.62383">
        <ele>973.2</ele>
        <time>2026-05-12T13:27:41Z</time>
      </trkpt>
      <trkpt lat="45.86218" lon="5.6238">
        <ele>973.2</ele>
        <time>2026-05-12T13:27:42Z</time>
      </trkpt>
      <trkpt lat="45.86218" lon="5.6238">
        <ele>974</ele>
        <time>2026-05-12T13:27:43Z</time>
      </trkpt>
      <trkpt lat="45.8622" lon="5.62377">
        <ele>974</ele>
        <time>2026-05-12T13:27:44Z</time>
      </trkpt>
      <trkpt lat="45.86223" lon="5.62374">
        <ele>974</ele>
        <time>2026-05-12T13:27:45Z</time>
      </trkpt>
      <trkpt lat="45.86225" lon="5.62371">
        <ele>974</ele>
        <time>2026-05-12T13:27:46Z</time>
      </trkpt>
      <trkpt lat="45.86227" lon="5.62368">
        <ele>974</ele>
        <time>2026-05-12T13:27:47Z</time>
      </trkpt>
      <trkpt lat="45.86229" lon="5.62366">
        <ele>974</ele>
        <time>2026-05-12T13:27:48Z</time>
      </trkpt>
      <trkpt lat="45.86231" lon="5.62363">
        <ele>974.2</ele>
        <time>2026-05-12T13:27:49Z</time>
      </trkpt>
      <trkpt lat="45.86234" lon="5.62361">
        <ele>974.2</ele>
        <time>2026-05-12T13:27:50Z</time>
      </trkpt>
      <trkpt lat="45.86236" lon="5.62359">
        <ele>974.2</ele>
        <time>2026-05-12T13:27:51Z</time>
      </trkpt>
      <trkpt lat="45.86239" lon="5.62357">
        <ele>974.6</ele>
        <time>2026-05-12T13:27:52Z</time>
      </trkpt>
      <trkpt lat="45.86242" lon="5.62355">
        <ele>974</ele>
        <time>2026-05-12T13:27:53Z</time>
      </trkpt>
      <trkpt lat="45.86245" lon="5.62353">
        <ele>973.6</ele>
        <time>2026-05-12T13:27:54Z</time>
      </trkpt>
      <trkpt lat="45.86248" lon="5.62352">
        <ele>973.2</ele>
        <time>2026-05-12T13:27:55Z</time>
      </trkpt>
      <trkpt lat="45.86252" lon="5.6235">
        <ele>973.2</ele>
        <time>2026-05-12T13:27:56Z</time>
      </trkpt>
      <trkpt lat="45.86255" lon="5.62349">
        <ele>973.2</ele>
        <time>2026-05-12T13:27:57Z</time>
      </trkpt>
      <trkpt lat="45.86259" lon="5.62348">
        <ele>973.2</ele>
        <time>2026-05-12T13:27:58Z</time>
      </trkpt>
      <trkpt lat="45.86262" lon="5.62348">
        <ele>973.6</ele>
        <time>2026-05-12T13:27:59Z</time>
      </trkpt>
      <trkpt lat="45.86264" lon="5.62347">
        <ele>973.2</ele>
        <time>2026-05-12T13:28:00Z</time>
      </trkpt>
      <trkpt lat="45.86267" lon="5.62346">
        <ele>973.2</ele>
        <time>2026-05-12T13:28:01Z</time>
      </trkpt>
      <trkpt lat="45.86269" lon="5.62345">
        <ele>972.8</ele>
        <time>2026-05-12T13:28:02Z</time>
      </trkpt>
      <trkpt lat="45.86272" lon="5.62344">
        <ele>972.8</ele>
        <time>2026-05-12T13:28:03Z</time>
      </trkpt>
      <trkpt lat="45.86275" lon="5.62342">
        <ele>972.6</ele>
        <time>2026-05-12T13:28:04Z</time>
      </trkpt>
      <trkpt lat="45.86279" lon="5.62341">
        <ele>972.6</ele>
        <time>2026-05-12T13:28:05Z</time>
      </trkpt>
      <trkpt lat="45.86282" lon="5.62341">
        <ele>972.6</ele>
        <time>2026-05-12T13:28:06Z</time>
      </trkpt>
      <trkpt lat="45.86286" lon="5.6234">
        <ele>972.2</ele>
        <time>2026-05-12T13:28:07Z</time>
      </trkpt>
      <trkpt lat="45.86289" lon="5.62339">
        <ele>972.2</ele>
        <time>2026-05-12T13:28:08Z</time>
      </trkpt>
      <trkpt lat="45.86293" lon="5.62338">
        <ele>971.8</ele>
        <time>2026-05-12T13:28:09Z</time>
      </trkpt>
      <trkpt lat="45.86297" lon="5.62337">
        <ele>972.2</ele>
        <time>2026-05-12T13:28:10Z</time>
      </trkpt>
      <trkpt lat="45.863" lon="5.62336">
        <ele>972.2</ele>
        <time>2026-05-12T13:28:11Z</time>
      </trkpt>
      <trkpt lat="45.86303" lon="5.62335">
        <ele>971.8</ele>
        <time>2026-05-12T13:28:12Z</time>
      </trkpt>
      <trkpt lat="45.86306" lon="5.62334">
        <ele>971.8</ele>
        <time>2026-05-12T13:28:13Z</time>
      </trkpt>
      <trkpt lat="45.86311" lon="5.62335">
        <ele>971.8</ele>
        <time>2026-05-12T13:28:14Z</time>
      </trkpt>
      <trkpt lat="45.86315" lon="5.62333">
        <ele>971.2</ele>
        <time>2026-05-12T13:28:15Z</time>
      </trkpt>
      <trkpt lat="45.8632" lon="5.62333">
        <ele>971</ele>
        <time>2026-05-12T13:28:16Z</time>
      </trkpt>
      <trkpt lat="45.86324" lon="5.62331">
        <ele>970.2</ele>
        <time>2026-05-12T13:28:17Z</time>
      </trkpt>
      <trkpt lat="45.86329" lon="5.62331">
        <ele>970.2</ele>
        <time>2026-05-12T13:28:18Z</time>
      </trkpt>
      <trkpt lat="45.86334" lon="5.6233">
        <ele>970.2</ele>
        <time>2026-05-12T13:28:19Z</time>
      </trkpt>
      <trkpt lat="45.86339" lon="5.62329">
        <ele>970.2</ele>
        <time>2026-05-12T13:28:20Z</time>
      </trkpt>
      <trkpt lat="45.86343" lon="5.62324">
        <ele>970.8</ele>
        <time>2026-05-12T13:28:21Z</time>
      </trkpt>
      <trkpt lat="45.86349" lon="5.62325">
        <ele>970.2</ele>
        <time>2026-05-12T13:28:22Z</time>
      </trkpt>
      <trkpt lat="45.86353" lon="5.62322">
        <ele>970.2</ele>
        <time>2026-05-12T13:28:23Z</time>
      </trkpt>
      <trkpt lat="45.86356" lon="5.62316">
        <ele>970</ele>
        <time>2026-05-12T13:28:24Z</time>
      </trkpt>
      <trkpt lat="45.86362" lon="5.62316">
        <ele>970</ele>
        <time>2026-05-12T13:28:25Z</time>
      </trkpt>
      <trkpt lat="45.86365" lon="5.62317">
        <ele>970.2</ele>
        <time>2026-05-12T13:28:26Z</time>
      </trkpt>
      <trkpt lat="45.86368" lon="5.62313">
        <ele>970.4</ele>
        <time>2026-05-12T13:28:27Z</time>
      </trkpt>
      <trkpt lat="45.86372" lon="5.62313">
        <ele>970.4</ele>
        <time>2026-05-12T13:28:28Z</time>
      </trkpt>
      <trkpt lat="45.86376" lon="5.62311">
        <ele>972</ele>
        <time>2026-05-12T13:28:29Z</time>
      </trkpt>
      <trkpt lat="45.8638" lon="5.6231">
        <ele>972</ele>
        <time>2026-05-12T13:28:30Z</time>
      </trkpt>
      <trkpt lat="45.86383" lon="5.62308">
        <ele>972.2</ele>
        <time>2026-05-12T13:28:31Z</time>
      </trkpt>
      <trkpt lat="45.86388" lon="5.62308">
        <ele>972.2</ele>
        <time>2026-05-12T13:28:32Z</time>
      </trkpt>
      <trkpt lat="45.86391" lon="5.62307">
        <ele>972</ele>
        <time>2026-05-12T13:28:33Z</time>
      </trkpt>
      <trkpt lat="45.86395" lon="5.62305">
        <ele>971.6</ele>
        <time>2026-05-12T13:28:34Z</time>
      </trkpt>
      <trkpt lat="45.86399" lon="5.62304">
        <ele>971.6</ele>
        <time>2026-05-12T13:28:35Z</time>
      </trkpt>
      <trkpt lat="45.86403" lon="5.62303">
        <ele>970.6</ele>
        <time>2026-05-12T13:28:36Z</time>
      </trkpt>
      <trkpt lat="45.86406" lon="5.62302">
        <ele>970.6</ele>
        <time>2026-05-12T13:28:37Z</time>
      </trkpt>
      <trkpt lat="45.86409" lon="5.62302">
        <ele>970.2</ele>
        <time>2026-05-12T13:28:38Z</time>
      </trkpt>
      <trkpt lat="45.86413" lon="5.62301">
        <ele>970.8</ele>
        <time>2026-05-12T13:28:39Z</time>
      </trkpt>
      <trkpt lat="45.86417" lon="5.623">
        <ele>970.8</ele>
        <time>2026-05-12T13:28:40Z</time>
      </trkpt>
      <trkpt lat="45.8642" lon="5.62299">
        <ele>970.8</ele>
        <time>2026-05-12T13:28:41Z</time>
      </trkpt>
      <trkpt lat="45.86424" lon="5.62297">
        <ele>971.2</ele>
        <time>2026-05-12T13:28:42Z</time>
      </trkpt>
      <trkpt lat="45.86427" lon="5.62295">
        <ele>971.2</ele>
        <time>2026-05-12T13:28:43Z</time>
      </trkpt>
      <trkpt lat="45.86431" lon="5.62294">
        <ele>971</ele>
        <time>2026-05-12T13:28:44Z</time>
      </trkpt>
      <trkpt lat="45.86434" lon="5.62292">
        <ele>971.2</ele>
        <time>2026-05-12T13:28:45Z</time>
      </trkpt>
      <trkpt lat="45.86437" lon="5.62291">
        <ele>971.8</ele>
        <time>2026-05-12T13:28:46Z</time>
      </trkpt>
      <trkpt lat="45.86441" lon="5.62289">
        <ele>971.8</ele>
        <time>2026-05-12T13:28:47Z</time>
      </trkpt>
      <trkpt lat="45.86443" lon="5.62287">
        <ele>972.2</ele>
        <time>2026-05-12T13:28:48Z</time>
      </trkpt>
      <trkpt lat="45.86446" lon="5.62285">
        <ele>972.2</ele>
        <time>2026-05-12T13:28:49Z</time>
      </trkpt>
      <trkpt lat="45.8645" lon="5.62282">
        <ele>972.4</ele>
        <time>2026-05-12T13:28:50Z</time>
      </trkpt>
      <trkpt lat="45.86453" lon="5.6228">
        <ele>972.4</ele>
        <time>2026-05-12T13:28:51Z</time>
      </trkpt>
      <trkpt lat="45.86457" lon="5.62278">
        <ele>972.4</ele>
        <time>2026-05-12T13:28:52Z</time>
      </trkpt>
      <trkpt lat="45.86461" lon="5.62275">
        <ele>972.6</ele>
        <time>2026-05-12T13:28:53Z</time>
      </trkpt>
      <trkpt lat="45.86465" lon="5.62273">
        <ele>972.6</ele>
        <time>2026-05-12T13:28:54Z</time>
      </trkpt>
      <trkpt lat="45.86469" lon="5.62271">
        <ele>972.4</ele>
        <time>2026-05-12T13:28:55Z</time>
      </trkpt>
      <trkpt lat="45.86472" lon="5.62266">
        <ele>972.4</ele>
        <time>2026-05-12T13:28:56Z</time>
      </trkpt>
      <trkpt lat="45.86476" lon="5.62263">
        <ele>972.4</ele>
        <time>2026-05-12T13:28:57Z</time>
      </trkpt>
      <trkpt lat="45.86481" lon="5.62261">
        <ele>972.4</ele>
        <time>2026-05-12T13:28:58Z</time>
      </trkpt>
      <trkpt lat="45.86485" lon="5.62258">
        <ele>972.4</ele>
        <time>2026-05-12T13:28:59Z</time>
      </trkpt>
      <trkpt lat="45.86489" lon="5.62256">
        <ele>972.4</ele>
        <time>2026-05-12T13:29:00Z</time>
      </trkpt>
      <trkpt lat="45.86493" lon="5.62253">
        <ele>972.4</ele>
        <time>2026-05-12T13:29:01Z</time>
      </trkpt>
      <trkpt lat="45.86498" lon="5.62251">
        <ele>972.4</ele>
        <time>2026-05-12T13:29:02Z</time>
      </trkpt>
      <trkpt lat="45.86502" lon="5.62246">
        <ele>972.6</ele>
        <time>2026-05-12T13:29:03Z</time>
      </trkpt>
      <trkpt lat="45.86507" lon="5.62243">
        <ele>972.4</ele>
        <time>2026-05-12T13:29:04Z</time>
      </trkpt>
      <trkpt lat="45.86512" lon="5.6224">
        <ele>971.6</ele>
        <time>2026-05-12T13:29:05Z</time>
      </trkpt>
      <trkpt lat="45.86516" lon="5.62237">
        <ele>971.6</ele>
        <time>2026-05-12T13:29:06Z</time>
      </trkpt>
      <trkpt lat="45.86521" lon="5.62236">
        <ele>971.6</ele>
        <time>2026-05-12T13:29:07Z</time>
      </trkpt>
      <trkpt lat="45.86526" lon="5.62235">
        <ele>971.6</ele>
        <time>2026-05-12T13:29:08Z</time>
      </trkpt>
      <trkpt lat="45.86531" lon="5.62231">
        <ele>971.6</ele>
        <time>2026-05-12T13:29:09Z</time>
      </trkpt>
      <trkpt lat="45.86534" lon="5.62228">
        <ele>971.4</ele>
        <time>2026-05-12T13:29:10Z</time>
      </trkpt>
      <trkpt lat="45.86538" lon="5.62225">
        <ele>971.4</ele>
        <time>2026-05-12T13:29:11Z</time>
      </trkpt>
      <trkpt lat="45.86543" lon="5.62222">
        <ele>971.4</ele>
        <time>2026-05-12T13:29:12Z</time>
      </trkpt>
      <trkpt lat="45.86546" lon="5.6222">
        <ele>971</ele>
        <time>2026-05-12T13:29:13Z</time>
      </trkpt>
      <trkpt lat="45.8655" lon="5.62215">
        <ele>971</ele>
        <time>2026-05-12T13:29:14Z</time>
      </trkpt>
      <trkpt lat="45.86554" lon="5.62213">
        <ele>971</ele>
        <time>2026-05-12T13:29:15Z</time>
      </trkpt>
      <trkpt lat="45.86557" lon="5.62212">
        <ele>971</ele>
        <time>2026-05-12T13:29:16Z</time>
      </trkpt>
      <trkpt lat="45.86559" lon="5.62208">
        <ele>970.8</ele>
        <time>2026-05-12T13:29:17Z</time>
      </trkpt>
      <trkpt lat="45.86561" lon="5.62207">
        <ele>970.8</ele>
        <time>2026-05-12T13:29:18Z</time>
      </trkpt>
      <trkpt lat="45.86563" lon="5.62205">
        <ele>970.8</ele>
        <time>2026-05-12T13:29:19Z</time>
      </trkpt>
      <trkpt lat="45.86564" lon="5.62204">
        <ele>970.8</ele>
        <time>2026-05-12T13:29:20Z</time>
      </trkpt>
      <trkpt lat="45.86564" lon="5.62205">
        <ele>970.8</ele>
        <time>2026-05-12T13:29:21Z</time>
      </trkpt>
      <trkpt lat="45.86567" lon="5.62205">
        <ele>970.2</ele>
        <time>2026-05-12T13:30:13Z</time>
      </trkpt>
      <trkpt lat="45.86569" lon="5.62203">
        <ele>970.2</ele>
        <time>2026-05-12T13:30:14Z</time>
      </trkpt>
      <trkpt lat="45.86571" lon="5.62201">
        <ele>969.8</ele>
        <time>2026-05-12T13:30:15Z</time>
      </trkpt>
      <trkpt lat="45.86572" lon="5.62199">
        <ele>969.8</ele>
        <time>2026-05-12T13:30:16Z</time>
      </trkpt>
      <trkpt lat="45.86575" lon="5.62196">
        <ele>969.8</ele>
        <time>2026-05-12T13:30:17Z</time>
      </trkpt>
      <trkpt lat="45.86578" lon="5.62193">
        <ele>969.8</ele>
        <time>2026-05-12T13:30:18Z</time>
      </trkpt>
      <trkpt lat="45.86582" lon="5.6219">
        <ele>969.8</ele>
        <time>2026-05-12T13:30:19Z</time>
      </trkpt>
      <trkpt lat="45.86586" lon="5.62188">
        <ele>969.8</ele>
        <time>2026-05-12T13:30:20Z</time>
      </trkpt>
      <trkpt lat="45.86592" lon="5.62186">
        <ele>970.2</ele>
        <time>2026-05-12T13:30:21Z</time>
      </trkpt>
      <trkpt lat="45.86596" lon="5.62183">
        <ele>970.2</ele>
        <time>2026-05-12T13:30:22Z</time>
      </trkpt>
      <trkpt lat="45.86599" lon="5.62181">
        <ele>969.2</ele>
        <time>2026-05-12T13:30:23Z</time>
      </trkpt>
      <trkpt lat="45.86604" lon="5.62176">
        <ele>969.2</ele>
        <time>2026-05-12T13:30:24Z</time>
      </trkpt>
      <trkpt lat="45.86609" lon="5.62174">
        <ele>968.6</ele>
        <time>2026-05-12T13:30:25Z</time>
      </trkpt>
      <trkpt lat="45.86614" lon="5.6217">
        <ele>968.2</ele>
        <time>2026-05-12T13:30:26Z</time>
      </trkpt>
      <trkpt lat="45.86618" lon="5.62167">
        <ele>968</ele>
        <time>2026-05-12T13:30:27Z</time>
      </trkpt>
      <trkpt lat="45.86623" lon="5.62163">
        <ele>968</ele>
        <time>2026-05-12T13:30:28Z</time>
      </trkpt>
      <trkpt lat="45.86629" lon="5.6216">
        <ele>967.6</ele>
        <time>2026-05-12T13:30:29Z</time>
      </trkpt>
      <trkpt lat="45.86634" lon="5.62154">
        <ele>967.6</ele>
        <time>2026-05-12T13:30:30Z</time>
      </trkpt>
      <trkpt lat="45.86639" lon="5.6215">
        <ele>967</ele>
        <time>2026-05-12T13:30:31Z</time>
      </trkpt>
      <trkpt lat="45.86644" lon="5.62143">
        <ele>967</ele>
        <time>2026-05-12T13:30:32Z</time>
      </trkpt>
      <trkpt lat="45.86649" lon="5.62139">
        <ele>967.2</ele>
        <time>2026-05-12T13:30:33Z</time>
      </trkpt>
      <trkpt lat="45.86654" lon="5.62134">
        <ele>966.8</ele>
        <time>2026-05-12T13:30:34Z</time>
      </trkpt>
      <trkpt lat="45.86658" lon="5.62129">
        <ele>966.8</ele>
        <time>2026-05-12T13:30:35Z</time>
      </trkpt>
      <trkpt lat="45.86663" lon="5.62124">
        <ele>966.8</ele>
        <time>2026-05-12T13:30:36Z</time>
      </trkpt>
      <trkpt lat="45.86666" lon="5.62121">
        <ele>966.8</ele>
        <time>2026-05-12T13:30:37Z</time>
      </trkpt>
      <trkpt lat="45.86672" lon="5.62116">
        <ele>966.8</ele>
        <time>2026-05-12T13:30:38Z</time>
      </trkpt>
      <trkpt lat="45.86677" lon="5.62111">
        <ele>966.8</ele>
        <time>2026-05-12T13:30:39Z</time>
      </trkpt>
      <trkpt lat="45.86682" lon="5.62107">
        <ele>966.8</ele>
        <time>2026-05-12T13:30:40Z</time>
      </trkpt>
      <trkpt lat="45.86687" lon="5.62101">
        <ele>966</ele>
        <time>2026-05-12T13:30:41Z</time>
      </trkpt>
      <trkpt lat="45.86693" lon="5.62096">
        <ele>964.8</ele>
        <time>2026-05-12T13:30:42Z</time>
      </trkpt>
      <trkpt lat="45.86699" lon="5.6209">
        <ele>963.8</ele>
        <time>2026-05-12T13:30:43Z</time>
      </trkpt>
      <trkpt lat="45.86706" lon="5.62086">
        <ele>964.4</ele>
        <time>2026-05-12T13:30:44Z</time>
      </trkpt>
      <trkpt lat="45.86713" lon="5.62082">
        <ele>965</ele>
        <time>2026-05-12T13:30:45Z</time>
      </trkpt>
      <trkpt lat="45.86718" lon="5.62078">
        <ele>964.6</ele>
        <time>2026-05-12T13:30:46Z</time>
      </trkpt>
      <trkpt lat="45.86723" lon="5.62072">
        <ele>964.6</ele>
        <time>2026-05-12T13:30:47Z</time>
      </trkpt>
      <trkpt lat="45.86727" lon="5.62068">
        <ele>964.4</ele>
        <time>2026-05-12T13:30:48Z</time>
      </trkpt>
      <trkpt lat="45.86732" lon="5.62063">
        <ele>964.8</ele>
        <time>2026-05-12T13:30:49Z</time>
      </trkpt>
      <trkpt lat="45.86735" lon="5.62056">
        <ele>964</ele>
        <time>2026-05-12T13:30:50Z</time>
      </trkpt>
      <trkpt lat="45.86739" lon="5.62053">
        <ele>963.4</ele>
        <time>2026-05-12T13:30:51Z</time>
      </trkpt>
      <trkpt lat="45.86743" lon="5.62048">
        <ele>962.6</ele>
        <time>2026-05-12T13:30:52Z</time>
      </trkpt>
      <trkpt lat="45.86747" lon="5.62045">
        <ele>962.2</ele>
        <time>2026-05-12T13:30:53Z</time>
      </trkpt>
      <trkpt lat="45.8675" lon="5.62043">
        <ele>963.2</ele>
        <time>2026-05-12T13:30:54Z</time>
      </trkpt>
      <trkpt lat="45.86754" lon="5.6204">
        <ele>963.8</ele>
        <time>2026-05-12T13:30:55Z</time>
      </trkpt>
      <trkpt lat="45.8676" lon="5.6204">
        <ele>962.8</ele>
        <time>2026-05-12T13:30:56Z</time>
      </trkpt>
      <trkpt lat="45.86764" lon="5.62038">
        <ele>962.8</ele>
        <time>2026-05-12T13:30:57Z</time>
      </trkpt>
      <trkpt lat="45.86769" lon="5.62037">
        <ele>962.2</ele>
        <time>2026-05-12T13:30:58Z</time>
      </trkpt>
      <trkpt lat="45.86773" lon="5.62034">
        <ele>962.2</ele>
        <time>2026-05-12T13:30:59Z</time>
      </trkpt>
      <trkpt lat="45.86779" lon="5.62029">
        <ele>961.4</ele>
        <time>2026-05-12T13:31:00Z</time>
      </trkpt>
      <trkpt lat="45.86783" lon="5.62024">
        <ele>961.4</ele>
        <time>2026-05-12T13:31:01Z</time>
      </trkpt>
      <trkpt lat="45.86787" lon="5.62016">
        <ele>961</ele>
        <time>2026-05-12T13:31:02Z</time>
      </trkpt>
      <trkpt lat="45.8679" lon="5.62009">
        <ele>960.2</ele>
        <time>2026-05-12T13:31:03Z</time>
      </trkpt>
      <trkpt lat="45.86793" lon="5.62004">
        <ele>960.2</ele>
        <time>2026-05-12T13:31:04Z</time>
      </trkpt>
      <trkpt lat="45.86797" lon="5.61999">
        <ele>959.4</ele>
        <time>2026-05-12T13:31:05Z</time>
      </trkpt>
      <trkpt lat="45.86801" lon="5.61995">
        <ele>959</ele>
        <time>2026-05-12T13:31:06Z</time>
      </trkpt>
      <trkpt lat="45.86806" lon="5.61989">
        <ele>959</ele>
        <time>2026-05-12T13:31:07Z</time>
      </trkpt>
      <trkpt lat="45.86809" lon="5.61984">
        <ele>958.6</ele>
        <time>2026-05-12T13:31:08Z</time>
      </trkpt>
      <trkpt lat="45.86813" lon="5.61981">
        <ele>957.8</ele>
        <time>2026-05-12T13:31:09Z</time>
      </trkpt>
      <trkpt lat="45.86817" lon="5.61977">
        <ele>957.2</ele>
        <time>2026-05-12T13:31:10Z</time>
      </trkpt>
      <trkpt lat="45.86824" lon="5.61973">
        <ele>957.4</ele>
        <time>2026-05-12T13:31:11Z</time>
      </trkpt>
      <trkpt lat="45.86829" lon="5.61969">
        <ele>957</ele>
        <time>2026-05-12T13:31:12Z</time>
      </trkpt>
      <trkpt lat="45.86835" lon="5.61965">
        <ele>957</ele>
        <time>2026-05-12T13:31:13Z</time>
      </trkpt>
      <trkpt lat="45.86841" lon="5.61963">
        <ele>956.2</ele>
        <time>2026-05-12T13:31:14Z</time>
      </trkpt>
      <trkpt lat="45.86847" lon="5.61959">
        <ele>957</ele>
        <time>2026-05-12T13:31:15Z</time>
      </trkpt>
      <trkpt lat="45.86852" lon="5.61957">
        <ele>956.4</ele>
        <time>2026-05-12T13:31:16Z</time>
      </trkpt>
      <trkpt lat="45.86857" lon="5.61954">
        <ele>956.4</ele>
        <time>2026-05-12T13:31:17Z</time>
      </trkpt>
      <trkpt lat="45.86862" lon="5.6195">
        <ele>956.4</ele>
        <time>2026-05-12T13:31:18Z</time>
      </trkpt>
      <trkpt lat="45.86867" lon="5.61948">
        <ele>956</ele>
        <time>2026-05-12T13:31:19Z</time>
      </trkpt>
      <trkpt lat="45.86872" lon="5.61945">
        <ele>956</ele>
        <time>2026-05-12T13:31:20Z</time>
      </trkpt>
      <trkpt lat="45.86877" lon="5.61942">
        <ele>955.6</ele>
        <time>2026-05-12T13:31:21Z</time>
      </trkpt>
      <trkpt lat="45.86884" lon="5.61938">
        <ele>955.6</ele>
        <time>2026-05-12T13:31:22Z</time>
      </trkpt>
      <trkpt lat="45.86888" lon="5.61937">
        <ele>955</ele>
        <time>2026-05-12T13:31:23Z</time>
      </trkpt>
      <trkpt lat="45.86893" lon="5.61936">
        <ele>955</ele>
        <time>2026-05-12T13:31:24Z</time>
      </trkpt>
      <trkpt lat="45.86898" lon="5.61934">
        <ele>955.4</ele>
        <time>2026-05-12T13:31:25Z</time>
      </trkpt>
      <trkpt lat="45.86902" lon="5.61932">
        <ele>955</ele>
        <time>2026-05-12T13:31:26Z</time>
      </trkpt>
      <trkpt lat="45.86906" lon="5.6193">
        <ele>955</ele>
        <time>2026-05-12T13:31:27Z</time>
      </trkpt>
      <trkpt lat="45.8691" lon="5.61929">
        <ele>955</ele>
        <time>2026-05-12T13:31:28Z</time>
      </trkpt>
      <trkpt lat="45.86912" lon="5.61927">
        <ele>955</ele>
        <time>2026-05-12T13:31:29Z</time>
      </trkpt>
      <trkpt lat="45.86912" lon="5.61926">
        <ele>955</ele>
        <time>2026-05-12T13:31:30Z</time>
      </trkpt>
      <trkpt lat="45.86913" lon="5.61926">
        <ele>955</ele>
        <time>2026-05-12T13:31:31Z</time>
      </trkpt>
      <trkpt lat="45.86914" lon="5.61925">
        <ele>955</ele>
        <time>2026-05-12T13:31:32Z</time>
      </trkpt>
      <trkpt lat="45.86916" lon="5.61924">
        <ele>954.8</ele>
        <time>2026-05-12T13:31:33Z</time>
      </trkpt>
      <trkpt lat="45.86918" lon="5.61923">
        <ele>954.8</ele>
        <time>2026-05-12T13:31:34Z</time>
      </trkpt>
      <trkpt lat="45.8692" lon="5.61923">
        <ele>954.8</ele>
        <time>2026-05-12T13:31:35Z</time>
      </trkpt>
      <trkpt lat="45.86922" lon="5.61922">
        <ele>954.8</ele>
        <time>2026-05-12T13:31:36Z</time>
      </trkpt>
      <trkpt lat="45.86924" lon="5.61921">
        <ele>954.6</ele>
        <time>2026-05-12T13:31:37Z</time>
      </trkpt>
      <trkpt lat="45.86927" lon="5.61918">
        <ele>954.4</ele>
        <time>2026-05-12T13:31:38Z</time>
      </trkpt>
      <trkpt lat="45.86929" lon="5.61917">
        <ele>954.4</ele>
        <time>2026-05-12T13:31:39Z</time>
      </trkpt>
      <trkpt lat="45.8693" lon="5.61915">
        <ele>954.4</ele>
        <time>2026-05-12T13:31:40Z</time>
      </trkpt>
      <trkpt lat="45.8693" lon="5.61915">
        <ele>954.4</ele>
        <time>2026-05-12T13:31:41Z</time>
      </trkpt>
      <trkpt lat="45.8693" lon="5.61916">
        <ele>954.6</ele>
        <time>2026-05-12T13:31:42Z</time>
      </trkpt>
      <trkpt lat="45.8693" lon="5.61913">
        <ele>953.6</ele>
        <time>2026-05-12T13:32:16Z</time>
      </trkpt>
      <trkpt lat="45.86932" lon="5.61911">
        <ele>953.6</ele>
        <time>2026-05-12T13:32:17Z</time>
      </trkpt>
      <trkpt lat="45.86933" lon="5.6191">
        <ele>953.2</ele>
        <time>2026-05-12T13:32:18Z</time>
      </trkpt>
      <trkpt lat="45.86934" lon="5.61909">
        <ele>953.2</ele>
        <time>2026-05-12T13:32:19Z</time>
      </trkpt>
      <trkpt lat="45.86936" lon="5.61906">
        <ele>953.2</ele>
        <time>2026-05-12T13:32:20Z</time>
      </trkpt>
      <trkpt lat="45.86939" lon="5.61904">
        <ele>952.8</ele>
        <time>2026-05-12T13:32:21Z</time>
      </trkpt>
      <trkpt lat="45.86942" lon="5.61901">
        <ele>952.8</ele>
        <time>2026-05-12T13:32:22Z</time>
      </trkpt>
      <trkpt lat="45.86946" lon="5.61899">
        <ele>952.8</ele>
        <time>2026-05-12T13:32:23Z</time>
      </trkpt>
      <trkpt lat="45.86952" lon="5.61894">
        <ele>952.4</ele>
        <time>2026-05-12T13:32:24Z</time>
      </trkpt>
      <trkpt lat="45.86955" lon="5.61891">
        <ele>951.4</ele>
        <time>2026-05-12T13:32:25Z</time>
      </trkpt>
      <trkpt lat="45.86959" lon="5.61887">
        <ele>951.2</ele>
        <time>2026-05-12T13:32:26Z</time>
      </trkpt>
      <trkpt lat="45.86964" lon="5.61884">
        <ele>951.2</ele>
        <time>2026-05-12T13:32:27Z</time>
      </trkpt>
      <trkpt lat="45.8697" lon="5.6188">
        <ele>951</ele>
        <time>2026-05-12T13:32:28Z</time>
      </trkpt>
      <trkpt lat="45.86976" lon="5.61874">
        <ele>950.6</ele>
        <time>2026-05-12T13:32:29Z</time>
      </trkpt>
      <trkpt lat="45.86981" lon="5.61871">
        <ele>950.2</ele>
        <time>2026-05-12T13:32:30Z</time>
      </trkpt>
      <trkpt lat="45.86989" lon="5.61866">
        <ele>949.8</ele>
        <time>2026-05-12T13:32:31Z</time>
      </trkpt>
      <trkpt lat="45.86994" lon="5.61862">
        <ele>949.2</ele>
        <time>2026-05-12T13:32:32Z</time>
      </trkpt>
      <trkpt lat="45.86997" lon="5.61863">
        <ele>948.8</ele>
        <time>2026-05-12T13:32:33Z</time>
      </trkpt>
      <trkpt lat="45.87004" lon="5.61863">
        <ele>948.8</ele>
        <time>2026-05-12T13:32:34Z</time>
      </trkpt>
      <trkpt lat="45.8701" lon="5.61859">
        <ele>948.6</ele>
        <time>2026-05-12T13:32:35Z</time>
      </trkpt>
      <trkpt lat="45.87014" lon="5.61858">
        <ele>948.6</ele>
        <time>2026-05-12T13:32:36Z</time>
      </trkpt>
      <trkpt lat="45.87017" lon="5.61851">
        <ele>948.6</ele>
        <time>2026-05-12T13:32:37Z</time>
      </trkpt>
      <trkpt lat="45.87022" lon="5.61852">
        <ele>949</ele>
        <time>2026-05-12T13:32:38Z</time>
      </trkpt>
      <trkpt lat="45.87026" lon="5.6185">
        <ele>949</ele>
        <time>2026-05-12T13:32:39Z</time>
      </trkpt>
      <trkpt lat="45.87031" lon="5.6185">
        <ele>949.2</ele>
        <time>2026-05-12T13:32:40Z</time>
      </trkpt>
      <trkpt lat="45.87035" lon="5.6185">
        <ele>949.6</ele>
        <time>2026-05-12T13:32:41Z</time>
      </trkpt>
      <trkpt lat="45.87039" lon="5.61851">
        <ele>950</ele>
        <time>2026-05-12T13:32:42Z</time>
      </trkpt>
      <trkpt lat="45.87042" lon="5.61849">
        <ele>950</ele>
        <time>2026-05-12T13:32:43Z</time>
      </trkpt>
      <trkpt lat="45.87045" lon="5.61851">
        <ele>950</ele>
        <time>2026-05-12T13:32:44Z</time>
      </trkpt>
      <trkpt lat="45.87049" lon="5.61849">
        <ele>950.4</ele>
        <time>2026-05-12T13:32:45Z</time>
      </trkpt>
      <trkpt lat="45.8705" lon="5.61847">
        <ele>950.4</ele>
        <time>2026-05-12T13:32:46Z</time>
      </trkpt>
      <trkpt lat="45.87053" lon="5.61845">
        <ele>950.4</ele>
        <time>2026-05-12T13:32:47Z</time>
      </trkpt>
      <trkpt lat="45.87056" lon="5.61844">
        <ele>950.4</ele>
        <time>2026-05-12T13:32:48Z</time>
      </trkpt>
      <trkpt lat="45.87059" lon="5.61843">
        <ele>950.4</ele>
        <time>2026-05-12T13:32:49Z</time>
      </trkpt>
      <trkpt lat="45.87062" lon="5.61843">
        <ele>950.6</ele>
        <time>2026-05-12T13:32:50Z</time>
      </trkpt>
      <trkpt lat="45.87065" lon="5.61842">
        <ele>951</ele>
        <time>2026-05-12T13:32:51Z</time>
      </trkpt>
      <trkpt lat="45.87069" lon="5.61841">
        <ele>951</ele>
        <time>2026-05-12T13:32:52Z</time>
      </trkpt>
      <trkpt lat="45.87069" lon="5.61841">
        <ele>951.2</ele>
        <time>2026-05-12T13:32:53Z</time>
      </trkpt>
      <trkpt lat="45.87069" lon="5.61841">
        <ele>951.6</ele>
        <time>2026-05-12T13:32:54Z</time>
      </trkpt>
      <trkpt lat="45.87078" lon="5.61834">
        <ele>952.2</ele>
        <time>2026-05-12T13:32:56Z</time>
      </trkpt>
      <trkpt lat="45.87081" lon="5.61833">
        <ele>952.4</ele>
        <time>2026-05-12T13:32:57Z</time>
      </trkpt>
      <trkpt lat="45.87084" lon="5.61833">
        <ele>952.6</ele>
        <time>2026-05-12T13:32:58Z</time>
      </trkpt>
      <trkpt lat="45.87087" lon="5.61833">
        <ele>952.8</ele>
        <time>2026-05-12T13:32:59Z</time>
      </trkpt>
      <trkpt lat="45.8709" lon="5.61833">
        <ele>952.8</ele>
        <time>2026-05-12T13:33:00Z</time>
      </trkpt>
      <trkpt lat="45.87092" lon="5.61833">
        <ele>952.6</ele>
        <time>2026-05-12T13:33:01Z</time>
      </trkpt>
      <trkpt lat="45.87095" lon="5.61833">
        <ele>952.6</ele>
        <time>2026-05-12T13:33:02Z</time>
      </trkpt>
      <trkpt lat="45.87098" lon="5.61833">
        <ele>953</ele>
        <time>2026-05-12T13:33:03Z</time>
      </trkpt>
      <trkpt lat="45.871" lon="5.61832">
        <ele>953</ele>
        <time>2026-05-12T13:33:04Z</time>
      </trkpt>
      <trkpt lat="45.87103" lon="5.61832">
        <ele>953</ele>
        <time>2026-05-12T13:33:05Z</time>
      </trkpt>
      <trkpt lat="45.87105" lon="5.61832">
        <ele>953</ele>
        <time>2026-05-12T13:33:06Z</time>
      </trkpt>
      <trkpt lat="45.87108" lon="5.61832">
        <ele>953</ele>
        <time>2026-05-12T13:33:07Z</time>
      </trkpt>
      <trkpt lat="45.8711" lon="5.61833">
        <ele>953</ele>
        <time>2026-05-12T13:33:08Z</time>
      </trkpt>
      <trkpt lat="45.87113" lon="5.61833">
        <ele>953.6</ele>
        <time>2026-05-12T13:33:09Z</time>
      </trkpt>
      <trkpt lat="45.87117" lon="5.61832">
        <ele>953.6</ele>
        <time>2026-05-12T13:33:10Z</time>
      </trkpt>
      <trkpt lat="45.87119" lon="5.61832">
        <ele>953.6</ele>
        <time>2026-05-12T13:33:11Z</time>
      </trkpt>
      <trkpt lat="45.87121" lon="5.61832">
        <ele>953.8</ele>
        <time>2026-05-12T13:33:12Z</time>
      </trkpt>
      <trkpt lat="45.87124" lon="5.61831">
        <ele>953.8</ele>
        <time>2026-05-12T13:33:13Z</time>
      </trkpt>
      <trkpt lat="45.87126" lon="5.61831">
        <ele>954.2</ele>
        <time>2026-05-12T13:33:14Z</time>
      </trkpt>
      <trkpt lat="45.87129" lon="5.61832">
        <ele>954.4</ele>
        <time>2026-05-12T13:33:15Z</time>
      </trkpt>
      <trkpt lat="45.87131" lon="5.61831">
        <ele>954.8</ele>
        <time>2026-05-12T13:33:16Z</time>
      </trkpt>
      <trkpt lat="45.87133" lon="5.6183">
        <ele>954.8</ele>
        <time>2026-05-12T13:33:17Z</time>
      </trkpt>
      <trkpt lat="45.87135" lon="5.61829">
        <ele>955</ele>
        <time>2026-05-12T13:33:18Z</time>
      </trkpt>
      <trkpt lat="45.87137" lon="5.61828">
        <ele>955</ele>
        <time>2026-05-12T13:33:19Z</time>
      </trkpt>
      <trkpt lat="45.87139" lon="5.61827">
        <ele>955.4</ele>
        <time>2026-05-12T13:33:20Z</time>
      </trkpt>
      <trkpt lat="45.87141" lon="5.61826">
        <ele>955.4</ele>
        <time>2026-05-12T13:33:21Z</time>
      </trkpt>
      <trkpt lat="45.87143" lon="5.61825">
        <ele>955.4</ele>
        <time>2026-05-12T13:33:22Z</time>
      </trkpt>
      <trkpt lat="45.87146" lon="5.61823">
        <ele>955.4</ele>
        <time>2026-05-12T13:33:23Z</time>
      </trkpt>
      <trkpt lat="45.87149" lon="5.61822">
        <ele>955.4</ele>
        <time>2026-05-12T13:33:24Z</time>
      </trkpt>
      <trkpt lat="45.87152" lon="5.6182">
        <ele>955.4</ele>
        <time>2026-05-12T13:33:25Z</time>
      </trkpt>
      <trkpt lat="45.87155" lon="5.61819">
        <ele>955.4</ele>
        <time>2026-05-12T13:33:26Z</time>
      </trkpt>
      <trkpt lat="45.87157" lon="5.61819">
        <ele>955.4</ele>
        <time>2026-05-12T13:33:27Z</time>
      </trkpt>
      <trkpt lat="45.8716" lon="5.61818">
        <ele>955.4</ele>
        <time>2026-05-12T13:33:28Z</time>
      </trkpt>
      <trkpt lat="45.87163" lon="5.61818">
        <ele>955.4</ele>
        <time>2026-05-12T13:33:29Z</time>
      </trkpt>
      <trkpt lat="45.87166" lon="5.61817">
        <ele>955.4</ele>
        <time>2026-05-12T13:33:30Z</time>
      </trkpt>
      <trkpt lat="45.87169" lon="5.61816">
        <ele>955.6</ele>
        <time>2026-05-12T13:33:31Z</time>
      </trkpt>
      <trkpt lat="45.87171" lon="5.61815">
        <ele>955.6</ele>
        <time>2026-05-12T13:33:32Z</time>
      </trkpt>
      <trkpt lat="45.87174" lon="5.61814">
        <ele>955.6</ele>
        <time>2026-05-12T13:33:33Z</time>
      </trkpt>
      <trkpt lat="45.87175" lon="5.61812">
        <ele>955.6</ele>
        <time>2026-05-12T13:33:34Z</time>
      </trkpt>
      <trkpt lat="45.87177" lon="5.61812">
        <ele>955.6</ele>
        <time>2026-05-12T13:33:35Z</time>
      </trkpt>
      <trkpt lat="45.87179" lon="5.61812">
        <ele>955.6</ele>
        <time>2026-05-12T13:33:36Z</time>
      </trkpt>
      <trkpt lat="45.87182" lon="5.61813">
        <ele>955.4</ele>
        <time>2026-05-12T13:33:37Z</time>
      </trkpt>
      <trkpt lat="45.87182" lon="5.61813">
        <ele>955.4</ele>
        <time>2026-05-12T13:33:38Z</time>
      </trkpt>
      <trkpt lat="45.87188" lon="5.61816">
        <ele>955.4</ele>
        <time>2026-05-12T13:33:39Z</time>
      </trkpt>
      <trkpt lat="45.87191" lon="5.61817">
        <ele>955.4</ele>
        <time>2026-05-12T13:33:40Z</time>
      </trkpt>
      <trkpt lat="45.87194" lon="5.61817">
        <ele>955.4</ele>
        <time>2026-05-12T13:33:41Z</time>
      </trkpt>
      <trkpt lat="45.87199" lon="5.61817">
        <ele>955.4</ele>
        <time>2026-05-12T13:33:42Z</time>
      </trkpt>
      <trkpt lat="45.87203" lon="5.61817">
        <ele>955.6</ele>
        <time>2026-05-12T13:33:43Z</time>
      </trkpt>
      <trkpt lat="45.87206" lon="5.61816">
        <ele>955.6</ele>
        <time>2026-05-12T13:33:44Z</time>
      </trkpt>
      <trkpt lat="45.8721" lon="5.61814">
        <ele>955.4</ele>
        <time>2026-05-12T13:33:45Z</time>
      </trkpt>
      <trkpt lat="45.87214" lon="5.61812">
        <ele>955.4</ele>
        <time>2026-05-12T13:33:46Z</time>
      </trkpt>
      <trkpt lat="45.87218" lon="5.61806">
        <ele>955.4</ele>
        <time>2026-05-12T13:33:47Z</time>
      </trkpt>
      <trkpt lat="45.87222" lon="5.61802">
        <ele>955</ele>
        <time>2026-05-12T13:33:48Z</time>
      </trkpt>
      <trkpt lat="45.87224" lon="5.61795">
        <ele>955</ele>
        <time>2026-05-12T13:33:49Z</time>
      </trkpt>
      <trkpt lat="45.87227" lon="5.61791">
        <ele>954.4</ele>
        <time>2026-05-12T13:33:50Z</time>
      </trkpt>
      <trkpt lat="45.87231" lon="5.61789">
        <ele>954.2</ele>
        <time>2026-05-12T13:33:51Z</time>
      </trkpt>
      <trkpt lat="45.87236" lon="5.61787">
        <ele>954.4</ele>
        <time>2026-05-12T13:33:52Z</time>
      </trkpt>
      <trkpt lat="45.8724" lon="5.61784">
        <ele>954.2</ele>
        <time>2026-05-12T13:33:53Z</time>
      </trkpt>
      <trkpt lat="45.87244" lon="5.61781">
        <ele>954.2</ele>
        <time>2026-05-12T13:33:54Z</time>
      </trkpt>
      <trkpt lat="45.87248" lon="5.61779">
        <ele>954.2</ele>
        <time>2026-05-12T13:33:55Z</time>
      </trkpt>
      <trkpt lat="45.87253" lon="5.61777">
        <ele>953.8</ele>
        <time>2026-05-12T13:33:56Z</time>
      </trkpt>
      <trkpt lat="45.87257" lon="5.61774">
        <ele>953.8</ele>
        <time>2026-05-12T13:33:57Z</time>
      </trkpt>
      <trkpt lat="45.87261" lon="5.61771">
        <ele>953.8</ele>
        <time>2026-05-12T13:33:58Z</time>
      </trkpt>
      <trkpt lat="45.87266" lon="5.61769">
        <ele>953.8</ele>
        <time>2026-05-12T13:33:59Z</time>
      </trkpt>
      <trkpt lat="45.87271" lon="5.61767">
        <ele>953.6</ele>
        <time>2026-05-12T13:34:00Z</time>
      </trkpt>
      <trkpt lat="45.87275" lon="5.61766">
        <ele>953.6</ele>
        <time>2026-05-12T13:34:01Z</time>
      </trkpt>
      <trkpt lat="45.8728" lon="5.61764">
        <ele>953.6</ele>
        <time>2026-05-12T13:34:02Z</time>
      </trkpt>
      <trkpt lat="45.87285" lon="5.61763">
        <ele>953.6</ele>
        <time>2026-05-12T13:34:03Z</time>
      </trkpt>
      <trkpt lat="45.87289" lon="5.6176">
        <ele>954.4</ele>
        <time>2026-05-12T13:34:04Z</time>
      </trkpt>
      <trkpt lat="45.87293" lon="5.6176">
        <ele>953.8</ele>
        <time>2026-05-12T13:34:05Z</time>
      </trkpt>
      <trkpt lat="45.87297" lon="5.61757">
        <ele>953.8</ele>
        <time>2026-05-12T13:34:06Z</time>
      </trkpt>
      <trkpt lat="45.87302" lon="5.61755">
        <ele>953.8</ele>
        <time>2026-05-12T13:34:07Z</time>
      </trkpt>
      <trkpt lat="45.87307" lon="5.61754">
        <ele>953.2</ele>
        <time>2026-05-12T13:34:08Z</time>
      </trkpt>
      <trkpt lat="45.87311" lon="5.61751">
        <ele>952.6</ele>
        <time>2026-05-12T13:34:09Z</time>
      </trkpt>
      <trkpt lat="45.87316" lon="5.61748">
        <ele>952.8</ele>
        <time>2026-05-12T13:34:10Z</time>
      </trkpt>
      <trkpt lat="45.8732" lon="5.61746">
        <ele>952.8</ele>
        <time>2026-05-12T13:34:11Z</time>
      </trkpt>
      <trkpt lat="45.87324" lon="5.61745">
        <ele>952.6</ele>
        <time>2026-05-12T13:34:12Z</time>
      </trkpt>
      <trkpt lat="45.87327" lon="5.61744">
        <ele>951.8</ele>
        <time>2026-05-12T13:34:13Z</time>
      </trkpt>
      <trkpt lat="45.87331" lon="5.61742">
        <ele>951</ele>
        <time>2026-05-12T13:34:14Z</time>
      </trkpt>
      <trkpt lat="45.87335" lon="5.61739">
        <ele>952.4</ele>
        <time>2026-05-12T13:34:15Z</time>
      </trkpt>
      <trkpt lat="45.87339" lon="5.61737">
        <ele>951.6</ele>
        <time>2026-05-12T13:34:16Z</time>
      </trkpt>
      <trkpt lat="45.87343" lon="5.61735">
        <ele>950.8</ele>
        <time>2026-05-12T13:34:17Z</time>
      </trkpt>
      <trkpt lat="45.87347" lon="5.61732">
        <ele>948.8</ele>
        <time>2026-05-12T13:34:18Z</time>
      </trkpt>
      <trkpt lat="45.87352" lon="5.61731">
        <ele>948.8</ele>
        <time>2026-05-12T13:34:19Z</time>
      </trkpt>
      <trkpt lat="45.87357" lon="5.61729">
        <ele>948.8</ele>
        <time>2026-05-12T13:34:20Z</time>
      </trkpt>
      <trkpt lat="45.87362" lon="5.61729">
        <ele>948.4</ele>
        <time>2026-05-12T13:34:21Z</time>
      </trkpt>
      <trkpt lat="45.87368" lon="5.61728">
        <ele>947.8</ele>
        <time>2026-05-12T13:34:22Z</time>
      </trkpt>
      <trkpt lat="45.87374" lon="5.61728">
        <ele>947.2</ele>
        <time>2026-05-12T13:34:23Z</time>
      </trkpt>
      <trkpt lat="45.87379" lon="5.61728">
        <ele>946.6</ele>
        <time>2026-05-12T13:34:24Z</time>
      </trkpt>
      <trkpt lat="45.87386" lon="5.61728">
        <ele>946</ele>
        <time>2026-05-12T13:34:25Z</time>
      </trkpt>
      <trkpt lat="45.87392" lon="5.61727">
        <ele>945.6</ele>
        <time>2026-05-12T13:34:26Z</time>
      </trkpt>
      <trkpt lat="45.87398" lon="5.61727">
        <ele>945.2</ele>
        <time>2026-05-12T13:34:27Z</time>
      </trkpt>
      <trkpt lat="45.87405" lon="5.61728">
        <ele>944.4</ele>
        <time>2026-05-12T13:34:28Z</time>
      </trkpt>
      <trkpt lat="45.87411" lon="5.61728">
        <ele>944</ele>
        <time>2026-05-12T13:34:29Z</time>
      </trkpt>
      <trkpt lat="45.87418" lon="5.61727">
        <ele>944</ele>
        <time>2026-05-12T13:34:30Z</time>
      </trkpt>
      <trkpt lat="45.87424" lon="5.61727">
        <ele>944</ele>
        <time>2026-05-12T13:34:31Z</time>
      </trkpt>
      <trkpt lat="45.87432" lon="5.61727">
        <ele>943.6</ele>
        <time>2026-05-12T13:34:32Z</time>
      </trkpt>
      <trkpt lat="45.87438" lon="5.61731">
        <ele>943.2</ele>
        <time>2026-05-12T13:34:33Z</time>
      </trkpt>
      <trkpt lat="45.87445" lon="5.61735">
        <ele>942.4</ele>
        <time>2026-05-12T13:34:34Z</time>
      </trkpt>
      <trkpt lat="45.87454" lon="5.61742">
        <ele>941.6</ele>
        <time>2026-05-12T13:34:35Z</time>
      </trkpt>
      <trkpt lat="45.8746" lon="5.61751">
        <ele>941.2</ele>
        <time>2026-05-12T13:34:36Z</time>
      </trkpt>
      <trkpt lat="45.87465" lon="5.61763">
        <ele>940.6</ele>
        <time>2026-05-12T13:34:37Z</time>
      </trkpt>
      <trkpt lat="45.87471" lon="5.61767">
        <ele>940</ele>
        <time>2026-05-12T13:34:38Z</time>
      </trkpt>
      <trkpt lat="45.87479" lon="5.61769">
        <ele>939.4</ele>
        <time>2026-05-12T13:34:39Z</time>
      </trkpt>
      <trkpt lat="45.87486" lon="5.61768">
        <ele>938.6</ele>
        <time>2026-05-12T13:34:40Z</time>
      </trkpt>
      <trkpt lat="45.87493" lon="5.61762">
        <ele>938.2</ele>
        <time>2026-05-12T13:34:41Z</time>
      </trkpt>
      <trkpt lat="45.87498" lon="5.61756">
        <ele>937.8</ele>
        <time>2026-05-12T13:34:42Z</time>
      </trkpt>
      <trkpt lat="45.87503" lon="5.6175">
        <ele>937.8</ele>
        <time>2026-05-12T13:34:43Z</time>
      </trkpt>
      <trkpt lat="45.87507" lon="5.61743">
        <ele>937.8</ele>
        <time>2026-05-12T13:34:44Z</time>
      </trkpt>
      <trkpt lat="45.87512" lon="5.61736">
        <ele>937.4</ele>
        <time>2026-05-12T13:34:45Z</time>
      </trkpt>
      <trkpt lat="45.87517" lon="5.61728">
        <ele>937.4</ele>
        <time>2026-05-12T13:34:46Z</time>
      </trkpt>
      <trkpt lat="45.87521" lon="5.6172">
        <ele>937</ele>
        <time>2026-05-12T13:34:47Z</time>
      </trkpt>
      <trkpt lat="45.87526" lon="5.61713">
        <ele>937</ele>
        <time>2026-05-12T13:34:48Z</time>
      </trkpt>
      <trkpt lat="45.87532" lon="5.61709">
        <ele>937</ele>
        <time>2026-05-12T13:34:49Z</time>
      </trkpt>
      <trkpt lat="45.87537" lon="5.61702">
        <ele>937</ele>
        <time>2026-05-12T13:34:50Z</time>
      </trkpt>
      <trkpt lat="45.87544" lon="5.61696">
        <ele>937</ele>
        <time>2026-05-12T13:34:51Z</time>
      </trkpt>
      <trkpt lat="45.87551" lon="5.61692">
        <ele>937</ele>
        <time>2026-05-12T13:34:52Z</time>
      </trkpt>
      <trkpt lat="45.87558" lon="5.61687">
        <ele>936.6</ele>
        <time>2026-05-12T13:34:53Z</time>
      </trkpt>
      <trkpt lat="45.87565" lon="5.61682">
        <ele>936</ele>
        <time>2026-05-12T13:34:54Z</time>
      </trkpt>
      <trkpt lat="45.87571" lon="5.61673">
        <ele>935.6</ele>
        <time>2026-05-12T13:34:55Z</time>
      </trkpt>
      <trkpt lat="45.87575" lon="5.61668">
        <ele>935.2</ele>
        <time>2026-05-12T13:34:56Z</time>
      </trkpt>
      <trkpt lat="45.87582" lon="5.61665">
        <ele>934.4</ele>
        <time>2026-05-12T13:34:57Z</time>
      </trkpt>
      <trkpt lat="45.87591" lon="5.61662">
        <ele>934.2</ele>
        <time>2026-05-12T13:34:58Z</time>
      </trkpt>
      <trkpt lat="45.876" lon="5.6166">
        <ele>933.8</ele>
        <time>2026-05-12T13:34:59Z</time>
      </trkpt>
      <trkpt lat="45.87606" lon="5.61656">
        <ele>933.8</ele>
        <time>2026-05-12T13:35:00Z</time>
      </trkpt>
      <trkpt lat="45.8762" lon="5.61646">
        <ele>933.8</ele>
        <time>2026-05-12T13:35:01Z</time>
      </trkpt>
      <trkpt lat="45.87628" lon="5.61641">
        <ele>933.2</ele>
        <time>2026-05-12T13:35:02Z</time>
      </trkpt>
      <trkpt lat="45.87634" lon="5.61635">
        <ele>932.4</ele>
        <time>2026-05-12T13:35:03Z</time>
      </trkpt>
      <trkpt lat="45.8764" lon="5.61629">
        <ele>931.6</ele>
        <time>2026-05-12T13:35:04Z</time>
      </trkpt>
      <trkpt lat="45.87647" lon="5.61623">
        <ele>930.8</ele>
        <time>2026-05-12T13:35:05Z</time>
      </trkpt>
      <trkpt lat="45.87651" lon="5.61616">
        <ele>930.8</ele>
        <time>2026-05-12T13:35:06Z</time>
      </trkpt>
      <trkpt lat="45.87655" lon="5.6161">
        <ele>930.4</ele>
        <time>2026-05-12T13:35:07Z</time>
      </trkpt>
      <trkpt lat="45.8766" lon="5.61605">
        <ele>931</ele>
        <time>2026-05-12T13:35:08Z</time>
      </trkpt>
      <trkpt lat="45.87665" lon="5.61599">
        <ele>931</ele>
        <time>2026-05-12T13:35:09Z</time>
      </trkpt>
      <trkpt lat="45.8767" lon="5.61594">
        <ele>931.4</ele>
        <time>2026-05-12T13:35:10Z</time>
      </trkpt>
      <trkpt lat="45.87674" lon="5.61587">
        <ele>931.4</ele>
        <time>2026-05-12T13:35:11Z</time>
      </trkpt>
      <trkpt lat="45.87679" lon="5.61581">
        <ele>931.4</ele>
        <time>2026-05-12T13:35:12Z</time>
      </trkpt>
      <trkpt lat="45.87684" lon="5.61575">
        <ele>931</ele>
        <time>2026-05-12T13:35:13Z</time>
      </trkpt>
      <trkpt lat="45.87688" lon="5.61571">
        <ele>930.8</ele>
        <time>2026-05-12T13:35:14Z</time>
      </trkpt>
      <trkpt lat="45.87691" lon="5.61566">
        <ele>930.8</ele>
        <time>2026-05-12T13:35:15Z</time>
      </trkpt>
      <trkpt lat="45.87693" lon="5.61563">
        <ele>930.8</ele>
        <time>2026-05-12T13:35:16Z</time>
      </trkpt>
      <trkpt lat="45.87696" lon="5.61561">
        <ele>931.2</ele>
        <time>2026-05-12T13:35:17Z</time>
      </trkpt>
      <trkpt lat="45.87697" lon="5.61559">
        <ele>931.6</ele>
        <time>2026-05-12T13:35:18Z</time>
      </trkpt>
      <trkpt lat="45.87697" lon="5.61558">
        <ele>931.8</ele>
        <time>2026-05-12T13:35:19Z</time>
      </trkpt>
      <trkpt lat="45.87696" lon="5.61558">
        <ele>932.2</ele>
        <time>2026-05-12T13:35:20Z</time>
      </trkpt>
      <trkpt lat="45.87696" lon="5.61559">
        <ele>932.2</ele>
        <time>2026-05-12T13:35:21Z</time>
      </trkpt>
      <trkpt lat="45.87696" lon="5.61559">
        <ele>932.6</ele>
        <time>2026-05-12T13:35:22Z</time>
      </trkpt>
      <trkpt lat="45.877" lon="5.61557">
        <ele>932.6</ele>
        <time>2026-05-12T13:35:50Z</time>
      </trkpt>
      <trkpt lat="45.87702" lon="5.61554">
        <ele>932.2</ele>
        <time>2026-05-12T13:35:51Z</time>
      </trkpt>
      <trkpt lat="45.87705" lon="5.6155">
        <ele>931.8</ele>
        <time>2026-05-12T13:35:52Z</time>
      </trkpt>
      <trkpt lat="45.87708" lon="5.61546">
        <ele>931.8</ele>
        <time>2026-05-12T13:35:53Z</time>
      </trkpt>
      <trkpt lat="45.87712" lon="5.61539">
        <ele>931.6</ele>
        <time>2026-05-12T13:35:54Z</time>
      </trkpt>
      <trkpt lat="45.87715" lon="5.61535">
        <ele>931.6</ele>
        <time>2026-05-12T13:35:55Z</time>
      </trkpt>
      <trkpt lat="45.87721" lon="5.6153">
        <ele>930.8</ele>
        <time>2026-05-12T13:35:56Z</time>
      </trkpt>
      <trkpt lat="45.87726" lon="5.61525">
        <ele>930.6</ele>
        <time>2026-05-12T13:35:57Z</time>
      </trkpt>
      <trkpt lat="45.87732" lon="5.61521">
        <ele>930.6</ele>
        <time>2026-05-12T13:35:58Z</time>
      </trkpt>
      <trkpt lat="45.87736" lon="5.61514">
        <ele>930.2</ele>
        <time>2026-05-12T13:35:59Z</time>
      </trkpt>
      <trkpt lat="45.87743" lon="5.6151">
        <ele>929.8</ele>
        <time>2026-05-12T13:36:00Z</time>
      </trkpt>
      <trkpt lat="45.87749" lon="5.61504">
        <ele>929.2</ele>
        <time>2026-05-12T13:36:01Z</time>
      </trkpt>
      <trkpt lat="45.87756" lon="5.61497">
        <ele>929</ele>
        <time>2026-05-12T13:36:02Z</time>
      </trkpt>
      <trkpt lat="45.87763" lon="5.6149">
        <ele>928.2</ele>
        <time>2026-05-12T13:36:03Z</time>
      </trkpt>
      <trkpt lat="45.8777" lon="5.61485">
        <ele>928</ele>
        <time>2026-05-12T13:36:04Z</time>
      </trkpt>
      <trkpt lat="45.87777" lon="5.6148">
        <ele>927.6</ele>
        <time>2026-05-12T13:36:05Z</time>
      </trkpt>
      <trkpt lat="45.87785" lon="5.61475">
        <ele>927.2</ele>
        <time>2026-05-12T13:36:06Z</time>
      </trkpt>
      <trkpt lat="45.87792" lon="5.6147">
        <ele>927</ele>
        <time>2026-05-12T13:36:07Z</time>
      </trkpt>
      <trkpt lat="45.87799" lon="5.61466">
        <ele>927.4</ele>
        <time>2026-05-12T13:36:08Z</time>
      </trkpt>
      <trkpt lat="45.87805" lon="5.6146">
        <ele>927.6</ele>
        <time>2026-05-12T13:36:09Z</time>
      </trkpt>
      <trkpt lat="45.87811" lon="5.61456">
        <ele>927.8</ele>
        <time>2026-05-12T13:36:10Z</time>
      </trkpt>
      <trkpt lat="45.87817" lon="5.61452">
        <ele>928.4</ele>
        <time>2026-05-12T13:36:11Z</time>
      </trkpt>
      <trkpt lat="45.87822" lon="5.61447">
        <ele>928.6</ele>
        <time>2026-05-12T13:36:12Z</time>
      </trkpt>
      <trkpt lat="45.87828" lon="5.61443">
        <ele>928.6</ele>
        <time>2026-05-12T13:36:13Z</time>
      </trkpt>
      <trkpt lat="45.87834" lon="5.61439">
        <ele>928.6</ele>
        <time>2026-05-12T13:36:14Z</time>
      </trkpt>
      <trkpt lat="45.87839" lon="5.61435">
        <ele>928.6</ele>
        <time>2026-05-12T13:36:15Z</time>
      </trkpt>
      <trkpt lat="45.87843" lon="5.61434">
        <ele>928.6</ele>
        <time>2026-05-12T13:36:16Z</time>
      </trkpt>
      <trkpt lat="45.87847" lon="5.61431">
        <ele>928.6</ele>
        <time>2026-05-12T13:36:17Z</time>
      </trkpt>
      <trkpt lat="45.87849" lon="5.61428">
        <ele>928.2</ele>
        <time>2026-05-12T13:36:18Z</time>
      </trkpt>
      <trkpt lat="45.87853" lon="5.61426">
        <ele>928.2</ele>
        <time>2026-05-12T13:36:19Z</time>
      </trkpt>
      <trkpt lat="45.87856" lon="5.61422">
        <ele>928.2</ele>
        <time>2026-05-12T13:36:20Z</time>
      </trkpt>
      <trkpt lat="45.8786" lon="5.61419">
        <ele>928</ele>
        <time>2026-05-12T13:36:21Z</time>
      </trkpt>
      <trkpt lat="45.87864" lon="5.61414">
        <ele>928</ele>
        <time>2026-05-12T13:36:22Z</time>
      </trkpt>
      <trkpt lat="45.87868" lon="5.6141">
        <ele>927.6</ele>
        <time>2026-05-12T13:36:23Z</time>
      </trkpt>
      <trkpt lat="45.87872" lon="5.61406">
        <ele>927.4</ele>
        <time>2026-05-12T13:36:24Z</time>
      </trkpt>
      <trkpt lat="45.87876" lon="5.61401">
        <ele>927.4</ele>
        <time>2026-05-12T13:36:25Z</time>
      </trkpt>
      <trkpt lat="45.87879" lon="5.61398">
        <ele>927.2</ele>
        <time>2026-05-12T13:36:26Z</time>
      </trkpt>
      <trkpt lat="45.87884" lon="5.61393">
        <ele>926.8</ele>
        <time>2026-05-12T13:36:27Z</time>
      </trkpt>
      <trkpt lat="45.87889" lon="5.61388">
        <ele>926.8</ele>
        <time>2026-05-12T13:36:28Z</time>
      </trkpt>
      <trkpt lat="45.87895" lon="5.61383">
        <ele>926.4</ele>
        <time>2026-05-12T13:36:29Z</time>
      </trkpt>
      <trkpt lat="45.87901" lon="5.61379">
        <ele>926.4</ele>
        <time>2026-05-12T13:36:30Z</time>
      </trkpt>
      <trkpt lat="45.87908" lon="5.61374">
        <ele>926</ele>
        <time>2026-05-12T13:36:31Z</time>
      </trkpt>
      <trkpt lat="45.87914" lon="5.61372">
        <ele>925.6</ele>
        <time>2026-05-12T13:36:32Z</time>
      </trkpt>
      <trkpt lat="45.8792" lon="5.61369">
        <ele>925.2</ele>
        <time>2026-05-12T13:36:33Z</time>
      </trkpt>
      <trkpt lat="45.87927" lon="5.61367">
        <ele>924.8</ele>
        <time>2026-05-12T13:36:34Z</time>
      </trkpt>
      <trkpt lat="45.87935" lon="5.61359">
        <ele>924.8</ele>
        <time>2026-05-12T13:36:35Z</time>
      </trkpt>
      <trkpt lat="45.87939" lon="5.61354">
        <ele>925.2</ele>
        <time>2026-05-12T13:36:36Z</time>
      </trkpt>
      <trkpt lat="45.87944" lon="5.61348">
        <ele>925.2</ele>
        <time>2026-05-12T13:36:37Z</time>
      </trkpt>
      <trkpt lat="45.87951" lon="5.61345">
        <ele>925.2</ele>
        <time>2026-05-12T13:36:38Z</time>
      </trkpt>
      <trkpt lat="45.87953" lon="5.61338">
        <ele>925.6</ele>
        <time>2026-05-12T13:36:39Z</time>
      </trkpt>
      <trkpt lat="45.87955" lon="5.61333">
        <ele>926</ele>
        <time>2026-05-12T13:36:40Z</time>
      </trkpt>
      <trkpt lat="45.87958" lon="5.6133">
        <ele>926.2</ele>
        <time>2026-05-12T13:36:41Z</time>
      </trkpt>
      <trkpt lat="45.8796" lon="5.61325">
        <ele>926.6</ele>
        <time>2026-05-12T13:36:42Z</time>
      </trkpt>
      <trkpt lat="45.87963" lon="5.61323">
        <ele>927</ele>
        <time>2026-05-12T13:36:43Z</time>
      </trkpt>
      <trkpt lat="45.87965" lon="5.6132">
        <ele>927</ele>
        <time>2026-05-12T13:36:44Z</time>
      </trkpt>
      <trkpt lat="45.87967" lon="5.61317">
        <ele>927</ele>
        <time>2026-05-12T13:36:45Z</time>
      </trkpt>
      <trkpt lat="45.87969" lon="5.61314">
        <ele>927</ele>
        <time>2026-05-12T13:36:46Z</time>
      </trkpt>
      <trkpt lat="45.87971" lon="5.6131">
        <ele>927</ele>
        <time>2026-05-12T13:36:47Z</time>
      </trkpt>
      <trkpt lat="45.87973" lon="5.61307">
        <ele>927</ele>
        <time>2026-05-12T13:36:48Z</time>
      </trkpt>
      <trkpt lat="45.87976" lon="5.61304">
        <ele>927</ele>
        <time>2026-05-12T13:36:49Z</time>
      </trkpt>
      <trkpt lat="45.87979" lon="5.61301">
        <ele>927</ele>
        <time>2026-05-12T13:36:50Z</time>
      </trkpt>
      <trkpt lat="45.87981" lon="5.61298">
        <ele>926.6</ele>
        <time>2026-05-12T13:36:51Z</time>
      </trkpt>
      <trkpt lat="45.87984" lon="5.61295">
        <ele>926.6</ele>
        <time>2026-05-12T13:36:52Z</time>
      </trkpt>
      <trkpt lat="45.87986" lon="5.61293">
        <ele>926.2</ele>
        <time>2026-05-12T13:36:53Z</time>
      </trkpt>
      <trkpt lat="45.87989" lon="5.6129">
        <ele>926.2</ele>
        <time>2026-05-12T13:36:54Z</time>
      </trkpt>
      <trkpt lat="45.87992" lon="5.61287">
        <ele>925.8</ele>
        <time>2026-05-12T13:36:55Z</time>
      </trkpt>
      <trkpt lat="45.87996" lon="5.61283">
        <ele>925.8</ele>
        <time>2026-05-12T13:36:56Z</time>
      </trkpt>
      <trkpt lat="45.87998" lon="5.61281">
        <ele>925.8</ele>
        <time>2026-05-12T13:36:57Z</time>
      </trkpt>
      <trkpt lat="45.88001" lon="5.61279">
        <ele>926.2</ele>
        <time>2026-05-12T13:36:58Z</time>
      </trkpt>
      <trkpt lat="45.88003" lon="5.61276">
        <ele>926.2</ele>
        <time>2026-05-12T13:36:59Z</time>
      </trkpt>
      <trkpt lat="45.88004" lon="5.61273">
        <ele>926.2</ele>
        <time>2026-05-12T13:37:00Z</time>
      </trkpt>
      <trkpt lat="45.88006" lon="5.61271">
        <ele>926.4</ele>
        <time>2026-05-12T13:37:01Z</time>
      </trkpt>
      <trkpt lat="45.88008" lon="5.61269">
        <ele>926.8</ele>
        <time>2026-05-12T13:37:02Z</time>
      </trkpt>
      <trkpt lat="45.88009" lon="5.61265">
        <ele>926.8</ele>
        <time>2026-05-12T13:37:03Z</time>
      </trkpt>
      <trkpt lat="45.8801" lon="5.61263">
        <ele>926.8</ele>
        <time>2026-05-12T13:37:04Z</time>
      </trkpt>
      <trkpt lat="45.88012" lon="5.61262">
        <ele>926.8</ele>
        <time>2026-05-12T13:37:05Z</time>
      </trkpt>
      <trkpt lat="45.88014" lon="5.61259">
        <ele>926.8</ele>
        <time>2026-05-12T13:37:06Z</time>
      </trkpt>
      <trkpt lat="45.88016" lon="5.61258">
        <ele>926.8</ele>
        <time>2026-05-12T13:37:07Z</time>
      </trkpt>
      <trkpt lat="45.88018" lon="5.61256">
        <ele>926.8</ele>
        <time>2026-05-12T13:37:08Z</time>
      </trkpt>
      <trkpt lat="45.88021" lon="5.61254">
        <ele>926.8</ele>
        <time>2026-05-12T13:37:09Z</time>
      </trkpt>
      <trkpt lat="45.88022" lon="5.61252">
        <ele>926.8</ele>
        <time>2026-05-12T13:37:10Z</time>
      </trkpt>
      <trkpt lat="45.88024" lon="5.6125">
        <ele>926.6</ele>
        <time>2026-05-12T13:37:11Z</time>
      </trkpt>
      <trkpt lat="45.88027" lon="5.61247">
        <ele>926.6</ele>
        <time>2026-05-12T13:37:12Z</time>
      </trkpt>
      <trkpt lat="45.88029" lon="5.61245">
        <ele>926.6</ele>
        <time>2026-05-12T13:37:13Z</time>
      </trkpt>
      <trkpt lat="45.88031" lon="5.61242">
        <ele>926.6</ele>
        <time>2026-05-12T13:37:14Z</time>
      </trkpt>
      <trkpt lat="45.88034" lon="5.61239">
        <ele>926.6</ele>
        <time>2026-05-12T13:37:15Z</time>
      </trkpt>
      <trkpt lat="45.88036" lon="5.61237">
        <ele>926.6</ele>
        <time>2026-05-12T13:37:16Z</time>
      </trkpt>
      <trkpt lat="45.88038" lon="5.61234">
        <ele>927</ele>
        <time>2026-05-12T13:37:17Z</time>
      </trkpt>
      <trkpt lat="45.88041" lon="5.6123">
        <ele>927.2</ele>
        <time>2026-05-12T13:37:18Z</time>
      </trkpt>
      <trkpt lat="45.88043" lon="5.61226">
        <ele>927.2</ele>
        <time>2026-05-12T13:37:19Z</time>
      </trkpt>
      <trkpt lat="45.88046" lon="5.61222">
        <ele>927.6</ele>
        <time>2026-05-12T13:37:20Z</time>
      </trkpt>
      <trkpt lat="45.88048" lon="5.61219">
        <ele>927.8</ele>
        <time>2026-05-12T13:37:21Z</time>
      </trkpt>
      <trkpt lat="45.88051" lon="5.61215">
        <ele>927.8</ele>
        <time>2026-05-12T13:37:22Z</time>
      </trkpt>
      <trkpt lat="45.88054" lon="5.61212">
        <ele>927.8</ele>
        <time>2026-05-12T13:37:23Z</time>
      </trkpt>
      <trkpt lat="45.88058" lon="5.61209">
        <ele>927.4</ele>
        <time>2026-05-12T13:37:24Z</time>
      </trkpt>
      <trkpt lat="45.88061" lon="5.61205">
        <ele>927</ele>
        <time>2026-05-12T13:37:25Z</time>
      </trkpt>
      <trkpt lat="45.88065" lon="5.61201">
        <ele>927</ele>
        <time>2026-05-12T13:37:26Z</time>
      </trkpt>
      <trkpt lat="45.88069" lon="5.61197">
        <ele>926.4</ele>
        <time>2026-05-12T13:37:27Z</time>
      </trkpt>
      <trkpt lat="45.88073" lon="5.61193">
        <ele>926.4</ele>
        <time>2026-05-12T13:37:28Z</time>
      </trkpt>
      <trkpt lat="45.88076" lon="5.61191">
        <ele>926.4</ele>
        <time>2026-05-12T13:37:29Z</time>
      </trkpt>
      <trkpt lat="45.8808" lon="5.61186">
        <ele>926.4</ele>
        <time>2026-05-12T13:37:30Z</time>
      </trkpt>
      <trkpt lat="45.88082" lon="5.61184">
        <ele>926.2</ele>
        <time>2026-05-12T13:37:31Z</time>
      </trkpt>
      <trkpt lat="45.88086" lon="5.6118">
        <ele>926.2</ele>
        <time>2026-05-12T13:37:32Z</time>
      </trkpt>
      <trkpt lat="45.88089" lon="5.61177">
        <ele>926.4</ele>
        <time>2026-05-12T13:37:33Z</time>
      </trkpt>
      <trkpt lat="45.88094" lon="5.61173">
        <ele>926.4</ele>
        <time>2026-05-12T13:37:34Z</time>
      </trkpt>
      <trkpt lat="45.88097" lon="5.61167">
        <ele>926.6</ele>
        <time>2026-05-12T13:37:35Z</time>
      </trkpt>
      <trkpt lat="45.88101" lon="5.61164">
        <ele>926.4</ele>
        <time>2026-05-12T13:37:36Z</time>
      </trkpt>
      <trkpt lat="45.88106" lon="5.61159">
        <ele>926.4</ele>
        <time>2026-05-12T13:37:37Z</time>
      </trkpt>
      <trkpt lat="45.8811" lon="5.61155">
        <ele>926.2</ele>
        <time>2026-05-12T13:37:38Z</time>
      </trkpt>
      <trkpt lat="45.88114" lon="5.61149">
        <ele>925.8</ele>
        <time>2026-05-12T13:37:39Z</time>
      </trkpt>
      <trkpt lat="45.88118" lon="5.61142">
        <ele>925.6</ele>
        <time>2026-05-12T13:37:40Z</time>
      </trkpt>
      <trkpt lat="45.88124" lon="5.61137">
        <ele>925.2</ele>
        <time>2026-05-12T13:37:41Z</time>
      </trkpt>
      <trkpt lat="45.88128" lon="5.61131">
        <ele>925</ele>
        <time>2026-05-12T13:37:42Z</time>
      </trkpt>
      <trkpt lat="45.88133" lon="5.61125">
        <ele>924.2</ele>
        <time>2026-05-12T13:37:43Z</time>
      </trkpt>
      <trkpt lat="45.88138" lon="5.61116">
        <ele>924.2</ele>
        <time>2026-05-12T13:37:44Z</time>
      </trkpt>
      <trkpt lat="45.88141" lon="5.61108">
        <ele>923</ele>
        <time>2026-05-12T13:37:45Z</time>
      </trkpt>
      <trkpt lat="45.88146" lon="5.61097">
        <ele>922.2</ele>
        <time>2026-05-12T13:37:46Z</time>
      </trkpt>
      <trkpt lat="45.88151" lon="5.61087">
        <ele>921.8</ele>
        <time>2026-05-12T13:37:47Z</time>
      </trkpt>
      <trkpt lat="45.88154" lon="5.61076">
        <ele>920.8</ele>
        <time>2026-05-12T13:37:48Z</time>
      </trkpt>
      <trkpt lat="45.88159" lon="5.61066">
        <ele>920</ele>
        <time>2026-05-12T13:37:49Z</time>
      </trkpt>
      <trkpt lat="45.88164" lon="5.61056">
        <ele>919.2</ele>
        <time>2026-05-12T13:37:50Z</time>
      </trkpt>
      <trkpt lat="45.88169" lon="5.61046">
        <ele>918.6</ele>
        <time>2026-05-12T13:37:51Z</time>
      </trkpt>
      <trkpt lat="45.88173" lon="5.61037">
        <ele>918</ele>
        <time>2026-05-12T13:37:52Z</time>
      </trkpt>
      <trkpt lat="45.88179" lon="5.61027">
        <ele>917.2</ele>
        <time>2026-05-12T13:37:53Z</time>
      </trkpt>
      <trkpt lat="45.88184" lon="5.61018">
        <ele>916.6</ele>
        <time>2026-05-12T13:37:54Z</time>
      </trkpt>
      <trkpt lat="45.88188" lon="5.61008">
        <ele>916.2</ele>
        <time>2026-05-12T13:37:55Z</time>
      </trkpt>
      <trkpt lat="45.88194" lon="5.61001">
        <ele>915.6</ele>
        <time>2026-05-12T13:37:56Z</time>
      </trkpt>
      <trkpt lat="45.882" lon="5.60994">
        <ele>915</ele>
        <time>2026-05-12T13:37:57Z</time>
      </trkpt>
      <trkpt lat="45.88208" lon="5.60986">
        <ele>914.6</ele>
        <time>2026-05-12T13:37:58Z</time>
      </trkpt>
      <trkpt lat="45.88215" lon="5.60982">
        <ele>914</ele>
        <time>2026-05-12T13:37:59Z</time>
      </trkpt>
      <trkpt lat="45.8822" lon="5.60976">
        <ele>913.6</ele>
        <time>2026-05-12T13:38:00Z</time>
      </trkpt>
      <trkpt lat="45.88227" lon="5.60973">
        <ele>913.6</ele>
        <time>2026-05-12T13:38:01Z</time>
      </trkpt>
      <trkpt lat="45.88232" lon="5.60967">
        <ele>913</ele>
        <time>2026-05-12T13:38:02Z</time>
      </trkpt>
      <trkpt lat="45.88234" lon="5.60958">
        <ele>912.6</ele>
        <time>2026-05-12T13:38:03Z</time>
      </trkpt>
      <trkpt lat="45.88239" lon="5.60948">
        <ele>911.4</ele>
        <time>2026-05-12T13:38:04Z</time>
      </trkpt>
      <trkpt lat="45.88242" lon="5.60937">
        <ele>910.8</ele>
        <time>2026-05-12T13:38:05Z</time>
      </trkpt>
      <trkpt lat="45.88245" lon="5.60926">
        <ele>910.8</ele>
        <time>2026-05-12T13:38:06Z</time>
      </trkpt>
      <trkpt lat="45.88248" lon="5.60915">
        <ele>910</ele>
        <time>2026-05-12T13:38:07Z</time>
      </trkpt>
      <trkpt lat="45.8825" lon="5.60905">
        <ele>910</ele>
        <time>2026-05-12T13:38:08Z</time>
      </trkpt>
      <trkpt lat="45.88254" lon="5.60894">
        <ele>909.6</ele>
        <time>2026-05-12T13:38:09Z</time>
      </trkpt>
      <trkpt lat="45.88258" lon="5.60883">
        <ele>908.6</ele>
        <time>2026-05-12T13:38:10Z</time>
      </trkpt>
      <trkpt lat="45.88264" lon="5.60873">
        <ele>908</ele>
        <time>2026-05-12T13:38:11Z</time>
      </trkpt>
      <trkpt lat="45.88269" lon="5.60864">
        <ele>907.4</ele>
        <time>2026-05-12T13:38:12Z</time>
      </trkpt>
      <trkpt lat="45.88276" lon="5.60856">
        <ele>906.8</ele>
        <time>2026-05-12T13:38:13Z</time>
      </trkpt>
      <trkpt lat="45.88282" lon="5.60847">
        <ele>906.2</ele>
        <time>2026-05-12T13:38:14Z</time>
      </trkpt>
      <trkpt lat="45.88288" lon="5.60838">
        <ele>905.2</ele>
        <time>2026-05-12T13:38:15Z</time>
      </trkpt>
      <trkpt lat="45.88294" lon="5.6083">
        <ele>904.6</ele>
        <time>2026-05-12T13:38:16Z</time>
      </trkpt>
      <trkpt lat="45.88301" lon="5.60821">
        <ele>904.4</ele>
        <time>2026-05-12T13:38:17Z</time>
      </trkpt>
      <trkpt lat="45.88307" lon="5.60812">
        <ele>903.2</ele>
        <time>2026-05-12T13:38:18Z</time>
      </trkpt>
      <trkpt lat="45.88313" lon="5.60802">
        <ele>902.6</ele>
        <time>2026-05-12T13:38:19Z</time>
      </trkpt>
      <trkpt lat="45.88321" lon="5.60795">
        <ele>901.6</ele>
        <time>2026-05-12T13:38:20Z</time>
      </trkpt>
      <trkpt lat="45.88327" lon="5.60787">
        <ele>901</ele>
        <time>2026-05-12T13:38:21Z</time>
      </trkpt>
      <trkpt lat="45.88334" lon="5.60779">
        <ele>901</ele>
        <time>2026-05-12T13:38:22Z</time>
      </trkpt>
      <trkpt lat="45.8834" lon="5.60771">
        <ele>900.8</ele>
        <time>2026-05-12T13:38:23Z</time>
      </trkpt>
      <trkpt lat="45.88347" lon="5.60765">
        <ele>901.2</ele>
        <time>2026-05-12T13:38:24Z</time>
      </trkpt>
      <trkpt lat="45.88353" lon="5.6076">
        <ele>901.2</ele>
        <time>2026-05-12T13:38:25Z</time>
      </trkpt>
      <trkpt lat="45.88358" lon="5.60754">
        <ele>901.2</ele>
        <time>2026-05-12T13:38:26Z</time>
      </trkpt>
      <trkpt lat="45.88363" lon="5.6075">
        <ele>901.2</ele>
        <time>2026-05-12T13:38:27Z</time>
      </trkpt>
      <trkpt lat="45.88368" lon="5.60747">
        <ele>901.8</ele>
        <time>2026-05-12T13:38:28Z</time>
      </trkpt>
      <trkpt lat="45.88374" lon="5.60743">
        <ele>902.4</ele>
        <time>2026-05-12T13:38:29Z</time>
      </trkpt>
      <trkpt lat="45.88379" lon="5.6074">
        <ele>902.8</ele>
        <time>2026-05-12T13:38:30Z</time>
      </trkpt>
      <trkpt lat="45.88385" lon="5.60736">
        <ele>903.4</ele>
        <time>2026-05-12T13:38:31Z</time>
      </trkpt>
      <trkpt lat="45.8839" lon="5.60732">
        <ele>904</ele>
        <time>2026-05-12T13:38:32Z</time>
      </trkpt>
      <trkpt lat="45.88395" lon="5.60728">
        <ele>904.4</ele>
        <time>2026-05-12T13:38:33Z</time>
      </trkpt>
      <trkpt lat="45.88401" lon="5.60724">
        <ele>904.6</ele>
        <time>2026-05-12T13:38:34Z</time>
      </trkpt>
      <trkpt lat="45.88405" lon="5.60721">
        <ele>904.6</ele>
        <time>2026-05-12T13:38:35Z</time>
      </trkpt>
      <trkpt lat="45.8841" lon="5.60718">
        <ele>904.6</ele>
        <time>2026-05-12T13:38:36Z</time>
      </trkpt>
      <trkpt lat="45.88414" lon="5.60715">
        <ele>905</ele>
        <time>2026-05-12T13:38:37Z</time>
      </trkpt>
      <trkpt lat="45.88419" lon="5.60712">
        <ele>905.6</ele>
        <time>2026-05-12T13:38:38Z</time>
      </trkpt>
      <trkpt lat="45.88423" lon="5.6071">
        <ele>906.2</ele>
        <time>2026-05-12T13:38:39Z</time>
      </trkpt>
      <trkpt lat="45.88426" lon="5.60707">
        <ele>906.6</ele>
        <time>2026-05-12T13:38:40Z</time>
      </trkpt>
      <trkpt lat="45.8843" lon="5.60705">
        <ele>906.8</ele>
        <time>2026-05-12T13:38:41Z</time>
      </trkpt>
      <trkpt lat="45.88433" lon="5.60703">
        <ele>907.2</ele>
        <time>2026-05-12T13:38:42Z</time>
      </trkpt>
      <trkpt lat="45.88436" lon="5.60702">
        <ele>907.2</ele>
        <time>2026-05-12T13:38:43Z</time>
      </trkpt>
      <trkpt lat="45.88439" lon="5.607">
        <ele>907.6</ele>
        <time>2026-05-12T13:38:44Z</time>
      </trkpt>
      <trkpt lat="45.88442" lon="5.60698">
        <ele>908</ele>
        <time>2026-05-12T13:38:45Z</time>
      </trkpt>
      <trkpt lat="45.88446" lon="5.60696">
        <ele>908.2</ele>
        <time>2026-05-12T13:38:46Z</time>
      </trkpt>
      <trkpt lat="45.88449" lon="5.60695">
        <ele>908.2</ele>
        <time>2026-05-12T13:38:47Z</time>
      </trkpt>
      <trkpt lat="45.88451" lon="5.60693">
        <ele>908.6</ele>
        <time>2026-05-12T13:38:48Z</time>
      </trkpt>
      <trkpt lat="45.88454" lon="5.60691">
        <ele>908.6</ele>
        <time>2026-05-12T13:38:49Z</time>
      </trkpt>
      <trkpt lat="45.88457" lon="5.60689">
        <ele>908.8</ele>
        <time>2026-05-12T13:38:50Z</time>
      </trkpt>
      <trkpt lat="45.8846" lon="5.60688">
        <ele>909.2</ele>
        <time>2026-05-12T13:38:51Z</time>
      </trkpt>
      <trkpt lat="45.88465" lon="5.60684">
        <ele>909.4</ele>
        <time>2026-05-12T13:38:52Z</time>
      </trkpt>
      <trkpt lat="45.88468" lon="5.60681">
        <ele>909.8</ele>
        <time>2026-05-12T13:38:53Z</time>
      </trkpt>
      <trkpt lat="45.88472" lon="5.60679">
        <ele>910.2</ele>
        <time>2026-05-12T13:38:54Z</time>
      </trkpt>
      <trkpt lat="45.88475" lon="5.60676">
        <ele>910.4</ele>
        <time>2026-05-12T13:38:55Z</time>
      </trkpt>
      <trkpt lat="45.88478" lon="5.60674">
        <ele>910.4</ele>
        <time>2026-05-12T13:38:56Z</time>
      </trkpt>
      <trkpt lat="45.8848" lon="5.60671">
        <ele>910.4</ele>
        <time>2026-05-12T13:38:57Z</time>
      </trkpt>
      <trkpt lat="45.88484" lon="5.60667">
        <ele>910.4</ele>
        <time>2026-05-12T13:38:58Z</time>
      </trkpt>
      <trkpt lat="45.88487" lon="5.60663">
        <ele>910.4</ele>
        <time>2026-05-12T13:38:59Z</time>
      </trkpt>
      <trkpt lat="45.8849" lon="5.6066">
        <ele>910.6</ele>
        <time>2026-05-12T13:39:00Z</time>
      </trkpt>
      <trkpt lat="45.88493" lon="5.60657">
        <ele>910.6</ele>
        <time>2026-05-12T13:39:01Z</time>
      </trkpt>
      <trkpt lat="45.88496" lon="5.60653">
        <ele>910.6</ele>
        <time>2026-05-12T13:39:02Z</time>
      </trkpt>
      <trkpt lat="45.885" lon="5.6065">
        <ele>910.4</ele>
        <time>2026-05-12T13:39:03Z</time>
      </trkpt>
      <trkpt lat="45.88503" lon="5.60646">
        <ele>910.4</ele>
        <time>2026-05-12T13:39:04Z</time>
      </trkpt>
      <trkpt lat="45.88506" lon="5.60641">
        <ele>910</ele>
        <time>2026-05-12T13:39:05Z</time>
      </trkpt>
      <trkpt lat="45.88509" lon="5.60637">
        <ele>910</ele>
        <time>2026-05-12T13:39:06Z</time>
      </trkpt>
      <trkpt lat="45.88513" lon="5.60635">
        <ele>909.8</ele>
        <time>2026-05-12T13:39:07Z</time>
      </trkpt>
      <trkpt lat="45.88517" lon="5.60631">
        <ele>909.8</ele>
        <time>2026-05-12T13:39:08Z</time>
      </trkpt>
      <trkpt lat="45.8852" lon="5.60627">
        <ele>909.8</ele>
        <time>2026-05-12T13:39:09Z</time>
      </trkpt>
      <trkpt lat="45.88523" lon="5.60624">
        <ele>909.8</ele>
        <time>2026-05-12T13:39:10Z</time>
      </trkpt>
      <trkpt lat="45.88527" lon="5.6062">
        <ele>909.8</ele>
        <time>2026-05-12T13:39:11Z</time>
      </trkpt>
      <trkpt lat="45.88532" lon="5.60617">
        <ele>909.8</ele>
        <time>2026-05-12T13:39:12Z</time>
      </trkpt>
      <trkpt lat="45.88536" lon="5.60612">
        <ele>909.8</ele>
        <time>2026-05-12T13:39:13Z</time>
      </trkpt>
      <trkpt lat="45.88541" lon="5.60607">
        <ele>909.8</ele>
        <time>2026-05-12T13:39:14Z</time>
      </trkpt>
      <trkpt lat="45.88545" lon="5.60604">
        <ele>909</ele>
        <time>2026-05-12T13:39:15Z</time>
      </trkpt>
      <trkpt lat="45.88551" lon="5.60599">
        <ele>908.4</ele>
        <time>2026-05-12T13:39:16Z</time>
      </trkpt>
      <trkpt lat="45.88555" lon="5.60593">
        <ele>908.2</ele>
        <time>2026-05-12T13:39:17Z</time>
      </trkpt>
      <trkpt lat="45.8856" lon="5.60588">
        <ele>908.2</ele>
        <time>2026-05-12T13:39:18Z</time>
      </trkpt>
      <trkpt lat="45.88564" lon="5.60583">
        <ele>908.2</ele>
        <time>2026-05-12T13:39:19Z</time>
      </trkpt>
      <trkpt lat="45.88564" lon="5.60583">
        <ele>908.2</ele>
        <time>2026-05-12T13:39:20Z</time>
      </trkpt>
      <trkpt lat="45.88568" lon="5.60576">
        <ele>908</ele>
        <time>2026-05-12T13:39:21Z</time>
      </trkpt>
      <trkpt lat="45.88571" lon="5.6057">
        <ele>907.6</ele>
        <time>2026-05-12T13:39:22Z</time>
      </trkpt>
      <trkpt lat="45.88575" lon="5.60563">
        <ele>907.2</ele>
        <time>2026-05-12T13:39:23Z</time>
      </trkpt>
      <trkpt lat="45.88578" lon="5.60556">
        <ele>907.2</ele>
        <time>2026-05-12T13:39:24Z</time>
      </trkpt>
      <trkpt lat="45.88581" lon="5.6055">
        <ele>907.2</ele>
        <time>2026-05-12T13:39:25Z</time>
      </trkpt>
      <trkpt lat="45.88584" lon="5.60543">
        <ele>907.2</ele>
        <time>2026-05-12T13:39:26Z</time>
      </trkpt>
      <trkpt lat="45.88586" lon="5.60537">
        <ele>907.2</ele>
        <time>2026-05-12T13:39:27Z</time>
      </trkpt>
      <trkpt lat="45.88589" lon="5.6053">
        <ele>907</ele>
        <time>2026-05-12T13:39:28Z</time>
      </trkpt>
      <trkpt lat="45.88592" lon="5.60524">
        <ele>906.8</ele>
        <time>2026-05-12T13:39:29Z</time>
      </trkpt>
      <trkpt lat="45.88595" lon="5.60517">
        <ele>906.8</ele>
        <time>2026-05-12T13:39:30Z</time>
      </trkpt>
      <trkpt lat="45.88598" lon="5.6051">
        <ele>906.4</ele>
        <time>2026-05-12T13:39:31Z</time>
      </trkpt>
      <trkpt lat="45.88602" lon="5.60503">
        <ele>905.8</ele>
        <time>2026-05-12T13:39:32Z</time>
      </trkpt>
      <trkpt lat="45.88605" lon="5.60496">
        <ele>905.8</ele>
        <time>2026-05-12T13:39:33Z</time>
      </trkpt>
      <trkpt lat="45.88609" lon="5.60491">
        <ele>905.2</ele>
        <time>2026-05-12T13:39:34Z</time>
      </trkpt>
      <trkpt lat="45.88614" lon="5.60484">
        <ele>904.8</ele>
        <time>2026-05-12T13:39:35Z</time>
      </trkpt>
      <trkpt lat="45.88619" lon="5.60479">
        <ele>904.2</ele>
        <time>2026-05-12T13:39:36Z</time>
      </trkpt>
      <trkpt lat="45.88624" lon="5.60473">
        <ele>903.8</ele>
        <time>2026-05-12T13:39:37Z</time>
      </trkpt>
      <trkpt lat="45.88629" lon="5.60468">
        <ele>903.8</ele>
        <time>2026-05-12T13:39:38Z</time>
      </trkpt>
      <trkpt lat="45.88634" lon="5.60463">
        <ele>903.8</ele>
        <time>2026-05-12T13:39:39Z</time>
      </trkpt>
      <trkpt lat="45.88639" lon="5.60458">
        <ele>903.8</ele>
        <time>2026-05-12T13:39:40Z</time>
      </trkpt>
      <trkpt lat="45.88644" lon="5.60454">
        <ele>903.8</ele>
        <time>2026-05-12T13:39:41Z</time>
      </trkpt>
      <trkpt lat="45.8865" lon="5.60448">
        <ele>903.4</ele>
        <time>2026-05-12T13:39:42Z</time>
      </trkpt>
      <trkpt lat="45.88655" lon="5.60445">
        <ele>903</ele>
        <time>2026-05-12T13:39:43Z</time>
      </trkpt>
      <trkpt lat="45.8866" lon="5.60441">
        <ele>902.4</ele>
        <time>2026-05-12T13:39:44Z</time>
      </trkpt>
      <trkpt lat="45.88665" lon="5.60437">
        <ele>902.2</ele>
        <time>2026-05-12T13:39:45Z</time>
      </trkpt>
      <trkpt lat="45.8867" lon="5.60434">
        <ele>902.4</ele>
        <time>2026-05-12T13:39:46Z</time>
      </trkpt>
      <trkpt lat="45.88676" lon="5.6043">
        <ele>901.8</ele>
        <time>2026-05-12T13:39:47Z</time>
      </trkpt>
      <trkpt lat="45.88681" lon="5.60427">
        <ele>901.4</ele>
        <time>2026-05-12T13:39:48Z</time>
      </trkpt>
      <trkpt lat="45.88686" lon="5.60423">
        <ele>901.4</ele>
        <time>2026-05-12T13:39:49Z</time>
      </trkpt>
      <trkpt lat="45.88692" lon="5.60421">
        <ele>901.4</ele>
        <time>2026-05-12T13:39:50Z</time>
      </trkpt>
      <trkpt lat="45.88698" lon="5.60419">
        <ele>901.4</ele>
        <time>2026-05-12T13:39:51Z</time>
      </trkpt>
      <trkpt lat="45.88704" lon="5.60416">
        <ele>901</ele>
        <time>2026-05-12T13:39:52Z</time>
      </trkpt>
      <trkpt lat="45.88711" lon="5.60414">
        <ele>901</ele>
        <time>2026-05-12T13:39:53Z</time>
      </trkpt>
      <trkpt lat="45.88717" lon="5.60413">
        <ele>900.6</ele>
        <time>2026-05-12T13:39:54Z</time>
      </trkpt>
      <trkpt lat="45.88723" lon="5.60411">
        <ele>900.2</ele>
        <time>2026-05-12T13:39:55Z</time>
      </trkpt>
      <trkpt lat="45.88729" lon="5.60409">
        <ele>900.2</ele>
        <time>2026-05-12T13:39:56Z</time>
      </trkpt>
      <trkpt lat="45.88735" lon="5.60408">
        <ele>900.2</ele>
        <time>2026-05-12T13:39:57Z</time>
      </trkpt>
      <trkpt lat="45.8874" lon="5.60406">
        <ele>900.8</ele>
        <time>2026-05-12T13:39:58Z</time>
      </trkpt>
      <trkpt lat="45.88746" lon="5.60405">
        <ele>901</ele>
        <time>2026-05-12T13:39:59Z</time>
      </trkpt>
      <trkpt lat="45.88752" lon="5.60403">
        <ele>900.6</ele>
        <time>2026-05-12T13:40:00Z</time>
      </trkpt>
      <trkpt lat="45.88758" lon="5.60402">
        <ele>900.6</ele>
        <time>2026-05-12T13:40:01Z</time>
      </trkpt>
      <trkpt lat="45.88763" lon="5.60401">
        <ele>900.6</ele>
        <time>2026-05-12T13:40:02Z</time>
      </trkpt>
      <trkpt lat="45.88769" lon="5.604">
        <ele>900.6</ele>
        <time>2026-05-12T13:40:03Z</time>
      </trkpt>
      <trkpt lat="45.88775" lon="5.60399">
        <ele>900.6</ele>
        <time>2026-05-12T13:40:04Z</time>
      </trkpt>
      <trkpt lat="45.8878" lon="5.60398">
        <ele>900.4</ele>
        <time>2026-05-12T13:40:05Z</time>
      </trkpt>
      <trkpt lat="45.88786" lon="5.60396">
        <ele>900.4</ele>
        <time>2026-05-12T13:40:06Z</time>
      </trkpt>
      <trkpt lat="45.88791" lon="5.60394">
        <ele>900.2</ele>
        <time>2026-05-12T13:40:07Z</time>
      </trkpt>
      <trkpt lat="45.88796" lon="5.60393">
        <ele>900</ele>
        <time>2026-05-12T13:40:08Z</time>
      </trkpt>
      <trkpt lat="45.88801" lon="5.60391">
        <ele>900</ele>
        <time>2026-05-12T13:40:09Z</time>
      </trkpt>
      <trkpt lat="45.88807" lon="5.6039">
        <ele>899.6</ele>
        <time>2026-05-12T13:40:10Z</time>
      </trkpt>
      <trkpt lat="45.88813" lon="5.60389">
        <ele>899.6</ele>
        <time>2026-05-12T13:40:11Z</time>
      </trkpt>
      <trkpt lat="45.88819" lon="5.60388">
        <ele>899.2</ele>
        <time>2026-05-12T13:40:12Z</time>
      </trkpt>
      <trkpt lat="45.88825" lon="5.60386">
        <ele>899</ele>
        <time>2026-05-12T13:40:13Z</time>
      </trkpt>
      <trkpt lat="45.88832" lon="5.60385">
        <ele>898.8</ele>
        <time>2026-05-12T13:40:14Z</time>
      </trkpt>
      <trkpt lat="45.88837" lon="5.60383">
        <ele>898.8</ele>
        <time>2026-05-12T13:40:15Z</time>
      </trkpt>
      <trkpt lat="45.88843" lon="5.60383">
        <ele>898.8</ele>
        <time>2026-05-12T13:40:16Z</time>
      </trkpt>
      <trkpt lat="45.88849" lon="5.60382">
        <ele>898.8</ele>
        <time>2026-05-12T13:40:17Z</time>
      </trkpt>
      <trkpt lat="45.88855" lon="5.60381">
        <ele>898.8</ele>
        <time>2026-05-12T13:40:18Z</time>
      </trkpt>
      <trkpt lat="45.8886" lon="5.6038">
        <ele>899</ele>
        <time>2026-05-12T13:40:19Z</time>
      </trkpt>
      <trkpt lat="45.88866" lon="5.60378">
        <ele>899</ele>
        <time>2026-05-12T13:40:20Z</time>
      </trkpt>
      <trkpt lat="45.88871" lon="5.60377">
        <ele>898.2</ele>
        <time>2026-05-12T13:40:21Z</time>
      </trkpt>
      <trkpt lat="45.88876" lon="5.60375">
        <ele>899.2</ele>
        <time>2026-05-12T13:40:22Z</time>
      </trkpt>
      <trkpt lat="45.88882" lon="5.60376">
        <ele>899.6</ele>
        <time>2026-05-12T13:40:23Z</time>
      </trkpt>
      <trkpt lat="45.88886" lon="5.60373">
        <ele>899.8</ele>
        <time>2026-05-12T13:40:24Z</time>
      </trkpt>
      <trkpt lat="45.8889" lon="5.60371">
        <ele>900.2</ele>
        <time>2026-05-12T13:40:25Z</time>
      </trkpt>
      <trkpt lat="45.88895" lon="5.60369">
        <ele>900.2</ele>
        <time>2026-05-12T13:40:26Z</time>
      </trkpt>
      <trkpt lat="45.88899" lon="5.60367">
        <ele>900.2</ele>
        <time>2026-05-12T13:40:27Z</time>
      </trkpt>
      <trkpt lat="45.88902" lon="5.60365">
        <ele>901</ele>
        <time>2026-05-12T13:40:28Z</time>
      </trkpt>
      <trkpt lat="45.88906" lon="5.60363">
        <ele>900.2</ele>
        <time>2026-05-12T13:40:29Z</time>
      </trkpt>
      <trkpt lat="45.88909" lon="5.60361">
        <ele>900.2</ele>
        <time>2026-05-12T13:40:30Z</time>
      </trkpt>
      <trkpt lat="45.88911" lon="5.60357">
        <ele>900.8</ele>
        <time>2026-05-12T13:40:31Z</time>
      </trkpt>
      <trkpt lat="45.88915" lon="5.60355">
        <ele>900.8</ele>
        <time>2026-05-12T13:40:32Z</time>
      </trkpt>
      <trkpt lat="45.88919" lon="5.60355">
        <ele>901.2</ele>
        <time>2026-05-12T13:40:33Z</time>
      </trkpt>
      <trkpt lat="45.88923" lon="5.60354">
        <ele>901.2</ele>
        <time>2026-05-12T13:40:34Z</time>
      </trkpt>
      <trkpt lat="45.88928" lon="5.60353">
        <ele>901.4</ele>
        <time>2026-05-12T13:40:35Z</time>
      </trkpt>
      <trkpt lat="45.88931" lon="5.60351">
        <ele>901.4</ele>
        <time>2026-05-12T13:40:36Z</time>
      </trkpt>
      <trkpt lat="45.88934" lon="5.6035">
        <ele>901.8</ele>
        <time>2026-05-12T13:40:37Z</time>
      </trkpt>
      <trkpt lat="45.88937" lon="5.60349">
        <ele>901.8</ele>
        <time>2026-05-12T13:40:38Z</time>
      </trkpt>
      <trkpt lat="45.8894" lon="5.60347">
        <ele>901.8</ele>
        <time>2026-05-12T13:40:39Z</time>
      </trkpt>
      <trkpt lat="45.88944" lon="5.60345">
        <ele>902</ele>
        <time>2026-05-12T13:40:40Z</time>
      </trkpt>
      <trkpt lat="45.88947" lon="5.60344">
        <ele>902</ele>
        <time>2026-05-12T13:40:41Z</time>
      </trkpt>
      <trkpt lat="45.88951" lon="5.60343">
        <ele>902</ele>
        <time>2026-05-12T13:40:42Z</time>
      </trkpt>
      <trkpt lat="45.88955" lon="5.60342">
        <ele>902</ele>
        <time>2026-05-12T13:40:43Z</time>
      </trkpt>
      <trkpt lat="45.88959" lon="5.60342">
        <ele>902</ele>
        <time>2026-05-12T13:40:44Z</time>
      </trkpt>
      <trkpt lat="45.88963" lon="5.6034">
        <ele>902</ele>
        <time>2026-05-12T13:40:45Z</time>
      </trkpt>
      <trkpt lat="45.88968" lon="5.6034">
        <ele>901.8</ele>
        <time>2026-05-12T13:40:46Z</time>
      </trkpt>
      <trkpt lat="45.88972" lon="5.60339">
        <ele>901.8</ele>
        <time>2026-05-12T13:40:47Z</time>
      </trkpt>
      <trkpt lat="45.88976" lon="5.60339">
        <ele>901.6</ele>
        <time>2026-05-12T13:40:48Z</time>
      </trkpt>
      <trkpt lat="45.88981" lon="5.60339">
        <ele>901.6</ele>
        <time>2026-05-12T13:40:49Z</time>
      </trkpt>
      <trkpt lat="45.88986" lon="5.60338">
        <ele>901.2</ele>
        <time>2026-05-12T13:40:50Z</time>
      </trkpt>
      <trkpt lat="45.8899" lon="5.60338">
        <ele>901</ele>
        <time>2026-05-12T13:40:51Z</time>
      </trkpt>
      <trkpt lat="45.88994" lon="5.60337">
        <ele>900.6</ele>
        <time>2026-05-12T13:40:52Z</time>
      </trkpt>
      <trkpt lat="45.88999" lon="5.60337">
        <ele>900.4</ele>
        <time>2026-05-12T13:40:53Z</time>
      </trkpt>
      <trkpt lat="45.89005" lon="5.60337">
        <ele>900.2</ele>
        <time>2026-05-12T13:40:54Z</time>
      </trkpt>
      <trkpt lat="45.89007" lon="5.60338">
        <ele>900.2</ele>
        <time>2026-05-12T13:40:55Z</time>
      </trkpt>
      <trkpt lat="45.8901" lon="5.60338">
        <ele>900.2</ele>
        <time>2026-05-12T13:40:56Z</time>
      </trkpt>
      <trkpt lat="45.89012" lon="5.60337">
        <ele>899.8</ele>
        <time>2026-05-12T13:40:57Z</time>
      </trkpt>
      <trkpt lat="45.89013" lon="5.60336">
        <ele>899.8</ele>
        <time>2026-05-12T13:40:58Z</time>
      </trkpt>
      <trkpt lat="45.89012" lon="5.60334">
        <ele>899.8</ele>
        <time>2026-05-12T13:40:59Z</time>
      </trkpt>
      <trkpt lat="45.8901" lon="5.60333">
        <ele>899.8</ele>
        <time>2026-05-12T13:41:00Z</time>
      </trkpt>
      <trkpt lat="45.89009" lon="5.60333">
        <ele>899.8</ele>
        <time>2026-05-12T13:41:01Z</time>
      </trkpt>
      <trkpt lat="45.89007" lon="5.60337">
        <ele>900</ele>
        <time>2026-05-12T13:41:02Z</time>
      </trkpt>
      <trkpt lat="45.89005" lon="5.60338">
        <ele>900</ele>
        <time>2026-05-12T13:41:03Z</time>
      </trkpt>
      <trkpt lat="45.89003" lon="5.60339">
        <ele>900</ele>
        <time>2026-05-12T13:41:04Z</time>
      </trkpt>
      <trkpt lat="45.89001" lon="5.60341">
        <ele>900</ele>
        <time>2026-05-12T13:41:05Z</time>
      </trkpt>
      <trkpt lat="45.88999" lon="5.60341">
        <ele>900</ele>
        <time>2026-05-12T13:41:06Z</time>
      </trkpt>
      <trkpt lat="45.88998" lon="5.60342">
        <ele>900</ele>
        <time>2026-05-12T13:41:07Z</time>
      </trkpt>
      <trkpt lat="45.88996" lon="5.60342">
        <ele>900</ele>
        <time>2026-05-12T13:41:08Z</time>
      </trkpt>
      <trkpt lat="45.88995" lon="5.60343">
        <ele>900</ele>
        <time>2026-05-12T13:41:09Z</time>
      </trkpt>
      <trkpt lat="45.88993" lon="5.60343">
        <ele>900.4</ele>
        <time>2026-05-12T13:41:10Z</time>
      </trkpt>
      <trkpt lat="45.88991" lon="5.60343">
        <ele>900.4</ele>
        <time>2026-05-12T13:41:11Z</time>
      </trkpt>
      <trkpt lat="45.8899" lon="5.60342">
        <ele>900.4</ele>
        <time>2026-05-12T13:41:12Z</time>
      </trkpt>
      <trkpt lat="45.8899" lon="5.60341">
        <ele>900.4</ele>
        <time>2026-05-12T13:41:13Z</time>
      </trkpt>
      <trkpt lat="45.8899" lon="5.6034">
        <ele>900.4</ele>
        <time>2026-05-12T13:41:14Z</time>
      </trkpt>
      <trkpt lat="45.8899" lon="5.60339">
        <ele>900.4</ele>
        <time>2026-05-12T13:41:15Z</time>
      </trkpt>
      <trkpt lat="45.88992" lon="5.60337">
        <ele>900.4</ele>
        <time>2026-05-12T13:41:18Z</time>
      </trkpt>
      <trkpt lat="45.88992" lon="5.60336">
        <ele>900.4</ele>
        <time>2026-05-12T13:41:19Z</time>
      </trkpt>
      <trkpt lat="45.88994" lon="5.60335">
        <ele>900.2</ele>
        <time>2026-05-12T13:41:20Z</time>
      </trkpt>
      <trkpt lat="45.88998" lon="5.60336">
        <ele>900.2</ele>
        <time>2026-05-12T13:41:21Z</time>
      </trkpt>
      <trkpt lat="45.89001" lon="5.60337">
        <ele>900</ele>
        <time>2026-05-12T13:41:22Z</time>
      </trkpt>
      <trkpt lat="45.89005" lon="5.60339">
        <ele>899.6</ele>
        <time>2026-05-12T13:41:23Z</time>
      </trkpt>
      <trkpt lat="45.89008" lon="5.60339">
        <ele>899.6</ele>
        <time>2026-05-12T13:41:24Z</time>
      </trkpt>
      <trkpt lat="45.89012" lon="5.60337">
        <ele>899.4</ele>
        <time>2026-05-12T13:41:25Z</time>
      </trkpt>
      <trkpt lat="45.89015" lon="5.60335">
        <ele>899.4</ele>
        <time>2026-05-12T13:41:26Z</time>
      </trkpt>
      <trkpt lat="45.89019" lon="5.60334">
        <ele>899.4</ele>
        <time>2026-05-12T13:41:27Z</time>
      </trkpt>
      <trkpt lat="45.89022" lon="5.60333">
        <ele>899.2</ele>
        <time>2026-05-12T13:41:28Z</time>
      </trkpt>
      <trkpt lat="45.89025" lon="5.60333">
        <ele>899.2</ele>
        <time>2026-05-12T13:41:29Z</time>
      </trkpt>
      <trkpt lat="45.89028" lon="5.60332">
        <ele>899.2</ele>
        <time>2026-05-12T13:41:30Z</time>
      </trkpt>
      <trkpt lat="45.89029" lon="5.60332">
        <ele>899.2</ele>
        <time>2026-05-12T13:41:31Z</time>
      </trkpt>
      <trkpt lat="45.8903" lon="5.60331">
        <ele>899.2</ele>
        <time>2026-05-12T13:41:32Z</time>
      </trkpt>
      <trkpt lat="45.8903" lon="5.60331">
        <ele>899</ele>
        <time>2026-05-12T13:41:33Z</time>
      </trkpt>
      <trkpt lat="45.8903" lon="5.60331">
        <ele>899</ele>
        <time>2026-05-12T13:41:34Z</time>
      </trkpt>
      <trkpt lat="45.89031" lon="5.60328">
        <ele>899</ele>
        <time>2026-05-12T13:41:54Z</time>
      </trkpt>
      <trkpt lat="45.89032" lon="5.60327">
        <ele>899</ele>
        <time>2026-05-12T13:41:55Z</time>
      </trkpt>
      <trkpt lat="45.89034" lon="5.60326">
        <ele>899</ele>
        <time>2026-05-12T13:41:56Z</time>
      </trkpt>
      <trkpt lat="45.89036" lon="5.60325">
        <ele>899</ele>
        <time>2026-05-12T13:41:57Z</time>
      </trkpt>
      <trkpt lat="45.89038" lon="5.60324">
        <ele>899</ele>
        <time>2026-05-12T13:41:58Z</time>
      </trkpt>
      <trkpt lat="45.89041" lon="5.60323">
        <ele>899</ele>
        <time>2026-05-12T13:41:59Z</time>
      </trkpt>
      <trkpt lat="45.89044" lon="5.60323">
        <ele>898.6</ele>
        <time>2026-05-12T13:42:00Z</time>
      </trkpt>
      <trkpt lat="45.89046" lon="5.60323">
        <ele>898.2</ele>
        <time>2026-05-12T13:42:01Z</time>
      </trkpt>
      <trkpt lat="45.89049" lon="5.60322">
        <ele>898</ele>
        <time>2026-05-12T13:42:02Z</time>
      </trkpt>
      <trkpt lat="45.89052" lon="5.60322">
        <ele>897.8</ele>
        <time>2026-05-12T13:42:03Z</time>
      </trkpt>
      <trkpt lat="45.89056" lon="5.60322">
        <ele>897.4</ele>
        <time>2026-05-12T13:42:04Z</time>
      </trkpt>
      <trkpt lat="45.89059" lon="5.60321">
        <ele>897</ele>
        <time>2026-05-12T13:42:05Z</time>
      </trkpt>
      <trkpt lat="45.89065" lon="5.60321">
        <ele>897</ele>
        <time>2026-05-12T13:42:06Z</time>
      </trkpt>
      <trkpt lat="45.8907" lon="5.6032">
        <ele>897</ele>
        <time>2026-05-12T13:42:07Z</time>
      </trkpt>
      <trkpt lat="45.89074" lon="5.60319">
        <ele>896.8</ele>
        <time>2026-05-12T13:42:08Z</time>
      </trkpt>
      <trkpt lat="45.89079" lon="5.60318">
        <ele>896.4</ele>
        <time>2026-05-12T13:42:09Z</time>
      </trkpt>
      <trkpt lat="45.89083" lon="5.60317">
        <ele>896.4</ele>
        <time>2026-05-12T13:42:10Z</time>
      </trkpt>
      <trkpt lat="45.89087" lon="5.60316">
        <ele>896.2</ele>
        <time>2026-05-12T13:42:11Z</time>
      </trkpt>
      <trkpt lat="45.89091" lon="5.60314">
        <ele>896</ele>
        <time>2026-05-12T13:42:12Z</time>
      </trkpt>
      <trkpt lat="45.89095" lon="5.60312">
        <ele>896</ele>
        <time>2026-05-12T13:42:13Z</time>
      </trkpt>
      <trkpt lat="45.89098" lon="5.6031">
        <ele>896</ele>
        <time>2026-05-12T13:42:14Z</time>
      </trkpt>
      <trkpt lat="45.89102" lon="5.60306">
        <ele>896</ele>
        <time>2026-05-12T13:42:15Z</time>
      </trkpt>
      <trkpt lat="45.89104" lon="5.60303">
        <ele>896</ele>
        <time>2026-05-12T13:42:16Z</time>
      </trkpt>
      <trkpt lat="45.89106" lon="5.60299">
        <ele>896.2</ele>
        <time>2026-05-12T13:42:17Z</time>
      </trkpt>
      <trkpt lat="45.89109" lon="5.60295">
        <ele>896.2</ele>
        <time>2026-05-12T13:42:18Z</time>
      </trkpt>
      <trkpt lat="45.89112" lon="5.60292">
        <ele>896.2</ele>
        <time>2026-05-12T13:42:19Z</time>
      </trkpt>
      <trkpt lat="45.89115" lon="5.60288">
        <ele>896</ele>
        <time>2026-05-12T13:42:20Z</time>
      </trkpt>
      <trkpt lat="45.89117" lon="5.60284">
        <ele>895.8</ele>
        <time>2026-05-12T13:42:21Z</time>
      </trkpt>
      <trkpt lat="45.8912" lon="5.60281">
        <ele>895.6</ele>
        <time>2026-05-12T13:42:22Z</time>
      </trkpt>
      <trkpt lat="45.89123" lon="5.60278">
        <ele>895.4</ele>
        <time>2026-05-12T13:42:23Z</time>
      </trkpt>
      <trkpt lat="45.89126" lon="5.60275">
        <ele>895.4</ele>
        <time>2026-05-12T13:42:24Z</time>
      </trkpt>
      <trkpt lat="45.8913" lon="5.60272">
        <ele>895.4</ele>
        <time>2026-05-12T13:42:25Z</time>
      </trkpt>
      <trkpt lat="45.89133" lon="5.60269">
        <ele>895.4</ele>
        <time>2026-05-12T13:42:26Z</time>
      </trkpt>
      <trkpt lat="45.89136" lon="5.60267">
        <ele>895.4</ele>
        <time>2026-05-12T13:42:27Z</time>
      </trkpt>
      <trkpt lat="45.8914" lon="5.60265">
        <ele>895</ele>
        <time>2026-05-12T13:42:28Z</time>
      </trkpt>
      <trkpt lat="45.89144" lon="5.60264">
        <ele>894.6</ele>
        <time>2026-05-12T13:42:29Z</time>
      </trkpt>
      <trkpt lat="45.89148" lon="5.60262">
        <ele>894</ele>
        <time>2026-05-12T13:42:30Z</time>
      </trkpt>
      <trkpt lat="45.89152" lon="5.60261">
        <ele>893.4</ele>
        <time>2026-05-12T13:42:31Z</time>
      </trkpt>
      <trkpt lat="45.89157" lon="5.6026">
        <ele>893</ele>
        <time>2026-05-12T13:42:32Z</time>
      </trkpt>
      <trkpt lat="45.89161" lon="5.6026">
        <ele>892.4</ele>
        <time>2026-05-12T13:42:33Z</time>
      </trkpt>
      <trkpt lat="45.89166" lon="5.60259">
        <ele>892</ele>
        <time>2026-05-12T13:42:34Z</time>
      </trkpt>
      <trkpt lat="45.89171" lon="5.60259">
        <ele>891.6</ele>
        <time>2026-05-12T13:42:35Z</time>
      </trkpt>
      <trkpt lat="45.89175" lon="5.60258">
        <ele>891.2</ele>
        <time>2026-05-12T13:42:36Z</time>
      </trkpt>
      <trkpt lat="45.89187" lon="5.60258">
        <ele>891</ele>
        <time>2026-05-12T13:42:37Z</time>
      </trkpt>
      <trkpt lat="45.89192" lon="5.60257">
        <ele>891</ele>
        <time>2026-05-12T13:42:38Z</time>
      </trkpt>
      <trkpt lat="45.89199" lon="5.60257">
        <ele>890.6</ele>
        <time>2026-05-12T13:42:39Z</time>
      </trkpt>
      <trkpt lat="45.89204" lon="5.60256">
        <ele>889.6</ele>
        <time>2026-05-12T13:42:40Z</time>
      </trkpt>
      <trkpt lat="45.8921" lon="5.60256">
        <ele>889.4</ele>
        <time>2026-05-12T13:42:41Z</time>
      </trkpt>
      <trkpt lat="45.89217" lon="5.60257">
        <ele>889.4</ele>
        <time>2026-05-12T13:42:42Z</time>
      </trkpt>
      <trkpt lat="45.89223" lon="5.60257">
        <ele>889.2</ele>
        <time>2026-05-12T13:42:43Z</time>
      </trkpt>
      <trkpt lat="45.89229" lon="5.60258">
        <ele>889.2</ele>
        <time>2026-05-12T13:42:44Z</time>
      </trkpt>
      <trkpt lat="45.89234" lon="5.60259">
        <ele>889.2</ele>
        <time>2026-05-12T13:42:45Z</time>
      </trkpt>
      <trkpt lat="45.8924" lon="5.6026">
        <ele>888.6</ele>
        <time>2026-05-12T13:42:46Z</time>
      </trkpt>
      <trkpt lat="45.89246" lon="5.60262">
        <ele>888.4</ele>
        <time>2026-05-12T13:42:47Z</time>
      </trkpt>
      <trkpt lat="45.89251" lon="5.60262">
        <ele>888.4</ele>
        <time>2026-05-12T13:42:48Z</time>
      </trkpt>
      <trkpt lat="45.89257" lon="5.60263">
        <ele>888.4</ele>
        <time>2026-05-12T13:42:49Z</time>
      </trkpt>
      <trkpt lat="45.89262" lon="5.60263">
        <ele>888.4</ele>
        <time>2026-05-12T13:42:50Z</time>
      </trkpt>
      <trkpt lat="45.89266" lon="5.60263">
        <ele>888.6</ele>
        <time>2026-05-12T13:42:51Z</time>
      </trkpt>
      <trkpt lat="45.89271" lon="5.60262">
        <ele>888.6</ele>
        <time>2026-05-12T13:42:52Z</time>
      </trkpt>
      <trkpt lat="45.89276" lon="5.60261">
        <ele>888.6</ele>
        <time>2026-05-12T13:42:53Z</time>
      </trkpt>
      <trkpt lat="45.89281" lon="5.60261">
        <ele>888.6</ele>
        <time>2026-05-12T13:42:54Z</time>
      </trkpt>
      <trkpt lat="45.89286" lon="5.60259">
        <ele>888.4</ele>
        <time>2026-05-12T13:42:55Z</time>
      </trkpt>
      <trkpt lat="45.8929" lon="5.60257">
        <ele>888.4</ele>
        <time>2026-05-12T13:42:56Z</time>
      </trkpt>
      <trkpt lat="45.89294" lon="5.60255">
        <ele>888.4</ele>
        <time>2026-05-12T13:42:57Z</time>
      </trkpt>
      <trkpt lat="45.89298" lon="5.60252">
        <ele>888.4</ele>
        <time>2026-05-12T13:42:58Z</time>
      </trkpt>
      <trkpt lat="45.89303" lon="5.60249">
        <ele>888</ele>
        <time>2026-05-12T13:42:59Z</time>
      </trkpt>
      <trkpt lat="45.89306" lon="5.60246">
        <ele>887.8</ele>
        <time>2026-05-12T13:43:00Z</time>
      </trkpt>
      <trkpt lat="45.8931" lon="5.60243">
        <ele>887.4</ele>
        <time>2026-05-12T13:43:01Z</time>
      </trkpt>
      <trkpt lat="45.89314" lon="5.60239">
        <ele>887.4</ele>
        <time>2026-05-12T13:43:02Z</time>
      </trkpt>
      <trkpt lat="45.89317" lon="5.60235">
        <ele>887.4</ele>
        <time>2026-05-12T13:43:03Z</time>
      </trkpt>
      <trkpt lat="45.8932" lon="5.60231">
        <ele>887.4</ele>
        <time>2026-05-12T13:43:04Z</time>
      </trkpt>
      <trkpt lat="45.89322" lon="5.60226">
        <ele>887.4</ele>
        <time>2026-05-12T13:43:05Z</time>
      </trkpt>
      <trkpt lat="45.89324" lon="5.6022">
        <ele>887.4</ele>
        <time>2026-05-12T13:43:06Z</time>
      </trkpt>
      <trkpt lat="45.89326" lon="5.60215">
        <ele>887.4</ele>
        <time>2026-05-12T13:43:07Z</time>
      </trkpt>
      <trkpt lat="45.89328" lon="5.6021">
        <ele>887.4</ele>
        <time>2026-05-12T13:43:08Z</time>
      </trkpt>
      <trkpt lat="45.89329" lon="5.60204">
        <ele>887.4</ele>
        <time>2026-05-12T13:43:09Z</time>
      </trkpt>
      <trkpt lat="45.8933" lon="5.60199">
        <ele>887.4</ele>
        <time>2026-05-12T13:43:10Z</time>
      </trkpt>
      <trkpt lat="45.8933" lon="5.60193">
        <ele>887.4</ele>
        <time>2026-05-12T13:43:11Z</time>
      </trkpt>
      <trkpt lat="45.8933" lon="5.60188">
        <ele>887.6</ele>
        <time>2026-05-12T13:43:12Z</time>
      </trkpt>
      <trkpt lat="45.89329" lon="5.60183">
        <ele>887.6</ele>
        <time>2026-05-12T13:43:13Z</time>
      </trkpt>
      <trkpt lat="45.89329" lon="5.60178">
        <ele>887.6</ele>
        <time>2026-05-12T13:43:14Z</time>
      </trkpt>
      <trkpt lat="45.89329" lon="5.60173">
        <ele>887.6</ele>
        <time>2026-05-12T13:43:15Z</time>
      </trkpt>
      <trkpt lat="45.89329" lon="5.60168">
        <ele>887.6</ele>
        <time>2026-05-12T13:43:16Z</time>
      </trkpt>
      <trkpt lat="45.89328" lon="5.60163">
        <ele>887.6</ele>
        <time>2026-05-12T13:43:17Z</time>
      </trkpt>
      <trkpt lat="45.89328" lon="5.60163">
        <ele>887.6</ele>
        <time>2026-05-12T13:43:18Z</time>
      </trkpt>
      <trkpt lat="45.89327" lon="5.60159">
        <ele>887.6</ele>
        <time>2026-05-12T13:43:19Z</time>
      </trkpt>
      <trkpt lat="45.89326" lon="5.60154">
        <ele>887.6</ele>
        <time>2026-05-12T13:43:20Z</time>
      </trkpt>
      <trkpt lat="45.89326" lon="5.60148">
        <ele>887.8</ele>
        <time>2026-05-12T13:43:21Z</time>
      </trkpt>
      <trkpt lat="45.89325" lon="5.60143">
        <ele>887.8</ele>
        <time>2026-05-12T13:43:22Z</time>
      </trkpt>
      <trkpt lat="45.89326" lon="5.60137">
        <ele>887.8</ele>
        <time>2026-05-12T13:43:23Z</time>
      </trkpt>
      <trkpt lat="45.89326" lon="5.60132">
        <ele>887.8</ele>
        <time>2026-05-12T13:43:24Z</time>
      </trkpt>
      <trkpt lat="45.89327" lon="5.60126">
        <ele>887.6</ele>
        <time>2026-05-12T13:43:25Z</time>
      </trkpt>
      <trkpt lat="45.89328" lon="5.6012">
        <ele>887.2</ele>
        <time>2026-05-12T13:43:26Z</time>
      </trkpt>
      <trkpt lat="45.89329" lon="5.60113">
        <ele>886.8</ele>
        <time>2026-05-12T13:43:27Z</time>
      </trkpt>
      <trkpt lat="45.89329" lon="5.60107">
        <ele>886.6</ele>
        <time>2026-05-12T13:43:28Z</time>
      </trkpt>
      <trkpt lat="45.8933" lon="5.601">
        <ele>886.6</ele>
        <time>2026-05-12T13:43:29Z</time>
      </trkpt>
      <trkpt lat="45.89332" lon="5.60093">
        <ele>886.6</ele>
        <time>2026-05-12T13:43:30Z</time>
      </trkpt>
      <trkpt lat="45.89333" lon="5.60086">
        <ele>886</ele>
        <time>2026-05-12T13:43:31Z</time>
      </trkpt>
      <trkpt lat="45.89333" lon="5.60078">
        <ele>885.4</ele>
        <time>2026-05-12T13:43:32Z</time>
      </trkpt>
      <trkpt lat="45.89333" lon="5.6007">
        <ele>885.2</ele>
        <time>2026-05-12T13:43:33Z</time>
      </trkpt>
      <trkpt lat="45.89333" lon="5.60062">
        <ele>884.8</ele>
        <time>2026-05-12T13:43:34Z</time>
      </trkpt>
      <trkpt lat="45.89333" lon="5.60054">
        <ele>884.2</ele>
        <time>2026-05-12T13:43:35Z</time>
      </trkpt>
      <trkpt lat="45.89332" lon="5.60047">
        <ele>883.8</ele>
        <time>2026-05-12T13:43:36Z</time>
      </trkpt>
      <trkpt lat="45.89331" lon="5.6004">
        <ele>883.8</ele>
        <time>2026-05-12T13:43:37Z</time>
      </trkpt>
      <trkpt lat="45.8933" lon="5.60033">
        <ele>883.4</ele>
        <time>2026-05-12T13:43:38Z</time>
      </trkpt>
      <trkpt lat="45.89329" lon="5.60026">
        <ele>883.2</ele>
        <time>2026-05-12T13:43:39Z</time>
      </trkpt>
      <trkpt lat="45.89328" lon="5.6002">
        <ele>883.2</ele>
        <time>2026-05-12T13:43:40Z</time>
      </trkpt>
      <trkpt lat="45.89327" lon="5.60013">
        <ele>883.2</ele>
        <time>2026-05-12T13:43:41Z</time>
      </trkpt>
      <trkpt lat="45.89326" lon="5.60007">
        <ele>883.2</ele>
        <time>2026-05-12T13:43:42Z</time>
      </trkpt>
      <trkpt lat="45.89326" lon="5.6">
        <ele>882.8</ele>
        <time>2026-05-12T13:43:43Z</time>
      </trkpt>
      <trkpt lat="45.89325" lon="5.59994">
        <ele>882.6</ele>
        <time>2026-05-12T13:43:44Z</time>
      </trkpt>
      <trkpt lat="45.89325" lon="5.59987">
        <ele>882.6</ele>
        <time>2026-05-12T13:43:45Z</time>
      </trkpt>
      <trkpt lat="45.89324" lon="5.59979">
        <ele>882</ele>
        <time>2026-05-12T13:43:46Z</time>
      </trkpt>
      <trkpt lat="45.89324" lon="5.59972">
        <ele>881.4</ele>
        <time>2026-05-12T13:43:47Z</time>
      </trkpt>
      <trkpt lat="45.89324" lon="5.59964">
        <ele>881.2</ele>
        <time>2026-05-12T13:43:48Z</time>
      </trkpt>
      <trkpt lat="45.89322" lon="5.59956">
        <ele>880.8</ele>
        <time>2026-05-12T13:43:49Z</time>
      </trkpt>
      <trkpt lat="45.89324" lon="5.59947">
        <ele>880.4</ele>
        <time>2026-05-12T13:43:50Z</time>
      </trkpt>
      <trkpt lat="45.89324" lon="5.59938">
        <ele>880</ele>
        <time>2026-05-12T13:43:51Z</time>
      </trkpt>
      <trkpt lat="45.89324" lon="5.59929">
        <ele>879.8</ele>
        <time>2026-05-12T13:43:52Z</time>
      </trkpt>
      <trkpt lat="45.89324" lon="5.59921">
        <ele>879.6</ele>
        <time>2026-05-12T13:43:53Z</time>
      </trkpt>
      <trkpt lat="45.89325" lon="5.59912">
        <ele>879.2</ele>
        <time>2026-05-12T13:43:54Z</time>
      </trkpt>
      <trkpt lat="45.89325" lon="5.59904">
        <ele>879</ele>
        <time>2026-05-12T13:43:55Z</time>
      </trkpt>
      <trkpt lat="45.89325" lon="5.59896">
        <ele>878.6</ele>
        <time>2026-05-12T13:43:56Z</time>
      </trkpt>
      <trkpt lat="45.89325" lon="5.59886">
        <ele>878.4</ele>
        <time>2026-05-12T13:43:57Z</time>
      </trkpt>
      <trkpt lat="45.89327" lon="5.59879">
        <ele>878</ele>
        <time>2026-05-12T13:43:58Z</time>
      </trkpt>
      <trkpt lat="45.89327" lon="5.5987">
        <ele>877.4</ele>
        <time>2026-05-12T13:43:59Z</time>
      </trkpt>
      <trkpt lat="45.89328" lon="5.59862">
        <ele>876.8</ele>
        <time>2026-05-12T13:44:00Z</time>
      </trkpt>
      <trkpt lat="45.8933" lon="5.59854">
        <ele>876.2</ele>
        <time>2026-05-12T13:44:01Z</time>
      </trkpt>
      <trkpt lat="45.89332" lon="5.59845">
        <ele>875.6</ele>
        <time>2026-05-12T13:44:02Z</time>
      </trkpt>
      <trkpt lat="45.89334" lon="5.59837">
        <ele>875.6</ele>
        <time>2026-05-12T13:44:03Z</time>
      </trkpt>
      <trkpt lat="45.89335" lon="5.59828">
        <ele>875.4</ele>
        <time>2026-05-12T13:44:04Z</time>
      </trkpt>
      <trkpt lat="45.89337" lon="5.5982">
        <ele>875.4</ele>
        <time>2026-05-12T13:44:05Z</time>
      </trkpt>
      <trkpt lat="45.89339" lon="5.59811">
        <ele>875.4</ele>
        <time>2026-05-12T13:44:06Z</time>
      </trkpt>
      <trkpt lat="45.89341" lon="5.59802">
        <ele>875.2</ele>
        <time>2026-05-12T13:44:07Z</time>
      </trkpt>
      <trkpt lat="45.89344" lon="5.59794">
        <ele>874.8</ele>
        <time>2026-05-12T13:44:08Z</time>
      </trkpt>
      <trkpt lat="45.89346" lon="5.59785">
        <ele>874</ele>
        <time>2026-05-12T13:44:09Z</time>
      </trkpt>
      <trkpt lat="45.89348" lon="5.59776">
        <ele>873.6</ele>
        <time>2026-05-12T13:44:10Z</time>
      </trkpt>
      <trkpt lat="45.8935" lon="5.59767">
        <ele>873.2</ele>
        <time>2026-05-12T13:44:11Z</time>
      </trkpt>
      <trkpt lat="45.89352" lon="5.59758">
        <ele>873.2</ele>
        <time>2026-05-12T13:44:12Z</time>
      </trkpt>
      <trkpt lat="45.89353" lon="5.59748">
        <ele>873.2</ele>
        <time>2026-05-12T13:44:13Z</time>
      </trkpt>
      <trkpt lat="45.89354" lon="5.5974">
        <ele>874</ele>
        <time>2026-05-12T13:44:14Z</time>
      </trkpt>
      <trkpt lat="45.89356" lon="5.59731">
        <ele>874</ele>
        <time>2026-05-12T13:44:15Z</time>
      </trkpt>
      <trkpt lat="45.89357" lon="5.59723">
        <ele>874</ele>
        <time>2026-05-12T13:44:16Z</time>
      </trkpt>
      <trkpt lat="45.89358" lon="5.59714">
        <ele>874</ele>
        <time>2026-05-12T13:44:17Z</time>
      </trkpt>
      <trkpt lat="45.89359" lon="5.59709">
        <ele>873.4</ele>
        <time>2026-05-12T13:44:18Z</time>
      </trkpt>
      <trkpt lat="45.89359" lon="5.59704">
        <ele>873.4</ele>
        <time>2026-05-12T13:44:19Z</time>
      </trkpt>
      <trkpt lat="45.8936" lon="5.597">
        <ele>873.4</ele>
        <time>2026-05-12T13:44:20Z</time>
      </trkpt>
      <trkpt lat="45.89361" lon="5.59695">
        <ele>873.4</ele>
        <time>2026-05-12T13:44:21Z</time>
      </trkpt>
      <trkpt lat="45.89361" lon="5.5969">
        <ele>873.8</ele>
        <time>2026-05-12T13:44:22Z</time>
      </trkpt>
      <trkpt lat="45.89362" lon="5.59684">
        <ele>873.8</ele>
        <time>2026-05-12T13:44:23Z</time>
      </trkpt>
      <trkpt lat="45.89363" lon="5.59678">
        <ele>873.8</ele>
        <time>2026-05-12T13:44:24Z</time>
      </trkpt>
      <trkpt lat="45.89364" lon="5.59673">
        <ele>873.4</ele>
        <time>2026-05-12T13:44:25Z</time>
      </trkpt>
      <trkpt lat="45.89364" lon="5.59668">
        <ele>873.4</ele>
        <time>2026-05-12T13:44:26Z</time>
      </trkpt>
      <trkpt lat="45.89365" lon="5.59663">
        <ele>873.4</ele>
        <time>2026-05-12T13:44:27Z</time>
      </trkpt>
      <trkpt lat="45.89365" lon="5.59658">
        <ele>873.4</ele>
        <time>2026-05-12T13:44:28Z</time>
      </trkpt>
      <trkpt lat="45.89365" lon="5.59653">
        <ele>873.4</ele>
        <time>2026-05-12T13:44:29Z</time>
      </trkpt>
      <trkpt lat="45.89366" lon="5.59647">
        <ele>873.6</ele>
        <time>2026-05-12T13:44:30Z</time>
      </trkpt>
      <trkpt lat="45.89366" lon="5.59642">
        <ele>873.6</ele>
        <time>2026-05-12T13:44:31Z</time>
      </trkpt>
      <trkpt lat="45.89366" lon="5.59637">
        <ele>873.6</ele>
        <time>2026-05-12T13:44:32Z</time>
      </trkpt>
      <trkpt lat="45.89367" lon="5.59631">
        <ele>873.2</ele>
        <time>2026-05-12T13:44:33Z</time>
      </trkpt>
      <trkpt lat="45.89367" lon="5.59625">
        <ele>873.2</ele>
        <time>2026-05-12T13:44:34Z</time>
      </trkpt>
      <trkpt lat="45.89368" lon="5.59619">
        <ele>872.8</ele>
        <time>2026-05-12T13:44:35Z</time>
      </trkpt>
      <trkpt lat="45.89368" lon="5.59613">
        <ele>872.6</ele>
        <time>2026-05-12T13:44:36Z</time>
      </trkpt>
      <trkpt lat="45.89369" lon="5.59608">
        <ele>872.6</ele>
        <time>2026-05-12T13:44:37Z</time>
      </trkpt>
      <trkpt lat="45.8937" lon="5.59603">
        <ele>872.2</ele>
        <time>2026-05-12T13:44:38Z</time>
      </trkpt>
      <trkpt lat="45.89371" lon="5.59598">
        <ele>871.8</ele>
        <time>2026-05-12T13:44:39Z</time>
      </trkpt>
      <trkpt lat="45.89371" lon="5.59594">
        <ele>871.4</ele>
        <time>2026-05-12T13:44:40Z</time>
      </trkpt>
      <trkpt lat="45.89372" lon="5.5959">
        <ele>871.4</ele>
        <time>2026-05-12T13:44:41Z</time>
      </trkpt>
      <trkpt lat="45.89373" lon="5.59587">
        <ele>871.2</ele>
        <time>2026-05-12T13:44:42Z</time>
      </trkpt>
      <trkpt lat="45.89374" lon="5.59583">
        <ele>871.2</ele>
        <time>2026-05-12T13:44:43Z</time>
      </trkpt>
      <trkpt lat="45.89375" lon="5.59581">
        <ele>871</ele>
        <time>2026-05-12T13:44:44Z</time>
      </trkpt>
      <trkpt lat="45.89376" lon="5.59579">
        <ele>871</ele>
        <time>2026-05-12T13:44:45Z</time>
      </trkpt>
      <trkpt lat="45.89376" lon="5.59577">
        <ele>871</ele>
        <time>2026-05-12T13:44:46Z</time>
      </trkpt>
      <trkpt lat="45.89375" lon="5.59576">
        <ele>871</ele>
        <time>2026-05-12T13:44:47Z</time>
      </trkpt>
      <trkpt lat="45.89374" lon="5.59577">
        <ele>871</ele>
        <time>2026-05-12T13:44:48Z</time>
      </trkpt>
      <trkpt lat="45.89373" lon="5.59575">
        <ele>871.8</ele>
        <time>2026-05-12T13:47:10Z</time>
      </trkpt>
      <trkpt lat="45.89373" lon="5.59575">
        <ele>871.8</ele>
        <time>2026-05-12T13:47:11Z</time>
      </trkpt>
      <trkpt lat="45.89373" lon="5.59575">
        <ele>871.4</ele>
        <time>2026-05-12T13:47:12Z</time>
      </trkpt>
      <trkpt lat="45.89373" lon="5.59575">
        <ele>871.2</ele>
        <time>2026-05-12T13:47:13Z</time>
      </trkpt>
      <trkpt lat="45.89373" lon="5.59576">
        <ele>871.2</ele>
        <time>2026-05-12T13:47:14Z</time>
      </trkpt>
      <trkpt lat="45.8937" lon="5.59576">
        <ele>871.2</ele>
        <time>2026-05-12T13:47:15Z</time>
      </trkpt>
      <trkpt lat="45.89369" lon="5.59577">
        <ele>871.2</ele>
        <time>2026-05-12T13:47:16Z</time>
      </trkpt>
      <trkpt lat="45.89368" lon="5.59579">
        <ele>871.2</ele>
        <time>2026-05-12T13:47:17Z</time>
      </trkpt>
      <trkpt lat="45.89368" lon="5.59581">
        <ele>871.2</ele>
        <time>2026-05-12T13:47:18Z</time>
      </trkpt>
      <trkpt lat="45.89369" lon="5.59583">
        <ele>871.2</ele>
        <time>2026-05-12T13:47:19Z</time>
      </trkpt>
      <trkpt lat="45.89369" lon="5.59585">
        <ele>871.2</ele>
        <time>2026-05-12T13:47:20Z</time>
      </trkpt>
      <trkpt lat="45.8937" lon="5.59587">
        <ele>871.6</ele>
        <time>2026-05-12T13:47:21Z</time>
      </trkpt>
      <trkpt lat="45.89371" lon="5.5959">
        <ele>871.6</ele>
        <time>2026-05-12T13:47:22Z</time>
      </trkpt>
      <trkpt lat="45.89372" lon="5.59592">
        <ele>871.8</ele>
        <time>2026-05-12T13:47:23Z</time>
      </trkpt>
      <trkpt lat="45.89372" lon="5.59595">
        <ele>871.8</ele>
        <time>2026-05-12T13:47:24Z</time>
      </trkpt>
      <trkpt lat="45.89372" lon="5.59597">
        <ele>871.8</ele>
        <time>2026-05-12T13:47:25Z</time>
      </trkpt>
      <trkpt lat="45.89372" lon="5.59599">
        <ele>872</ele>
        <time>2026-05-12T13:47:26Z</time>
      </trkpt>
      <trkpt lat="45.89372" lon="5.59601">
        <ele>872.4</ele>
        <time>2026-05-12T13:47:27Z</time>
      </trkpt>
      <trkpt lat="45.89372" lon="5.59604">
        <ele>872.6</ele>
        <time>2026-05-12T13:47:28Z</time>
      </trkpt>
      <trkpt lat="45.89372" lon="5.59606">
        <ele>872.8</ele>
        <time>2026-05-12T13:47:29Z</time>
      </trkpt>
      <trkpt lat="45.89372" lon="5.59608">
        <ele>872.8</ele>
        <time>2026-05-12T13:47:30Z</time>
      </trkpt>
      <trkpt lat="45.89371" lon="5.59609">
        <ele>872.4</ele>
        <time>2026-05-12T13:47:31Z</time>
      </trkpt>
      <trkpt lat="45.89371" lon="5.59611">
        <ele>873.2</ele>
        <time>2026-05-12T13:47:32Z</time>
      </trkpt>
      <trkpt lat="45.89371" lon="5.59614">
        <ele>873.2</ele>
        <time>2026-05-12T13:47:33Z</time>
      </trkpt>
      <trkpt lat="45.89371" lon="5.59616">
        <ele>873.4</ele>
        <time>2026-05-12T13:47:34Z</time>
      </trkpt>
      <trkpt lat="45.89371" lon="5.59618">
        <ele>873.4</ele>
        <time>2026-05-12T13:47:35Z</time>
      </trkpt>
      <trkpt lat="45.8937" lon="5.5962">
        <ele>873.2</ele>
        <time>2026-05-12T13:47:36Z</time>
      </trkpt>
      <trkpt lat="45.8937" lon="5.59622">
        <ele>873.6</ele>
        <time>2026-05-12T13:47:37Z</time>
      </trkpt>
      <trkpt lat="45.8937" lon="5.59624">
        <ele>873.6</ele>
        <time>2026-05-12T13:47:38Z</time>
      </trkpt>
      <trkpt lat="45.8937" lon="5.59627">
        <ele>873.6</ele>
        <time>2026-05-12T13:47:39Z</time>
      </trkpt>
      <trkpt lat="45.89369" lon="5.59629">
        <ele>873.6</ele>
        <time>2026-05-12T13:47:40Z</time>
      </trkpt>
      <trkpt lat="45.89369" lon="5.59631">
        <ele>873.6</ele>
        <time>2026-05-12T13:47:41Z</time>
      </trkpt>
      <trkpt lat="45.89369" lon="5.59634">
        <ele>873.6</ele>
        <time>2026-05-12T13:47:42Z</time>
      </trkpt>
      <trkpt lat="45.89369" lon="5.59636">
        <ele>873.6</ele>
        <time>2026-05-12T13:47:43Z</time>
      </trkpt>
      <trkpt lat="45.89369" lon="5.59639">
        <ele>873.6</ele>
        <time>2026-05-12T13:47:44Z</time>
      </trkpt>
      <trkpt lat="45.89369" lon="5.59641">
        <ele>873.6</ele>
        <time>2026-05-12T13:47:45Z</time>
      </trkpt>
      <trkpt lat="45.89369" lon="5.59644">
        <ele>873.6</ele>
        <time>2026-05-12T13:47:46Z</time>
      </trkpt>
      <trkpt lat="45.89369" lon="5.59646">
        <ele>874</ele>
        <time>2026-05-12T13:47:47Z</time>
      </trkpt>
      <trkpt lat="45.89368" lon="5.59649">
        <ele>874</ele>
        <time>2026-05-12T13:47:48Z</time>
      </trkpt>
      <trkpt lat="45.89368" lon="5.59652">
        <ele>874</ele>
        <time>2026-05-12T13:47:49Z</time>
      </trkpt>
      <trkpt lat="45.89368" lon="5.59654">
        <ele>874</ele>
        <time>2026-05-12T13:47:50Z</time>
      </trkpt>
      <trkpt lat="45.89368" lon="5.59656">
        <ele>874</ele>
        <time>2026-05-12T13:47:51Z</time>
      </trkpt>
      <trkpt lat="45.89368" lon="5.59657">
        <ele>874</ele>
        <time>2026-05-12T13:47:52Z</time>
      </trkpt>
      <trkpt lat="45.89367" lon="5.59658">
        <ele>874</ele>
        <time>2026-05-12T13:47:53Z</time>
      </trkpt>
      <trkpt lat="45.89367" lon="5.59659">
        <ele>874</ele>
        <time>2026-05-12T13:47:54Z</time>
      </trkpt>
      <trkpt lat="45.89368" lon="5.59659">
        <ele>874.6</ele>
        <time>2026-05-12T13:48:03Z</time>
      </trkpt>
      <trkpt lat="45.89368" lon="5.5966">
        <ele>874.6</ele>
        <time>2026-05-12T13:48:04Z</time>
      </trkpt>
      <trkpt lat="45.89367" lon="5.59662">
        <ele>873.8</ele>
        <time>2026-05-12T13:48:05Z</time>
      </trkpt>
      <trkpt lat="45.89367" lon="5.59665">
        <ele>874.4</ele>
        <time>2026-05-12T13:48:06Z</time>
      </trkpt>
      <trkpt lat="45.89367" lon="5.59668">
        <ele>874.4</ele>
        <time>2026-05-12T13:48:07Z</time>
      </trkpt>
      <trkpt lat="45.89366" lon="5.59672">
        <ele>874.6</ele>
        <time>2026-05-12T13:48:08Z</time>
      </trkpt>
      <trkpt lat="45.89365" lon="5.59676">
        <ele>874.6</ele>
        <time>2026-05-12T13:48:09Z</time>
      </trkpt>
      <trkpt lat="45.89364" lon="5.5968">
        <ele>874.2</ele>
        <time>2026-05-12T13:48:10Z</time>
      </trkpt>
      <trkpt lat="45.89363" lon="5.59684">
        <ele>874.2</ele>
        <time>2026-05-12T13:48:11Z</time>
      </trkpt>
      <trkpt lat="45.89363" lon="5.59687">
        <ele>874.2</ele>
        <time>2026-05-12T13:48:12Z</time>
      </trkpt>
      <trkpt lat="45.89363" lon="5.59691">
        <ele>874.2</ele>
        <time>2026-05-12T13:48:13Z</time>
      </trkpt>
      <trkpt lat="45.89363" lon="5.59694">
        <ele>874.6</ele>
        <time>2026-05-12T13:48:14Z</time>
      </trkpt>
      <trkpt lat="45.89363" lon="5.59697">
        <ele>874.6</ele>
        <time>2026-05-12T13:48:15Z</time>
      </trkpt>
      <trkpt lat="45.89363" lon="5.59699">
        <ele>874.6</ele>
        <time>2026-05-12T13:48:16Z</time>
      </trkpt>
      <trkpt lat="45.89363" lon="5.59702">
        <ele>874.6</ele>
        <time>2026-05-12T13:48:17Z</time>
      </trkpt>
      <trkpt lat="45.89364" lon="5.59705">
        <ele>874.6</ele>
        <time>2026-05-12T13:48:18Z</time>
      </trkpt>
      <trkpt lat="45.89366" lon="5.59708">
        <ele>874.8</ele>
        <time>2026-05-12T13:48:19Z</time>
      </trkpt>
      <trkpt lat="45.89369" lon="5.5971">
        <ele>874.8</ele>
        <time>2026-05-12T13:48:20Z</time>
      </trkpt>
      <trkpt lat="45.89372" lon="5.59712">
        <ele>874.8</ele>
        <time>2026-05-12T13:48:21Z</time>
      </trkpt>
      <trkpt lat="45.89375" lon="5.59713">
        <ele>874.8</ele>
        <time>2026-05-12T13:48:22Z</time>
      </trkpt>
      <trkpt lat="45.89378" lon="5.59713">
        <ele>874.8</ele>
        <time>2026-05-12T13:48:23Z</time>
      </trkpt>
      <trkpt lat="45.89381" lon="5.59714">
        <ele>874.8</ele>
        <time>2026-05-12T13:48:24Z</time>
      </trkpt>
      <trkpt lat="45.89384" lon="5.59714">
        <ele>874.6</ele>
        <time>2026-05-12T13:48:25Z</time>
      </trkpt>
      <trkpt lat="45.89388" lon="5.59715">
        <ele>874.8</ele>
        <time>2026-05-12T13:48:26Z</time>
      </trkpt>
      <trkpt lat="45.89391" lon="5.59716">
        <ele>874.8</ele>
        <time>2026-05-12T13:48:27Z</time>
      </trkpt>
      <trkpt lat="45.89394" lon="5.59718">
        <ele>874.8</ele>
        <time>2026-05-12T13:48:28Z</time>
      </trkpt>
      <trkpt lat="45.89398" lon="5.5972">
        <ele>875</ele>
        <time>2026-05-12T13:48:29Z</time>
      </trkpt>
      <trkpt lat="45.89401" lon="5.59722">
        <ele>875</ele>
        <time>2026-05-12T13:48:30Z</time>
      </trkpt>
      <trkpt lat="45.89404" lon="5.59724">
        <ele>875</ele>
        <time>2026-05-12T13:48:31Z</time>
      </trkpt>
      <trkpt lat="45.89407" lon="5.59726">
        <ele>875</ele>
        <time>2026-05-12T13:48:32Z</time>
      </trkpt>
      <trkpt lat="45.89411" lon="5.59728">
        <ele>875</ele>
        <time>2026-05-12T13:48:33Z</time>
      </trkpt>
      <trkpt lat="45.89414" lon="5.59729">
        <ele>875</ele>
        <time>2026-05-12T13:48:34Z</time>
      </trkpt>
      <trkpt lat="45.89417" lon="5.5973">
        <ele>875</ele>
        <time>2026-05-12T13:48:35Z</time>
      </trkpt>
      <trkpt lat="45.8942" lon="5.59731">
        <ele>875</ele>
        <time>2026-05-12T13:48:36Z</time>
      </trkpt>
      <trkpt lat="45.89423" lon="5.59732">
        <ele>875.2</ele>
        <time>2026-05-12T13:48:37Z</time>
      </trkpt>
      <trkpt lat="45.89426" lon="5.59734">
        <ele>875</ele>
        <time>2026-05-12T13:48:38Z</time>
      </trkpt>
      <trkpt lat="45.89429" lon="5.59735">
        <ele>875</ele>
        <time>2026-05-12T13:48:39Z</time>
      </trkpt>
      <trkpt lat="45.89432" lon="5.59737">
        <ele>875</ele>
        <time>2026-05-12T13:48:40Z</time>
      </trkpt>
      <trkpt lat="45.89435" lon="5.59738">
        <ele>875</ele>
        <time>2026-05-12T13:48:41Z</time>
      </trkpt>
      <trkpt lat="45.89438" lon="5.59741">
        <ele>875</ele>
        <time>2026-05-12T13:48:42Z</time>
      </trkpt>
      <trkpt lat="45.89441" lon="5.59744">
        <ele>875.2</ele>
        <time>2026-05-12T13:48:43Z</time>
      </trkpt>
      <trkpt lat="45.89444" lon="5.59748">
        <ele>875.6</ele>
        <time>2026-05-12T13:48:44Z</time>
      </trkpt>
      <trkpt lat="45.89447" lon="5.59751">
        <ele>875.6</ele>
        <time>2026-05-12T13:48:45Z</time>
      </trkpt>
      <trkpt lat="45.8945" lon="5.59754">
        <ele>875.6</ele>
        <time>2026-05-12T13:48:46Z</time>
      </trkpt>
      <trkpt lat="45.89453" lon="5.59757">
        <ele>875.6</ele>
        <time>2026-05-12T13:48:47Z</time>
      </trkpt>
      <trkpt lat="45.89457" lon="5.5976">
        <ele>875.8</ele>
        <time>2026-05-12T13:48:48Z</time>
      </trkpt>
      <trkpt lat="45.8946" lon="5.59763">
        <ele>875.8</ele>
        <time>2026-05-12T13:48:49Z</time>
      </trkpt>
      <trkpt lat="45.89463" lon="5.59766">
        <ele>875.8</ele>
        <time>2026-05-12T13:48:50Z</time>
      </trkpt>
      <trkpt lat="45.89466" lon="5.59769">
        <ele>875.8</ele>
        <time>2026-05-12T13:48:51Z</time>
      </trkpt>
      <trkpt lat="45.89469" lon="5.59771">
        <ele>876</ele>
        <time>2026-05-12T13:48:52Z</time>
      </trkpt>
      <trkpt lat="45.89472" lon="5.59774">
        <ele>876</ele>
        <time>2026-05-12T13:48:53Z</time>
      </trkpt>
      <trkpt lat="45.89475" lon="5.59776">
        <ele>876.4</ele>
        <time>2026-05-12T13:48:54Z</time>
      </trkpt>
      <trkpt lat="45.89477" lon="5.59779">
        <ele>876.4</ele>
        <time>2026-05-12T13:48:55Z</time>
      </trkpt>
      <trkpt lat="45.8948" lon="5.59782">
        <ele>876.4</ele>
        <time>2026-05-12T13:48:56Z</time>
      </trkpt>
      <trkpt lat="45.89483" lon="5.59784">
        <ele>876.8</ele>
        <time>2026-05-12T13:48:57Z</time>
      </trkpt>
      <trkpt lat="45.89486" lon="5.59787">
        <ele>876.8</ele>
        <time>2026-05-12T13:48:58Z</time>
      </trkpt>
      <trkpt lat="45.89489" lon="5.59789">
        <ele>877</ele>
        <time>2026-05-12T13:48:59Z</time>
      </trkpt>
      <trkpt lat="45.89492" lon="5.59792">
        <ele>877</ele>
        <time>2026-05-12T13:49:00Z</time>
      </trkpt>
      <trkpt lat="45.89495" lon="5.59795">
        <ele>877.4</ele>
        <time>2026-05-12T13:49:01Z</time>
      </trkpt>
      <trkpt lat="45.89498" lon="5.59797">
        <ele>877.4</ele>
        <time>2026-05-12T13:49:02Z</time>
      </trkpt>
      <trkpt lat="45.89501" lon="5.598">
        <ele>877.6</ele>
        <time>2026-05-12T13:49:03Z</time>
      </trkpt>
      <trkpt lat="45.89504" lon="5.59803">
        <ele>877.6</ele>
        <time>2026-05-12T13:49:04Z</time>
      </trkpt>
      <trkpt lat="45.89507" lon="5.59805">
        <ele>877.6</ele>
        <time>2026-05-12T13:49:05Z</time>
      </trkpt>
      <trkpt lat="45.8951" lon="5.59808">
        <ele>877.6</ele>
        <time>2026-05-12T13:49:06Z</time>
      </trkpt>
      <trkpt lat="45.89513" lon="5.59811">
        <ele>874.4</ele>
        <time>2026-05-12T13:49:07Z</time>
      </trkpt>
      <trkpt lat="45.89517" lon="5.59814">
        <ele>881</ele>
        <time>2026-05-12T13:49:08Z</time>
      </trkpt>
      <trkpt lat="45.8952" lon="5.59816">
        <ele>883.2</ele>
        <time>2026-05-12T13:49:09Z</time>
      </trkpt>
      <trkpt lat="45.89522" lon="5.59819">
        <ele>885.6</ele>
        <time>2026-05-12T13:49:10Z</time>
      </trkpt>
      <trkpt lat="45.89525" lon="5.59822">
        <ele>886.4</ele>
        <time>2026-05-12T13:49:11Z</time>
      </trkpt>
      <trkpt lat="45.89528" lon="5.59824">
        <ele>883</ele>
        <time>2026-05-12T13:49:12Z</time>
      </trkpt>
      <trkpt lat="45.89531" lon="5.59827">
        <ele>882.8</ele>
        <time>2026-05-12T13:49:13Z</time>
      </trkpt>
      <trkpt lat="45.89534" lon="5.59829">
        <ele>885.4</ele>
        <time>2026-05-12T13:49:14Z</time>
      </trkpt>
      <trkpt lat="45.89537" lon="5.59832">
        <ele>880</ele>
        <time>2026-05-12T13:49:15Z</time>
      </trkpt>
      <trkpt lat="45.89539" lon="5.59834">
        <ele>881.8</ele>
        <time>2026-05-12T13:49:16Z</time>
      </trkpt>
      <trkpt lat="45.89542" lon="5.59836">
        <ele>881.8</ele>
        <time>2026-05-12T13:49:17Z</time>
      </trkpt>
      <trkpt lat="45.89545" lon="5.59839">
        <ele>881.4</ele>
        <time>2026-05-12T13:49:18Z</time>
      </trkpt>
      <trkpt lat="45.89547" lon="5.59841">
        <ele>881.2</ele>
        <time>2026-05-12T13:49:19Z</time>
      </trkpt>
      <trkpt lat="45.8955" lon="5.59844">
        <ele>881.2</ele>
        <time>2026-05-12T13:49:20Z</time>
      </trkpt>
      <trkpt lat="45.89553" lon="5.59847">
        <ele>881</ele>
        <time>2026-05-12T13:49:21Z</time>
      </trkpt>
      <trkpt lat="45.89555" lon="5.5985">
        <ele>881</ele>
        <time>2026-05-12T13:49:22Z</time>
      </trkpt>
      <trkpt lat="45.89558" lon="5.59852">
        <ele>881.2</ele>
        <time>2026-05-12T13:49:23Z</time>
      </trkpt>
      <trkpt lat="45.8956" lon="5.59855">
        <ele>881.2</ele>
        <time>2026-05-12T13:49:24Z</time>
      </trkpt>
      <trkpt lat="45.89563" lon="5.59858">
        <ele>881.2</ele>
        <time>2026-05-12T13:49:25Z</time>
      </trkpt>
      <trkpt lat="45.89565" lon="5.5986">
        <ele>881.2</ele>
        <time>2026-05-12T13:49:26Z</time>
      </trkpt>
      <trkpt lat="45.89568" lon="5.59863">
        <ele>881.6</ele>
        <time>2026-05-12T13:49:27Z</time>
      </trkpt>
      <trkpt lat="45.8957" lon="5.59865">
        <ele>881.6</ele>
        <time>2026-05-12T13:49:28Z</time>
      </trkpt>
      <trkpt lat="45.89573" lon="5.59868">
        <ele>881.6</ele>
        <time>2026-05-12T13:49:29Z</time>
      </trkpt>
      <trkpt lat="45.89575" lon="5.59871">
        <ele>881.6</ele>
        <time>2026-05-12T13:49:30Z</time>
      </trkpt>
      <trkpt lat="45.89578" lon="5.59873">
        <ele>881.8</ele>
        <time>2026-05-12T13:49:31Z</time>
      </trkpt>
      <trkpt lat="45.89581" lon="5.59877">
        <ele>881.8</ele>
        <time>2026-05-12T13:49:32Z</time>
      </trkpt>
      <trkpt lat="45.89583" lon="5.59879">
        <ele>882</ele>
        <time>2026-05-12T13:49:33Z</time>
      </trkpt>
      <trkpt lat="45.89586" lon="5.59882">
        <ele>882</ele>
        <time>2026-05-12T13:49:34Z</time>
      </trkpt>
      <trkpt lat="45.89589" lon="5.59885">
        <ele>882.2</ele>
        <time>2026-05-12T13:49:35Z</time>
      </trkpt>
      <trkpt lat="45.89592" lon="5.59887">
        <ele>882.2</ele>
        <time>2026-05-12T13:49:36Z</time>
      </trkpt>
      <trkpt lat="45.89595" lon="5.5989">
        <ele>882.6</ele>
        <time>2026-05-12T13:49:37Z</time>
      </trkpt>
      <trkpt lat="45.89598" lon="5.59893">
        <ele>883</ele>
        <time>2026-05-12T13:49:38Z</time>
      </trkpt>
      <trkpt lat="45.896" lon="5.59895">
        <ele>883</ele>
        <time>2026-05-12T13:49:39Z</time>
      </trkpt>
      <trkpt lat="45.89603" lon="5.59898">
        <ele>883.4</ele>
        <time>2026-05-12T13:49:40Z</time>
      </trkpt>
      <trkpt lat="45.89606" lon="5.59901">
        <ele>883.4</ele>
        <time>2026-05-12T13:49:41Z</time>
      </trkpt>
      <trkpt lat="45.89609" lon="5.59903">
        <ele>883.6</ele>
        <time>2026-05-12T13:49:42Z</time>
      </trkpt>
      <trkpt lat="45.89611" lon="5.59906">
        <ele>883.6</ele>
        <time>2026-05-12T13:49:43Z</time>
      </trkpt>
      <trkpt lat="45.89614" lon="5.59909">
        <ele>883.6</ele>
        <time>2026-05-12T13:49:44Z</time>
      </trkpt>
      <trkpt lat="45.89616" lon="5.59911">
        <ele>884</ele>
        <time>2026-05-12T13:49:45Z</time>
      </trkpt>
      <trkpt lat="45.89618" lon="5.59914">
        <ele>884</ele>
        <time>2026-05-12T13:49:46Z</time>
      </trkpt>
      <trkpt lat="45.89621" lon="5.59916">
        <ele>884.2</ele>
        <time>2026-05-12T13:49:47Z</time>
      </trkpt>
      <trkpt lat="45.89624" lon="5.59919">
        <ele>884.2</ele>
        <time>2026-05-12T13:49:48Z</time>
      </trkpt>
      <trkpt lat="45.89626" lon="5.59921">
        <ele>884.6</ele>
        <time>2026-05-12T13:49:49Z</time>
      </trkpt>
      <trkpt lat="45.89629" lon="5.59923">
        <ele>884.6</ele>
        <time>2026-05-12T13:49:50Z</time>
      </trkpt>
      <trkpt lat="45.89631" lon="5.59926">
        <ele>884.8</ele>
        <time>2026-05-12T13:49:51Z</time>
      </trkpt>
      <trkpt lat="45.89633" lon="5.59928">
        <ele>884.8</ele>
        <time>2026-05-12T13:49:52Z</time>
      </trkpt>
      <trkpt lat="45.89636" lon="5.59931">
        <ele>884.8</ele>
        <time>2026-05-12T13:49:53Z</time>
      </trkpt>
      <trkpt lat="45.89638" lon="5.59933">
        <ele>885.2</ele>
        <time>2026-05-12T13:49:54Z</time>
      </trkpt>
      <trkpt lat="45.89641" lon="5.59936">
        <ele>885.2</ele>
        <time>2026-05-12T13:49:55Z</time>
      </trkpt>
      <trkpt lat="45.89643" lon="5.59938">
        <ele>885.2</ele>
        <time>2026-05-12T13:49:56Z</time>
      </trkpt>
      <trkpt lat="45.89646" lon="5.5994">
        <ele>885.6</ele>
        <time>2026-05-12T13:49:57Z</time>
      </trkpt>
      <trkpt lat="45.89649" lon="5.59943">
        <ele>885.8</ele>
        <time>2026-05-12T13:49:58Z</time>
      </trkpt>
      <trkpt lat="45.89652" lon="5.59945">
        <ele>885.8</ele>
        <time>2026-05-12T13:49:59Z</time>
      </trkpt>
      <trkpt lat="45.89654" lon="5.59948">
        <ele>886</ele>
        <time>2026-05-12T13:50:00Z</time>
      </trkpt>
      <trkpt lat="45.89657" lon="5.5995">
        <ele>886</ele>
        <time>2026-05-12T13:50:01Z</time>
      </trkpt>
      <trkpt lat="45.8966" lon="5.59953">
        <ele>886.4</ele>
        <time>2026-05-12T13:50:02Z</time>
      </trkpt>
      <trkpt lat="45.89663" lon="5.59956">
        <ele>886.4</ele>
        <time>2026-05-12T13:50:03Z</time>
      </trkpt>
      <trkpt lat="45.89666" lon="5.59959">
        <ele>886.4</ele>
        <time>2026-05-12T13:50:04Z</time>
      </trkpt>
      <trkpt lat="45.89669" lon="5.59961">
        <ele>886.4</ele>
        <time>2026-05-12T13:50:05Z</time>
      </trkpt>
      <trkpt lat="45.89672" lon="5.59964">
        <ele>886.4</ele>
        <time>2026-05-12T13:50:06Z</time>
      </trkpt>
      <trkpt lat="45.89675" lon="5.59967">
        <ele>886.6</ele>
        <time>2026-05-12T13:50:07Z</time>
      </trkpt>
      <trkpt lat="45.89678" lon="5.59969">
        <ele>886.6</ele>
        <time>2026-05-12T13:50:08Z</time>
      </trkpt>
      <trkpt lat="45.89681" lon="5.59972">
        <ele>886.6</ele>
        <time>2026-05-12T13:50:09Z</time>
      </trkpt>
      <trkpt lat="45.89683" lon="5.59975">
        <ele>886.6</ele>
        <time>2026-05-12T13:50:10Z</time>
      </trkpt>
      <trkpt lat="45.89686" lon="5.59978">
        <ele>887</ele>
        <time>2026-05-12T13:50:11Z</time>
      </trkpt>
      <trkpt lat="45.8969" lon="5.59981">
        <ele>887</ele>
        <time>2026-05-12T13:50:12Z</time>
      </trkpt>
      <trkpt lat="45.89692" lon="5.59984">
        <ele>887</ele>
        <time>2026-05-12T13:50:13Z</time>
      </trkpt>
      <trkpt lat="45.89696" lon="5.59986">
        <ele>887.4</ele>
        <time>2026-05-12T13:50:14Z</time>
      </trkpt>
      <trkpt lat="45.89699" lon="5.59989">
        <ele>887.4</ele>
        <time>2026-05-12T13:50:15Z</time>
      </trkpt>
      <trkpt lat="45.89702" lon="5.59992">
        <ele>887.4</ele>
        <time>2026-05-12T13:50:16Z</time>
      </trkpt>
      <trkpt lat="45.89705" lon="5.59995">
        <ele>887.4</ele>
        <time>2026-05-12T13:50:17Z</time>
      </trkpt>
      <trkpt lat="45.89708" lon="5.59998">
        <ele>887.4</ele>
        <time>2026-05-12T13:50:18Z</time>
      </trkpt>
      <trkpt lat="45.89712" lon="5.60001">
        <ele>887.4</ele>
        <time>2026-05-12T13:50:19Z</time>
      </trkpt>
      <trkpt lat="45.89715" lon="5.60004">
        <ele>887.6</ele>
        <time>2026-05-12T13:50:20Z</time>
      </trkpt>
      <trkpt lat="45.89718" lon="5.60006">
        <ele>887.6</ele>
        <time>2026-05-12T13:50:21Z</time>
      </trkpt>
      <trkpt lat="45.89721" lon="5.60009">
        <ele>887.6</ele>
        <time>2026-05-12T13:50:22Z</time>
      </trkpt>
      <trkpt lat="45.89724" lon="5.60011">
        <ele>887.6</ele>
        <time>2026-05-12T13:50:23Z</time>
      </trkpt>
      <trkpt lat="45.89727" lon="5.60013">
        <ele>887.6</ele>
        <time>2026-05-12T13:50:24Z</time>
      </trkpt>
      <trkpt lat="45.8973" lon="5.60017">
        <ele>887.6</ele>
        <time>2026-05-12T13:50:25Z</time>
      </trkpt>
      <trkpt lat="45.89733" lon="5.6002">
        <ele>888</ele>
        <time>2026-05-12T13:50:26Z</time>
      </trkpt>
      <trkpt lat="45.89736" lon="5.60023">
        <ele>888</ele>
        <time>2026-05-12T13:50:27Z</time>
      </trkpt>
      <trkpt lat="45.8974" lon="5.60026">
        <ele>888.4</ele>
        <time>2026-05-12T13:50:28Z</time>
      </trkpt>
      <trkpt lat="45.89743" lon="5.60029">
        <ele>888.6</ele>
        <time>2026-05-12T13:50:29Z</time>
      </trkpt>
      <trkpt lat="45.89746" lon="5.60032">
        <ele>888.6</ele>
        <time>2026-05-12T13:50:30Z</time>
      </trkpt>
      <trkpt lat="45.89749" lon="5.60035">
        <ele>889</ele>
        <time>2026-05-12T13:50:31Z</time>
      </trkpt>
      <trkpt lat="45.89752" lon="5.60038">
        <ele>889</ele>
        <time>2026-05-12T13:50:32Z</time>
      </trkpt>
      <trkpt lat="45.89755" lon="5.60041">
        <ele>889.2</ele>
        <time>2026-05-12T13:50:33Z</time>
      </trkpt>
      <trkpt lat="45.89759" lon="5.60044">
        <ele>889.2</ele>
        <time>2026-05-12T13:50:34Z</time>
      </trkpt>
      <trkpt lat="45.89762" lon="5.60048">
        <ele>889.2</ele>
        <time>2026-05-12T13:50:35Z</time>
      </trkpt>
      <trkpt lat="45.89766" lon="5.60052">
        <ele>889.4</ele>
        <time>2026-05-12T13:50:36Z</time>
      </trkpt>
      <trkpt lat="45.89769" lon="5.60055">
        <ele>889.4</ele>
        <time>2026-05-12T13:50:37Z</time>
      </trkpt>
      <trkpt lat="45.89772" lon="5.60059">
        <ele>889.4</ele>
        <time>2026-05-12T13:50:38Z</time>
      </trkpt>
      <trkpt lat="45.89775" lon="5.60062">
        <ele>889.4</ele>
        <time>2026-05-12T13:50:39Z</time>
      </trkpt>
      <trkpt lat="45.89778" lon="5.60066">
        <ele>889.8</ele>
        <time>2026-05-12T13:50:40Z</time>
      </trkpt>
      <trkpt lat="45.89781" lon="5.60069">
        <ele>889.8</ele>
        <time>2026-05-12T13:50:41Z</time>
      </trkpt>
      <trkpt lat="45.89784" lon="5.60073">
        <ele>889.8</ele>
        <time>2026-05-12T13:50:42Z</time>
      </trkpt>
      <trkpt lat="45.89787" lon="5.60076">
        <ele>889.8</ele>
        <time>2026-05-12T13:50:43Z</time>
      </trkpt>
      <trkpt lat="45.8979" lon="5.60079">
        <ele>889.8</ele>
        <time>2026-05-12T13:50:44Z</time>
      </trkpt>
      <trkpt lat="45.89793" lon="5.60082">
        <ele>889.8</ele>
        <time>2026-05-12T13:50:45Z</time>
      </trkpt>
      <trkpt lat="45.89796" lon="5.60085">
        <ele>889.8</ele>
        <time>2026-05-12T13:50:46Z</time>
      </trkpt>
      <trkpt lat="45.89799" lon="5.60088">
        <ele>889.8</ele>
        <time>2026-05-12T13:50:47Z</time>
      </trkpt>
      <trkpt lat="45.89802" lon="5.60091">
        <ele>889.8</ele>
        <time>2026-05-12T13:50:48Z</time>
      </trkpt>
      <trkpt lat="45.89805" lon="5.60094">
        <ele>889.8</ele>
        <time>2026-05-12T13:50:49Z</time>
      </trkpt>
      <trkpt lat="45.89807" lon="5.60097">
        <ele>890</ele>
        <time>2026-05-12T13:50:50Z</time>
      </trkpt>
      <trkpt lat="45.8981" lon="5.601">
        <ele>890</ele>
        <time>2026-05-12T13:50:51Z</time>
      </trkpt>
      <trkpt lat="45.89813" lon="5.60104">
        <ele>890</ele>
        <time>2026-05-12T13:50:52Z</time>
      </trkpt>
      <trkpt lat="45.89816" lon="5.60107">
        <ele>890</ele>
        <time>2026-05-12T13:50:53Z</time>
      </trkpt>
      <trkpt lat="45.89819" lon="5.60111">
        <ele>890.2</ele>
        <time>2026-05-12T13:50:54Z</time>
      </trkpt>
      <trkpt lat="45.89822" lon="5.60114">
        <ele>890.2</ele>
        <time>2026-05-12T13:50:55Z</time>
      </trkpt>
      <trkpt lat="45.89825" lon="5.60118">
        <ele>890.4</ele>
        <time>2026-05-12T13:50:56Z</time>
      </trkpt>
      <trkpt lat="45.89827" lon="5.60122">
        <ele>890.4</ele>
        <time>2026-05-12T13:50:57Z</time>
      </trkpt>
      <trkpt lat="45.8983" lon="5.60125">
        <ele>890.2</ele>
        <time>2026-05-12T13:50:58Z</time>
      </trkpt>
      <trkpt lat="45.89833" lon="5.60129">
        <ele>890.2</ele>
        <time>2026-05-12T13:50:59Z</time>
      </trkpt>
      <trkpt lat="45.89836" lon="5.60132">
        <ele>890.2</ele>
        <time>2026-05-12T13:51:00Z</time>
      </trkpt>
      <trkpt lat="45.89839" lon="5.60136">
        <ele>890.2</ele>
        <time>2026-05-12T13:51:01Z</time>
      </trkpt>
      <trkpt lat="45.89842" lon="5.6014">
        <ele>890.2</ele>
        <time>2026-05-12T13:51:02Z</time>
      </trkpt>
      <trkpt lat="45.89845" lon="5.60143">
        <ele>889.6</ele>
        <time>2026-05-12T13:51:03Z</time>
      </trkpt>
      <trkpt lat="45.89853" lon="5.6015">
        <ele>889.4</ele>
        <time>2026-05-12T13:51:04Z</time>
      </trkpt>
      <trkpt lat="45.89857" lon="5.60154">
        <ele>889.4</ele>
        <time>2026-05-12T13:51:05Z</time>
      </trkpt>
      <trkpt lat="45.89862" lon="5.60157">
        <ele>889</ele>
        <time>2026-05-12T13:51:06Z</time>
      </trkpt>
      <trkpt lat="45.89867" lon="5.60162">
        <ele>889</ele>
        <time>2026-05-12T13:51:07Z</time>
      </trkpt>
      <trkpt lat="45.89872" lon="5.60166">
        <ele>889</ele>
        <time>2026-05-12T13:51:08Z</time>
      </trkpt>
      <trkpt lat="45.89878" lon="5.6017">
        <ele>888.8</ele>
        <time>2026-05-12T13:51:09Z</time>
      </trkpt>
      <trkpt lat="45.89883" lon="5.60174">
        <ele>888.4</ele>
        <time>2026-05-12T13:51:10Z</time>
      </trkpt>
      <trkpt lat="45.89888" lon="5.60179">
        <ele>888.2</ele>
        <time>2026-05-12T13:51:11Z</time>
      </trkpt>
      <trkpt lat="45.89894" lon="5.60184">
        <ele>887.8</ele>
        <time>2026-05-12T13:51:12Z</time>
      </trkpt>
      <trkpt lat="45.899" lon="5.60188">
        <ele>887.6</ele>
        <time>2026-05-12T13:51:13Z</time>
      </trkpt>
      <trkpt lat="45.89906" lon="5.60193">
        <ele>887.4</ele>
        <time>2026-05-12T13:51:14Z</time>
      </trkpt>
      <trkpt lat="45.89912" lon="5.60198">
        <ele>887</ele>
        <time>2026-05-12T13:51:15Z</time>
      </trkpt>
      <trkpt lat="45.89918" lon="5.60202">
        <ele>886.8</ele>
        <time>2026-05-12T13:51:16Z</time>
      </trkpt>
      <trkpt lat="45.89924" lon="5.60207">
        <ele>886.6</ele>
        <time>2026-05-12T13:51:17Z</time>
      </trkpt>
      <trkpt lat="45.8993" lon="5.60211">
        <ele>886.2</ele>
        <time>2026-05-12T13:51:18Z</time>
      </trkpt>
      <trkpt lat="45.89936" lon="5.60215">
        <ele>886.2</ele>
        <time>2026-05-12T13:51:19Z</time>
      </trkpt>
      <trkpt lat="45.89943" lon="5.60219">
        <ele>885.8</ele>
        <time>2026-05-12T13:51:20Z</time>
      </trkpt>
      <trkpt lat="45.8995" lon="5.6022">
        <ele>885.6</ele>
        <time>2026-05-12T13:51:21Z</time>
      </trkpt>
      <trkpt lat="45.89957" lon="5.60221">
        <ele>885.2</ele>
        <time>2026-05-12T13:51:22Z</time>
      </trkpt>
      <trkpt lat="45.89965" lon="5.60222">
        <ele>885</ele>
        <time>2026-05-12T13:51:23Z</time>
      </trkpt>
      <trkpt lat="45.89972" lon="5.60221">
        <ele>885</ele>
        <time>2026-05-12T13:51:24Z</time>
      </trkpt>
      <trkpt lat="45.89979" lon="5.60221">
        <ele>884.6</ele>
        <time>2026-05-12T13:51:25Z</time>
      </trkpt>
      <trkpt lat="45.89987" lon="5.60219">
        <ele>884.6</ele>
        <time>2026-05-12T13:51:26Z</time>
      </trkpt>
      <trkpt lat="45.89994" lon="5.60218">
        <ele>884.2</ele>
        <time>2026-05-12T13:51:27Z</time>
      </trkpt>
      <trkpt lat="45.90001" lon="5.60217">
        <ele>884.2</ele>
        <time>2026-05-12T13:51:28Z</time>
      </trkpt>
      <trkpt lat="45.90001" lon="5.60217">
        <ele>884.2</ele>
        <time>2026-05-12T13:51:29Z</time>
      </trkpt>
      <trkpt lat="45.90008" lon="5.60215">
        <ele>884.2</ele>
        <time>2026-05-12T13:51:30Z</time>
      </trkpt>
      <trkpt lat="45.90015" lon="5.60213">
        <ele>884.2</ele>
        <time>2026-05-12T13:51:31Z</time>
      </trkpt>
      <trkpt lat="45.90022" lon="5.60212">
        <ele>883.8</ele>
        <time>2026-05-12T13:51:32Z</time>
      </trkpt>
      <trkpt lat="45.90028" lon="5.6021">
        <ele>883.8</ele>
        <time>2026-05-12T13:51:33Z</time>
      </trkpt>
      <trkpt lat="45.90035" lon="5.60209">
        <ele>883.4</ele>
        <time>2026-05-12T13:51:34Z</time>
      </trkpt>
      <trkpt lat="45.90041" lon="5.60208">
        <ele>883</ele>
        <time>2026-05-12T13:51:35Z</time>
      </trkpt>
      <trkpt lat="45.90047" lon="5.60206">
        <ele>882.6</ele>
        <time>2026-05-12T13:51:36Z</time>
      </trkpt>
      <trkpt lat="45.90053" lon="5.60206">
        <ele>882.6</ele>
        <time>2026-05-12T13:51:37Z</time>
      </trkpt>
      <trkpt lat="45.90059" lon="5.60207">
        <ele>882.4</ele>
        <time>2026-05-12T13:51:38Z</time>
      </trkpt>
      <trkpt lat="45.90066" lon="5.60208">
        <ele>882.4</ele>
        <time>2026-05-12T13:51:39Z</time>
      </trkpt>
      <trkpt lat="45.90073" lon="5.60209">
        <ele>882.2</ele>
        <time>2026-05-12T13:51:40Z</time>
      </trkpt>
      <trkpt lat="45.90079" lon="5.60209">
        <ele>882.2</ele>
        <time>2026-05-12T13:51:41Z</time>
      </trkpt>
      <trkpt lat="45.90086" lon="5.6021">
        <ele>882.2</ele>
        <time>2026-05-12T13:51:42Z</time>
      </trkpt>
      <trkpt lat="45.90092" lon="5.60211">
        <ele>881.6</ele>
        <time>2026-05-12T13:51:43Z</time>
      </trkpt>
      <trkpt lat="45.90099" lon="5.60212">
        <ele>881.6</ele>
        <time>2026-05-12T13:51:44Z</time>
      </trkpt>
      <trkpt lat="45.90105" lon="5.60213">
        <ele>881.2</ele>
        <time>2026-05-12T13:51:45Z</time>
      </trkpt>
      <trkpt lat="45.90112" lon="5.60214">
        <ele>881.2</ele>
        <time>2026-05-12T13:51:46Z</time>
      </trkpt>
      <trkpt lat="45.90119" lon="5.60217">
        <ele>881</ele>
        <time>2026-05-12T13:51:47Z</time>
      </trkpt>
      <trkpt lat="45.90125" lon="5.60218">
        <ele>880.8</ele>
        <time>2026-05-12T13:51:48Z</time>
      </trkpt>
      <trkpt lat="45.90132" lon="5.60218">
        <ele>880.8</ele>
        <time>2026-05-12T13:51:49Z</time>
      </trkpt>
      <trkpt lat="45.90139" lon="5.60215">
        <ele>880.2</ele>
        <time>2026-05-12T13:51:50Z</time>
      </trkpt>
      <trkpt lat="45.90146" lon="5.6021">
        <ele>880.2</ele>
        <time>2026-05-12T13:51:51Z</time>
      </trkpt>
      <trkpt lat="45.90151" lon="5.60207">
        <ele>879.6</ele>
        <time>2026-05-12T13:51:52Z</time>
      </trkpt>
      <trkpt lat="45.90157" lon="5.60203">
        <ele>879.6</ele>
        <time>2026-05-12T13:51:53Z</time>
      </trkpt>
      <trkpt lat="45.90163" lon="5.60196">
        <ele>879</ele>
        <time>2026-05-12T13:51:54Z</time>
      </trkpt>
      <trkpt lat="45.90169" lon="5.60193">
        <ele>879</ele>
        <time>2026-05-12T13:51:55Z</time>
      </trkpt>
      <trkpt lat="45.90175" lon="5.60189">
        <ele>879</ele>
        <time>2026-05-12T13:51:56Z</time>
      </trkpt>
      <trkpt lat="45.90182" lon="5.60184">
        <ele>879</ele>
        <time>2026-05-12T13:51:57Z</time>
      </trkpt>
      <trkpt lat="45.90188" lon="5.60181">
        <ele>879.2</ele>
        <time>2026-05-12T13:51:58Z</time>
      </trkpt>
      <trkpt lat="45.90193" lon="5.60177">
        <ele>879.2</ele>
        <time>2026-05-12T13:51:59Z</time>
      </trkpt>
      <trkpt lat="45.90198" lon="5.60173">
        <ele>879.4</ele>
        <time>2026-05-12T13:52:00Z</time>
      </trkpt>
      <trkpt lat="45.90203" lon="5.60168">
        <ele>879.4</ele>
        <time>2026-05-12T13:52:01Z</time>
      </trkpt>
      <trkpt lat="45.90208" lon="5.60164">
        <ele>879.4</ele>
        <time>2026-05-12T13:52:02Z</time>
      </trkpt>
      <trkpt lat="45.90212" lon="5.60162">
        <ele>879</ele>
        <time>2026-05-12T13:52:03Z</time>
      </trkpt>
      <trkpt lat="45.90217" lon="5.60159">
        <ele>879</ele>
        <time>2026-05-12T13:52:04Z</time>
      </trkpt>
      <trkpt lat="45.90222" lon="5.60154">
        <ele>879</ele>
        <time>2026-05-12T13:52:05Z</time>
      </trkpt>
      <trkpt lat="45.90226" lon="5.6015">
        <ele>879</ele>
        <time>2026-05-12T13:52:06Z</time>
      </trkpt>
      <trkpt lat="45.90228" lon="5.60148">
        <ele>879</ele>
        <time>2026-05-12T13:52:07Z</time>
      </trkpt>
      <trkpt lat="45.90233" lon="5.60146">
        <ele>879</ele>
        <time>2026-05-12T13:52:08Z</time>
      </trkpt>
      <trkpt lat="45.90236" lon="5.60142">
        <ele>878.8</ele>
        <time>2026-05-12T13:52:09Z</time>
      </trkpt>
      <trkpt lat="45.90237" lon="5.60136">
        <ele>879</ele>
        <time>2026-05-12T13:52:10Z</time>
      </trkpt>
      <trkpt lat="45.90244" lon="5.60133">
        <ele>879</ele>
        <time>2026-05-12T13:52:11Z</time>
      </trkpt>
      <trkpt lat="45.90249" lon="5.60128">
        <ele>879</ele>
        <time>2026-05-12T13:52:12Z</time>
      </trkpt>
      <trkpt lat="45.90253" lon="5.60125">
        <ele>879</ele>
        <time>2026-05-12T13:52:13Z</time>
      </trkpt>
      <trkpt lat="45.90258" lon="5.60121">
        <ele>879</ele>
        <time>2026-05-12T13:52:14Z</time>
      </trkpt>
      <trkpt lat="45.90263" lon="5.60118">
        <ele>878.4</ele>
        <time>2026-05-12T13:52:15Z</time>
      </trkpt>
      <trkpt lat="45.90269" lon="5.60116">
        <ele>878.2</ele>
        <time>2026-05-12T13:52:16Z</time>
      </trkpt>
      <trkpt lat="45.90274" lon="5.60113">
        <ele>877.8</ele>
        <time>2026-05-12T13:52:17Z</time>
      </trkpt>
      <trkpt lat="45.90282" lon="5.60111">
        <ele>877.2</ele>
        <time>2026-05-12T13:52:18Z</time>
      </trkpt>
      <trkpt lat="45.90288" lon="5.60109">
        <ele>877</ele>
        <time>2026-05-12T13:52:19Z</time>
      </trkpt>
      <trkpt lat="45.90296" lon="5.60107">
        <ele>876.2</ele>
        <time>2026-05-12T13:52:20Z</time>
      </trkpt>
      <trkpt lat="45.90304" lon="5.60104">
        <ele>875.8</ele>
        <time>2026-05-12T13:52:21Z</time>
      </trkpt>
      <trkpt lat="45.90311" lon="5.60102">
        <ele>875.4</ele>
        <time>2026-05-12T13:52:22Z</time>
      </trkpt>
      <trkpt lat="45.9032" lon="5.601">
        <ele>874.8</ele>
        <time>2026-05-12T13:52:23Z</time>
      </trkpt>
      <trkpt lat="45.90329" lon="5.60096">
        <ele>873.8</ele>
        <time>2026-05-12T13:52:24Z</time>
      </trkpt>
      <trkpt lat="45.90337" lon="5.60092">
        <ele>873.2</ele>
        <time>2026-05-12T13:52:25Z</time>
      </trkpt>
      <trkpt lat="45.90344" lon="5.60086">
        <ele>872.4</ele>
        <time>2026-05-12T13:52:26Z</time>
      </trkpt>
      <trkpt lat="45.90352" lon="5.60079">
        <ele>871.6</ele>
        <time>2026-05-12T13:52:27Z</time>
      </trkpt>
      <trkpt lat="45.90357" lon="5.60072">
        <ele>870.6</ele>
        <time>2026-05-12T13:52:28Z</time>
      </trkpt>
      <trkpt lat="45.90362" lon="5.60065">
        <ele>870.2</ele>
        <time>2026-05-12T13:52:29Z</time>
      </trkpt>
      <trkpt lat="45.90366" lon="5.60058">
        <ele>870.2</ele>
        <time>2026-05-12T13:52:30Z</time>
      </trkpt>
      <trkpt lat="45.9037" lon="5.60052">
        <ele>870.2</ele>
        <time>2026-05-12T13:52:31Z</time>
      </trkpt>
      <trkpt lat="45.90374" lon="5.60047">
        <ele>869.8</ele>
        <time>2026-05-12T13:52:32Z</time>
      </trkpt>
      <trkpt lat="45.90378" lon="5.60044">
        <ele>869.8</ele>
        <time>2026-05-12T13:52:33Z</time>
      </trkpt>
      <trkpt lat="45.90382" lon="5.60041">
        <ele>869.8</ele>
        <time>2026-05-12T13:52:34Z</time>
      </trkpt>
      <trkpt lat="45.90386" lon="5.60045">
        <ele>869.8</ele>
        <time>2026-05-12T13:52:35Z</time>
      </trkpt>
      <trkpt lat="45.9039" lon="5.60045">
        <ele>869.4</ele>
        <time>2026-05-12T13:52:36Z</time>
      </trkpt>
      <trkpt lat="45.90396" lon="5.60045">
        <ele>869.2</ele>
        <time>2026-05-12T13:52:37Z</time>
      </trkpt>
      <trkpt lat="45.90401" lon="5.60045">
        <ele>868.8</ele>
        <time>2026-05-12T13:52:38Z</time>
      </trkpt>
      <trkpt lat="45.90407" lon="5.60046">
        <ele>868.4</ele>
        <time>2026-05-12T13:52:39Z</time>
      </trkpt>
      <trkpt lat="45.90413" lon="5.60046">
        <ele>868.4</ele>
        <time>2026-05-12T13:52:40Z</time>
      </trkpt>
      <trkpt lat="45.90418" lon="5.60046">
        <ele>868</ele>
        <time>2026-05-12T13:52:41Z</time>
      </trkpt>
      <trkpt lat="45.90423" lon="5.60048">
        <ele>868</ele>
        <time>2026-05-12T13:52:42Z</time>
      </trkpt>
      <trkpt lat="45.90428" lon="5.6005">
        <ele>868</ele>
        <time>2026-05-12T13:52:43Z</time>
      </trkpt>
      <trkpt lat="45.90431" lon="5.60053">
        <ele>868</ele>
        <time>2026-05-12T13:52:44Z</time>
      </trkpt>
      <trkpt lat="45.90435" lon="5.60057">
        <ele>868.2</ele>
        <time>2026-05-12T13:52:45Z</time>
      </trkpt>
      <trkpt lat="45.90437" lon="5.60061">
        <ele>868.2</ele>
        <time>2026-05-12T13:52:46Z</time>
      </trkpt>
      <trkpt lat="45.9044" lon="5.60064">
        <ele>868.6</ele>
        <time>2026-05-12T13:52:47Z</time>
      </trkpt>
      <trkpt lat="45.90442" lon="5.60067">
        <ele>868.8</ele>
        <time>2026-05-12T13:52:48Z</time>
      </trkpt>
      <trkpt lat="45.90446" lon="5.6007">
        <ele>868.8</ele>
        <time>2026-05-12T13:52:49Z</time>
      </trkpt>
      <trkpt lat="45.90448" lon="5.60073">
        <ele>868.8</ele>
        <time>2026-05-12T13:52:50Z</time>
      </trkpt>
      <trkpt lat="45.90451" lon="5.60077">
        <ele>869.4</ele>
        <time>2026-05-12T13:52:51Z</time>
      </trkpt>
      <trkpt lat="45.90453" lon="5.60079">
        <ele>869.6</ele>
        <time>2026-05-12T13:52:52Z</time>
      </trkpt>
      <trkpt lat="45.90456" lon="5.60082">
        <ele>870</ele>
        <time>2026-05-12T13:52:53Z</time>
      </trkpt>
      <trkpt lat="45.90459" lon="5.60084">
        <ele>870</ele>
        <time>2026-05-12T13:52:54Z</time>
      </trkpt>
      <trkpt lat="45.90462" lon="5.60085">
        <ele>870.2</ele>
        <time>2026-05-12T13:52:55Z</time>
      </trkpt>
      <trkpt lat="45.90464" lon="5.60087">
        <ele>870.2</ele>
        <time>2026-05-12T13:52:56Z</time>
      </trkpt>
      <trkpt lat="45.90467" lon="5.60088">
        <ele>870.8</ele>
        <time>2026-05-12T13:52:57Z</time>
      </trkpt>
      <trkpt lat="45.9047" lon="5.60088">
        <ele>870.8</ele>
        <time>2026-05-12T13:52:58Z</time>
      </trkpt>
      <trkpt lat="45.90472" lon="5.60089">
        <ele>871.2</ele>
        <time>2026-05-12T13:52:59Z</time>
      </trkpt>
      <trkpt lat="45.90475" lon="5.60089">
        <ele>871.4</ele>
        <time>2026-05-12T13:53:00Z</time>
      </trkpt>
      <trkpt lat="45.90477" lon="5.6009">
        <ele>871.6</ele>
        <time>2026-05-12T13:53:01Z</time>
      </trkpt>
      <trkpt lat="45.90479" lon="5.6009">
        <ele>871.8</ele>
        <time>2026-05-12T13:53:02Z</time>
      </trkpt>
      <trkpt lat="45.90481" lon="5.60091">
        <ele>872</ele>
        <time>2026-05-12T13:53:03Z</time>
      </trkpt>
      <trkpt lat="45.90483" lon="5.60093">
        <ele>872</ele>
        <time>2026-05-12T13:53:04Z</time>
      </trkpt>
      <trkpt lat="45.90485" lon="5.60094">
        <ele>872.4</ele>
        <time>2026-05-12T13:53:05Z</time>
      </trkpt>
      <trkpt lat="45.90487" lon="5.60095">
        <ele>872.4</ele>
        <time>2026-05-12T13:53:06Z</time>
      </trkpt>
      <trkpt lat="45.90489" lon="5.60096">
        <ele>872.4</ele>
        <time>2026-05-12T13:53:07Z</time>
      </trkpt>
      <trkpt lat="45.90491" lon="5.60096">
        <ele>872.6</ele>
        <time>2026-05-12T13:53:08Z</time>
      </trkpt>
      <trkpt lat="45.90493" lon="5.60096">
        <ele>873</ele>
        <time>2026-05-12T13:53:09Z</time>
      </trkpt>
      <trkpt lat="45.90494" lon="5.60096">
        <ele>873.2</ele>
        <time>2026-05-12T13:53:10Z</time>
      </trkpt>
      <trkpt lat="45.90496" lon="5.60096">
        <ele>873.2</ele>
        <time>2026-05-12T13:53:11Z</time>
      </trkpt>
      <trkpt lat="45.90498" lon="5.60097">
        <ele>873.6</ele>
        <time>2026-05-12T13:53:12Z</time>
      </trkpt>
      <trkpt lat="45.90499" lon="5.60096">
        <ele>873.8</ele>
        <time>2026-05-12T13:53:13Z</time>
      </trkpt>
      <trkpt lat="45.90501" lon="5.60096">
        <ele>874.2</ele>
        <time>2026-05-12T13:53:14Z</time>
      </trkpt>
      <trkpt lat="45.90502" lon="5.60096">
        <ele>874.6</ele>
        <time>2026-05-12T13:53:15Z</time>
      </trkpt>
      <trkpt lat="45.90505" lon="5.60097">
        <ele>874.8</ele>
        <time>2026-05-12T13:53:16Z</time>
      </trkpt>
      <trkpt lat="45.90507" lon="5.60098">
        <ele>874.8</ele>
        <time>2026-05-12T13:53:17Z</time>
      </trkpt>
      <trkpt lat="45.90508" lon="5.60098">
        <ele>875.2</ele>
        <time>2026-05-12T13:53:18Z</time>
      </trkpt>
      <trkpt lat="45.9051" lon="5.60098">
        <ele>875.2</ele>
        <time>2026-05-12T13:53:19Z</time>
      </trkpt>
      <trkpt lat="45.90512" lon="5.60099">
        <ele>875.2</ele>
        <time>2026-05-12T13:53:20Z</time>
      </trkpt>
      <trkpt lat="45.90514" lon="5.60099">
        <ele>875.6</ele>
        <time>2026-05-12T13:53:21Z</time>
      </trkpt>
      <trkpt lat="45.90515" lon="5.60099">
        <ele>875.8</ele>
        <time>2026-05-12T13:53:22Z</time>
      </trkpt>
      <trkpt lat="45.90517" lon="5.60098">
        <ele>876</ele>
        <time>2026-05-12T13:53:23Z</time>
      </trkpt>
      <trkpt lat="45.90518" lon="5.60097">
        <ele>876</ele>
        <time>2026-05-12T13:53:24Z</time>
      </trkpt>
      <trkpt lat="45.90519" lon="5.60097">
        <ele>876.4</ele>
        <time>2026-05-12T13:53:25Z</time>
      </trkpt>
      <trkpt lat="45.90521" lon="5.60096">
        <ele>876.8</ele>
        <time>2026-05-12T13:53:26Z</time>
      </trkpt>
      <trkpt lat="45.90522" lon="5.60096">
        <ele>876.8</ele>
        <time>2026-05-12T13:53:27Z</time>
      </trkpt>
      <trkpt lat="45.90524" lon="5.60096">
        <ele>877</ele>
        <time>2026-05-12T13:53:28Z</time>
      </trkpt>
      <trkpt lat="45.90525" lon="5.60096">
        <ele>877.2</ele>
        <time>2026-05-12T13:53:29Z</time>
      </trkpt>
      <trkpt lat="45.90527" lon="5.60096">
        <ele>877.6</ele>
        <time>2026-05-12T13:53:30Z</time>
      </trkpt>
      <trkpt lat="45.90528" lon="5.60095">
        <ele>877.8</ele>
        <time>2026-05-12T13:53:31Z</time>
      </trkpt>
      <trkpt lat="45.9053" lon="5.60095">
        <ele>877.8</ele>
        <time>2026-05-12T13:53:32Z</time>
      </trkpt>
      <trkpt lat="45.90531" lon="5.60095">
        <ele>877.8</ele>
        <time>2026-05-12T13:53:33Z</time>
      </trkpt>
      <trkpt lat="45.90532" lon="5.60095">
        <ele>878</ele>
        <time>2026-05-12T13:53:34Z</time>
      </trkpt>
      <trkpt lat="45.90534" lon="5.60095">
        <ele>878</ele>
        <time>2026-05-12T13:53:35Z</time>
      </trkpt>
      <trkpt lat="45.90535" lon="5.60094">
        <ele>878.2</ele>
        <time>2026-05-12T13:53:36Z</time>
      </trkpt>
      <trkpt lat="45.90537" lon="5.60094">
        <ele>878.4</ele>
        <time>2026-05-12T13:53:37Z</time>
      </trkpt>
      <trkpt lat="45.90539" lon="5.60094">
        <ele>878.4</ele>
        <time>2026-05-12T13:53:38Z</time>
      </trkpt>
      <trkpt lat="45.9054" lon="5.60093">
        <ele>878.8</ele>
        <time>2026-05-12T13:53:39Z</time>
      </trkpt>
      <trkpt lat="45.90542" lon="5.60093">
        <ele>879</ele>
        <time>2026-05-12T13:53:40Z</time>
      </trkpt>
      <trkpt lat="45.90544" lon="5.60093">
        <ele>879</ele>
        <time>2026-05-12T13:53:41Z</time>
      </trkpt>
      <trkpt lat="45.90546" lon="5.60093">
        <ele>879</ele>
        <time>2026-05-12T13:53:42Z</time>
      </trkpt>
      <trkpt lat="45.90547" lon="5.60093">
        <ele>879</ele>
        <time>2026-05-12T13:53:43Z</time>
      </trkpt>
      <trkpt lat="45.90548" lon="5.60092">
        <ele>879</ele>
        <time>2026-05-12T13:53:44Z</time>
      </trkpt>
      <trkpt lat="45.9055" lon="5.60092">
        <ele>879</ele>
        <time>2026-05-12T13:53:45Z</time>
      </trkpt>
      <trkpt lat="45.90552" lon="5.60092">
        <ele>879.4</ele>
        <time>2026-05-12T13:53:46Z</time>
      </trkpt>
      <trkpt lat="45.90552" lon="5.60091">
        <ele>879.6</ele>
        <time>2026-05-12T13:53:47Z</time>
      </trkpt>
      <trkpt lat="45.90553" lon="5.60091">
        <ele>879.6</ele>
        <time>2026-05-12T13:53:48Z</time>
      </trkpt>
      <trkpt lat="45.90555" lon="5.6009">
        <ele>880</ele>
        <time>2026-05-12T13:53:49Z</time>
      </trkpt>
      <trkpt lat="45.90556" lon="5.6009">
        <ele>880</ele>
        <time>2026-05-12T13:53:50Z</time>
      </trkpt>
      <trkpt lat="45.90557" lon="5.6009">
        <ele>880.4</ele>
        <time>2026-05-12T13:53:51Z</time>
      </trkpt>
      <trkpt lat="45.90558" lon="5.60089">
        <ele>880.4</ele>
        <time>2026-05-12T13:53:52Z</time>
      </trkpt>
      <trkpt lat="45.9056" lon="5.6009">
        <ele>880.8</ele>
        <time>2026-05-12T13:53:53Z</time>
      </trkpt>
      <trkpt lat="45.90562" lon="5.6009">
        <ele>881</ele>
        <time>2026-05-12T13:53:54Z</time>
      </trkpt>
      <trkpt lat="45.90563" lon="5.6009">
        <ele>881</ele>
        <time>2026-05-12T13:53:55Z</time>
      </trkpt>
      <trkpt lat="45.90564" lon="5.60091">
        <ele>881.4</ele>
        <time>2026-05-12T13:53:56Z</time>
      </trkpt>
      <trkpt lat="45.90565" lon="5.6009">
        <ele>881.4</ele>
        <time>2026-05-12T13:53:57Z</time>
      </trkpt>
      <trkpt lat="45.90565" lon="5.60091">
        <ele>881.6</ele>
        <time>2026-05-12T13:53:58Z</time>
      </trkpt>
      <trkpt lat="45.90566" lon="5.60092">
        <ele>881.6</ele>
        <time>2026-05-12T13:53:59Z</time>
      </trkpt>
      <trkpt lat="45.90567" lon="5.60093">
        <ele>882</ele>
        <time>2026-05-12T13:54:00Z</time>
      </trkpt>
      <trkpt lat="45.90568" lon="5.60093">
        <ele>882</ele>
        <time>2026-05-12T13:54:01Z</time>
      </trkpt>
      <trkpt lat="45.9057" lon="5.60092">
        <ele>882</ele>
        <time>2026-05-12T13:54:02Z</time>
      </trkpt>
      <trkpt lat="45.90572" lon="5.60092">
        <ele>882.2</ele>
        <time>2026-05-12T13:54:03Z</time>
      </trkpt>
      <trkpt lat="45.90573" lon="5.60092">
        <ele>882.4</ele>
        <time>2026-05-12T13:54:04Z</time>
      </trkpt>
      <trkpt lat="45.90575" lon="5.60093">
        <ele>882.4</ele>
        <time>2026-05-12T13:54:05Z</time>
      </trkpt>
      <trkpt lat="45.90576" lon="5.60094">
        <ele>882.8</ele>
        <time>2026-05-12T13:54:06Z</time>
      </trkpt>
      <trkpt lat="45.90576" lon="5.60094">
        <ele>882.8</ele>
        <time>2026-05-12T13:54:07Z</time>
      </trkpt>
      <trkpt lat="45.90577" lon="5.60095">
        <ele>883</ele>
        <time>2026-05-12T13:54:08Z</time>
      </trkpt>
      <trkpt lat="45.90578" lon="5.60095">
        <ele>883</ele>
        <time>2026-05-12T13:54:09Z</time>
      </trkpt>
      <trkpt lat="45.9058" lon="5.60094">
        <ele>883.4</ele>
        <time>2026-05-12T13:54:10Z</time>
      </trkpt>
      <trkpt lat="45.90581" lon="5.60094">
        <ele>883.4</ele>
        <time>2026-05-12T13:54:11Z</time>
      </trkpt>
      <trkpt lat="45.90583" lon="5.60093">
        <ele>883.4</ele>
        <time>2026-05-12T13:54:12Z</time>
      </trkpt>
      <trkpt lat="45.90585" lon="5.60093">
        <ele>883.4</ele>
        <time>2026-05-12T13:54:13Z</time>
      </trkpt>
      <trkpt lat="45.90586" lon="5.60093">
        <ele>883.6</ele>
        <time>2026-05-12T13:54:14Z</time>
      </trkpt>
      <trkpt lat="45.90588" lon="5.60092">
        <ele>883.6</ele>
        <time>2026-05-12T13:54:15Z</time>
      </trkpt>
      <trkpt lat="45.90589" lon="5.60092">
        <ele>883.6</ele>
        <time>2026-05-12T13:54:16Z</time>
      </trkpt>
      <trkpt lat="45.9059" lon="5.60092">
        <ele>883.8</ele>
        <time>2026-05-12T13:54:17Z</time>
      </trkpt>
      <trkpt lat="45.90591" lon="5.60092">
        <ele>883.8</ele>
        <time>2026-05-12T13:54:18Z</time>
      </trkpt>
      <trkpt lat="45.90592" lon="5.60092">
        <ele>884.2</ele>
        <time>2026-05-12T13:54:19Z</time>
      </trkpt>
      <trkpt lat="45.90597" lon="5.60095">
        <ele>884.2</ele>
        <time>2026-05-12T13:54:20Z</time>
      </trkpt>
      <trkpt lat="45.906" lon="5.60096">
        <ele>884.2</ele>
        <time>2026-05-12T13:54:21Z</time>
      </trkpt>
      <trkpt lat="45.90602" lon="5.60098">
        <ele>884.2</ele>
        <time>2026-05-12T13:54:22Z</time>
      </trkpt>
      <trkpt lat="45.90604" lon="5.60099">
        <ele>884.2</ele>
        <time>2026-05-12T13:54:23Z</time>
      </trkpt>
      <trkpt lat="45.90606" lon="5.60101">
        <ele>884</ele>
        <time>2026-05-12T13:54:24Z</time>
      </trkpt>
      <trkpt lat="45.90609" lon="5.60102">
        <ele>884</ele>
        <time>2026-05-12T13:54:25Z</time>
      </trkpt>
      <trkpt lat="45.90612" lon="5.60104">
        <ele>883.6</ele>
        <time>2026-05-12T13:54:26Z</time>
      </trkpt>
      <trkpt lat="45.90614" lon="5.60105">
        <ele>883.2</ele>
        <time>2026-05-12T13:54:27Z</time>
      </trkpt>
      <trkpt lat="45.90617" lon="5.60108">
        <ele>883.2</ele>
        <time>2026-05-12T13:54:28Z</time>
      </trkpt>
      <trkpt lat="45.90621" lon="5.6011">
        <ele>883</ele>
        <time>2026-05-12T13:54:29Z</time>
      </trkpt>
      <trkpt lat="45.90624" lon="5.60111">
        <ele>882.6</ele>
        <time>2026-05-12T13:54:30Z</time>
      </trkpt>
      <trkpt lat="45.90628" lon="5.60113">
        <ele>882.6</ele>
        <time>2026-05-12T13:54:31Z</time>
      </trkpt>
      <trkpt lat="45.90632" lon="5.60114">
        <ele>882.4</ele>
        <time>2026-05-12T13:54:32Z</time>
      </trkpt>
      <trkpt lat="45.90635" lon="5.60115">
        <ele>882.4</ele>
        <time>2026-05-12T13:54:33Z</time>
      </trkpt>
      <trkpt lat="45.90637" lon="5.60116">
        <ele>882.2</ele>
        <time>2026-05-12T13:54:34Z</time>
      </trkpt>
      <trkpt lat="45.9064" lon="5.60117">
        <ele>882.2</ele>
        <time>2026-05-12T13:54:35Z</time>
      </trkpt>
      <trkpt lat="45.90643" lon="5.60117">
        <ele>881.8</ele>
        <time>2026-05-12T13:54:36Z</time>
      </trkpt>
      <trkpt lat="45.90646" lon="5.60118">
        <ele>881.8</ele>
        <time>2026-05-12T13:54:37Z</time>
      </trkpt>
      <trkpt lat="45.90648" lon="5.60119">
        <ele>881.8</ele>
        <time>2026-05-12T13:54:38Z</time>
      </trkpt>
      <trkpt lat="45.9065" lon="5.60121">
        <ele>881.2</ele>
        <time>2026-05-12T13:54:39Z</time>
      </trkpt>
      <trkpt lat="45.90652" lon="5.60122">
        <ele>880.8</ele>
        <time>2026-05-12T13:54:40Z</time>
      </trkpt>
      <trkpt lat="45.90655" lon="5.60125">
        <ele>880.4</ele>
        <time>2026-05-12T13:54:41Z</time>
      </trkpt>
      <trkpt lat="45.9066" lon="5.60127">
        <ele>880</ele>
        <time>2026-05-12T13:54:42Z</time>
      </trkpt>
      <trkpt lat="45.90663" lon="5.60129">
        <ele>879.6</ele>
        <time>2026-05-12T13:54:43Z</time>
      </trkpt>
      <trkpt lat="45.90663" lon="5.60129">
        <ele>879.2</ele>
        <time>2026-05-12T13:54:44Z</time>
      </trkpt>
      <trkpt lat="45.90666" lon="5.60131">
        <ele>878.4</ele>
        <time>2026-05-12T13:54:45Z</time>
      </trkpt>
      <trkpt lat="45.90668" lon="5.60133">
        <ele>877.8</ele>
        <time>2026-05-12T13:54:46Z</time>
      </trkpt>
      <trkpt lat="45.90671" lon="5.60134">
        <ele>877.4</ele>
        <time>2026-05-12T13:54:47Z</time>
      </trkpt>
      <trkpt lat="45.90674" lon="5.60135">
        <ele>876.8</ele>
        <time>2026-05-12T13:54:48Z</time>
      </trkpt>
      <trkpt lat="45.90686" lon="5.6014">
        <ele>875.8</ele>
        <time>2026-05-12T13:54:49Z</time>
      </trkpt>
      <trkpt lat="45.9069" lon="5.6014">
        <ele>875.4</ele>
        <time>2026-05-12T13:54:50Z</time>
      </trkpt>
      <trkpt lat="45.90693" lon="5.60141">
        <ele>874.4</ele>
        <time>2026-05-12T13:54:51Z</time>
      </trkpt>
      <trkpt lat="45.90697" lon="5.60142">
        <ele>873.8</ele>
        <time>2026-05-12T13:54:52Z</time>
      </trkpt>
      <trkpt lat="45.90702" lon="5.60145">
        <ele>872.8</ele>
        <time>2026-05-12T13:54:53Z</time>
      </trkpt>
      <trkpt lat="45.90707" lon="5.60146">
        <ele>872.2</ele>
        <time>2026-05-12T13:54:54Z</time>
      </trkpt>
      <trkpt lat="45.90713" lon="5.60147">
        <ele>871.4</ele>
        <time>2026-05-12T13:54:55Z</time>
      </trkpt>
      <trkpt lat="45.90717" lon="5.60148">
        <ele>870.8</ele>
        <time>2026-05-12T13:54:56Z</time>
      </trkpt>
      <trkpt lat="45.90721" lon="5.60148">
        <ele>870.2</ele>
        <time>2026-05-12T13:54:57Z</time>
      </trkpt>
      <trkpt lat="45.90728" lon="5.6015">
        <ele>869.8</ele>
        <time>2026-05-12T13:54:58Z</time>
      </trkpt>
      <trkpt lat="45.90734" lon="5.60152">
        <ele>869.4</ele>
        <time>2026-05-12T13:54:59Z</time>
      </trkpt>
      <trkpt lat="45.90738" lon="5.60152">
        <ele>869.2</ele>
        <time>2026-05-12T13:55:00Z</time>
      </trkpt>
      <trkpt lat="45.90744" lon="5.60151">
        <ele>868.4</ele>
        <time>2026-05-12T13:55:01Z</time>
      </trkpt>
      <trkpt lat="45.90751" lon="5.60151">
        <ele>868</ele>
        <time>2026-05-12T13:55:02Z</time>
      </trkpt>
      <trkpt lat="45.90756" lon="5.60151">
        <ele>867.4</ele>
        <time>2026-05-12T13:55:03Z</time>
      </trkpt>
      <trkpt lat="45.90761" lon="5.60151">
        <ele>866.8</ele>
        <time>2026-05-12T13:55:04Z</time>
      </trkpt>
      <trkpt lat="45.90766" lon="5.60151">
        <ele>866.4</ele>
        <time>2026-05-12T13:55:05Z</time>
      </trkpt>
      <trkpt lat="45.90771" lon="5.60152">
        <ele>866.4</ele>
        <time>2026-05-12T13:55:06Z</time>
      </trkpt>
      <trkpt lat="45.90776" lon="5.60152">
        <ele>865.6</ele>
        <time>2026-05-12T13:55:07Z</time>
      </trkpt>
      <trkpt lat="45.90779" lon="5.60153">
        <ele>865.2</ele>
        <time>2026-05-12T13:55:08Z</time>
      </trkpt>
      <trkpt lat="45.90783" lon="5.60153">
        <ele>865.8</ele>
        <time>2026-05-12T13:55:09Z</time>
      </trkpt>
      <trkpt lat="45.90787" lon="5.60156">
        <ele>865.6</ele>
        <time>2026-05-12T13:55:10Z</time>
      </trkpt>
      <trkpt lat="45.90791" lon="5.60158">
        <ele>865.2</ele>
        <time>2026-05-12T13:55:11Z</time>
      </trkpt>
      <trkpt lat="45.90794" lon="5.6016">
        <ele>865</ele>
        <time>2026-05-12T13:55:12Z</time>
      </trkpt>
      <trkpt lat="45.90799" lon="5.60163">
        <ele>865</ele>
        <time>2026-05-12T13:55:13Z</time>
      </trkpt>
      <trkpt lat="45.90803" lon="5.60166">
        <ele>865</ele>
        <time>2026-05-12T13:55:14Z</time>
      </trkpt>
      <trkpt lat="45.90806" lon="5.6017">
        <ele>864.6</ele>
        <time>2026-05-12T13:55:15Z</time>
      </trkpt>
      <trkpt lat="45.90808" lon="5.60174">
        <ele>864.4</ele>
        <time>2026-05-12T13:55:16Z</time>
      </trkpt>
      <trkpt lat="45.9081" lon="5.60177">
        <ele>864.6</ele>
        <time>2026-05-12T13:55:17Z</time>
      </trkpt>
      <trkpt lat="45.90812" lon="5.60179">
        <ele>865</ele>
        <time>2026-05-12T13:55:18Z</time>
      </trkpt>
      <trkpt lat="45.90814" lon="5.60181">
        <ele>865</ele>
        <time>2026-05-12T13:55:19Z</time>
      </trkpt>
      <trkpt lat="45.90816" lon="5.60183">
        <ele>865</ele>
        <time>2026-05-12T13:55:20Z</time>
      </trkpt>
      <trkpt lat="45.9082" lon="5.60184">
        <ele>865</ele>
        <time>2026-05-12T13:55:21Z</time>
      </trkpt>
      <trkpt lat="45.90823" lon="5.60186">
        <ele>865</ele>
        <time>2026-05-12T13:55:22Z</time>
      </trkpt>
      <trkpt lat="45.90827" lon="5.60185">
        <ele>864.6</ele>
        <time>2026-05-12T13:55:23Z</time>
      </trkpt>
      <trkpt lat="45.90832" lon="5.60184">
        <ele>864</ele>
        <time>2026-05-12T13:55:24Z</time>
      </trkpt>
      <trkpt lat="45.90837" lon="5.60183">
        <ele>863.6</ele>
        <time>2026-05-12T13:55:25Z</time>
      </trkpt>
      <trkpt lat="45.90842" lon="5.60181">
        <ele>863.4</ele>
        <time>2026-05-12T13:55:26Z</time>
      </trkpt>
      <trkpt lat="45.90847" lon="5.6018">
        <ele>863.2</ele>
        <time>2026-05-12T13:55:27Z</time>
      </trkpt>
      <trkpt lat="45.90853" lon="5.60178">
        <ele>862.6</ele>
        <time>2026-05-12T13:55:28Z</time>
      </trkpt>
      <trkpt lat="45.90859" lon="5.60175">
        <ele>862</ele>
        <time>2026-05-12T13:55:29Z</time>
      </trkpt>
      <trkpt lat="45.90864" lon="5.60172">
        <ele>861.6</ele>
        <time>2026-05-12T13:55:30Z</time>
      </trkpt>
      <trkpt lat="45.9087" lon="5.60169">
        <ele>861.6</ele>
        <time>2026-05-12T13:55:31Z</time>
      </trkpt>
      <trkpt lat="45.90876" lon="5.60166">
        <ele>861.4</ele>
        <time>2026-05-12T13:55:32Z</time>
      </trkpt>
      <trkpt lat="45.90876" lon="5.60166">
        <ele>861.4</ele>
        <time>2026-05-12T13:55:33Z</time>
      </trkpt>
      <trkpt lat="45.90876" lon="5.60166">
        <ele>861.4</ele>
        <time>2026-05-12T13:55:34Z</time>
      </trkpt>
      <trkpt lat="45.90896" lon="5.6016">
        <ele>860.8</ele>
        <time>2026-05-12T13:55:36Z</time>
      </trkpt>
      <trkpt lat="45.90901" lon="5.60157">
        <ele>860.8</ele>
        <time>2026-05-12T13:55:37Z</time>
      </trkpt>
      <trkpt lat="45.90906" lon="5.60156">
        <ele>860.6</ele>
        <time>2026-05-12T13:55:38Z</time>
      </trkpt>
      <trkpt lat="45.90909" lon="5.60155">
        <ele>860.6</ele>
        <time>2026-05-12T13:55:39Z</time>
      </trkpt>
      <trkpt lat="45.90913" lon="5.60154">
        <ele>860.2</ele>
        <time>2026-05-12T13:55:40Z</time>
      </trkpt>
      <trkpt lat="45.90917" lon="5.60153">
        <ele>860.2</ele>
        <time>2026-05-12T13:55:41Z</time>
      </trkpt>
      <trkpt lat="45.90921" lon="5.60152">
        <ele>860.2</ele>
        <time>2026-05-12T13:55:42Z</time>
      </trkpt>
      <trkpt lat="45.90926" lon="5.60151">
        <ele>860.2</ele>
        <time>2026-05-12T13:55:43Z</time>
      </trkpt>
      <trkpt lat="45.90931" lon="5.6015">
        <ele>860.2</ele>
        <time>2026-05-12T13:55:44Z</time>
      </trkpt>
      <trkpt lat="45.90935" lon="5.60149">
        <ele>860.2</ele>
        <time>2026-05-12T13:55:45Z</time>
      </trkpt>
      <trkpt lat="45.9094" lon="5.60148">
        <ele>860.2</ele>
        <time>2026-05-12T13:55:46Z</time>
      </trkpt>
      <trkpt lat="45.90945" lon="5.60147">
        <ele>860.2</ele>
        <time>2026-05-12T13:55:47Z</time>
      </trkpt>
      <trkpt lat="45.90949" lon="5.60146">
        <ele>860</ele>
        <time>2026-05-12T13:55:48Z</time>
      </trkpt>
      <trkpt lat="45.90954" lon="5.60145">
        <ele>860</ele>
        <time>2026-05-12T13:55:49Z</time>
      </trkpt>
      <trkpt lat="45.90958" lon="5.60145">
        <ele>860</ele>
        <time>2026-05-12T13:55:50Z</time>
      </trkpt>
      <trkpt lat="45.90962" lon="5.60144">
        <ele>860</ele>
        <time>2026-05-12T13:55:51Z</time>
      </trkpt>
      <trkpt lat="45.90966" lon="5.60143">
        <ele>860.4</ele>
        <time>2026-05-12T13:55:52Z</time>
      </trkpt>
      <trkpt lat="45.9097" lon="5.60142">
        <ele>860.4</ele>
        <time>2026-05-12T13:55:53Z</time>
      </trkpt>
      <trkpt lat="45.90975" lon="5.60141">
        <ele>860.4</ele>
        <time>2026-05-12T13:55:54Z</time>
      </trkpt>
      <trkpt lat="45.90978" lon="5.6014">
        <ele>860</ele>
        <time>2026-05-12T13:55:55Z</time>
      </trkpt>
      <trkpt lat="45.90982" lon="5.6014">
        <ele>859.8</ele>
        <time>2026-05-12T13:55:56Z</time>
      </trkpt>
      <trkpt lat="45.90986" lon="5.60139">
        <ele>859.8</ele>
        <time>2026-05-12T13:55:57Z</time>
      </trkpt>
      <trkpt lat="45.9099" lon="5.60138">
        <ele>859.8</ele>
        <time>2026-05-12T13:55:58Z</time>
      </trkpt>
      <trkpt lat="45.90994" lon="5.60137">
        <ele>859.8</ele>
        <time>2026-05-12T13:55:59Z</time>
      </trkpt>
      <trkpt lat="45.90999" lon="5.60136">
        <ele>859.8</ele>
        <time>2026-05-12T13:56:00Z</time>
      </trkpt>
      <trkpt lat="45.91003" lon="5.60135">
        <ele>859.8</ele>
        <time>2026-05-12T13:56:01Z</time>
      </trkpt>
      <trkpt lat="45.91008" lon="5.60134">
        <ele>859.8</ele>
        <time>2026-05-12T13:56:02Z</time>
      </trkpt>
      <trkpt lat="45.91012" lon="5.60133">
        <ele>860.2</ele>
        <time>2026-05-12T13:56:03Z</time>
      </trkpt>
      <trkpt lat="45.91016" lon="5.60132">
        <ele>860.2</ele>
        <time>2026-05-12T13:56:04Z</time>
      </trkpt>
      <trkpt lat="45.91021" lon="5.60131">
        <ele>860.2</ele>
        <time>2026-05-12T13:56:05Z</time>
      </trkpt>
      <trkpt lat="45.91025" lon="5.6013">
        <ele>860</ele>
        <time>2026-05-12T13:56:06Z</time>
      </trkpt>
      <trkpt lat="45.91029" lon="5.60129">
        <ele>860</ele>
        <time>2026-05-12T13:56:07Z</time>
      </trkpt>
      <trkpt lat="45.91033" lon="5.60128">
        <ele>860</ele>
        <time>2026-05-12T13:56:08Z</time>
      </trkpt>
      <trkpt lat="45.91037" lon="5.60127">
        <ele>860</ele>
        <time>2026-05-12T13:56:09Z</time>
      </trkpt>
      <trkpt lat="45.91041" lon="5.60127">
        <ele>859.6</ele>
        <time>2026-05-12T13:56:10Z</time>
      </trkpt>
      <trkpt lat="45.91044" lon="5.60127">
        <ele>859.6</ele>
        <time>2026-05-12T13:56:11Z</time>
      </trkpt>
      <trkpt lat="45.91048" lon="5.60127">
        <ele>859.8</ele>
        <time>2026-05-12T13:56:12Z</time>
      </trkpt>
      <trkpt lat="45.91054" lon="5.60125">
        <ele>859.8</ele>
        <time>2026-05-12T13:56:13Z</time>
      </trkpt>
      <trkpt lat="45.91059" lon="5.60125">
        <ele>859.8</ele>
        <time>2026-05-12T13:56:14Z</time>
      </trkpt>
      <trkpt lat="45.91064" lon="5.60124">
        <ele>859.6</ele>
        <time>2026-05-12T13:56:15Z</time>
      </trkpt>
      <trkpt lat="45.91068" lon="5.60124">
        <ele>859.4</ele>
        <time>2026-05-12T13:56:16Z</time>
      </trkpt>
      <trkpt lat="45.91073" lon="5.60123">
        <ele>859.4</ele>
        <time>2026-05-12T13:56:17Z</time>
      </trkpt>
      <trkpt lat="45.91078" lon="5.60123">
        <ele>859.6</ele>
        <time>2026-05-12T13:56:18Z</time>
      </trkpt>
      <trkpt lat="45.91082" lon="5.60122">
        <ele>859.6</ele>
        <time>2026-05-12T13:56:19Z</time>
      </trkpt>
      <trkpt lat="45.91087" lon="5.60122">
        <ele>859.6</ele>
        <time>2026-05-12T13:56:20Z</time>
      </trkpt>
      <trkpt lat="45.91092" lon="5.60122">
        <ele>859.6</ele>
        <time>2026-05-12T13:56:21Z</time>
      </trkpt>
      <trkpt lat="45.91097" lon="5.60122">
        <ele>859.6</ele>
        <time>2026-05-12T13:56:22Z</time>
      </trkpt>
      <trkpt lat="45.91102" lon="5.60121">
        <ele>859.6</ele>
        <time>2026-05-12T13:56:23Z</time>
      </trkpt>
      <trkpt lat="45.91107" lon="5.60121">
        <ele>859.6</ele>
        <time>2026-05-12T13:56:24Z</time>
      </trkpt>
      <trkpt lat="45.91112" lon="5.60121">
        <ele>859.4</ele>
        <time>2026-05-12T13:56:25Z</time>
      </trkpt>
      <trkpt lat="45.91116" lon="5.60122">
        <ele>859.2</ele>
        <time>2026-05-12T13:56:26Z</time>
      </trkpt>
      <trkpt lat="45.91121" lon="5.60122">
        <ele>859.2</ele>
        <time>2026-05-12T13:56:27Z</time>
      </trkpt>
      <trkpt lat="45.91126" lon="5.60122">
        <ele>859.4</ele>
        <time>2026-05-12T13:56:28Z</time>
      </trkpt>
      <trkpt lat="45.91135" lon="5.60122">
        <ele>859.4</ele>
        <time>2026-05-12T13:56:29Z</time>
      </trkpt>
      <trkpt lat="45.9114" lon="5.60123">
        <ele>859.4</ele>
        <time>2026-05-12T13:56:30Z</time>
      </trkpt>
      <trkpt lat="45.91144" lon="5.60123">
        <ele>859.8</ele>
        <time>2026-05-12T13:56:31Z</time>
      </trkpt>
      <trkpt lat="45.91148" lon="5.60124">
        <ele>859.8</ele>
        <time>2026-05-12T13:56:32Z</time>
      </trkpt>
      <trkpt lat="45.91152" lon="5.60124">
        <ele>859.4</ele>
        <time>2026-05-12T13:56:33Z</time>
      </trkpt>
      <trkpt lat="45.91156" lon="5.60124">
        <ele>859.4</ele>
        <time>2026-05-12T13:56:34Z</time>
      </trkpt>
      <trkpt lat="45.9116" lon="5.60124">
        <ele>859.4</ele>
        <time>2026-05-12T13:56:35Z</time>
      </trkpt>
      <trkpt lat="45.91164" lon="5.60124">
        <ele>859.4</ele>
        <time>2026-05-12T13:56:36Z</time>
      </trkpt>
      <trkpt lat="45.91168" lon="5.60124">
        <ele>859.6</ele>
        <time>2026-05-12T13:56:37Z</time>
      </trkpt>
      <trkpt lat="45.91173" lon="5.60125">
        <ele>859.6</ele>
        <time>2026-05-12T13:56:38Z</time>
      </trkpt>
      <trkpt lat="45.91177" lon="5.60125">
        <ele>859.6</ele>
        <time>2026-05-12T13:56:39Z</time>
      </trkpt>
      <trkpt lat="45.91181" lon="5.60126">
        <ele>859.8</ele>
        <time>2026-05-12T13:56:40Z</time>
      </trkpt>
      <trkpt lat="45.91186" lon="5.60126">
        <ele>859.8</ele>
        <time>2026-05-12T13:56:41Z</time>
      </trkpt>
      <trkpt lat="45.9119" lon="5.60126">
        <ele>859.8</ele>
        <time>2026-05-12T13:56:42Z</time>
      </trkpt>
      <trkpt lat="45.91194" lon="5.60126">
        <ele>859.8</ele>
        <time>2026-05-12T13:56:43Z</time>
      </trkpt>
      <trkpt lat="45.91198" lon="5.60126">
        <ele>860</ele>
        <time>2026-05-12T13:56:44Z</time>
      </trkpt>
      <trkpt lat="45.91202" lon="5.60126">
        <ele>860</ele>
        <time>2026-05-12T13:56:45Z</time>
      </trkpt>
      <trkpt lat="45.91206" lon="5.60126">
        <ele>860</ele>
        <time>2026-05-12T13:56:46Z</time>
      </trkpt>
      <trkpt lat="45.9121" lon="5.60126">
        <ele>860</ele>
        <time>2026-05-12T13:56:47Z</time>
      </trkpt>
      <trkpt lat="45.91214" lon="5.60126">
        <ele>860</ele>
        <time>2026-05-12T13:56:48Z</time>
      </trkpt>
      <trkpt lat="45.91218" lon="5.60127">
        <ele>860</ele>
        <time>2026-05-12T13:56:49Z</time>
      </trkpt>
      <trkpt lat="45.91222" lon="5.60127">
        <ele>860</ele>
        <time>2026-05-12T13:56:50Z</time>
      </trkpt>
      <trkpt lat="45.91226" lon="5.60127">
        <ele>860</ele>
        <time>2026-05-12T13:56:51Z</time>
      </trkpt>
      <trkpt lat="45.91231" lon="5.60127">
        <ele>860</ele>
        <time>2026-05-12T13:56:52Z</time>
      </trkpt>
      <trkpt lat="45.91235" lon="5.60128">
        <ele>860</ele>
        <time>2026-05-12T13:56:53Z</time>
      </trkpt>
      <trkpt lat="45.9124" lon="5.60128">
        <ele>860.2</ele>
        <time>2026-05-12T13:56:54Z</time>
      </trkpt>
      <trkpt lat="45.91244" lon="5.60128">
        <ele>860.2</ele>
        <time>2026-05-12T13:56:55Z</time>
      </trkpt>
      <trkpt lat="45.9125" lon="5.60128">
        <ele>859.8</ele>
        <time>2026-05-12T13:56:56Z</time>
      </trkpt>
      <trkpt lat="45.91255" lon="5.60128">
        <ele>859.6</ele>
        <time>2026-05-12T13:56:57Z</time>
      </trkpt>
      <trkpt lat="45.91255" lon="5.60128">
        <ele>859.6</ele>
        <time>2026-05-12T13:56:58Z</time>
      </trkpt>
      <trkpt lat="45.9126" lon="5.60128">
        <ele>859.6</ele>
        <time>2026-05-12T13:56:59Z</time>
      </trkpt>
      <trkpt lat="45.91265" lon="5.60128">
        <ele>859.6</ele>
        <time>2026-05-12T13:57:00Z</time>
      </trkpt>
      <trkpt lat="45.9127" lon="5.60128">
        <ele>859.6</ele>
        <time>2026-05-12T13:57:01Z</time>
      </trkpt>
      <trkpt lat="45.91275" lon="5.60129">
        <ele>859.2</ele>
        <time>2026-05-12T13:57:02Z</time>
      </trkpt>
      <trkpt lat="45.91279" lon="5.60129">
        <ele>859.2</ele>
        <time>2026-05-12T13:57:03Z</time>
      </trkpt>
      <trkpt lat="45.91284" lon="5.60129">
        <ele>859.2</ele>
        <time>2026-05-12T13:57:04Z</time>
      </trkpt>
      <trkpt lat="45.91289" lon="5.60129">
        <ele>858.8</ele>
        <time>2026-05-12T13:57:05Z</time>
      </trkpt>
      <trkpt lat="45.91293" lon="5.60129">
        <ele>858.6</ele>
        <time>2026-05-12T13:57:06Z</time>
      </trkpt>
      <trkpt lat="45.91298" lon="5.60129">
        <ele>858.6</ele>
        <time>2026-05-12T13:57:07Z</time>
      </trkpt>
      <trkpt lat="45.91302" lon="5.60129">
        <ele>858.2</ele>
        <time>2026-05-12T13:57:08Z</time>
      </trkpt>
      <trkpt lat="45.91306" lon="5.60129">
        <ele>858.2</ele>
        <time>2026-05-12T13:57:09Z</time>
      </trkpt>
      <trkpt lat="45.9131" lon="5.6013">
        <ele>858.2</ele>
        <time>2026-05-12T13:57:10Z</time>
      </trkpt>
      <trkpt lat="45.91315" lon="5.6013">
        <ele>858</ele>
        <time>2026-05-12T13:57:11Z</time>
      </trkpt>
      <trkpt lat="45.91319" lon="5.60131">
        <ele>857.6</ele>
        <time>2026-05-12T13:57:12Z</time>
      </trkpt>
      <trkpt lat="45.91323" lon="5.60131">
        <ele>856.8</ele>
        <time>2026-05-12T13:57:13Z</time>
      </trkpt>
      <trkpt lat="45.91327" lon="5.60132">
        <ele>856.8</ele>
        <time>2026-05-12T13:57:14Z</time>
      </trkpt>
      <trkpt lat="45.91331" lon="5.60133">
        <ele>856.6</ele>
        <time>2026-05-12T13:57:15Z</time>
      </trkpt>
      <trkpt lat="45.91335" lon="5.60133">
        <ele>856.6</ele>
        <time>2026-05-12T13:57:16Z</time>
      </trkpt>
      <trkpt lat="45.91339" lon="5.60135">
        <ele>856.6</ele>
        <time>2026-05-12T13:57:17Z</time>
      </trkpt>
      <trkpt lat="45.91339" lon="5.60135">
        <ele>856.6</ele>
        <time>2026-05-12T13:57:18Z</time>
      </trkpt>
      <trkpt lat="45.91348" lon="5.60138">
        <ele>856.4</ele>
        <time>2026-05-12T13:57:19Z</time>
      </trkpt>
      <trkpt lat="45.91352" lon="5.6014">
        <ele>856.4</ele>
        <time>2026-05-12T13:57:20Z</time>
      </trkpt>
      <trkpt lat="45.91357" lon="5.60141">
        <ele>856.4</ele>
        <time>2026-05-12T13:57:21Z</time>
      </trkpt>
      <trkpt lat="45.91361" lon="5.60142">
        <ele>856.4</ele>
        <time>2026-05-12T13:57:22Z</time>
      </trkpt>
      <trkpt lat="45.91365" lon="5.60144">
        <ele>856.4</ele>
        <time>2026-05-12T13:57:23Z</time>
      </trkpt>
      <trkpt lat="45.91369" lon="5.60145">
        <ele>856.4</ele>
        <time>2026-05-12T13:57:24Z</time>
      </trkpt>
      <trkpt lat="45.91373" lon="5.60146">
        <ele>856.4</ele>
        <time>2026-05-12T13:57:25Z</time>
      </trkpt>
      <trkpt lat="45.91377" lon="5.60147">
        <ele>856.4</ele>
        <time>2026-05-12T13:57:26Z</time>
      </trkpt>
      <trkpt lat="45.91382" lon="5.60149">
        <ele>856.4</ele>
        <time>2026-05-12T13:57:27Z</time>
      </trkpt>
      <trkpt lat="45.91386" lon="5.60151">
        <ele>856.4</ele>
        <time>2026-05-12T13:57:28Z</time>
      </trkpt>
      <trkpt lat="45.9139" lon="5.60152">
        <ele>856.4</ele>
        <time>2026-05-12T13:57:29Z</time>
      </trkpt>
      <trkpt lat="45.91393" lon="5.60154">
        <ele>856.8</ele>
        <time>2026-05-12T13:57:30Z</time>
      </trkpt>
      <trkpt lat="45.91397" lon="5.60155">
        <ele>857</ele>
        <time>2026-05-12T13:57:31Z</time>
      </trkpt>
      <trkpt lat="45.91401" lon="5.60157">
        <ele>857</ele>
        <time>2026-05-12T13:57:32Z</time>
      </trkpt>
      <trkpt lat="45.91405" lon="5.60159">
        <ele>857</ele>
        <time>2026-05-12T13:57:33Z</time>
      </trkpt>
      <trkpt lat="45.91409" lon="5.6016">
        <ele>857.2</ele>
        <time>2026-05-12T13:57:34Z</time>
      </trkpt>
      <trkpt lat="45.91413" lon="5.60161">
        <ele>857.2</ele>
        <time>2026-05-12T13:57:35Z</time>
      </trkpt>
      <trkpt lat="45.91416" lon="5.60162">
        <ele>857.6</ele>
        <time>2026-05-12T13:57:36Z</time>
      </trkpt>
      <trkpt lat="45.9142" lon="5.60163">
        <ele>857.8</ele>
        <time>2026-05-12T13:57:37Z</time>
      </trkpt>
      <trkpt lat="45.91424" lon="5.60164">
        <ele>858</ele>
        <time>2026-05-12T13:57:38Z</time>
      </trkpt>
      <trkpt lat="45.91427" lon="5.60165">
        <ele>858.4</ele>
        <time>2026-05-12T13:57:39Z</time>
      </trkpt>
      <trkpt lat="45.91431" lon="5.60167">
        <ele>858.4</ele>
        <time>2026-05-12T13:57:40Z</time>
      </trkpt>
      <trkpt lat="45.91434" lon="5.60168">
        <ele>858.4</ele>
        <time>2026-05-12T13:57:41Z</time>
      </trkpt>
      <trkpt lat="45.91438" lon="5.60169">
        <ele>858.4</ele>
        <time>2026-05-12T13:57:42Z</time>
      </trkpt>
      <trkpt lat="45.91442" lon="5.6017">
        <ele>858.4</ele>
        <time>2026-05-12T13:57:43Z</time>
      </trkpt>
      <trkpt lat="45.91446" lon="5.60171">
        <ele>858.4</ele>
        <time>2026-05-12T13:57:44Z</time>
      </trkpt>
      <trkpt lat="45.9145" lon="5.60172">
        <ele>858.4</ele>
        <time>2026-05-12T13:57:45Z</time>
      </trkpt>
      <trkpt lat="45.91454" lon="5.60174">
        <ele>858.4</ele>
        <time>2026-05-12T13:57:46Z</time>
      </trkpt>
      <trkpt lat="45.91457" lon="5.60176">
        <ele>858.4</ele>
        <time>2026-05-12T13:57:47Z</time>
      </trkpt>
      <trkpt lat="45.9146" lon="5.60177">
        <ele>858.6</ele>
        <time>2026-05-12T13:57:48Z</time>
      </trkpt>
      <trkpt lat="45.91462" lon="5.60178">
        <ele>858.6</ele>
        <time>2026-05-12T13:57:49Z</time>
      </trkpt>
      <trkpt lat="45.91463" lon="5.60178">
        <ele>859</ele>
        <time>2026-05-12T13:57:50Z</time>
      </trkpt>
      <trkpt lat="45.91464" lon="5.60178">
        <ele>859.4</ele>
        <time>2026-05-12T13:57:51Z</time>
      </trkpt>
      <trkpt lat="45.91465" lon="5.60176">
        <ele>859.4</ele>
        <time>2026-05-12T13:57:57Z</time>
      </trkpt>
      <trkpt lat="45.91467" lon="5.60175">
        <ele>859.4</ele>
        <time>2026-05-12T13:57:58Z</time>
      </trkpt>
      <trkpt lat="45.91469" lon="5.60174">
        <ele>859.2</ele>
        <time>2026-05-12T13:57:59Z</time>
      </trkpt>
      <trkpt lat="45.91472" lon="5.60173">
        <ele>859.2</ele>
        <time>2026-05-12T13:58:00Z</time>
      </trkpt>
      <trkpt lat="45.91475" lon="5.60172">
        <ele>859.2</ele>
        <time>2026-05-12T13:58:01Z</time>
      </trkpt>
      <trkpt lat="45.91479" lon="5.60171">
        <ele>858.8</ele>
        <time>2026-05-12T13:58:02Z</time>
      </trkpt>
      <trkpt lat="45.91483" lon="5.60169">
        <ele>858.8</ele>
        <time>2026-05-12T13:58:03Z</time>
      </trkpt>
      <trkpt lat="45.91487" lon="5.60168">
        <ele>858.4</ele>
        <time>2026-05-12T13:58:04Z</time>
      </trkpt>
      <trkpt lat="45.9149" lon="5.60167">
        <ele>858.8</ele>
        <time>2026-05-12T13:58:05Z</time>
      </trkpt>
      <trkpt lat="45.91493" lon="5.60168">
        <ele>858.8</ele>
        <time>2026-05-12T13:58:06Z</time>
      </trkpt>
      <trkpt lat="45.91497" lon="5.60168">
        <ele>859.2</ele>
        <time>2026-05-12T13:58:07Z</time>
      </trkpt>
      <trkpt lat="45.915" lon="5.60168">
        <ele>859.2</ele>
        <time>2026-05-12T13:58:08Z</time>
      </trkpt>
      <trkpt lat="45.91503" lon="5.60168">
        <ele>859.8</ele>
        <time>2026-05-12T13:58:09Z</time>
      </trkpt>
      <trkpt lat="45.91506" lon="5.60168">
        <ele>859.8</ele>
        <time>2026-05-12T13:58:10Z</time>
      </trkpt>
      <trkpt lat="45.9151" lon="5.60168">
        <ele>859.6</ele>
        <time>2026-05-12T13:58:11Z</time>
      </trkpt>
      <trkpt lat="45.91513" lon="5.60168">
        <ele>859.6</ele>
        <time>2026-05-12T13:58:12Z</time>
      </trkpt>
      <trkpt lat="45.91517" lon="5.60167">
        <ele>859.6</ele>
        <time>2026-05-12T13:58:13Z</time>
      </trkpt>
      <trkpt lat="45.9152" lon="5.60166">
        <ele>859.6</ele>
        <time>2026-05-12T13:58:14Z</time>
      </trkpt>
      <trkpt lat="45.91523" lon="5.60166">
        <ele>859.8</ele>
        <time>2026-05-12T13:58:15Z</time>
      </trkpt>
      <trkpt lat="45.91526" lon="5.60165">
        <ele>859.2</ele>
        <time>2026-05-12T13:58:16Z</time>
      </trkpt>
      <trkpt lat="45.91529" lon="5.60163">
        <ele>859.4</ele>
        <time>2026-05-12T13:58:17Z</time>
      </trkpt>
      <trkpt lat="45.91532" lon="5.60162">
        <ele>858.8</ele>
        <time>2026-05-12T13:58:18Z</time>
      </trkpt>
      <trkpt lat="45.91536" lon="5.60161">
        <ele>859</ele>
        <time>2026-05-12T13:58:19Z</time>
      </trkpt>
      <trkpt lat="45.9154" lon="5.60159">
        <ele>859</ele>
        <time>2026-05-12T13:58:20Z</time>
      </trkpt>
      <trkpt lat="45.91544" lon="5.60158">
        <ele>859</ele>
        <time>2026-05-12T13:58:21Z</time>
      </trkpt>
      <trkpt lat="45.91547" lon="5.60156">
        <ele>858.8</ele>
        <time>2026-05-12T13:58:22Z</time>
      </trkpt>
      <trkpt lat="45.91551" lon="5.60155">
        <ele>858.4</ele>
        <time>2026-05-12T13:58:23Z</time>
      </trkpt>
      <trkpt lat="45.91554" lon="5.60153">
        <ele>858.4</ele>
        <time>2026-05-12T13:58:24Z</time>
      </trkpt>
      <trkpt lat="45.91558" lon="5.60152">
        <ele>858.4</ele>
        <time>2026-05-12T13:58:25Z</time>
      </trkpt>
      <trkpt lat="45.91561" lon="5.6015">
        <ele>858.2</ele>
        <time>2026-05-12T13:58:26Z</time>
      </trkpt>
      <trkpt lat="45.91565" lon="5.60149">
        <ele>858.2</ele>
        <time>2026-05-12T13:58:27Z</time>
      </trkpt>
      <trkpt lat="45.91569" lon="5.60147">
        <ele>858.2</ele>
        <time>2026-05-12T13:58:28Z</time>
      </trkpt>
      <trkpt lat="45.91573" lon="5.60146">
        <ele>858.2</ele>
        <time>2026-05-12T13:58:29Z</time>
      </trkpt>
      <trkpt lat="45.91577" lon="5.60145">
        <ele>857.8</ele>
        <time>2026-05-12T13:58:30Z</time>
      </trkpt>
      <trkpt lat="45.91581" lon="5.60144">
        <ele>857.8</ele>
        <time>2026-05-12T13:58:31Z</time>
      </trkpt>
      <trkpt lat="45.91588" lon="5.60141">
        <ele>858.4</ele>
        <time>2026-05-12T13:58:32Z</time>
      </trkpt>
      <trkpt lat="45.91592" lon="5.6014">
        <ele>858</ele>
        <time>2026-05-12T13:58:33Z</time>
      </trkpt>
      <trkpt lat="45.91596" lon="5.60138">
        <ele>857.8</ele>
        <time>2026-05-12T13:58:34Z</time>
      </trkpt>
      <trkpt lat="45.916" lon="5.60137">
        <ele>857.6</ele>
        <time>2026-05-12T13:58:35Z</time>
      </trkpt>
      <trkpt lat="45.91604" lon="5.60135">
        <ele>857.6</ele>
        <time>2026-05-12T13:58:36Z</time>
      </trkpt>
      <trkpt lat="45.91608" lon="5.60134">
        <ele>857.6</ele>
        <time>2026-05-12T13:58:37Z</time>
      </trkpt>
      <trkpt lat="45.91612" lon="5.60133">
        <ele>857.4</ele>
        <time>2026-05-12T13:58:38Z</time>
      </trkpt>
      <trkpt lat="45.91615" lon="5.60132">
        <ele>857.4</ele>
        <time>2026-05-12T13:58:39Z</time>
      </trkpt>
      <trkpt lat="45.91619" lon="5.6013">
        <ele>857.6</ele>
        <time>2026-05-12T13:58:40Z</time>
      </trkpt>
      <trkpt lat="45.91622" lon="5.60129">
        <ele>857.6</ele>
        <time>2026-05-12T13:58:41Z</time>
      </trkpt>
      <trkpt lat="45.91625" lon="5.60127">
        <ele>857.6</ele>
        <time>2026-05-12T13:58:42Z</time>
      </trkpt>
      <trkpt lat="45.91628" lon="5.60126">
        <ele>857.6</ele>
        <time>2026-05-12T13:58:43Z</time>
      </trkpt>
      <trkpt lat="45.91632" lon="5.60124">
        <ele>857.4</ele>
        <time>2026-05-12T13:58:44Z</time>
      </trkpt>
      <trkpt lat="45.91636" lon="5.60123">
        <ele>857.4</ele>
        <time>2026-05-12T13:58:45Z</time>
      </trkpt>
      <trkpt lat="45.91639" lon="5.60122">
        <ele>857.8</ele>
        <time>2026-05-12T13:58:46Z</time>
      </trkpt>
      <trkpt lat="45.91642" lon="5.6012">
        <ele>857.8</ele>
        <time>2026-05-12T13:58:47Z</time>
      </trkpt>
      <trkpt lat="45.91646" lon="5.60119">
        <ele>858</ele>
        <time>2026-05-12T13:58:48Z</time>
      </trkpt>
      <trkpt lat="45.91649" lon="5.60117">
        <ele>858</ele>
        <time>2026-05-12T13:58:49Z</time>
      </trkpt>
      <trkpt lat="45.91653" lon="5.60116">
        <ele>857.6</ele>
        <time>2026-05-12T13:58:50Z</time>
      </trkpt>
      <trkpt lat="45.91656" lon="5.60114">
        <ele>857.2</ele>
        <time>2026-05-12T13:58:51Z</time>
      </trkpt>
      <trkpt lat="45.91659" lon="5.60113">
        <ele>857.2</ele>
        <time>2026-05-12T13:58:52Z</time>
      </trkpt>
      <trkpt lat="45.91662" lon="5.60112">
        <ele>857.8</ele>
        <time>2026-05-12T13:58:53Z</time>
      </trkpt>
      <trkpt lat="45.91665" lon="5.6011">
        <ele>857.8</ele>
        <time>2026-05-12T13:58:54Z</time>
      </trkpt>
      <trkpt lat="45.91668" lon="5.60109">
        <ele>858</ele>
        <time>2026-05-12T13:58:55Z</time>
      </trkpt>
      <trkpt lat="45.91672" lon="5.60108">
        <ele>858</ele>
        <time>2026-05-12T13:58:56Z</time>
      </trkpt>
      <trkpt lat="45.91675" lon="5.60106">
        <ele>858</ele>
        <time>2026-05-12T13:58:57Z</time>
      </trkpt>
      <trkpt lat="45.91679" lon="5.60105">
        <ele>858.4</ele>
        <time>2026-05-12T13:58:58Z</time>
      </trkpt>
      <trkpt lat="45.91681" lon="5.60103">
        <ele>858.4</ele>
        <time>2026-05-12T13:58:59Z</time>
      </trkpt>
      <trkpt lat="45.91685" lon="5.60102">
        <ele>858.4</ele>
        <time>2026-05-12T13:59:00Z</time>
      </trkpt>
      <trkpt lat="45.91688" lon="5.601">
        <ele>858.4</ele>
        <time>2026-05-12T13:59:01Z</time>
      </trkpt>
      <trkpt lat="45.91691" lon="5.60099">
        <ele>858.4</ele>
        <time>2026-05-12T13:59:02Z</time>
      </trkpt>
      <trkpt lat="45.91695" lon="5.60098">
        <ele>858.2</ele>
        <time>2026-05-12T13:59:03Z</time>
      </trkpt>
      <trkpt lat="45.91698" lon="5.60096">
        <ele>858.2</ele>
        <time>2026-05-12T13:59:04Z</time>
      </trkpt>
      <trkpt lat="45.91701" lon="5.60095">
        <ele>857</ele>
        <time>2026-05-12T13:59:05Z</time>
      </trkpt>
      <trkpt lat="45.91704" lon="5.60093">
        <ele>857.6</ele>
        <time>2026-05-12T13:59:06Z</time>
      </trkpt>
      <trkpt lat="45.91707" lon="5.60092">
        <ele>857.6</ele>
        <time>2026-05-12T13:59:07Z</time>
      </trkpt>
      <trkpt lat="45.9171" lon="5.6009">
        <ele>857.8</ele>
        <time>2026-05-12T13:59:08Z</time>
      </trkpt>
      <trkpt lat="45.91713" lon="5.60089">
        <ele>857.8</ele>
        <time>2026-05-12T13:59:09Z</time>
      </trkpt>
      <trkpt lat="45.91716" lon="5.60087">
        <ele>857.8</ele>
        <time>2026-05-12T13:59:10Z</time>
      </trkpt>
      <trkpt lat="45.91719" lon="5.60086">
        <ele>858.2</ele>
        <time>2026-05-12T13:59:11Z</time>
      </trkpt>
      <trkpt lat="45.91722" lon="5.60085">
        <ele>858.2</ele>
        <time>2026-05-12T13:59:12Z</time>
      </trkpt>
      <trkpt lat="45.91725" lon="5.60084">
        <ele>857.2</ele>
        <time>2026-05-12T13:59:13Z</time>
      </trkpt>
      <trkpt lat="45.91728" lon="5.60082">
        <ele>857.2</ele>
        <time>2026-05-12T13:59:14Z</time>
      </trkpt>
      <trkpt lat="45.91731" lon="5.60081">
        <ele>858</ele>
        <time>2026-05-12T13:59:15Z</time>
      </trkpt>
      <trkpt lat="45.91734" lon="5.60079">
        <ele>858.4</ele>
        <time>2026-05-12T13:59:16Z</time>
      </trkpt>
      <trkpt lat="45.91737" lon="5.60078">
        <ele>859</ele>
        <time>2026-05-12T13:59:17Z</time>
      </trkpt>
      <trkpt lat="45.9174" lon="5.60077">
        <ele>859</ele>
        <time>2026-05-12T13:59:18Z</time>
      </trkpt>
      <trkpt lat="45.91743" lon="5.60076">
        <ele>859.4</ele>
        <time>2026-05-12T13:59:19Z</time>
      </trkpt>
      <trkpt lat="45.91746" lon="5.60075">
        <ele>859.4</ele>
        <time>2026-05-12T13:59:20Z</time>
      </trkpt>
      <trkpt lat="45.91749" lon="5.60074">
        <ele>859.8</ele>
        <time>2026-05-12T13:59:21Z</time>
      </trkpt>
      <trkpt lat="45.91752" lon="5.60072">
        <ele>860.4</ele>
        <time>2026-05-12T13:59:22Z</time>
      </trkpt>
      <trkpt lat="45.91754" lon="5.60071">
        <ele>860.4</ele>
        <time>2026-05-12T13:59:23Z</time>
      </trkpt>
      <trkpt lat="45.91757" lon="5.60069">
        <ele>860.4</ele>
        <time>2026-05-12T13:59:24Z</time>
      </trkpt>
      <trkpt lat="45.9176" lon="5.60067">
        <ele>860.4</ele>
        <time>2026-05-12T13:59:25Z</time>
      </trkpt>
      <trkpt lat="45.91762" lon="5.60065">
        <ele>860.2</ele>
        <time>2026-05-12T13:59:26Z</time>
      </trkpt>
      <trkpt lat="45.91765" lon="5.60063">
        <ele>860.2</ele>
        <time>2026-05-12T13:59:27Z</time>
      </trkpt>
      <trkpt lat="45.91767" lon="5.60061">
        <ele>860.6</ele>
        <time>2026-05-12T13:59:28Z</time>
      </trkpt>
      <trkpt lat="45.9177" lon="5.6006">
        <ele>860.6</ele>
        <time>2026-05-12T13:59:29Z</time>
      </trkpt>
      <trkpt lat="45.91773" lon="5.60058">
        <ele>860.6</ele>
        <time>2026-05-12T13:59:30Z</time>
      </trkpt>
      <trkpt lat="45.91775" lon="5.60056">
        <ele>860.8</ele>
        <time>2026-05-12T13:59:31Z</time>
      </trkpt>
      <trkpt lat="45.91778" lon="5.60053">
        <ele>860.8</ele>
        <time>2026-05-12T13:59:32Z</time>
      </trkpt>
      <trkpt lat="45.9178" lon="5.60051">
        <ele>860.8</ele>
        <time>2026-05-12T13:59:33Z</time>
      </trkpt>
      <trkpt lat="45.91782" lon="5.60049">
        <ele>860.4</ele>
        <time>2026-05-12T13:59:34Z</time>
      </trkpt>
      <trkpt lat="45.91785" lon="5.60047">
        <ele>860.4</ele>
        <time>2026-05-12T13:59:35Z</time>
      </trkpt>
      <trkpt lat="45.91787" lon="5.60045">
        <ele>860.6</ele>
        <time>2026-05-12T13:59:36Z</time>
      </trkpt>
      <trkpt lat="45.9179" lon="5.60043">
        <ele>860.6</ele>
        <time>2026-05-12T13:59:37Z</time>
      </trkpt>
      <trkpt lat="45.91793" lon="5.60041">
        <ele>860.6</ele>
        <time>2026-05-12T13:59:38Z</time>
      </trkpt>
      <trkpt lat="45.91796" lon="5.60039">
        <ele>861</ele>
        <time>2026-05-12T13:59:39Z</time>
      </trkpt>
      <trkpt lat="45.91798" lon="5.60037">
        <ele>861</ele>
        <time>2026-05-12T13:59:40Z</time>
      </trkpt>
      <trkpt lat="45.91801" lon="5.60035">
        <ele>861</ele>
        <time>2026-05-12T13:59:41Z</time>
      </trkpt>
      <trkpt lat="45.91804" lon="5.60033">
        <ele>861</ele>
        <time>2026-05-12T13:59:42Z</time>
      </trkpt>
      <trkpt lat="45.91806" lon="5.60032">
        <ele>860.8</ele>
        <time>2026-05-12T13:59:43Z</time>
      </trkpt>
      <trkpt lat="45.91809" lon="5.60031">
        <ele>861.2</ele>
        <time>2026-05-12T13:59:44Z</time>
      </trkpt>
      <trkpt lat="45.91812" lon="5.60029">
        <ele>861.2</ele>
        <time>2026-05-12T13:59:45Z</time>
      </trkpt>
      <trkpt lat="45.91814" lon="5.60028">
        <ele>861.2</ele>
        <time>2026-05-12T13:59:46Z</time>
      </trkpt>
      <trkpt lat="45.91817" lon="5.60026">
        <ele>861.6</ele>
        <time>2026-05-12T13:59:47Z</time>
      </trkpt>
      <trkpt lat="45.91819" lon="5.60025">
        <ele>861.6</ele>
        <time>2026-05-12T13:59:48Z</time>
      </trkpt>
      <trkpt lat="45.91822" lon="5.60023">
        <ele>861.2</ele>
        <time>2026-05-12T13:59:49Z</time>
      </trkpt>
      <trkpt lat="45.91825" lon="5.60022">
        <ele>861.2</ele>
        <time>2026-05-12T13:59:50Z</time>
      </trkpt>
      <trkpt lat="45.91827" lon="5.60021">
        <ele>861.6</ele>
        <time>2026-05-12T13:59:51Z</time>
      </trkpt>
      <trkpt lat="45.91829" lon="5.6002">
        <ele>862.2</ele>
        <time>2026-05-12T13:59:52Z</time>
      </trkpt>
      <trkpt lat="45.91832" lon="5.60019">
        <ele>861.8</ele>
        <time>2026-05-12T13:59:53Z</time>
      </trkpt>
      <trkpt lat="45.91834" lon="5.60017">
        <ele>862.2</ele>
        <time>2026-05-12T13:59:54Z</time>
      </trkpt>
      <trkpt lat="45.91836" lon="5.60015">
        <ele>862.2</ele>
        <time>2026-05-12T13:59:55Z</time>
      </trkpt>
      <trkpt lat="45.91836" lon="5.60015">
        <ele>862.2</ele>
        <time>2026-05-12T13:59:56Z</time>
      </trkpt>
      <trkpt lat="45.91839" lon="5.60013">
        <ele>862.6</ele>
        <time>2026-05-12T13:59:57Z</time>
      </trkpt>
      <trkpt lat="45.91841" lon="5.60011">
        <ele>862.6</ele>
        <time>2026-05-12T13:59:58Z</time>
      </trkpt>
      <trkpt lat="45.91844" lon="5.60009">
        <ele>862.6</ele>
        <time>2026-05-12T13:59:59Z</time>
      </trkpt>
      <trkpt lat="45.91846" lon="5.60007">
        <ele>862.8</ele>
        <time>2026-05-12T14:00:00Z</time>
      </trkpt>
      <trkpt lat="45.91849" lon="5.60006">
        <ele>862.8</ele>
        <time>2026-05-12T14:00:01Z</time>
      </trkpt>
      <trkpt lat="45.91851" lon="5.60004">
        <ele>862.4</ele>
        <time>2026-05-12T14:00:02Z</time>
      </trkpt>
      <trkpt lat="45.91854" lon="5.60001">
        <ele>862.4</ele>
        <time>2026-05-12T14:00:03Z</time>
      </trkpt>
      <trkpt lat="45.91856" lon="5.59999">
        <ele>862.8</ele>
        <time>2026-05-12T14:00:04Z</time>
      </trkpt>
      <trkpt lat="45.91858" lon="5.59997">
        <ele>862.8</ele>
        <time>2026-05-12T14:00:05Z</time>
      </trkpt>
      <trkpt lat="45.9186" lon="5.59994">
        <ele>862.8</ele>
        <time>2026-05-12T14:00:06Z</time>
      </trkpt>
      <trkpt lat="45.91862" lon="5.59992">
        <ele>863</ele>
        <time>2026-05-12T14:00:07Z</time>
      </trkpt>
      <trkpt lat="45.91865" lon="5.5999">
        <ele>863.6</ele>
        <time>2026-05-12T14:00:08Z</time>
      </trkpt>
      <trkpt lat="45.91867" lon="5.59988">
        <ele>863.6</ele>
        <time>2026-05-12T14:00:09Z</time>
      </trkpt>
      <trkpt lat="45.91869" lon="5.59986">
        <ele>863.2</ele>
        <time>2026-05-12T14:00:10Z</time>
      </trkpt>
      <trkpt lat="45.91871" lon="5.59983">
        <ele>863.4</ele>
        <time>2026-05-12T14:00:11Z</time>
      </trkpt>
      <trkpt lat="45.91873" lon="5.59981">
        <ele>863.4</ele>
        <time>2026-05-12T14:00:12Z</time>
      </trkpt>
      <trkpt lat="45.91875" lon="5.59978">
        <ele>863.8</ele>
        <time>2026-05-12T14:00:13Z</time>
      </trkpt>
      <trkpt lat="45.91877" lon="5.59976">
        <ele>864</ele>
        <time>2026-05-12T14:00:14Z</time>
      </trkpt>
      <trkpt lat="45.91878" lon="5.59974">
        <ele>864</ele>
        <time>2026-05-12T14:00:15Z</time>
      </trkpt>
      <trkpt lat="45.9188" lon="5.59973">
        <ele>864.4</ele>
        <time>2026-05-12T14:00:16Z</time>
      </trkpt>
      <trkpt lat="45.91882" lon="5.59972">
        <ele>864.6</ele>
        <time>2026-05-12T14:00:17Z</time>
      </trkpt>
      <trkpt lat="45.91884" lon="5.59971">
        <ele>864.8</ele>
        <time>2026-05-12T14:00:18Z</time>
      </trkpt>
      <trkpt lat="45.91887" lon="5.5997">
        <ele>864.8</ele>
        <time>2026-05-12T14:00:19Z</time>
      </trkpt>
      <trkpt lat="45.91888" lon="5.59969">
        <ele>865.2</ele>
        <time>2026-05-12T14:00:20Z</time>
      </trkpt>
      <trkpt lat="45.91889" lon="5.59968">
        <ele>865.6</ele>
        <time>2026-05-12T14:00:21Z</time>
      </trkpt>
      <trkpt lat="45.9189" lon="5.59967">
        <ele>865.6</ele>
        <time>2026-05-12T14:00:22Z</time>
      </trkpt>
      <trkpt lat="45.91891" lon="5.59966">
        <ele>865.6</ele>
        <time>2026-05-12T14:00:23Z</time>
      </trkpt>
      <trkpt lat="45.91893" lon="5.59964">
        <ele>865.6</ele>
        <time>2026-05-12T14:00:24Z</time>
      </trkpt>
      <trkpt lat="45.91894" lon="5.59962">
        <ele>865.2</ele>
        <time>2026-05-12T14:00:25Z</time>
      </trkpt>
      <trkpt lat="45.91895" lon="5.5996">
        <ele>865.6</ele>
        <time>2026-05-12T14:00:26Z</time>
      </trkpt>
      <trkpt lat="45.91896" lon="5.59959">
        <ele>866.2</ele>
        <time>2026-05-12T14:00:27Z</time>
      </trkpt>
      <trkpt lat="45.91898" lon="5.59957">
        <ele>866.2</ele>
        <time>2026-05-12T14:00:28Z</time>
      </trkpt>
      <trkpt lat="45.919" lon="5.59957">
        <ele>866.6</ele>
        <time>2026-05-12T14:00:29Z</time>
      </trkpt>
      <trkpt lat="45.91902" lon="5.59956">
        <ele>866.8</ele>
        <time>2026-05-12T14:00:30Z</time>
      </trkpt>
      <trkpt lat="45.91904" lon="5.59955">
        <ele>867.2</ele>
        <time>2026-05-12T14:00:31Z</time>
      </trkpt>
      <trkpt lat="45.91905" lon="5.59954">
        <ele>867.2</ele>
        <time>2026-05-12T14:00:32Z</time>
      </trkpt>
      <trkpt lat="45.91905" lon="5.59953">
        <ele>867.2</ele>
        <time>2026-05-12T14:00:33Z</time>
      </trkpt>
      <trkpt lat="45.91907" lon="5.59952">
        <ele>867.2</ele>
        <time>2026-05-12T14:00:34Z</time>
      </trkpt>
      <trkpt lat="45.91908" lon="5.59951">
        <ele>867.6</ele>
        <time>2026-05-12T14:00:35Z</time>
      </trkpt>
      <trkpt lat="45.9191" lon="5.5995">
        <ele>868</ele>
        <time>2026-05-12T14:00:36Z</time>
      </trkpt>
      <trkpt lat="45.91911" lon="5.59949">
        <ele>868</ele>
        <time>2026-05-12T14:00:37Z</time>
      </trkpt>
      <trkpt lat="45.91912" lon="5.59948">
        <ele>868.4</ele>
        <time>2026-05-12T14:00:38Z</time>
      </trkpt>
      <trkpt lat="45.91914" lon="5.59947">
        <ele>868.4</ele>
        <time>2026-05-12T14:00:39Z</time>
      </trkpt>
      <trkpt lat="45.91915" lon="5.59947">
        <ele>868.4</ele>
        <time>2026-05-12T14:00:40Z</time>
      </trkpt>
      <trkpt lat="45.91917" lon="5.59946">
        <ele>868.4</ele>
        <time>2026-05-12T14:00:41Z</time>
      </trkpt>
      <trkpt lat="45.91918" lon="5.59946">
        <ele>868.4</ele>
        <time>2026-05-12T14:00:42Z</time>
      </trkpt>
      <trkpt lat="45.91919" lon="5.59945">
        <ele>868.6</ele>
        <time>2026-05-12T14:00:43Z</time>
      </trkpt>
      <trkpt lat="45.91921" lon="5.59945">
        <ele>869</ele>
        <time>2026-05-12T14:00:44Z</time>
      </trkpt>
      <trkpt lat="45.91923" lon="5.59945">
        <ele>869</ele>
        <time>2026-05-12T14:00:45Z</time>
      </trkpt>
      <trkpt lat="45.91925" lon="5.59944">
        <ele>869</ele>
        <time>2026-05-12T14:00:46Z</time>
      </trkpt>
      <trkpt lat="45.91926" lon="5.59944">
        <ele>869.4</ele>
        <time>2026-05-12T14:00:47Z</time>
      </trkpt>
      <trkpt lat="45.91928" lon="5.59943">
        <ele>869.8</ele>
        <time>2026-05-12T14:00:48Z</time>
      </trkpt>
      <trkpt lat="45.9193" lon="5.59942">
        <ele>869.8</ele>
        <time>2026-05-12T14:00:49Z</time>
      </trkpt>
      <trkpt lat="45.91932" lon="5.59942">
        <ele>870.2</ele>
        <time>2026-05-12T14:00:50Z</time>
      </trkpt>
      <trkpt lat="45.91934" lon="5.59941">
        <ele>870.2</ele>
        <time>2026-05-12T14:00:51Z</time>
      </trkpt>
      <trkpt lat="45.91935" lon="5.5994">
        <ele>870.2</ele>
        <time>2026-05-12T14:00:52Z</time>
      </trkpt>
      <trkpt lat="45.91937" lon="5.59939">
        <ele>870.2</ele>
        <time>2026-05-12T14:00:53Z</time>
      </trkpt>
      <trkpt lat="45.91937" lon="5.59938">
        <ele>870.4</ele>
        <time>2026-05-12T14:00:54Z</time>
      </trkpt>
      <trkpt lat="45.91938" lon="5.59938">
        <ele>870.4</ele>
        <time>2026-05-12T14:00:55Z</time>
      </trkpt>
      <trkpt lat="45.9194" lon="5.59937">
        <ele>870.4</ele>
        <time>2026-05-12T14:00:56Z</time>
      </trkpt>
      <trkpt lat="45.91942" lon="5.59936">
        <ele>870.4</ele>
        <time>2026-05-12T14:00:57Z</time>
      </trkpt>
      <trkpt lat="45.91943" lon="5.59935">
        <ele>870.4</ele>
        <time>2026-05-12T14:00:58Z</time>
      </trkpt>
      <trkpt lat="45.91944" lon="5.59935">
        <ele>870.4</ele>
        <time>2026-05-12T14:00:59Z</time>
      </trkpt>
      <trkpt lat="45.91945" lon="5.59935">
        <ele>870.4</ele>
        <time>2026-05-12T14:01:00Z</time>
      </trkpt>
      <trkpt lat="45.91947" lon="5.59934">
        <ele>870.4</ele>
        <time>2026-05-12T14:01:01Z</time>
      </trkpt>
      <trkpt lat="45.91949" lon="5.59934">
        <ele>870.8</ele>
        <time>2026-05-12T14:01:02Z</time>
      </trkpt>
      <trkpt lat="45.91951" lon="5.59933">
        <ele>870.8</ele>
        <time>2026-05-12T14:01:03Z</time>
      </trkpt>
      <trkpt lat="45.91953" lon="5.59932">
        <ele>871</ele>
        <time>2026-05-12T14:01:04Z</time>
      </trkpt>
      <trkpt lat="45.91955" lon="5.59932">
        <ele>870.8</ele>
        <time>2026-05-12T14:01:05Z</time>
      </trkpt>
      <trkpt lat="45.91957" lon="5.59931">
        <ele>870.8</ele>
        <time>2026-05-12T14:01:06Z</time>
      </trkpt>
      <trkpt lat="45.91959" lon="5.59931">
        <ele>870.8</ele>
        <time>2026-05-12T14:01:07Z</time>
      </trkpt>
      <trkpt lat="45.91962" lon="5.59931">
        <ele>871</ele>
        <time>2026-05-12T14:01:08Z</time>
      </trkpt>
      <trkpt lat="45.91964" lon="5.5993">
        <ele>871</ele>
        <time>2026-05-12T14:01:09Z</time>
      </trkpt>
      <trkpt lat="45.91965" lon="5.5993">
        <ele>871</ele>
        <time>2026-05-12T14:01:10Z</time>
      </trkpt>
      <trkpt lat="45.91967" lon="5.59929">
        <ele>871</ele>
        <time>2026-05-12T14:01:11Z</time>
      </trkpt>
      <trkpt lat="45.91969" lon="5.59928">
        <ele>870.6</ele>
        <time>2026-05-12T14:01:12Z</time>
      </trkpt>
      <trkpt lat="45.91971" lon="5.59928">
        <ele>871</ele>
        <time>2026-05-12T14:01:13Z</time>
      </trkpt>
      <trkpt lat="45.91973" lon="5.59928">
        <ele>871</ele>
        <time>2026-05-12T14:01:14Z</time>
      </trkpt>
      <trkpt lat="45.91974" lon="5.59928">
        <ele>871</ele>
        <time>2026-05-12T14:01:15Z</time>
      </trkpt>
      <trkpt lat="45.91976" lon="5.59928">
        <ele>871.2</ele>
        <time>2026-05-12T14:01:16Z</time>
      </trkpt>
      <trkpt lat="45.91979" lon="5.59927">
        <ele>871.2</ele>
        <time>2026-05-12T14:01:17Z</time>
      </trkpt>
      <trkpt lat="45.9198" lon="5.59926">
        <ele>871.8</ele>
        <time>2026-05-12T14:01:18Z</time>
      </trkpt>
      <trkpt lat="45.91981" lon="5.59925">
        <ele>871.8</ele>
        <time>2026-05-12T14:01:19Z</time>
      </trkpt>
      <trkpt lat="45.91982" lon="5.59924">
        <ele>871.8</ele>
        <time>2026-05-12T14:01:20Z</time>
      </trkpt>
      <trkpt lat="45.91984" lon="5.59922">
        <ele>872</ele>
        <time>2026-05-12T14:01:21Z</time>
      </trkpt>
      <trkpt lat="45.91985" lon="5.59921">
        <ele>872</ele>
        <time>2026-05-12T14:01:22Z</time>
      </trkpt>
      <trkpt lat="45.91987" lon="5.5992">
        <ele>872</ele>
        <time>2026-05-12T14:01:23Z</time>
      </trkpt>
      <trkpt lat="45.91989" lon="5.59919">
        <ele>872</ele>
        <time>2026-05-12T14:01:24Z</time>
      </trkpt>
      <trkpt lat="45.91991" lon="5.59919">
        <ele>872</ele>
        <time>2026-05-12T14:01:25Z</time>
      </trkpt>
      <trkpt lat="45.91993" lon="5.59919">
        <ele>872</ele>
        <time>2026-05-12T14:01:26Z</time>
      </trkpt>
      <trkpt lat="45.91994" lon="5.5992">
        <ele>871.8</ele>
        <time>2026-05-12T14:01:27Z</time>
      </trkpt>
      <trkpt lat="45.91996" lon="5.5992">
        <ele>872</ele>
        <time>2026-05-12T14:01:28Z</time>
      </trkpt>
      <trkpt lat="45.91997" lon="5.59919">
        <ele>872.2</ele>
        <time>2026-05-12T14:01:29Z</time>
      </trkpt>
      <trkpt lat="45.91998" lon="5.59919">
        <ele>872.2</ele>
        <time>2026-05-12T14:01:30Z</time>
      </trkpt>
      <trkpt lat="45.92" lon="5.59918">
        <ele>872.2</ele>
        <time>2026-05-12T14:01:31Z</time>
      </trkpt>
      <trkpt lat="45.92002" lon="5.59918">
        <ele>872.6</ele>
        <time>2026-05-12T14:01:32Z</time>
      </trkpt>
      <trkpt lat="45.92004" lon="5.59918">
        <ele>872.6</ele>
        <time>2026-05-12T14:01:33Z</time>
      </trkpt>
      <trkpt lat="45.92006" lon="5.59917">
        <ele>872.6</ele>
        <time>2026-05-12T14:01:34Z</time>
      </trkpt>
      <trkpt lat="45.92009" lon="5.59916">
        <ele>872.6</ele>
        <time>2026-05-12T14:01:35Z</time>
      </trkpt>
      <trkpt lat="45.92011" lon="5.59916">
        <ele>872.6</ele>
        <time>2026-05-12T14:01:36Z</time>
      </trkpt>
      <trkpt lat="45.92013" lon="5.59915">
        <ele>872.6</ele>
        <time>2026-05-12T14:01:37Z</time>
      </trkpt>
      <trkpt lat="45.92016" lon="5.59914">
        <ele>872.8</ele>
        <time>2026-05-12T14:01:38Z</time>
      </trkpt>
      <trkpt lat="45.92018" lon="5.59913">
        <ele>872.8</ele>
        <time>2026-05-12T14:01:39Z</time>
      </trkpt>
      <trkpt lat="45.9202" lon="5.59912">
        <ele>872.8</ele>
        <time>2026-05-12T14:01:40Z</time>
      </trkpt>
      <trkpt lat="45.92022" lon="5.59911">
        <ele>872.8</ele>
        <time>2026-05-12T14:01:41Z</time>
      </trkpt>
      <trkpt lat="45.92025" lon="5.59911">
        <ele>872.8</ele>
        <time>2026-05-12T14:01:42Z</time>
      </trkpt>
      <trkpt lat="45.92026" lon="5.59911">
        <ele>873.2</ele>
        <time>2026-05-12T14:01:43Z</time>
      </trkpt>
      <trkpt lat="45.92028" lon="5.5991">
        <ele>873.2</ele>
        <time>2026-05-12T14:01:44Z</time>
      </trkpt>
      <trkpt lat="45.9203" lon="5.59909">
        <ele>873.2</ele>
        <time>2026-05-12T14:01:45Z</time>
      </trkpt>
      <trkpt lat="45.92031" lon="5.59908">
        <ele>873.2</ele>
        <time>2026-05-12T14:01:46Z</time>
      </trkpt>
      <trkpt lat="45.92033" lon="5.59907">
        <ele>873.2</ele>
        <time>2026-05-12T14:01:47Z</time>
      </trkpt>
      <trkpt lat="45.92035" lon="5.59906">
        <ele>873.2</ele>
        <time>2026-05-12T14:01:48Z</time>
      </trkpt>
      <trkpt lat="45.92037" lon="5.59906">
        <ele>873.2</ele>
        <time>2026-05-12T14:01:49Z</time>
      </trkpt>
      <trkpt lat="45.92039" lon="5.59905">
        <ele>873.4</ele>
        <time>2026-05-12T14:01:50Z</time>
      </trkpt>
      <trkpt lat="45.9204" lon="5.59905">
        <ele>873.4</ele>
        <time>2026-05-12T14:01:51Z</time>
      </trkpt>
      <trkpt lat="45.92041" lon="5.59904">
        <ele>873.4</ele>
        <time>2026-05-12T14:01:52Z</time>
      </trkpt>
      <trkpt lat="45.92042" lon="5.59903">
        <ele>873.4</ele>
        <time>2026-05-12T14:01:53Z</time>
      </trkpt>
      <trkpt lat="45.92043" lon="5.59902">
        <ele>873.4</ele>
        <time>2026-05-12T14:01:54Z</time>
      </trkpt>
      <trkpt lat="45.92044" lon="5.599">
        <ele>873.4</ele>
        <time>2026-05-12T14:01:55Z</time>
      </trkpt>
      <trkpt lat="45.92047" lon="5.59899">
        <ele>873.4</ele>
        <time>2026-05-12T14:01:56Z</time>
      </trkpt>
      <trkpt lat="45.92049" lon="5.59898">
        <ele>873.4</ele>
        <time>2026-05-12T14:01:57Z</time>
      </trkpt>
      <trkpt lat="45.92051" lon="5.59898">
        <ele>873.4</ele>
        <time>2026-05-12T14:01:58Z</time>
      </trkpt>
      <trkpt lat="45.92053" lon="5.59897">
        <ele>873.4</ele>
        <time>2026-05-12T14:01:59Z</time>
      </trkpt>
      <trkpt lat="45.92055" lon="5.59896">
        <ele>873.4</ele>
        <time>2026-05-12T14:02:00Z</time>
      </trkpt>
      <trkpt lat="45.92056" lon="5.59895">
        <ele>873.4</ele>
        <time>2026-05-12T14:02:01Z</time>
      </trkpt>
      <trkpt lat="45.92058" lon="5.59894">
        <ele>873.4</ele>
        <time>2026-05-12T14:02:02Z</time>
      </trkpt>
      <trkpt lat="45.92061" lon="5.59893">
        <ele>873.4</ele>
        <time>2026-05-12T14:02:03Z</time>
      </trkpt>
      <trkpt lat="45.92064" lon="5.59892">
        <ele>873.4</ele>
        <time>2026-05-12T14:02:04Z</time>
      </trkpt>
      <trkpt lat="45.92066" lon="5.59891">
        <ele>873.4</ele>
        <time>2026-05-12T14:02:05Z</time>
      </trkpt>
      <trkpt lat="45.92068" lon="5.5989">
        <ele>873.4</ele>
        <time>2026-05-12T14:02:06Z</time>
      </trkpt>
      <trkpt lat="45.9207" lon="5.59889">
        <ele>873.4</ele>
        <time>2026-05-12T14:02:07Z</time>
      </trkpt>
      <trkpt lat="45.92073" lon="5.59888">
        <ele>873.6</ele>
        <time>2026-05-12T14:02:08Z</time>
      </trkpt>
      <trkpt lat="45.92075" lon="5.59887">
        <ele>873.6</ele>
        <time>2026-05-12T14:02:09Z</time>
      </trkpt>
      <trkpt lat="45.92077" lon="5.59886">
        <ele>873.6</ele>
        <time>2026-05-12T14:02:10Z</time>
      </trkpt>
      <trkpt lat="45.92079" lon="5.59885">
        <ele>873.6</ele>
        <time>2026-05-12T14:02:11Z</time>
      </trkpt>
      <trkpt lat="45.92081" lon="5.59883">
        <ele>873.6</ele>
        <time>2026-05-12T14:02:12Z</time>
      </trkpt>
      <trkpt lat="45.92082" lon="5.59882">
        <ele>873.8</ele>
        <time>2026-05-12T14:02:13Z</time>
      </trkpt>
      <trkpt lat="45.92084" lon="5.59881">
        <ele>874</ele>
        <time>2026-05-12T14:02:14Z</time>
      </trkpt>
      <trkpt lat="45.92086" lon="5.59879">
        <ele>874</ele>
        <time>2026-05-12T14:02:15Z</time>
      </trkpt>
      <trkpt lat="45.92087" lon="5.59878">
        <ele>874</ele>
        <time>2026-05-12T14:02:16Z</time>
      </trkpt>
      <trkpt lat="45.92088" lon="5.59878">
        <ele>874.4</ele>
        <time>2026-05-12T14:02:17Z</time>
      </trkpt>
      <trkpt lat="45.9209" lon="5.59877">
        <ele>874.4</ele>
        <time>2026-05-12T14:02:18Z</time>
      </trkpt>
      <trkpt lat="45.92092" lon="5.59876">
        <ele>874.6</ele>
        <time>2026-05-12T14:02:19Z</time>
      </trkpt>
      <trkpt lat="45.92093" lon="5.59875">
        <ele>874.6</ele>
        <time>2026-05-12T14:02:20Z</time>
      </trkpt>
      <trkpt lat="45.92095" lon="5.59874">
        <ele>874.6</ele>
        <time>2026-05-12T14:02:21Z</time>
      </trkpt>
      <trkpt lat="45.92097" lon="5.59872">
        <ele>874.6</ele>
        <time>2026-05-12T14:02:22Z</time>
      </trkpt>
      <trkpt lat="45.92098" lon="5.59871">
        <ele>874.6</ele>
        <time>2026-05-12T14:02:23Z</time>
      </trkpt>
      <trkpt lat="45.92101" lon="5.5987">
        <ele>874.6</ele>
        <time>2026-05-12T14:02:24Z</time>
      </trkpt>
      <trkpt lat="45.92103" lon="5.5987">
        <ele>874.6</ele>
        <time>2026-05-12T14:02:25Z</time>
      </trkpt>
      <trkpt lat="45.92104" lon="5.59869">
        <ele>874.6</ele>
        <time>2026-05-12T14:02:26Z</time>
      </trkpt>
      <trkpt lat="45.92106" lon="5.59867">
        <ele>874.6</ele>
        <time>2026-05-12T14:02:27Z</time>
      </trkpt>
      <trkpt lat="45.92108" lon="5.59865">
        <ele>874.6</ele>
        <time>2026-05-12T14:02:28Z</time>
      </trkpt>
      <trkpt lat="45.9211" lon="5.59863">
        <ele>874.6</ele>
        <time>2026-05-12T14:02:29Z</time>
      </trkpt>
      <trkpt lat="45.92112" lon="5.59861">
        <ele>874.6</ele>
        <time>2026-05-12T14:02:30Z</time>
      </trkpt>
      <trkpt lat="45.92115" lon="5.59859">
        <ele>874.6</ele>
        <time>2026-05-12T14:02:31Z</time>
      </trkpt>
      <trkpt lat="45.92118" lon="5.59858">
        <ele>875</ele>
        <time>2026-05-12T14:02:32Z</time>
      </trkpt>
      <trkpt lat="45.9212" lon="5.59856">
        <ele>875</ele>
        <time>2026-05-12T14:02:33Z</time>
      </trkpt>
      <trkpt lat="45.92122" lon="5.59854">
        <ele>875</ele>
        <time>2026-05-12T14:02:34Z</time>
      </trkpt>
      <trkpt lat="45.92123" lon="5.59851">
        <ele>874.6</ele>
        <time>2026-05-12T14:02:35Z</time>
      </trkpt>
      <trkpt lat="45.92126" lon="5.59849">
        <ele>874.6</ele>
        <time>2026-05-12T14:02:36Z</time>
      </trkpt>
      <trkpt lat="45.92128" lon="5.59846">
        <ele>874.6</ele>
        <time>2026-05-12T14:02:37Z</time>
      </trkpt>
      <trkpt lat="45.9213" lon="5.59845">
        <ele>875</ele>
        <time>2026-05-12T14:02:38Z</time>
      </trkpt>
      <trkpt lat="45.92132" lon="5.59843">
        <ele>875</ele>
        <time>2026-05-12T14:02:39Z</time>
      </trkpt>
      <trkpt lat="45.92135" lon="5.59842">
        <ele>875</ele>
        <time>2026-05-12T14:02:40Z</time>
      </trkpt>
      <trkpt lat="45.92138" lon="5.59841">
        <ele>875</ele>
        <time>2026-05-12T14:02:41Z</time>
      </trkpt>
      <trkpt lat="45.9214" lon="5.5984">
        <ele>875</ele>
        <time>2026-05-12T14:02:42Z</time>
      </trkpt>
      <trkpt lat="45.92143" lon="5.59838">
        <ele>875</ele>
        <time>2026-05-12T14:02:43Z</time>
      </trkpt>
      <trkpt lat="45.92145" lon="5.59835">
        <ele>875.2</ele>
        <time>2026-05-12T14:02:44Z</time>
      </trkpt>
      <trkpt lat="45.92146" lon="5.59833">
        <ele>875.2</ele>
        <time>2026-05-12T14:02:45Z</time>
      </trkpt>
      <trkpt lat="45.92149" lon="5.59832">
        <ele>875.2</ele>
        <time>2026-05-12T14:02:46Z</time>
      </trkpt>
      <trkpt lat="45.92151" lon="5.5983">
        <ele>875.2</ele>
        <time>2026-05-12T14:02:47Z</time>
      </trkpt>
      <trkpt lat="45.92153" lon="5.59829">
        <ele>875.2</ele>
        <time>2026-05-12T14:02:48Z</time>
      </trkpt>
      <trkpt lat="45.92155" lon="5.59828">
        <ele>875.2</ele>
        <time>2026-05-12T14:02:49Z</time>
      </trkpt>
      <trkpt lat="45.92156" lon="5.59826">
        <ele>875.4</ele>
        <time>2026-05-12T14:02:50Z</time>
      </trkpt>
      <trkpt lat="45.92158" lon="5.59825">
        <ele>875.4</ele>
        <time>2026-05-12T14:02:51Z</time>
      </trkpt>
      <trkpt lat="45.9216" lon="5.59824">
        <ele>875.8</ele>
        <time>2026-05-12T14:02:52Z</time>
      </trkpt>
      <trkpt lat="45.92162" lon="5.59822">
        <ele>875.8</ele>
        <time>2026-05-12T14:02:53Z</time>
      </trkpt>
      <trkpt lat="45.92164" lon="5.59821">
        <ele>875.8</ele>
        <time>2026-05-12T14:02:54Z</time>
      </trkpt>
      <trkpt lat="45.92166" lon="5.5982">
        <ele>875.8</ele>
        <time>2026-05-12T14:02:55Z</time>
      </trkpt>
      <trkpt lat="45.92169" lon="5.5982">
        <ele>876</ele>
        <time>2026-05-12T14:02:56Z</time>
      </trkpt>
      <trkpt lat="45.92171" lon="5.59819">
        <ele>876</ele>
        <time>2026-05-12T14:02:57Z</time>
      </trkpt>
      <trkpt lat="45.92173" lon="5.59818">
        <ele>876</ele>
        <time>2026-05-12T14:02:58Z</time>
      </trkpt>
      <trkpt lat="45.92174" lon="5.59818">
        <ele>876</ele>
        <time>2026-05-12T14:02:59Z</time>
      </trkpt>
      <trkpt lat="45.92175" lon="5.59817">
        <ele>876.6</ele>
        <time>2026-05-12T14:03:00Z</time>
      </trkpt>
      <trkpt lat="45.92176" lon="5.59815">
        <ele>876.6</ele>
        <time>2026-05-12T14:03:01Z</time>
      </trkpt>
      <trkpt lat="45.92178" lon="5.59812">
        <ele>876.8</ele>
        <time>2026-05-12T14:03:02Z</time>
      </trkpt>
      <trkpt lat="45.9218" lon="5.59809">
        <ele>876.8</ele>
        <time>2026-05-12T14:03:03Z</time>
      </trkpt>
      <trkpt lat="45.92181" lon="5.59808">
        <ele>877.2</ele>
        <time>2026-05-12T14:03:04Z</time>
      </trkpt>
      <trkpt lat="45.92182" lon="5.59806">
        <ele>877.4</ele>
        <time>2026-05-12T14:03:05Z</time>
      </trkpt>
      <trkpt lat="45.92183" lon="5.59805">
        <ele>877.8</ele>
        <time>2026-05-12T14:03:06Z</time>
      </trkpt>
      <trkpt lat="45.92184" lon="5.59803">
        <ele>878</ele>
        <time>2026-05-12T14:03:07Z</time>
      </trkpt>
      <trkpt lat="45.92185" lon="5.59802">
        <ele>878</ele>
        <time>2026-05-12T14:03:08Z</time>
      </trkpt>
      <trkpt lat="45.92186" lon="5.59801">
        <ele>878.2</ele>
        <time>2026-05-12T14:03:09Z</time>
      </trkpt>
      <trkpt lat="45.92188" lon="5.598">
        <ele>878.6</ele>
        <time>2026-05-12T14:03:10Z</time>
      </trkpt>
      <trkpt lat="45.92189" lon="5.59799">
        <ele>878.6</ele>
        <time>2026-05-12T14:03:11Z</time>
      </trkpt>
      <trkpt lat="45.92191" lon="5.59799">
        <ele>878.6</ele>
        <time>2026-05-12T14:03:12Z</time>
      </trkpt>
      <trkpt lat="45.92193" lon="5.59799">
        <ele>879</ele>
        <time>2026-05-12T14:03:13Z</time>
      </trkpt>
      <trkpt lat="45.92196" lon="5.59798">
        <ele>879.2</ele>
        <time>2026-05-12T14:03:14Z</time>
      </trkpt>
      <trkpt lat="45.92198" lon="5.59797">
        <ele>879.4</ele>
        <time>2026-05-12T14:03:15Z</time>
      </trkpt>
      <trkpt lat="45.92199" lon="5.59795">
        <ele>879.4</ele>
        <time>2026-05-12T14:03:16Z</time>
      </trkpt>
      <trkpt lat="45.922" lon="5.59794">
        <ele>879.8</ele>
        <time>2026-05-12T14:03:17Z</time>
      </trkpt>
      <trkpt lat="45.92202" lon="5.59793">
        <ele>880</ele>
        <time>2026-05-12T14:03:18Z</time>
      </trkpt>
      <trkpt lat="45.92204" lon="5.59792">
        <ele>880.4</ele>
        <time>2026-05-12T14:03:19Z</time>
      </trkpt>
      <trkpt lat="45.92206" lon="5.59792">
        <ele>880.4</ele>
        <time>2026-05-12T14:03:20Z</time>
      </trkpt>
      <trkpt lat="45.92208" lon="5.59792">
        <ele>880.4</ele>
        <time>2026-05-12T14:03:21Z</time>
      </trkpt>
      <trkpt lat="45.92211" lon="5.5979">
        <ele>880.4</ele>
        <time>2026-05-12T14:03:22Z</time>
      </trkpt>
      <trkpt lat="45.92212" lon="5.59789">
        <ele>880.4</ele>
        <time>2026-05-12T14:03:23Z</time>
      </trkpt>
      <trkpt lat="45.92214" lon="5.59788">
        <ele>880.4</ele>
        <time>2026-05-12T14:03:24Z</time>
      </trkpt>
      <trkpt lat="45.92215" lon="5.59786">
        <ele>880.4</ele>
        <time>2026-05-12T14:03:25Z</time>
      </trkpt>
      <trkpt lat="45.92216" lon="5.59785">
        <ele>880.8</ele>
        <time>2026-05-12T14:03:26Z</time>
      </trkpt>
      <trkpt lat="45.92217" lon="5.59784">
        <ele>881.2</ele>
        <time>2026-05-12T14:03:27Z</time>
      </trkpt>
      <trkpt lat="45.92219" lon="5.59783">
        <ele>881.4</ele>
        <time>2026-05-12T14:03:28Z</time>
      </trkpt>
      <trkpt lat="45.92221" lon="5.59782">
        <ele>881.4</ele>
        <time>2026-05-12T14:03:29Z</time>
      </trkpt>
      <trkpt lat="45.92223" lon="5.59782">
        <ele>881.6</ele>
        <time>2026-05-12T14:03:30Z</time>
      </trkpt>
      <trkpt lat="45.92224" lon="5.5978">
        <ele>881.6</ele>
        <time>2026-05-12T14:03:31Z</time>
      </trkpt>
      <trkpt lat="45.92226" lon="5.59778">
        <ele>881.8</ele>
        <time>2026-05-12T14:03:32Z</time>
      </trkpt>
      <trkpt lat="45.92228" lon="5.59777">
        <ele>881.8</ele>
        <time>2026-05-12T14:03:33Z</time>
      </trkpt>
      <trkpt lat="45.92229" lon="5.59776">
        <ele>882.2</ele>
        <time>2026-05-12T14:03:34Z</time>
      </trkpt>
      <trkpt lat="45.9223" lon="5.59776">
        <ele>882.4</ele>
        <time>2026-05-12T14:03:35Z</time>
      </trkpt>
      <trkpt lat="45.92232" lon="5.59775">
        <ele>882.4</ele>
        <time>2026-05-12T14:03:36Z</time>
      </trkpt>
      <trkpt lat="45.92233" lon="5.59774">
        <ele>882.4</ele>
        <time>2026-05-12T14:03:37Z</time>
      </trkpt>
      <trkpt lat="45.92235" lon="5.59773">
        <ele>882.4</ele>
        <time>2026-05-12T14:03:38Z</time>
      </trkpt>
      <trkpt lat="45.92236" lon="5.59772">
        <ele>882.6</ele>
        <time>2026-05-12T14:03:39Z</time>
      </trkpt>
      <trkpt lat="45.92238" lon="5.59771">
        <ele>882.8</ele>
        <time>2026-05-12T14:03:40Z</time>
      </trkpt>
      <trkpt lat="45.9224" lon="5.5977">
        <ele>882.8</ele>
        <time>2026-05-12T14:03:41Z</time>
      </trkpt>
      <trkpt lat="45.92241" lon="5.59768">
        <ele>882.8</ele>
        <time>2026-05-12T14:03:42Z</time>
      </trkpt>
      <trkpt lat="45.92242" lon="5.59767">
        <ele>883.2</ele>
        <time>2026-05-12T14:03:43Z</time>
      </trkpt>
      <trkpt lat="45.92244" lon="5.59766">
        <ele>883.2</ele>
        <time>2026-05-12T14:03:44Z</time>
      </trkpt>
      <trkpt lat="45.92244" lon="5.59766">
        <ele>883.2</ele>
        <time>2026-05-12T14:03:45Z</time>
      </trkpt>
      <trkpt lat="45.92245" lon="5.59764">
        <ele>883.2</ele>
        <time>2026-05-12T14:03:46Z</time>
      </trkpt>
      <trkpt lat="45.92247" lon="5.59763">
        <ele>883.4</ele>
        <time>2026-05-12T14:03:47Z</time>
      </trkpt>
      <trkpt lat="45.92248" lon="5.59762">
        <ele>883.4</ele>
        <time>2026-05-12T14:03:48Z</time>
      </trkpt>
      <trkpt lat="45.92249" lon="5.59762">
        <ele>883.8</ele>
        <time>2026-05-12T14:03:49Z</time>
      </trkpt>
      <trkpt lat="45.9225" lon="5.59761">
        <ele>883.8</ele>
        <time>2026-05-12T14:03:50Z</time>
      </trkpt>
      <trkpt lat="45.92252" lon="5.5976">
        <ele>884</ele>
        <time>2026-05-12T14:03:51Z</time>
      </trkpt>
      <trkpt lat="45.92253" lon="5.59759">
        <ele>884</ele>
        <time>2026-05-12T14:03:52Z</time>
      </trkpt>
      <trkpt lat="45.92254" lon="5.59759">
        <ele>884</ele>
        <time>2026-05-12T14:03:53Z</time>
      </trkpt>
      <trkpt lat="45.92256" lon="5.59758">
        <ele>884.4</ele>
        <time>2026-05-12T14:03:54Z</time>
      </trkpt>
      <trkpt lat="45.92257" lon="5.59757">
        <ele>884.4</ele>
        <time>2026-05-12T14:03:55Z</time>
      </trkpt>
      <trkpt lat="45.92259" lon="5.59756">
        <ele>884.4</ele>
        <time>2026-05-12T14:03:56Z</time>
      </trkpt>
      <trkpt lat="45.9226" lon="5.59755">
        <ele>884.6</ele>
        <time>2026-05-12T14:03:57Z</time>
      </trkpt>
      <trkpt lat="45.92261" lon="5.59755">
        <ele>884.6</ele>
        <time>2026-05-12T14:03:58Z</time>
      </trkpt>
      <trkpt lat="45.92261" lon="5.59754">
        <ele>884.6</ele>
        <time>2026-05-12T14:03:59Z</time>
      </trkpt>
      <trkpt lat="45.92262" lon="5.59754">
        <ele>884.8</ele>
        <time>2026-05-12T14:04:17Z</time>
      </trkpt>
      <trkpt lat="45.92263" lon="5.59753">
        <ele>884.8</ele>
        <time>2026-05-12T14:04:18Z</time>
      </trkpt>
      <trkpt lat="45.92264" lon="5.59752">
        <ele>884.8</ele>
        <time>2026-05-12T14:04:19Z</time>
      </trkpt>
      <trkpt lat="45.92265" lon="5.59751">
        <ele>884.8</ele>
        <time>2026-05-12T14:04:20Z</time>
      </trkpt>
      <trkpt lat="45.92267" lon="5.59751">
        <ele>884.8</ele>
        <time>2026-05-12T14:04:21Z</time>
      </trkpt>
      <trkpt lat="45.92269" lon="5.5975">
        <ele>884.8</ele>
        <time>2026-05-12T14:04:22Z</time>
      </trkpt>
      <trkpt lat="45.9227" lon="5.5975">
        <ele>884.8</ele>
        <time>2026-05-12T14:04:23Z</time>
      </trkpt>
      <trkpt lat="45.92272" lon="5.59749">
        <ele>885</ele>
        <time>2026-05-12T14:04:24Z</time>
      </trkpt>
      <trkpt lat="45.92273" lon="5.59749">
        <ele>885</ele>
        <time>2026-05-12T14:04:25Z</time>
      </trkpt>
      <trkpt lat="45.92274" lon="5.59747">
        <ele>885</ele>
        <time>2026-05-12T14:04:26Z</time>
      </trkpt>
      <trkpt lat="45.92276" lon="5.59746">
        <ele>885.4</ele>
        <time>2026-05-12T14:04:27Z</time>
      </trkpt>
      <trkpt lat="45.92278" lon="5.59745">
        <ele>885.4</ele>
        <time>2026-05-12T14:04:28Z</time>
      </trkpt>
      <trkpt lat="45.9228" lon="5.59744">
        <ele>885.4</ele>
        <time>2026-05-12T14:04:29Z</time>
      </trkpt>
      <trkpt lat="45.92282" lon="5.59744">
        <ele>886</ele>
        <time>2026-05-12T14:04:30Z</time>
      </trkpt>
      <trkpt lat="45.92284" lon="5.59743">
        <ele>886</ele>
        <time>2026-05-12T14:04:31Z</time>
      </trkpt>
      <trkpt lat="45.92285" lon="5.59743">
        <ele>886.2</ele>
        <time>2026-05-12T14:04:32Z</time>
      </trkpt>
      <trkpt lat="45.92286" lon="5.59743">
        <ele>886.2</ele>
        <time>2026-05-12T14:04:33Z</time>
      </trkpt>
      <trkpt lat="45.92287" lon="5.59742">
        <ele>886.4</ele>
        <time>2026-05-12T14:04:34Z</time>
      </trkpt>
      <trkpt lat="45.92289" lon="5.59741">
        <ele>886.2</ele>
        <time>2026-05-12T14:04:35Z</time>
      </trkpt>
      <trkpt lat="45.9229" lon="5.5974">
        <ele>886.4</ele>
        <time>2026-05-12T14:04:36Z</time>
      </trkpt>
      <trkpt lat="45.92291" lon="5.59739">
        <ele>886.4</ele>
        <time>2026-05-12T14:04:37Z</time>
      </trkpt>
      <trkpt lat="45.92293" lon="5.59738">
        <ele>886.4</ele>
        <time>2026-05-12T14:04:38Z</time>
      </trkpt>
      <trkpt lat="45.92295" lon="5.59737">
        <ele>886.4</ele>
        <time>2026-05-12T14:04:39Z</time>
      </trkpt>
      <trkpt lat="45.92297" lon="5.59736">
        <ele>886.8</ele>
        <time>2026-05-12T14:04:40Z</time>
      </trkpt>
      <trkpt lat="45.92299" lon="5.59735">
        <ele>886.8</ele>
        <time>2026-05-12T14:04:41Z</time>
      </trkpt>
      <trkpt lat="45.92301" lon="5.59734">
        <ele>887.4</ele>
        <time>2026-05-12T14:04:42Z</time>
      </trkpt>
      <trkpt lat="45.92303" lon="5.59733">
        <ele>887.4</ele>
        <time>2026-05-12T14:04:43Z</time>
      </trkpt>
      <trkpt lat="45.92305" lon="5.59732">
        <ele>887.4</ele>
        <time>2026-05-12T14:04:44Z</time>
      </trkpt>
      <trkpt lat="45.92307" lon="5.59732">
        <ele>887.6</ele>
        <time>2026-05-12T14:04:45Z</time>
      </trkpt>
      <trkpt lat="45.92309" lon="5.59731">
        <ele>887.6</ele>
        <time>2026-05-12T14:04:46Z</time>
      </trkpt>
      <trkpt lat="45.92311" lon="5.59731">
        <ele>887.6</ele>
        <time>2026-05-12T14:04:47Z</time>
      </trkpt>
      <trkpt lat="45.92313" lon="5.5973">
        <ele>888</ele>
        <time>2026-05-12T14:04:48Z</time>
      </trkpt>
      <trkpt lat="45.92315" lon="5.59729">
        <ele>888</ele>
        <time>2026-05-12T14:04:49Z</time>
      </trkpt>
      <trkpt lat="45.92316" lon="5.59728">
        <ele>888</ele>
        <time>2026-05-12T14:04:50Z</time>
      </trkpt>
      <trkpt lat="45.92318" lon="5.59727">
        <ele>888.2</ele>
        <time>2026-05-12T14:04:51Z</time>
      </trkpt>
      <trkpt lat="45.92319" lon="5.59726">
        <ele>888.2</ele>
        <time>2026-05-12T14:04:52Z</time>
      </trkpt>
      <trkpt lat="45.92321" lon="5.59726">
        <ele>888.2</ele>
        <time>2026-05-12T14:04:53Z</time>
      </trkpt>
      <trkpt lat="45.92322" lon="5.59725">
        <ele>888.2</ele>
        <time>2026-05-12T14:04:54Z</time>
      </trkpt>
      <trkpt lat="45.92323" lon="5.59725">
        <ele>888.2</ele>
        <time>2026-05-12T14:04:55Z</time>
      </trkpt>
      <trkpt lat="45.92324" lon="5.59724">
        <ele>888.4</ele>
        <time>2026-05-12T14:04:56Z</time>
      </trkpt>
      <trkpt lat="45.92324" lon="5.59724">
        <ele>888.4</ele>
        <time>2026-05-12T14:04:57Z</time>
      </trkpt>
      <trkpt lat="45.92325" lon="5.59727">
        <ele>889.2</ele>
        <time>2026-05-12T14:06:32Z</time>
      </trkpt>
      <trkpt lat="45.92326" lon="5.59727">
        <ele>889.2</ele>
        <time>2026-05-12T14:06:33Z</time>
      </trkpt>
      <trkpt lat="45.92328" lon="5.59726">
        <ele>889.2</ele>
        <time>2026-05-12T14:06:34Z</time>
      </trkpt>
      <trkpt lat="45.9233" lon="5.59725">
        <ele>889.2</ele>
        <time>2026-05-12T14:06:35Z</time>
      </trkpt>
      <trkpt lat="45.92332" lon="5.59724">
        <ele>889.2</ele>
        <time>2026-05-12T14:06:36Z</time>
      </trkpt>
      <trkpt lat="45.92334" lon="5.59723">
        <ele>889.2</ele>
        <time>2026-05-12T14:06:37Z</time>
      </trkpt>
      <trkpt lat="45.92336" lon="5.59722">
        <ele>889</ele>
        <time>2026-05-12T14:06:38Z</time>
      </trkpt>
      <trkpt lat="45.92338" lon="5.59722">
        <ele>889</ele>
        <time>2026-05-12T14:06:39Z</time>
      </trkpt>
      <trkpt lat="45.9234" lon="5.59721">
        <ele>889</ele>
        <time>2026-05-12T14:06:40Z</time>
      </trkpt>
      <trkpt lat="45.92341" lon="5.59719">
        <ele>889</ele>
        <time>2026-05-12T14:06:41Z</time>
      </trkpt>
      <trkpt lat="45.92343" lon="5.59718">
        <ele>889</ele>
        <time>2026-05-12T14:06:42Z</time>
      </trkpt>
      <trkpt lat="45.92345" lon="5.59717">
        <ele>889</ele>
        <time>2026-05-12T14:06:43Z</time>
      </trkpt>
      <trkpt lat="45.92346" lon="5.59716">
        <ele>889.2</ele>
        <time>2026-05-12T14:06:44Z</time>
      </trkpt>
      <trkpt lat="45.92348" lon="5.59715">
        <ele>889.2</ele>
        <time>2026-05-12T14:06:45Z</time>
      </trkpt>
      <trkpt lat="45.9235" lon="5.59714">
        <ele>889.2</ele>
        <time>2026-05-12T14:06:46Z</time>
      </trkpt>
      <trkpt lat="45.92351" lon="5.59713">
        <ele>889.2</ele>
        <time>2026-05-12T14:06:47Z</time>
      </trkpt>
      <trkpt lat="45.92353" lon="5.59712">
        <ele>889.4</ele>
        <time>2026-05-12T14:06:48Z</time>
      </trkpt>
      <trkpt lat="45.92355" lon="5.59711">
        <ele>889.4</ele>
        <time>2026-05-12T14:06:49Z</time>
      </trkpt>
      <trkpt lat="45.92357" lon="5.59709">
        <ele>889.4</ele>
        <time>2026-05-12T14:06:50Z</time>
      </trkpt>
      <trkpt lat="45.92359" lon="5.59708">
        <ele>889.4</ele>
        <time>2026-05-12T14:06:51Z</time>
      </trkpt>
      <trkpt lat="45.92361" lon="5.59707">
        <ele>889.4</ele>
        <time>2026-05-12T14:06:52Z</time>
      </trkpt>
      <trkpt lat="45.92363" lon="5.59705">
        <ele>889.4</ele>
        <time>2026-05-12T14:06:53Z</time>
      </trkpt>
      <trkpt lat="45.92365" lon="5.59704">
        <ele>889.4</ele>
        <time>2026-05-12T14:06:54Z</time>
      </trkpt>
      <trkpt lat="45.92367" lon="5.59703">
        <ele>889.4</ele>
        <time>2026-05-12T14:06:55Z</time>
      </trkpt>
      <trkpt lat="45.92369" lon="5.59702">
        <ele>889.4</ele>
        <time>2026-05-12T14:06:56Z</time>
      </trkpt>
      <trkpt lat="45.9237" lon="5.59702">
        <ele>889.4</ele>
        <time>2026-05-12T14:06:57Z</time>
      </trkpt>
      <trkpt lat="45.92372" lon="5.59701">
        <ele>889.4</ele>
        <time>2026-05-12T14:06:58Z</time>
      </trkpt>
      <trkpt lat="45.92374" lon="5.59699">
        <ele>889.4</ele>
        <time>2026-05-12T14:06:59Z</time>
      </trkpt>
      <trkpt lat="45.92375" lon="5.59697">
        <ele>889.4</ele>
        <time>2026-05-12T14:07:00Z</time>
      </trkpt>
      <trkpt lat="45.9238" lon="5.59694">
        <ele>889.4</ele>
        <time>2026-05-12T14:07:01Z</time>
      </trkpt>
      <trkpt lat="45.92382" lon="5.59693">
        <ele>889.4</ele>
        <time>2026-05-12T14:07:02Z</time>
      </trkpt>
      <trkpt lat="45.92385" lon="5.59691">
        <ele>889.2</ele>
        <time>2026-05-12T14:07:03Z</time>
      </trkpt>
      <trkpt lat="45.92388" lon="5.59691">
        <ele>889.2</ele>
        <time>2026-05-12T14:07:04Z</time>
      </trkpt>
      <trkpt lat="45.92391" lon="5.5969">
        <ele>888.8</ele>
        <time>2026-05-12T14:07:05Z</time>
      </trkpt>
      <trkpt lat="45.92394" lon="5.59689">
        <ele>888.8</ele>
        <time>2026-05-12T14:07:06Z</time>
      </trkpt>
      <trkpt lat="45.92397" lon="5.59688">
        <ele>888.8</ele>
        <time>2026-05-12T14:07:07Z</time>
      </trkpt>
      <trkpt lat="45.924" lon="5.59687">
        <ele>888.8</ele>
        <time>2026-05-12T14:07:08Z</time>
      </trkpt>
      <trkpt lat="45.92404" lon="5.59686">
        <ele>888.8</ele>
        <time>2026-05-12T14:07:09Z</time>
      </trkpt>
      <trkpt lat="45.92407" lon="5.59685">
        <ele>888.8</ele>
        <time>2026-05-12T14:07:10Z</time>
      </trkpt>
      <trkpt lat="45.9241" lon="5.59685">
        <ele>888.8</ele>
        <time>2026-05-12T14:07:11Z</time>
      </trkpt>
      <trkpt lat="45.92413" lon="5.59684">
        <ele>888.6</ele>
        <time>2026-05-12T14:07:12Z</time>
      </trkpt>
      <trkpt lat="45.92417" lon="5.59683">
        <ele>888.6</ele>
        <time>2026-05-12T14:07:13Z</time>
      </trkpt>
      <trkpt lat="45.9242" lon="5.59682">
        <ele>888.6</ele>
        <time>2026-05-12T14:07:14Z</time>
      </trkpt>
      <trkpt lat="45.92424" lon="5.59681">
        <ele>888.4</ele>
        <time>2026-05-12T14:07:15Z</time>
      </trkpt>
      <trkpt lat="45.92427" lon="5.5968">
        <ele>888.4</ele>
        <time>2026-05-12T14:07:16Z</time>
      </trkpt>
      <trkpt lat="45.92431" lon="5.5968">
        <ele>887.8</ele>
        <time>2026-05-12T14:07:17Z</time>
      </trkpt>
      <trkpt lat="45.92435" lon="5.5968">
        <ele>887.4</ele>
        <time>2026-05-12T14:07:18Z</time>
      </trkpt>
      <trkpt lat="45.92439" lon="5.5968">
        <ele>887</ele>
        <time>2026-05-12T14:07:19Z</time>
      </trkpt>
      <trkpt lat="45.92443" lon="5.5968">
        <ele>886.8</ele>
        <time>2026-05-12T14:07:20Z</time>
      </trkpt>
      <trkpt lat="45.92447" lon="5.59681">
        <ele>886.8</ele>
        <time>2026-05-12T14:07:21Z</time>
      </trkpt>
      <trkpt lat="45.9245" lon="5.59681">
        <ele>886.8</ele>
        <time>2026-05-12T14:07:22Z</time>
      </trkpt>
      <trkpt lat="45.92454" lon="5.59681">
        <ele>886.8</ele>
        <time>2026-05-12T14:07:23Z</time>
      </trkpt>
      <trkpt lat="45.92457" lon="5.59681">
        <ele>886.4</ele>
        <time>2026-05-12T14:07:24Z</time>
      </trkpt>
      <trkpt lat="45.92461" lon="5.5968">
        <ele>886.2</ele>
        <time>2026-05-12T14:07:25Z</time>
      </trkpt>
      <trkpt lat="45.92465" lon="5.59679">
        <ele>886.6</ele>
        <time>2026-05-12T14:07:26Z</time>
      </trkpt>
      <trkpt lat="45.92469" lon="5.59679">
        <ele>886.6</ele>
        <time>2026-05-12T14:07:27Z</time>
      </trkpt>
      <trkpt lat="45.92474" lon="5.59679">
        <ele>886.6</ele>
        <time>2026-05-12T14:07:28Z</time>
      </trkpt>
      <trkpt lat="45.92478" lon="5.5968">
        <ele>886.6</ele>
        <time>2026-05-12T14:07:29Z</time>
      </trkpt>
      <trkpt lat="45.92483" lon="5.59681">
        <ele>886</ele>
        <time>2026-05-12T14:07:30Z</time>
      </trkpt>
      <trkpt lat="45.92486" lon="5.5968">
        <ele>886</ele>
        <time>2026-05-12T14:07:31Z</time>
      </trkpt>
      <trkpt lat="45.9249" lon="5.5968">
        <ele>886</ele>
        <time>2026-05-12T14:07:32Z</time>
      </trkpt>
      <trkpt lat="45.92495" lon="5.59679">
        <ele>885.6</ele>
        <time>2026-05-12T14:07:33Z</time>
      </trkpt>
      <trkpt lat="45.92499" lon="5.59678">
        <ele>885.6</ele>
        <time>2026-05-12T14:07:34Z</time>
      </trkpt>
      <trkpt lat="45.925" lon="5.59678">
        <ele>885.6</ele>
        <time>2026-05-12T14:07:35Z</time>
      </trkpt>
      <trkpt lat="45.92507" lon="5.59679">
        <ele>885.6</ele>
        <time>2026-05-12T14:07:36Z</time>
      </trkpt>
      <trkpt lat="45.92511" lon="5.59679">
        <ele>885.6</ele>
        <time>2026-05-12T14:07:37Z</time>
      </trkpt>
      <trkpt lat="45.92515" lon="5.59679">
        <ele>885</ele>
        <time>2026-05-12T14:07:38Z</time>
      </trkpt>
      <trkpt lat="45.92519" lon="5.5968">
        <ele>884.6</ele>
        <time>2026-05-12T14:07:39Z</time>
      </trkpt>
      <trkpt lat="45.92521" lon="5.59679">
        <ele>884.6</ele>
        <time>2026-05-12T14:07:40Z</time>
      </trkpt>
      <trkpt lat="45.92526" lon="5.59679">
        <ele>884.2</ele>
        <time>2026-05-12T14:07:41Z</time>
      </trkpt>
      <trkpt lat="45.92533" lon="5.59679">
        <ele>884.2</ele>
        <time>2026-05-12T14:07:42Z</time>
      </trkpt>
      <trkpt lat="45.92539" lon="5.59679">
        <ele>884</ele>
        <time>2026-05-12T14:07:43Z</time>
      </trkpt>
      <trkpt lat="45.92544" lon="5.5968">
        <ele>883.2</ele>
        <time>2026-05-12T14:07:44Z</time>
      </trkpt>
      <trkpt lat="45.92549" lon="5.59679">
        <ele>883.2</ele>
        <time>2026-05-12T14:07:45Z</time>
      </trkpt>
      <trkpt lat="45.92554" lon="5.59679">
        <ele>883.2</ele>
        <time>2026-05-12T14:07:46Z</time>
      </trkpt>
      <trkpt lat="45.92557" lon="5.59678">
        <ele>883.2</ele>
        <time>2026-05-12T14:07:47Z</time>
      </trkpt>
      <trkpt lat="45.92558" lon="5.59677">
        <ele>883.2</ele>
        <time>2026-05-12T14:07:48Z</time>
      </trkpt>
      <trkpt lat="45.9256" lon="5.59677">
        <ele>883.2</ele>
        <time>2026-05-12T14:07:49Z</time>
      </trkpt>
      <trkpt lat="45.92561" lon="5.59677">
        <ele>883.2</ele>
        <time>2026-05-12T14:07:50Z</time>
      </trkpt>
      <trkpt lat="45.92563" lon="5.59676">
        <ele>883.2</ele>
        <time>2026-05-12T14:07:51Z</time>
      </trkpt>
      <trkpt lat="45.92563" lon="5.59676">
        <ele>883.2</ele>
        <time>2026-05-12T14:07:52Z</time>
      </trkpt>
      <trkpt lat="45.92565" lon="5.59675">
        <ele>883</ele>
        <time>2026-05-12T14:07:53Z</time>
      </trkpt>
      <trkpt lat="45.92566" lon="5.59676">
        <ele>883</ele>
        <time>2026-05-12T14:07:54Z</time>
      </trkpt>
      <trkpt lat="45.92567" lon="5.59676">
        <ele>883</ele>
        <time>2026-05-12T14:07:55Z</time>
      </trkpt>
      <trkpt lat="45.92569" lon="5.59676">
        <ele>883</ele>
        <time>2026-05-12T14:07:56Z</time>
      </trkpt>
      <trkpt lat="45.92572" lon="5.59676">
        <ele>883</ele>
        <time>2026-05-12T14:07:57Z</time>
      </trkpt>
      <trkpt lat="45.92575" lon="5.59676">
        <ele>882.6</ele>
        <time>2026-05-12T14:07:58Z</time>
      </trkpt>
      <trkpt lat="45.92578" lon="5.59676">
        <ele>882.6</ele>
        <time>2026-05-12T14:07:59Z</time>
      </trkpt>
      <trkpt lat="45.92581" lon="5.59676">
        <ele>882.4</ele>
        <time>2026-05-12T14:08:00Z</time>
      </trkpt>
      <trkpt lat="45.92584" lon="5.59676">
        <ele>882.4</ele>
        <time>2026-05-12T14:08:01Z</time>
      </trkpt>
      <trkpt lat="45.92588" lon="5.59677">
        <ele>882</ele>
        <time>2026-05-12T14:08:02Z</time>
      </trkpt>
      <trkpt lat="45.92592" lon="5.59678">
        <ele>882</ele>
        <time>2026-05-12T14:08:03Z</time>
      </trkpt>
      <trkpt lat="45.92595" lon="5.59678">
        <ele>881.8</ele>
        <time>2026-05-12T14:08:04Z</time>
      </trkpt>
      <trkpt lat="45.92598" lon="5.59679">
        <ele>881.8</ele>
        <time>2026-05-12T14:08:05Z</time>
      </trkpt>
      <trkpt lat="45.92602" lon="5.59681">
        <ele>881.8</ele>
        <time>2026-05-12T14:08:06Z</time>
      </trkpt>
      <trkpt lat="45.92605" lon="5.59683">
        <ele>881.6</ele>
        <time>2026-05-12T14:08:07Z</time>
      </trkpt>
      <trkpt lat="45.92608" lon="5.59685">
        <ele>881.6</ele>
        <time>2026-05-12T14:08:08Z</time>
      </trkpt>
      <trkpt lat="45.92611" lon="5.59687">
        <ele>881.2</ele>
        <time>2026-05-12T14:08:09Z</time>
      </trkpt>
      <trkpt lat="45.92617" lon="5.59691">
        <ele>880.8</ele>
        <time>2026-05-12T14:08:10Z</time>
      </trkpt>
      <trkpt lat="45.92621" lon="5.59695">
        <ele>880.8</ele>
        <time>2026-05-12T14:08:11Z</time>
      </trkpt>
      <trkpt lat="45.92625" lon="5.59698">
        <ele>880</ele>
        <time>2026-05-12T14:08:12Z</time>
      </trkpt>
      <trkpt lat="45.92629" lon="5.597">
        <ele>880</ele>
        <time>2026-05-12T14:08:13Z</time>
      </trkpt>
      <trkpt lat="45.92634" lon="5.59703">
        <ele>879.6</ele>
        <time>2026-05-12T14:08:14Z</time>
      </trkpt>
      <trkpt lat="45.92639" lon="5.59705">
        <ele>879.6</ele>
        <time>2026-05-12T14:08:15Z</time>
      </trkpt>
      <trkpt lat="45.92642" lon="5.59706">
        <ele>879.6</ele>
        <time>2026-05-12T14:08:16Z</time>
      </trkpt>
      <trkpt lat="45.92646" lon="5.59707">
        <ele>879.4</ele>
        <time>2026-05-12T14:08:17Z</time>
      </trkpt>
      <trkpt lat="45.9265" lon="5.59708">
        <ele>879.2</ele>
        <time>2026-05-12T14:08:18Z</time>
      </trkpt>
      <trkpt lat="45.92655" lon="5.5971">
        <ele>879.2</ele>
        <time>2026-05-12T14:08:19Z</time>
      </trkpt>
      <trkpt lat="45.92658" lon="5.5971">
        <ele>879.2</ele>
        <time>2026-05-12T14:08:20Z</time>
      </trkpt>
      <trkpt lat="45.92662" lon="5.59711">
        <ele>879.2</ele>
        <time>2026-05-12T14:08:21Z</time>
      </trkpt>
      <trkpt lat="45.92665" lon="5.5971">
        <ele>879.2</ele>
        <time>2026-05-12T14:08:22Z</time>
      </trkpt>
      <trkpt lat="45.92669" lon="5.5971">
        <ele>878.8</ele>
        <time>2026-05-12T14:08:23Z</time>
      </trkpt>
      <trkpt lat="45.92672" lon="5.5971">
        <ele>878.8</ele>
        <time>2026-05-12T14:08:24Z</time>
      </trkpt>
      <trkpt lat="45.92674" lon="5.5971">
        <ele>878.8</ele>
        <time>2026-05-12T14:08:25Z</time>
      </trkpt>
      <trkpt lat="45.92676" lon="5.59709">
        <ele>878.8</ele>
        <time>2026-05-12T14:08:26Z</time>
      </trkpt>
      <trkpt lat="45.92676" lon="5.59709">
        <ele>878.8</ele>
        <time>2026-05-12T14:08:27Z</time>
      </trkpt>
      <trkpt lat="45.92676" lon="5.59709">
        <ele>879</ele>
        <time>2026-05-12T14:08:28Z</time>
      </trkpt>
      <trkpt lat="45.92676" lon="5.59709">
        <ele>879</ele>
        <time>2026-05-12T14:08:29Z</time>
      </trkpt>
      <trkpt lat="45.92677" lon="5.59708">
        <ele>878.8</ele>
        <time>2026-05-12T14:08:38Z</time>
      </trkpt>
      <trkpt lat="45.92678" lon="5.59707">
        <ele>878.8</ele>
        <time>2026-05-12T14:08:39Z</time>
      </trkpt>
      <trkpt lat="45.92679" lon="5.59706">
        <ele>878.8</ele>
        <time>2026-05-12T14:08:40Z</time>
      </trkpt>
      <trkpt lat="45.92679" lon="5.59706">
        <ele>878.8</ele>
        <time>2026-05-12T14:08:41Z</time>
      </trkpt>
      <trkpt lat="45.92679" lon="5.59706">
        <ele>878.8</ele>
        <time>2026-05-12T14:08:42Z</time>
      </trkpt>
      <trkpt lat="45.92676" lon="5.59705">
        <ele>878</ele>
        <time>2026-05-12T14:09:05Z</time>
      </trkpt>
      <trkpt lat="45.92678" lon="5.59705">
        <ele>877.6</ele>
        <time>2026-05-12T14:09:06Z</time>
      </trkpt>
      <trkpt lat="45.92681" lon="5.59704">
        <ele>877.6</ele>
        <time>2026-05-12T14:09:07Z</time>
      </trkpt>
      <trkpt lat="45.92684" lon="5.59703">
        <ele>877.6</ele>
        <time>2026-05-12T14:09:08Z</time>
      </trkpt>
      <trkpt lat="45.92687" lon="5.59702">
        <ele>877.2</ele>
        <time>2026-05-12T14:09:09Z</time>
      </trkpt>
      <trkpt lat="45.92689" lon="5.59701">
        <ele>877.2</ele>
        <time>2026-05-12T14:09:10Z</time>
      </trkpt>
      <trkpt lat="45.92692" lon="5.59699">
        <ele>876.8</ele>
        <time>2026-05-12T14:09:11Z</time>
      </trkpt>
      <trkpt lat="45.92694" lon="5.59699">
        <ele>876.8</ele>
        <time>2026-05-12T14:09:12Z</time>
      </trkpt>
      <trkpt lat="45.92696" lon="5.59698">
        <ele>876.8</ele>
        <time>2026-05-12T14:09:13Z</time>
      </trkpt>
      <trkpt lat="45.92697" lon="5.59697">
        <ele>876.8</ele>
        <time>2026-05-12T14:09:14Z</time>
      </trkpt>
      <trkpt lat="45.92698" lon="5.59697">
        <ele>876.6</ele>
        <time>2026-05-12T14:09:15Z</time>
      </trkpt>
      <trkpt lat="45.92699" lon="5.59697">
        <ele>876.6</ele>
        <time>2026-05-12T14:09:16Z</time>
      </trkpt>
      <trkpt lat="45.927" lon="5.59697">
        <ele>876.6</ele>
        <time>2026-05-12T14:09:17Z</time>
      </trkpt>
      <trkpt lat="45.92702" lon="5.59697">
        <ele>876.6</ele>
        <time>2026-05-12T14:09:18Z</time>
      </trkpt>
      <trkpt lat="45.92704" lon="5.59697">
        <ele>876.4</ele>
        <time>2026-05-12T14:09:19Z</time>
      </trkpt>
      <trkpt lat="45.92705" lon="5.59696">
        <ele>876.4</ele>
        <time>2026-05-12T14:09:20Z</time>
      </trkpt>
      <trkpt lat="45.92706" lon="5.59696">
        <ele>876.4</ele>
        <time>2026-05-12T14:09:21Z</time>
      </trkpt>
      <trkpt lat="45.92706" lon="5.59696">
        <ele>876.4</ele>
        <time>2026-05-12T14:09:22Z</time>
      </trkpt>
      <trkpt lat="45.92705" lon="5.59698">
        <ele>876.8</ele>
        <time>2026-05-12T14:09:56Z</time>
      </trkpt>
      <trkpt lat="45.92707" lon="5.59699">
        <ele>876.8</ele>
        <time>2026-05-12T14:09:57Z</time>
      </trkpt>
      <trkpt lat="45.92709" lon="5.59699">
        <ele>876.8</ele>
        <time>2026-05-12T14:09:58Z</time>
      </trkpt>
      <trkpt lat="45.92712" lon="5.59699">
        <ele>876.6</ele>
        <time>2026-05-12T14:09:59Z</time>
      </trkpt>
      <trkpt lat="45.92715" lon="5.59697">
        <ele>876.4</ele>
        <time>2026-05-12T14:10:00Z</time>
      </trkpt>
      <trkpt lat="45.92719" lon="5.59694">
        <ele>876.4</ele>
        <time>2026-05-12T14:10:01Z</time>
      </trkpt>
      <trkpt lat="45.92722" lon="5.59692">
        <ele>876.4</ele>
        <time>2026-05-12T14:10:02Z</time>
      </trkpt>
      <trkpt lat="45.92726" lon="5.59692">
        <ele>876.4</ele>
        <time>2026-05-12T14:10:03Z</time>
      </trkpt>
      <trkpt lat="45.9273" lon="5.59693">
        <ele>876</ele>
        <time>2026-05-12T14:10:04Z</time>
      </trkpt>
      <trkpt lat="45.92734" lon="5.59694">
        <ele>876</ele>
        <time>2026-05-12T14:10:05Z</time>
      </trkpt>
      <trkpt lat="45.92738" lon="5.59694">
        <ele>876</ele>
        <time>2026-05-12T14:10:06Z</time>
      </trkpt>
      <trkpt lat="45.92744" lon="5.59694">
        <ele>876</ele>
        <time>2026-05-12T14:10:07Z</time>
      </trkpt>
      <trkpt lat="45.92748" lon="5.59695">
        <ele>876</ele>
        <time>2026-05-12T14:10:08Z</time>
      </trkpt>
      <trkpt lat="45.92752" lon="5.59696">
        <ele>876</ele>
        <time>2026-05-12T14:10:09Z</time>
      </trkpt>
      <trkpt lat="45.92756" lon="5.59698">
        <ele>876</ele>
        <time>2026-05-12T14:10:10Z</time>
      </trkpt>
      <trkpt lat="45.92761" lon="5.59699">
        <ele>876</ele>
        <time>2026-05-12T14:10:11Z</time>
      </trkpt>
      <trkpt lat="45.92765" lon="5.597">
        <ele>876</ele>
        <time>2026-05-12T14:10:12Z</time>
      </trkpt>
      <trkpt lat="45.9277" lon="5.59701">
        <ele>875.6</ele>
        <time>2026-05-12T14:10:13Z</time>
      </trkpt>
      <trkpt lat="45.92774" lon="5.59702">
        <ele>875.6</ele>
        <time>2026-05-12T14:10:14Z</time>
      </trkpt>
      <trkpt lat="45.92778" lon="5.59703">
        <ele>875.2</ele>
        <time>2026-05-12T14:10:15Z</time>
      </trkpt>
      <trkpt lat="45.92783" lon="5.59704">
        <ele>875.2</ele>
        <time>2026-05-12T14:10:16Z</time>
      </trkpt>
      <trkpt lat="45.92788" lon="5.59704">
        <ele>875.2</ele>
        <time>2026-05-12T14:10:17Z</time>
      </trkpt>
      <trkpt lat="45.92792" lon="5.59703">
        <ele>875.2</ele>
        <time>2026-05-12T14:10:18Z</time>
      </trkpt>
      <trkpt lat="45.92796" lon="5.59702">
        <ele>875.4</ele>
        <time>2026-05-12T14:10:19Z</time>
      </trkpt>
      <trkpt lat="45.928" lon="5.59701">
        <ele>875.4</ele>
        <time>2026-05-12T14:10:20Z</time>
      </trkpt>
      <trkpt lat="45.92806" lon="5.59699">
        <ele>875.4</ele>
        <time>2026-05-12T14:10:21Z</time>
      </trkpt>
      <trkpt lat="45.9281" lon="5.59698">
        <ele>875</ele>
        <time>2026-05-12T14:10:22Z</time>
      </trkpt>
      <trkpt lat="45.92815" lon="5.59697">
        <ele>874.6</ele>
        <time>2026-05-12T14:10:23Z</time>
      </trkpt>
      <trkpt lat="45.92821" lon="5.59696">
        <ele>874.6</ele>
        <time>2026-05-12T14:10:24Z</time>
      </trkpt>
      <trkpt lat="45.92827" lon="5.59697">
        <ele>874</ele>
        <time>2026-05-12T14:10:25Z</time>
      </trkpt>
      <trkpt lat="45.92834" lon="5.59698">
        <ele>873</ele>
        <time>2026-05-12T14:10:26Z</time>
      </trkpt>
      <trkpt lat="45.9284" lon="5.59699">
        <ele>872.2</ele>
        <time>2026-05-12T14:10:27Z</time>
      </trkpt>
      <trkpt lat="45.92846" lon="5.59698">
        <ele>871.6</ele>
        <time>2026-05-12T14:10:28Z</time>
      </trkpt>
      <trkpt lat="45.92851" lon="5.59698">
        <ele>871.6</ele>
        <time>2026-05-12T14:10:29Z</time>
      </trkpt>
      <trkpt lat="45.92856" lon="5.59697">
        <ele>871.6</ele>
        <time>2026-05-12T14:10:30Z</time>
      </trkpt>
      <trkpt lat="45.92862" lon="5.59696">
        <ele>871.4</ele>
        <time>2026-05-12T14:10:31Z</time>
      </trkpt>
      <trkpt lat="45.92867" lon="5.59692">
        <ele>871.4</ele>
        <time>2026-05-12T14:10:32Z</time>
      </trkpt>
      <trkpt lat="45.92873" lon="5.59689">
        <ele>870.4</ele>
        <time>2026-05-12T14:10:33Z</time>
      </trkpt>
      <trkpt lat="45.92877" lon="5.59688">
        <ele>869.8</ele>
        <time>2026-05-12T14:10:34Z</time>
      </trkpt>
      <trkpt lat="45.92881" lon="5.59685">
        <ele>870.2</ele>
        <time>2026-05-12T14:10:35Z</time>
      </trkpt>
      <trkpt lat="45.92883" lon="5.59683">
        <ele>869.4</ele>
        <time>2026-05-12T14:10:36Z</time>
      </trkpt>
      <trkpt lat="45.92883" lon="5.59677">
        <ele>869</ele>
        <time>2026-05-12T14:10:37Z</time>
      </trkpt>
      <trkpt lat="45.92884" lon="5.59674">
        <ele>869</ele>
        <time>2026-05-12T14:10:38Z</time>
      </trkpt>
      <trkpt lat="45.92882" lon="5.59669">
        <ele>869</ele>
        <time>2026-05-12T14:10:39Z</time>
      </trkpt>
      <trkpt lat="45.92882" lon="5.59667">
        <ele>868.8</ele>
        <time>2026-05-12T14:10:40Z</time>
      </trkpt>
      <trkpt lat="45.9288" lon="5.59667">
        <ele>868.8</ele>
        <time>2026-05-12T14:10:41Z</time>
      </trkpt>
      <trkpt lat="45.9288" lon="5.59666">
        <ele>868.6</ele>
        <time>2026-05-12T14:10:42Z</time>
      </trkpt>
      <trkpt lat="45.9288" lon="5.59666">
        <ele>868.6</ele>
        <time>2026-05-12T14:10:43Z</time>
      </trkpt>
      <trkpt lat="45.9288" lon="5.59666">
        <ele>868.2</ele>
        <time>2026-05-12T14:11:17Z</time>
      </trkpt>
      <trkpt lat="45.92878" lon="5.59664">
        <ele>868.2</ele>
        <time>2026-05-12T14:11:18Z</time>
      </trkpt>
      <trkpt lat="45.92877" lon="5.59661">
        <ele>868.2</ele>
        <time>2026-05-12T14:11:19Z</time>
      </trkpt>
      <trkpt lat="45.92875" lon="5.59658">
        <ele>868</ele>
        <time>2026-05-12T14:11:20Z</time>
      </trkpt>
      <trkpt lat="45.92872" lon="5.59653">
        <ele>867.8</ele>
        <time>2026-05-12T14:11:21Z</time>
      </trkpt>
      <trkpt lat="45.9287" lon="5.59648">
        <ele>867.8</ele>
        <time>2026-05-12T14:11:22Z</time>
      </trkpt>
      <trkpt lat="45.92868" lon="5.59641">
        <ele>867.4</ele>
        <time>2026-05-12T14:11:23Z</time>
      </trkpt>
      <trkpt lat="45.92865" lon="5.59633">
        <ele>866.8</ele>
        <time>2026-05-12T14:11:24Z</time>
      </trkpt>
      <trkpt lat="45.92864" lon="5.59623">
        <ele>866.4</ele>
        <time>2026-05-12T14:11:25Z</time>
      </trkpt>
      <trkpt lat="45.92864" lon="5.59614">
        <ele>865.6</ele>
        <time>2026-05-12T14:11:26Z</time>
      </trkpt>
      <trkpt lat="45.92864" lon="5.59604">
        <ele>865</ele>
        <time>2026-05-12T14:11:27Z</time>
      </trkpt>
      <trkpt lat="45.92864" lon="5.59594">
        <ele>864.2</ele>
        <time>2026-05-12T14:11:28Z</time>
      </trkpt>
      <trkpt lat="45.92865" lon="5.59583">
        <ele>863.6</ele>
        <time>2026-05-12T14:11:29Z</time>
      </trkpt>
      <trkpt lat="45.92867" lon="5.59572">
        <ele>862.8</ele>
        <time>2026-05-12T14:11:30Z</time>
      </trkpt>
      <trkpt lat="45.92869" lon="5.59561">
        <ele>862.4</ele>
        <time>2026-05-12T14:11:31Z</time>
      </trkpt>
      <trkpt lat="45.92872" lon="5.5955">
        <ele>861.8</ele>
        <time>2026-05-12T14:11:32Z</time>
      </trkpt>
      <trkpt lat="45.92876" lon="5.59539">
        <ele>860.8</ele>
        <time>2026-05-12T14:11:33Z</time>
      </trkpt>
      <trkpt lat="45.9288" lon="5.59528">
        <ele>860.2</ele>
        <time>2026-05-12T14:11:34Z</time>
      </trkpt>
      <trkpt lat="45.92885" lon="5.59517">
        <ele>859.2</ele>
        <time>2026-05-12T14:11:35Z</time>
      </trkpt>
      <trkpt lat="45.9289" lon="5.59506">
        <ele>858.2</ele>
        <time>2026-05-12T14:11:36Z</time>
      </trkpt>
      <trkpt lat="45.92896" lon="5.59497">
        <ele>857.8</ele>
        <time>2026-05-12T14:11:37Z</time>
      </trkpt>
      <trkpt lat="45.92901" lon="5.59489">
        <ele>857</ele>
        <time>2026-05-12T14:11:38Z</time>
      </trkpt>
      <trkpt lat="45.92911" lon="5.59479">
        <ele>856.4</ele>
        <time>2026-05-12T14:11:39Z</time>
      </trkpt>
      <trkpt lat="45.92921" lon="5.59473">
        <ele>854.6</ele>
        <time>2026-05-12T14:11:40Z</time>
      </trkpt>
      <trkpt lat="45.9293" lon="5.59467">
        <ele>853.6</ele>
        <time>2026-05-12T14:11:41Z</time>
      </trkpt>
      <trkpt lat="45.92939" lon="5.5946">
        <ele>852.6</ele>
        <time>2026-05-12T14:11:42Z</time>
      </trkpt>
      <trkpt lat="45.9295" lon="5.59451">
        <ele>851</ele>
        <time>2026-05-12T14:11:43Z</time>
      </trkpt>
      <trkpt lat="45.9296" lon="5.59444">
        <ele>850.6</ele>
        <time>2026-05-12T14:11:44Z</time>
      </trkpt>
      <trkpt lat="45.92969" lon="5.59436">
        <ele>849.6</ele>
        <time>2026-05-12T14:11:45Z</time>
      </trkpt>
      <trkpt lat="45.92979" lon="5.5943">
        <ele>848.4</ele>
        <time>2026-05-12T14:11:46Z</time>
      </trkpt>
      <trkpt lat="45.9299" lon="5.59423">
        <ele>847.4</ele>
        <time>2026-05-12T14:11:47Z</time>
      </trkpt>
      <trkpt lat="45.93001" lon="5.59417">
        <ele>846.2</ele>
        <time>2026-05-12T14:11:48Z</time>
      </trkpt>
      <trkpt lat="45.93011" lon="5.59411">
        <ele>845.2</ele>
        <time>2026-05-12T14:11:49Z</time>
      </trkpt>
      <trkpt lat="45.93021" lon="5.59407">
        <ele>844.4</ele>
        <time>2026-05-12T14:11:50Z</time>
      </trkpt>
      <trkpt lat="45.93033" lon="5.59402">
        <ele>843.2</ele>
        <time>2026-05-12T14:11:51Z</time>
      </trkpt>
      <trkpt lat="45.93045" lon="5.59397">
        <ele>842</ele>
        <time>2026-05-12T14:11:52Z</time>
      </trkpt>
      <trkpt lat="45.93056" lon="5.59392">
        <ele>840.4</ele>
        <time>2026-05-12T14:11:53Z</time>
      </trkpt>
      <trkpt lat="45.93068" lon="5.59387">
        <ele>839.2</ele>
        <time>2026-05-12T14:11:54Z</time>
      </trkpt>
      <trkpt lat="45.93081" lon="5.59381">
        <ele>838</ele>
        <time>2026-05-12T14:11:55Z</time>
      </trkpt>
      <trkpt lat="45.93092" lon="5.59375">
        <ele>837</ele>
        <time>2026-05-12T14:11:56Z</time>
      </trkpt>
      <trkpt lat="45.93106" lon="5.5937">
        <ele>835.8</ele>
        <time>2026-05-12T14:11:57Z</time>
      </trkpt>
      <trkpt lat="45.93119" lon="5.59366">
        <ele>835.4</ele>
        <time>2026-05-12T14:11:58Z</time>
      </trkpt>
      <trkpt lat="45.93128" lon="5.5936">
        <ele>834.6</ele>
        <time>2026-05-12T14:11:59Z</time>
      </trkpt>
      <trkpt lat="45.93139" lon="5.59356">
        <ele>834.2</ele>
        <time>2026-05-12T14:12:00Z</time>
      </trkpt>
      <trkpt lat="45.93149" lon="5.59353">
        <ele>833.6</ele>
        <time>2026-05-12T14:12:01Z</time>
      </trkpt>
      <trkpt lat="45.9316" lon="5.59355">
        <ele>832.6</ele>
        <time>2026-05-12T14:12:02Z</time>
      </trkpt>
      <trkpt lat="45.9317" lon="5.59359">
        <ele>831.8</ele>
        <time>2026-05-12T14:12:03Z</time>
      </trkpt>
      <trkpt lat="45.93181" lon="5.59364">
        <ele>831</ele>
        <time>2026-05-12T14:12:04Z</time>
      </trkpt>
      <trkpt lat="45.93192" lon="5.59368">
        <ele>830.2</ele>
        <time>2026-05-12T14:12:05Z</time>
      </trkpt>
      <trkpt lat="45.93202" lon="5.59367">
        <ele>829</ele>
        <time>2026-05-12T14:12:06Z</time>
      </trkpt>
      <trkpt lat="45.93214" lon="5.59366">
        <ele>827.8</ele>
        <time>2026-05-12T14:12:07Z</time>
      </trkpt>
      <trkpt lat="45.93225" lon="5.59364">
        <ele>827.2</ele>
        <time>2026-05-12T14:12:08Z</time>
      </trkpt>
      <trkpt lat="45.93236" lon="5.59362">
        <ele>826.4</ele>
        <time>2026-05-12T14:12:09Z</time>
      </trkpt>
      <trkpt lat="45.93248" lon="5.59358">
        <ele>824.8</ele>
        <time>2026-05-12T14:12:10Z</time>
      </trkpt>
      <trkpt lat="45.9326" lon="5.59357">
        <ele>824.2</ele>
        <time>2026-05-12T14:12:11Z</time>
      </trkpt>
      <trkpt lat="45.93271" lon="5.59354">
        <ele>823.8</ele>
        <time>2026-05-12T14:12:12Z</time>
      </trkpt>
      <trkpt lat="45.93283" lon="5.59352">
        <ele>823</ele>
        <time>2026-05-12T14:12:13Z</time>
      </trkpt>
      <trkpt lat="45.93294" lon="5.5935">
        <ele>822.8</ele>
        <time>2026-05-12T14:12:14Z</time>
      </trkpt>
      <trkpt lat="45.93306" lon="5.59349">
        <ele>822.2</ele>
        <time>2026-05-12T14:12:15Z</time>
      </trkpt>
      <trkpt lat="45.93317" lon="5.59348">
        <ele>821.6</ele>
        <time>2026-05-12T14:12:16Z</time>
      </trkpt>
      <trkpt lat="45.93327" lon="5.59345">
        <ele>820.8</ele>
        <time>2026-05-12T14:12:17Z</time>
      </trkpt>
      <trkpt lat="45.93339" lon="5.59344">
        <ele>820.2</ele>
        <time>2026-05-12T14:12:18Z</time>
      </trkpt>
      <trkpt lat="45.93349" lon="5.59341">
        <ele>819.2</ele>
        <time>2026-05-12T14:12:19Z</time>
      </trkpt>
      <trkpt lat="45.93359" lon="5.59339">
        <ele>818.8</ele>
        <time>2026-05-12T14:12:20Z</time>
      </trkpt>
      <trkpt lat="45.93368" lon="5.59337">
        <ele>818.4</ele>
        <time>2026-05-12T14:12:21Z</time>
      </trkpt>
      <trkpt lat="45.9338" lon="5.59335">
        <ele>817.6</ele>
        <time>2026-05-12T14:12:22Z</time>
      </trkpt>
      <trkpt lat="45.93391" lon="5.59333">
        <ele>817.6</ele>
        <time>2026-05-12T14:12:23Z</time>
      </trkpt>
      <trkpt lat="45.93403" lon="5.59331">
        <ele>816.4</ele>
        <time>2026-05-12T14:12:24Z</time>
      </trkpt>
      <trkpt lat="45.93413" lon="5.59329">
        <ele>815.6</ele>
        <time>2026-05-12T14:12:25Z</time>
      </trkpt>
      <trkpt lat="45.93422" lon="5.59327">
        <ele>815.4</ele>
        <time>2026-05-12T14:12:26Z</time>
      </trkpt>
      <trkpt lat="45.93431" lon="5.59325">
        <ele>815.8</ele>
        <time>2026-05-12T14:12:27Z</time>
      </trkpt>
      <trkpt lat="45.93441" lon="5.59323">
        <ele>815.8</ele>
        <time>2026-05-12T14:12:28Z</time>
      </trkpt>
      <trkpt lat="45.9345" lon="5.59323">
        <ele>815.8</ele>
        <time>2026-05-12T14:12:29Z</time>
      </trkpt>
      <trkpt lat="45.93458" lon="5.59324">
        <ele>816.2</ele>
        <time>2026-05-12T14:12:30Z</time>
      </trkpt>
      <trkpt lat="45.93467" lon="5.59325">
        <ele>816.2</ele>
        <time>2026-05-12T14:12:31Z</time>
      </trkpt>
      <trkpt lat="45.93474" lon="5.59324">
        <ele>816.6</ele>
        <time>2026-05-12T14:12:32Z</time>
      </trkpt>
      <trkpt lat="45.93481" lon="5.59322">
        <ele>816.8</ele>
        <time>2026-05-12T14:12:33Z</time>
      </trkpt>
      <trkpt lat="45.93489" lon="5.5932">
        <ele>816.8</ele>
        <time>2026-05-12T14:12:34Z</time>
      </trkpt>
      <trkpt lat="45.93495" lon="5.59318">
        <ele>817.4</ele>
        <time>2026-05-12T14:12:35Z</time>
      </trkpt>
      <trkpt lat="45.93502" lon="5.59316">
        <ele>817.4</ele>
        <time>2026-05-12T14:12:36Z</time>
      </trkpt>
      <trkpt lat="45.93509" lon="5.59316">
        <ele>817.4</ele>
        <time>2026-05-12T14:12:37Z</time>
      </trkpt>
      <trkpt lat="45.93515" lon="5.59313">
        <ele>817.2</ele>
        <time>2026-05-12T14:12:38Z</time>
      </trkpt>
      <trkpt lat="45.93521" lon="5.59312">
        <ele>817</ele>
        <time>2026-05-12T14:12:39Z</time>
      </trkpt>
      <trkpt lat="45.93528" lon="5.59311">
        <ele>816.6</ele>
        <time>2026-05-12T14:12:40Z</time>
      </trkpt>
      <trkpt lat="45.93536" lon="5.59312">
        <ele>816.6</ele>
        <time>2026-05-12T14:12:41Z</time>
      </trkpt>
      <trkpt lat="45.93542" lon="5.5931">
        <ele>816.4</ele>
        <time>2026-05-12T14:12:42Z</time>
      </trkpt>
      <trkpt lat="45.93551" lon="5.59312">
        <ele>815.8</ele>
        <time>2026-05-12T14:12:43Z</time>
      </trkpt>
      <trkpt lat="45.9356" lon="5.59311">
        <ele>815.4</ele>
        <time>2026-05-12T14:12:44Z</time>
      </trkpt>
      <trkpt lat="45.93567" lon="5.59312">
        <ele>814.8</ele>
        <time>2026-05-12T14:12:45Z</time>
      </trkpt>
      <trkpt lat="45.93577" lon="5.59313">
        <ele>814.6</ele>
        <time>2026-05-12T14:12:46Z</time>
      </trkpt>
      <trkpt lat="45.93586" lon="5.59312">
        <ele>813.8</ele>
        <time>2026-05-12T14:12:47Z</time>
      </trkpt>
      <trkpt lat="45.93595" lon="5.59312">
        <ele>813.4</ele>
        <time>2026-05-12T14:12:48Z</time>
      </trkpt>
      <trkpt lat="45.93603" lon="5.59311">
        <ele>814</ele>
        <time>2026-05-12T14:12:49Z</time>
      </trkpt>
      <trkpt lat="45.93608" lon="5.5931">
        <ele>813.4</ele>
        <time>2026-05-12T14:12:50Z</time>
      </trkpt>
      <trkpt lat="45.93617" lon="5.59312">
        <ele>813.4</ele>
        <time>2026-05-12T14:12:51Z</time>
      </trkpt>
      <trkpt lat="45.93624" lon="5.59311">
        <ele>813</ele>
        <time>2026-05-12T14:12:52Z</time>
      </trkpt>
      <trkpt lat="45.93633" lon="5.59312">
        <ele>813</ele>
        <time>2026-05-12T14:12:53Z</time>
      </trkpt>
      <trkpt lat="45.93641" lon="5.59311">
        <ele>813</ele>
        <time>2026-05-12T14:12:54Z</time>
      </trkpt>
      <trkpt lat="45.93649" lon="5.59311">
        <ele>813</ele>
        <time>2026-05-12T14:12:55Z</time>
      </trkpt>
      <trkpt lat="45.93663" lon="5.59312">
        <ele>812.4</ele>
        <time>2026-05-12T14:12:56Z</time>
      </trkpt>
      <trkpt lat="45.93671" lon="5.59313">
        <ele>812</ele>
        <time>2026-05-12T14:12:57Z</time>
      </trkpt>
      <trkpt lat="45.93678" lon="5.59313">
        <ele>811.2</ele>
        <time>2026-05-12T14:12:58Z</time>
      </trkpt>
      <trkpt lat="45.93686" lon="5.59314">
        <ele>811.6</ele>
        <time>2026-05-12T14:12:59Z</time>
      </trkpt>
      <trkpt lat="45.93692" lon="5.59315">
        <ele>812</ele>
        <time>2026-05-12T14:13:00Z</time>
      </trkpt>
      <trkpt lat="45.93699" lon="5.59317">
        <ele>812.6</ele>
        <time>2026-05-12T14:13:01Z</time>
      </trkpt>
      <trkpt lat="45.93705" lon="5.59319">
        <ele>812.6</ele>
        <time>2026-05-12T14:13:02Z</time>
      </trkpt>
      <trkpt lat="45.93711" lon="5.59321">
        <ele>813</ele>
        <time>2026-05-12T14:13:03Z</time>
      </trkpt>
      <trkpt lat="45.93717" lon="5.59324">
        <ele>813.2</ele>
        <time>2026-05-12T14:13:04Z</time>
      </trkpt>
      <trkpt lat="45.93722" lon="5.59327">
        <ele>813.2</ele>
        <time>2026-05-12T14:13:05Z</time>
      </trkpt>
      <trkpt lat="45.93728" lon="5.5933">
        <ele>813.2</ele>
        <time>2026-05-12T14:13:06Z</time>
      </trkpt>
      <trkpt lat="45.93732" lon="5.59333">
        <ele>813</ele>
        <time>2026-05-12T14:13:07Z</time>
      </trkpt>
      <trkpt lat="45.93736" lon="5.59335">
        <ele>813</ele>
        <time>2026-05-12T14:13:08Z</time>
      </trkpt>
      <trkpt lat="45.93741" lon="5.59339">
        <ele>812.6</ele>
        <time>2026-05-12T14:13:09Z</time>
      </trkpt>
      <trkpt lat="45.93746" lon="5.5934">
        <ele>812.6</ele>
        <time>2026-05-12T14:13:10Z</time>
      </trkpt>
      <trkpt lat="45.9375" lon="5.59342">
        <ele>812.6</ele>
        <time>2026-05-12T14:13:11Z</time>
      </trkpt>
      <trkpt lat="45.93754" lon="5.59344">
        <ele>813</ele>
        <time>2026-05-12T14:13:12Z</time>
      </trkpt>
      <trkpt lat="45.93758" lon="5.59346">
        <ele>813</ele>
        <time>2026-05-12T14:13:13Z</time>
      </trkpt>
      <trkpt lat="45.93762" lon="5.59349">
        <ele>812.8</ele>
        <time>2026-05-12T14:13:14Z</time>
      </trkpt>
      <trkpt lat="45.93766" lon="5.59352">
        <ele>812.8</ele>
        <time>2026-05-12T14:13:15Z</time>
      </trkpt>
      <trkpt lat="45.93771" lon="5.59354">
        <ele>812.4</ele>
        <time>2026-05-12T14:13:16Z</time>
      </trkpt>
      <trkpt lat="45.93776" lon="5.59356">
        <ele>812.4</ele>
        <time>2026-05-12T14:13:17Z</time>
      </trkpt>
      <trkpt lat="45.9378" lon="5.59357">
        <ele>812</ele>
        <time>2026-05-12T14:13:18Z</time>
      </trkpt>
      <trkpt lat="45.93785" lon="5.59359">
        <ele>812</ele>
        <time>2026-05-12T14:13:19Z</time>
      </trkpt>
      <trkpt lat="45.93789" lon="5.5936">
        <ele>812</ele>
        <time>2026-05-12T14:13:20Z</time>
      </trkpt>
      <trkpt lat="45.93793" lon="5.59362">
        <ele>811.6</ele>
        <time>2026-05-12T14:13:21Z</time>
      </trkpt>
      <trkpt lat="45.93798" lon="5.59364">
        <ele>811.6</ele>
        <time>2026-05-12T14:13:22Z</time>
      </trkpt>
      <trkpt lat="45.93802" lon="5.59365">
        <ele>811.6</ele>
        <time>2026-05-12T14:13:23Z</time>
      </trkpt>
      <trkpt lat="45.93806" lon="5.59367">
        <ele>811.6</ele>
        <time>2026-05-12T14:13:24Z</time>
      </trkpt>
      <trkpt lat="45.9381" lon="5.59368">
        <ele>811.6</ele>
        <time>2026-05-12T14:13:25Z</time>
      </trkpt>
      <trkpt lat="45.93815" lon="5.59368">
        <ele>811.6</ele>
        <time>2026-05-12T14:13:26Z</time>
      </trkpt>
      <trkpt lat="45.9382" lon="5.5937">
        <ele>811.4</ele>
        <time>2026-05-12T14:13:27Z</time>
      </trkpt>
      <trkpt lat="45.93825" lon="5.59371">
        <ele>811.4</ele>
        <time>2026-05-12T14:13:28Z</time>
      </trkpt>
      <trkpt lat="45.9383" lon="5.59372">
        <ele>811</ele>
        <time>2026-05-12T14:13:29Z</time>
      </trkpt>
      <trkpt lat="45.93835" lon="5.59373">
        <ele>810.6</ele>
        <time>2026-05-12T14:13:30Z</time>
      </trkpt>
      <trkpt lat="45.93841" lon="5.59374">
        <ele>810.2</ele>
        <time>2026-05-12T14:13:31Z</time>
      </trkpt>
      <trkpt lat="45.93848" lon="5.59375">
        <ele>809.8</ele>
        <time>2026-05-12T14:13:32Z</time>
      </trkpt>
      <trkpt lat="45.93855" lon="5.59379">
        <ele>809.2</ele>
        <time>2026-05-12T14:13:33Z</time>
      </trkpt>
      <trkpt lat="45.93861" lon="5.59382">
        <ele>808.4</ele>
        <time>2026-05-12T14:13:34Z</time>
      </trkpt>
      <trkpt lat="45.9387" lon="5.59385">
        <ele>807.2</ele>
        <time>2026-05-12T14:13:35Z</time>
      </trkpt>
      <trkpt lat="45.93876" lon="5.59389">
        <ele>806</ele>
        <time>2026-05-12T14:13:36Z</time>
      </trkpt>
      <trkpt lat="45.93882" lon="5.59392">
        <ele>805</ele>
        <time>2026-05-12T14:13:37Z</time>
      </trkpt>
      <trkpt lat="45.9389" lon="5.59396">
        <ele>804.4</ele>
        <time>2026-05-12T14:13:38Z</time>
      </trkpt>
      <trkpt lat="45.93896" lon="5.59401">
        <ele>804</ele>
        <time>2026-05-12T14:13:39Z</time>
      </trkpt>
      <trkpt lat="45.939" lon="5.59405">
        <ele>803.6</ele>
        <time>2026-05-12T14:13:40Z</time>
      </trkpt>
      <trkpt lat="45.93903" lon="5.59407">
        <ele>803.6</ele>
        <time>2026-05-12T14:13:41Z</time>
      </trkpt>
      <trkpt lat="45.93905" lon="5.59408">
        <ele>803.6</ele>
        <time>2026-05-12T14:13:42Z</time>
      </trkpt>
      <trkpt lat="45.93905" lon="5.59408">
        <ele>803.6</ele>
        <time>2026-05-12T14:13:43Z</time>
      </trkpt>
      <trkpt lat="45.93908" lon="5.59411">
        <ele>803.6</ele>
        <time>2026-05-12T14:13:44Z</time>
      </trkpt>
      <trkpt lat="45.93911" lon="5.59413">
        <ele>803.6</ele>
        <time>2026-05-12T14:13:45Z</time>
      </trkpt>
      <trkpt lat="45.93916" lon="5.59415">
        <ele>803.6</ele>
        <time>2026-05-12T14:13:46Z</time>
      </trkpt>
      <trkpt lat="45.93921" lon="5.59415">
        <ele>803</ele>
        <time>2026-05-12T14:13:47Z</time>
      </trkpt>
      <trkpt lat="45.93926" lon="5.59415">
        <ele>802.6</ele>
        <time>2026-05-12T14:13:48Z</time>
      </trkpt>
      <trkpt lat="45.93931" lon="5.59415">
        <ele>802</ele>
        <time>2026-05-12T14:13:49Z</time>
      </trkpt>
      <trkpt lat="45.93936" lon="5.59414">
        <ele>801.4</ele>
        <time>2026-05-12T14:13:50Z</time>
      </trkpt>
      <trkpt lat="45.93941" lon="5.59412">
        <ele>801.4</ele>
        <time>2026-05-12T14:13:51Z</time>
      </trkpt>
      <trkpt lat="45.93946" lon="5.5941">
        <ele>801.4</ele>
        <time>2026-05-12T14:13:52Z</time>
      </trkpt>
      <trkpt lat="45.93952" lon="5.59408">
        <ele>801.4</ele>
        <time>2026-05-12T14:13:53Z</time>
      </trkpt>
      <trkpt lat="45.93957" lon="5.59406">
        <ele>801.4</ele>
        <time>2026-05-12T14:13:54Z</time>
      </trkpt>
      <trkpt lat="45.93963" lon="5.59405">
        <ele>800.8</ele>
        <time>2026-05-12T14:13:55Z</time>
      </trkpt>
      <trkpt lat="45.93969" lon="5.59403">
        <ele>800.2</ele>
        <time>2026-05-12T14:13:56Z</time>
      </trkpt>
      <trkpt lat="45.93975" lon="5.59402">
        <ele>799.6</ele>
        <time>2026-05-12T14:13:57Z</time>
      </trkpt>
      <trkpt lat="45.9398" lon="5.59402">
        <ele>799.4</ele>
        <time>2026-05-12T14:13:58Z</time>
      </trkpt>
      <trkpt lat="45.93988" lon="5.59402">
        <ele>799</ele>
        <time>2026-05-12T14:13:59Z</time>
      </trkpt>
      <trkpt lat="45.93994" lon="5.59403">
        <ele>798.6</ele>
        <time>2026-05-12T14:14:00Z</time>
      </trkpt>
      <trkpt lat="45.94" lon="5.59404">
        <ele>798.4</ele>
        <time>2026-05-12T14:14:01Z</time>
      </trkpt>
      <trkpt lat="45.94007" lon="5.59404">
        <ele>798.4</ele>
        <time>2026-05-12T14:14:02Z</time>
      </trkpt>
      <trkpt lat="45.94012" lon="5.59405">
        <ele>798.4</ele>
        <time>2026-05-12T14:14:03Z</time>
      </trkpt>
      <trkpt lat="45.94019" lon="5.59406">
        <ele>798</ele>
        <time>2026-05-12T14:14:04Z</time>
      </trkpt>
      <trkpt lat="45.94024" lon="5.59408">
        <ele>798</ele>
        <time>2026-05-12T14:14:05Z</time>
      </trkpt>
      <trkpt lat="45.9403" lon="5.5941">
        <ele>797.8</ele>
        <time>2026-05-12T14:14:06Z</time>
      </trkpt>
      <trkpt lat="45.94034" lon="5.59411">
        <ele>797.8</ele>
        <time>2026-05-12T14:14:07Z</time>
      </trkpt>
      <trkpt lat="45.94037" lon="5.59412">
        <ele>797.8</ele>
        <time>2026-05-12T14:14:08Z</time>
      </trkpt>
      <trkpt lat="45.94041" lon="5.59412">
        <ele>798.2</ele>
        <time>2026-05-12T14:14:09Z</time>
      </trkpt>
      <trkpt lat="45.94042" lon="5.59412">
        <ele>798.2</ele>
        <time>2026-05-12T14:14:10Z</time>
      </trkpt>
      <trkpt lat="45.94044" lon="5.59412">
        <ele>798.2</ele>
        <time>2026-05-12T14:14:11Z</time>
      </trkpt>
      <trkpt lat="45.94046" lon="5.59412">
        <ele>798.2</ele>
        <time>2026-05-12T14:14:12Z</time>
      </trkpt>
      <trkpt lat="45.94047" lon="5.59413">
        <ele>798.2</ele>
        <time>2026-05-12T14:14:13Z</time>
      </trkpt>
      <trkpt lat="45.94049" lon="5.59413">
        <ele>798.2</ele>
        <time>2026-05-12T14:14:14Z</time>
      </trkpt>
      <trkpt lat="45.94051" lon="5.59414">
        <ele>798.2</ele>
        <time>2026-05-12T14:14:15Z</time>
      </trkpt>
      <trkpt lat="45.94054" lon="5.59414">
        <ele>798.2</ele>
        <time>2026-05-12T14:14:16Z</time>
      </trkpt>
      <trkpt lat="45.94055" lon="5.59413">
        <ele>797.8</ele>
        <time>2026-05-12T14:14:17Z</time>
      </trkpt>
      <trkpt lat="45.94058" lon="5.59413">
        <ele>797.6</ele>
        <time>2026-05-12T14:14:18Z</time>
      </trkpt>
      <trkpt lat="45.94061" lon="5.59413">
        <ele>797.4</ele>
        <time>2026-05-12T14:14:19Z</time>
      </trkpt>
      <trkpt lat="45.94064" lon="5.59413">
        <ele>797.4</ele>
        <time>2026-05-12T14:14:20Z</time>
      </trkpt>
      <trkpt lat="45.94067" lon="5.59413">
        <ele>796.8</ele>
        <time>2026-05-12T14:14:21Z</time>
      </trkpt>
      <trkpt lat="45.9407" lon="5.59413">
        <ele>796.6</ele>
        <time>2026-05-12T14:14:22Z</time>
      </trkpt>
      <trkpt lat="45.94073" lon="5.59413">
        <ele>796.2</ele>
        <time>2026-05-12T14:14:23Z</time>
      </trkpt>
      <trkpt lat="45.94077" lon="5.59413">
        <ele>795.8</ele>
        <time>2026-05-12T14:14:24Z</time>
      </trkpt>
      <trkpt lat="45.94082" lon="5.59414">
        <ele>795.6</ele>
        <time>2026-05-12T14:14:25Z</time>
      </trkpt>
      <trkpt lat="45.94083" lon="5.59414">
        <ele>795.4</ele>
        <time>2026-05-12T14:14:26Z</time>
      </trkpt>
      <trkpt lat="45.94086" lon="5.59414">
        <ele>795</ele>
        <time>2026-05-12T14:14:27Z</time>
      </trkpt>
      <trkpt lat="45.9409" lon="5.59415">
        <ele>794.8</ele>
        <time>2026-05-12T14:14:28Z</time>
      </trkpt>
      <trkpt lat="45.94095" lon="5.59416">
        <ele>794.2</ele>
        <time>2026-05-12T14:14:29Z</time>
      </trkpt>
      <trkpt lat="45.94099" lon="5.59417">
        <ele>793.8</ele>
        <time>2026-05-12T14:14:30Z</time>
      </trkpt>
      <trkpt lat="45.94105" lon="5.59418">
        <ele>793.4</ele>
        <time>2026-05-12T14:14:31Z</time>
      </trkpt>
      <trkpt lat="45.94109" lon="5.59417">
        <ele>793</ele>
        <time>2026-05-12T14:14:32Z</time>
      </trkpt>
      <trkpt lat="45.94115" lon="5.59418">
        <ele>792.8</ele>
        <time>2026-05-12T14:14:33Z</time>
      </trkpt>
      <trkpt lat="45.9412" lon="5.59419">
        <ele>792</ele>
        <time>2026-05-12T14:14:34Z</time>
      </trkpt>
      <trkpt lat="45.94126" lon="5.59419">
        <ele>791.6</ele>
        <time>2026-05-12T14:14:35Z</time>
      </trkpt>
      <trkpt lat="45.94132" lon="5.5942">
        <ele>790.8</ele>
        <time>2026-05-12T14:14:36Z</time>
      </trkpt>
      <trkpt lat="45.94136" lon="5.59422">
        <ele>790.2</ele>
        <time>2026-05-12T14:14:37Z</time>
      </trkpt>
      <trkpt lat="45.94143" lon="5.59422">
        <ele>789.6</ele>
        <time>2026-05-12T14:14:38Z</time>
      </trkpt>
      <trkpt lat="45.94147" lon="5.59422">
        <ele>789</ele>
        <time>2026-05-12T14:14:39Z</time>
      </trkpt>
      <trkpt lat="45.94152" lon="5.59423">
        <ele>788.4</ele>
        <time>2026-05-12T14:14:40Z</time>
      </trkpt>
      <trkpt lat="45.94156" lon="5.59424">
        <ele>788</ele>
        <time>2026-05-12T14:14:41Z</time>
      </trkpt>
      <trkpt lat="45.94162" lon="5.59425">
        <ele>787.6</ele>
        <time>2026-05-12T14:14:42Z</time>
      </trkpt>
      <trkpt lat="45.94168" lon="5.59427">
        <ele>787</ele>
        <time>2026-05-12T14:14:43Z</time>
      </trkpt>
      <trkpt lat="45.94173" lon="5.59428">
        <ele>787</ele>
        <time>2026-05-12T14:14:44Z</time>
      </trkpt>
      <trkpt lat="45.94179" lon="5.59429">
        <ele>786.2</ele>
        <time>2026-05-12T14:14:45Z</time>
      </trkpt>
      <trkpt lat="45.94184" lon="5.59431">
        <ele>785.8</ele>
        <time>2026-05-12T14:14:46Z</time>
      </trkpt>
      <trkpt lat="45.9419" lon="5.59432">
        <ele>785.4</ele>
        <time>2026-05-12T14:14:47Z</time>
      </trkpt>
      <trkpt lat="45.94196" lon="5.59433">
        <ele>785</ele>
        <time>2026-05-12T14:14:48Z</time>
      </trkpt>
      <trkpt lat="45.94202" lon="5.59435">
        <ele>784.6</ele>
        <time>2026-05-12T14:14:49Z</time>
      </trkpt>
      <trkpt lat="45.94208" lon="5.59437">
        <ele>784.2</ele>
        <time>2026-05-12T14:14:50Z</time>
      </trkpt>
      <trkpt lat="45.94214" lon="5.59441">
        <ele>784</ele>
        <time>2026-05-12T14:14:51Z</time>
      </trkpt>
      <trkpt lat="45.94218" lon="5.59442">
        <ele>783.6</ele>
        <time>2026-05-12T14:14:52Z</time>
      </trkpt>
      <trkpt lat="45.94224" lon="5.59443">
        <ele>783.4</ele>
        <time>2026-05-12T14:14:53Z</time>
      </trkpt>
      <trkpt lat="45.94229" lon="5.59445">
        <ele>783</ele>
        <time>2026-05-12T14:14:54Z</time>
      </trkpt>
      <trkpt lat="45.94234" lon="5.59445">
        <ele>782.8</ele>
        <time>2026-05-12T14:14:55Z</time>
      </trkpt>
      <trkpt lat="45.94239" lon="5.59446">
        <ele>782.4</ele>
        <time>2026-05-12T14:14:56Z</time>
      </trkpt>
      <trkpt lat="45.94245" lon="5.59448">
        <ele>782</ele>
        <time>2026-05-12T14:14:57Z</time>
      </trkpt>
      <trkpt lat="45.94252" lon="5.59451">
        <ele>782</ele>
        <time>2026-05-12T14:14:58Z</time>
      </trkpt>
      <trkpt lat="45.94257" lon="5.59455">
        <ele>782</ele>
        <time>2026-05-12T14:14:59Z</time>
      </trkpt>
      <trkpt lat="45.94262" lon="5.59455">
        <ele>781.8</ele>
        <time>2026-05-12T14:15:00Z</time>
      </trkpt>
      <trkpt lat="45.94268" lon="5.59458">
        <ele>781.8</ele>
        <time>2026-05-12T14:15:01Z</time>
      </trkpt>
      <trkpt lat="45.94273" lon="5.5946">
        <ele>781.4</ele>
        <time>2026-05-12T14:15:02Z</time>
      </trkpt>
      <trkpt lat="45.94279" lon="5.59461">
        <ele>781</ele>
        <time>2026-05-12T14:15:03Z</time>
      </trkpt>
      <trkpt lat="45.94283" lon="5.59463">
        <ele>781</ele>
        <time>2026-05-12T14:15:04Z</time>
      </trkpt>
      <trkpt lat="45.94287" lon="5.59463">
        <ele>781</ele>
        <time>2026-05-12T14:15:05Z</time>
      </trkpt>
      <trkpt lat="45.94291" lon="5.59464">
        <ele>781</ele>
        <time>2026-05-12T14:15:06Z</time>
      </trkpt>
      <trkpt lat="45.94295" lon="5.59465">
        <ele>780.6</ele>
        <time>2026-05-12T14:15:07Z</time>
      </trkpt>
      <trkpt lat="45.94298" lon="5.59464">
        <ele>780.6</ele>
        <time>2026-05-12T14:15:08Z</time>
      </trkpt>
      <trkpt lat="45.94301" lon="5.59465">
        <ele>780.6</ele>
        <time>2026-05-12T14:15:09Z</time>
      </trkpt>
      <trkpt lat="45.94304" lon="5.59464">
        <ele>780.2</ele>
        <time>2026-05-12T14:15:10Z</time>
      </trkpt>
      <trkpt lat="45.94306" lon="5.59464">
        <ele>780.2</ele>
        <time>2026-05-12T14:15:11Z</time>
      </trkpt>
      <trkpt lat="45.9431" lon="5.59463">
        <ele>780.2</ele>
        <time>2026-05-12T14:15:12Z</time>
      </trkpt>
      <trkpt lat="45.94313" lon="5.59463">
        <ele>780.2</ele>
        <time>2026-05-12T14:15:13Z</time>
      </trkpt>
      <trkpt lat="45.94315" lon="5.59463">
        <ele>780.2</ele>
        <time>2026-05-12T14:15:14Z</time>
      </trkpt>
      <trkpt lat="45.94318" lon="5.59463">
        <ele>779.8</ele>
        <time>2026-05-12T14:15:15Z</time>
      </trkpt>
      <trkpt lat="45.94322" lon="5.59462">
        <ele>779.8</ele>
        <time>2026-05-12T14:15:16Z</time>
      </trkpt>
      <trkpt lat="45.94325" lon="5.59462">
        <ele>779.8</ele>
        <time>2026-05-12T14:15:17Z</time>
      </trkpt>
      <trkpt lat="45.94329" lon="5.59461">
        <ele>779.8</ele>
        <time>2026-05-12T14:15:18Z</time>
      </trkpt>
      <trkpt lat="45.94332" lon="5.59459">
        <ele>779.4</ele>
        <time>2026-05-12T14:15:19Z</time>
      </trkpt>
      <trkpt lat="45.94336" lon="5.59458">
        <ele>779.4</ele>
        <time>2026-05-12T14:15:20Z</time>
      </trkpt>
      <trkpt lat="45.9434" lon="5.59455">
        <ele>779.4</ele>
        <time>2026-05-12T14:15:21Z</time>
      </trkpt>
      <trkpt lat="45.94343" lon="5.59455">
        <ele>779.2</ele>
        <time>2026-05-12T14:15:22Z</time>
      </trkpt>
      <trkpt lat="45.94347" lon="5.59454">
        <ele>779.2</ele>
        <time>2026-05-12T14:15:23Z</time>
      </trkpt>
      <trkpt lat="45.94349" lon="5.59454">
        <ele>779.2</ele>
        <time>2026-05-12T14:15:24Z</time>
      </trkpt>
      <trkpt lat="45.94351" lon="5.59453">
        <ele>779.2</ele>
        <time>2026-05-12T14:15:25Z</time>
      </trkpt>
      <trkpt lat="45.94355" lon="5.59452">
        <ele>779.2</ele>
        <time>2026-05-12T14:15:26Z</time>
      </trkpt>
      <trkpt lat="45.94358" lon="5.59451">
        <ele>779.2</ele>
        <time>2026-05-12T14:15:27Z</time>
      </trkpt>
      <trkpt lat="45.94362" lon="5.5945">
        <ele>779.2</ele>
        <time>2026-05-12T14:15:28Z</time>
      </trkpt>
      <trkpt lat="45.94365" lon="5.59449">
        <ele>779.2</ele>
        <time>2026-05-12T14:15:29Z</time>
      </trkpt>
      <trkpt lat="45.94367" lon="5.59448">
        <ele>779.2</ele>
        <time>2026-05-12T14:15:30Z</time>
      </trkpt>
      <trkpt lat="45.94371" lon="5.59447">
        <ele>778.8</ele>
        <time>2026-05-12T14:15:31Z</time>
      </trkpt>
      <trkpt lat="45.94374" lon="5.59446">
        <ele>779.2</ele>
        <time>2026-05-12T14:15:32Z</time>
      </trkpt>
      <trkpt lat="45.94377" lon="5.59445">
        <ele>779.2</ele>
        <time>2026-05-12T14:15:33Z</time>
      </trkpt>
      <trkpt lat="45.94381" lon="5.59444">
        <ele>779.2</ele>
        <time>2026-05-12T14:15:34Z</time>
      </trkpt>
      <trkpt lat="45.94384" lon="5.59444">
        <ele>779.2</ele>
        <time>2026-05-12T14:15:35Z</time>
      </trkpt>
      <trkpt lat="45.94387" lon="5.59443">
        <ele>779.2</ele>
        <time>2026-05-12T14:15:36Z</time>
      </trkpt>
      <trkpt lat="45.94391" lon="5.59442">
        <ele>779.2</ele>
        <time>2026-05-12T14:15:37Z</time>
      </trkpt>
      <trkpt lat="45.94395" lon="5.59442">
        <ele>778.8</ele>
        <time>2026-05-12T14:15:38Z</time>
      </trkpt>
      <trkpt lat="45.94399" lon="5.59441">
        <ele>778.8</ele>
        <time>2026-05-12T14:15:39Z</time>
      </trkpt>
      <trkpt lat="45.94403" lon="5.5944">
        <ele>778.8</ele>
        <time>2026-05-12T14:15:40Z</time>
      </trkpt>
      <trkpt lat="45.94406" lon="5.59439">
        <ele>779</ele>
        <time>2026-05-12T14:15:41Z</time>
      </trkpt>
      <trkpt lat="45.9441" lon="5.59438">
        <ele>779</ele>
        <time>2026-05-12T14:15:42Z</time>
      </trkpt>
      <trkpt lat="45.94414" lon="5.59437">
        <ele>779</ele>
        <time>2026-05-12T14:15:43Z</time>
      </trkpt>
      <trkpt lat="45.94417" lon="5.59437">
        <ele>779.2</ele>
        <time>2026-05-12T14:15:44Z</time>
      </trkpt>
      <trkpt lat="45.94421" lon="5.59436">
        <ele>779.2</ele>
        <time>2026-05-12T14:15:45Z</time>
      </trkpt>
      <trkpt lat="45.94424" lon="5.59435">
        <ele>779.2</ele>
        <time>2026-05-12T14:15:46Z</time>
      </trkpt>
      <trkpt lat="45.94428" lon="5.59435">
        <ele>778.8</ele>
        <time>2026-05-12T14:15:47Z</time>
      </trkpt>
      <trkpt lat="45.94432" lon="5.59434">
        <ele>778.4</ele>
        <time>2026-05-12T14:15:48Z</time>
      </trkpt>
      <trkpt lat="45.94435" lon="5.59433">
        <ele>778.4</ele>
        <time>2026-05-12T14:15:49Z</time>
      </trkpt>
      <trkpt lat="45.94439" lon="5.59432">
        <ele>778</ele>
        <time>2026-05-12T14:15:50Z</time>
      </trkpt>
      <trkpt lat="45.94442" lon="5.59431">
        <ele>778</ele>
        <time>2026-05-12T14:15:51Z</time>
      </trkpt>
      <trkpt lat="45.94446" lon="5.59431">
        <ele>778</ele>
        <time>2026-05-12T14:15:52Z</time>
      </trkpt>
      <trkpt lat="45.94449" lon="5.5943">
        <ele>778</ele>
        <time>2026-05-12T14:15:53Z</time>
      </trkpt>
      <trkpt lat="45.94453" lon="5.59429">
        <ele>778</ele>
        <time>2026-05-12T14:15:54Z</time>
      </trkpt>
      <trkpt lat="45.94456" lon="5.59429">
        <ele>778.4</ele>
        <time>2026-05-12T14:15:55Z</time>
      </trkpt>
      <trkpt lat="45.94459" lon="5.59428">
        <ele>778.2</ele>
        <time>2026-05-12T14:15:56Z</time>
      </trkpt>
      <trkpt lat="45.94462" lon="5.59427">
        <ele>778.2</ele>
        <time>2026-05-12T14:15:57Z</time>
      </trkpt>
      <trkpt lat="45.94466" lon="5.59427">
        <ele>778.2</ele>
        <time>2026-05-12T14:15:58Z</time>
      </trkpt>
      <trkpt lat="45.94469" lon="5.59426">
        <ele>778.2</ele>
        <time>2026-05-12T14:15:59Z</time>
      </trkpt>
      <trkpt lat="45.94472" lon="5.59424">
        <ele>778.2</ele>
        <time>2026-05-12T14:16:00Z</time>
      </trkpt>
      <trkpt lat="45.94475" lon="5.59423">
        <ele>778.2</ele>
        <time>2026-05-12T14:16:01Z</time>
      </trkpt>
      <trkpt lat="45.94478" lon="5.59422">
        <ele>778</ele>
        <time>2026-05-12T14:16:02Z</time>
      </trkpt>
      <trkpt lat="45.94483" lon="5.5942">
        <ele>778</ele>
        <time>2026-05-12T14:16:03Z</time>
      </trkpt>
      <trkpt lat="45.94485" lon="5.59418">
        <ele>778</ele>
        <time>2026-05-12T14:16:04Z</time>
      </trkpt>
      <trkpt lat="45.94489" lon="5.59415">
        <ele>777.8</ele>
        <time>2026-05-12T14:16:05Z</time>
      </trkpt>
      <trkpt lat="45.94491" lon="5.59413">
        <ele>777.8</ele>
        <time>2026-05-12T14:16:06Z</time>
      </trkpt>
      <trkpt lat="45.94494" lon="5.5941">
        <ele>776.8</ele>
        <time>2026-05-12T14:16:07Z</time>
      </trkpt>
      <trkpt lat="45.94494" lon="5.5941">
        <ele>777</ele>
        <time>2026-05-12T14:16:08Z</time>
      </trkpt>
      <trkpt lat="45.94494" lon="5.5941">
        <ele>777</ele>
        <time>2026-05-12T14:16:09Z</time>
      </trkpt>
      <trkpt lat="45.94503" lon="5.59398">
        <ele>777.4</ele>
        <time>2026-05-12T14:16:11Z</time>
      </trkpt>
      <trkpt lat="45.94506" lon="5.59395">
        <ele>777.4</ele>
        <time>2026-05-12T14:16:12Z</time>
      </trkpt>
      <trkpt lat="45.94509" lon="5.59392">
        <ele>777.4</ele>
        <time>2026-05-12T14:16:13Z</time>
      </trkpt>
      <trkpt lat="45.94513" lon="5.59389">
        <ele>777.4</ele>
        <time>2026-05-12T14:16:14Z</time>
      </trkpt>
      <trkpt lat="45.94515" lon="5.59385">
        <ele>777.2</ele>
        <time>2026-05-12T14:16:15Z</time>
      </trkpt>
      <trkpt lat="45.94518" lon="5.59381">
        <ele>777.4</ele>
        <time>2026-05-12T14:16:16Z</time>
      </trkpt>
      <trkpt lat="45.94521" lon="5.59377">
        <ele>777.4</ele>
        <time>2026-05-12T14:16:17Z</time>
      </trkpt>
      <trkpt lat="45.94523" lon="5.59374">
        <ele>777.8</ele>
        <time>2026-05-12T14:16:18Z</time>
      </trkpt>
      <trkpt lat="45.94526" lon="5.59371">
        <ele>778</ele>
        <time>2026-05-12T14:16:19Z</time>
      </trkpt>
      <trkpt lat="45.94529" lon="5.59369">
        <ele>778</ele>
        <time>2026-05-12T14:16:20Z</time>
      </trkpt>
      <trkpt lat="45.94531" lon="5.59367">
        <ele>778</ele>
        <time>2026-05-12T14:16:21Z</time>
      </trkpt>
      <trkpt lat="45.94535" lon="5.59365">
        <ele>778</ele>
        <time>2026-05-12T14:16:22Z</time>
      </trkpt>
      <trkpt lat="45.94539" lon="5.59363">
        <ele>778</ele>
        <time>2026-05-12T14:16:23Z</time>
      </trkpt>
      <trkpt lat="45.94542" lon="5.59361">
        <ele>777.6</ele>
        <time>2026-05-12T14:16:24Z</time>
      </trkpt>
      <trkpt lat="45.94545" lon="5.5936">
        <ele>777.6</ele>
        <time>2026-05-12T14:16:25Z</time>
      </trkpt>
      <trkpt lat="45.94548" lon="5.59358">
        <ele>778</ele>
        <time>2026-05-12T14:16:26Z</time>
      </trkpt>
      <trkpt lat="45.94552" lon="5.59357">
        <ele>777.4</ele>
        <time>2026-05-12T14:16:27Z</time>
      </trkpt>
      <trkpt lat="45.94556" lon="5.59356">
        <ele>777.6</ele>
        <time>2026-05-12T14:16:28Z</time>
      </trkpt>
      <trkpt lat="45.94559" lon="5.59354">
        <ele>777.4</ele>
        <time>2026-05-12T14:16:29Z</time>
      </trkpt>
      <trkpt lat="45.94563" lon="5.59353">
        <ele>777.4</ele>
        <time>2026-05-12T14:16:30Z</time>
      </trkpt>
      <trkpt lat="45.94567" lon="5.59352">
        <ele>777.4</ele>
        <time>2026-05-12T14:16:31Z</time>
      </trkpt>
      <trkpt lat="45.94571" lon="5.59351">
        <ele>777.4</ele>
        <time>2026-05-12T14:16:32Z</time>
      </trkpt>
      <trkpt lat="45.94575" lon="5.59351">
        <ele>778.2</ele>
        <time>2026-05-12T14:16:33Z</time>
      </trkpt>
      <trkpt lat="45.94579" lon="5.5935">
        <ele>778.2</ele>
        <time>2026-05-12T14:16:34Z</time>
      </trkpt>
      <trkpt lat="45.94582" lon="5.59349">
        <ele>778.2</ele>
        <time>2026-05-12T14:16:35Z</time>
      </trkpt>
      <trkpt lat="45.94585" lon="5.59347">
        <ele>778.2</ele>
        <time>2026-05-12T14:16:36Z</time>
      </trkpt>
      <trkpt lat="45.94588" lon="5.59346">
        <ele>778.2</ele>
        <time>2026-05-12T14:16:37Z</time>
      </trkpt>
      <trkpt lat="45.94591" lon="5.59345">
        <ele>778.2</ele>
        <time>2026-05-12T14:16:38Z</time>
      </trkpt>
      <trkpt lat="45.94594" lon="5.59344">
        <ele>778.2</ele>
        <time>2026-05-12T14:16:39Z</time>
      </trkpt>
      <trkpt lat="45.94597" lon="5.59343">
        <ele>778.4</ele>
        <time>2026-05-12T14:16:40Z</time>
      </trkpt>
      <trkpt lat="45.946" lon="5.59342">
        <ele>778.4</ele>
        <time>2026-05-12T14:16:41Z</time>
      </trkpt>
      <trkpt lat="45.94602" lon="5.59341">
        <ele>779</ele>
        <time>2026-05-12T14:16:42Z</time>
      </trkpt>
      <trkpt lat="45.94605" lon="5.5934">
        <ele>778.6</ele>
        <time>2026-05-12T14:16:43Z</time>
      </trkpt>
      <trkpt lat="45.94608" lon="5.59338">
        <ele>778.8</ele>
        <time>2026-05-12T14:16:44Z</time>
      </trkpt>
      <trkpt lat="45.94611" lon="5.59337">
        <ele>778.8</ele>
        <time>2026-05-12T14:16:45Z</time>
      </trkpt>
      <trkpt lat="45.94613" lon="5.59337">
        <ele>779.2</ele>
        <time>2026-05-12T14:16:46Z</time>
      </trkpt>
      <trkpt lat="45.94615" lon="5.59335">
        <ele>779.2</ele>
        <time>2026-05-12T14:16:47Z</time>
      </trkpt>
      <trkpt lat="45.94618" lon="5.59333">
        <ele>779.2</ele>
        <time>2026-05-12T14:16:48Z</time>
      </trkpt>
      <trkpt lat="45.9462" lon="5.59331">
        <ele>779.2</ele>
        <time>2026-05-12T14:16:49Z</time>
      </trkpt>
      <trkpt lat="45.94623" lon="5.59329">
        <ele>779.4</ele>
        <time>2026-05-12T14:16:50Z</time>
      </trkpt>
      <trkpt lat="45.94626" lon="5.59327">
        <ele>779.4</ele>
        <time>2026-05-12T14:16:51Z</time>
      </trkpt>
      <trkpt lat="45.94628" lon="5.59325">
        <ele>779.4</ele>
        <time>2026-05-12T14:16:52Z</time>
      </trkpt>
      <trkpt lat="45.9463" lon="5.59323">
        <ele>779.4</ele>
        <time>2026-05-12T14:16:53Z</time>
      </trkpt>
      <trkpt lat="45.94633" lon="5.59321">
        <ele>779.4</ele>
        <time>2026-05-12T14:16:54Z</time>
      </trkpt>
      <trkpt lat="45.94633" lon="5.59321">
        <ele>779.4</ele>
        <time>2026-05-12T14:16:55Z</time>
      </trkpt>
      <trkpt lat="45.94633" lon="5.59321">
        <ele>778.8</ele>
        <time>2026-05-12T14:16:56Z</time>
      </trkpt>
      <trkpt lat="45.94639" lon="5.59313">
        <ele>778.8</ele>
        <time>2026-05-12T14:16:57Z</time>
      </trkpt>
      <trkpt lat="45.9464" lon="5.59311">
        <ele>779.4</ele>
        <time>2026-05-12T14:16:58Z</time>
      </trkpt>
      <trkpt lat="45.94642" lon="5.59309">
        <ele>779.4</ele>
        <time>2026-05-12T14:16:59Z</time>
      </trkpt>
      <trkpt lat="45.94644" lon="5.59306">
        <ele>780</ele>
        <time>2026-05-12T14:17:00Z</time>
      </trkpt>
      <trkpt lat="45.94646" lon="5.59303">
        <ele>779.8</ele>
        <time>2026-05-12T14:17:01Z</time>
      </trkpt>
      <trkpt lat="45.94647" lon="5.59301">
        <ele>780.4</ele>
        <time>2026-05-12T14:17:02Z</time>
      </trkpt>
      <trkpt lat="45.94649" lon="5.59298">
        <ele>780.4</ele>
        <time>2026-05-12T14:17:03Z</time>
      </trkpt>
      <trkpt lat="45.94651" lon="5.59295">
        <ele>780.8</ele>
        <time>2026-05-12T14:17:04Z</time>
      </trkpt>
      <trkpt lat="45.94653" lon="5.59292">
        <ele>780.8</ele>
        <time>2026-05-12T14:17:05Z</time>
      </trkpt>
      <trkpt lat="45.94655" lon="5.59289">
        <ele>780.8</ele>
        <time>2026-05-12T14:17:06Z</time>
      </trkpt>
      <trkpt lat="45.94657" lon="5.59286">
        <ele>780.8</ele>
        <time>2026-05-12T14:17:07Z</time>
      </trkpt>
      <trkpt lat="45.94659" lon="5.59284">
        <ele>780.8</ele>
        <time>2026-05-12T14:17:08Z</time>
      </trkpt>
      <trkpt lat="45.94661" lon="5.59282">
        <ele>780.8</ele>
        <time>2026-05-12T14:17:09Z</time>
      </trkpt>
      <trkpt lat="45.94663" lon="5.59279">
        <ele>780.8</ele>
        <time>2026-05-12T14:17:10Z</time>
      </trkpt>
      <trkpt lat="45.94666" lon="5.59276">
        <ele>780.8</ele>
        <time>2026-05-12T14:17:11Z</time>
      </trkpt>
      <trkpt lat="45.94669" lon="5.59273">
        <ele>780.4</ele>
        <time>2026-05-12T14:17:12Z</time>
      </trkpt>
      <trkpt lat="45.94671" lon="5.59271">
        <ele>780</ele>
        <time>2026-05-12T14:17:13Z</time>
      </trkpt>
      <trkpt lat="45.94674" lon="5.59268">
        <ele>780</ele>
        <time>2026-05-12T14:17:14Z</time>
      </trkpt>
      <trkpt lat="45.94676" lon="5.59266">
        <ele>780</ele>
        <time>2026-05-12T14:17:15Z</time>
      </trkpt>
      <trkpt lat="45.94679" lon="5.59264">
        <ele>779.6</ele>
        <time>2026-05-12T14:17:16Z</time>
      </trkpt>
      <trkpt lat="45.94682" lon="5.59262">
        <ele>779.6</ele>
        <time>2026-05-12T14:17:17Z</time>
      </trkpt>
      <trkpt lat="45.94685" lon="5.59259">
        <ele>779.6</ele>
        <time>2026-05-12T14:17:18Z</time>
      </trkpt>
      <trkpt lat="45.94688" lon="5.59256">
        <ele>779.6</ele>
        <time>2026-05-12T14:17:19Z</time>
      </trkpt>
      <trkpt lat="45.9469" lon="5.59254">
        <ele>779.6</ele>
        <time>2026-05-12T14:17:20Z</time>
      </trkpt>
      <trkpt lat="45.94693" lon="5.59251">
        <ele>779</ele>
        <time>2026-05-12T14:17:21Z</time>
      </trkpt>
      <trkpt lat="45.94697" lon="5.59249">
        <ele>779.4</ele>
        <time>2026-05-12T14:17:22Z</time>
      </trkpt>
      <trkpt lat="45.947" lon="5.59246">
        <ele>779.4</ele>
        <time>2026-05-12T14:17:23Z</time>
      </trkpt>
      <trkpt lat="45.94702" lon="5.59242">
        <ele>779.4</ele>
        <time>2026-05-12T14:17:24Z</time>
      </trkpt>
      <trkpt lat="45.94705" lon="5.59239">
        <ele>779.4</ele>
        <time>2026-05-12T14:17:25Z</time>
      </trkpt>
      <trkpt lat="45.94708" lon="5.59236">
        <ele>779.6</ele>
        <time>2026-05-12T14:17:26Z</time>
      </trkpt>
      <trkpt lat="45.94711" lon="5.59234">
        <ele>779.8</ele>
        <time>2026-05-12T14:17:27Z</time>
      </trkpt>
      <trkpt lat="45.94713" lon="5.59231">
        <ele>779.8</ele>
        <time>2026-05-12T14:17:28Z</time>
      </trkpt>
      <trkpt lat="45.94716" lon="5.59229">
        <ele>780</ele>
        <time>2026-05-12T14:17:29Z</time>
      </trkpt>
      <trkpt lat="45.94718" lon="5.59228">
        <ele>779.8</ele>
        <time>2026-05-12T14:17:30Z</time>
      </trkpt>
      <trkpt lat="45.94722" lon="5.59225">
        <ele>779.8</ele>
        <time>2026-05-12T14:17:31Z</time>
      </trkpt>
      <trkpt lat="45.94725" lon="5.59222">
        <ele>780.2</ele>
        <time>2026-05-12T14:17:32Z</time>
      </trkpt>
      <trkpt lat="45.94729" lon="5.5922">
        <ele>780.2</ele>
        <time>2026-05-12T14:17:33Z</time>
      </trkpt>
      <trkpt lat="45.94732" lon="5.59217">
        <ele>780.2</ele>
        <time>2026-05-12T14:17:34Z</time>
      </trkpt>
      <trkpt lat="45.94735" lon="5.59216">
        <ele>780.2</ele>
        <time>2026-05-12T14:17:35Z</time>
      </trkpt>
      <trkpt lat="45.94739" lon="5.59214">
        <ele>780.2</ele>
        <time>2026-05-12T14:17:36Z</time>
      </trkpt>
      <trkpt lat="45.94742" lon="5.59214">
        <ele>780.6</ele>
        <time>2026-05-12T14:17:37Z</time>
      </trkpt>
      <trkpt lat="45.94746" lon="5.59212">
        <ele>780.4</ele>
        <time>2026-05-12T14:17:38Z</time>
      </trkpt>
      <trkpt lat="45.9475" lon="5.5921">
        <ele>780.4</ele>
        <time>2026-05-12T14:17:39Z</time>
      </trkpt>
      <trkpt lat="45.94753" lon="5.59209">
        <ele>780</ele>
        <time>2026-05-12T14:17:40Z</time>
      </trkpt>
      <trkpt lat="45.94757" lon="5.59205">
        <ele>780</ele>
        <time>2026-05-12T14:17:41Z</time>
      </trkpt>
      <trkpt lat="45.94761" lon="5.59203">
        <ele>780</ele>
        <time>2026-05-12T14:17:42Z</time>
      </trkpt>
      <trkpt lat="45.94764" lon="5.59201">
        <ele>780</ele>
        <time>2026-05-12T14:17:43Z</time>
      </trkpt>
      <trkpt lat="45.94769" lon="5.59199">
        <ele>779.8</ele>
        <time>2026-05-12T14:17:44Z</time>
      </trkpt>
      <trkpt lat="45.94773" lon="5.59197">
        <ele>780</ele>
        <time>2026-05-12T14:17:45Z</time>
      </trkpt>
      <trkpt lat="45.94775" lon="5.59196">
        <ele>780</ele>
        <time>2026-05-12T14:17:46Z</time>
      </trkpt>
      <trkpt lat="45.94778" lon="5.59194">
        <ele>779.6</ele>
        <time>2026-05-12T14:17:47Z</time>
      </trkpt>
      <trkpt lat="45.94781" lon="5.59192">
        <ele>779.6</ele>
        <time>2026-05-12T14:17:48Z</time>
      </trkpt>
      <trkpt lat="45.94784" lon="5.59191">
        <ele>779.6</ele>
        <time>2026-05-12T14:17:49Z</time>
      </trkpt>
      <trkpt lat="45.94787" lon="5.59188">
        <ele>779.6</ele>
        <time>2026-05-12T14:17:50Z</time>
      </trkpt>
      <trkpt lat="45.9479" lon="5.59188">
        <ele>780.2</ele>
        <time>2026-05-12T14:17:51Z</time>
      </trkpt>
      <trkpt lat="45.94792" lon="5.59186">
        <ele>780.2</ele>
        <time>2026-05-12T14:17:52Z</time>
      </trkpt>
      <trkpt lat="45.94796" lon="5.59184">
        <ele>779.6</ele>
        <time>2026-05-12T14:17:53Z</time>
      </trkpt>
      <trkpt lat="45.94798" lon="5.5918">
        <ele>779.6</ele>
        <time>2026-05-12T14:17:54Z</time>
      </trkpt>
      <trkpt lat="45.94801" lon="5.59178">
        <ele>779.6</ele>
        <time>2026-05-12T14:17:55Z</time>
      </trkpt>
      <trkpt lat="45.94804" lon="5.59177">
        <ele>779.6</ele>
        <time>2026-05-12T14:17:56Z</time>
      </trkpt>
      <trkpt lat="45.94807" lon="5.59175">
        <ele>779.6</ele>
        <time>2026-05-12T14:17:57Z</time>
      </trkpt>
      <trkpt lat="45.9481" lon="5.59173">
        <ele>780</ele>
        <time>2026-05-12T14:17:58Z</time>
      </trkpt>
      <trkpt lat="45.94813" lon="5.59171">
        <ele>780</ele>
        <time>2026-05-12T14:17:59Z</time>
      </trkpt>
      <trkpt lat="45.94817" lon="5.59169">
        <ele>780</ele>
        <time>2026-05-12T14:18:00Z</time>
      </trkpt>
      <trkpt lat="45.9482" lon="5.59167">
        <ele>780</ele>
        <time>2026-05-12T14:18:01Z</time>
      </trkpt>
      <trkpt lat="45.94824" lon="5.59165">
        <ele>780</ele>
        <time>2026-05-12T14:18:02Z</time>
      </trkpt>
      <trkpt lat="45.94827" lon="5.59163">
        <ele>780</ele>
        <time>2026-05-12T14:18:03Z</time>
      </trkpt>
      <trkpt lat="45.94831" lon="5.5916">
        <ele>780</ele>
        <time>2026-05-12T14:18:04Z</time>
      </trkpt>
      <trkpt lat="45.94834" lon="5.59158">
        <ele>780</ele>
        <time>2026-05-12T14:18:05Z</time>
      </trkpt>
      <trkpt lat="45.94837" lon="5.59155">
        <ele>780.2</ele>
        <time>2026-05-12T14:18:06Z</time>
      </trkpt>
      <trkpt lat="45.94839" lon="5.59153">
        <ele>780.2</ele>
        <time>2026-05-12T14:18:07Z</time>
      </trkpt>
      <trkpt lat="45.94842" lon="5.5915">
        <ele>779.8</ele>
        <time>2026-05-12T14:18:08Z</time>
      </trkpt>
      <trkpt lat="45.94845" lon="5.59147">
        <ele>779.8</ele>
        <time>2026-05-12T14:18:09Z</time>
      </trkpt>
      <trkpt lat="45.94848" lon="5.59145">
        <ele>780</ele>
        <time>2026-05-12T14:18:10Z</time>
      </trkpt>
      <trkpt lat="45.94851" lon="5.59142">
        <ele>780.6</ele>
        <time>2026-05-12T14:18:11Z</time>
      </trkpt>
      <trkpt lat="45.94854" lon="5.5914">
        <ele>780.6</ele>
        <time>2026-05-12T14:18:12Z</time>
      </trkpt>
      <trkpt lat="45.94856" lon="5.59138">
        <ele>780.6</ele>
        <time>2026-05-12T14:18:13Z</time>
      </trkpt>
      <trkpt lat="45.94859" lon="5.59136">
        <ele>780.4</ele>
        <time>2026-05-12T14:18:14Z</time>
      </trkpt>
      <trkpt lat="45.94861" lon="5.59134">
        <ele>780.4</ele>
        <time>2026-05-12T14:18:15Z</time>
      </trkpt>
      <trkpt lat="45.94864" lon="5.59131">
        <ele>780.8</ele>
        <time>2026-05-12T14:18:16Z</time>
      </trkpt>
      <trkpt lat="45.94867" lon="5.59128">
        <ele>781.2</ele>
        <time>2026-05-12T14:18:17Z</time>
      </trkpt>
      <trkpt lat="45.9487" lon="5.59125">
        <ele>781.2</ele>
        <time>2026-05-12T14:18:18Z</time>
      </trkpt>
      <trkpt lat="45.94873" lon="5.59123">
        <ele>781.2</ele>
        <time>2026-05-12T14:18:19Z</time>
      </trkpt>
      <trkpt lat="45.94875" lon="5.59121">
        <ele>781.2</ele>
        <time>2026-05-12T14:18:20Z</time>
      </trkpt>
      <trkpt lat="45.94878" lon="5.59118">
        <ele>781.2</ele>
        <time>2026-05-12T14:18:21Z</time>
      </trkpt>
      <trkpt lat="45.94881" lon="5.59115">
        <ele>781.4</ele>
        <time>2026-05-12T14:18:22Z</time>
      </trkpt>
      <trkpt lat="45.94884" lon="5.59113">
        <ele>781.4</ele>
        <time>2026-05-12T14:18:23Z</time>
      </trkpt>
      <trkpt lat="45.94888" lon="5.59111">
        <ele>781.4</ele>
        <time>2026-05-12T14:18:24Z</time>
      </trkpt>
      <trkpt lat="45.94891" lon="5.59109">
        <ele>781.4</ele>
        <time>2026-05-12T14:18:25Z</time>
      </trkpt>
      <trkpt lat="45.94895" lon="5.59106">
        <ele>781.4</ele>
        <time>2026-05-12T14:18:26Z</time>
      </trkpt>
      <trkpt lat="45.949" lon="5.59104">
        <ele>781.4</ele>
        <time>2026-05-12T14:18:27Z</time>
      </trkpt>
      <trkpt lat="45.94904" lon="5.59101">
        <ele>781.4</ele>
        <time>2026-05-12T14:18:28Z</time>
      </trkpt>
      <trkpt lat="45.94907" lon="5.59099">
        <ele>781.4</ele>
        <time>2026-05-12T14:18:29Z</time>
      </trkpt>
      <trkpt lat="45.94911" lon="5.59097">
        <ele>781</ele>
        <time>2026-05-12T14:18:30Z</time>
      </trkpt>
      <trkpt lat="45.94915" lon="5.59095">
        <ele>780.8</ele>
        <time>2026-05-12T14:18:31Z</time>
      </trkpt>
      <trkpt lat="45.94918" lon="5.59093">
        <ele>780.8</ele>
        <time>2026-05-12T14:18:32Z</time>
      </trkpt>
      <trkpt lat="45.94922" lon="5.59091">
        <ele>780.8</ele>
        <time>2026-05-12T14:18:33Z</time>
      </trkpt>
      <trkpt lat="45.94925" lon="5.5909">
        <ele>780.8</ele>
        <time>2026-05-12T14:18:34Z</time>
      </trkpt>
      <trkpt lat="45.94928" lon="5.59089">
        <ele>780.4</ele>
        <time>2026-05-12T14:18:35Z</time>
      </trkpt>
      <trkpt lat="45.94933" lon="5.59087">
        <ele>780.4</ele>
        <time>2026-05-12T14:18:36Z</time>
      </trkpt>
      <trkpt lat="45.94936" lon="5.59086">
        <ele>780.4</ele>
        <time>2026-05-12T14:18:37Z</time>
      </trkpt>
      <trkpt lat="45.94939" lon="5.59083">
        <ele>780.4</ele>
        <time>2026-05-12T14:18:38Z</time>
      </trkpt>
      <trkpt lat="45.94943" lon="5.59082">
        <ele>780.2</ele>
        <time>2026-05-12T14:18:39Z</time>
      </trkpt>
      <trkpt lat="45.94947" lon="5.5908">
        <ele>780.2</ele>
        <time>2026-05-12T14:18:40Z</time>
      </trkpt>
      <trkpt lat="45.9495" lon="5.5908">
        <ele>780.2</ele>
        <time>2026-05-12T14:18:41Z</time>
      </trkpt>
      <trkpt lat="45.94955" lon="5.59078">
        <ele>780.2</ele>
        <time>2026-05-12T14:18:42Z</time>
      </trkpt>
      <trkpt lat="45.94958" lon="5.59076">
        <ele>779.6</ele>
        <time>2026-05-12T14:18:43Z</time>
      </trkpt>
      <trkpt lat="45.94961" lon="5.59075">
        <ele>780.2</ele>
        <time>2026-05-12T14:18:44Z</time>
      </trkpt>
      <trkpt lat="45.94964" lon="5.59072">
        <ele>780.2</ele>
        <time>2026-05-12T14:18:45Z</time>
      </trkpt>
      <trkpt lat="45.94967" lon="5.59072">
        <ele>779.8</ele>
        <time>2026-05-12T14:18:46Z</time>
      </trkpt>
      <trkpt lat="45.9497" lon="5.5907">
        <ele>779.8</ele>
        <time>2026-05-12T14:18:47Z</time>
      </trkpt>
      <trkpt lat="45.94974" lon="5.59068">
        <ele>779.8</ele>
        <time>2026-05-12T14:18:48Z</time>
      </trkpt>
      <trkpt lat="45.94978" lon="5.59067">
        <ele>779.8</ele>
        <time>2026-05-12T14:18:49Z</time>
      </trkpt>
      <trkpt lat="45.94981" lon="5.59065">
        <ele>779.4</ele>
        <time>2026-05-12T14:18:50Z</time>
      </trkpt>
      <trkpt lat="45.94985" lon="5.59064">
        <ele>779.4</ele>
        <time>2026-05-12T14:18:51Z</time>
      </trkpt>
      <trkpt lat="45.94988" lon="5.59063">
        <ele>779.6</ele>
        <time>2026-05-12T14:18:52Z</time>
      </trkpt>
      <trkpt lat="45.94992" lon="5.59061">
        <ele>779.4</ele>
        <time>2026-05-12T14:18:53Z</time>
      </trkpt>
      <trkpt lat="45.94995" lon="5.59059">
        <ele>779</ele>
        <time>2026-05-12T14:18:54Z</time>
      </trkpt>
      <trkpt lat="45.94998" lon="5.59058">
        <ele>778.4</ele>
        <time>2026-05-12T14:18:55Z</time>
      </trkpt>
      <trkpt lat="45.95" lon="5.59056">
        <ele>778.6</ele>
        <time>2026-05-12T14:18:56Z</time>
      </trkpt>
      <trkpt lat="45.95003" lon="5.59055">
        <ele>778.6</ele>
        <time>2026-05-12T14:18:57Z</time>
      </trkpt>
      <trkpt lat="45.95005" lon="5.59054">
        <ele>779</ele>
        <time>2026-05-12T14:18:58Z</time>
      </trkpt>
      <trkpt lat="45.95007" lon="5.59053">
        <ele>779</ele>
        <time>2026-05-12T14:18:59Z</time>
      </trkpt>
      <trkpt lat="45.95009" lon="5.59052">
        <ele>779</ele>
        <time>2026-05-12T14:19:00Z</time>
      </trkpt>
      <trkpt lat="45.95011" lon="5.5905">
        <ele>779</ele>
        <time>2026-05-12T14:19:01Z</time>
      </trkpt>
      <trkpt lat="45.95013" lon="5.59049">
        <ele>779</ele>
        <time>2026-05-12T14:19:02Z</time>
      </trkpt>
      <trkpt lat="45.95015" lon="5.59048">
        <ele>778.6</ele>
        <time>2026-05-12T14:19:03Z</time>
      </trkpt>
      <trkpt lat="45.95016" lon="5.59047">
        <ele>778.8</ele>
        <time>2026-05-12T14:19:04Z</time>
      </trkpt>
      <trkpt lat="45.95018" lon="5.59046">
        <ele>778.8</ele>
        <time>2026-05-12T14:19:05Z</time>
      </trkpt>
      <trkpt lat="45.9502" lon="5.59045">
        <ele>778.8</ele>
        <time>2026-05-12T14:19:06Z</time>
      </trkpt>
      <trkpt lat="45.95021" lon="5.59044">
        <ele>779.2</ele>
        <time>2026-05-12T14:19:07Z</time>
      </trkpt>
      <trkpt lat="45.95022" lon="5.59042">
        <ele>779.2</ele>
        <time>2026-05-12T14:19:08Z</time>
      </trkpt>
      <trkpt lat="45.95024" lon="5.59041">
        <ele>779.2</ele>
        <time>2026-05-12T14:19:09Z</time>
      </trkpt>
      <trkpt lat="45.95025" lon="5.59039">
        <ele>779.2</ele>
        <time>2026-05-12T14:19:10Z</time>
      </trkpt>
      <trkpt lat="45.95026" lon="5.59038">
        <ele>779.2</ele>
        <time>2026-05-12T14:19:11Z</time>
      </trkpt>
      <trkpt lat="45.95028" lon="5.59037">
        <ele>779.2</ele>
        <time>2026-05-12T14:19:12Z</time>
      </trkpt>
      <trkpt lat="45.95029" lon="5.59036">
        <ele>779.2</ele>
        <time>2026-05-12T14:19:13Z</time>
      </trkpt>
      <trkpt lat="45.95031" lon="5.59035">
        <ele>779.2</ele>
        <time>2026-05-12T14:19:14Z</time>
      </trkpt>
      <trkpt lat="45.95033" lon="5.59033">
        <ele>779.2</ele>
        <time>2026-05-12T14:19:15Z</time>
      </trkpt>
      <trkpt lat="45.95034" lon="5.59033">
        <ele>779.2</ele>
        <time>2026-05-12T14:19:16Z</time>
      </trkpt>
      <trkpt lat="45.95036" lon="5.59034">
        <ele>779.4</ele>
        <time>2026-05-12T14:19:17Z</time>
      </trkpt>
      <trkpt lat="45.95037" lon="5.59035">
        <ele>779.4</ele>
        <time>2026-05-12T14:19:18Z</time>
      </trkpt>
      <trkpt lat="45.95037" lon="5.59036">
        <ele>779.4</ele>
        <time>2026-05-12T14:19:19Z</time>
      </trkpt>
      <trkpt lat="45.95036" lon="5.59037">
        <ele>779.4</ele>
        <time>2026-05-12T14:19:50Z</time>
      </trkpt>
      <trkpt lat="45.95036" lon="5.59036">
        <ele>779.4</ele>
        <time>2026-05-12T14:19:51Z</time>
      </trkpt>
      <trkpt lat="45.95035" lon="5.59035">
        <ele>779.4</ele>
        <time>2026-05-12T14:19:52Z</time>
      </trkpt>
      <trkpt lat="45.95035" lon="5.59035">
        <ele>779.4</ele>
        <time>2026-05-12T14:19:53Z</time>
      </trkpt>
      <trkpt lat="45.95037" lon="5.59032">
        <ele>779.6</ele>
        <time>2026-05-12T14:20:00Z</time>
      </trkpt>
      <trkpt lat="45.95038" lon="5.5903">
        <ele>779.6</ele>
        <time>2026-05-12T14:20:01Z</time>
      </trkpt>
      <trkpt lat="45.95038" lon="5.5903">
        <ele>779.6</ele>
        <time>2026-05-12T14:20:02Z</time>
      </trkpt>
      <trkpt lat="45.95038" lon="5.59028">
        <ele>779.6</ele>
        <time>2026-05-12T14:20:03Z</time>
      </trkpt>
      <trkpt lat="45.95038" lon="5.59026">
        <ele>779.6</ele>
        <time>2026-05-12T14:20:04Z</time>
      </trkpt>
      <trkpt lat="45.95038" lon="5.59023">
        <ele>780</ele>
        <time>2026-05-12T14:20:05Z</time>
      </trkpt>
      <trkpt lat="45.95038" lon="5.5902">
        <ele>780</ele>
        <time>2026-05-12T14:20:06Z</time>
      </trkpt>
      <trkpt lat="45.95039" lon="5.59018">
        <ele>780.2</ele>
        <time>2026-05-12T14:20:07Z</time>
      </trkpt>
      <trkpt lat="45.9504" lon="5.59017">
        <ele>780.2</ele>
        <time>2026-05-12T14:20:08Z</time>
      </trkpt>
      <trkpt lat="45.95041" lon="5.59016">
        <ele>780.6</ele>
        <time>2026-05-12T14:20:09Z</time>
      </trkpt>
      <trkpt lat="45.95042" lon="5.59015">
        <ele>780.6</ele>
        <time>2026-05-12T14:20:10Z</time>
      </trkpt>
      <trkpt lat="45.95042" lon="5.59014">
        <ele>780.6</ele>
        <time>2026-05-12T14:20:11Z</time>
      </trkpt>
      <trkpt lat="45.95043" lon="5.59012">
        <ele>780.8</ele>
        <time>2026-05-12T14:20:12Z</time>
      </trkpt>
      <trkpt lat="45.95044" lon="5.59011">
        <ele>780.8</ele>
        <time>2026-05-12T14:20:13Z</time>
      </trkpt>
      <trkpt lat="45.95046" lon="5.59007">
        <ele>781.2</ele>
        <time>2026-05-12T14:20:14Z</time>
      </trkpt>
      <trkpt lat="45.95047" lon="5.59006">
        <ele>781.4</ele>
        <time>2026-05-12T14:20:15Z</time>
      </trkpt>
      <trkpt lat="45.95047" lon="5.59004">
        <ele>781.8</ele>
        <time>2026-05-12T14:20:16Z</time>
      </trkpt>
      <trkpt lat="45.95048" lon="5.59002">
        <ele>781.8</ele>
        <time>2026-05-12T14:20:17Z</time>
      </trkpt>
      <trkpt lat="45.95049" lon="5.59001">
        <ele>782.2</ele>
        <time>2026-05-12T14:20:18Z</time>
      </trkpt>
      <trkpt lat="45.95049" lon="5.58999">
        <ele>782.2</ele>
        <time>2026-05-12T14:20:19Z</time>
      </trkpt>
      <trkpt lat="45.9505" lon="5.58998">
        <ele>782.2</ele>
        <time>2026-05-12T14:20:20Z</time>
      </trkpt>
      <trkpt lat="45.95051" lon="5.58997">
        <ele>782.6</ele>
        <time>2026-05-12T14:20:21Z</time>
      </trkpt>
      <trkpt lat="45.95053" lon="5.58996">
        <ele>782.6</ele>
        <time>2026-05-12T14:20:22Z</time>
      </trkpt>
      <trkpt lat="45.95054" lon="5.58996">
        <ele>782.6</ele>
        <time>2026-05-12T14:20:23Z</time>
      </trkpt>
      <trkpt lat="45.95056" lon="5.58995">
        <ele>782.6</ele>
        <time>2026-05-12T14:20:24Z</time>
      </trkpt>
      <trkpt lat="45.95057" lon="5.58995">
        <ele>782.2</ele>
        <time>2026-05-12T14:20:25Z</time>
      </trkpt>
      <trkpt lat="45.95059" lon="5.58994">
        <ele>782.6</ele>
        <time>2026-05-12T14:20:26Z</time>
      </trkpt>
      <trkpt lat="45.9506" lon="5.58993">
        <ele>782.8</ele>
        <time>2026-05-12T14:20:27Z</time>
      </trkpt>
      <trkpt lat="45.95062" lon="5.58992">
        <ele>782.8</ele>
        <time>2026-05-12T14:20:28Z</time>
      </trkpt>
      <trkpt lat="45.95063" lon="5.58992">
        <ele>783.2</ele>
        <time>2026-05-12T14:20:29Z</time>
      </trkpt>
      <trkpt lat="45.95063" lon="5.58991">
        <ele>783.2</ele>
        <time>2026-05-12T14:20:30Z</time>
      </trkpt>
      <trkpt lat="45.95064" lon="5.5899">
        <ele>783.4</ele>
        <time>2026-05-12T14:20:31Z</time>
      </trkpt>
      <trkpt lat="45.95066" lon="5.58988">
        <ele>783.8</ele>
        <time>2026-05-12T14:20:32Z</time>
      </trkpt>
      <trkpt lat="45.95067" lon="5.58987">
        <ele>783.8</ele>
        <time>2026-05-12T14:20:33Z</time>
      </trkpt>
      <trkpt lat="45.95068" lon="5.58985">
        <ele>783.8</ele>
        <time>2026-05-12T14:20:34Z</time>
      </trkpt>
      <trkpt lat="45.9507" lon="5.58984">
        <ele>784.2</ele>
        <time>2026-05-12T14:20:35Z</time>
      </trkpt>
      <trkpt lat="45.95071" lon="5.58983">
        <ele>784.2</ele>
        <time>2026-05-12T14:20:36Z</time>
      </trkpt>
      <trkpt lat="45.95073" lon="5.58982">
        <ele>784.6</ele>
        <time>2026-05-12T14:20:37Z</time>
      </trkpt>
      <trkpt lat="45.95074" lon="5.58982">
        <ele>785</ele>
        <time>2026-05-12T14:20:38Z</time>
      </trkpt>
      <trkpt lat="45.95076" lon="5.58981">
        <ele>785</ele>
        <time>2026-05-12T14:20:39Z</time>
      </trkpt>
      <trkpt lat="45.95077" lon="5.5898">
        <ele>785</ele>
        <time>2026-05-12T14:20:40Z</time>
      </trkpt>
      <trkpt lat="45.95078" lon="5.58979">
        <ele>785.2</ele>
        <time>2026-05-12T14:20:41Z</time>
      </trkpt>
      <trkpt lat="45.95079" lon="5.58978">
        <ele>785.2</ele>
        <time>2026-05-12T14:20:42Z</time>
      </trkpt>
      <trkpt lat="45.9508" lon="5.58976">
        <ele>785</ele>
        <time>2026-05-12T14:20:43Z</time>
      </trkpt>
      <trkpt lat="45.95081" lon="5.58975">
        <ele>785</ele>
        <time>2026-05-12T14:20:44Z</time>
      </trkpt>
      <trkpt lat="45.95083" lon="5.58974">
        <ele>785.2</ele>
        <time>2026-05-12T14:20:45Z</time>
      </trkpt>
      <trkpt lat="45.95085" lon="5.58973">
        <ele>785.2</ele>
        <time>2026-05-12T14:20:46Z</time>
      </trkpt>
      <trkpt lat="45.95088" lon="5.58972">
        <ele>785.2</ele>
        <time>2026-05-12T14:20:47Z</time>
      </trkpt>
      <trkpt lat="45.9509" lon="5.58971">
        <ele>785.2</ele>
        <time>2026-05-12T14:20:48Z</time>
      </trkpt>
      <trkpt lat="45.95091" lon="5.5897">
        <ele>785.2</ele>
        <time>2026-05-12T14:20:49Z</time>
      </trkpt>
      <trkpt lat="45.95093" lon="5.58969">
        <ele>785.2</ele>
        <time>2026-05-12T14:20:50Z</time>
      </trkpt>
      <trkpt lat="45.95094" lon="5.58967">
        <ele>785.2</ele>
        <time>2026-05-12T14:20:51Z</time>
      </trkpt>
      <trkpt lat="45.95096" lon="5.58966">
        <ele>785.6</ele>
        <time>2026-05-12T14:20:52Z</time>
      </trkpt>
      <trkpt lat="45.95098" lon="5.58965">
        <ele>785.6</ele>
        <time>2026-05-12T14:20:53Z</time>
      </trkpt>
      <trkpt lat="45.951" lon="5.58964">
        <ele>785.8</ele>
        <time>2026-05-12T14:20:54Z</time>
      </trkpt>
      <trkpt lat="45.95101" lon="5.58963">
        <ele>785.8</ele>
        <time>2026-05-12T14:20:55Z</time>
      </trkpt>
      <trkpt lat="45.95103" lon="5.58962">
        <ele>785.8</ele>
        <time>2026-05-12T14:20:56Z</time>
      </trkpt>
      <trkpt lat="45.95105" lon="5.5896">
        <ele>785.8</ele>
        <time>2026-05-12T14:20:57Z</time>
      </trkpt>
      <trkpt lat="45.95107" lon="5.58959">
        <ele>785.8</ele>
        <time>2026-05-12T14:20:58Z</time>
      </trkpt>
      <trkpt lat="45.95109" lon="5.58958">
        <ele>785.8</ele>
        <time>2026-05-12T14:20:59Z</time>
      </trkpt>
      <trkpt lat="45.95111" lon="5.58956">
        <ele>786.2</ele>
        <time>2026-05-12T14:21:00Z</time>
      </trkpt>
      <trkpt lat="45.95113" lon="5.58955">
        <ele>786.2</ele>
        <time>2026-05-12T14:21:01Z</time>
      </trkpt>
      <trkpt lat="45.95114" lon="5.58954">
        <ele>786.2</ele>
        <time>2026-05-12T14:21:02Z</time>
      </trkpt>
      <trkpt lat="45.95116" lon="5.58954">
        <ele>786.2</ele>
        <time>2026-05-12T14:21:03Z</time>
      </trkpt>
      <trkpt lat="45.95117" lon="5.58954">
        <ele>786.2</ele>
        <time>2026-05-12T14:21:04Z</time>
      </trkpt>
      <trkpt lat="45.95119" lon="5.58953">
        <ele>786.4</ele>
        <time>2026-05-12T14:21:05Z</time>
      </trkpt>
      <trkpt lat="45.95121" lon="5.58952">
        <ele>786.6</ele>
        <time>2026-05-12T14:21:06Z</time>
      </trkpt>
      <trkpt lat="45.95121" lon="5.58952">
        <ele>786.6</ele>
        <time>2026-05-12T14:21:07Z</time>
      </trkpt>
      <trkpt lat="45.95121" lon="5.58951">
        <ele>787.2</ele>
        <time>2026-05-12T14:21:08Z</time>
      </trkpt>
      <trkpt lat="45.95121" lon="5.5895">
        <ele>787.4</ele>
        <time>2026-05-12T14:21:09Z</time>
      </trkpt>
      <trkpt lat="45.95122" lon="5.58949">
        <ele>787.4</ele>
        <time>2026-05-12T14:21:10Z</time>
      </trkpt>
      <trkpt lat="45.95124" lon="5.58948">
        <ele>787.8</ele>
        <time>2026-05-12T14:21:11Z</time>
      </trkpt>
      <trkpt lat="45.95126" lon="5.58946">
        <ele>787.8</ele>
        <time>2026-05-12T14:21:12Z</time>
      </trkpt>
      <trkpt lat="45.95128" lon="5.58944">
        <ele>787.8</ele>
        <time>2026-05-12T14:21:13Z</time>
      </trkpt>
      <trkpt lat="45.9513" lon="5.58943">
        <ele>787.8</ele>
        <time>2026-05-12T14:21:14Z</time>
      </trkpt>
      <trkpt lat="45.95133" lon="5.58942">
        <ele>787.8</ele>
        <time>2026-05-12T14:21:15Z</time>
      </trkpt>
      <trkpt lat="45.95135" lon="5.58941">
        <ele>787.8</ele>
        <time>2026-05-12T14:21:16Z</time>
      </trkpt>
      <trkpt lat="45.95137" lon="5.58939">
        <ele>788.2</ele>
        <time>2026-05-12T14:21:17Z</time>
      </trkpt>
      <trkpt lat="45.95139" lon="5.58938">
        <ele>788.2</ele>
        <time>2026-05-12T14:21:18Z</time>
      </trkpt>
      <trkpt lat="45.95141" lon="5.58937">
        <ele>788.2</ele>
        <time>2026-05-12T14:21:19Z</time>
      </trkpt>
      <trkpt lat="45.95143" lon="5.58935">
        <ele>788.6</ele>
        <time>2026-05-12T14:21:20Z</time>
      </trkpt>
      <trkpt lat="45.95145" lon="5.58933">
        <ele>788.6</ele>
        <time>2026-05-12T14:21:21Z</time>
      </trkpt>
      <trkpt lat="45.95147" lon="5.58931">
        <ele>789</ele>
        <time>2026-05-12T14:21:22Z</time>
      </trkpt>
      <trkpt lat="45.95148" lon="5.58929">
        <ele>789.2</ele>
        <time>2026-05-12T14:21:23Z</time>
      </trkpt>
      <trkpt lat="45.9515" lon="5.58928">
        <ele>789.4</ele>
        <time>2026-05-12T14:21:24Z</time>
      </trkpt>
      <trkpt lat="45.95152" lon="5.58926">
        <ele>789.4</ele>
        <time>2026-05-12T14:21:25Z</time>
      </trkpt>
      <trkpt lat="45.95154" lon="5.58924">
        <ele>789.8</ele>
        <time>2026-05-12T14:21:26Z</time>
      </trkpt>
      <trkpt lat="45.95156" lon="5.58922">
        <ele>789.8</ele>
        <time>2026-05-12T14:21:27Z</time>
      </trkpt>
      <trkpt lat="45.95157" lon="5.5892">
        <ele>789.8</ele>
        <time>2026-05-12T14:21:28Z</time>
      </trkpt>
      <trkpt lat="45.95159" lon="5.58919">
        <ele>789.8</ele>
        <time>2026-05-12T14:21:29Z</time>
      </trkpt>
      <trkpt lat="45.95161" lon="5.58918">
        <ele>790</ele>
        <time>2026-05-12T14:21:30Z</time>
      </trkpt>
      <trkpt lat="45.95163" lon="5.58918">
        <ele>790.2</ele>
        <time>2026-05-12T14:21:31Z</time>
      </trkpt>
      <trkpt lat="45.95164" lon="5.58917">
        <ele>790.4</ele>
        <time>2026-05-12T14:21:32Z</time>
      </trkpt>
      <trkpt lat="45.95166" lon="5.58916">
        <ele>790.4</ele>
        <time>2026-05-12T14:21:33Z</time>
      </trkpt>
      <trkpt lat="45.95168" lon="5.58915">
        <ele>790.8</ele>
        <time>2026-05-12T14:21:34Z</time>
      </trkpt>
      <trkpt lat="45.9517" lon="5.58914">
        <ele>790.8</ele>
        <time>2026-05-12T14:21:35Z</time>
      </trkpt>
      <trkpt lat="45.95171" lon="5.58914">
        <ele>790.8</ele>
        <time>2026-05-12T14:21:36Z</time>
      </trkpt>
      <trkpt lat="45.95173" lon="5.58913">
        <ele>791</ele>
        <time>2026-05-12T14:21:37Z</time>
      </trkpt>
      <trkpt lat="45.95175" lon="5.58912">
        <ele>791.2</ele>
        <time>2026-05-12T14:21:38Z</time>
      </trkpt>
      <trkpt lat="45.95176" lon="5.58911">
        <ele>791.6</ele>
        <time>2026-05-12T14:21:39Z</time>
      </trkpt>
      <trkpt lat="45.95178" lon="5.5891">
        <ele>791.6</ele>
        <time>2026-05-12T14:21:40Z</time>
      </trkpt>
      <trkpt lat="45.9518" lon="5.58909">
        <ele>791.8</ele>
        <time>2026-05-12T14:21:41Z</time>
      </trkpt>
      <trkpt lat="45.95182" lon="5.58907">
        <ele>791.8</ele>
        <time>2026-05-12T14:21:42Z</time>
      </trkpt>
      <trkpt lat="45.95183" lon="5.58905">
        <ele>791.8</ele>
        <time>2026-05-12T14:21:43Z</time>
      </trkpt>
      <trkpt lat="45.95184" lon="5.58904">
        <ele>791.8</ele>
        <time>2026-05-12T14:21:44Z</time>
      </trkpt>
      <trkpt lat="45.95185" lon="5.58903">
        <ele>792.2</ele>
        <time>2026-05-12T14:21:45Z</time>
      </trkpt>
      <trkpt lat="45.95187" lon="5.58902">
        <ele>792.6</ele>
        <time>2026-05-12T14:21:46Z</time>
      </trkpt>
      <trkpt lat="45.95189" lon="5.58902">
        <ele>792.6</ele>
        <time>2026-05-12T14:21:47Z</time>
      </trkpt>
      <trkpt lat="45.95191" lon="5.58902">
        <ele>792.6</ele>
        <time>2026-05-12T14:21:48Z</time>
      </trkpt>
      <trkpt lat="45.95193" lon="5.58902">
        <ele>792.6</ele>
        <time>2026-05-12T14:21:49Z</time>
      </trkpt>
      <trkpt lat="45.95195" lon="5.58901">
        <ele>792.8</ele>
        <time>2026-05-12T14:21:50Z</time>
      </trkpt>
      <trkpt lat="45.95197" lon="5.589">
        <ele>792.8</ele>
        <time>2026-05-12T14:21:51Z</time>
      </trkpt>
      <trkpt lat="45.95199" lon="5.58898">
        <ele>792.8</ele>
        <time>2026-05-12T14:21:52Z</time>
      </trkpt>
      <trkpt lat="45.95201" lon="5.58897">
        <ele>793.4</ele>
        <time>2026-05-12T14:21:53Z</time>
      </trkpt>
      <trkpt lat="45.95203" lon="5.58896">
        <ele>793.4</ele>
        <time>2026-05-12T14:21:54Z</time>
      </trkpt>
      <trkpt lat="45.95205" lon="5.58894">
        <ele>793.6</ele>
        <time>2026-05-12T14:21:55Z</time>
      </trkpt>
      <trkpt lat="45.95207" lon="5.58894">
        <ele>793.6</ele>
        <time>2026-05-12T14:21:56Z</time>
      </trkpt>
      <trkpt lat="45.95208" lon="5.58893">
        <ele>793.6</ele>
        <time>2026-05-12T14:21:57Z</time>
      </trkpt>
      <trkpt lat="45.95209" lon="5.58893">
        <ele>793.6</ele>
        <time>2026-05-12T14:21:58Z</time>
      </trkpt>
      <trkpt lat="45.9521" lon="5.58891">
        <ele>793.8</ele>
        <time>2026-05-12T14:21:59Z</time>
      </trkpt>
      <trkpt lat="45.95212" lon="5.58889">
        <ele>793.8</ele>
        <time>2026-05-12T14:22:00Z</time>
      </trkpt>
      <trkpt lat="45.95214" lon="5.58887">
        <ele>793.8</ele>
        <time>2026-05-12T14:22:01Z</time>
      </trkpt>
      <trkpt lat="45.95216" lon="5.58886">
        <ele>793.8</ele>
        <time>2026-05-12T14:22:02Z</time>
      </trkpt>
      <trkpt lat="45.95218" lon="5.58885">
        <ele>793.8</ele>
        <time>2026-05-12T14:22:03Z</time>
      </trkpt>
      <trkpt lat="45.9522" lon="5.58883">
        <ele>793.8</ele>
        <time>2026-05-12T14:22:04Z</time>
      </trkpt>
      <trkpt lat="45.95222" lon="5.58882">
        <ele>794</ele>
        <time>2026-05-12T14:22:05Z</time>
      </trkpt>
      <trkpt lat="45.95224" lon="5.58881">
        <ele>794.4</ele>
        <time>2026-05-12T14:22:06Z</time>
      </trkpt>
      <trkpt lat="45.95226" lon="5.58881">
        <ele>794.4</ele>
        <time>2026-05-12T14:22:07Z</time>
      </trkpt>
      <trkpt lat="45.95228" lon="5.5888">
        <ele>794.8</ele>
        <time>2026-05-12T14:22:08Z</time>
      </trkpt>
      <trkpt lat="45.9523" lon="5.58879">
        <ele>794.8</ele>
        <time>2026-05-12T14:22:09Z</time>
      </trkpt>
      <trkpt lat="45.95231" lon="5.58879">
        <ele>794.8</ele>
        <time>2026-05-12T14:22:10Z</time>
      </trkpt>
      <trkpt lat="45.95234" lon="5.58878">
        <ele>794.8</ele>
        <time>2026-05-12T14:22:11Z</time>
      </trkpt>
      <trkpt lat="45.95237" lon="5.58878">
        <ele>795</ele>
        <time>2026-05-12T14:22:12Z</time>
      </trkpt>
      <trkpt lat="45.95239" lon="5.58877">
        <ele>795.4</ele>
        <time>2026-05-12T14:22:13Z</time>
      </trkpt>
      <trkpt lat="45.95239" lon="5.58877">
        <ele>795.4</ele>
        <time>2026-05-12T14:22:14Z</time>
      </trkpt>
      <trkpt lat="45.95241" lon="5.58876">
        <ele>795.4</ele>
        <time>2026-05-12T14:22:15Z</time>
      </trkpt>
      <trkpt lat="45.95243" lon="5.58875">
        <ele>795.6</ele>
        <time>2026-05-12T14:22:16Z</time>
      </trkpt>
      <trkpt lat="45.95246" lon="5.58874">
        <ele>795.6</ele>
        <time>2026-05-12T14:22:17Z</time>
      </trkpt>
      <trkpt lat="45.95249" lon="5.58873">
        <ele>795.6</ele>
        <time>2026-05-12T14:22:18Z</time>
      </trkpt>
      <trkpt lat="45.95251" lon="5.58872">
        <ele>795.6</ele>
        <time>2026-05-12T14:22:19Z</time>
      </trkpt>
      <trkpt lat="45.95254" lon="5.58871">
        <ele>795.6</ele>
        <time>2026-05-12T14:22:20Z</time>
      </trkpt>
      <trkpt lat="45.95256" lon="5.5887">
        <ele>795.6</ele>
        <time>2026-05-12T14:22:21Z</time>
      </trkpt>
      <trkpt lat="45.95258" lon="5.58869">
        <ele>795.6</ele>
        <time>2026-05-12T14:22:22Z</time>
      </trkpt>
      <trkpt lat="45.95261" lon="5.58868">
        <ele>795.6</ele>
        <time>2026-05-12T14:22:23Z</time>
      </trkpt>
      <trkpt lat="45.95264" lon="5.58866">
        <ele>795.6</ele>
        <time>2026-05-12T14:22:24Z</time>
      </trkpt>
      <trkpt lat="45.95267" lon="5.58864">
        <ele>795.6</ele>
        <time>2026-05-12T14:22:25Z</time>
      </trkpt>
      <trkpt lat="45.95269" lon="5.58862">
        <ele>795.6</ele>
        <time>2026-05-12T14:22:26Z</time>
      </trkpt>
      <trkpt lat="45.95272" lon="5.58861">
        <ele>796</ele>
        <time>2026-05-12T14:22:27Z</time>
      </trkpt>
      <trkpt lat="45.95274" lon="5.5886">
        <ele>796.2</ele>
        <time>2026-05-12T14:22:28Z</time>
      </trkpt>
      <trkpt lat="45.95277" lon="5.58859">
        <ele>796.8</ele>
        <time>2026-05-12T14:22:29Z</time>
      </trkpt>
      <trkpt lat="45.95279" lon="5.58858">
        <ele>796.8</ele>
        <time>2026-05-12T14:22:30Z</time>
      </trkpt>
      <trkpt lat="45.9528" lon="5.58857">
        <ele>796.8</ele>
        <time>2026-05-12T14:22:31Z</time>
      </trkpt>
      <trkpt lat="45.95282" lon="5.58854">
        <ele>796.8</ele>
        <time>2026-05-12T14:22:32Z</time>
      </trkpt>
      <trkpt lat="45.95282" lon="5.58852">
        <ele>796.8</ele>
        <time>2026-05-12T14:22:33Z</time>
      </trkpt>
      <trkpt lat="45.95283" lon="5.58851">
        <ele>796.8</ele>
        <time>2026-05-12T14:22:34Z</time>
      </trkpt>
      <trkpt lat="45.95285" lon="5.58848">
        <ele>796.8</ele>
        <time>2026-05-12T14:22:35Z</time>
      </trkpt>
      <trkpt lat="45.95286" lon="5.58846">
        <ele>797.2</ele>
        <time>2026-05-12T14:22:36Z</time>
      </trkpt>
      <trkpt lat="45.95286" lon="5.58845">
        <ele>797.2</ele>
        <time>2026-05-12T14:22:37Z</time>
      </trkpt>
      <trkpt lat="45.95289" lon="5.58842">
        <ele>797.2</ele>
        <time>2026-05-12T14:22:38Z</time>
      </trkpt>
      <trkpt lat="45.95292" lon="5.58839">
        <ele>797.2</ele>
        <time>2026-05-12T14:22:39Z</time>
      </trkpt>
      <trkpt lat="45.95295" lon="5.58837">
        <ele>797.4</ele>
        <time>2026-05-12T14:22:40Z</time>
      </trkpt>
      <trkpt lat="45.95299" lon="5.58835">
        <ele>797.4</ele>
        <time>2026-05-12T14:22:41Z</time>
      </trkpt>
      <trkpt lat="45.95302" lon="5.58834">
        <ele>797.8</ele>
        <time>2026-05-12T14:22:42Z</time>
      </trkpt>
      <trkpt lat="45.95305" lon="5.58834">
        <ele>797.8</ele>
        <time>2026-05-12T14:22:43Z</time>
      </trkpt>
      <trkpt lat="45.95307" lon="5.58835">
        <ele>798.2</ele>
        <time>2026-05-12T14:22:44Z</time>
      </trkpt>
      <trkpt lat="45.9531" lon="5.58834">
        <ele>798.2</ele>
        <time>2026-05-12T14:22:45Z</time>
      </trkpt>
      <trkpt lat="45.95313" lon="5.58832">
        <ele>798.6</ele>
        <time>2026-05-12T14:22:46Z</time>
      </trkpt>
      <trkpt lat="45.95315" lon="5.5883">
        <ele>798.6</ele>
        <time>2026-05-12T14:22:47Z</time>
      </trkpt>
      <trkpt lat="45.95317" lon="5.58828">
        <ele>798.6</ele>
        <time>2026-05-12T14:22:48Z</time>
      </trkpt>
      <trkpt lat="45.95319" lon="5.58826">
        <ele>799</ele>
        <time>2026-05-12T14:22:49Z</time>
      </trkpt>
      <trkpt lat="45.95321" lon="5.58824">
        <ele>799</ele>
        <time>2026-05-12T14:22:50Z</time>
      </trkpt>
      <trkpt lat="45.95323" lon="5.58821">
        <ele>799</ele>
        <time>2026-05-12T14:22:51Z</time>
      </trkpt>
      <trkpt lat="45.95325" lon="5.58819">
        <ele>799.4</ele>
        <time>2026-05-12T14:22:52Z</time>
      </trkpt>
      <trkpt lat="45.95327" lon="5.58816">
        <ele>799.4</ele>
        <time>2026-05-12T14:22:53Z</time>
      </trkpt>
      <trkpt lat="45.9533" lon="5.58813">
        <ele>799.6</ele>
        <time>2026-05-12T14:22:54Z</time>
      </trkpt>
      <trkpt lat="45.95332" lon="5.5881">
        <ele>800</ele>
        <time>2026-05-12T14:22:55Z</time>
      </trkpt>
      <trkpt lat="45.95334" lon="5.58808">
        <ele>800</ele>
        <time>2026-05-12T14:22:56Z</time>
      </trkpt>
      <trkpt lat="45.95336" lon="5.58805">
        <ele>800</ele>
        <time>2026-05-12T14:22:57Z</time>
      </trkpt>
      <trkpt lat="45.95338" lon="5.58802">
        <ele>800</ele>
        <time>2026-05-12T14:22:58Z</time>
      </trkpt>
      <trkpt lat="45.9534" lon="5.58801">
        <ele>800.2</ele>
        <time>2026-05-12T14:22:59Z</time>
      </trkpt>
      <trkpt lat="45.95342" lon="5.58798">
        <ele>800.2</ele>
        <time>2026-05-12T14:23:00Z</time>
      </trkpt>
      <trkpt lat="45.95343" lon="5.58795">
        <ele>800.6</ele>
        <time>2026-05-12T14:23:01Z</time>
      </trkpt>
      <trkpt lat="45.95345" lon="5.58793">
        <ele>800.6</ele>
        <time>2026-05-12T14:23:02Z</time>
      </trkpt>
      <trkpt lat="45.95346" lon="5.58791">
        <ele>800.8</ele>
        <time>2026-05-12T14:23:03Z</time>
      </trkpt>
      <trkpt lat="45.95348" lon="5.58788">
        <ele>801</ele>
        <time>2026-05-12T14:23:04Z</time>
      </trkpt>
      <trkpt lat="45.95349" lon="5.58786">
        <ele>801.2</ele>
        <time>2026-05-12T14:23:05Z</time>
      </trkpt>
      <trkpt lat="45.95351" lon="5.58785">
        <ele>801.2</ele>
        <time>2026-05-12T14:23:06Z</time>
      </trkpt>
      <trkpt lat="45.95352" lon="5.58783">
        <ele>802</ele>
        <time>2026-05-12T14:23:07Z</time>
      </trkpt>
      <trkpt lat="45.95353" lon="5.58781">
        <ele>802.2</ele>
        <time>2026-05-12T14:23:08Z</time>
      </trkpt>
      <trkpt lat="45.95355" lon="5.58779">
        <ele>802.4</ele>
        <time>2026-05-12T14:23:09Z</time>
      </trkpt>
      <trkpt lat="45.95356" lon="5.58778">
        <ele>802.4</ele>
        <time>2026-05-12T14:23:10Z</time>
      </trkpt>
      <trkpt lat="45.95357" lon="5.58776">
        <ele>802.6</ele>
        <time>2026-05-12T14:23:11Z</time>
      </trkpt>
      <trkpt lat="45.95358" lon="5.58775">
        <ele>802.6</ele>
        <time>2026-05-12T14:23:12Z</time>
      </trkpt>
      <trkpt lat="45.95358" lon="5.58774">
        <ele>803</ele>
        <time>2026-05-12T14:23:13Z</time>
      </trkpt>
      <trkpt lat="45.95359" lon="5.58772">
        <ele>803</ele>
        <time>2026-05-12T14:23:14Z</time>
      </trkpt>
      <trkpt lat="45.9536" lon="5.5877">
        <ele>803.2</ele>
        <time>2026-05-12T14:23:15Z</time>
      </trkpt>
      <trkpt lat="45.95361" lon="5.58768">
        <ele>803.2</ele>
        <time>2026-05-12T14:23:16Z</time>
      </trkpt>
      <trkpt lat="45.95362" lon="5.58766">
        <ele>803.6</ele>
        <time>2026-05-12T14:23:17Z</time>
      </trkpt>
      <trkpt lat="45.95363" lon="5.58763">
        <ele>803.8</ele>
        <time>2026-05-12T14:23:18Z</time>
      </trkpt>
      <trkpt lat="45.95363" lon="5.58762">
        <ele>804</ele>
        <time>2026-05-12T14:23:19Z</time>
      </trkpt>
      <trkpt lat="45.95364" lon="5.5876">
        <ele>804.4</ele>
        <time>2026-05-12T14:23:20Z</time>
      </trkpt>
      <trkpt lat="45.95364" lon="5.58757">
        <ele>804.8</ele>
        <time>2026-05-12T14:23:21Z</time>
      </trkpt>
      <trkpt lat="45.95365" lon="5.58754">
        <ele>804.8</ele>
        <time>2026-05-12T14:23:22Z</time>
      </trkpt>
      <trkpt lat="45.95367" lon="5.58752">
        <ele>805</ele>
        <time>2026-05-12T14:23:23Z</time>
      </trkpt>
      <trkpt lat="45.95368" lon="5.5875">
        <ele>805</ele>
        <time>2026-05-12T14:23:24Z</time>
      </trkpt>
      <trkpt lat="45.95369" lon="5.58749">
        <ele>805</ele>
        <time>2026-05-12T14:23:25Z</time>
      </trkpt>
      <trkpt lat="45.9537" lon="5.58747">
        <ele>805.4</ele>
        <time>2026-05-12T14:23:26Z</time>
      </trkpt>
      <trkpt lat="45.95372" lon="5.58745">
        <ele>805.4</ele>
        <time>2026-05-12T14:23:27Z</time>
      </trkpt>
      <trkpt lat="45.95373" lon="5.58742">
        <ele>805.6</ele>
        <time>2026-05-12T14:23:28Z</time>
      </trkpt>
      <trkpt lat="45.95374" lon="5.5874">
        <ele>805.6</ele>
        <time>2026-05-12T14:23:29Z</time>
      </trkpt>
      <trkpt lat="45.95375" lon="5.58738">
        <ele>805.6</ele>
        <time>2026-05-12T14:23:30Z</time>
      </trkpt>
      <trkpt lat="45.95377" lon="5.58737">
        <ele>805.6</ele>
        <time>2026-05-12T14:23:31Z</time>
      </trkpt>
      <trkpt lat="45.95379" lon="5.58736">
        <ele>805.6</ele>
        <time>2026-05-12T14:23:32Z</time>
      </trkpt>
      <trkpt lat="45.95381" lon="5.58736">
        <ele>805.6</ele>
        <time>2026-05-12T14:23:33Z</time>
      </trkpt>
      <trkpt lat="45.95382" lon="5.58736">
        <ele>805.6</ele>
        <time>2026-05-12T14:23:34Z</time>
      </trkpt>
      <trkpt lat="45.95385" lon="5.58736">
        <ele>805.6</ele>
        <time>2026-05-12T14:23:35Z</time>
      </trkpt>
      <trkpt lat="45.95387" lon="5.58737">
        <ele>805.6</ele>
        <time>2026-05-12T14:23:36Z</time>
      </trkpt>
      <trkpt lat="45.95389" lon="5.58737">
        <ele>805.6</ele>
        <time>2026-05-12T14:23:37Z</time>
      </trkpt>
      <trkpt lat="45.95391" lon="5.58738">
        <ele>805.6</ele>
        <time>2026-05-12T14:23:38Z</time>
      </trkpt>
      <trkpt lat="45.95393" lon="5.58738">
        <ele>805.6</ele>
        <time>2026-05-12T14:23:39Z</time>
      </trkpt>
      <trkpt lat="45.95394" lon="5.58739">
        <ele>805.6</ele>
        <time>2026-05-12T14:23:40Z</time>
      </trkpt>
      <trkpt lat="45.95396" lon="5.5874">
        <ele>805.8</ele>
        <time>2026-05-12T14:23:41Z</time>
      </trkpt>
      <trkpt lat="45.95397" lon="5.5874">
        <ele>805.8</ele>
        <time>2026-05-12T14:23:42Z</time>
      </trkpt>
      <trkpt lat="45.95399" lon="5.58741">
        <ele>805.8</ele>
        <time>2026-05-12T14:23:43Z</time>
      </trkpt>
      <trkpt lat="45.95401" lon="5.58742">
        <ele>805.8</ele>
        <time>2026-05-12T14:23:44Z</time>
      </trkpt>
      <trkpt lat="45.95403" lon="5.58742">
        <ele>805.8</ele>
        <time>2026-05-12T14:23:45Z</time>
      </trkpt>
      <trkpt lat="45.95406" lon="5.58742">
        <ele>805.8</ele>
        <time>2026-05-12T14:23:46Z</time>
      </trkpt>
      <trkpt lat="45.95408" lon="5.58741">
        <ele>805.4</ele>
        <time>2026-05-12T14:23:47Z</time>
      </trkpt>
      <trkpt lat="45.9541" lon="5.58741">
        <ele>805.4</ele>
        <time>2026-05-12T14:23:48Z</time>
      </trkpt>
      <trkpt lat="45.95412" lon="5.58739">
        <ele>805.2</ele>
        <time>2026-05-12T14:23:49Z</time>
      </trkpt>
      <trkpt lat="45.95415" lon="5.58737">
        <ele>804.8</ele>
        <time>2026-05-12T14:23:50Z</time>
      </trkpt>
      <trkpt lat="45.95418" lon="5.58735">
        <ele>804.8</ele>
        <time>2026-05-12T14:23:51Z</time>
      </trkpt>
      <trkpt lat="45.9542" lon="5.58735">
        <ele>804.4</ele>
        <time>2026-05-12T14:23:52Z</time>
      </trkpt>
      <trkpt lat="45.95422" lon="5.58734">
        <ele>804.4</ele>
        <time>2026-05-12T14:23:53Z</time>
      </trkpt>
      <trkpt lat="45.95421" lon="5.58734">
        <ele>804.4</ele>
        <time>2026-05-12T14:23:54Z</time>
      </trkpt>
      <trkpt lat="45.95421" lon="5.58734">
        <ele>803.8</ele>
        <time>2026-05-12T14:23:55Z</time>
      </trkpt>
      <trkpt lat="45.95421" lon="5.58734">
        <ele>803.8</ele>
        <time>2026-05-12T14:23:56Z</time>
      </trkpt>
      <trkpt lat="45.95422" lon="5.58732">
        <ele>803.2</ele>
        <time>2026-05-12T14:23:57Z</time>
      </trkpt>
      <trkpt lat="45.95424" lon="5.5873">
        <ele>802.8</ele>
        <time>2026-05-12T14:23:58Z</time>
      </trkpt>
      <trkpt lat="45.95427" lon="5.58727">
        <ele>802.8</ele>
        <time>2026-05-12T14:23:59Z</time>
      </trkpt>
      <trkpt lat="45.9543" lon="5.58725">
        <ele>802.8</ele>
        <time>2026-05-12T14:24:00Z</time>
      </trkpt>
      <trkpt lat="45.95432" lon="5.58723">
        <ele>802.4</ele>
        <time>2026-05-12T14:24:01Z</time>
      </trkpt>
      <trkpt lat="45.95434" lon="5.58721">
        <ele>801.6</ele>
        <time>2026-05-12T14:24:02Z</time>
      </trkpt>
      <trkpt lat="45.95437" lon="5.58718">
        <ele>801.2</ele>
        <time>2026-05-12T14:24:03Z</time>
      </trkpt>
      <trkpt lat="45.9544" lon="5.58715">
        <ele>801.2</ele>
        <time>2026-05-12T14:24:04Z</time>
      </trkpt>
      <trkpt lat="45.95443" lon="5.58713">
        <ele>800.8</ele>
        <time>2026-05-12T14:24:05Z</time>
      </trkpt>
      <trkpt lat="45.95447" lon="5.58712">
        <ele>801.4</ele>
        <time>2026-05-12T14:24:06Z</time>
      </trkpt>
      <trkpt lat="45.9545" lon="5.58711">
        <ele>800.8</ele>
        <time>2026-05-12T14:24:07Z</time>
      </trkpt>
      <trkpt lat="45.95455" lon="5.5871">
        <ele>800.8</ele>
        <time>2026-05-12T14:24:08Z</time>
      </trkpt>
      <trkpt lat="45.95459" lon="5.5871">
        <ele>800.2</ele>
        <time>2026-05-12T14:24:09Z</time>
      </trkpt>
      <trkpt lat="45.95463" lon="5.58709">
        <ele>800</ele>
        <time>2026-05-12T14:24:10Z</time>
      </trkpt>
      <trkpt lat="45.95467" lon="5.58709">
        <ele>799.4</ele>
        <time>2026-05-12T14:24:11Z</time>
      </trkpt>
      <trkpt lat="45.95469" lon="5.58708">
        <ele>799</ele>
        <time>2026-05-12T14:24:12Z</time>
      </trkpt>
      <trkpt lat="45.95472" lon="5.58708">
        <ele>799</ele>
        <time>2026-05-12T14:24:13Z</time>
      </trkpt>
      <trkpt lat="45.95477" lon="5.58707">
        <ele>799</ele>
        <time>2026-05-12T14:24:14Z</time>
      </trkpt>
      <trkpt lat="45.95482" lon="5.58707">
        <ele>798.8</ele>
        <time>2026-05-12T14:24:15Z</time>
      </trkpt>
      <trkpt lat="45.95486" lon="5.58707">
        <ele>798.8</ele>
        <time>2026-05-12T14:24:16Z</time>
      </trkpt>
      <trkpt lat="45.95491" lon="5.58706">
        <ele>798.8</ele>
        <time>2026-05-12T14:24:17Z</time>
      </trkpt>
      <trkpt lat="45.95495" lon="5.58706">
        <ele>797.8</ele>
        <time>2026-05-12T14:24:18Z</time>
      </trkpt>
      <trkpt lat="45.95498" lon="5.58705">
        <ele>796.6</ele>
        <time>2026-05-12T14:24:19Z</time>
      </trkpt>
      <trkpt lat="45.95502" lon="5.58706">
        <ele>797.4</ele>
        <time>2026-05-12T14:24:20Z</time>
      </trkpt>
      <trkpt lat="45.95504" lon="5.58706">
        <ele>797.4</ele>
        <time>2026-05-12T14:24:21Z</time>
      </trkpt>
      <trkpt lat="45.95506" lon="5.58705">
        <ele>797.4</ele>
        <time>2026-05-12T14:24:22Z</time>
      </trkpt>
      <trkpt lat="45.95509" lon="5.58704">
        <ele>797.2</ele>
        <time>2026-05-12T14:24:23Z</time>
      </trkpt>
      <trkpt lat="45.95513" lon="5.58703">
        <ele>796.8</ele>
        <time>2026-05-12T14:24:24Z</time>
      </trkpt>
      <trkpt lat="45.95518" lon="5.58702">
        <ele>796.8</ele>
        <time>2026-05-12T14:24:25Z</time>
      </trkpt>
      <trkpt lat="45.95522" lon="5.58702">
        <ele>796.2</ele>
        <time>2026-05-12T14:24:26Z</time>
      </trkpt>
      <trkpt lat="45.9553" lon="5.58703">
        <ele>796.2</ele>
        <time>2026-05-12T14:24:27Z</time>
      </trkpt>
      <trkpt lat="45.95534" lon="5.58703">
        <ele>796.2</ele>
        <time>2026-05-12T14:24:28Z</time>
      </trkpt>
      <trkpt lat="45.95533" lon="5.587">
        <ele>796.2</ele>
        <time>2026-05-12T14:24:29Z</time>
      </trkpt>
      <trkpt lat="45.95535" lon="5.58699">
        <ele>795.8</ele>
        <time>2026-05-12T14:24:30Z</time>
      </trkpt>
      <trkpt lat="45.95538" lon="5.587">
        <ele>795.8</ele>
        <time>2026-05-12T14:24:31Z</time>
      </trkpt>
      <trkpt lat="45.9554" lon="5.587">
        <ele>795.6</ele>
        <time>2026-05-12T14:24:32Z</time>
      </trkpt>
      <trkpt lat="45.95542" lon="5.58702">
        <ele>795.6</ele>
        <time>2026-05-12T14:24:33Z</time>
      </trkpt>
      <trkpt lat="45.95544" lon="5.58701">
        <ele>795.2</ele>
        <time>2026-05-12T14:24:34Z</time>
      </trkpt>
      <trkpt lat="45.95547" lon="5.587">
        <ele>795.2</ele>
        <time>2026-05-12T14:24:35Z</time>
      </trkpt>
      <trkpt lat="45.9555" lon="5.58703">
        <ele>795.6</ele>
        <time>2026-05-12T14:24:36Z</time>
      </trkpt>
      <trkpt lat="45.95553" lon="5.58703">
        <ele>795.2</ele>
        <time>2026-05-12T14:24:37Z</time>
      </trkpt>
      <trkpt lat="45.95556" lon="5.58704">
        <ele>794.4</ele>
        <time>2026-05-12T14:24:38Z</time>
      </trkpt>
      <trkpt lat="45.95558" lon="5.58703">
        <ele>793.8</ele>
        <time>2026-05-12T14:24:39Z</time>
      </trkpt>
      <trkpt lat="45.95561" lon="5.58702">
        <ele>793.4</ele>
        <time>2026-05-12T14:24:40Z</time>
      </trkpt>
      <trkpt lat="45.95565" lon="5.587">
        <ele>792.6</ele>
        <time>2026-05-12T14:24:41Z</time>
      </trkpt>
      <trkpt lat="45.95569" lon="5.58699">
        <ele>792.6</ele>
        <time>2026-05-12T14:24:42Z</time>
      </trkpt>
      <trkpt lat="45.95573" lon="5.58698">
        <ele>790.8</ele>
        <time>2026-05-12T14:24:43Z</time>
      </trkpt>
      <trkpt lat="45.95576" lon="5.58697">
        <ele>790.2</ele>
        <time>2026-05-12T14:24:44Z</time>
      </trkpt>
      <trkpt lat="45.9558" lon="5.58696">
        <ele>790.2</ele>
        <time>2026-05-12T14:24:45Z</time>
      </trkpt>
      <trkpt lat="45.95583" lon="5.58695">
        <ele>790.8</ele>
        <time>2026-05-12T14:24:46Z</time>
      </trkpt>
      <trkpt lat="45.95587" lon="5.58693">
        <ele>790.8</ele>
        <time>2026-05-12T14:24:47Z</time>
      </trkpt>
      <trkpt lat="45.95591" lon="5.58692">
        <ele>790.8</ele>
        <time>2026-05-12T14:24:48Z</time>
      </trkpt>
      <trkpt lat="45.95595" lon="5.5869">
        <ele>790.4</ele>
        <time>2026-05-12T14:24:49Z</time>
      </trkpt>
      <trkpt lat="45.95599" lon="5.58688">
        <ele>790.4</ele>
        <time>2026-05-12T14:24:50Z</time>
      </trkpt>
      <trkpt lat="45.95603" lon="5.58687">
        <ele>790.2</ele>
        <time>2026-05-12T14:24:51Z</time>
      </trkpt>
      <trkpt lat="45.95606" lon="5.58686">
        <ele>790.2</ele>
        <time>2026-05-12T14:24:52Z</time>
      </trkpt>
      <trkpt lat="45.9561" lon="5.58685">
        <ele>790.2</ele>
        <time>2026-05-12T14:24:53Z</time>
      </trkpt>
      <trkpt lat="45.95613" lon="5.58685">
        <ele>790.2</ele>
        <time>2026-05-12T14:24:54Z</time>
      </trkpt>
      <trkpt lat="45.95615" lon="5.58686">
        <ele>790.4</ele>
        <time>2026-05-12T14:24:55Z</time>
      </trkpt>
      <trkpt lat="45.95617" lon="5.58686">
        <ele>790.4</ele>
        <time>2026-05-12T14:24:56Z</time>
      </trkpt>
      <trkpt lat="45.9562" lon="5.58685">
        <ele>790.4</ele>
        <time>2026-05-12T14:24:57Z</time>
      </trkpt>
      <trkpt lat="45.95622" lon="5.58682">
        <ele>790.4</ele>
        <time>2026-05-12T14:24:58Z</time>
      </trkpt>
      <trkpt lat="45.95624" lon="5.5868">
        <ele>790.8</ele>
        <time>2026-05-12T14:24:59Z</time>
      </trkpt>
      <trkpt lat="45.95627" lon="5.58677">
        <ele>790.8</ele>
        <time>2026-05-12T14:25:00Z</time>
      </trkpt>
      <trkpt lat="45.9563" lon="5.58674">
        <ele>790.8</ele>
        <time>2026-05-12T14:25:01Z</time>
      </trkpt>
      <trkpt lat="45.95634" lon="5.58673">
        <ele>790.4</ele>
        <time>2026-05-12T14:25:02Z</time>
      </trkpt>
      <trkpt lat="45.95637" lon="5.58671">
        <ele>790</ele>
        <time>2026-05-12T14:25:03Z</time>
      </trkpt>
      <trkpt lat="45.9564" lon="5.58671">
        <ele>790</ele>
        <time>2026-05-12T14:25:04Z</time>
      </trkpt>
      <trkpt lat="45.95642" lon="5.58671">
        <ele>790.4</ele>
        <time>2026-05-12T14:25:05Z</time>
      </trkpt>
      <trkpt lat="45.95644" lon="5.58669">
        <ele>790.4</ele>
        <time>2026-05-12T14:25:06Z</time>
      </trkpt>
      <trkpt lat="45.95647" lon="5.58667">
        <ele>790.2</ele>
        <time>2026-05-12T14:25:07Z</time>
      </trkpt>
      <trkpt lat="45.95649" lon="5.58666">
        <ele>790.2</ele>
        <time>2026-05-12T14:25:08Z</time>
      </trkpt>
      <trkpt lat="45.9565" lon="5.58664">
        <ele>789.8</ele>
        <time>2026-05-12T14:25:09Z</time>
      </trkpt>
      <trkpt lat="45.95651" lon="5.58663">
        <ele>789.8</ele>
        <time>2026-05-12T14:25:10Z</time>
      </trkpt>
      <trkpt lat="45.95658" lon="5.5866">
        <ele>789.4</ele>
        <time>2026-05-12T14:25:11Z</time>
      </trkpt>
      <trkpt lat="45.95659" lon="5.58656">
        <ele>789</ele>
        <time>2026-05-12T14:25:12Z</time>
      </trkpt>
      <trkpt lat="45.95661" lon="5.58655">
        <ele>788.4</ele>
        <time>2026-05-12T14:25:13Z</time>
      </trkpt>
      <trkpt lat="45.95664" lon="5.58652">
        <ele>788.4</ele>
        <time>2026-05-12T14:25:14Z</time>
      </trkpt>
      <trkpt lat="45.95665" lon="5.5865">
        <ele>788.2</ele>
        <time>2026-05-12T14:25:15Z</time>
      </trkpt>
      <trkpt lat="45.95667" lon="5.58648">
        <ele>788.2</ele>
        <time>2026-05-12T14:25:16Z</time>
      </trkpt>
      <trkpt lat="45.95668" lon="5.58645">
        <ele>788</ele>
        <time>2026-05-12T14:25:17Z</time>
      </trkpt>
      <trkpt lat="45.95669" lon="5.58644">
        <ele>788</ele>
        <time>2026-05-12T14:25:18Z</time>
      </trkpt>
      <trkpt lat="45.95667" lon="5.58644">
        <ele>787.6</ele>
        <time>2026-05-12T14:25:19Z</time>
      </trkpt>
      <trkpt lat="45.95669" lon="5.58642">
        <ele>787.6</ele>
        <time>2026-05-12T14:25:20Z</time>
      </trkpt>
      <trkpt lat="45.9567" lon="5.58639">
        <ele>787.4</ele>
        <time>2026-05-12T14:25:21Z</time>
      </trkpt>
      <trkpt lat="45.95674" lon="5.58635">
        <ele>787.4</ele>
        <time>2026-05-12T14:25:22Z</time>
      </trkpt>
      <trkpt lat="45.95677" lon="5.58633">
        <ele>787.4</ele>
        <time>2026-05-12T14:25:23Z</time>
      </trkpt>
      <trkpt lat="45.95683" lon="5.58632">
        <ele>787.4</ele>
        <time>2026-05-12T14:25:24Z</time>
      </trkpt>
      <trkpt lat="45.95688" lon="5.58632">
        <ele>787.4</ele>
        <time>2026-05-12T14:25:25Z</time>
      </trkpt>
      <trkpt lat="45.95691" lon="5.58629">
        <ele>787</ele>
        <time>2026-05-12T14:25:26Z</time>
      </trkpt>
      <trkpt lat="45.95693" lon="5.58628">
        <ele>787</ele>
        <time>2026-05-12T14:25:27Z</time>
      </trkpt>
      <trkpt lat="45.95694" lon="5.58625">
        <ele>787</ele>
        <time>2026-05-12T14:25:28Z</time>
      </trkpt>
      <trkpt lat="45.95695" lon="5.58622">
        <ele>787.2</ele>
        <time>2026-05-12T14:25:29Z</time>
      </trkpt>
      <trkpt lat="45.95696" lon="5.5862">
        <ele>787.8</ele>
        <time>2026-05-12T14:25:30Z</time>
      </trkpt>
      <trkpt lat="45.95698" lon="5.58616">
        <ele>787.8</ele>
        <time>2026-05-12T14:25:31Z</time>
      </trkpt>
      <trkpt lat="45.95699" lon="5.58613">
        <ele>787.4</ele>
        <time>2026-05-12T14:25:32Z</time>
      </trkpt>
      <trkpt lat="45.957" lon="5.5861">
        <ele>787.4</ele>
        <time>2026-05-12T14:25:33Z</time>
      </trkpt>
      <trkpt lat="45.957" lon="5.58607">
        <ele>787.8</ele>
        <time>2026-05-12T14:25:34Z</time>
      </trkpt>
      <trkpt lat="45.95701" lon="5.58603">
        <ele>787.8</ele>
        <time>2026-05-12T14:25:35Z</time>
      </trkpt>
      <trkpt lat="45.95702" lon="5.58599">
        <ele>787.8</ele>
        <time>2026-05-12T14:25:36Z</time>
      </trkpt>
      <trkpt lat="45.95703" lon="5.58596">
        <ele>787.8</ele>
        <time>2026-05-12T14:25:37Z</time>
      </trkpt>
      <trkpt lat="45.95705" lon="5.58593">
        <ele>788</ele>
        <time>2026-05-12T14:25:38Z</time>
      </trkpt>
      <trkpt lat="45.95707" lon="5.5859">
        <ele>788</ele>
        <time>2026-05-12T14:25:39Z</time>
      </trkpt>
      <trkpt lat="45.95709" lon="5.58588">
        <ele>788</ele>
        <time>2026-05-12T14:25:40Z</time>
      </trkpt>
      <trkpt lat="45.95712" lon="5.58586">
        <ele>788</ele>
        <time>2026-05-12T14:25:41Z</time>
      </trkpt>
      <trkpt lat="45.95714" lon="5.58585">
        <ele>788.2</ele>
        <time>2026-05-12T14:25:42Z</time>
      </trkpt>
      <trkpt lat="45.95716" lon="5.58584">
        <ele>788.4</ele>
        <time>2026-05-12T14:25:43Z</time>
      </trkpt>
      <trkpt lat="45.95718" lon="5.58584">
        <ele>788.4</ele>
        <time>2026-05-12T14:25:44Z</time>
      </trkpt>
      <trkpt lat="45.9572" lon="5.58583">
        <ele>788.4</ele>
        <time>2026-05-12T14:25:45Z</time>
      </trkpt>
      <trkpt lat="45.95721" lon="5.58583">
        <ele>788.4</ele>
        <time>2026-05-12T14:25:46Z</time>
      </trkpt>
      <trkpt lat="45.95722" lon="5.58582">
        <ele>788.8</ele>
        <time>2026-05-12T14:25:47Z</time>
      </trkpt>
      <trkpt lat="45.95724" lon="5.5858">
        <ele>788.8</ele>
        <time>2026-05-12T14:25:48Z</time>
      </trkpt>
      <trkpt lat="45.95727" lon="5.58577">
        <ele>789</ele>
        <time>2026-05-12T14:25:55Z</time>
      </trkpt>
      <trkpt lat="45.95728" lon="5.58577">
        <ele>789</ele>
        <time>2026-05-12T14:25:56Z</time>
      </trkpt>
      <trkpt lat="45.9573" lon="5.58578">
        <ele>788.6</ele>
        <time>2026-05-12T14:25:57Z</time>
      </trkpt>
      <trkpt lat="45.95731" lon="5.58579">
        <ele>788.4</ele>
        <time>2026-05-12T14:25:58Z</time>
      </trkpt>
      <trkpt lat="45.95733" lon="5.5858">
        <ele>788</ele>
        <time>2026-05-12T14:25:59Z</time>
      </trkpt>
      <trkpt lat="45.95734" lon="5.5858">
        <ele>787.6</ele>
        <time>2026-05-12T14:26:00Z</time>
      </trkpt>
      <trkpt lat="45.95735" lon="5.58579">
        <ele>787.6</ele>
        <time>2026-05-12T14:26:01Z</time>
      </trkpt>
      <trkpt lat="45.95737" lon="5.5858">
        <ele>787.4</ele>
        <time>2026-05-12T14:26:02Z</time>
      </trkpt>
      <trkpt lat="45.9574" lon="5.5858">
        <ele>787.4</ele>
        <time>2026-05-12T14:26:03Z</time>
      </trkpt>
      <trkpt lat="45.95741" lon="5.5858">
        <ele>787</ele>
        <time>2026-05-12T14:26:04Z</time>
      </trkpt>
      <trkpt lat="45.95743" lon="5.58581">
        <ele>786.8</ele>
        <time>2026-05-12T14:26:05Z</time>
      </trkpt>
      <trkpt lat="45.95744" lon="5.58582">
        <ele>786.8</ele>
        <time>2026-05-12T14:26:06Z</time>
      </trkpt>
      <trkpt lat="45.95745" lon="5.58583">
        <ele>786.2</ele>
        <time>2026-05-12T14:26:07Z</time>
      </trkpt>
      <trkpt lat="45.95746" lon="5.58585">
        <ele>786.2</ele>
        <time>2026-05-12T14:26:08Z</time>
      </trkpt>
      <trkpt lat="45.95747" lon="5.58586">
        <ele>785.8</ele>
        <time>2026-05-12T14:26:09Z</time>
      </trkpt>
      <trkpt lat="45.95748" lon="5.58587">
        <ele>785.4</ele>
        <time>2026-05-12T14:26:10Z</time>
      </trkpt>
      <trkpt lat="45.95749" lon="5.58588">
        <ele>785.4</ele>
        <time>2026-05-12T14:26:11Z</time>
      </trkpt>
      <trkpt lat="45.9575" lon="5.58589">
        <ele>785</ele>
        <time>2026-05-12T14:26:12Z</time>
      </trkpt>
      <trkpt lat="45.95751" lon="5.58589">
        <ele>784.6</ele>
        <time>2026-05-12T14:26:13Z</time>
      </trkpt>
      <trkpt lat="45.95752" lon="5.58589">
        <ele>784.4</ele>
        <time>2026-05-12T14:26:14Z</time>
      </trkpt>
      <trkpt lat="45.95753" lon="5.58588">
        <ele>784.4</ele>
        <time>2026-05-12T14:26:15Z</time>
      </trkpt>
      <trkpt lat="45.95757" lon="5.58584">
        <ele>784</ele>
        <time>2026-05-12T14:27:06Z</time>
      </trkpt>
      <trkpt lat="45.95759" lon="5.58588">
        <ele>783.2</ele>
        <time>2026-05-12T14:27:07Z</time>
      </trkpt>
      <trkpt lat="45.95761" lon="5.58592">
        <ele>783.2</ele>
        <time>2026-05-12T14:27:08Z</time>
      </trkpt>
      <trkpt lat="45.95763" lon="5.58596">
        <ele>783</ele>
        <time>2026-05-12T14:27:09Z</time>
      </trkpt>
      <trkpt lat="45.95766" lon="5.586">
        <ele>781.4</ele>
        <time>2026-05-12T14:27:10Z</time>
      </trkpt>
      <trkpt lat="45.95768" lon="5.58603">
        <ele>779.6</ele>
        <time>2026-05-12T14:27:11Z</time>
      </trkpt>
      <trkpt lat="45.9577" lon="5.58608">
        <ele>779.6</ele>
        <time>2026-05-12T14:27:12Z</time>
      </trkpt>
      <trkpt lat="45.95772" lon="5.58612">
        <ele>779.6</ele>
        <time>2026-05-12T14:27:13Z</time>
      </trkpt>
      <trkpt lat="45.95775" lon="5.5862">
        <ele>779.2</ele>
        <time>2026-05-12T14:27:14Z</time>
      </trkpt>
      <trkpt lat="45.95777" lon="5.58626">
        <ele>778.2</ele>
        <time>2026-05-12T14:27:15Z</time>
      </trkpt>
      <trkpt lat="45.95779" lon="5.58632">
        <ele>777.6</ele>
        <time>2026-05-12T14:27:16Z</time>
      </trkpt>
      <trkpt lat="45.95783" lon="5.58635">
        <ele>777.6</ele>
        <time>2026-05-12T14:27:17Z</time>
      </trkpt>
      <trkpt lat="45.95786" lon="5.58635">
        <ele>777.6</ele>
        <time>2026-05-12T14:27:18Z</time>
      </trkpt>
      <trkpt lat="45.9579" lon="5.58635">
        <ele>776.8</ele>
        <time>2026-05-12T14:27:19Z</time>
      </trkpt>
      <trkpt lat="45.95792" lon="5.58634">
        <ele>776.8</ele>
        <time>2026-05-12T14:27:20Z</time>
      </trkpt>
      <trkpt lat="45.95795" lon="5.58631">
        <ele>776.8</ele>
        <time>2026-05-12T14:27:21Z</time>
      </trkpt>
      <trkpt lat="45.95798" lon="5.58631">
        <ele>776.4</ele>
        <time>2026-05-12T14:27:22Z</time>
      </trkpt>
      <trkpt lat="45.958" lon="5.5863">
        <ele>776.4</ele>
        <time>2026-05-12T14:27:23Z</time>
      </trkpt>
      <trkpt lat="45.95803" lon="5.5863">
        <ele>776.4</ele>
        <time>2026-05-12T14:27:24Z</time>
      </trkpt>
      <trkpt lat="45.95804" lon="5.58632">
        <ele>776.2</ele>
        <time>2026-05-12T14:27:25Z</time>
      </trkpt>
      <trkpt lat="45.95805" lon="5.58634">
        <ele>776.2</ele>
        <time>2026-05-12T14:27:26Z</time>
      </trkpt>
      <trkpt lat="45.95806" lon="5.58636">
        <ele>776.2</ele>
        <time>2026-05-12T14:27:27Z</time>
      </trkpt>
      <trkpt lat="45.95806" lon="5.58638">
        <ele>776.2</ele>
        <time>2026-05-12T14:27:28Z</time>
      </trkpt>
      <trkpt lat="45.95807" lon="5.5864">
        <ele>776.4</ele>
        <time>2026-05-12T14:27:29Z</time>
      </trkpt>
      <trkpt lat="45.95807" lon="5.5864">
        <ele>776.4</ele>
        <time>2026-05-12T14:27:30Z</time>
      </trkpt>
      <trkpt lat="45.95807" lon="5.5864">
        <ele>776.2</ele>
        <time>2026-05-12T14:27:31Z</time>
      </trkpt>
      <trkpt lat="45.95807" lon="5.58641">
        <ele>776.2</ele>
        <time>2026-05-12T14:27:32Z</time>
      </trkpt>
      <trkpt lat="45.95807" lon="5.58641">
        <ele>776.2</ele>
        <time>2026-05-12T14:27:33Z</time>
      </trkpt>
      <trkpt lat="45.95806" lon="5.58641">
        <ele>776.2</ele>
        <time>2026-05-12T14:27:34Z</time>
      </trkpt>
      <trkpt lat="45.9581" lon="5.58644">
        <ele>780</ele>
        <time>2026-05-12T14:44:36Z</time>
      </trkpt>
      <trkpt lat="45.9581" lon="5.58644">
        <ele>779.6</ele>
        <time>2026-05-12T14:44:37Z</time>
      </trkpt>
      <trkpt lat="45.9581" lon="5.58644">
        <ele>779.6</ele>
        <time>2026-05-12T14:44:38Z</time>
      </trkpt>
      <trkpt lat="45.9581" lon="5.58644">
        <ele>779.4</ele>
        <time>2026-05-12T14:44:39Z</time>
      </trkpt>
      <trkpt lat="45.95809" lon="5.58642">
        <ele>779.4</ele>
        <time>2026-05-12T14:45:13Z</time>
      </trkpt>
      <trkpt lat="45.95809" lon="5.58641">
        <ele>779.4</ele>
        <time>2026-05-12T14:45:14Z</time>
      </trkpt>
      <trkpt lat="45.9581" lon="5.5864">
        <ele>779.4</ele>
        <time>2026-05-12T14:45:15Z</time>
      </trkpt>
      <trkpt lat="45.9581" lon="5.5864">
        <ele>779.4</ele>
        <time>2026-05-12T14:45:16Z</time>
      </trkpt>
      <trkpt lat="45.9581" lon="5.58639">
        <ele>779.6</ele>
        <time>2026-05-12T14:45:19Z</time>
      </trkpt>
      <trkpt lat="45.9581" lon="5.58639">
        <ele>779.6</ele>
        <time>2026-05-12T14:45:20Z</time>
      </trkpt>
      <trkpt lat="45.95809" lon="5.58636">
        <ele>779.4</ele>
        <time>2026-05-12T14:45:28Z</time>
      </trkpt>
      <trkpt lat="45.95809" lon="5.58635">
        <ele>779.4</ele>
        <time>2026-05-12T14:45:29Z</time>
      </trkpt>
      <trkpt lat="45.95809" lon="5.58634">
        <ele>779.4</ele>
        <time>2026-05-12T14:45:30Z</time>
      </trkpt>
      <trkpt lat="45.95808" lon="5.58632">
        <ele>779.4</ele>
        <time>2026-05-12T14:45:31Z</time>
      </trkpt>
      <trkpt lat="45.95807" lon="5.5863">
        <ele>779.4</ele>
        <time>2026-05-12T14:45:32Z</time>
      </trkpt>
      <trkpt lat="45.95807" lon="5.58627">
        <ele>779.4</ele>
        <time>2026-05-12T14:45:33Z</time>
      </trkpt>
      <trkpt lat="45.95808" lon="5.58625">
        <ele>779.8</ele>
        <time>2026-05-12T14:45:34Z</time>
      </trkpt>
      <trkpt lat="45.95808" lon="5.58624">
        <ele>779.8</ele>
        <time>2026-05-12T14:45:35Z</time>
      </trkpt>
      <trkpt lat="45.9581" lon="5.58622">
        <ele>779.8</ele>
        <time>2026-05-12T14:45:36Z</time>
      </trkpt>
      <trkpt lat="45.95812" lon="5.58621">
        <ele>779.8</ele>
        <time>2026-05-12T14:45:37Z</time>
      </trkpt>
      <trkpt lat="45.95814" lon="5.58619">
        <ele>779.8</ele>
        <time>2026-05-12T14:45:38Z</time>
      </trkpt>
      <trkpt lat="45.95816" lon="5.58618">
        <ele>779.4</ele>
        <time>2026-05-12T14:45:39Z</time>
      </trkpt>
      <trkpt lat="45.95818" lon="5.58616">
        <ele>779.4</ele>
        <time>2026-05-12T14:45:40Z</time>
      </trkpt>
      <trkpt lat="45.9582" lon="5.58615">
        <ele>779.4</ele>
        <time>2026-05-12T14:45:41Z</time>
      </trkpt>
      <trkpt lat="45.95822" lon="5.58613">
        <ele>779.4</ele>
        <time>2026-05-12T14:45:42Z</time>
      </trkpt>
      <trkpt lat="45.95824" lon="5.58612">
        <ele>779.4</ele>
        <time>2026-05-12T14:45:43Z</time>
      </trkpt>
      <trkpt lat="45.95829" lon="5.58606">
        <ele>779.2</ele>
        <time>2026-05-12T14:45:46Z</time>
      </trkpt>
      <trkpt lat="45.95831" lon="5.58604">
        <ele>779.6</ele>
        <time>2026-05-12T14:45:47Z</time>
      </trkpt>
      <trkpt lat="45.95833" lon="5.58602">
        <ele>779.6</ele>
        <time>2026-05-12T14:45:48Z</time>
      </trkpt>
      <trkpt lat="45.95834" lon="5.58601">
        <ele>780</ele>
        <time>2026-05-12T14:45:49Z</time>
      </trkpt>
      <trkpt lat="45.95836" lon="5.586">
        <ele>780</ele>
        <time>2026-05-12T14:45:50Z</time>
      </trkpt>
      <trkpt lat="45.95838" lon="5.58598">
        <ele>780</ele>
        <time>2026-05-12T14:45:51Z</time>
      </trkpt>
      <trkpt lat="45.95839" lon="5.58596">
        <ele>779.8</ele>
        <time>2026-05-12T14:45:52Z</time>
      </trkpt>
      <trkpt lat="45.95841" lon="5.58595">
        <ele>779.8</ele>
        <time>2026-05-12T14:45:53Z</time>
      </trkpt>
      <trkpt lat="45.95843" lon="5.58593">
        <ele>779.2</ele>
        <time>2026-05-12T14:45:54Z</time>
      </trkpt>
      <trkpt lat="45.95844" lon="5.58591">
        <ele>779.2</ele>
        <time>2026-05-12T14:45:55Z</time>
      </trkpt>
      <trkpt lat="45.95846" lon="5.58589">
        <ele>778.8</ele>
        <time>2026-05-12T14:45:56Z</time>
      </trkpt>
      <trkpt lat="45.95848" lon="5.58587">
        <ele>778.8</ele>
        <time>2026-05-12T14:45:57Z</time>
      </trkpt>
      <trkpt lat="45.9585" lon="5.58585">
        <ele>778.6</ele>
        <time>2026-05-12T14:45:58Z</time>
      </trkpt>
      <trkpt lat="45.95852" lon="5.58583">
        <ele>778.6</ele>
        <time>2026-05-12T14:45:59Z</time>
      </trkpt>
      <trkpt lat="45.95854" lon="5.58581">
        <ele>778.6</ele>
        <time>2026-05-12T14:46:00Z</time>
      </trkpt>
      <trkpt lat="45.95856" lon="5.58579">
        <ele>778.6</ele>
        <time>2026-05-12T14:46:01Z</time>
      </trkpt>
      <trkpt lat="45.95859" lon="5.58577">
        <ele>778.6</ele>
        <time>2026-05-12T14:46:02Z</time>
      </trkpt>
      <trkpt lat="45.95861" lon="5.58575">
        <ele>778.2</ele>
        <time>2026-05-12T14:46:03Z</time>
      </trkpt>
      <trkpt lat="45.95864" lon="5.58572">
        <ele>778.2</ele>
        <time>2026-05-12T14:46:04Z</time>
      </trkpt>
      <trkpt lat="45.95866" lon="5.5857">
        <ele>778.4</ele>
        <time>2026-05-12T14:46:05Z</time>
      </trkpt>
      <trkpt lat="45.95868" lon="5.58567">
        <ele>778.8</ele>
        <time>2026-05-12T14:46:06Z</time>
      </trkpt>
      <trkpt lat="45.95871" lon="5.58565">
        <ele>778.8</ele>
        <time>2026-05-12T14:46:07Z</time>
      </trkpt>
      <trkpt lat="45.95873" lon="5.58562">
        <ele>778.2</ele>
        <time>2026-05-12T14:46:08Z</time>
      </trkpt>
      <trkpt lat="45.95876" lon="5.5856">
        <ele>778.2</ele>
        <time>2026-05-12T14:46:09Z</time>
      </trkpt>
      <trkpt lat="45.95878" lon="5.58558">
        <ele>778.8</ele>
        <time>2026-05-12T14:46:10Z</time>
      </trkpt>
      <trkpt lat="45.95881" lon="5.58555">
        <ele>779</ele>
        <time>2026-05-12T14:46:11Z</time>
      </trkpt>
      <trkpt lat="45.95883" lon="5.58554">
        <ele>779</ele>
        <time>2026-05-12T14:46:12Z</time>
      </trkpt>
      <trkpt lat="45.95885" lon="5.58552">
        <ele>779</ele>
        <time>2026-05-12T14:46:13Z</time>
      </trkpt>
      <trkpt lat="45.95887" lon="5.58549">
        <ele>778.8</ele>
        <time>2026-05-12T14:46:14Z</time>
      </trkpt>
      <trkpt lat="45.9589" lon="5.58547">
        <ele>778.8</ele>
        <time>2026-05-12T14:46:15Z</time>
      </trkpt>
      <trkpt lat="45.95892" lon="5.58545">
        <ele>778.8</ele>
        <time>2026-05-12T14:46:16Z</time>
      </trkpt>
      <trkpt lat="45.95894" lon="5.58544">
        <ele>779.2</ele>
        <time>2026-05-12T14:46:17Z</time>
      </trkpt>
      <trkpt lat="45.95895" lon="5.58542">
        <ele>779.2</ele>
        <time>2026-05-12T14:46:18Z</time>
      </trkpt>
      <trkpt lat="45.95897" lon="5.5854">
        <ele>779.2</ele>
        <time>2026-05-12T14:46:19Z</time>
      </trkpt>
      <trkpt lat="45.95899" lon="5.58538">
        <ele>779.2</ele>
        <time>2026-05-12T14:46:20Z</time>
      </trkpt>
      <trkpt lat="45.95902" lon="5.58535">
        <ele>779.2</ele>
        <time>2026-05-12T14:46:21Z</time>
      </trkpt>
      <trkpt lat="45.95904" lon="5.58533">
        <ele>779.2</ele>
        <time>2026-05-12T14:46:22Z</time>
      </trkpt>
      <trkpt lat="45.95906" lon="5.58531">
        <ele>779.2</ele>
        <time>2026-05-12T14:46:23Z</time>
      </trkpt>
      <trkpt lat="45.95909" lon="5.58528">
        <ele>779.6</ele>
        <time>2026-05-12T14:46:24Z</time>
      </trkpt>
      <trkpt lat="45.95911" lon="5.58526">
        <ele>779.2</ele>
        <time>2026-05-12T14:46:25Z</time>
      </trkpt>
      <trkpt lat="45.95913" lon="5.58524">
        <ele>779</ele>
        <time>2026-05-12T14:46:26Z</time>
      </trkpt>
      <trkpt lat="45.95915" lon="5.58521">
        <ele>779</ele>
        <time>2026-05-12T14:46:27Z</time>
      </trkpt>
      <trkpt lat="45.95917" lon="5.58518">
        <ele>779</ele>
        <time>2026-05-12T14:46:28Z</time>
      </trkpt>
      <trkpt lat="45.95919" lon="5.58515">
        <ele>779</ele>
        <time>2026-05-12T14:46:29Z</time>
      </trkpt>
      <trkpt lat="45.95921" lon="5.58512">
        <ele>779</ele>
        <time>2026-05-12T14:46:30Z</time>
      </trkpt>
      <trkpt lat="45.95923" lon="5.5851">
        <ele>779</ele>
        <time>2026-05-12T14:46:31Z</time>
      </trkpt>
      <trkpt lat="45.95925" lon="5.58507">
        <ele>779</ele>
        <time>2026-05-12T14:46:32Z</time>
      </trkpt>
      <trkpt lat="45.95927" lon="5.58505">
        <ele>779</ele>
        <time>2026-05-12T14:46:33Z</time>
      </trkpt>
      <trkpt lat="45.95929" lon="5.58502">
        <ele>779</ele>
        <time>2026-05-12T14:46:34Z</time>
      </trkpt>
      <trkpt lat="45.95931" lon="5.585">
        <ele>779</ele>
        <time>2026-05-12T14:46:35Z</time>
      </trkpt>
      <trkpt lat="45.95933" lon="5.58497">
        <ele>778.8</ele>
        <time>2026-05-12T14:46:36Z</time>
      </trkpt>
      <trkpt lat="45.95935" lon="5.58495">
        <ele>778.8</ele>
        <time>2026-05-12T14:46:37Z</time>
      </trkpt>
      <trkpt lat="45.95937" lon="5.58493">
        <ele>778.8</ele>
        <time>2026-05-12T14:46:38Z</time>
      </trkpt>
      <trkpt lat="45.95938" lon="5.58491">
        <ele>778.8</ele>
        <time>2026-05-12T14:46:39Z</time>
      </trkpt>
      <trkpt lat="45.9594" lon="5.58489">
        <ele>779</ele>
        <time>2026-05-12T14:46:40Z</time>
      </trkpt>
      <trkpt lat="45.95941" lon="5.58487">
        <ele>778.6</ele>
        <time>2026-05-12T14:46:41Z</time>
      </trkpt>
      <trkpt lat="45.95944" lon="5.58486">
        <ele>778.6</ele>
        <time>2026-05-12T14:46:42Z</time>
      </trkpt>
      <trkpt lat="45.95946" lon="5.58485">
        <ele>778.6</ele>
        <time>2026-05-12T14:46:43Z</time>
      </trkpt>
      <trkpt lat="45.95948" lon="5.58484">
        <ele>778.6</ele>
        <time>2026-05-12T14:46:44Z</time>
      </trkpt>
      <trkpt lat="45.9595" lon="5.58484">
        <ele>778.6</ele>
        <time>2026-05-12T14:46:45Z</time>
      </trkpt>
      <trkpt lat="45.95952" lon="5.58484">
        <ele>778.6</ele>
        <time>2026-05-12T14:46:46Z</time>
      </trkpt>
      <trkpt lat="45.95954" lon="5.58485">
        <ele>778.6</ele>
        <time>2026-05-12T14:46:47Z</time>
      </trkpt>
      <trkpt lat="45.95956" lon="5.58485">
        <ele>778.6</ele>
        <time>2026-05-12T14:46:48Z</time>
      </trkpt>
      <trkpt lat="45.95958" lon="5.58485">
        <ele>778.6</ele>
        <time>2026-05-12T14:46:49Z</time>
      </trkpt>
      <trkpt lat="45.9596" lon="5.58484">
        <ele>778.6</ele>
        <time>2026-05-12T14:46:50Z</time>
      </trkpt>
      <trkpt lat="45.95962" lon="5.58482">
        <ele>778.4</ele>
        <time>2026-05-12T14:46:51Z</time>
      </trkpt>
      <trkpt lat="45.95964" lon="5.58481">
        <ele>778.4</ele>
        <time>2026-05-12T14:46:52Z</time>
      </trkpt>
      <trkpt lat="45.95966" lon="5.58479">
        <ele>778.4</ele>
        <time>2026-05-12T14:46:53Z</time>
      </trkpt>
      <trkpt lat="45.95967" lon="5.58477">
        <ele>778.4</ele>
        <time>2026-05-12T14:46:54Z</time>
      </trkpt>
      <trkpt lat="45.95969" lon="5.58474">
        <ele>778.4</ele>
        <time>2026-05-12T14:46:55Z</time>
      </trkpt>
      <trkpt lat="45.95971" lon="5.58472">
        <ele>778.4</ele>
        <time>2026-05-12T14:46:56Z</time>
      </trkpt>
      <trkpt lat="45.95973" lon="5.58469">
        <ele>778.4</ele>
        <time>2026-05-12T14:46:57Z</time>
      </trkpt>
      <trkpt lat="45.95975" lon="5.58467">
        <ele>778.4</ele>
        <time>2026-05-12T14:46:58Z</time>
      </trkpt>
      <trkpt lat="45.95976" lon="5.58464">
        <ele>778.4</ele>
        <time>2026-05-12T14:46:59Z</time>
      </trkpt>
      <trkpt lat="45.95978" lon="5.58461">
        <ele>778.4</ele>
        <time>2026-05-12T14:47:00Z</time>
      </trkpt>
      <trkpt lat="45.95979" lon="5.58458">
        <ele>778.4</ele>
        <time>2026-05-12T14:47:01Z</time>
      </trkpt>
      <trkpt lat="45.95981" lon="5.58455">
        <ele>778.2</ele>
        <time>2026-05-12T14:47:02Z</time>
      </trkpt>
      <trkpt lat="45.95983" lon="5.58453">
        <ele>778.2</ele>
        <time>2026-05-12T14:47:03Z</time>
      </trkpt>
      <trkpt lat="45.95985" lon="5.5845">
        <ele>778.2</ele>
        <time>2026-05-12T14:47:04Z</time>
      </trkpt>
      <trkpt lat="45.95987" lon="5.58447">
        <ele>778.2</ele>
        <time>2026-05-12T14:47:05Z</time>
      </trkpt>
      <trkpt lat="45.95989" lon="5.58445">
        <ele>778.2</ele>
        <time>2026-05-12T14:47:06Z</time>
      </trkpt>
      <trkpt lat="45.95991" lon="5.58442">
        <ele>778.2</ele>
        <time>2026-05-12T14:47:07Z</time>
      </trkpt>
      <trkpt lat="45.95992" lon="5.5844">
        <ele>777.8</ele>
        <time>2026-05-12T14:47:08Z</time>
      </trkpt>
      <trkpt lat="45.95994" lon="5.58437">
        <ele>777.8</ele>
        <time>2026-05-12T14:47:09Z</time>
      </trkpt>
      <trkpt lat="45.95996" lon="5.58434">
        <ele>778</ele>
        <time>2026-05-12T14:47:10Z</time>
      </trkpt>
      <trkpt lat="45.95998" lon="5.58433">
        <ele>778.2</ele>
        <time>2026-05-12T14:47:11Z</time>
      </trkpt>
      <trkpt lat="45.95999" lon="5.58431">
        <ele>778.2</ele>
        <time>2026-05-12T14:47:12Z</time>
      </trkpt>
      <trkpt lat="45.96001" lon="5.58429">
        <ele>778.2</ele>
        <time>2026-05-12T14:47:13Z</time>
      </trkpt>
      <trkpt lat="45.96003" lon="5.58426">
        <ele>778.2</ele>
        <time>2026-05-12T14:47:14Z</time>
      </trkpt>
      <trkpt lat="45.96004" lon="5.58424">
        <ele>778.4</ele>
        <time>2026-05-12T14:47:15Z</time>
      </trkpt>
      <trkpt lat="45.96006" lon="5.58422">
        <ele>778.4</ele>
        <time>2026-05-12T14:47:16Z</time>
      </trkpt>
      <trkpt lat="45.96008" lon="5.5842">
        <ele>778.2</ele>
        <time>2026-05-12T14:47:17Z</time>
      </trkpt>
      <trkpt lat="45.96009" lon="5.58417">
        <ele>778.2</ele>
        <time>2026-05-12T14:47:18Z</time>
      </trkpt>
      <trkpt lat="45.96011" lon="5.58414">
        <ele>778.2</ele>
        <time>2026-05-12T14:47:19Z</time>
      </trkpt>
      <trkpt lat="45.96012" lon="5.58411">
        <ele>778.2</ele>
        <time>2026-05-12T14:47:20Z</time>
      </trkpt>
      <trkpt lat="45.96014" lon="5.58408">
        <ele>778.4</ele>
        <time>2026-05-12T14:47:21Z</time>
      </trkpt>
      <trkpt lat="45.96015" lon="5.58405">
        <ele>778.4</ele>
        <time>2026-05-12T14:47:22Z</time>
      </trkpt>
      <trkpt lat="45.96017" lon="5.58402">
        <ele>778.4</ele>
        <time>2026-05-12T14:47:23Z</time>
      </trkpt>
      <trkpt lat="45.96018" lon="5.58399">
        <ele>778.4</ele>
        <time>2026-05-12T14:47:24Z</time>
      </trkpt>
      <trkpt lat="45.96019" lon="5.58397">
        <ele>778.2</ele>
        <time>2026-05-12T14:47:25Z</time>
      </trkpt>
      <trkpt lat="45.96021" lon="5.58394">
        <ele>778.2</ele>
        <time>2026-05-12T14:47:26Z</time>
      </trkpt>
      <trkpt lat="45.96023" lon="5.58393">
        <ele>778.2</ele>
        <time>2026-05-12T14:47:27Z</time>
      </trkpt>
      <trkpt lat="45.96024" lon="5.58391">
        <ele>778.2</ele>
        <time>2026-05-12T14:47:28Z</time>
      </trkpt>
      <trkpt lat="45.96026" lon="5.5839">
        <ele>777.8</ele>
        <time>2026-05-12T14:47:29Z</time>
      </trkpt>
      <trkpt lat="45.96028" lon="5.58388">
        <ele>777.8</ele>
        <time>2026-05-12T14:47:30Z</time>
      </trkpt>
      <trkpt lat="45.9603" lon="5.58386">
        <ele>777.8</ele>
        <time>2026-05-12T14:47:31Z</time>
      </trkpt>
      <trkpt lat="45.96032" lon="5.58385">
        <ele>777.8</ele>
        <time>2026-05-12T14:47:32Z</time>
      </trkpt>
      <trkpt lat="45.96034" lon="5.58383">
        <ele>777.8</ele>
        <time>2026-05-12T14:47:33Z</time>
      </trkpt>
      <trkpt lat="45.96038" lon="5.58379">
        <ele>777.8</ele>
        <time>2026-05-12T14:47:34Z</time>
      </trkpt>
      <trkpt lat="45.96041" lon="5.58377">
        <ele>777.8</ele>
        <time>2026-05-12T14:47:35Z</time>
      </trkpt>
      <trkpt lat="45.96043" lon="5.58375">
        <ele>777.8</ele>
        <time>2026-05-12T14:47:36Z</time>
      </trkpt>
      <trkpt lat="45.96046" lon="5.58373">
        <ele>778.2</ele>
        <time>2026-05-12T14:47:37Z</time>
      </trkpt>
      <trkpt lat="45.96048" lon="5.58372">
        <ele>778.2</ele>
        <time>2026-05-12T14:47:38Z</time>
      </trkpt>
      <trkpt lat="45.9605" lon="5.5837">
        <ele>778.2</ele>
        <time>2026-05-12T14:47:39Z</time>
      </trkpt>
      <trkpt lat="45.96052" lon="5.58369">
        <ele>778.2</ele>
        <time>2026-05-12T14:47:40Z</time>
      </trkpt>
      <trkpt lat="45.96054" lon="5.58368">
        <ele>778</ele>
        <time>2026-05-12T14:47:41Z</time>
      </trkpt>
      <trkpt lat="45.96057" lon="5.58366">
        <ele>778</ele>
        <time>2026-05-12T14:47:42Z</time>
      </trkpt>
      <trkpt lat="45.96059" lon="5.58365">
        <ele>778</ele>
        <time>2026-05-12T14:47:43Z</time>
      </trkpt>
      <trkpt lat="45.96061" lon="5.58363">
        <ele>778</ele>
        <time>2026-05-12T14:47:44Z</time>
      </trkpt>
      <trkpt lat="45.96062" lon="5.58362">
        <ele>778.2</ele>
        <time>2026-05-12T14:47:45Z</time>
      </trkpt>
      <trkpt lat="45.96064" lon="5.5836">
        <ele>778.2</ele>
        <time>2026-05-12T14:47:46Z</time>
      </trkpt>
      <trkpt lat="45.96066" lon="5.58359">
        <ele>778.2</ele>
        <time>2026-05-12T14:47:47Z</time>
      </trkpt>
      <trkpt lat="45.96069" lon="5.58357">
        <ele>778</ele>
        <time>2026-05-12T14:47:48Z</time>
      </trkpt>
      <trkpt lat="45.96071" lon="5.58356">
        <ele>778</ele>
        <time>2026-05-12T14:47:49Z</time>
      </trkpt>
      <trkpt lat="45.96073" lon="5.58354">
        <ele>778</ele>
        <time>2026-05-12T14:47:50Z</time>
      </trkpt>
      <trkpt lat="45.96075" lon="5.58352">
        <ele>778.2</ele>
        <time>2026-05-12T14:47:51Z</time>
      </trkpt>
      <trkpt lat="45.96077" lon="5.5835">
        <ele>778.2</ele>
        <time>2026-05-12T14:47:52Z</time>
      </trkpt>
      <trkpt lat="45.96079" lon="5.58348">
        <ele>778.2</ele>
        <time>2026-05-12T14:47:53Z</time>
      </trkpt>
      <trkpt lat="45.96081" lon="5.58346">
        <ele>778.2</ele>
        <time>2026-05-12T14:47:54Z</time>
      </trkpt>
      <trkpt lat="45.96083" lon="5.58344">
        <ele>778.2</ele>
        <time>2026-05-12T14:47:55Z</time>
      </trkpt>
      <trkpt lat="45.96085" lon="5.58342">
        <ele>778.2</ele>
        <time>2026-05-12T14:47:56Z</time>
      </trkpt>
      <trkpt lat="45.96087" lon="5.5834">
        <ele>778.2</ele>
        <time>2026-05-12T14:47:57Z</time>
      </trkpt>
      <trkpt lat="45.9609" lon="5.58338">
        <ele>778.6</ele>
        <time>2026-05-12T14:47:58Z</time>
      </trkpt>
      <trkpt lat="45.9609" lon="5.58338">
        <ele>778.8</ele>
        <time>2026-05-12T14:47:59Z</time>
      </trkpt>
      <trkpt lat="45.96092" lon="5.58336">
        <ele>778.8</ele>
        <time>2026-05-12T14:48:00Z</time>
      </trkpt>
      <trkpt lat="45.96094" lon="5.58334">
        <ele>779.2</ele>
        <time>2026-05-12T14:48:01Z</time>
      </trkpt>
      <trkpt lat="45.96096" lon="5.58333">
        <ele>779.2</ele>
        <time>2026-05-12T14:48:02Z</time>
      </trkpt>
      <trkpt lat="45.96099" lon="5.58331">
        <ele>779.2</ele>
        <time>2026-05-12T14:48:03Z</time>
      </trkpt>
      <trkpt lat="45.96101" lon="5.58329">
        <ele>779.2</ele>
        <time>2026-05-12T14:48:04Z</time>
      </trkpt>
      <trkpt lat="45.96103" lon="5.58327">
        <ele>779.2</ele>
        <time>2026-05-12T14:48:05Z</time>
      </trkpt>
      <trkpt lat="45.96106" lon="5.58325">
        <ele>779.2</ele>
        <time>2026-05-12T14:48:06Z</time>
      </trkpt>
      <trkpt lat="45.96108" lon="5.58323">
        <ele>779.6</ele>
        <time>2026-05-12T14:48:07Z</time>
      </trkpt>
      <trkpt lat="45.9611" lon="5.58321">
        <ele>779.6</ele>
        <time>2026-05-12T14:48:08Z</time>
      </trkpt>
      <trkpt lat="45.96113" lon="5.58319">
        <ele>779.4</ele>
        <time>2026-05-12T14:48:09Z</time>
      </trkpt>
      <trkpt lat="45.96115" lon="5.58317">
        <ele>779.4</ele>
        <time>2026-05-12T14:48:10Z</time>
      </trkpt>
      <trkpt lat="45.96118" lon="5.58315">
        <ele>779</ele>
        <time>2026-05-12T14:48:11Z</time>
      </trkpt>
      <trkpt lat="45.9612" lon="5.58314">
        <ele>779</ele>
        <time>2026-05-12T14:48:12Z</time>
      </trkpt>
      <trkpt lat="45.96123" lon="5.58312">
        <ele>779.4</ele>
        <time>2026-05-12T14:48:13Z</time>
      </trkpt>
      <trkpt lat="45.96125" lon="5.5831">
        <ele>779.2</ele>
        <time>2026-05-12T14:48:14Z</time>
      </trkpt>
      <trkpt lat="45.96127" lon="5.58307">
        <ele>779.2</ele>
        <time>2026-05-12T14:48:15Z</time>
      </trkpt>
      <trkpt lat="45.96129" lon="5.58304">
        <ele>779.2</ele>
        <time>2026-05-12T14:48:16Z</time>
      </trkpt>
      <trkpt lat="45.96131" lon="5.58302">
        <ele>779.2</ele>
        <time>2026-05-12T14:48:17Z</time>
      </trkpt>
      <trkpt lat="45.96134" lon="5.58299">
        <ele>779</ele>
        <time>2026-05-12T14:48:18Z</time>
      </trkpt>
      <trkpt lat="45.96136" lon="5.58297">
        <ele>779</ele>
        <time>2026-05-12T14:48:19Z</time>
      </trkpt>
      <trkpt lat="45.96139" lon="5.58295">
        <ele>779</ele>
        <time>2026-05-12T14:48:20Z</time>
      </trkpt>
      <trkpt lat="45.96141" lon="5.58292">
        <ele>779.2</ele>
        <time>2026-05-12T14:48:21Z</time>
      </trkpt>
      <trkpt lat="45.96143" lon="5.58289">
        <ele>779.2</ele>
        <time>2026-05-12T14:48:22Z</time>
      </trkpt>
      <trkpt lat="45.96145" lon="5.58286">
        <ele>779.2</ele>
        <time>2026-05-12T14:48:23Z</time>
      </trkpt>
      <trkpt lat="45.96146" lon="5.58283">
        <ele>779</ele>
        <time>2026-05-12T14:48:24Z</time>
      </trkpt>
      <trkpt lat="45.96149" lon="5.58281">
        <ele>779</ele>
        <time>2026-05-12T14:48:25Z</time>
      </trkpt>
      <trkpt lat="45.96151" lon="5.58278">
        <ele>779</ele>
        <time>2026-05-12T14:48:26Z</time>
      </trkpt>
      <trkpt lat="45.96153" lon="5.58276">
        <ele>779</ele>
        <time>2026-05-12T14:48:27Z</time>
      </trkpt>
      <trkpt lat="45.96156" lon="5.58273">
        <ele>779.2</ele>
        <time>2026-05-12T14:48:28Z</time>
      </trkpt>
      <trkpt lat="45.96158" lon="5.58271">
        <ele>779.2</ele>
        <time>2026-05-12T14:48:29Z</time>
      </trkpt>
      <trkpt lat="45.9616" lon="5.58269">
        <ele>779.2</ele>
        <time>2026-05-12T14:48:30Z</time>
      </trkpt>
      <trkpt lat="45.96162" lon="5.58267">
        <ele>778.8</ele>
        <time>2026-05-12T14:48:31Z</time>
      </trkpt>
      <trkpt lat="45.96165" lon="5.58264">
        <ele>779</ele>
        <time>2026-05-12T14:48:32Z</time>
      </trkpt>
      <trkpt lat="45.96168" lon="5.58261">
        <ele>779</ele>
        <time>2026-05-12T14:48:33Z</time>
      </trkpt>
      <trkpt lat="45.96171" lon="5.58259">
        <ele>779</ele>
        <time>2026-05-12T14:48:34Z</time>
      </trkpt>
      <trkpt lat="45.96174" lon="5.58256">
        <ele>779</ele>
        <time>2026-05-12T14:48:35Z</time>
      </trkpt>
      <trkpt lat="45.96176" lon="5.58254">
        <ele>778.8</ele>
        <time>2026-05-12T14:48:36Z</time>
      </trkpt>
      <trkpt lat="45.96179" lon="5.58251">
        <ele>778.8</ele>
        <time>2026-05-12T14:48:37Z</time>
      </trkpt>
      <trkpt lat="45.96182" lon="5.58247">
        <ele>778.8</ele>
        <time>2026-05-12T14:48:38Z</time>
      </trkpt>
      <trkpt lat="45.96185" lon="5.58245">
        <ele>778.4</ele>
        <time>2026-05-12T14:48:39Z</time>
      </trkpt>
      <trkpt lat="45.96188" lon="5.58244">
        <ele>778.4</ele>
        <time>2026-05-12T14:48:40Z</time>
      </trkpt>
      <trkpt lat="45.96191" lon="5.58244">
        <ele>778.4</ele>
        <time>2026-05-12T14:48:41Z</time>
      </trkpt>
      <trkpt lat="45.96195" lon="5.58244">
        <ele>778.2</ele>
        <time>2026-05-12T14:48:42Z</time>
      </trkpt>
      <trkpt lat="45.96198" lon="5.58244">
        <ele>778.2</ele>
        <time>2026-05-12T14:48:43Z</time>
      </trkpt>
      <trkpt lat="45.96202" lon="5.58244">
        <ele>778</ele>
        <time>2026-05-12T14:48:44Z</time>
      </trkpt>
      <trkpt lat="45.96206" lon="5.58244">
        <ele>778</ele>
        <time>2026-05-12T14:48:45Z</time>
      </trkpt>
      <trkpt lat="45.96209" lon="5.58244">
        <ele>778</ele>
        <time>2026-05-12T14:48:46Z</time>
      </trkpt>
      <trkpt lat="45.96212" lon="5.58244">
        <ele>778</ele>
        <time>2026-05-12T14:48:47Z</time>
      </trkpt>
      <trkpt lat="45.96216" lon="5.58244">
        <ele>778</ele>
        <time>2026-05-12T14:48:48Z</time>
      </trkpt>
      <trkpt lat="45.96219" lon="5.58244">
        <ele>777.6</ele>
        <time>2026-05-12T14:48:49Z</time>
      </trkpt>
      <trkpt lat="45.96223" lon="5.58244">
        <ele>777.4</ele>
        <time>2026-05-12T14:48:50Z</time>
      </trkpt>
      <trkpt lat="45.96226" lon="5.58244">
        <ele>777.4</ele>
        <time>2026-05-12T14:48:51Z</time>
      </trkpt>
      <trkpt lat="45.96229" lon="5.58244">
        <ele>777.4</ele>
        <time>2026-05-12T14:48:52Z</time>
      </trkpt>
      <trkpt lat="45.96232" lon="5.58243">
        <ele>777.8</ele>
        <time>2026-05-12T14:48:53Z</time>
      </trkpt>
      <trkpt lat="45.96236" lon="5.58243">
        <ele>777.8</ele>
        <time>2026-05-12T14:48:54Z</time>
      </trkpt>
      <trkpt lat="45.96239" lon="5.58243">
        <ele>777.6</ele>
        <time>2026-05-12T14:48:55Z</time>
      </trkpt>
      <trkpt lat="45.96242" lon="5.58243">
        <ele>777.8</ele>
        <time>2026-05-12T14:48:56Z</time>
      </trkpt>
      <trkpt lat="45.96246" lon="5.58243">
        <ele>777.6</ele>
        <time>2026-05-12T14:48:57Z</time>
      </trkpt>
      <trkpt lat="45.96249" lon="5.58243">
        <ele>777.6</ele>
        <time>2026-05-12T14:48:58Z</time>
      </trkpt>
      <trkpt lat="45.96252" lon="5.58243">
        <ele>777.6</ele>
        <time>2026-05-12T14:48:59Z</time>
      </trkpt>
      <trkpt lat="45.96255" lon="5.58243">
        <ele>777.6</ele>
        <time>2026-05-12T14:49:00Z</time>
      </trkpt>
      <trkpt lat="45.96259" lon="5.58243">
        <ele>777.6</ele>
        <time>2026-05-12T14:49:01Z</time>
      </trkpt>
      <trkpt lat="45.96262" lon="5.58243">
        <ele>778</ele>
        <time>2026-05-12T14:49:02Z</time>
      </trkpt>
      <trkpt lat="45.96265" lon="5.58243">
        <ele>778</ele>
        <time>2026-05-12T14:49:03Z</time>
      </trkpt>
      <trkpt lat="45.96269" lon="5.58243">
        <ele>777.6</ele>
        <time>2026-05-12T14:49:04Z</time>
      </trkpt>
      <trkpt lat="45.96272" lon="5.58243">
        <ele>777.6</ele>
        <time>2026-05-12T14:49:05Z</time>
      </trkpt>
      <trkpt lat="45.96275" lon="5.58243">
        <ele>777.6</ele>
        <time>2026-05-12T14:49:06Z</time>
      </trkpt>
      <trkpt lat="45.96278" lon="5.58244">
        <ele>777.8</ele>
        <time>2026-05-12T14:49:07Z</time>
      </trkpt>
      <trkpt lat="45.96281" lon="5.58244">
        <ele>778.2</ele>
        <time>2026-05-12T14:49:08Z</time>
      </trkpt>
      <trkpt lat="45.96285" lon="5.58244">
        <ele>778.2</ele>
        <time>2026-05-12T14:49:09Z</time>
      </trkpt>
      <trkpt lat="45.96288" lon="5.58246">
        <ele>778.2</ele>
        <time>2026-05-12T14:49:10Z</time>
      </trkpt>
      <trkpt lat="45.96291" lon="5.58247">
        <ele>778.2</ele>
        <time>2026-05-12T14:49:11Z</time>
      </trkpt>
      <trkpt lat="45.96294" lon="5.58248">
        <ele>778.2</ele>
        <time>2026-05-12T14:49:12Z</time>
      </trkpt>
      <trkpt lat="45.96297" lon="5.58249">
        <ele>778.2</ele>
        <time>2026-05-12T14:49:13Z</time>
      </trkpt>
      <trkpt lat="45.963" lon="5.58251">
        <ele>778.2</ele>
        <time>2026-05-12T14:49:14Z</time>
      </trkpt>
      <trkpt lat="45.96303" lon="5.58252">
        <ele>778.2</ele>
        <time>2026-05-12T14:49:15Z</time>
      </trkpt>
      <trkpt lat="45.96306" lon="5.58254">
        <ele>778.2</ele>
        <time>2026-05-12T14:49:16Z</time>
      </trkpt>
      <trkpt lat="45.9631" lon="5.58256">
        <ele>778.2</ele>
        <time>2026-05-12T14:49:17Z</time>
      </trkpt>
      <trkpt lat="45.96313" lon="5.58258">
        <ele>778.2</ele>
        <time>2026-05-12T14:49:18Z</time>
      </trkpt>
      <trkpt lat="45.96316" lon="5.5826">
        <ele>778.2</ele>
        <time>2026-05-12T14:49:19Z</time>
      </trkpt>
      <trkpt lat="45.96319" lon="5.58262">
        <ele>777.8</ele>
        <time>2026-05-12T14:49:20Z</time>
      </trkpt>
      <trkpt lat="45.96322" lon="5.58263">
        <ele>777.8</ele>
        <time>2026-05-12T14:49:21Z</time>
      </trkpt>
      <trkpt lat="45.96325" lon="5.58265">
        <ele>777.6</ele>
        <time>2026-05-12T14:49:22Z</time>
      </trkpt>
      <trkpt lat="45.96328" lon="5.58267">
        <ele>777.6</ele>
        <time>2026-05-12T14:49:23Z</time>
      </trkpt>
      <trkpt lat="45.96331" lon="5.58268">
        <ele>777.6</ele>
        <time>2026-05-12T14:49:24Z</time>
      </trkpt>
      <trkpt lat="45.96334" lon="5.5827">
        <ele>777.8</ele>
        <time>2026-05-12T14:49:25Z</time>
      </trkpt>
      <trkpt lat="45.96337" lon="5.58271">
        <ele>777.8</ele>
        <time>2026-05-12T14:49:26Z</time>
      </trkpt>
      <trkpt lat="45.9634" lon="5.58273">
        <ele>778.2</ele>
        <time>2026-05-12T14:49:27Z</time>
      </trkpt>
      <trkpt lat="45.96343" lon="5.58274">
        <ele>778.4</ele>
        <time>2026-05-12T14:49:28Z</time>
      </trkpt>
      <trkpt lat="45.96346" lon="5.58276">
        <ele>778.2</ele>
        <time>2026-05-12T14:49:29Z</time>
      </trkpt>
      <trkpt lat="45.96349" lon="5.58277">
        <ele>778.4</ele>
        <time>2026-05-12T14:49:30Z</time>
      </trkpt>
      <trkpt lat="45.96352" lon="5.58279">
        <ele>778.4</ele>
        <time>2026-05-12T14:49:31Z</time>
      </trkpt>
      <trkpt lat="45.96355" lon="5.5828">
        <ele>778.4</ele>
        <time>2026-05-12T14:49:32Z</time>
      </trkpt>
      <trkpt lat="45.96358" lon="5.58282">
        <ele>778.8</ele>
        <time>2026-05-12T14:49:33Z</time>
      </trkpt>
      <trkpt lat="45.9636" lon="5.58284">
        <ele>778.4</ele>
        <time>2026-05-12T14:49:34Z</time>
      </trkpt>
      <trkpt lat="45.96363" lon="5.58286">
        <ele>778.4</ele>
        <time>2026-05-12T14:49:35Z</time>
      </trkpt>
      <trkpt lat="45.96366" lon="5.58288">
        <ele>778.4</ele>
        <time>2026-05-12T14:49:36Z</time>
      </trkpt>
      <trkpt lat="45.96369" lon="5.5829">
        <ele>778.4</ele>
        <time>2026-05-12T14:49:37Z</time>
      </trkpt>
      <trkpt lat="45.96372" lon="5.58293">
        <ele>778.4</ele>
        <time>2026-05-12T14:49:38Z</time>
      </trkpt>
      <trkpt lat="45.96375" lon="5.58295">
        <ele>778.4</ele>
        <time>2026-05-12T14:49:39Z</time>
      </trkpt>
      <trkpt lat="45.96378" lon="5.58297">
        <ele>778.4</ele>
        <time>2026-05-12T14:49:40Z</time>
      </trkpt>
      <trkpt lat="45.96381" lon="5.58299">
        <ele>777.8</ele>
        <time>2026-05-12T14:49:41Z</time>
      </trkpt>
      <trkpt lat="45.96384" lon="5.58302">
        <ele>777.8</ele>
        <time>2026-05-12T14:49:42Z</time>
      </trkpt>
      <trkpt lat="45.96387" lon="5.58304">
        <ele>777.8</ele>
        <time>2026-05-12T14:49:43Z</time>
      </trkpt>
      <trkpt lat="45.96389" lon="5.58306">
        <ele>777.8</ele>
        <time>2026-05-12T14:49:44Z</time>
      </trkpt>
      <trkpt lat="45.96392" lon="5.58308">
        <ele>777.8</ele>
        <time>2026-05-12T14:49:45Z</time>
      </trkpt>
      <trkpt lat="45.96395" lon="5.58309">
        <ele>777.8</ele>
        <time>2026-05-12T14:49:46Z</time>
      </trkpt>
      <trkpt lat="45.96397" lon="5.58311">
        <ele>777.8</ele>
        <time>2026-05-12T14:49:47Z</time>
      </trkpt>
      <trkpt lat="45.964" lon="5.58313">
        <ele>777.8</ele>
        <time>2026-05-12T14:49:48Z</time>
      </trkpt>
      <trkpt lat="45.96404" lon="5.58316">
        <ele>777.6</ele>
        <time>2026-05-12T14:49:49Z</time>
      </trkpt>
      <trkpt lat="45.96407" lon="5.58317">
        <ele>777.6</ele>
        <time>2026-05-12T14:49:50Z</time>
      </trkpt>
      <trkpt lat="45.96411" lon="5.58317">
        <ele>777.8</ele>
        <time>2026-05-12T14:49:51Z</time>
      </trkpt>
      <trkpt lat="45.96414" lon="5.58318">
        <ele>777.8</ele>
        <time>2026-05-12T14:49:52Z</time>
      </trkpt>
      <trkpt lat="45.96417" lon="5.58318">
        <ele>778.4</ele>
        <time>2026-05-12T14:49:53Z</time>
      </trkpt>
      <trkpt lat="45.96419" lon="5.5832">
        <ele>778.4</ele>
        <time>2026-05-12T14:49:54Z</time>
      </trkpt>
      <trkpt lat="45.96421" lon="5.58322">
        <ele>778.4</ele>
        <time>2026-05-12T14:49:55Z</time>
      </trkpt>
      <trkpt lat="45.96424" lon="5.58324">
        <ele>778.8</ele>
        <time>2026-05-12T14:49:56Z</time>
      </trkpt>
      <trkpt lat="45.96427" lon="5.58326">
        <ele>778.8</ele>
        <time>2026-05-12T14:49:57Z</time>
      </trkpt>
      <trkpt lat="45.96429" lon="5.58327">
        <ele>778.8</ele>
        <time>2026-05-12T14:49:58Z</time>
      </trkpt>
      <trkpt lat="45.96432" lon="5.58328">
        <ele>778.8</ele>
        <time>2026-05-12T14:49:59Z</time>
      </trkpt>
      <trkpt lat="45.96435" lon="5.58328">
        <ele>778.8</ele>
        <time>2026-05-12T14:50:00Z</time>
      </trkpt>
      <trkpt lat="45.96437" lon="5.58328">
        <ele>778.4</ele>
        <time>2026-05-12T14:50:01Z</time>
      </trkpt>
      <trkpt lat="45.9644" lon="5.58328">
        <ele>778.4</ele>
        <time>2026-05-12T14:50:02Z</time>
      </trkpt>
      <trkpt lat="45.96443" lon="5.58327">
        <ele>778.4</ele>
        <time>2026-05-12T14:50:03Z</time>
      </trkpt>
      <trkpt lat="45.96446" lon="5.58327">
        <ele>778.4</ele>
        <time>2026-05-12T14:50:04Z</time>
      </trkpt>
      <trkpt lat="45.96449" lon="5.58327">
        <ele>778.4</ele>
        <time>2026-05-12T14:50:05Z</time>
      </trkpt>
      <trkpt lat="45.96452" lon="5.58326">
        <ele>778.4</ele>
        <time>2026-05-12T14:50:06Z</time>
      </trkpt>
      <trkpt lat="45.96455" lon="5.58326">
        <ele>778.4</ele>
        <time>2026-05-12T14:50:07Z</time>
      </trkpt>
      <trkpt lat="45.96457" lon="5.58325">
        <ele>778.4</ele>
        <time>2026-05-12T14:50:08Z</time>
      </trkpt>
      <trkpt lat="45.9646" lon="5.58325">
        <ele>778.4</ele>
        <time>2026-05-12T14:50:09Z</time>
      </trkpt>
      <trkpt lat="45.96462" lon="5.58325">
        <ele>778.4</ele>
        <time>2026-05-12T14:50:10Z</time>
      </trkpt>
      <trkpt lat="45.96465" lon="5.58324">
        <ele>778.4</ele>
        <time>2026-05-12T14:50:11Z</time>
      </trkpt>
      <trkpt lat="45.96468" lon="5.58324">
        <ele>778.8</ele>
        <time>2026-05-12T14:50:12Z</time>
      </trkpt>
      <trkpt lat="45.9647" lon="5.58324">
        <ele>778.8</ele>
        <time>2026-05-12T14:50:13Z</time>
      </trkpt>
      <trkpt lat="45.96473" lon="5.58323">
        <ele>779.2</ele>
        <time>2026-05-12T14:50:14Z</time>
      </trkpt>
      <trkpt lat="45.96476" lon="5.58323">
        <ele>779.2</ele>
        <time>2026-05-12T14:50:15Z</time>
      </trkpt>
      <trkpt lat="45.96479" lon="5.58322">
        <ele>779.2</ele>
        <time>2026-05-12T14:50:16Z</time>
      </trkpt>
      <trkpt lat="45.96481" lon="5.58322">
        <ele>779.2</ele>
        <time>2026-05-12T14:50:17Z</time>
      </trkpt>
      <trkpt lat="45.96484" lon="5.58322">
        <ele>778.8</ele>
        <time>2026-05-12T14:50:18Z</time>
      </trkpt>
      <trkpt lat="45.96486" lon="5.58324">
        <ele>779</ele>
        <time>2026-05-12T14:50:19Z</time>
      </trkpt>
      <trkpt lat="45.96488" lon="5.58328">
        <ele>779.4</ele>
        <time>2026-05-12T14:50:20Z</time>
      </trkpt>
      <trkpt lat="45.96489" lon="5.58333">
        <ele>779.8</ele>
        <time>2026-05-12T14:50:21Z</time>
      </trkpt>
      <trkpt lat="45.9649" lon="5.58337">
        <ele>780</ele>
        <time>2026-05-12T14:50:22Z</time>
      </trkpt>
      <trkpt lat="45.96492" lon="5.58341">
        <ele>780</ele>
        <time>2026-05-12T14:50:23Z</time>
      </trkpt>
      <trkpt lat="45.96496" lon="5.58343">
        <ele>780</ele>
        <time>2026-05-12T14:50:24Z</time>
      </trkpt>
      <trkpt lat="45.96499" lon="5.58345">
        <ele>779.6</ele>
        <time>2026-05-12T14:50:25Z</time>
      </trkpt>
      <trkpt lat="45.96501" lon="5.58349">
        <ele>779.6</ele>
        <time>2026-05-12T14:50:26Z</time>
      </trkpt>
      <trkpt lat="45.96502" lon="5.58353">
        <ele>779.6</ele>
        <time>2026-05-12T14:50:27Z</time>
      </trkpt>
      <trkpt lat="45.96503" lon="5.58357">
        <ele>779.6</ele>
        <time>2026-05-12T14:50:28Z</time>
      </trkpt>
      <trkpt lat="45.96503" lon="5.58362">
        <ele>779.6</ele>
        <time>2026-05-12T14:50:29Z</time>
      </trkpt>
      <trkpt lat="45.96504" lon="5.58366">
        <ele>779.6</ele>
        <time>2026-05-12T14:50:30Z</time>
      </trkpt>
      <trkpt lat="45.96503" lon="5.5837">
        <ele>779.6</ele>
        <time>2026-05-12T14:50:31Z</time>
      </trkpt>
      <trkpt lat="45.96503" lon="5.58375">
        <ele>779.4</ele>
        <time>2026-05-12T14:50:32Z</time>
      </trkpt>
      <trkpt lat="45.96504" lon="5.5838">
        <ele>779.4</ele>
        <time>2026-05-12T14:50:33Z</time>
      </trkpt>
      <trkpt lat="45.96504" lon="5.58385">
        <ele>779.4</ele>
        <time>2026-05-12T14:50:34Z</time>
      </trkpt>
      <trkpt lat="45.96505" lon="5.58391">
        <ele>779.2</ele>
        <time>2026-05-12T14:50:35Z</time>
      </trkpt>
      <trkpt lat="45.96506" lon="5.58401">
        <ele>779.2</ele>
        <time>2026-05-12T14:50:36Z</time>
      </trkpt>
      <trkpt lat="45.96506" lon="5.58407">
        <ele>778.8</ele>
        <time>2026-05-12T14:50:37Z</time>
      </trkpt>
      <trkpt lat="45.96506" lon="5.58413">
        <ele>778.8</ele>
        <time>2026-05-12T14:50:38Z</time>
      </trkpt>
      <trkpt lat="45.96505" lon="5.58419">
        <ele>778.8</ele>
        <time>2026-05-12T14:50:39Z</time>
      </trkpt>
      <trkpt lat="45.96505" lon="5.58424">
        <ele>778.8</ele>
        <time>2026-05-12T14:50:40Z</time>
      </trkpt>
      <trkpt lat="45.96504" lon="5.58429">
        <ele>778.8</ele>
        <time>2026-05-12T14:50:41Z</time>
      </trkpt>
      <trkpt lat="45.96504" lon="5.58435">
        <ele>778.8</ele>
        <time>2026-05-12T14:50:42Z</time>
      </trkpt>
      <trkpt lat="45.96504" lon="5.5844">
        <ele>778.8</ele>
        <time>2026-05-12T14:50:43Z</time>
      </trkpt>
      <trkpt lat="45.96503" lon="5.58445">
        <ele>779</ele>
        <time>2026-05-12T14:50:44Z</time>
      </trkpt>
      <trkpt lat="45.96503" lon="5.5845">
        <ele>779</ele>
        <time>2026-05-12T14:50:45Z</time>
      </trkpt>
      <trkpt lat="45.96502" lon="5.58455">
        <ele>778.8</ele>
        <time>2026-05-12T14:50:46Z</time>
      </trkpt>
      <trkpt lat="45.96501" lon="5.58459">
        <ele>778.8</ele>
        <time>2026-05-12T14:50:47Z</time>
      </trkpt>
      <trkpt lat="45.96501" lon="5.58464">
        <ele>779.2</ele>
        <time>2026-05-12T14:50:48Z</time>
      </trkpt>
      <trkpt lat="45.965" lon="5.58468">
        <ele>779.2</ele>
        <time>2026-05-12T14:50:49Z</time>
      </trkpt>
      <trkpt lat="45.965" lon="5.58473">
        <ele>779.4</ele>
        <time>2026-05-12T14:50:50Z</time>
      </trkpt>
      <trkpt lat="45.965" lon="5.58478">
        <ele>779.4</ele>
        <time>2026-05-12T14:50:51Z</time>
      </trkpt>
      <trkpt lat="45.96501" lon="5.58482">
        <ele>779.4</ele>
        <time>2026-05-12T14:50:52Z</time>
      </trkpt>
      <trkpt lat="45.96501" lon="5.58487">
        <ele>779.6</ele>
        <time>2026-05-12T14:50:53Z</time>
      </trkpt>
      <trkpt lat="45.96502" lon="5.58492">
        <ele>779.8</ele>
        <time>2026-05-12T14:50:54Z</time>
      </trkpt>
      <trkpt lat="45.96502" lon="5.58497">
        <ele>779.8</ele>
        <time>2026-05-12T14:50:55Z</time>
      </trkpt>
      <trkpt lat="45.96502" lon="5.58502">
        <ele>779.8</ele>
        <time>2026-05-12T14:50:56Z</time>
      </trkpt>
      <trkpt lat="45.96503" lon="5.58508">
        <ele>779.6</ele>
        <time>2026-05-12T14:50:57Z</time>
      </trkpt>
      <trkpt lat="45.96503" lon="5.58514">
        <ele>779.6</ele>
        <time>2026-05-12T14:50:58Z</time>
      </trkpt>
      <trkpt lat="45.96504" lon="5.5852">
        <ele>779.2</ele>
        <time>2026-05-12T14:50:59Z</time>
      </trkpt>
      <trkpt lat="45.96504" lon="5.5852">
        <ele>779.2</ele>
        <time>2026-05-12T14:51:00Z</time>
      </trkpt>
      <trkpt lat="45.96504" lon="5.58525">
        <ele>779.2</ele>
        <time>2026-05-12T14:51:01Z</time>
      </trkpt>
      <trkpt lat="45.96505" lon="5.58531">
        <ele>779.2</ele>
        <time>2026-05-12T14:51:02Z</time>
      </trkpt>
      <trkpt lat="45.96506" lon="5.58536">
        <ele>779.2</ele>
        <time>2026-05-12T14:51:03Z</time>
      </trkpt>
      <trkpt lat="45.96507" lon="5.5854">
        <ele>779.2</ele>
        <time>2026-05-12T14:51:04Z</time>
      </trkpt>
      <trkpt lat="45.96508" lon="5.58545">
        <ele>779.2</ele>
        <time>2026-05-12T14:51:05Z</time>
      </trkpt>
      <trkpt lat="45.9651" lon="5.5855">
        <ele>779.2</ele>
        <time>2026-05-12T14:51:06Z</time>
      </trkpt>
      <trkpt lat="45.96511" lon="5.58555">
        <ele>779.2</ele>
        <time>2026-05-12T14:51:07Z</time>
      </trkpt>
      <trkpt lat="45.96513" lon="5.58559">
        <ele>779.2</ele>
        <time>2026-05-12T14:51:08Z</time>
      </trkpt>
      <trkpt lat="45.96515" lon="5.58564">
        <ele>779</ele>
        <time>2026-05-12T14:51:09Z</time>
      </trkpt>
      <trkpt lat="45.96517" lon="5.58568">
        <ele>779</ele>
        <time>2026-05-12T14:51:10Z</time>
      </trkpt>
      <trkpt lat="45.96519" lon="5.58572">
        <ele>779</ele>
        <time>2026-05-12T14:51:11Z</time>
      </trkpt>
      <trkpt lat="45.96521" lon="5.58576">
        <ele>779</ele>
        <time>2026-05-12T14:51:12Z</time>
      </trkpt>
      <trkpt lat="45.96523" lon="5.5858">
        <ele>779</ele>
        <time>2026-05-12T14:51:13Z</time>
      </trkpt>
      <trkpt lat="45.96526" lon="5.58584">
        <ele>779</ele>
        <time>2026-05-12T14:51:14Z</time>
      </trkpt>
      <trkpt lat="45.96527" lon="5.58587">
        <ele>779</ele>
        <time>2026-05-12T14:51:15Z</time>
      </trkpt>
      <trkpt lat="45.96529" lon="5.5859">
        <ele>779</ele>
        <time>2026-05-12T14:51:16Z</time>
      </trkpt>
      <trkpt lat="45.96532" lon="5.58594">
        <ele>779</ele>
        <time>2026-05-12T14:51:17Z</time>
      </trkpt>
      <trkpt lat="45.96534" lon="5.58596">
        <ele>779.2</ele>
        <time>2026-05-12T14:51:18Z</time>
      </trkpt>
      <trkpt lat="45.96536" lon="5.58599">
        <ele>779.6</ele>
        <time>2026-05-12T14:51:19Z</time>
      </trkpt>
      <trkpt lat="45.96538" lon="5.58603">
        <ele>779.6</ele>
        <time>2026-05-12T14:51:20Z</time>
      </trkpt>
      <trkpt lat="45.9654" lon="5.58607">
        <ele>779.6</ele>
        <time>2026-05-12T14:51:21Z</time>
      </trkpt>
      <trkpt lat="45.96542" lon="5.58611">
        <ele>780</ele>
        <time>2026-05-12T14:51:22Z</time>
      </trkpt>
      <trkpt lat="45.96543" lon="5.58615">
        <ele>780</ele>
        <time>2026-05-12T14:51:23Z</time>
      </trkpt>
      <trkpt lat="45.96545" lon="5.58619">
        <ele>780</ele>
        <time>2026-05-12T14:51:24Z</time>
      </trkpt>
      <trkpt lat="45.96546" lon="5.58623">
        <ele>780</ele>
        <time>2026-05-12T14:51:25Z</time>
      </trkpt>
      <trkpt lat="45.96548" lon="5.58628">
        <ele>780</ele>
        <time>2026-05-12T14:51:26Z</time>
      </trkpt>
      <trkpt lat="45.96549" lon="5.58632">
        <ele>780</ele>
        <time>2026-05-12T14:51:27Z</time>
      </trkpt>
      <trkpt lat="45.9655" lon="5.58637">
        <ele>780</ele>
        <time>2026-05-12T14:51:28Z</time>
      </trkpt>
      <trkpt lat="45.96552" lon="5.58641">
        <ele>780</ele>
        <time>2026-05-12T14:51:29Z</time>
      </trkpt>
      <trkpt lat="45.96554" lon="5.58645">
        <ele>780</ele>
        <time>2026-05-12T14:51:30Z</time>
      </trkpt>
      <trkpt lat="45.96556" lon="5.58649">
        <ele>780</ele>
        <time>2026-05-12T14:51:31Z</time>
      </trkpt>
      <trkpt lat="45.96558" lon="5.58653">
        <ele>780.2</ele>
        <time>2026-05-12T14:51:32Z</time>
      </trkpt>
      <trkpt lat="45.96561" lon="5.58657">
        <ele>780.2</ele>
        <time>2026-05-12T14:51:33Z</time>
      </trkpt>
      <trkpt lat="45.96564" lon="5.5866">
        <ele>780.6</ele>
        <time>2026-05-12T14:51:34Z</time>
      </trkpt>
      <trkpt lat="45.96566" lon="5.58664">
        <ele>780.6</ele>
        <time>2026-05-12T14:51:35Z</time>
      </trkpt>
      <trkpt lat="45.96569" lon="5.58667">
        <ele>780.4</ele>
        <time>2026-05-12T14:51:36Z</time>
      </trkpt>
      <trkpt lat="45.96572" lon="5.58671">
        <ele>780.4</ele>
        <time>2026-05-12T14:51:37Z</time>
      </trkpt>
      <trkpt lat="45.96575" lon="5.58673">
        <ele>780.4</ele>
        <time>2026-05-12T14:51:38Z</time>
      </trkpt>
      <trkpt lat="45.96578" lon="5.58676">
        <ele>780.4</ele>
        <time>2026-05-12T14:51:39Z</time>
      </trkpt>
      <trkpt lat="45.96581" lon="5.58678">
        <ele>780.4</ele>
        <time>2026-05-12T14:51:40Z</time>
      </trkpt>
      <trkpt lat="45.96584" lon="5.5868">
        <ele>780.4</ele>
        <time>2026-05-12T14:51:41Z</time>
      </trkpt>
      <trkpt lat="45.96587" lon="5.58682">
        <ele>780.6</ele>
        <time>2026-05-12T14:51:42Z</time>
      </trkpt>
      <trkpt lat="45.96589" lon="5.58685">
        <ele>780.6</ele>
        <time>2026-05-12T14:51:43Z</time>
      </trkpt>
      <trkpt lat="45.96592" lon="5.58688">
        <ele>780.6</ele>
        <time>2026-05-12T14:51:44Z</time>
      </trkpt>
      <trkpt lat="45.96595" lon="5.58691">
        <ele>780.6</ele>
        <time>2026-05-12T14:51:45Z</time>
      </trkpt>
      <trkpt lat="45.96598" lon="5.58694">
        <ele>780.6</ele>
        <time>2026-05-12T14:51:46Z</time>
      </trkpt>
      <trkpt lat="45.96601" lon="5.58697">
        <ele>780.6</ele>
        <time>2026-05-12T14:51:47Z</time>
      </trkpt>
      <trkpt lat="45.96604" lon="5.587">
        <ele>780.8</ele>
        <time>2026-05-12T14:51:48Z</time>
      </trkpt>
      <trkpt lat="45.96607" lon="5.58703">
        <ele>780.8</ele>
        <time>2026-05-12T14:51:49Z</time>
      </trkpt>
      <trkpt lat="45.9661" lon="5.58706">
        <ele>781</ele>
        <time>2026-05-12T14:51:50Z</time>
      </trkpt>
      <trkpt lat="45.96613" lon="5.58709">
        <ele>781</ele>
        <time>2026-05-12T14:51:51Z</time>
      </trkpt>
      <trkpt lat="45.96616" lon="5.58712">
        <ele>781</ele>
        <time>2026-05-12T14:51:52Z</time>
      </trkpt>
      <trkpt lat="45.96619" lon="5.58715">
        <ele>781</ele>
        <time>2026-05-12T14:51:53Z</time>
      </trkpt>
      <trkpt lat="45.96622" lon="5.58718">
        <ele>781</ele>
        <time>2026-05-12T14:51:54Z</time>
      </trkpt>
      <trkpt lat="45.96625" lon="5.58721">
        <ele>781</ele>
        <time>2026-05-12T14:51:55Z</time>
      </trkpt>
      <trkpt lat="45.96628" lon="5.58725">
        <ele>781</ele>
        <time>2026-05-12T14:51:56Z</time>
      </trkpt>
      <trkpt lat="45.9663" lon="5.58729">
        <ele>781</ele>
        <time>2026-05-12T14:51:57Z</time>
      </trkpt>
      <trkpt lat="45.96633" lon="5.58733">
        <ele>781.4</ele>
        <time>2026-05-12T14:51:58Z</time>
      </trkpt>
      <trkpt lat="45.96635" lon="5.58737">
        <ele>781.4</ele>
        <time>2026-05-12T14:51:59Z</time>
      </trkpt>
      <trkpt lat="45.96636" lon="5.58742">
        <ele>781.4</ele>
        <time>2026-05-12T14:52:00Z</time>
      </trkpt>
      <trkpt lat="45.96638" lon="5.58747">
        <ele>781.4</ele>
        <time>2026-05-12T14:52:01Z</time>
      </trkpt>
      <trkpt lat="45.9664" lon="5.58752">
        <ele>781.4</ele>
        <time>2026-05-12T14:52:02Z</time>
      </trkpt>
      <trkpt lat="45.96641" lon="5.58758">
        <ele>781.4</ele>
        <time>2026-05-12T14:52:03Z</time>
      </trkpt>
      <trkpt lat="45.96642" lon="5.58763">
        <ele>781.6</ele>
        <time>2026-05-12T14:52:04Z</time>
      </trkpt>
      <trkpt lat="45.96643" lon="5.58768">
        <ele>781.6</ele>
        <time>2026-05-12T14:52:05Z</time>
      </trkpt>
      <trkpt lat="45.96644" lon="5.58773">
        <ele>781.6</ele>
        <time>2026-05-12T14:52:06Z</time>
      </trkpt>
      <trkpt lat="45.96645" lon="5.58778">
        <ele>781.6</ele>
        <time>2026-05-12T14:52:07Z</time>
      </trkpt>
      <trkpt lat="45.96646" lon="5.58784">
        <ele>781.6</ele>
        <time>2026-05-12T14:52:08Z</time>
      </trkpt>
      <trkpt lat="45.96648" lon="5.5879">
        <ele>781.6</ele>
        <time>2026-05-12T14:52:09Z</time>
      </trkpt>
      <trkpt lat="45.9665" lon="5.58794">
        <ele>781.6</ele>
        <time>2026-05-12T14:52:10Z</time>
      </trkpt>
      <trkpt lat="45.96652" lon="5.58799">
        <ele>781.6</ele>
        <time>2026-05-12T14:52:11Z</time>
      </trkpt>
      <trkpt lat="45.96655" lon="5.58804">
        <ele>781.8</ele>
        <time>2026-05-12T14:52:12Z</time>
      </trkpt>
      <trkpt lat="45.96658" lon="5.58809">
        <ele>781.8</ele>
        <time>2026-05-12T14:52:13Z</time>
      </trkpt>
      <trkpt lat="45.9666" lon="5.58813">
        <ele>781.8</ele>
        <time>2026-05-12T14:52:14Z</time>
      </trkpt>
      <trkpt lat="45.96663" lon="5.58818">
        <ele>781.8</ele>
        <time>2026-05-12T14:52:15Z</time>
      </trkpt>
      <trkpt lat="45.96666" lon="5.58822">
        <ele>781.8</ele>
        <time>2026-05-12T14:52:16Z</time>
      </trkpt>
      <trkpt lat="45.96669" lon="5.58826">
        <ele>781.8</ele>
        <time>2026-05-12T14:52:17Z</time>
      </trkpt>
      <trkpt lat="45.96672" lon="5.5883">
        <ele>781.8</ele>
        <time>2026-05-12T14:52:18Z</time>
      </trkpt>
      <trkpt lat="45.96675" lon="5.58835">
        <ele>781.8</ele>
        <time>2026-05-12T14:52:19Z</time>
      </trkpt>
      <trkpt lat="45.96678" lon="5.58839">
        <ele>781.8</ele>
        <time>2026-05-12T14:52:20Z</time>
      </trkpt>
      <trkpt lat="45.96681" lon="5.58843">
        <ele>781.6</ele>
        <time>2026-05-12T14:52:21Z</time>
      </trkpt>
      <trkpt lat="45.96684" lon="5.58847">
        <ele>781.6</ele>
        <time>2026-05-12T14:52:22Z</time>
      </trkpt>
      <trkpt lat="45.96687" lon="5.58851">
        <ele>781.6</ele>
        <time>2026-05-12T14:52:23Z</time>
      </trkpt>
      <trkpt lat="45.96691" lon="5.58855">
        <ele>781.6</ele>
        <time>2026-05-12T14:52:24Z</time>
      </trkpt>
      <trkpt lat="45.96694" lon="5.58859">
        <ele>781.6</ele>
        <time>2026-05-12T14:52:25Z</time>
      </trkpt>
      <trkpt lat="45.96697" lon="5.58863">
        <ele>781.6</ele>
        <time>2026-05-12T14:52:26Z</time>
      </trkpt>
      <trkpt lat="45.967" lon="5.58867">
        <ele>781.6</ele>
        <time>2026-05-12T14:52:27Z</time>
      </trkpt>
      <trkpt lat="45.96704" lon="5.5887">
        <ele>781.6</ele>
        <time>2026-05-12T14:52:28Z</time>
      </trkpt>
      <trkpt lat="45.96708" lon="5.58873">
        <ele>781.6</ele>
        <time>2026-05-12T14:52:29Z</time>
      </trkpt>
      <trkpt lat="45.96711" lon="5.58877">
        <ele>781.6</ele>
        <time>2026-05-12T14:52:30Z</time>
      </trkpt>
      <trkpt lat="45.96715" lon="5.5888">
        <ele>781.6</ele>
        <time>2026-05-12T14:52:31Z</time>
      </trkpt>
      <trkpt lat="45.96719" lon="5.58882">
        <ele>781.6</ele>
        <time>2026-05-12T14:52:32Z</time>
      </trkpt>
      <trkpt lat="45.96723" lon="5.58885">
        <ele>781.6</ele>
        <time>2026-05-12T14:52:33Z</time>
      </trkpt>
      <trkpt lat="45.96726" lon="5.58887">
        <ele>781.6</ele>
        <time>2026-05-12T14:52:34Z</time>
      </trkpt>
      <trkpt lat="45.9673" lon="5.58889">
        <ele>781.6</ele>
        <time>2026-05-12T14:52:35Z</time>
      </trkpt>
      <trkpt lat="45.96734" lon="5.58892">
        <ele>781.6</ele>
        <time>2026-05-12T14:52:36Z</time>
      </trkpt>
      <trkpt lat="45.96737" lon="5.58895">
        <ele>781.6</ele>
        <time>2026-05-12T14:52:37Z</time>
      </trkpt>
      <trkpt lat="45.96741" lon="5.58897">
        <ele>781.6</ele>
        <time>2026-05-12T14:52:38Z</time>
      </trkpt>
      <trkpt lat="45.96745" lon="5.589">
        <ele>781.6</ele>
        <time>2026-05-12T14:52:39Z</time>
      </trkpt>
      <trkpt lat="45.96749" lon="5.58903">
        <ele>781.8</ele>
        <time>2026-05-12T14:52:40Z</time>
      </trkpt>
      <trkpt lat="45.96752" lon="5.58905">
        <ele>781.8</ele>
        <time>2026-05-12T14:52:41Z</time>
      </trkpt>
      <trkpt lat="45.96756" lon="5.58908">
        <ele>781.8</ele>
        <time>2026-05-12T14:52:42Z</time>
      </trkpt>
      <trkpt lat="45.9676" lon="5.5891">
        <ele>781.8</ele>
        <time>2026-05-12T14:52:43Z</time>
      </trkpt>
      <trkpt lat="45.96764" lon="5.58913">
        <ele>781.8</ele>
        <time>2026-05-12T14:52:44Z</time>
      </trkpt>
      <trkpt lat="45.96767" lon="5.58915">
        <ele>781.8</ele>
        <time>2026-05-12T14:52:45Z</time>
      </trkpt>
      <trkpt lat="45.96771" lon="5.58918">
        <ele>781.8</ele>
        <time>2026-05-12T14:52:46Z</time>
      </trkpt>
      <trkpt lat="45.96774" lon="5.58921">
        <ele>781.8</ele>
        <time>2026-05-12T14:52:47Z</time>
      </trkpt>
      <trkpt lat="45.96778" lon="5.58924">
        <ele>781.4</ele>
        <time>2026-05-12T14:52:48Z</time>
      </trkpt>
      <trkpt lat="45.96782" lon="5.58927">
        <ele>781.4</ele>
        <time>2026-05-12T14:52:49Z</time>
      </trkpt>
      <trkpt lat="45.96786" lon="5.5893">
        <ele>781.4</ele>
        <time>2026-05-12T14:52:50Z</time>
      </trkpt>
      <trkpt lat="45.9679" lon="5.58933">
        <ele>781.4</ele>
        <time>2026-05-12T14:52:51Z</time>
      </trkpt>
      <trkpt lat="45.96794" lon="5.58936">
        <ele>781</ele>
        <time>2026-05-12T14:52:52Z</time>
      </trkpt>
      <trkpt lat="45.96797" lon="5.58938">
        <ele>781</ele>
        <time>2026-05-12T14:52:53Z</time>
      </trkpt>
      <trkpt lat="45.96801" lon="5.58939">
        <ele>781</ele>
        <time>2026-05-12T14:52:54Z</time>
      </trkpt>
      <trkpt lat="45.96804" lon="5.58942">
        <ele>781.4</ele>
        <time>2026-05-12T14:52:55Z</time>
      </trkpt>
      <trkpt lat="45.96807" lon="5.58945">
        <ele>781.4</ele>
        <time>2026-05-12T14:52:56Z</time>
      </trkpt>
      <trkpt lat="45.9681" lon="5.58948">
        <ele>781.4</ele>
        <time>2026-05-12T14:52:57Z</time>
      </trkpt>
      <trkpt lat="45.96813" lon="5.5895">
        <ele>781.4</ele>
        <time>2026-05-12T14:52:58Z</time>
      </trkpt>
      <trkpt lat="45.96817" lon="5.58952">
        <ele>781.2</ele>
        <time>2026-05-12T14:52:59Z</time>
      </trkpt>
      <trkpt lat="45.96821" lon="5.58954">
        <ele>781.2</ele>
        <time>2026-05-12T14:53:00Z</time>
      </trkpt>
      <trkpt lat="45.96825" lon="5.58956">
        <ele>781.2</ele>
        <time>2026-05-12T14:53:01Z</time>
      </trkpt>
      <trkpt lat="45.96829" lon="5.58958">
        <ele>781.2</ele>
        <time>2026-05-12T14:53:02Z</time>
      </trkpt>
      <trkpt lat="45.96833" lon="5.58959">
        <ele>781.2</ele>
        <time>2026-05-12T14:53:03Z</time>
      </trkpt>
      <trkpt lat="45.96837" lon="5.58961">
        <ele>781.2</ele>
        <time>2026-05-12T14:53:04Z</time>
      </trkpt>
      <trkpt lat="45.96841" lon="5.58962">
        <ele>781.2</ele>
        <time>2026-05-12T14:53:05Z</time>
      </trkpt>
      <trkpt lat="45.96845" lon="5.58962">
        <ele>782</ele>
        <time>2026-05-12T14:53:06Z</time>
      </trkpt>
      <trkpt lat="45.96849" lon="5.58963">
        <ele>782</ele>
        <time>2026-05-12T14:53:07Z</time>
      </trkpt>
      <trkpt lat="45.96852" lon="5.58964">
        <ele>782</ele>
        <time>2026-05-12T14:53:08Z</time>
      </trkpt>
      <trkpt lat="45.96855" lon="5.58965">
        <ele>782</ele>
        <time>2026-05-12T14:53:09Z</time>
      </trkpt>
      <trkpt lat="45.96859" lon="5.58967">
        <ele>782</ele>
        <time>2026-05-12T14:53:10Z</time>
      </trkpt>
      <trkpt lat="45.96862" lon="5.58969">
        <ele>782</ele>
        <time>2026-05-12T14:53:11Z</time>
      </trkpt>
      <trkpt lat="45.96866" lon="5.58971">
        <ele>782</ele>
        <time>2026-05-12T14:53:12Z</time>
      </trkpt>
      <trkpt lat="45.96869" lon="5.58974">
        <ele>781.8</ele>
        <time>2026-05-12T14:53:13Z</time>
      </trkpt>
      <trkpt lat="45.96873" lon="5.58977">
        <ele>781.8</ele>
        <time>2026-05-12T14:53:14Z</time>
      </trkpt>
      <trkpt lat="45.96877" lon="5.58979">
        <ele>781.8</ele>
        <time>2026-05-12T14:53:15Z</time>
      </trkpt>
      <trkpt lat="45.9688" lon="5.58982">
        <ele>781.8</ele>
        <time>2026-05-12T14:53:16Z</time>
      </trkpt>
      <trkpt lat="45.96884" lon="5.58986">
        <ele>781.8</ele>
        <time>2026-05-12T14:53:17Z</time>
      </trkpt>
      <trkpt lat="45.96888" lon="5.5899">
        <ele>781.8</ele>
        <time>2026-05-12T14:53:18Z</time>
      </trkpt>
      <trkpt lat="45.96891" lon="5.58994">
        <ele>781.8</ele>
        <time>2026-05-12T14:53:19Z</time>
      </trkpt>
      <trkpt lat="45.96895" lon="5.58998">
        <ele>781.8</ele>
        <time>2026-05-12T14:53:20Z</time>
      </trkpt>
      <trkpt lat="45.96898" lon="5.59002">
        <ele>781.8</ele>
        <time>2026-05-12T14:53:21Z</time>
      </trkpt>
      <trkpt lat="45.96901" lon="5.59006">
        <ele>782</ele>
        <time>2026-05-12T14:53:22Z</time>
      </trkpt>
      <trkpt lat="45.96905" lon="5.59011">
        <ele>782</ele>
        <time>2026-05-12T14:53:23Z</time>
      </trkpt>
      <trkpt lat="45.96908" lon="5.59014">
        <ele>782</ele>
        <time>2026-05-12T14:53:24Z</time>
      </trkpt>
      <trkpt lat="45.96912" lon="5.59018">
        <ele>782</ele>
        <time>2026-05-12T14:53:25Z</time>
      </trkpt>
      <trkpt lat="45.96915" lon="5.59022">
        <ele>782</ele>
        <time>2026-05-12T14:53:26Z</time>
      </trkpt>
      <trkpt lat="45.96918" lon="5.59025">
        <ele>782</ele>
        <time>2026-05-12T14:53:27Z</time>
      </trkpt>
      <trkpt lat="45.96921" lon="5.59029">
        <ele>782</ele>
        <time>2026-05-12T14:53:28Z</time>
      </trkpt>
      <trkpt lat="45.96925" lon="5.59033">
        <ele>781.6</ele>
        <time>2026-05-12T14:53:29Z</time>
      </trkpt>
      <trkpt lat="45.96928" lon="5.59036">
        <ele>781.6</ele>
        <time>2026-05-12T14:53:30Z</time>
      </trkpt>
      <trkpt lat="45.96931" lon="5.5904">
        <ele>781.6</ele>
        <time>2026-05-12T14:53:31Z</time>
      </trkpt>
      <trkpt lat="45.96934" lon="5.59044">
        <ele>781.6</ele>
        <time>2026-05-12T14:53:32Z</time>
      </trkpt>
      <trkpt lat="45.96938" lon="5.59047">
        <ele>781.6</ele>
        <time>2026-05-12T14:53:33Z</time>
      </trkpt>
      <trkpt lat="45.96942" lon="5.59051">
        <ele>781.6</ele>
        <time>2026-05-12T14:53:34Z</time>
      </trkpt>
      <trkpt lat="45.96946" lon="5.59053">
        <ele>781.6</ele>
        <time>2026-05-12T14:53:35Z</time>
      </trkpt>
      <trkpt lat="45.96949" lon="5.59057">
        <ele>781.6</ele>
        <time>2026-05-12T14:53:36Z</time>
      </trkpt>
      <trkpt lat="45.96953" lon="5.5906">
        <ele>781.6</ele>
        <time>2026-05-12T14:53:37Z</time>
      </trkpt>
      <trkpt lat="45.96956" lon="5.59063">
        <ele>781.6</ele>
        <time>2026-05-12T14:53:38Z</time>
      </trkpt>
      <trkpt lat="45.9696" lon="5.59066">
        <ele>781.8</ele>
        <time>2026-05-12T14:53:39Z</time>
      </trkpt>
      <trkpt lat="45.96964" lon="5.59069">
        <ele>781.8</ele>
        <time>2026-05-12T14:53:40Z</time>
      </trkpt>
      <trkpt lat="45.96967" lon="5.59072">
        <ele>781.8</ele>
        <time>2026-05-12T14:53:41Z</time>
      </trkpt>
      <trkpt lat="45.96971" lon="5.59075">
        <ele>781.8</ele>
        <time>2026-05-12T14:53:42Z</time>
      </trkpt>
      <trkpt lat="45.96975" lon="5.59078">
        <ele>781.8</ele>
        <time>2026-05-12T14:53:43Z</time>
      </trkpt>
      <trkpt lat="45.96979" lon="5.59081">
        <ele>781.8</ele>
        <time>2026-05-12T14:53:44Z</time>
      </trkpt>
      <trkpt lat="45.96982" lon="5.59084">
        <ele>781.8</ele>
        <time>2026-05-12T14:53:45Z</time>
      </trkpt>
      <trkpt lat="45.96986" lon="5.59086">
        <ele>781.8</ele>
        <time>2026-05-12T14:53:46Z</time>
      </trkpt>
      <trkpt lat="45.9699" lon="5.5909">
        <ele>781.8</ele>
        <time>2026-05-12T14:53:47Z</time>
      </trkpt>
      <trkpt lat="45.96993" lon="5.59092">
        <ele>781.8</ele>
        <time>2026-05-12T14:53:48Z</time>
      </trkpt>
      <trkpt lat="45.96997" lon="5.59095">
        <ele>782</ele>
        <time>2026-05-12T14:53:49Z</time>
      </trkpt>
      <trkpt lat="45.97005" lon="5.591">
        <ele>782</ele>
        <time>2026-05-12T14:53:50Z</time>
      </trkpt>
      <trkpt lat="45.97008" lon="5.59102">
        <ele>782.2</ele>
        <time>2026-05-12T14:53:51Z</time>
      </trkpt>
      <trkpt lat="45.97012" lon="5.59105">
        <ele>782.2</ele>
        <time>2026-05-12T14:53:52Z</time>
      </trkpt>
      <trkpt lat="45.97015" lon="5.59107">
        <ele>782.4</ele>
        <time>2026-05-12T14:53:53Z</time>
      </trkpt>
      <trkpt lat="45.97019" lon="5.5911">
        <ele>782.4</ele>
        <time>2026-05-12T14:53:54Z</time>
      </trkpt>
      <trkpt lat="45.97023" lon="5.59111">
        <ele>782.4</ele>
        <time>2026-05-12T14:53:55Z</time>
      </trkpt>
      <trkpt lat="45.97026" lon="5.59114">
        <ele>782.4</ele>
        <time>2026-05-12T14:53:56Z</time>
      </trkpt>
      <trkpt lat="45.9703" lon="5.59116">
        <ele>782.8</ele>
        <time>2026-05-12T14:53:57Z</time>
      </trkpt>
      <trkpt lat="45.97034" lon="5.59117">
        <ele>782.8</ele>
        <time>2026-05-12T14:53:58Z</time>
      </trkpt>
      <trkpt lat="45.97038" lon="5.59119">
        <ele>782.8</ele>
        <time>2026-05-12T14:53:59Z</time>
      </trkpt>
      <trkpt lat="45.97042" lon="5.59121">
        <ele>782.8</ele>
        <time>2026-05-12T14:54:00Z</time>
      </trkpt>
      <trkpt lat="45.97046" lon="5.59122">
        <ele>782.8</ele>
        <time>2026-05-12T14:54:01Z</time>
      </trkpt>
      <trkpt lat="45.9705" lon="5.59124">
        <ele>782.8</ele>
        <time>2026-05-12T14:54:02Z</time>
      </trkpt>
      <trkpt lat="45.97053" lon="5.59125">
        <ele>782.8</ele>
        <time>2026-05-12T14:54:03Z</time>
      </trkpt>
      <trkpt lat="45.97057" lon="5.59126">
        <ele>782.8</ele>
        <time>2026-05-12T14:54:04Z</time>
      </trkpt>
      <trkpt lat="45.97061" lon="5.59126">
        <ele>782.8</ele>
        <time>2026-05-12T14:54:05Z</time>
      </trkpt>
      <trkpt lat="45.97065" lon="5.59127">
        <ele>782.8</ele>
        <time>2026-05-12T14:54:06Z</time>
      </trkpt>
      <trkpt lat="45.97068" lon="5.59128">
        <ele>782.8</ele>
        <time>2026-05-12T14:54:07Z</time>
      </trkpt>
      <trkpt lat="45.97072" lon="5.59129">
        <ele>782.8</ele>
        <time>2026-05-12T14:54:08Z</time>
      </trkpt>
      <trkpt lat="45.97076" lon="5.59129">
        <ele>782.8</ele>
        <time>2026-05-12T14:54:09Z</time>
      </trkpt>
      <trkpt lat="45.9708" lon="5.59129">
        <ele>782.8</ele>
        <time>2026-05-12T14:54:10Z</time>
      </trkpt>
      <trkpt lat="45.97084" lon="5.5913">
        <ele>782.8</ele>
        <time>2026-05-12T14:54:11Z</time>
      </trkpt>
      <trkpt lat="45.97088" lon="5.5913">
        <ele>782.8</ele>
        <time>2026-05-12T14:54:12Z</time>
      </trkpt>
      <trkpt lat="45.97091" lon="5.5913">
        <ele>782.8</ele>
        <time>2026-05-12T14:54:13Z</time>
      </trkpt>
      <trkpt lat="45.97095" lon="5.5913">
        <ele>782.8</ele>
        <time>2026-05-12T14:54:14Z</time>
      </trkpt>
      <trkpt lat="45.97099" lon="5.5913">
        <ele>782.8</ele>
        <time>2026-05-12T14:54:15Z</time>
      </trkpt>
      <trkpt lat="45.97103" lon="5.59131">
        <ele>782.8</ele>
        <time>2026-05-12T14:54:16Z</time>
      </trkpt>
      <trkpt lat="45.97103" lon="5.59131">
        <ele>783</ele>
        <time>2026-05-12T14:54:17Z</time>
      </trkpt>
      <trkpt lat="45.97107" lon="5.59131">
        <ele>783</ele>
        <time>2026-05-12T14:54:18Z</time>
      </trkpt>
      <trkpt lat="45.97111" lon="5.59131">
        <ele>783</ele>
        <time>2026-05-12T14:54:19Z</time>
      </trkpt>
      <trkpt lat="45.97115" lon="5.59132">
        <ele>783</ele>
        <time>2026-05-12T14:54:20Z</time>
      </trkpt>
      <trkpt lat="45.97119" lon="5.59132">
        <ele>783</ele>
        <time>2026-05-12T14:54:21Z</time>
      </trkpt>
      <trkpt lat="45.97123" lon="5.59133">
        <ele>783</ele>
        <time>2026-05-12T14:54:22Z</time>
      </trkpt>
      <trkpt lat="45.97127" lon="5.59134">
        <ele>783</ele>
        <time>2026-05-12T14:54:23Z</time>
      </trkpt>
      <trkpt lat="45.97131" lon="5.59135">
        <ele>783</ele>
        <time>2026-05-12T14:54:24Z</time>
      </trkpt>
      <trkpt lat="45.97135" lon="5.59137">
        <ele>783.2</ele>
        <time>2026-05-12T14:54:25Z</time>
      </trkpt>
      <trkpt lat="45.97139" lon="5.59139">
        <ele>783.2</ele>
        <time>2026-05-12T14:54:26Z</time>
      </trkpt>
      <trkpt lat="45.97142" lon="5.59141">
        <ele>783.2</ele>
        <time>2026-05-12T14:54:27Z</time>
      </trkpt>
      <trkpt lat="45.97146" lon="5.59144">
        <ele>783.2</ele>
        <time>2026-05-12T14:54:28Z</time>
      </trkpt>
      <trkpt lat="45.9715" lon="5.59146">
        <ele>783.4</ele>
        <time>2026-05-12T14:54:29Z</time>
      </trkpt>
      <trkpt lat="45.97153" lon="5.5915">
        <ele>783.4</ele>
        <time>2026-05-12T14:54:30Z</time>
      </trkpt>
      <trkpt lat="45.97157" lon="5.59153">
        <ele>783.4</ele>
        <time>2026-05-12T14:54:31Z</time>
      </trkpt>
      <trkpt lat="45.9716" lon="5.59156">
        <ele>783.4</ele>
        <time>2026-05-12T14:54:32Z</time>
      </trkpt>
      <trkpt lat="45.97164" lon="5.59159">
        <ele>783.8</ele>
        <time>2026-05-12T14:54:33Z</time>
      </trkpt>
      <trkpt lat="45.97167" lon="5.59162">
        <ele>783.8</ele>
        <time>2026-05-12T14:54:34Z</time>
      </trkpt>
      <trkpt lat="45.9717" lon="5.59165">
        <ele>783.8</ele>
        <time>2026-05-12T14:54:35Z</time>
      </trkpt>
      <trkpt lat="45.97174" lon="5.59168">
        <ele>783.8</ele>
        <time>2026-05-12T14:54:36Z</time>
      </trkpt>
      <trkpt lat="45.97177" lon="5.59172">
        <ele>783.8</ele>
        <time>2026-05-12T14:54:37Z</time>
      </trkpt>
      <trkpt lat="45.9718" lon="5.59175">
        <ele>783.8</ele>
        <time>2026-05-12T14:54:38Z</time>
      </trkpt>
      <trkpt lat="45.97184" lon="5.59178">
        <ele>784</ele>
        <time>2026-05-12T14:54:39Z</time>
      </trkpt>
      <trkpt lat="45.97187" lon="5.59181">
        <ele>784</ele>
        <time>2026-05-12T14:54:40Z</time>
      </trkpt>
      <trkpt lat="45.9719" lon="5.59184">
        <ele>784</ele>
        <time>2026-05-12T14:54:41Z</time>
      </trkpt>
      <trkpt lat="45.97193" lon="5.59187">
        <ele>784</ele>
        <time>2026-05-12T14:54:42Z</time>
      </trkpt>
      <trkpt lat="45.97196" lon="5.59191">
        <ele>784.4</ele>
        <time>2026-05-12T14:54:43Z</time>
      </trkpt>
      <trkpt lat="45.97199" lon="5.59194">
        <ele>784.2</ele>
        <time>2026-05-12T14:54:44Z</time>
      </trkpt>
      <trkpt lat="45.97202" lon="5.59197">
        <ele>784.2</ele>
        <time>2026-05-12T14:54:45Z</time>
      </trkpt>
      <trkpt lat="45.97205" lon="5.59201">
        <ele>783.8</ele>
        <time>2026-05-12T14:54:46Z</time>
      </trkpt>
      <trkpt lat="45.97208" lon="5.59204">
        <ele>784</ele>
        <time>2026-05-12T14:54:47Z</time>
      </trkpt>
      <trkpt lat="45.9721" lon="5.59208">
        <ele>784</ele>
        <time>2026-05-12T14:54:48Z</time>
      </trkpt>
      <trkpt lat="45.97213" lon="5.59212">
        <ele>784.4</ele>
        <time>2026-05-12T14:54:49Z</time>
      </trkpt>
      <trkpt lat="45.97215" lon="5.59216">
        <ele>784.4</ele>
        <time>2026-05-12T14:54:50Z</time>
      </trkpt>
      <trkpt lat="45.97218" lon="5.59221">
        <ele>784.4</ele>
        <time>2026-05-12T14:54:51Z</time>
      </trkpt>
      <trkpt lat="45.9722" lon="5.59225">
        <ele>784.4</ele>
        <time>2026-05-12T14:54:52Z</time>
      </trkpt>
      <trkpt lat="45.97223" lon="5.59229">
        <ele>784.4</ele>
        <time>2026-05-12T14:54:53Z</time>
      </trkpt>
      <trkpt lat="45.97226" lon="5.59233">
        <ele>784.8</ele>
        <time>2026-05-12T14:54:54Z</time>
      </trkpt>
      <trkpt lat="45.97229" lon="5.59237">
        <ele>784.8</ele>
        <time>2026-05-12T14:54:55Z</time>
      </trkpt>
      <trkpt lat="45.97231" lon="5.5924">
        <ele>785</ele>
        <time>2026-05-12T14:54:56Z</time>
      </trkpt>
      <trkpt lat="45.97234" lon="5.59244">
        <ele>785</ele>
        <time>2026-05-12T14:54:57Z</time>
      </trkpt>
      <trkpt lat="45.97237" lon="5.59248">
        <ele>784.8</ele>
        <time>2026-05-12T14:54:58Z</time>
      </trkpt>
      <trkpt lat="45.9724" lon="5.59251">
        <ele>784.8</ele>
        <time>2026-05-12T14:54:59Z</time>
      </trkpt>
      <trkpt lat="45.97243" lon="5.59254">
        <ele>784.8</ele>
        <time>2026-05-12T14:55:00Z</time>
      </trkpt>
      <trkpt lat="45.97246" lon="5.59257">
        <ele>785</ele>
        <time>2026-05-12T14:55:01Z</time>
      </trkpt>
      <trkpt lat="45.97249" lon="5.5926">
        <ele>785</ele>
        <time>2026-05-12T14:55:02Z</time>
      </trkpt>
      <trkpt lat="45.97253" lon="5.59263">
        <ele>785.2</ele>
        <time>2026-05-12T14:55:03Z</time>
      </trkpt>
      <trkpt lat="45.97256" lon="5.59265">
        <ele>785.2</ele>
        <time>2026-05-12T14:55:04Z</time>
      </trkpt>
      <trkpt lat="45.97259" lon="5.59268">
        <ele>785.6</ele>
        <time>2026-05-12T14:55:05Z</time>
      </trkpt>
      <trkpt lat="45.97262" lon="5.59271">
        <ele>785.8</ele>
        <time>2026-05-12T14:55:06Z</time>
      </trkpt>
      <trkpt lat="45.97264" lon="5.59275">
        <ele>785.8</ele>
        <time>2026-05-12T14:55:07Z</time>
      </trkpt>
      <trkpt lat="45.97267" lon="5.59279">
        <ele>785.8</ele>
        <time>2026-05-12T14:55:08Z</time>
      </trkpt>
      <trkpt lat="45.97269" lon="5.59282">
        <ele>785.8</ele>
        <time>2026-05-12T14:55:09Z</time>
      </trkpt>
      <trkpt lat="45.97272" lon="5.59286">
        <ele>785.8</ele>
        <time>2026-05-12T14:55:10Z</time>
      </trkpt>
      <trkpt lat="45.97274" lon="5.59291">
        <ele>785.8</ele>
        <time>2026-05-12T14:55:11Z</time>
      </trkpt>
      <trkpt lat="45.97277" lon="5.59295">
        <ele>785.8</ele>
        <time>2026-05-12T14:55:12Z</time>
      </trkpt>
      <trkpt lat="45.97279" lon="5.59299">
        <ele>785.8</ele>
        <time>2026-05-12T14:55:13Z</time>
      </trkpt>
      <trkpt lat="45.97281" lon="5.59304">
        <ele>785.4</ele>
        <time>2026-05-12T14:55:14Z</time>
      </trkpt>
      <trkpt lat="45.97284" lon="5.59308">
        <ele>785.4</ele>
        <time>2026-05-12T14:55:15Z</time>
      </trkpt>
      <trkpt lat="45.97286" lon="5.59312">
        <ele>785.4</ele>
        <time>2026-05-12T14:55:16Z</time>
      </trkpt>
      <trkpt lat="45.97288" lon="5.59316">
        <ele>785.4</ele>
        <time>2026-05-12T14:55:17Z</time>
      </trkpt>
      <trkpt lat="45.9729" lon="5.5932">
        <ele>785.4</ele>
        <time>2026-05-12T14:55:18Z</time>
      </trkpt>
      <trkpt lat="45.97292" lon="5.59323">
        <ele>785.4</ele>
        <time>2026-05-12T14:55:19Z</time>
      </trkpt>
      <trkpt lat="45.97294" lon="5.59326">
        <ele>785.8</ele>
        <time>2026-05-12T14:55:20Z</time>
      </trkpt>
      <trkpt lat="45.97296" lon="5.5933">
        <ele>785.8</ele>
        <time>2026-05-12T14:55:21Z</time>
      </trkpt>
      <trkpt lat="45.97298" lon="5.59334">
        <ele>785.8</ele>
        <time>2026-05-12T14:55:22Z</time>
      </trkpt>
      <trkpt lat="45.973" lon="5.59338">
        <ele>786.4</ele>
        <time>2026-05-12T14:55:23Z</time>
      </trkpt>
      <trkpt lat="45.97302" lon="5.59342">
        <ele>786.4</ele>
        <time>2026-05-12T14:55:24Z</time>
      </trkpt>
      <trkpt lat="45.97304" lon="5.59346">
        <ele>786.4</ele>
        <time>2026-05-12T14:55:25Z</time>
      </trkpt>
      <trkpt lat="45.97306" lon="5.5935">
        <ele>786.4</ele>
        <time>2026-05-12T14:55:26Z</time>
      </trkpt>
      <trkpt lat="45.97308" lon="5.59354">
        <ele>786.4</ele>
        <time>2026-05-12T14:55:27Z</time>
      </trkpt>
      <trkpt lat="45.97311" lon="5.59358">
        <ele>786.8</ele>
        <time>2026-05-12T14:55:28Z</time>
      </trkpt>
      <trkpt lat="45.97313" lon="5.59362">
        <ele>787</ele>
        <time>2026-05-12T14:55:29Z</time>
      </trkpt>
      <trkpt lat="45.97315" lon="5.59366">
        <ele>787</ele>
        <time>2026-05-12T14:55:30Z</time>
      </trkpt>
      <trkpt lat="45.97317" lon="5.5937">
        <ele>787.4</ele>
        <time>2026-05-12T14:55:31Z</time>
      </trkpt>
      <trkpt lat="45.9732" lon="5.59374">
        <ele>787.4</ele>
        <time>2026-05-12T14:55:32Z</time>
      </trkpt>
      <trkpt lat="45.97322" lon="5.59379">
        <ele>787.4</ele>
        <time>2026-05-12T14:55:33Z</time>
      </trkpt>
      <trkpt lat="45.97324" lon="5.59383">
        <ele>787.4</ele>
        <time>2026-05-12T14:55:34Z</time>
      </trkpt>
      <trkpt lat="45.97326" lon="5.59387">
        <ele>787.4</ele>
        <time>2026-05-12T14:55:35Z</time>
      </trkpt>
      <trkpt lat="45.97328" lon="5.59391">
        <ele>787.6</ele>
        <time>2026-05-12T14:55:36Z</time>
      </trkpt>
      <trkpt lat="45.97329" lon="5.59395">
        <ele>787.6</ele>
        <time>2026-05-12T14:55:37Z</time>
      </trkpt>
      <trkpt lat="45.97331" lon="5.59399">
        <ele>787.6</ele>
        <time>2026-05-12T14:55:38Z</time>
      </trkpt>
      <trkpt lat="45.97333" lon="5.59404">
        <ele>788</ele>
        <time>2026-05-12T14:55:39Z</time>
      </trkpt>
      <trkpt lat="45.97333" lon="5.59404">
        <ele>788</ele>
        <time>2026-05-12T14:55:40Z</time>
      </trkpt>
      <trkpt lat="45.97333" lon="5.59404">
        <ele>788</ele>
        <time>2026-05-12T14:55:41Z</time>
      </trkpt>
      <trkpt lat="45.9734" lon="5.59421">
        <ele>788</ele>
        <time>2026-05-12T14:55:43Z</time>
      </trkpt>
      <trkpt lat="45.97342" lon="5.59426">
        <ele>788</ele>
        <time>2026-05-12T14:55:44Z</time>
      </trkpt>
      <trkpt lat="45.97344" lon="5.5943">
        <ele>788.2</ele>
        <time>2026-05-12T14:55:45Z</time>
      </trkpt>
      <trkpt lat="45.97346" lon="5.59435">
        <ele>788.2</ele>
        <time>2026-05-12T14:55:46Z</time>
      </trkpt>
      <trkpt lat="45.97348" lon="5.59439">
        <ele>788.2</ele>
        <time>2026-05-12T14:55:47Z</time>
      </trkpt>
      <trkpt lat="45.9735" lon="5.59443">
        <ele>788.2</ele>
        <time>2026-05-12T14:55:48Z</time>
      </trkpt>
      <trkpt lat="45.97352" lon="5.59447">
        <ele>788.2</ele>
        <time>2026-05-12T14:55:49Z</time>
      </trkpt>
      <trkpt lat="45.97354" lon="5.59452">
        <ele>788.4</ele>
        <time>2026-05-12T14:55:50Z</time>
      </trkpt>
      <trkpt lat="45.97355" lon="5.59457">
        <ele>788.4</ele>
        <time>2026-05-12T14:55:51Z</time>
      </trkpt>
      <trkpt lat="45.97357" lon="5.59462">
        <ele>788.8</ele>
        <time>2026-05-12T14:55:52Z</time>
      </trkpt>
      <trkpt lat="45.97358" lon="5.59467">
        <ele>788.8</ele>
        <time>2026-05-12T14:55:53Z</time>
      </trkpt>
      <trkpt lat="45.97359" lon="5.59472">
        <ele>789.2</ele>
        <time>2026-05-12T14:55:54Z</time>
      </trkpt>
      <trkpt lat="45.9736" lon="5.59477">
        <ele>789.2</ele>
        <time>2026-05-12T14:55:55Z</time>
      </trkpt>
      <trkpt lat="45.97361" lon="5.59482">
        <ele>789</ele>
        <time>2026-05-12T14:55:56Z</time>
      </trkpt>
      <trkpt lat="45.97362" lon="5.59488">
        <ele>789</ele>
        <time>2026-05-12T14:55:57Z</time>
      </trkpt>
      <trkpt lat="45.97363" lon="5.59493">
        <ele>789.4</ele>
        <time>2026-05-12T14:55:58Z</time>
      </trkpt>
      <trkpt lat="45.97364" lon="5.59499">
        <ele>789.4</ele>
        <time>2026-05-12T14:55:59Z</time>
      </trkpt>
      <trkpt lat="45.97367" lon="5.59509">
        <ele>789.4</ele>
        <time>2026-05-12T14:56:00Z</time>
      </trkpt>
      <trkpt lat="45.97368" lon="5.59514">
        <ele>789.4</ele>
        <time>2026-05-12T14:56:01Z</time>
      </trkpt>
      <trkpt lat="45.97369" lon="5.59518">
        <ele>789.4</ele>
        <time>2026-05-12T14:56:02Z</time>
      </trkpt>
      <trkpt lat="45.9737" lon="5.59523">
        <ele>789.4</ele>
        <time>2026-05-12T14:56:03Z</time>
      </trkpt>
      <trkpt lat="45.97371" lon="5.59528">
        <ele>789.6</ele>
        <time>2026-05-12T14:56:04Z</time>
      </trkpt>
      <trkpt lat="45.97372" lon="5.59533">
        <ele>789.6</ele>
        <time>2026-05-12T14:56:05Z</time>
      </trkpt>
      <trkpt lat="45.97372" lon="5.59533">
        <ele>789.8</ele>
        <time>2026-05-12T14:56:06Z</time>
      </trkpt>
      <trkpt lat="45.97373" lon="5.59538">
        <ele>789.8</ele>
        <time>2026-05-12T14:56:07Z</time>
      </trkpt>
      <trkpt lat="45.97374" lon="5.59543">
        <ele>789.8</ele>
        <time>2026-05-12T14:56:08Z</time>
      </trkpt>
      <trkpt lat="45.97375" lon="5.59549">
        <ele>789.8</ele>
        <time>2026-05-12T14:56:09Z</time>
      </trkpt>
      <trkpt lat="45.97376" lon="5.59554">
        <ele>790</ele>
        <time>2026-05-12T14:56:10Z</time>
      </trkpt>
      <trkpt lat="45.97377" lon="5.59558">
        <ele>790</ele>
        <time>2026-05-12T14:56:11Z</time>
      </trkpt>
      <trkpt lat="45.97378" lon="5.59563">
        <ele>790</ele>
        <time>2026-05-12T14:56:12Z</time>
      </trkpt>
      <trkpt lat="45.97379" lon="5.59568">
        <ele>790.4</ele>
        <time>2026-05-12T14:56:13Z</time>
      </trkpt>
      <trkpt lat="45.9738" lon="5.59572">
        <ele>790.4</ele>
        <time>2026-05-12T14:56:14Z</time>
      </trkpt>
      <trkpt lat="45.97381" lon="5.59576">
        <ele>790.4</ele>
        <time>2026-05-12T14:56:15Z</time>
      </trkpt>
      <trkpt lat="45.97382" lon="5.59579">
        <ele>790.4</ele>
        <time>2026-05-12T14:56:16Z</time>
      </trkpt>
      <trkpt lat="45.97383" lon="5.59582">
        <ele>790.4</ele>
        <time>2026-05-12T14:56:17Z</time>
      </trkpt>
      <trkpt lat="45.97384" lon="5.59586">
        <ele>790.4</ele>
        <time>2026-05-12T14:56:18Z</time>
      </trkpt>
      <trkpt lat="45.97387" lon="5.59588">
        <ele>790.4</ele>
        <time>2026-05-12T14:56:19Z</time>
      </trkpt>
      <trkpt lat="45.9739" lon="5.59589">
        <ele>790.4</ele>
        <time>2026-05-12T14:56:20Z</time>
      </trkpt>
      <trkpt lat="45.97394" lon="5.59589">
        <ele>790.4</ele>
        <time>2026-05-12T14:56:21Z</time>
      </trkpt>
      <trkpt lat="45.97398" lon="5.59589">
        <ele>790.4</ele>
        <time>2026-05-12T14:56:22Z</time>
      </trkpt>
      <trkpt lat="45.97402" lon="5.59588">
        <ele>790.4</ele>
        <time>2026-05-12T14:56:23Z</time>
      </trkpt>
      <trkpt lat="45.97406" lon="5.59588">
        <ele>790.4</ele>
        <time>2026-05-12T14:56:24Z</time>
      </trkpt>
      <trkpt lat="45.9741" lon="5.59587">
        <ele>790.4</ele>
        <time>2026-05-12T14:56:25Z</time>
      </trkpt>
      <trkpt lat="45.97414" lon="5.59588">
        <ele>790.4</ele>
        <time>2026-05-12T14:56:26Z</time>
      </trkpt>
      <trkpt lat="45.97419" lon="5.59588">
        <ele>790.4</ele>
        <time>2026-05-12T14:56:27Z</time>
      </trkpt>
      <trkpt lat="45.97423" lon="5.59588">
        <ele>790.4</ele>
        <time>2026-05-12T14:56:28Z</time>
      </trkpt>
      <trkpt lat="45.97427" lon="5.59588">
        <ele>790.4</ele>
        <time>2026-05-12T14:56:29Z</time>
      </trkpt>
      <trkpt lat="45.97431" lon="5.59588">
        <ele>790.4</ele>
        <time>2026-05-12T14:56:30Z</time>
      </trkpt>
      <trkpt lat="45.97436" lon="5.59588">
        <ele>790.4</ele>
        <time>2026-05-12T14:56:31Z</time>
      </trkpt>
      <trkpt lat="45.9744" lon="5.59588">
        <ele>790.4</ele>
        <time>2026-05-12T14:56:32Z</time>
      </trkpt>
      <trkpt lat="45.97444" lon="5.59588">
        <ele>790.4</ele>
        <time>2026-05-12T14:56:33Z</time>
      </trkpt>
      <trkpt lat="45.97448" lon="5.59589">
        <ele>790.6</ele>
        <time>2026-05-12T14:56:34Z</time>
      </trkpt>
      <trkpt lat="45.97453" lon="5.59589">
        <ele>790.6</ele>
        <time>2026-05-12T14:56:35Z</time>
      </trkpt>
      <trkpt lat="45.97457" lon="5.59589">
        <ele>790.4</ele>
        <time>2026-05-12T14:56:36Z</time>
      </trkpt>
      <trkpt lat="45.97461" lon="5.59589">
        <ele>790.4</ele>
        <time>2026-05-12T14:56:37Z</time>
      </trkpt>
      <trkpt lat="45.97464" lon="5.59589">
        <ele>790.4</ele>
        <time>2026-05-12T14:56:38Z</time>
      </trkpt>
      <trkpt lat="45.97465" lon="5.59591">
        <ele>790.6</ele>
        <time>2026-05-12T14:56:39Z</time>
      </trkpt>
      <trkpt lat="45.97466" lon="5.59592">
        <ele>790.6</ele>
        <time>2026-05-12T14:56:40Z</time>
      </trkpt>
      <trkpt lat="45.97467" lon="5.59594">
        <ele>790.8</ele>
        <time>2026-05-12T14:56:41Z</time>
      </trkpt>
      <trkpt lat="45.97468" lon="5.59596">
        <ele>790.8</ele>
        <time>2026-05-12T14:56:42Z</time>
      </trkpt>
      <trkpt lat="45.97468" lon="5.59598">
        <ele>790.8</ele>
        <time>2026-05-12T14:56:43Z</time>
      </trkpt>
      <trkpt lat="45.97468" lon="5.596">
        <ele>791</ele>
        <time>2026-05-12T14:56:44Z</time>
      </trkpt>
      <trkpt lat="45.97469" lon="5.59602">
        <ele>791</ele>
        <time>2026-05-12T14:56:45Z</time>
      </trkpt>
      <trkpt lat="45.9747" lon="5.59604">
        <ele>791</ele>
        <time>2026-05-12T14:56:46Z</time>
      </trkpt>
      <trkpt lat="45.97472" lon="5.59605">
        <ele>791.4</ele>
        <time>2026-05-12T14:56:47Z</time>
      </trkpt>
      <trkpt lat="45.97475" lon="5.59606">
        <ele>791.4</ele>
        <time>2026-05-12T14:56:48Z</time>
      </trkpt>
      <trkpt lat="45.97478" lon="5.59607">
        <ele>791.6</ele>
        <time>2026-05-12T14:56:49Z</time>
      </trkpt>
      <trkpt lat="45.9748" lon="5.59609">
        <ele>791.6</ele>
        <time>2026-05-12T14:56:50Z</time>
      </trkpt>
      <trkpt lat="45.97482" lon="5.59613">
        <ele>791.6</ele>
        <time>2026-05-12T14:56:51Z</time>
      </trkpt>
      <trkpt lat="45.97483" lon="5.59617">
        <ele>791.6</ele>
        <time>2026-05-12T14:56:52Z</time>
      </trkpt>
      <trkpt lat="45.97484" lon="5.59622">
        <ele>791.6</ele>
        <time>2026-05-12T14:56:53Z</time>
      </trkpt>
      <trkpt lat="45.97486" lon="5.59627">
        <ele>791.6</ele>
        <time>2026-05-12T14:56:54Z</time>
      </trkpt>
      <trkpt lat="45.97487" lon="5.59632">
        <ele>791.6</ele>
        <time>2026-05-12T14:56:55Z</time>
      </trkpt>
      <trkpt lat="45.97488" lon="5.59637">
        <ele>791.6</ele>
        <time>2026-05-12T14:56:56Z</time>
      </trkpt>
      <trkpt lat="45.97489" lon="5.59642">
        <ele>791.6</ele>
        <time>2026-05-12T14:56:57Z</time>
      </trkpt>
      <trkpt lat="45.9749" lon="5.59646">
        <ele>791.6</ele>
        <time>2026-05-12T14:56:58Z</time>
      </trkpt>
      <trkpt lat="45.97491" lon="5.59652">
        <ele>791.8</ele>
        <time>2026-05-12T14:56:59Z</time>
      </trkpt>
      <trkpt lat="45.97491" lon="5.59658">
        <ele>791.8</ele>
        <time>2026-05-12T14:57:00Z</time>
      </trkpt>
      <trkpt lat="45.97492" lon="5.59664">
        <ele>791.8</ele>
        <time>2026-05-12T14:57:01Z</time>
      </trkpt>
      <trkpt lat="45.97493" lon="5.5967">
        <ele>791.8</ele>
        <time>2026-05-12T14:57:02Z</time>
      </trkpt>
      <trkpt lat="45.97494" lon="5.59675">
        <ele>791.8</ele>
        <time>2026-05-12T14:57:03Z</time>
      </trkpt>
      <trkpt lat="45.97495" lon="5.5968">
        <ele>791.8</ele>
        <time>2026-05-12T14:57:04Z</time>
      </trkpt>
      <trkpt lat="45.97496" lon="5.59686">
        <ele>791.8</ele>
        <time>2026-05-12T14:57:05Z</time>
      </trkpt>
      <trkpt lat="45.97497" lon="5.59692">
        <ele>791.8</ele>
        <time>2026-05-12T14:57:06Z</time>
      </trkpt>
      <trkpt lat="45.97498" lon="5.59697">
        <ele>791.8</ele>
        <time>2026-05-12T14:57:07Z</time>
      </trkpt>
      <trkpt lat="45.97499" lon="5.59702">
        <ele>791.8</ele>
        <time>2026-05-12T14:57:08Z</time>
      </trkpt>
      <trkpt lat="45.97501" lon="5.59708">
        <ele>791.8</ele>
        <time>2026-05-12T14:57:09Z</time>
      </trkpt>
      <trkpt lat="45.97502" lon="5.59713">
        <ele>792</ele>
        <time>2026-05-12T14:57:10Z</time>
      </trkpt>
      <trkpt lat="45.97503" lon="5.59719">
        <ele>792</ele>
        <time>2026-05-12T14:57:11Z</time>
      </trkpt>
      <trkpt lat="45.97504" lon="5.59724">
        <ele>792.2</ele>
        <time>2026-05-12T14:57:12Z</time>
      </trkpt>
      <trkpt lat="45.97506" lon="5.59728">
        <ele>792.2</ele>
        <time>2026-05-12T14:57:13Z</time>
      </trkpt>
      <trkpt lat="45.97507" lon="5.59733">
        <ele>792.2</ele>
        <time>2026-05-12T14:57:14Z</time>
      </trkpt>
      <trkpt lat="45.97508" lon="5.59738">
        <ele>792.6</ele>
        <time>2026-05-12T14:57:15Z</time>
      </trkpt>
      <trkpt lat="45.97509" lon="5.59743">
        <ele>792.8</ele>
        <time>2026-05-12T14:57:16Z</time>
      </trkpt>
      <trkpt lat="45.9751" lon="5.59748">
        <ele>792.8</ele>
        <time>2026-05-12T14:57:17Z</time>
      </trkpt>
      <trkpt lat="45.97511" lon="5.59753">
        <ele>793.2</ele>
        <time>2026-05-12T14:57:18Z</time>
      </trkpt>
      <trkpt lat="45.97512" lon="5.59758">
        <ele>793.2</ele>
        <time>2026-05-12T14:57:19Z</time>
      </trkpt>
      <trkpt lat="45.97513" lon="5.59762">
        <ele>793.2</ele>
        <time>2026-05-12T14:57:20Z</time>
      </trkpt>
      <trkpt lat="45.97514" lon="5.59766">
        <ele>793.4</ele>
        <time>2026-05-12T14:57:21Z</time>
      </trkpt>
      <trkpt lat="45.97515" lon="5.59771">
        <ele>793.4</ele>
        <time>2026-05-12T14:57:22Z</time>
      </trkpt>
      <trkpt lat="45.97515" lon="5.59775">
        <ele>793.4</ele>
        <time>2026-05-12T14:57:23Z</time>
      </trkpt>
      <trkpt lat="45.97516" lon="5.59779">
        <ele>793.8</ele>
        <time>2026-05-12T14:57:24Z</time>
      </trkpt>
      <trkpt lat="45.97517" lon="5.59784">
        <ele>794.2</ele>
        <time>2026-05-12T14:57:25Z</time>
      </trkpt>
      <trkpt lat="45.97518" lon="5.59788">
        <ele>794.4</ele>
        <time>2026-05-12T14:57:26Z</time>
      </trkpt>
      <trkpt lat="45.97519" lon="5.59792">
        <ele>794.8</ele>
        <time>2026-05-12T14:57:27Z</time>
      </trkpt>
      <trkpt lat="45.97519" lon="5.59795">
        <ele>795.2</ele>
        <time>2026-05-12T14:57:28Z</time>
      </trkpt>
      <trkpt lat="45.9752" lon="5.59799">
        <ele>795.2</ele>
        <time>2026-05-12T14:57:29Z</time>
      </trkpt>
      <trkpt lat="45.97521" lon="5.59803">
        <ele>795.6</ele>
        <time>2026-05-12T14:57:30Z</time>
      </trkpt>
      <trkpt lat="45.97521" lon="5.59806">
        <ele>795.6</ele>
        <time>2026-05-12T14:57:31Z</time>
      </trkpt>
      <trkpt lat="45.97521" lon="5.5981">
        <ele>795.8</ele>
        <time>2026-05-12T14:57:32Z</time>
      </trkpt>
      <trkpt lat="45.97522" lon="5.59813">
        <ele>795.8</ele>
        <time>2026-05-12T14:57:33Z</time>
      </trkpt>
      <trkpt lat="45.97523" lon="5.59816">
        <ele>796.2</ele>
        <time>2026-05-12T14:57:34Z</time>
      </trkpt>
      <trkpt lat="45.97525" lon="5.5982">
        <ele>796.6</ele>
        <time>2026-05-12T14:57:35Z</time>
      </trkpt>
      <trkpt lat="45.97526" lon="5.59823">
        <ele>796.8</ele>
        <time>2026-05-12T14:57:36Z</time>
      </trkpt>
      <trkpt lat="45.97526" lon="5.59826">
        <ele>797</ele>
        <time>2026-05-12T14:57:37Z</time>
      </trkpt>
      <trkpt lat="45.97527" lon="5.59828">
        <ele>797</ele>
        <time>2026-05-12T14:57:38Z</time>
      </trkpt>
      <trkpt lat="45.97528" lon="5.59831">
        <ele>797.4</ele>
        <time>2026-05-12T14:57:39Z</time>
      </trkpt>
      <trkpt lat="45.97528" lon="5.59834">
        <ele>797.4</ele>
        <time>2026-05-12T14:57:40Z</time>
      </trkpt>
      <trkpt lat="45.97528" lon="5.59836">
        <ele>797.8</ele>
        <time>2026-05-12T14:57:41Z</time>
      </trkpt>
      <trkpt lat="45.97529" lon="5.59839">
        <ele>797.8</ele>
        <time>2026-05-12T14:57:42Z</time>
      </trkpt>
      <trkpt lat="45.97529" lon="5.59841">
        <ele>798.2</ele>
        <time>2026-05-12T14:57:43Z</time>
      </trkpt>
      <trkpt lat="45.97529" lon="5.59844">
        <ele>798.4</ele>
        <time>2026-05-12T14:57:44Z</time>
      </trkpt>
      <trkpt lat="45.9753" lon="5.59846">
        <ele>798.4</ele>
        <time>2026-05-12T14:57:45Z</time>
      </trkpt>
      <trkpt lat="45.97531" lon="5.59849">
        <ele>798.8</ele>
        <time>2026-05-12T14:57:46Z</time>
      </trkpt>
      <trkpt lat="45.97532" lon="5.59851">
        <ele>799.2</ele>
        <time>2026-05-12T14:57:47Z</time>
      </trkpt>
      <trkpt lat="45.97533" lon="5.59853">
        <ele>799.4</ele>
        <time>2026-05-12T14:57:48Z</time>
      </trkpt>
      <trkpt lat="45.97534" lon="5.59855">
        <ele>799.6</ele>
        <time>2026-05-12T14:57:49Z</time>
      </trkpt>
      <trkpt lat="45.97535" lon="5.59857">
        <ele>799.6</ele>
        <time>2026-05-12T14:57:50Z</time>
      </trkpt>
      <trkpt lat="45.97536" lon="5.59859">
        <ele>800</ele>
        <time>2026-05-12T14:57:51Z</time>
      </trkpt>
      <trkpt lat="45.97537" lon="5.59861">
        <ele>800</ele>
        <time>2026-05-12T14:57:52Z</time>
      </trkpt>
      <trkpt lat="45.97539" lon="5.59863">
        <ele>800.4</ele>
        <time>2026-05-12T14:57:53Z</time>
      </trkpt>
      <trkpt lat="45.97541" lon="5.59865">
        <ele>800.4</ele>
        <time>2026-05-12T14:57:54Z</time>
      </trkpt>
      <trkpt lat="45.97542" lon="5.59866">
        <ele>800.4</ele>
        <time>2026-05-12T14:57:55Z</time>
      </trkpt>
      <trkpt lat="45.97543" lon="5.59867">
        <ele>800.4</ele>
        <time>2026-05-12T14:57:56Z</time>
      </trkpt>
      <trkpt lat="45.97545" lon="5.59869">
        <ele>800.4</ele>
        <time>2026-05-12T14:57:57Z</time>
      </trkpt>
      <trkpt lat="45.97546" lon="5.59871">
        <ele>800.8</ele>
        <time>2026-05-12T14:57:58Z</time>
      </trkpt>
      <trkpt lat="45.97547" lon="5.59872">
        <ele>800.8</ele>
        <time>2026-05-12T14:57:59Z</time>
      </trkpt>
      <trkpt lat="45.97549" lon="5.59873">
        <ele>801.2</ele>
        <time>2026-05-12T14:58:00Z</time>
      </trkpt>
      <trkpt lat="45.97551" lon="5.59874">
        <ele>801.2</ele>
        <time>2026-05-12T14:58:01Z</time>
      </trkpt>
      <trkpt lat="45.97553" lon="5.59876">
        <ele>801.2</ele>
        <time>2026-05-12T14:58:02Z</time>
      </trkpt>
      <trkpt lat="45.97554" lon="5.59877">
        <ele>801.6</ele>
        <time>2026-05-12T14:58:03Z</time>
      </trkpt>
      <trkpt lat="45.97556" lon="5.59878">
        <ele>801.6</ele>
        <time>2026-05-12T14:58:04Z</time>
      </trkpt>
      <trkpt lat="45.97557" lon="5.5988">
        <ele>802</ele>
        <time>2026-05-12T14:58:05Z</time>
      </trkpt>
      <trkpt lat="45.97558" lon="5.59881">
        <ele>802.2</ele>
        <time>2026-05-12T14:58:06Z</time>
      </trkpt>
      <trkpt lat="45.97559" lon="5.59882">
        <ele>802.2</ele>
        <time>2026-05-12T14:58:07Z</time>
      </trkpt>
      <trkpt lat="45.9756" lon="5.59884">
        <ele>802.6</ele>
        <time>2026-05-12T14:58:08Z</time>
      </trkpt>
      <trkpt lat="45.97562" lon="5.59885">
        <ele>802.6</ele>
        <time>2026-05-12T14:58:09Z</time>
      </trkpt>
      <trkpt lat="45.97564" lon="5.59886">
        <ele>802.6</ele>
        <time>2026-05-12T14:58:10Z</time>
      </trkpt>
      <trkpt lat="45.97565" lon="5.59887">
        <ele>802.8</ele>
        <time>2026-05-12T14:58:11Z</time>
      </trkpt>
      <trkpt lat="45.97567" lon="5.59888">
        <ele>803</ele>
        <time>2026-05-12T14:58:12Z</time>
      </trkpt>
      <trkpt lat="45.97568" lon="5.59889">
        <ele>803.4</ele>
        <time>2026-05-12T14:58:13Z</time>
      </trkpt>
      <trkpt lat="45.9757" lon="5.5989">
        <ele>803.4</ele>
        <time>2026-05-12T14:58:14Z</time>
      </trkpt>
      <trkpt lat="45.97572" lon="5.59891">
        <ele>803.8</ele>
        <time>2026-05-12T14:58:15Z</time>
      </trkpt>
      <trkpt lat="45.97574" lon="5.59892">
        <ele>804.2</ele>
        <time>2026-05-12T14:58:16Z</time>
      </trkpt>
      <trkpt lat="45.97576" lon="5.59893">
        <ele>804.2</ele>
        <time>2026-05-12T14:58:17Z</time>
      </trkpt>
      <trkpt lat="45.97578" lon="5.59894">
        <ele>804.2</ele>
        <time>2026-05-12T14:58:18Z</time>
      </trkpt>
      <trkpt lat="45.97579" lon="5.59896">
        <ele>804.4</ele>
        <time>2026-05-12T14:58:19Z</time>
      </trkpt>
      <trkpt lat="45.97581" lon="5.59897">
        <ele>804.6</ele>
        <time>2026-05-12T14:58:20Z</time>
      </trkpt>
      <trkpt lat="45.97583" lon="5.59899">
        <ele>804.6</ele>
        <time>2026-05-12T14:58:21Z</time>
      </trkpt>
      <trkpt lat="45.97585" lon="5.59901">
        <ele>804.6</ele>
        <time>2026-05-12T14:58:22Z</time>
      </trkpt>
      <trkpt lat="45.97587" lon="5.59902">
        <ele>804.8</ele>
        <time>2026-05-12T14:58:23Z</time>
      </trkpt>
      <trkpt lat="45.97589" lon="5.59904">
        <ele>805</ele>
        <time>2026-05-12T14:58:24Z</time>
      </trkpt>
      <trkpt lat="45.97591" lon="5.59906">
        <ele>805</ele>
        <time>2026-05-12T14:58:25Z</time>
      </trkpt>
      <trkpt lat="45.97593" lon="5.59908">
        <ele>805</ele>
        <time>2026-05-12T14:58:26Z</time>
      </trkpt>
      <trkpt lat="45.97596" lon="5.59909">
        <ele>805.2</ele>
        <time>2026-05-12T14:58:27Z</time>
      </trkpt>
      <trkpt lat="45.97598" lon="5.59911">
        <ele>805.2</ele>
        <time>2026-05-12T14:58:28Z</time>
      </trkpt>
      <trkpt lat="45.976" lon="5.59911">
        <ele>805.2</ele>
        <time>2026-05-12T14:58:29Z</time>
      </trkpt>
      <trkpt lat="45.97603" lon="5.59913">
        <ele>805.2</ele>
        <time>2026-05-12T14:58:30Z</time>
      </trkpt>
      <trkpt lat="45.97607" lon="5.59915">
        <ele>805.2</ele>
        <time>2026-05-12T14:58:31Z</time>
      </trkpt>
      <trkpt lat="45.97608" lon="5.59917">
        <ele>805.2</ele>
        <time>2026-05-12T14:58:32Z</time>
      </trkpt>
      <trkpt lat="45.97609" lon="5.59918">
        <ele>805.4</ele>
        <time>2026-05-12T14:58:33Z</time>
      </trkpt>
      <trkpt lat="45.97611" lon="5.5992">
        <ele>805.4</ele>
        <time>2026-05-12T14:58:34Z</time>
      </trkpt>
      <trkpt lat="45.97612" lon="5.59922">
        <ele>805.8</ele>
        <time>2026-05-12T14:58:35Z</time>
      </trkpt>
      <trkpt lat="45.97614" lon="5.59924">
        <ele>805.8</ele>
        <time>2026-05-12T14:58:36Z</time>
      </trkpt>
      <trkpt lat="45.97616" lon="5.59926">
        <ele>805.8</ele>
        <time>2026-05-12T14:58:37Z</time>
      </trkpt>
      <trkpt lat="45.97618" lon="5.59928">
        <ele>806.2</ele>
        <time>2026-05-12T14:58:38Z</time>
      </trkpt>
      <trkpt lat="45.9762" lon="5.59931">
        <ele>806.2</ele>
        <time>2026-05-12T14:58:39Z</time>
      </trkpt>
      <trkpt lat="45.97623" lon="5.59933">
        <ele>806.2</ele>
        <time>2026-05-12T14:58:40Z</time>
      </trkpt>
      <trkpt lat="45.97626" lon="5.59935">
        <ele>806.4</ele>
        <time>2026-05-12T14:58:41Z</time>
      </trkpt>
      <trkpt lat="45.9763" lon="5.59937">
        <ele>806.4</ele>
        <time>2026-05-12T14:58:42Z</time>
      </trkpt>
      <trkpt lat="45.97633" lon="5.59938">
        <ele>806.4</ele>
        <time>2026-05-12T14:58:43Z</time>
      </trkpt>
      <trkpt lat="45.97635" lon="5.59939">
        <ele>806.4</ele>
        <time>2026-05-12T14:58:44Z</time>
      </trkpt>
      <trkpt lat="45.97636" lon="5.59941">
        <ele>806.4</ele>
        <time>2026-05-12T14:58:45Z</time>
      </trkpt>
      <trkpt lat="45.97639" lon="5.59943">
        <ele>806.4</ele>
        <time>2026-05-12T14:58:46Z</time>
      </trkpt>
      <trkpt lat="45.97641" lon="5.59945">
        <ele>806.6</ele>
        <time>2026-05-12T14:58:47Z</time>
      </trkpt>
      <trkpt lat="45.97642" lon="5.59947">
        <ele>806.6</ele>
        <time>2026-05-12T14:58:48Z</time>
      </trkpt>
      <trkpt lat="45.97644" lon="5.59949">
        <ele>806.6</ele>
        <time>2026-05-12T14:58:49Z</time>
      </trkpt>
      <trkpt lat="45.97645" lon="5.59952">
        <ele>807</ele>
        <time>2026-05-12T14:58:50Z</time>
      </trkpt>
      <trkpt lat="45.97646" lon="5.59954">
        <ele>807</ele>
        <time>2026-05-12T14:58:51Z</time>
      </trkpt>
      <trkpt lat="45.97647" lon="5.59956">
        <ele>807</ele>
        <time>2026-05-12T14:58:52Z</time>
      </trkpt>
      <trkpt lat="45.97647" lon="5.59957">
        <ele>807</ele>
        <time>2026-05-12T14:58:53Z</time>
      </trkpt>
      <trkpt lat="45.97648" lon="5.59957">
        <ele>807.2</ele>
        <time>2026-05-12T14:58:54Z</time>
      </trkpt>
      <trkpt lat="45.97649" lon="5.59957">
        <ele>807.2</ele>
        <time>2026-05-12T14:58:55Z</time>
      </trkpt>
      <trkpt lat="45.97648" lon="5.59957">
        <ele>807.4</ele>
        <time>2026-05-12T14:58:56Z</time>
      </trkpt>
      <trkpt lat="45.97648" lon="5.59957">
        <ele>807.4</ele>
        <time>2026-05-12T14:58:57Z</time>
      </trkpt>
      <trkpt lat="45.97646" lon="5.59958">
        <ele>807.4</ele>
        <time>2026-05-12T14:58:58Z</time>
      </trkpt>
      <trkpt lat="45.97646" lon="5.59958">
        <ele>807.4</ele>
        <time>2026-05-12T14:58:59Z</time>
      </trkpt>
      <trkpt lat="45.97645" lon="5.5996">
        <ele>807.4</ele>
        <time>2026-05-12T14:59:05Z</time>
      </trkpt>
      <trkpt lat="45.97646" lon="5.59963">
        <ele>807.4</ele>
        <time>2026-05-12T14:59:06Z</time>
      </trkpt>
      <trkpt lat="45.97646" lon="5.59966">
        <ele>807.4</ele>
        <time>2026-05-12T14:59:07Z</time>
      </trkpt>
      <trkpt lat="45.97647" lon="5.59969">
        <ele>807.4</ele>
        <time>2026-05-12T14:59:08Z</time>
      </trkpt>
      <trkpt lat="45.97648" lon="5.59971">
        <ele>807.4</ele>
        <time>2026-05-12T14:59:09Z</time>
      </trkpt>
      <trkpt lat="45.9765" lon="5.59974">
        <ele>807.4</ele>
        <time>2026-05-12T14:59:10Z</time>
      </trkpt>
      <trkpt lat="45.97651" lon="5.59976">
        <ele>807.4</ele>
        <time>2026-05-12T14:59:11Z</time>
      </trkpt>
      <trkpt lat="45.97652" lon="5.59978">
        <ele>807.4</ele>
        <time>2026-05-12T14:59:12Z</time>
      </trkpt>
      <trkpt lat="45.97654" lon="5.5998">
        <ele>807.4</ele>
        <time>2026-05-12T14:59:13Z</time>
      </trkpt>
      <trkpt lat="45.97655" lon="5.59983">
        <ele>807.4</ele>
        <time>2026-05-12T14:59:14Z</time>
      </trkpt>
      <trkpt lat="45.97656" lon="5.59986">
        <ele>807.4</ele>
        <time>2026-05-12T14:59:15Z</time>
      </trkpt>
      <trkpt lat="45.97658" lon="5.59988">
        <ele>807.4</ele>
        <time>2026-05-12T14:59:16Z</time>
      </trkpt>
      <trkpt lat="45.97659" lon="5.5999">
        <ele>807.4</ele>
        <time>2026-05-12T14:59:17Z</time>
      </trkpt>
      <trkpt lat="45.9766" lon="5.59992">
        <ele>807.4</ele>
        <time>2026-05-12T14:59:18Z</time>
      </trkpt>
      <trkpt lat="45.97661" lon="5.59994">
        <ele>807.4</ele>
        <time>2026-05-12T14:59:19Z</time>
      </trkpt>
      <trkpt lat="45.97662" lon="5.59996">
        <ele>807.4</ele>
        <time>2026-05-12T14:59:20Z</time>
      </trkpt>
      <trkpt lat="45.97664" lon="5.59998">
        <ele>807.4</ele>
        <time>2026-05-12T14:59:21Z</time>
      </trkpt>
      <trkpt lat="45.97666" lon="5.6">
        <ele>807.2</ele>
        <time>2026-05-12T14:59:22Z</time>
      </trkpt>
      <trkpt lat="45.97668" lon="5.60004">
        <ele>807.2</ele>
        <time>2026-05-12T14:59:23Z</time>
      </trkpt>
      <trkpt lat="45.97669" lon="5.60007">
        <ele>807.2</ele>
        <time>2026-05-12T14:59:24Z</time>
      </trkpt>
      <trkpt lat="45.97671" lon="5.6001">
        <ele>807.2</ele>
        <time>2026-05-12T14:59:25Z</time>
      </trkpt>
      <trkpt lat="45.97673" lon="5.60013">
        <ele>807.2</ele>
        <time>2026-05-12T14:59:26Z</time>
      </trkpt>
      <trkpt lat="45.97675" lon="5.60015">
        <ele>807.2</ele>
        <time>2026-05-12T14:59:27Z</time>
      </trkpt>
      <trkpt lat="45.97677" lon="5.60017">
        <ele>807.2</ele>
        <time>2026-05-12T14:59:28Z</time>
      </trkpt>
      <trkpt lat="45.97678" lon="5.6002">
        <ele>807.2</ele>
        <time>2026-05-12T14:59:29Z</time>
      </trkpt>
      <trkpt lat="45.9768" lon="5.60023">
        <ele>807.2</ele>
        <time>2026-05-12T14:59:30Z</time>
      </trkpt>
      <trkpt lat="45.97682" lon="5.60025">
        <ele>807.6</ele>
        <time>2026-05-12T14:59:31Z</time>
      </trkpt>
      <trkpt lat="45.97683" lon="5.60028">
        <ele>807.6</ele>
        <time>2026-05-12T14:59:32Z</time>
      </trkpt>
      <trkpt lat="45.97685" lon="5.60031">
        <ele>807.6</ele>
        <time>2026-05-12T14:59:33Z</time>
      </trkpt>
      <trkpt lat="45.97686" lon="5.60034">
        <ele>807.6</ele>
        <time>2026-05-12T14:59:34Z</time>
      </trkpt>
      <trkpt lat="45.97686" lon="5.60038">
        <ele>807.2</ele>
        <time>2026-05-12T14:59:35Z</time>
      </trkpt>
      <trkpt lat="45.97687" lon="5.60042">
        <ele>807.2</ele>
        <time>2026-05-12T14:59:36Z</time>
      </trkpt>
      <trkpt lat="45.97688" lon="5.60046">
        <ele>807.6</ele>
        <time>2026-05-12T14:59:37Z</time>
      </trkpt>
      <trkpt lat="45.97689" lon="5.60049">
        <ele>807.6</ele>
        <time>2026-05-12T14:59:38Z</time>
      </trkpt>
      <trkpt lat="45.97691" lon="5.60053">
        <ele>807.6</ele>
        <time>2026-05-12T14:59:39Z</time>
      </trkpt>
      <trkpt lat="45.97693" lon="5.60057">
        <ele>807.6</ele>
        <time>2026-05-12T14:59:40Z</time>
      </trkpt>
      <trkpt lat="45.97694" lon="5.60059">
        <ele>807.6</ele>
        <time>2026-05-12T14:59:41Z</time>
      </trkpt>
      <trkpt lat="45.97695" lon="5.60059">
        <ele>808</ele>
        <time>2026-05-12T14:59:42Z</time>
      </trkpt>
      <trkpt lat="45.97695" lon="5.60057">
        <ele>808</ele>
        <time>2026-05-12T14:59:43Z</time>
      </trkpt>
      <trkpt lat="45.97694" lon="5.60056">
        <ele>808</ele>
        <time>2026-05-12T14:59:44Z</time>
      </trkpt>
      <trkpt lat="45.97694" lon="5.60055">
        <ele>808</ele>
        <time>2026-05-12T14:59:45Z</time>
      </trkpt>
      <trkpt lat="45.97694" lon="5.60053">
        <ele>808</ele>
        <time>2026-05-12T14:59:46Z</time>
      </trkpt>
      <trkpt lat="45.97694" lon="5.6005">
        <ele>808</ele>
        <time>2026-05-12T14:59:47Z</time>
      </trkpt>
      <trkpt lat="45.97694" lon="5.60046">
        <ele>808</ele>
        <time>2026-05-12T14:59:48Z</time>
      </trkpt>
      <trkpt lat="45.97693" lon="5.60044">
        <ele>808</ele>
        <time>2026-05-12T14:59:49Z</time>
      </trkpt>
      <trkpt lat="45.97693" lon="5.60043">
        <ele>808.2</ele>
        <time>2026-05-12T14:59:50Z</time>
      </trkpt>
      <trkpt lat="45.97692" lon="5.60043">
        <ele>808.2</ele>
        <time>2026-05-12T14:59:51Z</time>
      </trkpt>
      <trkpt lat="45.97691" lon="5.60042">
        <ele>808.2</ele>
        <time>2026-05-12T14:59:55Z</time>
      </trkpt>
      <trkpt lat="45.9769" lon="5.60041">
        <ele>808.2</ele>
        <time>2026-05-12T14:59:56Z</time>
      </trkpt>
      <trkpt lat="45.9769" lon="5.60041">
        <ele>808.2</ele>
        <time>2026-05-12T14:59:57Z</time>
      </trkpt>
      <trkpt lat="45.9769" lon="5.60041">
        <ele>808.2</ele>
        <time>2026-05-12T14:59:58Z</time>
      </trkpt>
      <trkpt lat="45.9769" lon="5.60041">
        <ele>808.2</ele>
        <time>2026-05-12T14:59:59Z</time>
      </trkpt>
      <trkpt lat="45.9769" lon="5.6004">
        <ele>808.2</ele>
        <time>2026-05-12T15:00:00Z</time>
      </trkpt>
      <trkpt lat="45.9769" lon="5.6004">
        <ele>808.2</ele>
        <time>2026-05-12T15:00:01Z</time>
      </trkpt>
      <trkpt lat="45.97851" lon="5.60013">
        <ele>813.8</ele>
        <time>2026-05-12T16:49:18Z</time>
      </trkpt>
      <trkpt lat="45.97852" lon="5.60012">
        <ele>813.8</ele>
        <time>2026-05-12T16:49:19Z</time>
      </trkpt>
      <trkpt lat="45.97853" lon="5.60011">
        <ele>813.8</ele>
        <time>2026-05-12T16:49:20Z</time>
      </trkpt>
      <trkpt lat="45.97854" lon="5.60011">
        <ele>813.8</ele>
        <time>2026-05-12T16:49:21Z</time>
      </trkpt>
      <trkpt lat="45.97855" lon="5.60011">
        <ele>813.8</ele>
        <time>2026-05-12T16:49:22Z</time>
      </trkpt>
      <trkpt lat="45.97857" lon="5.60011">
        <ele>813.8</ele>
        <time>2026-05-12T16:49:23Z</time>
      </trkpt>
      <trkpt lat="45.97858" lon="5.60011">
        <ele>813.8</ele>
        <time>2026-05-12T16:49:24Z</time>
      </trkpt>
      <trkpt lat="45.97859" lon="5.60011">
        <ele>813.8</ele>
        <time>2026-05-12T16:49:25Z</time>
      </trkpt>
      <trkpt lat="45.97859" lon="5.60012">
        <ele>813.8</ele>
        <time>2026-05-12T16:49:26Z</time>
      </trkpt>
      <trkpt lat="45.97858" lon="5.60013">
        <ele>813.8</ele>
        <time>2026-05-12T16:49:27Z</time>
      </trkpt>
      <trkpt lat="45.97859" lon="5.60013">
        <ele>813.8</ele>
        <time>2026-05-12T16:49:28Z</time>
      </trkpt>
      <trkpt lat="45.97861" lon="5.60011">
        <ele>813.8</ele>
        <time>2026-05-12T16:49:29Z</time>
      </trkpt>
      <trkpt lat="45.97864" lon="5.60009">
        <ele>813.4</ele>
        <time>2026-05-12T16:49:30Z</time>
      </trkpt>
      <trkpt lat="45.97867" lon="5.60008">
        <ele>813.4</ele>
        <time>2026-05-12T16:49:31Z</time>
      </trkpt>
      <trkpt lat="45.9787" lon="5.60008">
        <ele>813.4</ele>
        <time>2026-05-12T16:49:32Z</time>
      </trkpt>
      <trkpt lat="45.97873" lon="5.60008">
        <ele>813</ele>
        <time>2026-05-12T16:49:33Z</time>
      </trkpt>
      <trkpt lat="45.97877" lon="5.60006">
        <ele>813</ele>
        <time>2026-05-12T16:49:34Z</time>
      </trkpt>
      <trkpt lat="45.97881" lon="5.60003">
        <ele>812.8</ele>
        <time>2026-05-12T16:49:35Z</time>
      </trkpt>
      <trkpt lat="45.97885" lon="5.60003">
        <ele>812.8</ele>
        <time>2026-05-12T16:49:36Z</time>
      </trkpt>
      <trkpt lat="45.97889" lon="5.60002">
        <ele>812.6</ele>
        <time>2026-05-12T16:49:37Z</time>
      </trkpt>
      <trkpt lat="45.97893" lon="5.60001">
        <ele>812.6</ele>
        <time>2026-05-12T16:49:38Z</time>
      </trkpt>
      <trkpt lat="45.97897" lon="5.60002">
        <ele>812.2</ele>
        <time>2026-05-12T16:49:39Z</time>
      </trkpt>
      <trkpt lat="45.97901" lon="5.60003">
        <ele>812.2</ele>
        <time>2026-05-12T16:49:40Z</time>
      </trkpt>
      <trkpt lat="45.97904" lon="5.60003">
        <ele>810.8</ele>
        <time>2026-05-12T16:49:41Z</time>
      </trkpt>
      <trkpt lat="45.97907" lon="5.60003">
        <ele>811.6</ele>
        <time>2026-05-12T16:49:42Z</time>
      </trkpt>
      <trkpt lat="45.97911" lon="5.60005">
        <ele>811.8</ele>
        <time>2026-05-12T16:49:43Z</time>
      </trkpt>
      <trkpt lat="45.97914" lon="5.60005">
        <ele>811.8</ele>
        <time>2026-05-12T16:49:44Z</time>
      </trkpt>
      <trkpt lat="45.97917" lon="5.60006">
        <ele>812.4</ele>
        <time>2026-05-12T16:49:45Z</time>
      </trkpt>
      <trkpt lat="45.97918" lon="5.60007">
        <ele>812.8</ele>
        <time>2026-05-12T16:49:46Z</time>
      </trkpt>
      <trkpt lat="45.97921" lon="5.60007">
        <ele>812.8</ele>
        <time>2026-05-12T16:49:47Z</time>
      </trkpt>
      <trkpt lat="45.97923" lon="5.60007">
        <ele>812.8</ele>
        <time>2026-05-12T16:49:48Z</time>
      </trkpt>
      <trkpt lat="45.97927" lon="5.60007">
        <ele>813.2</ele>
        <time>2026-05-12T16:49:49Z</time>
      </trkpt>
      <trkpt lat="45.9793" lon="5.60008">
        <ele>813.2</ele>
        <time>2026-05-12T16:49:50Z</time>
      </trkpt>
      <trkpt lat="45.97933" lon="5.60008">
        <ele>813</ele>
        <time>2026-05-12T16:49:51Z</time>
      </trkpt>
      <trkpt lat="45.97937" lon="5.60008">
        <ele>813.2</ele>
        <time>2026-05-12T16:49:52Z</time>
      </trkpt>
      <trkpt lat="45.9794" lon="5.60008">
        <ele>813.2</ele>
        <time>2026-05-12T16:49:53Z</time>
      </trkpt>
      <trkpt lat="45.97943" lon="5.60008">
        <ele>813.2</ele>
        <time>2026-05-12T16:49:54Z</time>
      </trkpt>
      <trkpt lat="45.97946" lon="5.60007">
        <ele>813.2</ele>
        <time>2026-05-12T16:49:55Z</time>
      </trkpt>
      <trkpt lat="45.97949" lon="5.60006">
        <ele>812.8</ele>
        <time>2026-05-12T16:49:56Z</time>
      </trkpt>
      <trkpt lat="45.97951" lon="5.60004">
        <ele>812.8</ele>
        <time>2026-05-12T16:49:57Z</time>
      </trkpt>
      <trkpt lat="45.97953" lon="5.60002">
        <ele>812.2</ele>
        <time>2026-05-12T16:49:58Z</time>
      </trkpt>
      <trkpt lat="45.97955" lon="5.59999">
        <ele>812.2</ele>
        <time>2026-05-12T16:49:59Z</time>
      </trkpt>
      <trkpt lat="45.97957" lon="5.59996">
        <ele>812.2</ele>
        <time>2026-05-12T16:50:00Z</time>
      </trkpt>
      <trkpt lat="45.97959" lon="5.59993">
        <ele>812.2</ele>
        <time>2026-05-12T16:50:01Z</time>
      </trkpt>
      <trkpt lat="45.97961" lon="5.5999">
        <ele>812.2</ele>
        <time>2026-05-12T16:50:02Z</time>
      </trkpt>
      <trkpt lat="45.97964" lon="5.59987">
        <ele>812</ele>
        <time>2026-05-12T16:50:03Z</time>
      </trkpt>
      <trkpt lat="45.97967" lon="5.59983">
        <ele>812</ele>
        <time>2026-05-12T16:50:04Z</time>
      </trkpt>
      <trkpt lat="45.9797" lon="5.59979">
        <ele>812</ele>
        <time>2026-05-12T16:50:05Z</time>
      </trkpt>
      <trkpt lat="45.97973" lon="5.59976">
        <ele>812</ele>
        <time>2026-05-12T16:50:06Z</time>
      </trkpt>
      <trkpt lat="45.97976" lon="5.59971">
        <ele>811.6</ele>
        <time>2026-05-12T16:50:07Z</time>
      </trkpt>
      <trkpt lat="45.97979" lon="5.59967">
        <ele>811.6</ele>
        <time>2026-05-12T16:50:08Z</time>
      </trkpt>
      <trkpt lat="45.97983" lon="5.59963">
        <ele>811.4</ele>
        <time>2026-05-12T16:50:09Z</time>
      </trkpt>
      <trkpt lat="45.97986" lon="5.5996">
        <ele>811.4</ele>
        <time>2026-05-12T16:50:10Z</time>
      </trkpt>
      <trkpt lat="45.97989" lon="5.59956">
        <ele>811.2</ele>
        <time>2026-05-12T16:50:11Z</time>
      </trkpt>
      <trkpt lat="45.97992" lon="5.59952">
        <ele>811.2</ele>
        <time>2026-05-12T16:50:12Z</time>
      </trkpt>
      <trkpt lat="45.97995" lon="5.59948">
        <ele>810.8</ele>
        <time>2026-05-12T16:50:13Z</time>
      </trkpt>
      <trkpt lat="45.97998" lon="5.59943">
        <ele>810.8</ele>
        <time>2026-05-12T16:50:14Z</time>
      </trkpt>
      <trkpt lat="45.98001" lon="5.59939">
        <ele>810.4</ele>
        <time>2026-05-12T16:50:15Z</time>
      </trkpt>
      <trkpt lat="45.98003" lon="5.59935">
        <ele>810.2</ele>
        <time>2026-05-12T16:50:16Z</time>
      </trkpt>
      <trkpt lat="45.98006" lon="5.5993">
        <ele>810.2</ele>
        <time>2026-05-12T16:50:17Z</time>
      </trkpt>
      <trkpt lat="45.98009" lon="5.59927">
        <ele>810.2</ele>
        <time>2026-05-12T16:50:18Z</time>
      </trkpt>
      <trkpt lat="45.98012" lon="5.59924">
        <ele>810.2</ele>
        <time>2026-05-12T16:50:19Z</time>
      </trkpt>
      <trkpt lat="45.98015" lon="5.59922">
        <ele>810.2</ele>
        <time>2026-05-12T16:50:20Z</time>
      </trkpt>
      <trkpt lat="45.98017" lon="5.59921">
        <ele>810.2</ele>
        <time>2026-05-12T16:50:21Z</time>
      </trkpt>
      <trkpt lat="45.9802" lon="5.59921">
        <ele>809.8</ele>
        <time>2026-05-12T16:50:22Z</time>
      </trkpt>
      <trkpt lat="45.98023" lon="5.59923">
        <ele>809.8</ele>
        <time>2026-05-12T16:50:23Z</time>
      </trkpt>
      <trkpt lat="45.98025" lon="5.59925">
        <ele>809.8</ele>
        <time>2026-05-12T16:50:24Z</time>
      </trkpt>
      <trkpt lat="45.98027" lon="5.59928">
        <ele>810.4</ele>
        <time>2026-05-12T16:50:25Z</time>
      </trkpt>
      <trkpt lat="45.98028" lon="5.59931">
        <ele>810.8</ele>
        <time>2026-05-12T16:50:26Z</time>
      </trkpt>
      <trkpt lat="45.9803" lon="5.59934">
        <ele>811.2</ele>
        <time>2026-05-12T16:50:27Z</time>
      </trkpt>
      <trkpt lat="45.98031" lon="5.59936">
        <ele>811.2</ele>
        <time>2026-05-12T16:50:28Z</time>
      </trkpt>
      <trkpt lat="45.98033" lon="5.59939">
        <ele>811.6</ele>
        <time>2026-05-12T16:50:29Z</time>
      </trkpt>
      <trkpt lat="45.98034" lon="5.59941">
        <ele>811.6</ele>
        <time>2026-05-12T16:50:30Z</time>
      </trkpt>
      <trkpt lat="45.98036" lon="5.59943">
        <ele>812</ele>
        <time>2026-05-12T16:50:31Z</time>
      </trkpt>
      <trkpt lat="45.98038" lon="5.59946">
        <ele>812.2</ele>
        <time>2026-05-12T16:50:32Z</time>
      </trkpt>
      <trkpt lat="45.9804" lon="5.59948">
        <ele>812.2</ele>
        <time>2026-05-12T16:50:33Z</time>
      </trkpt>
      <trkpt lat="45.98042" lon="5.5995">
        <ele>812.4</ele>
        <time>2026-05-12T16:50:34Z</time>
      </trkpt>
      <trkpt lat="45.98044" lon="5.59952">
        <ele>812.4</ele>
        <time>2026-05-12T16:50:35Z</time>
      </trkpt>
      <trkpt lat="45.98046" lon="5.59953">
        <ele>812.6</ele>
        <time>2026-05-12T16:50:36Z</time>
      </trkpt>
      <trkpt lat="45.98047" lon="5.59954">
        <ele>812.6</ele>
        <time>2026-05-12T16:50:37Z</time>
      </trkpt>
      <trkpt lat="45.98049" lon="5.59956">
        <ele>812.6</ele>
        <time>2026-05-12T16:50:38Z</time>
      </trkpt>
      <trkpt lat="45.98051" lon="5.59957">
        <ele>812.6</ele>
        <time>2026-05-12T16:50:39Z</time>
      </trkpt>
      <trkpt lat="45.98053" lon="5.59958">
        <ele>813</ele>
        <time>2026-05-12T16:50:40Z</time>
      </trkpt>
      <trkpt lat="45.98054" lon="5.59959">
        <ele>813.2</ele>
        <time>2026-05-12T16:50:41Z</time>
      </trkpt>
      <trkpt lat="45.98056" lon="5.5996">
        <ele>813.6</ele>
        <time>2026-05-12T16:50:42Z</time>
      </trkpt>
      <trkpt lat="45.98058" lon="5.59962">
        <ele>813.8</ele>
        <time>2026-05-12T16:50:43Z</time>
      </trkpt>
      <trkpt lat="45.9806" lon="5.59963">
        <ele>813.8</ele>
        <time>2026-05-12T16:50:44Z</time>
      </trkpt>
      <trkpt lat="45.98062" lon="5.59964">
        <ele>814.2</ele>
        <time>2026-05-12T16:50:45Z</time>
      </trkpt>
      <trkpt lat="45.98064" lon="5.59965">
        <ele>814.2</ele>
        <time>2026-05-12T16:50:46Z</time>
      </trkpt>
      <trkpt lat="45.98065" lon="5.59966">
        <ele>814.6</ele>
        <time>2026-05-12T16:50:47Z</time>
      </trkpt>
      <trkpt lat="45.98067" lon="5.59968">
        <ele>814.8</ele>
        <time>2026-05-12T16:50:48Z</time>
      </trkpt>
      <trkpt lat="45.98069" lon="5.59969">
        <ele>815.2</ele>
        <time>2026-05-12T16:50:49Z</time>
      </trkpt>
      <trkpt lat="45.9807" lon="5.5997">
        <ele>815.2</ele>
        <time>2026-05-12T16:50:50Z</time>
      </trkpt>
      <trkpt lat="45.98072" lon="5.59972">
        <ele>815.4</ele>
        <time>2026-05-12T16:50:51Z</time>
      </trkpt>
      <trkpt lat="45.98073" lon="5.59973">
        <ele>815.8</ele>
        <time>2026-05-12T16:50:52Z</time>
      </trkpt>
      <trkpt lat="45.98075" lon="5.59974">
        <ele>816</ele>
        <time>2026-05-12T16:50:53Z</time>
      </trkpt>
      <trkpt lat="45.98076" lon="5.59976">
        <ele>816</ele>
        <time>2026-05-12T16:50:54Z</time>
      </trkpt>
      <trkpt lat="45.98078" lon="5.59977">
        <ele>816.4</ele>
        <time>2026-05-12T16:50:55Z</time>
      </trkpt>
      <trkpt lat="45.98079" lon="5.59979">
        <ele>816.6</ele>
        <time>2026-05-12T16:50:56Z</time>
      </trkpt>
      <trkpt lat="45.98081" lon="5.5998">
        <ele>816.6</ele>
        <time>2026-05-12T16:50:57Z</time>
      </trkpt>
      <trkpt lat="45.98083" lon="5.59981">
        <ele>816.6</ele>
        <time>2026-05-12T16:50:58Z</time>
      </trkpt>
      <trkpt lat="45.98084" lon="5.59982">
        <ele>817</ele>
        <time>2026-05-12T16:50:59Z</time>
      </trkpt>
      <trkpt lat="45.98086" lon="5.59983">
        <ele>817</ele>
        <time>2026-05-12T16:51:00Z</time>
      </trkpt>
      <trkpt lat="45.98088" lon="5.59984">
        <ele>817.4</ele>
        <time>2026-05-12T16:51:01Z</time>
      </trkpt>
      <trkpt lat="45.98089" lon="5.59985">
        <ele>817.8</ele>
        <time>2026-05-12T16:51:02Z</time>
      </trkpt>
      <trkpt lat="45.98091" lon="5.59985">
        <ele>817.8</ele>
        <time>2026-05-12T16:51:03Z</time>
      </trkpt>
      <trkpt lat="45.98092" lon="5.59986">
        <ele>818</ele>
        <time>2026-05-12T16:51:04Z</time>
      </trkpt>
      <trkpt lat="45.98094" lon="5.59986">
        <ele>818.4</ele>
        <time>2026-05-12T16:51:05Z</time>
      </trkpt>
      <trkpt lat="45.98096" lon="5.59987">
        <ele>818.6</ele>
        <time>2026-05-12T16:51:06Z</time>
      </trkpt>
      <trkpt lat="45.98097" lon="5.59988">
        <ele>818.6</ele>
        <time>2026-05-12T16:51:07Z</time>
      </trkpt>
      <trkpt lat="45.98099" lon="5.59989">
        <ele>819</ele>
        <time>2026-05-12T16:51:08Z</time>
      </trkpt>
      <trkpt lat="45.981" lon="5.5999">
        <ele>819</ele>
        <time>2026-05-12T16:51:09Z</time>
      </trkpt>
      <trkpt lat="45.98101" lon="5.59991">
        <ele>819.4</ele>
        <time>2026-05-12T16:51:10Z</time>
      </trkpt>
      <trkpt lat="45.98103" lon="5.59992">
        <ele>819.4</ele>
        <time>2026-05-12T16:51:11Z</time>
      </trkpt>
      <trkpt lat="45.98104" lon="5.59993">
        <ele>819.4</ele>
        <time>2026-05-12T16:51:12Z</time>
      </trkpt>
      <trkpt lat="45.98106" lon="5.59994">
        <ele>819.8</ele>
        <time>2026-05-12T16:51:13Z</time>
      </trkpt>
      <trkpt lat="45.98108" lon="5.59995">
        <ele>819.8</ele>
        <time>2026-05-12T16:51:14Z</time>
      </trkpt>
      <trkpt lat="45.98109" lon="5.59996">
        <ele>820.2</ele>
        <time>2026-05-12T16:51:15Z</time>
      </trkpt>
      <trkpt lat="45.98111" lon="5.59997">
        <ele>820.2</ele>
        <time>2026-05-12T16:51:16Z</time>
      </trkpt>
      <trkpt lat="45.98112" lon="5.59998">
        <ele>820.4</ele>
        <time>2026-05-12T16:51:17Z</time>
      </trkpt>
      <trkpt lat="45.98113" lon="5.59999">
        <ele>820.6</ele>
        <time>2026-05-12T16:51:18Z</time>
      </trkpt>
      <trkpt lat="45.98115" lon="5.60001">
        <ele>820.6</ele>
        <time>2026-05-12T16:51:19Z</time>
      </trkpt>
      <trkpt lat="45.98116" lon="5.60003">
        <ele>821</ele>
        <time>2026-05-12T16:51:20Z</time>
      </trkpt>
      <trkpt lat="45.98118" lon="5.60004">
        <ele>821</ele>
        <time>2026-05-12T16:51:21Z</time>
      </trkpt>
      <trkpt lat="45.98119" lon="5.60005">
        <ele>821.2</ele>
        <time>2026-05-12T16:51:22Z</time>
      </trkpt>
      <trkpt lat="45.98121" lon="5.60005">
        <ele>821.2</ele>
        <time>2026-05-12T16:51:23Z</time>
      </trkpt>
      <trkpt lat="45.98123" lon="5.60006">
        <ele>821.4</ele>
        <time>2026-05-12T16:51:24Z</time>
      </trkpt>
      <trkpt lat="45.98124" lon="5.60007">
        <ele>821.8</ele>
        <time>2026-05-12T16:51:25Z</time>
      </trkpt>
      <trkpt lat="45.98125" lon="5.60009">
        <ele>821.8</ele>
        <time>2026-05-12T16:51:26Z</time>
      </trkpt>
      <trkpt lat="45.98127" lon="5.6001">
        <ele>822</ele>
        <time>2026-05-12T16:51:27Z</time>
      </trkpt>
      <trkpt lat="45.98128" lon="5.60011">
        <ele>822</ele>
        <time>2026-05-12T16:51:28Z</time>
      </trkpt>
      <trkpt lat="45.98129" lon="5.60012">
        <ele>822</ele>
        <time>2026-05-12T16:51:29Z</time>
      </trkpt>
      <trkpt lat="45.98131" lon="5.60013">
        <ele>822.4</ele>
        <time>2026-05-12T16:51:30Z</time>
      </trkpt>
      <trkpt lat="45.98132" lon="5.60015">
        <ele>822.4</ele>
        <time>2026-05-12T16:51:31Z</time>
      </trkpt>
      <trkpt lat="45.98134" lon="5.60016">
        <ele>822.4</ele>
        <time>2026-05-12T16:51:32Z</time>
      </trkpt>
      <trkpt lat="45.98135" lon="5.60018">
        <ele>822.8</ele>
        <time>2026-05-12T16:51:33Z</time>
      </trkpt>
      <trkpt lat="45.98136" lon="5.60019">
        <ele>822.8</ele>
        <time>2026-05-12T16:51:34Z</time>
      </trkpt>
      <trkpt lat="45.98138" lon="5.60021">
        <ele>822.8</ele>
        <time>2026-05-12T16:51:35Z</time>
      </trkpt>
      <trkpt lat="45.98139" lon="5.60022">
        <ele>822.8</ele>
        <time>2026-05-12T16:51:36Z</time>
      </trkpt>
      <trkpt lat="45.9814" lon="5.60024">
        <ele>822.8</ele>
        <time>2026-05-12T16:51:37Z</time>
      </trkpt>
      <trkpt lat="45.98141" lon="5.60025">
        <ele>822.8</ele>
        <time>2026-05-12T16:51:38Z</time>
      </trkpt>
      <trkpt lat="45.98144" lon="5.60028">
        <ele>822.8</ele>
        <time>2026-05-12T16:51:39Z</time>
      </trkpt>
      <trkpt lat="45.98145" lon="5.6003">
        <ele>823</ele>
        <time>2026-05-12T16:51:40Z</time>
      </trkpt>
      <trkpt lat="45.98146" lon="5.60031">
        <ele>823.2</ele>
        <time>2026-05-12T16:51:41Z</time>
      </trkpt>
      <trkpt lat="45.98148" lon="5.60032">
        <ele>823.2</ele>
        <time>2026-05-12T16:51:42Z</time>
      </trkpt>
      <trkpt lat="45.98149" lon="5.60034">
        <ele>823.6</ele>
        <time>2026-05-12T16:51:43Z</time>
      </trkpt>
      <trkpt lat="45.9815" lon="5.60035">
        <ele>824</ele>
        <time>2026-05-12T16:51:44Z</time>
      </trkpt>
      <trkpt lat="45.98151" lon="5.60037">
        <ele>824.2</ele>
        <time>2026-05-12T16:51:45Z</time>
      </trkpt>
      <trkpt lat="45.98152" lon="5.60038">
        <ele>824.2</ele>
        <time>2026-05-12T16:51:46Z</time>
      </trkpt>
      <trkpt lat="45.98154" lon="5.60039">
        <ele>824.4</ele>
        <time>2026-05-12T16:51:47Z</time>
      </trkpt>
      <trkpt lat="45.98155" lon="5.6004">
        <ele>824.4</ele>
        <time>2026-05-12T16:51:48Z</time>
      </trkpt>
      <trkpt lat="45.98156" lon="5.60041">
        <ele>824.6</ele>
        <time>2026-05-12T16:51:49Z</time>
      </trkpt>
      <trkpt lat="45.98158" lon="5.60043">
        <ele>824.6</ele>
        <time>2026-05-12T16:51:50Z</time>
      </trkpt>
      <trkpt lat="45.98159" lon="5.60044">
        <ele>824.6</ele>
        <time>2026-05-12T16:51:51Z</time>
      </trkpt>
      <trkpt lat="45.9816" lon="5.60046">
        <ele>825</ele>
        <time>2026-05-12T16:51:52Z</time>
      </trkpt>
      <trkpt lat="45.98162" lon="5.60047">
        <ele>825</ele>
        <time>2026-05-12T16:51:53Z</time>
      </trkpt>
      <trkpt lat="45.98163" lon="5.60049">
        <ele>825.2</ele>
        <time>2026-05-12T16:51:54Z</time>
      </trkpt>
      <trkpt lat="45.98165" lon="5.6005">
        <ele>825.2</ele>
        <time>2026-05-12T16:51:55Z</time>
      </trkpt>
      <trkpt lat="45.98165" lon="5.6005">
        <ele>825.6</ele>
        <time>2026-05-12T16:51:56Z</time>
      </trkpt>
      <trkpt lat="45.98166" lon="5.60052">
        <ele>825.6</ele>
        <time>2026-05-12T16:51:57Z</time>
      </trkpt>
      <trkpt lat="45.98167" lon="5.60053">
        <ele>825.6</ele>
        <time>2026-05-12T16:51:58Z</time>
      </trkpt>
      <trkpt lat="45.98169" lon="5.60055">
        <ele>825.8</ele>
        <time>2026-05-12T16:51:59Z</time>
      </trkpt>
      <trkpt lat="45.9817" lon="5.60056">
        <ele>825.8</ele>
        <time>2026-05-12T16:52:00Z</time>
      </trkpt>
      <trkpt lat="45.98171" lon="5.60057">
        <ele>825.8</ele>
        <time>2026-05-12T16:52:01Z</time>
      </trkpt>
      <trkpt lat="45.98173" lon="5.60058">
        <ele>826</ele>
        <time>2026-05-12T16:52:02Z</time>
      </trkpt>
      <trkpt lat="45.98174" lon="5.6006">
        <ele>826</ele>
        <time>2026-05-12T16:52:03Z</time>
      </trkpt>
      <trkpt lat="45.98176" lon="5.60061">
        <ele>826.4</ele>
        <time>2026-05-12T16:52:04Z</time>
      </trkpt>
      <trkpt lat="45.98177" lon="5.60063">
        <ele>826.4</ele>
        <time>2026-05-12T16:52:05Z</time>
      </trkpt>
      <trkpt lat="45.98178" lon="5.60064">
        <ele>826.6</ele>
        <time>2026-05-12T16:52:06Z</time>
      </trkpt>
      <trkpt lat="45.9818" lon="5.60066">
        <ele>826.6</ele>
        <time>2026-05-12T16:52:07Z</time>
      </trkpt>
      <trkpt lat="45.98181" lon="5.60067">
        <ele>826.8</ele>
        <time>2026-05-12T16:52:08Z</time>
      </trkpt>
      <trkpt lat="45.98183" lon="5.60069">
        <ele>826.8</ele>
        <time>2026-05-12T16:52:09Z</time>
      </trkpt>
      <trkpt lat="45.98185" lon="5.6007">
        <ele>826.8</ele>
        <time>2026-05-12T16:52:10Z</time>
      </trkpt>
      <trkpt lat="45.98186" lon="5.60072">
        <ele>827</ele>
        <time>2026-05-12T16:52:11Z</time>
      </trkpt>
      <trkpt lat="45.98188" lon="5.60074">
        <ele>827</ele>
        <time>2026-05-12T16:52:12Z</time>
      </trkpt>
      <trkpt lat="45.9819" lon="5.60076">
        <ele>827</ele>
        <time>2026-05-12T16:52:13Z</time>
      </trkpt>
      <trkpt lat="45.98191" lon="5.60078">
        <ele>827.2</ele>
        <time>2026-05-12T16:52:14Z</time>
      </trkpt>
      <trkpt lat="45.98193" lon="5.6008">
        <ele>827.2</ele>
        <time>2026-05-12T16:52:15Z</time>
      </trkpt>
      <trkpt lat="45.98194" lon="5.60082">
        <ele>827.2</ele>
        <time>2026-05-12T16:52:16Z</time>
      </trkpt>
      <trkpt lat="45.98196" lon="5.60084">
        <ele>827.4</ele>
        <time>2026-05-12T16:52:17Z</time>
      </trkpt>
      <trkpt lat="45.98198" lon="5.60086">
        <ele>827.4</ele>
        <time>2026-05-12T16:52:18Z</time>
      </trkpt>
      <trkpt lat="45.982" lon="5.60087">
        <ele>827.4</ele>
        <time>2026-05-12T16:52:19Z</time>
      </trkpt>
      <trkpt lat="45.98202" lon="5.60089">
        <ele>827.4</ele>
        <time>2026-05-12T16:52:20Z</time>
      </trkpt>
      <trkpt lat="45.98203" lon="5.60091">
        <ele>827.4</ele>
        <time>2026-05-12T16:52:21Z</time>
      </trkpt>
      <trkpt lat="45.98205" lon="5.60093">
        <ele>827.4</ele>
        <time>2026-05-12T16:52:22Z</time>
      </trkpt>
      <trkpt lat="45.98207" lon="5.60095">
        <ele>827.4</ele>
        <time>2026-05-12T16:52:23Z</time>
      </trkpt>
      <trkpt lat="45.98209" lon="5.60097">
        <ele>827.4</ele>
        <time>2026-05-12T16:52:24Z</time>
      </trkpt>
      <trkpt lat="45.98211" lon="5.60098">
        <ele>827.4</ele>
        <time>2026-05-12T16:52:25Z</time>
      </trkpt>
      <trkpt lat="45.98213" lon="5.601">
        <ele>827.4</ele>
        <time>2026-05-12T16:52:26Z</time>
      </trkpt>
      <trkpt lat="45.98215" lon="5.60102">
        <ele>827.4</ele>
        <time>2026-05-12T16:52:27Z</time>
      </trkpt>
      <trkpt lat="45.98216" lon="5.60104">
        <ele>827.4</ele>
        <time>2026-05-12T16:52:28Z</time>
      </trkpt>
      <trkpt lat="45.98218" lon="5.60106">
        <ele>827.4</ele>
        <time>2026-05-12T16:52:29Z</time>
      </trkpt>
      <trkpt lat="45.9822" lon="5.60108">
        <ele>827.4</ele>
        <time>2026-05-12T16:52:30Z</time>
      </trkpt>
      <trkpt lat="45.98222" lon="5.6011">
        <ele>827.8</ele>
        <time>2026-05-12T16:52:31Z</time>
      </trkpt>
      <trkpt lat="45.98224" lon="5.60112">
        <ele>827.8</ele>
        <time>2026-05-12T16:52:32Z</time>
      </trkpt>
      <trkpt lat="45.98226" lon="5.60114">
        <ele>827.8</ele>
        <time>2026-05-12T16:52:33Z</time>
      </trkpt>
      <trkpt lat="45.98228" lon="5.60116">
        <ele>827.8</ele>
        <time>2026-05-12T16:52:34Z</time>
      </trkpt>
      <trkpt lat="45.9823" lon="5.60118">
        <ele>827.8</ele>
        <time>2026-05-12T16:52:35Z</time>
      </trkpt>
      <trkpt lat="45.98232" lon="5.6012">
        <ele>827.8</ele>
        <time>2026-05-12T16:52:36Z</time>
      </trkpt>
      <trkpt lat="45.98234" lon="5.60122">
        <ele>827.8</ele>
        <time>2026-05-12T16:52:37Z</time>
      </trkpt>
      <trkpt lat="45.98236" lon="5.60123">
        <ele>827.8</ele>
        <time>2026-05-12T16:52:38Z</time>
      </trkpt>
      <trkpt lat="45.98239" lon="5.60125">
        <ele>828</ele>
        <time>2026-05-12T16:52:39Z</time>
      </trkpt>
      <trkpt lat="45.98241" lon="5.60126">
        <ele>828</ele>
        <time>2026-05-12T16:52:40Z</time>
      </trkpt>
      <trkpt lat="45.98243" lon="5.60128">
        <ele>828</ele>
        <time>2026-05-12T16:52:41Z</time>
      </trkpt>
      <trkpt lat="45.98245" lon="5.60129">
        <ele>828.2</ele>
        <time>2026-05-12T16:52:42Z</time>
      </trkpt>
      <trkpt lat="45.98248" lon="5.60131">
        <ele>828.2</ele>
        <time>2026-05-12T16:52:43Z</time>
      </trkpt>
      <trkpt lat="45.9825" lon="5.60133">
        <ele>828.2</ele>
        <time>2026-05-12T16:52:44Z</time>
      </trkpt>
      <trkpt lat="45.98252" lon="5.60135">
        <ele>828.2</ele>
        <time>2026-05-12T16:52:45Z</time>
      </trkpt>
      <trkpt lat="45.98254" lon="5.60137">
        <ele>828.2</ele>
        <time>2026-05-12T16:52:46Z</time>
      </trkpt>
      <trkpt lat="45.98257" lon="5.60139">
        <ele>828.2</ele>
        <time>2026-05-12T16:52:47Z</time>
      </trkpt>
      <trkpt lat="45.98259" lon="5.6014">
        <ele>828.2</ele>
        <time>2026-05-12T16:52:48Z</time>
      </trkpt>
      <trkpt lat="45.98261" lon="5.60142">
        <ele>829</ele>
        <time>2026-05-12T16:52:49Z</time>
      </trkpt>
      <trkpt lat="45.98263" lon="5.60143">
        <ele>829</ele>
        <time>2026-05-12T16:52:50Z</time>
      </trkpt>
      <trkpt lat="45.98265" lon="5.60145">
        <ele>829</ele>
        <time>2026-05-12T16:52:51Z</time>
      </trkpt>
      <trkpt lat="45.98267" lon="5.60146">
        <ele>829</ele>
        <time>2026-05-12T16:52:52Z</time>
      </trkpt>
      <trkpt lat="45.98269" lon="5.60148">
        <ele>829</ele>
        <time>2026-05-12T16:52:53Z</time>
      </trkpt>
      <trkpt lat="45.98271" lon="5.6015">
        <ele>829</ele>
        <time>2026-05-12T16:52:54Z</time>
      </trkpt>
      <trkpt lat="45.98272" lon="5.60151">
        <ele>829</ele>
        <time>2026-05-12T16:52:55Z</time>
      </trkpt>
      <trkpt lat="45.98274" lon="5.60152">
        <ele>829</ele>
        <time>2026-05-12T16:52:56Z</time>
      </trkpt>
      <trkpt lat="45.98275" lon="5.60153">
        <ele>829</ele>
        <time>2026-05-12T16:52:57Z</time>
      </trkpt>
      <trkpt lat="45.98277" lon="5.60154">
        <ele>829</ele>
        <time>2026-05-12T16:52:58Z</time>
      </trkpt>
      <trkpt lat="45.98279" lon="5.60154">
        <ele>828.6</ele>
        <time>2026-05-12T16:52:59Z</time>
      </trkpt>
      <trkpt lat="45.98281" lon="5.60153">
        <ele>828.6</ele>
        <time>2026-05-12T16:53:00Z</time>
      </trkpt>
      <trkpt lat="45.98282" lon="5.60152">
        <ele>828.6</ele>
        <time>2026-05-12T16:53:01Z</time>
      </trkpt>
      <trkpt lat="45.98284" lon="5.6015">
        <ele>828.6</ele>
        <time>2026-05-12T16:53:02Z</time>
      </trkpt>
      <trkpt lat="45.98286" lon="5.60148">
        <ele>828.6</ele>
        <time>2026-05-12T16:53:03Z</time>
      </trkpt>
      <trkpt lat="45.98288" lon="5.60144">
        <ele>828.4</ele>
        <time>2026-05-12T16:53:04Z</time>
      </trkpt>
      <trkpt lat="45.9829" lon="5.6014">
        <ele>828.4</ele>
        <time>2026-05-12T16:53:05Z</time>
      </trkpt>
      <trkpt lat="45.98293" lon="5.60137">
        <ele>828</ele>
        <time>2026-05-12T16:53:06Z</time>
      </trkpt>
      <trkpt lat="45.98296" lon="5.60133">
        <ele>828</ele>
        <time>2026-05-12T16:53:07Z</time>
      </trkpt>
      <trkpt lat="45.98299" lon="5.60131">
        <ele>828</ele>
        <time>2026-05-12T16:53:08Z</time>
      </trkpt>
      <trkpt lat="45.98302" lon="5.60128">
        <ele>828</ele>
        <time>2026-05-12T16:53:09Z</time>
      </trkpt>
      <trkpt lat="45.98305" lon="5.60126">
        <ele>827.8</ele>
        <time>2026-05-12T16:53:10Z</time>
      </trkpt>
      <trkpt lat="45.98308" lon="5.60123">
        <ele>827.4</ele>
        <time>2026-05-12T16:53:11Z</time>
      </trkpt>
      <trkpt lat="45.98311" lon="5.6012">
        <ele>827.2</ele>
        <time>2026-05-12T16:53:12Z</time>
      </trkpt>
      <trkpt lat="45.98314" lon="5.60117">
        <ele>827.2</ele>
        <time>2026-05-12T16:53:13Z</time>
      </trkpt>
      <trkpt lat="45.98317" lon="5.60115">
        <ele>827</ele>
        <time>2026-05-12T16:53:14Z</time>
      </trkpt>
      <trkpt lat="45.98321" lon="5.60112">
        <ele>827</ele>
        <time>2026-05-12T16:53:15Z</time>
      </trkpt>
      <trkpt lat="45.98324" lon="5.6011">
        <ele>826.8</ele>
        <time>2026-05-12T16:53:16Z</time>
      </trkpt>
      <trkpt lat="45.98327" lon="5.60107">
        <ele>826.4</ele>
        <time>2026-05-12T16:53:17Z</time>
      </trkpt>
      <trkpt lat="45.9833" lon="5.60105">
        <ele>826.4</ele>
        <time>2026-05-12T16:53:18Z</time>
      </trkpt>
      <trkpt lat="45.98334" lon="5.60103">
        <ele>826.2</ele>
        <time>2026-05-12T16:53:19Z</time>
      </trkpt>
      <trkpt lat="45.98337" lon="5.601">
        <ele>826.2</ele>
        <time>2026-05-12T16:53:20Z</time>
      </trkpt>
      <trkpt lat="45.9834" lon="5.60097">
        <ele>825.8</ele>
        <time>2026-05-12T16:53:21Z</time>
      </trkpt>
      <trkpt lat="45.98343" lon="5.60094">
        <ele>825.6</ele>
        <time>2026-05-12T16:53:22Z</time>
      </trkpt>
      <trkpt lat="45.98347" lon="5.60091">
        <ele>825.6</ele>
        <time>2026-05-12T16:53:23Z</time>
      </trkpt>
      <trkpt lat="45.9835" lon="5.60087">
        <ele>825.4</ele>
        <time>2026-05-12T16:53:24Z</time>
      </trkpt>
      <trkpt lat="45.98353" lon="5.60083">
        <ele>825.4</ele>
        <time>2026-05-12T16:53:25Z</time>
      </trkpt>
      <trkpt lat="45.98356" lon="5.60078">
        <ele>825.4</ele>
        <time>2026-05-12T16:53:26Z</time>
      </trkpt>
      <trkpt lat="45.9836" lon="5.60074">
        <ele>825.2</ele>
        <time>2026-05-12T16:53:27Z</time>
      </trkpt>
      <trkpt lat="45.98364" lon="5.60069">
        <ele>824.8</ele>
        <time>2026-05-12T16:53:28Z</time>
      </trkpt>
      <trkpt lat="45.98367" lon="5.60064">
        <ele>824.4</ele>
        <time>2026-05-12T16:53:29Z</time>
      </trkpt>
      <trkpt lat="45.9837" lon="5.60058">
        <ele>824.4</ele>
        <time>2026-05-12T16:53:30Z</time>
      </trkpt>
      <trkpt lat="45.98376" lon="5.60053">
        <ele>824</ele>
        <time>2026-05-12T16:53:31Z</time>
      </trkpt>
      <trkpt lat="45.98382" lon="5.60048">
        <ele>824</ele>
        <time>2026-05-12T16:53:32Z</time>
      </trkpt>
      <trkpt lat="45.98388" lon="5.60046">
        <ele>823.4</ele>
        <time>2026-05-12T16:53:33Z</time>
      </trkpt>
      <trkpt lat="45.98394" lon="5.60045">
        <ele>823</ele>
        <time>2026-05-12T16:53:34Z</time>
      </trkpt>
      <trkpt lat="45.98399" lon="5.60045">
        <ele>823</ele>
        <time>2026-05-12T16:53:35Z</time>
      </trkpt>
      <trkpt lat="45.98405" lon="5.60044">
        <ele>822.8</ele>
        <time>2026-05-12T16:53:36Z</time>
      </trkpt>
      <trkpt lat="45.9841" lon="5.60045">
        <ele>822.8</ele>
        <time>2026-05-12T16:53:37Z</time>
      </trkpt>
      <trkpt lat="45.98413" lon="5.60044">
        <ele>822.8</ele>
        <time>2026-05-12T16:53:38Z</time>
      </trkpt>
      <trkpt lat="45.98417" lon="5.60043">
        <ele>823</ele>
        <time>2026-05-12T16:53:39Z</time>
      </trkpt>
      <trkpt lat="45.9842" lon="5.60043">
        <ele>823.4</ele>
        <time>2026-05-12T16:53:40Z</time>
      </trkpt>
      <trkpt lat="45.98424" lon="5.60044">
        <ele>823.6</ele>
        <time>2026-05-12T16:53:41Z</time>
      </trkpt>
      <trkpt lat="45.98427" lon="5.60045">
        <ele>823.6</ele>
        <time>2026-05-12T16:53:42Z</time>
      </trkpt>
      <trkpt lat="45.98431" lon="5.60044">
        <ele>823.6</ele>
        <time>2026-05-12T16:53:43Z</time>
      </trkpt>
      <trkpt lat="45.98434" lon="5.60044">
        <ele>824</ele>
        <time>2026-05-12T16:53:44Z</time>
      </trkpt>
      <trkpt lat="45.98437" lon="5.60044">
        <ele>824</ele>
        <time>2026-05-12T16:53:45Z</time>
      </trkpt>
      <trkpt lat="45.9844" lon="5.60044">
        <ele>824.2</ele>
        <time>2026-05-12T16:53:46Z</time>
      </trkpt>
      <trkpt lat="45.98442" lon="5.60043">
        <ele>824.2</ele>
        <time>2026-05-12T16:53:47Z</time>
      </trkpt>
      <trkpt lat="45.98443" lon="5.60042">
        <ele>824.2</ele>
        <time>2026-05-12T16:53:48Z</time>
      </trkpt>
      <trkpt lat="45.98444" lon="5.60041">
        <ele>824.2</ele>
        <time>2026-05-12T16:53:49Z</time>
      </trkpt>
      <trkpt lat="45.98444" lon="5.6004">
        <ele>824.2</ele>
        <time>2026-05-12T16:53:50Z</time>
      </trkpt>
      <trkpt lat="45.98445" lon="5.60037">
        <ele>824.4</ele>
        <time>2026-05-12T16:53:51Z</time>
      </trkpt>
      <trkpt lat="45.98446" lon="5.60035">
        <ele>824.4</ele>
        <time>2026-05-12T16:53:52Z</time>
      </trkpt>
      <trkpt lat="45.98446" lon="5.60032">
        <ele>824.4</ele>
        <time>2026-05-12T16:53:53Z</time>
      </trkpt>
      <trkpt lat="45.98446" lon="5.60029">
        <ele>824.2</ele>
        <time>2026-05-12T16:53:54Z</time>
      </trkpt>
      <trkpt lat="45.98446" lon="5.60025">
        <ele>823.6</ele>
        <time>2026-05-12T16:53:55Z</time>
      </trkpt>
      <trkpt lat="45.98446" lon="5.60019">
        <ele>823.2</ele>
        <time>2026-05-12T16:53:56Z</time>
      </trkpt>
      <trkpt lat="45.98446" lon="5.60013">
        <ele>822.6</ele>
        <time>2026-05-12T16:53:57Z</time>
      </trkpt>
      <trkpt lat="45.98446" lon="5.60007">
        <ele>822.4</ele>
        <time>2026-05-12T16:53:58Z</time>
      </trkpt>
      <trkpt lat="45.98446" lon="5.60001">
        <ele>822</ele>
        <time>2026-05-12T16:53:59Z</time>
      </trkpt>
      <trkpt lat="45.98446" lon="5.59996">
        <ele>822</ele>
        <time>2026-05-12T16:54:00Z</time>
      </trkpt>
      <trkpt lat="45.98446" lon="5.59992">
        <ele>821.8</ele>
        <time>2026-05-12T16:54:01Z</time>
      </trkpt>
      <trkpt lat="45.98447" lon="5.59988">
        <ele>821.8</ele>
        <time>2026-05-12T16:54:02Z</time>
      </trkpt>
      <trkpt lat="45.98448" lon="5.59984">
        <ele>821.4</ele>
        <time>2026-05-12T16:54:03Z</time>
      </trkpt>
      <trkpt lat="45.9845" lon="5.5998">
        <ele>820.8</ele>
        <time>2026-05-12T16:54:04Z</time>
      </trkpt>
      <trkpt lat="45.98453" lon="5.59977">
        <ele>820.8</ele>
        <time>2026-05-12T16:54:05Z</time>
      </trkpt>
      <trkpt lat="45.98458" lon="5.59976">
        <ele>820.8</ele>
        <time>2026-05-12T16:54:06Z</time>
      </trkpt>
      <trkpt lat="45.98462" lon="5.59975">
        <ele>821</ele>
        <time>2026-05-12T16:54:07Z</time>
      </trkpt>
      <trkpt lat="45.98467" lon="5.59975">
        <ele>821</ele>
        <time>2026-05-12T16:54:08Z</time>
      </trkpt>
      <trkpt lat="45.98471" lon="5.59974">
        <ele>820.4</ele>
        <time>2026-05-12T16:54:09Z</time>
      </trkpt>
      <trkpt lat="45.98475" lon="5.59973">
        <ele>820.6</ele>
        <time>2026-05-12T16:54:10Z</time>
      </trkpt>
      <trkpt lat="45.98479" lon="5.59972">
        <ele>820.6</ele>
        <time>2026-05-12T16:54:11Z</time>
      </trkpt>
      <trkpt lat="45.98482" lon="5.59971">
        <ele>820.6</ele>
        <time>2026-05-12T16:54:12Z</time>
      </trkpt>
      <trkpt lat="45.98485" lon="5.59971">
        <ele>820.6</ele>
        <time>2026-05-12T16:54:13Z</time>
      </trkpt>
      <trkpt lat="45.98488" lon="5.59971">
        <ele>820.8</ele>
        <time>2026-05-12T16:54:14Z</time>
      </trkpt>
      <trkpt lat="45.98491" lon="5.5997">
        <ele>820.8</ele>
        <time>2026-05-12T16:54:15Z</time>
      </trkpt>
      <trkpt lat="45.98495" lon="5.59969">
        <ele>820.8</ele>
        <time>2026-05-12T16:54:16Z</time>
      </trkpt>
      <trkpt lat="45.98498" lon="5.59968">
        <ele>820.8</ele>
        <time>2026-05-12T16:54:17Z</time>
      </trkpt>
      <trkpt lat="45.98501" lon="5.59968">
        <ele>820.8</ele>
        <time>2026-05-12T16:54:18Z</time>
      </trkpt>
      <trkpt lat="45.98504" lon="5.59967">
        <ele>820.8</ele>
        <time>2026-05-12T16:54:19Z</time>
      </trkpt>
      <trkpt lat="45.98508" lon="5.59967">
        <ele>820.8</ele>
        <time>2026-05-12T16:54:20Z</time>
      </trkpt>
      <trkpt lat="45.98511" lon="5.59966">
        <ele>820.8</ele>
        <time>2026-05-12T16:54:21Z</time>
      </trkpt>
      <trkpt lat="45.98514" lon="5.59965">
        <ele>820.8</ele>
        <time>2026-05-12T16:54:22Z</time>
      </trkpt>
      <trkpt lat="45.98517" lon="5.59964">
        <ele>820.8</ele>
        <time>2026-05-12T16:54:23Z</time>
      </trkpt>
      <trkpt lat="45.98521" lon="5.59963">
        <ele>820.8</ele>
        <time>2026-05-12T16:54:24Z</time>
      </trkpt>
      <trkpt lat="45.98524" lon="5.59963">
        <ele>820.8</ele>
        <time>2026-05-12T16:54:25Z</time>
      </trkpt>
      <trkpt lat="45.98527" lon="5.59963">
        <ele>821.2</ele>
        <time>2026-05-12T16:54:26Z</time>
      </trkpt>
      <trkpt lat="45.9853" lon="5.59964">
        <ele>821.2</ele>
        <time>2026-05-12T16:54:27Z</time>
      </trkpt>
      <trkpt lat="45.98532" lon="5.59965">
        <ele>821.6</ele>
        <time>2026-05-12T16:54:28Z</time>
      </trkpt>
      <trkpt lat="45.98535" lon="5.59966">
        <ele>821.6</ele>
        <time>2026-05-12T16:54:29Z</time>
      </trkpt>
      <trkpt lat="45.98538" lon="5.59967">
        <ele>822</ele>
        <time>2026-05-12T16:54:30Z</time>
      </trkpt>
      <trkpt lat="45.9854" lon="5.59968">
        <ele>822</ele>
        <time>2026-05-12T16:54:31Z</time>
      </trkpt>
      <trkpt lat="45.98543" lon="5.59969">
        <ele>822.6</ele>
        <time>2026-05-12T16:54:32Z</time>
      </trkpt>
      <trkpt lat="45.98545" lon="5.5997">
        <ele>822.8</ele>
        <time>2026-05-12T16:54:33Z</time>
      </trkpt>
      <trkpt lat="45.98548" lon="5.59971">
        <ele>823.2</ele>
        <time>2026-05-12T16:54:34Z</time>
      </trkpt>
      <trkpt lat="45.98551" lon="5.59972">
        <ele>823.4</ele>
        <time>2026-05-12T16:54:35Z</time>
      </trkpt>
      <trkpt lat="45.98553" lon="5.59973">
        <ele>823.4</ele>
        <time>2026-05-12T16:54:36Z</time>
      </trkpt>
      <trkpt lat="45.98556" lon="5.59974">
        <ele>823.8</ele>
        <time>2026-05-12T16:54:37Z</time>
      </trkpt>
      <trkpt lat="45.98558" lon="5.59975">
        <ele>824</ele>
        <time>2026-05-12T16:54:38Z</time>
      </trkpt>
      <trkpt lat="45.98561" lon="5.59975">
        <ele>824</ele>
        <time>2026-05-12T16:54:39Z</time>
      </trkpt>
      <trkpt lat="45.98563" lon="5.59976">
        <ele>824.4</ele>
        <time>2026-05-12T16:54:40Z</time>
      </trkpt>
      <trkpt lat="45.98565" lon="5.59976">
        <ele>824.8</ele>
        <time>2026-05-12T16:54:41Z</time>
      </trkpt>
      <trkpt lat="45.98568" lon="5.59977">
        <ele>825</ele>
        <time>2026-05-12T16:54:42Z</time>
      </trkpt>
      <trkpt lat="45.9857" lon="5.59979">
        <ele>825.2</ele>
        <time>2026-05-12T16:54:43Z</time>
      </trkpt>
      <trkpt lat="45.98572" lon="5.5998">
        <ele>825.6</ele>
        <time>2026-05-12T16:54:44Z</time>
      </trkpt>
      <trkpt lat="45.98574" lon="5.59981">
        <ele>826</ele>
        <time>2026-05-12T16:54:45Z</time>
      </trkpt>
      <trkpt lat="45.98576" lon="5.59983">
        <ele>826.4</ele>
        <time>2026-05-12T16:54:46Z</time>
      </trkpt>
      <trkpt lat="45.98579" lon="5.59984">
        <ele>826.8</ele>
        <time>2026-05-12T16:54:47Z</time>
      </trkpt>
      <trkpt lat="45.98581" lon="5.59985">
        <ele>827</ele>
        <time>2026-05-12T16:54:48Z</time>
      </trkpt>
      <trkpt lat="45.98583" lon="5.59987">
        <ele>827</ele>
        <time>2026-05-12T16:54:49Z</time>
      </trkpt>
      <trkpt lat="45.98585" lon="5.59988">
        <ele>827.4</ele>
        <time>2026-05-12T16:54:50Z</time>
      </trkpt>
      <trkpt lat="45.98589" lon="5.59991">
        <ele>827.4</ele>
        <time>2026-05-12T16:54:51Z</time>
      </trkpt>
      <trkpt lat="45.98591" lon="5.59992">
        <ele>827.6</ele>
        <time>2026-05-12T16:54:52Z</time>
      </trkpt>
      <trkpt lat="45.98593" lon="5.59993">
        <ele>827.6</ele>
        <time>2026-05-12T16:54:53Z</time>
      </trkpt>
      <trkpt lat="45.98595" lon="5.59995">
        <ele>827.6</ele>
        <time>2026-05-12T16:54:54Z</time>
      </trkpt>
      <trkpt lat="45.98598" lon="5.59997">
        <ele>827.6</ele>
        <time>2026-05-12T16:54:55Z</time>
      </trkpt>
      <trkpt lat="45.986" lon="5.59998">
        <ele>827.8</ele>
        <time>2026-05-12T16:54:56Z</time>
      </trkpt>
      <trkpt lat="45.98602" lon="5.6">
        <ele>827.8</ele>
        <time>2026-05-12T16:54:57Z</time>
      </trkpt>
      <trkpt lat="45.98604" lon="5.60001">
        <ele>827.8</ele>
        <time>2026-05-12T16:54:58Z</time>
      </trkpt>
      <trkpt lat="45.98607" lon="5.60002">
        <ele>827.8</ele>
        <time>2026-05-12T16:54:59Z</time>
      </trkpt>
      <trkpt lat="45.98609" lon="5.60004">
        <ele>828</ele>
        <time>2026-05-12T16:55:00Z</time>
      </trkpt>
      <trkpt lat="45.98611" lon="5.60005">
        <ele>828</ele>
        <time>2026-05-12T16:55:01Z</time>
      </trkpt>
      <trkpt lat="45.98614" lon="5.60007">
        <ele>828</ele>
        <time>2026-05-12T16:55:02Z</time>
      </trkpt>
      <trkpt lat="45.98616" lon="5.60008">
        <ele>828</ele>
        <time>2026-05-12T16:55:03Z</time>
      </trkpt>
      <trkpt lat="45.98619" lon="5.60009">
        <ele>828.4</ele>
        <time>2026-05-12T16:55:04Z</time>
      </trkpt>
      <trkpt lat="45.98621" lon="5.6001">
        <ele>828.4</ele>
        <time>2026-05-12T16:55:05Z</time>
      </trkpt>
      <trkpt lat="45.98624" lon="5.60011">
        <ele>828.4</ele>
        <time>2026-05-12T16:55:06Z</time>
      </trkpt>
      <trkpt lat="45.98626" lon="5.60012">
        <ele>828.4</ele>
        <time>2026-05-12T16:55:07Z</time>
      </trkpt>
      <trkpt lat="45.98629" lon="5.60014">
        <ele>828.4</ele>
        <time>2026-05-12T16:55:08Z</time>
      </trkpt>
      <trkpt lat="45.98631" lon="5.60014">
        <ele>828.4</ele>
        <time>2026-05-12T16:55:09Z</time>
      </trkpt>
      <trkpt lat="45.98634" lon="5.60015">
        <ele>828.4</ele>
        <time>2026-05-12T16:55:10Z</time>
      </trkpt>
      <trkpt lat="45.98634" lon="5.60015">
        <ele>828.4</ele>
        <time>2026-05-12T16:55:11Z</time>
      </trkpt>
      <trkpt lat="45.98637" lon="5.60016">
        <ele>828.4</ele>
        <time>2026-05-12T16:55:12Z</time>
      </trkpt>
      <trkpt lat="45.9864" lon="5.60017">
        <ele>828.4</ele>
        <time>2026-05-12T16:55:13Z</time>
      </trkpt>
      <trkpt lat="45.98642" lon="5.60018">
        <ele>828</ele>
        <time>2026-05-12T16:55:14Z</time>
      </trkpt>
      <trkpt lat="45.98645" lon="5.6002">
        <ele>828</ele>
        <time>2026-05-12T16:55:15Z</time>
      </trkpt>
      <trkpt lat="45.98648" lon="5.60021">
        <ele>828</ele>
        <time>2026-05-12T16:55:16Z</time>
      </trkpt>
      <trkpt lat="45.98651" lon="5.60023">
        <ele>828</ele>
        <time>2026-05-12T16:55:17Z</time>
      </trkpt>
      <trkpt lat="45.98655" lon="5.60025">
        <ele>827.8</ele>
        <time>2026-05-12T16:55:18Z</time>
      </trkpt>
      <trkpt lat="45.98658" lon="5.60027">
        <ele>827.4</ele>
        <time>2026-05-12T16:55:19Z</time>
      </trkpt>
      <trkpt lat="45.98662" lon="5.60029">
        <ele>827.4</ele>
        <time>2026-05-12T16:55:20Z</time>
      </trkpt>
      <trkpt lat="45.98666" lon="5.60031">
        <ele>827.2</ele>
        <time>2026-05-12T16:55:21Z</time>
      </trkpt>
      <trkpt lat="45.98669" lon="5.60032">
        <ele>827.2</ele>
        <time>2026-05-12T16:55:22Z</time>
      </trkpt>
      <trkpt lat="45.98673" lon="5.60032">
        <ele>827.2</ele>
        <time>2026-05-12T16:55:23Z</time>
      </trkpt>
      <trkpt lat="45.98677" lon="5.60032">
        <ele>827</ele>
        <time>2026-05-12T16:55:24Z</time>
      </trkpt>
      <trkpt lat="45.98681" lon="5.60031">
        <ele>826.6</ele>
        <time>2026-05-12T16:55:25Z</time>
      </trkpt>
      <trkpt lat="45.98686" lon="5.6003">
        <ele>826.6</ele>
        <time>2026-05-12T16:55:26Z</time>
      </trkpt>
      <trkpt lat="45.9869" lon="5.6003">
        <ele>826</ele>
        <time>2026-05-12T16:55:27Z</time>
      </trkpt>
      <trkpt lat="45.98695" lon="5.6003">
        <ele>826</ele>
        <time>2026-05-12T16:55:28Z</time>
      </trkpt>
      <trkpt lat="45.98699" lon="5.60031">
        <ele>825.8</ele>
        <time>2026-05-12T16:55:29Z</time>
      </trkpt>
      <trkpt lat="45.98704" lon="5.60031">
        <ele>825.8</ele>
        <time>2026-05-12T16:55:30Z</time>
      </trkpt>
      <trkpt lat="45.98709" lon="5.60033">
        <ele>825.6</ele>
        <time>2026-05-12T16:55:31Z</time>
      </trkpt>
      <trkpt lat="45.98714" lon="5.60035">
        <ele>825.6</ele>
        <time>2026-05-12T16:55:32Z</time>
      </trkpt>
      <trkpt lat="45.98719" lon="5.60037">
        <ele>825.6</ele>
        <time>2026-05-12T16:55:33Z</time>
      </trkpt>
      <trkpt lat="45.98723" lon="5.6004">
        <ele>825.2</ele>
        <time>2026-05-12T16:55:34Z</time>
      </trkpt>
      <trkpt lat="45.98727" lon="5.60042">
        <ele>825.2</ele>
        <time>2026-05-12T16:55:35Z</time>
      </trkpt>
      <trkpt lat="45.98731" lon="5.60044">
        <ele>825.2</ele>
        <time>2026-05-12T16:55:36Z</time>
      </trkpt>
      <trkpt lat="45.98735" lon="5.60046">
        <ele>825.2</ele>
        <time>2026-05-12T16:55:37Z</time>
      </trkpt>
      <trkpt lat="45.98738" lon="5.60048">
        <ele>825.6</ele>
        <time>2026-05-12T16:55:38Z</time>
      </trkpt>
      <trkpt lat="45.98742" lon="5.60051">
        <ele>825.6</ele>
        <time>2026-05-12T16:55:39Z</time>
      </trkpt>
      <trkpt lat="45.98745" lon="5.60053">
        <ele>825.8</ele>
        <time>2026-05-12T16:55:40Z</time>
      </trkpt>
      <trkpt lat="45.98749" lon="5.60054">
        <ele>825.8</ele>
        <time>2026-05-12T16:55:41Z</time>
      </trkpt>
      <trkpt lat="45.98752" lon="5.60056">
        <ele>826.2</ele>
        <time>2026-05-12T16:55:42Z</time>
      </trkpt>
      <trkpt lat="45.98755" lon="5.60057">
        <ele>826.2</ele>
        <time>2026-05-12T16:55:43Z</time>
      </trkpt>
      <trkpt lat="45.98759" lon="5.60059">
        <ele>826.6</ele>
        <time>2026-05-12T16:55:44Z</time>
      </trkpt>
      <trkpt lat="45.98762" lon="5.6006">
        <ele>827</ele>
        <time>2026-05-12T16:55:45Z</time>
      </trkpt>
      <trkpt lat="45.98765" lon="5.60062">
        <ele>827.2</ele>
        <time>2026-05-12T16:55:46Z</time>
      </trkpt>
      <trkpt lat="45.98769" lon="5.60064">
        <ele>827.2</ele>
        <time>2026-05-12T16:55:47Z</time>
      </trkpt>
      <trkpt lat="45.98772" lon="5.60065">
        <ele>827.6</ele>
        <time>2026-05-12T16:55:48Z</time>
      </trkpt>
      <trkpt lat="45.98775" lon="5.60067">
        <ele>827.6</ele>
        <time>2026-05-12T16:55:49Z</time>
      </trkpt>
      <trkpt lat="45.98777" lon="5.60069">
        <ele>828</ele>
        <time>2026-05-12T16:55:50Z</time>
      </trkpt>
      <trkpt lat="45.9878" lon="5.6007">
        <ele>828.6</ele>
        <time>2026-05-12T16:55:51Z</time>
      </trkpt>
      <trkpt lat="45.98783" lon="5.60072">
        <ele>828.6</ele>
        <time>2026-05-12T16:55:52Z</time>
      </trkpt>
      <trkpt lat="45.98786" lon="5.60074">
        <ele>829</ele>
        <time>2026-05-12T16:55:53Z</time>
      </trkpt>
      <trkpt lat="45.98789" lon="5.60075">
        <ele>829</ele>
        <time>2026-05-12T16:55:54Z</time>
      </trkpt>
      <trkpt lat="45.98792" lon="5.60077">
        <ele>829.2</ele>
        <time>2026-05-12T16:55:55Z</time>
      </trkpt>
      <trkpt lat="45.98794" lon="5.60078">
        <ele>829.2</ele>
        <time>2026-05-12T16:55:56Z</time>
      </trkpt>
      <trkpt lat="45.98797" lon="5.6008">
        <ele>829.4</ele>
        <time>2026-05-12T16:55:57Z</time>
      </trkpt>
      <trkpt lat="45.98799" lon="5.60081">
        <ele>829.6</ele>
        <time>2026-05-12T16:55:58Z</time>
      </trkpt>
      <trkpt lat="45.98802" lon="5.60082">
        <ele>829.6</ele>
        <time>2026-05-12T16:55:59Z</time>
      </trkpt>
      <trkpt lat="45.98804" lon="5.60082">
        <ele>830</ele>
        <time>2026-05-12T16:56:00Z</time>
      </trkpt>
      <trkpt lat="45.98807" lon="5.60084">
        <ele>830</ele>
        <time>2026-05-12T16:56:01Z</time>
      </trkpt>
      <trkpt lat="45.98809" lon="5.60085">
        <ele>830.4</ele>
        <time>2026-05-12T16:56:02Z</time>
      </trkpt>
      <trkpt lat="45.98812" lon="5.60086">
        <ele>830.6</ele>
        <time>2026-05-12T16:56:03Z</time>
      </trkpt>
      <trkpt lat="45.98814" lon="5.60087">
        <ele>830.8</ele>
        <time>2026-05-12T16:56:04Z</time>
      </trkpt>
      <trkpt lat="45.98816" lon="5.60088">
        <ele>831.2</ele>
        <time>2026-05-12T16:56:05Z</time>
      </trkpt>
      <trkpt lat="45.98819" lon="5.60088">
        <ele>831.2</ele>
        <time>2026-05-12T16:56:06Z</time>
      </trkpt>
      <trkpt lat="45.98822" lon="5.60089">
        <ele>831.4</ele>
        <time>2026-05-12T16:56:07Z</time>
      </trkpt>
      <trkpt lat="45.98824" lon="5.6009">
        <ele>831.6</ele>
        <time>2026-05-12T16:56:08Z</time>
      </trkpt>
      <trkpt lat="45.98827" lon="5.60091">
        <ele>831.8</ele>
        <time>2026-05-12T16:56:09Z</time>
      </trkpt>
      <trkpt lat="45.9883" lon="5.60093">
        <ele>831.8</ele>
        <time>2026-05-12T16:56:10Z</time>
      </trkpt>
      <trkpt lat="45.98832" lon="5.60094">
        <ele>832</ele>
        <time>2026-05-12T16:56:11Z</time>
      </trkpt>
      <trkpt lat="45.98835" lon="5.60095">
        <ele>832</ele>
        <time>2026-05-12T16:56:12Z</time>
      </trkpt>
      <trkpt lat="45.98838" lon="5.60097">
        <ele>832</ele>
        <time>2026-05-12T16:56:13Z</time>
      </trkpt>
      <trkpt lat="45.98841" lon="5.60098">
        <ele>832</ele>
        <time>2026-05-12T16:56:14Z</time>
      </trkpt>
      <trkpt lat="45.98844" lon="5.60098">
        <ele>832</ele>
        <time>2026-05-12T16:56:15Z</time>
      </trkpt>
      <trkpt lat="45.98848" lon="5.60099">
        <ele>832</ele>
        <time>2026-05-12T16:56:16Z</time>
      </trkpt>
      <trkpt lat="45.98852" lon="5.60099">
        <ele>832</ele>
        <time>2026-05-12T16:56:17Z</time>
      </trkpt>
      <trkpt lat="45.98855" lon="5.601">
        <ele>832</ele>
        <time>2026-05-12T16:56:18Z</time>
      </trkpt>
      <trkpt lat="45.98859" lon="5.60101">
        <ele>832</ele>
        <time>2026-05-12T16:56:19Z</time>
      </trkpt>
      <trkpt lat="45.98862" lon="5.60102">
        <ele>832</ele>
        <time>2026-05-12T16:56:20Z</time>
      </trkpt>
      <trkpt lat="45.98865" lon="5.60102">
        <ele>832</ele>
        <time>2026-05-12T16:56:21Z</time>
      </trkpt>
      <trkpt lat="45.98869" lon="5.60102">
        <ele>832</ele>
        <time>2026-05-12T16:56:22Z</time>
      </trkpt>
      <trkpt lat="45.98872" lon="5.60101">
        <ele>832</ele>
        <time>2026-05-12T16:56:23Z</time>
      </trkpt>
      <trkpt lat="45.98876" lon="5.601">
        <ele>832</ele>
        <time>2026-05-12T16:56:24Z</time>
      </trkpt>
      <trkpt lat="45.98879" lon="5.60099">
        <ele>831.8</ele>
        <time>2026-05-12T16:56:25Z</time>
      </trkpt>
      <trkpt lat="45.98883" lon="5.60096">
        <ele>831.4</ele>
        <time>2026-05-12T16:56:26Z</time>
      </trkpt>
      <trkpt lat="45.98885" lon="5.60092">
        <ele>831.4</ele>
        <time>2026-05-12T16:56:27Z</time>
      </trkpt>
      <trkpt lat="45.98886" lon="5.60087">
        <ele>830.8</ele>
        <time>2026-05-12T16:56:28Z</time>
      </trkpt>
      <trkpt lat="45.98887" lon="5.60081">
        <ele>830.8</ele>
        <time>2026-05-12T16:56:29Z</time>
      </trkpt>
      <trkpt lat="45.98887" lon="5.60074">
        <ele>830.8</ele>
        <time>2026-05-12T16:56:30Z</time>
      </trkpt>
      <trkpt lat="45.98888" lon="5.60068">
        <ele>830.6</ele>
        <time>2026-05-12T16:56:31Z</time>
      </trkpt>
      <trkpt lat="45.98889" lon="5.60062">
        <ele>830.4</ele>
        <time>2026-05-12T16:56:32Z</time>
      </trkpt>
      <trkpt lat="45.9889" lon="5.60055">
        <ele>830.2</ele>
        <time>2026-05-12T16:56:33Z</time>
      </trkpt>
      <trkpt lat="45.98892" lon="5.60048">
        <ele>830</ele>
        <time>2026-05-12T16:56:34Z</time>
      </trkpt>
      <trkpt lat="45.98896" lon="5.60041">
        <ele>829.4</ele>
        <time>2026-05-12T16:56:35Z</time>
      </trkpt>
      <trkpt lat="45.989" lon="5.60035">
        <ele>828.6</ele>
        <time>2026-05-12T16:56:36Z</time>
      </trkpt>
      <trkpt lat="45.98904" lon="5.6003">
        <ele>828.6</ele>
        <time>2026-05-12T16:56:37Z</time>
      </trkpt>
      <trkpt lat="45.98909" lon="5.60024">
        <ele>828.4</ele>
        <time>2026-05-12T16:56:38Z</time>
      </trkpt>
      <trkpt lat="45.98914" lon="5.60018">
        <ele>827.8</ele>
        <time>2026-05-12T16:56:39Z</time>
      </trkpt>
      <trkpt lat="45.98919" lon="5.60011">
        <ele>827.4</ele>
        <time>2026-05-12T16:56:40Z</time>
      </trkpt>
      <trkpt lat="45.98924" lon="5.60004">
        <ele>827</ele>
        <time>2026-05-12T16:56:41Z</time>
      </trkpt>
      <trkpt lat="45.98929" lon="5.59997">
        <ele>826.4</ele>
        <time>2026-05-12T16:56:42Z</time>
      </trkpt>
      <trkpt lat="45.98935" lon="5.59989">
        <ele>826</ele>
        <time>2026-05-12T16:56:43Z</time>
      </trkpt>
      <trkpt lat="45.98939" lon="5.59982">
        <ele>825.6</ele>
        <time>2026-05-12T16:56:44Z</time>
      </trkpt>
      <trkpt lat="45.98944" lon="5.59974">
        <ele>825.6</ele>
        <time>2026-05-12T16:56:45Z</time>
      </trkpt>
      <trkpt lat="45.9895" lon="5.59966">
        <ele>825.4</ele>
        <time>2026-05-12T16:56:46Z</time>
      </trkpt>
      <trkpt lat="45.98955" lon="5.59958">
        <ele>825</ele>
        <time>2026-05-12T16:56:47Z</time>
      </trkpt>
      <trkpt lat="45.98961" lon="5.5995">
        <ele>825</ele>
        <time>2026-05-12T16:56:48Z</time>
      </trkpt>
      <trkpt lat="45.98966" lon="5.59943">
        <ele>824.4</ele>
        <time>2026-05-12T16:56:49Z</time>
      </trkpt>
      <trkpt lat="45.98971" lon="5.59935">
        <ele>823.8</ele>
        <time>2026-05-12T16:56:50Z</time>
      </trkpt>
      <trkpt lat="45.98977" lon="5.59927">
        <ele>823.8</ele>
        <time>2026-05-12T16:56:51Z</time>
      </trkpt>
      <trkpt lat="45.98983" lon="5.59918">
        <ele>823</ele>
        <time>2026-05-12T16:56:52Z</time>
      </trkpt>
      <trkpt lat="45.9899" lon="5.59911">
        <ele>822.6</ele>
        <time>2026-05-12T16:56:53Z</time>
      </trkpt>
      <trkpt lat="45.98997" lon="5.59905">
        <ele>821.8</ele>
        <time>2026-05-12T16:56:54Z</time>
      </trkpt>
      <trkpt lat="45.99005" lon="5.599">
        <ele>821.6</ele>
        <time>2026-05-12T16:56:55Z</time>
      </trkpt>
      <trkpt lat="45.99012" lon="5.59895">
        <ele>821.6</ele>
        <time>2026-05-12T16:56:56Z</time>
      </trkpt>
      <trkpt lat="45.99019" lon="5.5989">
        <ele>821.6</ele>
        <time>2026-05-12T16:56:57Z</time>
      </trkpt>
      <trkpt lat="45.99026" lon="5.59885">
        <ele>821.6</ele>
        <time>2026-05-12T16:56:58Z</time>
      </trkpt>
      <trkpt lat="45.99033" lon="5.59881">
        <ele>821.6</ele>
        <time>2026-05-12T16:56:59Z</time>
      </trkpt>
      <trkpt lat="45.99039" lon="5.59877">
        <ele>821.4</ele>
        <time>2026-05-12T16:57:00Z</time>
      </trkpt>
      <trkpt lat="45.99046" lon="5.59874">
        <ele>821.4</ele>
        <time>2026-05-12T16:57:01Z</time>
      </trkpt>
      <trkpt lat="45.99052" lon="5.59871">
        <ele>821.6</ele>
        <time>2026-05-12T16:57:02Z</time>
      </trkpt>
      <trkpt lat="45.99058" lon="5.59867">
        <ele>822.6</ele>
        <time>2026-05-12T16:57:03Z</time>
      </trkpt>
      <trkpt lat="45.99064" lon="5.59864">
        <ele>823</ele>
        <time>2026-05-12T16:57:04Z</time>
      </trkpt>
      <trkpt lat="45.9907" lon="5.59862">
        <ele>823</ele>
        <time>2026-05-12T16:57:05Z</time>
      </trkpt>
      <trkpt lat="45.99075" lon="5.59859">
        <ele>823</ele>
        <time>2026-05-12T16:57:06Z</time>
      </trkpt>
      <trkpt lat="45.9908" lon="5.59857">
        <ele>823.4</ele>
        <time>2026-05-12T16:57:07Z</time>
      </trkpt>
      <trkpt lat="45.99085" lon="5.59856">
        <ele>823.4</ele>
        <time>2026-05-12T16:57:08Z</time>
      </trkpt>
      <trkpt lat="45.99091" lon="5.59855">
        <ele>824</ele>
        <time>2026-05-12T16:57:09Z</time>
      </trkpt>
      <trkpt lat="45.99096" lon="5.59853">
        <ele>824.4</ele>
        <time>2026-05-12T16:57:10Z</time>
      </trkpt>
      <trkpt lat="45.99101" lon="5.59853">
        <ele>825</ele>
        <time>2026-05-12T16:57:11Z</time>
      </trkpt>
      <trkpt lat="45.99104" lon="5.59852">
        <ele>825.2</ele>
        <time>2026-05-12T16:57:12Z</time>
      </trkpt>
      <trkpt lat="45.99106" lon="5.59851">
        <ele>825.6</ele>
        <time>2026-05-12T16:57:13Z</time>
      </trkpt>
      <trkpt lat="45.99109" lon="5.59851">
        <ele>825.8</ele>
        <time>2026-05-12T16:57:14Z</time>
      </trkpt>
      <trkpt lat="45.9911" lon="5.59852">
        <ele>826.2</ele>
        <time>2026-05-12T16:57:15Z</time>
      </trkpt>
      <trkpt lat="45.99111" lon="5.59852">
        <ele>826.2</ele>
        <time>2026-05-12T16:57:16Z</time>
      </trkpt>
      <trkpt lat="45.99112" lon="5.59852">
        <ele>826.6</ele>
        <time>2026-05-12T16:57:17Z</time>
      </trkpt>
      <trkpt lat="45.99113" lon="5.59853">
        <ele>826.8</ele>
        <time>2026-05-12T16:57:18Z</time>
      </trkpt>
      <trkpt lat="45.99115" lon="5.59854">
        <ele>826.8</ele>
        <time>2026-05-12T16:57:19Z</time>
      </trkpt>
      <trkpt lat="45.99118" lon="5.59856">
        <ele>826.8</ele>
        <time>2026-05-12T16:57:20Z</time>
      </trkpt>
      <trkpt lat="45.99121" lon="5.59857">
        <ele>826.8</ele>
        <time>2026-05-12T16:57:21Z</time>
      </trkpt>
      <trkpt lat="45.99124" lon="5.59858">
        <ele>826.8</ele>
        <time>2026-05-12T16:57:22Z</time>
      </trkpt>
      <trkpt lat="45.99127" lon="5.59858">
        <ele>826.8</ele>
        <time>2026-05-12T16:57:23Z</time>
      </trkpt>
      <trkpt lat="45.9913" lon="5.59858">
        <ele>827</ele>
        <time>2026-05-12T16:57:24Z</time>
      </trkpt>
      <trkpt lat="45.99133" lon="5.59857">
        <ele>827</ele>
        <time>2026-05-12T16:57:25Z</time>
      </trkpt>
      <trkpt lat="45.99136" lon="5.59857">
        <ele>827.2</ele>
        <time>2026-05-12T16:57:26Z</time>
      </trkpt>
      <trkpt lat="45.99138" lon="5.59857">
        <ele>827.6</ele>
        <time>2026-05-12T16:57:27Z</time>
      </trkpt>
      <trkpt lat="45.99141" lon="5.59856">
        <ele>827.8</ele>
        <time>2026-05-12T16:57:28Z</time>
      </trkpt>
      <trkpt lat="45.99143" lon="5.59856">
        <ele>828</ele>
        <time>2026-05-12T16:57:29Z</time>
      </trkpt>
      <trkpt lat="45.99146" lon="5.59856">
        <ele>828.2</ele>
        <time>2026-05-12T16:57:30Z</time>
      </trkpt>
      <trkpt lat="45.99148" lon="5.59856">
        <ele>828.2</ele>
        <time>2026-05-12T16:57:31Z</time>
      </trkpt>
      <trkpt lat="45.99151" lon="5.59856">
        <ele>828.6</ele>
        <time>2026-05-12T16:57:32Z</time>
      </trkpt>
      <trkpt lat="45.99153" lon="5.59856">
        <ele>828.6</ele>
        <time>2026-05-12T16:57:33Z</time>
      </trkpt>
      <trkpt lat="45.99156" lon="5.59855">
        <ele>829</ele>
        <time>2026-05-12T16:57:34Z</time>
      </trkpt>
      <trkpt lat="45.99159" lon="5.59855">
        <ele>829</ele>
        <time>2026-05-12T16:57:35Z</time>
      </trkpt>
      <trkpt lat="45.99162" lon="5.59854">
        <ele>829.6</ele>
        <time>2026-05-12T16:57:36Z</time>
      </trkpt>
      <trkpt lat="45.99164" lon="5.59854">
        <ele>829.8</ele>
        <time>2026-05-12T16:57:37Z</time>
      </trkpt>
      <trkpt lat="45.99167" lon="5.59854">
        <ele>830</ele>
        <time>2026-05-12T16:57:38Z</time>
      </trkpt>
      <trkpt lat="45.9917" lon="5.59854">
        <ele>830</ele>
        <time>2026-05-12T16:57:39Z</time>
      </trkpt>
      <trkpt lat="45.99172" lon="5.59854">
        <ele>830</ele>
        <time>2026-05-12T16:57:40Z</time>
      </trkpt>
      <trkpt lat="45.99175" lon="5.59855">
        <ele>830</ele>
        <time>2026-05-12T16:57:41Z</time>
      </trkpt>
      <trkpt lat="45.99178" lon="5.59855">
        <ele>830.2</ele>
        <time>2026-05-12T16:57:42Z</time>
      </trkpt>
      <trkpt lat="45.99181" lon="5.59854">
        <ele>830.2</ele>
        <time>2026-05-12T16:57:43Z</time>
      </trkpt>
      <trkpt lat="45.99183" lon="5.59854">
        <ele>830.2</ele>
        <time>2026-05-12T16:57:44Z</time>
      </trkpt>
      <trkpt lat="45.99186" lon="5.59854">
        <ele>830.8</ele>
        <time>2026-05-12T16:57:45Z</time>
      </trkpt>
      <trkpt lat="45.99189" lon="5.59853">
        <ele>831</ele>
        <time>2026-05-12T16:57:46Z</time>
      </trkpt>
      <trkpt lat="45.99191" lon="5.59853">
        <ele>831</ele>
        <time>2026-05-12T16:57:47Z</time>
      </trkpt>
      <trkpt lat="45.99194" lon="5.59852">
        <ele>831</ele>
        <time>2026-05-12T16:57:48Z</time>
      </trkpt>
      <trkpt lat="45.99197" lon="5.59852">
        <ele>831.4</ele>
        <time>2026-05-12T16:57:49Z</time>
      </trkpt>
      <trkpt lat="45.992" lon="5.59852">
        <ele>831.6</ele>
        <time>2026-05-12T16:57:50Z</time>
      </trkpt>
      <trkpt lat="45.99203" lon="5.59851">
        <ele>831.6</ele>
        <time>2026-05-12T16:57:51Z</time>
      </trkpt>
      <trkpt lat="45.99206" lon="5.59851">
        <ele>832</ele>
        <time>2026-05-12T16:57:52Z</time>
      </trkpt>
      <trkpt lat="45.99208" lon="5.5985">
        <ele>832</ele>
        <time>2026-05-12T16:57:53Z</time>
      </trkpt>
      <trkpt lat="45.99211" lon="5.5985">
        <ele>832.2</ele>
        <time>2026-05-12T16:57:54Z</time>
      </trkpt>
      <trkpt lat="45.99214" lon="5.59849">
        <ele>832.4</ele>
        <time>2026-05-12T16:57:55Z</time>
      </trkpt>
      <trkpt lat="45.99216" lon="5.59848">
        <ele>832.6</ele>
        <time>2026-05-12T16:57:56Z</time>
      </trkpt>
      <trkpt lat="45.99219" lon="5.59848">
        <ele>832.6</ele>
        <time>2026-05-12T16:57:57Z</time>
      </trkpt>
      <trkpt lat="45.99221" lon="5.59847">
        <ele>833</ele>
        <time>2026-05-12T16:57:58Z</time>
      </trkpt>
      <trkpt lat="45.99224" lon="5.59847">
        <ele>833.2</ele>
        <time>2026-05-12T16:57:59Z</time>
      </trkpt>
      <trkpt lat="45.99226" lon="5.59846">
        <ele>833.4</ele>
        <time>2026-05-12T16:58:00Z</time>
      </trkpt>
      <trkpt lat="45.99229" lon="5.59846">
        <ele>833.4</ele>
        <time>2026-05-12T16:58:01Z</time>
      </trkpt>
      <trkpt lat="45.99235" lon="5.59845">
        <ele>833.4</ele>
        <time>2026-05-12T16:58:02Z</time>
      </trkpt>
      <trkpt lat="45.99238" lon="5.59845">
        <ele>833.6</ele>
        <time>2026-05-12T16:58:03Z</time>
      </trkpt>
      <trkpt lat="45.99241" lon="5.59844">
        <ele>833.6</ele>
        <time>2026-05-12T16:58:04Z</time>
      </trkpt>
      <trkpt lat="45.99244" lon="5.59843">
        <ele>833.6</ele>
        <time>2026-05-12T16:58:05Z</time>
      </trkpt>
      <trkpt lat="45.99248" lon="5.59842">
        <ele>833.6</ele>
        <time>2026-05-12T16:58:06Z</time>
      </trkpt>
      <trkpt lat="45.99251" lon="5.59841">
        <ele>833.8</ele>
        <time>2026-05-12T16:58:07Z</time>
      </trkpt>
      <trkpt lat="45.99254" lon="5.59841">
        <ele>834.2</ele>
        <time>2026-05-12T16:58:08Z</time>
      </trkpt>
      <trkpt lat="45.99257" lon="5.5984">
        <ele>834.2</ele>
        <time>2026-05-12T16:58:09Z</time>
      </trkpt>
      <trkpt lat="45.9926" lon="5.5984">
        <ele>834.2</ele>
        <time>2026-05-12T16:58:10Z</time>
      </trkpt>
      <trkpt lat="45.99263" lon="5.59839">
        <ele>834.4</ele>
        <time>2026-05-12T16:58:11Z</time>
      </trkpt>
      <trkpt lat="45.99263" lon="5.59839">
        <ele>834.4</ele>
        <time>2026-05-12T16:58:12Z</time>
      </trkpt>
      <trkpt lat="45.99266" lon="5.59838">
        <ele>834.8</ele>
        <time>2026-05-12T16:58:13Z</time>
      </trkpt>
      <trkpt lat="45.99269" lon="5.59837">
        <ele>834.8</ele>
        <time>2026-05-12T16:58:14Z</time>
      </trkpt>
      <trkpt lat="45.99272" lon="5.59837">
        <ele>835.2</ele>
        <time>2026-05-12T16:58:15Z</time>
      </trkpt>
      <trkpt lat="45.99275" lon="5.59837">
        <ele>835.2</ele>
        <time>2026-05-12T16:58:16Z</time>
      </trkpt>
      <trkpt lat="45.99278" lon="5.59836">
        <ele>835.4</ele>
        <time>2026-05-12T16:58:17Z</time>
      </trkpt>
      <trkpt lat="45.99281" lon="5.59835">
        <ele>835.4</ele>
        <time>2026-05-12T16:58:18Z</time>
      </trkpt>
      <trkpt lat="45.99283" lon="5.59834">
        <ele>835.8</ele>
        <time>2026-05-12T16:58:19Z</time>
      </trkpt>
      <trkpt lat="45.99286" lon="5.59834">
        <ele>835.8</ele>
        <time>2026-05-12T16:58:20Z</time>
      </trkpt>
      <trkpt lat="45.99289" lon="5.59833">
        <ele>835.8</ele>
        <time>2026-05-12T16:58:21Z</time>
      </trkpt>
      <trkpt lat="45.99292" lon="5.59832">
        <ele>836</ele>
        <time>2026-05-12T16:58:22Z</time>
      </trkpt>
      <trkpt lat="45.99295" lon="5.59831">
        <ele>836.2</ele>
        <time>2026-05-12T16:58:23Z</time>
      </trkpt>
      <trkpt lat="45.99297" lon="5.59829">
        <ele>836.2</ele>
        <time>2026-05-12T16:58:24Z</time>
      </trkpt>
      <trkpt lat="45.993" lon="5.59829">
        <ele>836.4</ele>
        <time>2026-05-12T16:58:25Z</time>
      </trkpt>
      <trkpt lat="45.99303" lon="5.59828">
        <ele>836.4</ele>
        <time>2026-05-12T16:58:26Z</time>
      </trkpt>
      <trkpt lat="45.99306" lon="5.59827">
        <ele>836.4</ele>
        <time>2026-05-12T16:58:27Z</time>
      </trkpt>
      <trkpt lat="45.99308" lon="5.59827">
        <ele>836.4</ele>
        <time>2026-05-12T16:58:28Z</time>
      </trkpt>
      <trkpt lat="45.99311" lon="5.59826">
        <ele>836.4</ele>
        <time>2026-05-12T16:58:29Z</time>
      </trkpt>
      <trkpt lat="45.99314" lon="5.59826">
        <ele>836.8</ele>
        <time>2026-05-12T16:58:30Z</time>
      </trkpt>
      <trkpt lat="45.99317" lon="5.59825">
        <ele>836.8</ele>
        <time>2026-05-12T16:58:31Z</time>
      </trkpt>
      <trkpt lat="45.9932" lon="5.59825">
        <ele>836.8</ele>
        <time>2026-05-12T16:58:32Z</time>
      </trkpt>
      <trkpt lat="45.99323" lon="5.59824">
        <ele>837.2</ele>
        <time>2026-05-12T16:58:33Z</time>
      </trkpt>
      <trkpt lat="45.99325" lon="5.59823">
        <ele>837.2</ele>
        <time>2026-05-12T16:58:34Z</time>
      </trkpt>
      <trkpt lat="45.99328" lon="5.59823">
        <ele>837.2</ele>
        <time>2026-05-12T16:58:35Z</time>
      </trkpt>
      <trkpt lat="45.99331" lon="5.59823">
        <ele>837.2</ele>
        <time>2026-05-12T16:58:36Z</time>
      </trkpt>
      <trkpt lat="45.99334" lon="5.59823">
        <ele>837.2</ele>
        <time>2026-05-12T16:58:37Z</time>
      </trkpt>
      <trkpt lat="45.99337" lon="5.59823">
        <ele>837.2</ele>
        <time>2026-05-12T16:58:38Z</time>
      </trkpt>
      <trkpt lat="45.9934" lon="5.59823">
        <ele>837.4</ele>
        <time>2026-05-12T16:58:39Z</time>
      </trkpt>
      <trkpt lat="45.99343" lon="5.59822">
        <ele>837.4</ele>
        <time>2026-05-12T16:58:40Z</time>
      </trkpt>
      <trkpt lat="45.99346" lon="5.59822">
        <ele>837.4</ele>
        <time>2026-05-12T16:58:41Z</time>
      </trkpt>
      <trkpt lat="45.99348" lon="5.59821">
        <ele>837.6</ele>
        <time>2026-05-12T16:58:42Z</time>
      </trkpt>
      <trkpt lat="45.99351" lon="5.59821">
        <ele>837.8</ele>
        <time>2026-05-12T16:58:43Z</time>
      </trkpt>
      <trkpt lat="45.99354" lon="5.5982">
        <ele>838</ele>
        <time>2026-05-12T16:58:44Z</time>
      </trkpt>
      <trkpt lat="45.99357" lon="5.59819">
        <ele>838</ele>
        <time>2026-05-12T16:58:45Z</time>
      </trkpt>
      <trkpt lat="45.9936" lon="5.59819">
        <ele>838</ele>
        <time>2026-05-12T16:58:46Z</time>
      </trkpt>
      <trkpt lat="45.99363" lon="5.59819">
        <ele>838</ele>
        <time>2026-05-12T16:58:47Z</time>
      </trkpt>
      <trkpt lat="45.99365" lon="5.59819">
        <ele>838</ele>
        <time>2026-05-12T16:58:48Z</time>
      </trkpt>
      <trkpt lat="45.99368" lon="5.59819">
        <ele>838</ele>
        <time>2026-05-12T16:58:49Z</time>
      </trkpt>
      <trkpt lat="45.99371" lon="5.59819">
        <ele>838</ele>
        <time>2026-05-12T16:58:50Z</time>
      </trkpt>
      <trkpt lat="45.99373" lon="5.5982">
        <ele>838.4</ele>
        <time>2026-05-12T16:58:51Z</time>
      </trkpt>
      <trkpt lat="45.99376" lon="5.5982">
        <ele>838.4</ele>
        <time>2026-05-12T16:58:52Z</time>
      </trkpt>
      <trkpt lat="45.99377" lon="5.5982">
        <ele>838.4</ele>
        <time>2026-05-12T16:58:53Z</time>
      </trkpt>
      <trkpt lat="45.9938" lon="5.5982">
        <ele>838.6</ele>
        <time>2026-05-12T16:58:54Z</time>
      </trkpt>
      <trkpt lat="45.99382" lon="5.5982">
        <ele>838.6</ele>
        <time>2026-05-12T16:58:55Z</time>
      </trkpt>
      <trkpt lat="45.99385" lon="5.59821">
        <ele>838.6</ele>
        <time>2026-05-12T16:58:56Z</time>
      </trkpt>
      <trkpt lat="45.99388" lon="5.59821">
        <ele>838.6</ele>
        <time>2026-05-12T16:58:57Z</time>
      </trkpt>
      <trkpt lat="45.99391" lon="5.59821">
        <ele>838.6</ele>
        <time>2026-05-12T16:58:58Z</time>
      </trkpt>
      <trkpt lat="45.99393" lon="5.59821">
        <ele>838.8</ele>
        <time>2026-05-12T16:58:59Z</time>
      </trkpt>
      <trkpt lat="45.99396" lon="5.59821">
        <ele>839.2</ele>
        <time>2026-05-12T16:59:00Z</time>
      </trkpt>
      <trkpt lat="45.99398" lon="5.59822">
        <ele>839.4</ele>
        <time>2026-05-12T16:59:01Z</time>
      </trkpt>
      <trkpt lat="45.99401" lon="5.59823">
        <ele>839.4</ele>
        <time>2026-05-12T16:59:02Z</time>
      </trkpt>
      <trkpt lat="45.99404" lon="5.59823">
        <ele>839.4</ele>
        <time>2026-05-12T16:59:03Z</time>
      </trkpt>
      <trkpt lat="45.99407" lon="5.59823">
        <ele>839.6</ele>
        <time>2026-05-12T16:59:04Z</time>
      </trkpt>
      <trkpt lat="45.9941" lon="5.59823">
        <ele>839.6</ele>
        <time>2026-05-12T16:59:05Z</time>
      </trkpt>
      <trkpt lat="45.99413" lon="5.59823">
        <ele>840</ele>
        <time>2026-05-12T16:59:06Z</time>
      </trkpt>
      <trkpt lat="45.99415" lon="5.59823">
        <ele>840.2</ele>
        <time>2026-05-12T16:59:07Z</time>
      </trkpt>
      <trkpt lat="45.99418" lon="5.59822">
        <ele>840.4</ele>
        <time>2026-05-12T16:59:08Z</time>
      </trkpt>
      <trkpt lat="45.99421" lon="5.59822">
        <ele>840.4</ele>
        <time>2026-05-12T16:59:09Z</time>
      </trkpt>
      <trkpt lat="45.99424" lon="5.59821">
        <ele>840.6</ele>
        <time>2026-05-12T16:59:10Z</time>
      </trkpt>
      <trkpt lat="45.99427" lon="5.59821">
        <ele>841</ele>
        <time>2026-05-12T16:59:11Z</time>
      </trkpt>
      <trkpt lat="45.9943" lon="5.5982">
        <ele>841</ele>
        <time>2026-05-12T16:59:12Z</time>
      </trkpt>
      <trkpt lat="45.99433" lon="5.5982">
        <ele>841</ele>
        <time>2026-05-12T16:59:13Z</time>
      </trkpt>
      <trkpt lat="45.99436" lon="5.5982">
        <ele>841</ele>
        <time>2026-05-12T16:59:14Z</time>
      </trkpt>
      <trkpt lat="45.99439" lon="5.5982">
        <ele>841.4</ele>
        <time>2026-05-12T16:59:15Z</time>
      </trkpt>
      <trkpt lat="45.99441" lon="5.5982">
        <ele>841.8</ele>
        <time>2026-05-12T16:59:16Z</time>
      </trkpt>
      <trkpt lat="45.99444" lon="5.5982">
        <ele>842</ele>
        <time>2026-05-12T16:59:17Z</time>
      </trkpt>
      <trkpt lat="45.99447" lon="5.59818">
        <ele>842</ele>
        <time>2026-05-12T16:59:18Z</time>
      </trkpt>
      <trkpt lat="45.99449" lon="5.59817">
        <ele>842</ele>
        <time>2026-05-12T16:59:19Z</time>
      </trkpt>
      <trkpt lat="45.99451" lon="5.59816">
        <ele>842</ele>
        <time>2026-05-12T16:59:20Z</time>
      </trkpt>
      <trkpt lat="45.99453" lon="5.59816">
        <ele>842.2</ele>
        <time>2026-05-12T16:59:21Z</time>
      </trkpt>
      <trkpt lat="45.99455" lon="5.59816">
        <ele>842.2</ele>
        <time>2026-05-12T16:59:22Z</time>
      </trkpt>
      <trkpt lat="45.99457" lon="5.59816">
        <ele>842.6</ele>
        <time>2026-05-12T16:59:23Z</time>
      </trkpt>
      <trkpt lat="45.9946" lon="5.59816">
        <ele>842.6</ele>
        <time>2026-05-12T16:59:24Z</time>
      </trkpt>
      <trkpt lat="45.99463" lon="5.59817">
        <ele>842.8</ele>
        <time>2026-05-12T16:59:25Z</time>
      </trkpt>
      <trkpt lat="45.99466" lon="5.59819">
        <ele>842.8</ele>
        <time>2026-05-12T16:59:26Z</time>
      </trkpt>
      <trkpt lat="45.99468" lon="5.5982">
        <ele>842.8</ele>
        <time>2026-05-12T16:59:27Z</time>
      </trkpt>
      <trkpt lat="45.99471" lon="5.59823">
        <ele>843</ele>
        <time>2026-05-12T16:59:28Z</time>
      </trkpt>
      <trkpt lat="45.99473" lon="5.59824">
        <ele>843.4</ele>
        <time>2026-05-12T16:59:29Z</time>
      </trkpt>
      <trkpt lat="45.99475" lon="5.59825">
        <ele>843.4</ele>
        <time>2026-05-12T16:59:30Z</time>
      </trkpt>
      <trkpt lat="45.99477" lon="5.59826">
        <ele>843.6</ele>
        <time>2026-05-12T16:59:31Z</time>
      </trkpt>
      <trkpt lat="45.99479" lon="5.59827">
        <ele>843.6</ele>
        <time>2026-05-12T16:59:32Z</time>
      </trkpt>
      <trkpt lat="45.99482" lon="5.59829">
        <ele>843.8</ele>
        <time>2026-05-12T16:59:33Z</time>
      </trkpt>
      <trkpt lat="45.99485" lon="5.59831">
        <ele>843.8</ele>
        <time>2026-05-12T16:59:34Z</time>
      </trkpt>
      <trkpt lat="45.99488" lon="5.59832">
        <ele>843.8</ele>
        <time>2026-05-12T16:59:35Z</time>
      </trkpt>
      <trkpt lat="45.9949" lon="5.59833">
        <ele>843.8</ele>
        <time>2026-05-12T16:59:36Z</time>
      </trkpt>
      <trkpt lat="45.99491" lon="5.59834">
        <ele>844</ele>
        <time>2026-05-12T16:59:37Z</time>
      </trkpt>
      <trkpt lat="45.99493" lon="5.59836">
        <ele>844</ele>
        <time>2026-05-12T16:59:38Z</time>
      </trkpt>
      <trkpt lat="45.99494" lon="5.59838">
        <ele>844</ele>
        <time>2026-05-12T16:59:39Z</time>
      </trkpt>
      <trkpt lat="45.99496" lon="5.59839">
        <ele>844</ele>
        <time>2026-05-12T16:59:40Z</time>
      </trkpt>
      <trkpt lat="45.99499" lon="5.59841">
        <ele>844</ele>
        <time>2026-05-12T16:59:41Z</time>
      </trkpt>
      <trkpt lat="45.99501" lon="5.59842">
        <ele>844.4</ele>
        <time>2026-05-12T16:59:42Z</time>
      </trkpt>
      <trkpt lat="45.99504" lon="5.59844">
        <ele>844.6</ele>
        <time>2026-05-12T16:59:43Z</time>
      </trkpt>
      <trkpt lat="45.99507" lon="5.59845">
        <ele>844.8</ele>
        <time>2026-05-12T16:59:44Z</time>
      </trkpt>
      <trkpt lat="45.9951" lon="5.59846">
        <ele>844.8</ele>
        <time>2026-05-12T16:59:45Z</time>
      </trkpt>
      <trkpt lat="45.99512" lon="5.59847">
        <ele>845.2</ele>
        <time>2026-05-12T16:59:46Z</time>
      </trkpt>
      <trkpt lat="45.99515" lon="5.59849">
        <ele>845.2</ele>
        <time>2026-05-12T16:59:47Z</time>
      </trkpt>
      <trkpt lat="45.99518" lon="5.5985">
        <ele>845.2</ele>
        <time>2026-05-12T16:59:48Z</time>
      </trkpt>
      <trkpt lat="45.99519" lon="5.59851">
        <ele>845.6</ele>
        <time>2026-05-12T16:59:49Z</time>
      </trkpt>
      <trkpt lat="45.99522" lon="5.59852">
        <ele>845.6</ele>
        <time>2026-05-12T16:59:50Z</time>
      </trkpt>
      <trkpt lat="45.99524" lon="5.59853">
        <ele>845.6</ele>
        <time>2026-05-12T16:59:51Z</time>
      </trkpt>
      <trkpt lat="45.99527" lon="5.59854">
        <ele>846</ele>
        <time>2026-05-12T16:59:52Z</time>
      </trkpt>
      <trkpt lat="45.99529" lon="5.59855">
        <ele>846</ele>
        <time>2026-05-12T16:59:53Z</time>
      </trkpt>
      <trkpt lat="45.99532" lon="5.59856">
        <ele>846</ele>
        <time>2026-05-12T16:59:54Z</time>
      </trkpt>
      <trkpt lat="45.99535" lon="5.59857">
        <ele>846</ele>
        <time>2026-05-12T16:59:55Z</time>
      </trkpt>
      <trkpt lat="45.99538" lon="5.59858">
        <ele>846</ele>
        <time>2026-05-12T16:59:56Z</time>
      </trkpt>
      <trkpt lat="45.9954" lon="5.59858">
        <ele>846</ele>
        <time>2026-05-12T16:59:57Z</time>
      </trkpt>
      <trkpt lat="45.99543" lon="5.59859">
        <ele>846</ele>
        <time>2026-05-12T16:59:58Z</time>
      </trkpt>
      <trkpt lat="45.99546" lon="5.5986">
        <ele>846</ele>
        <time>2026-05-12T16:59:59Z</time>
      </trkpt>
      <trkpt lat="45.99549" lon="5.59861">
        <ele>846</ele>
        <time>2026-05-12T17:00:00Z</time>
      </trkpt>
      <trkpt lat="45.99551" lon="5.59863">
        <ele>846</ele>
        <time>2026-05-12T17:00:01Z</time>
      </trkpt>
      <trkpt lat="45.99554" lon="5.59864">
        <ele>846</ele>
        <time>2026-05-12T17:00:02Z</time>
      </trkpt>
      <trkpt lat="45.99556" lon="5.59865">
        <ele>846</ele>
        <time>2026-05-12T17:00:03Z</time>
      </trkpt>
      <trkpt lat="45.99559" lon="5.59866">
        <ele>846.2</ele>
        <time>2026-05-12T17:00:04Z</time>
      </trkpt>
      <trkpt lat="45.99562" lon="5.59868">
        <ele>846.4</ele>
        <time>2026-05-12T17:00:05Z</time>
      </trkpt>
      <trkpt lat="45.99565" lon="5.59869">
        <ele>846.4</ele>
        <time>2026-05-12T17:00:06Z</time>
      </trkpt>
      <trkpt lat="45.99567" lon="5.5987">
        <ele>846.8</ele>
        <time>2026-05-12T17:00:07Z</time>
      </trkpt>
      <trkpt lat="45.9957" lon="5.5987">
        <ele>846.8</ele>
        <time>2026-05-12T17:00:08Z</time>
      </trkpt>
      <trkpt lat="45.99573" lon="5.59871">
        <ele>846.8</ele>
        <time>2026-05-12T17:00:09Z</time>
      </trkpt>
      <trkpt lat="45.99576" lon="5.59872">
        <ele>846.8</ele>
        <time>2026-05-12T17:00:10Z</time>
      </trkpt>
      <trkpt lat="45.99579" lon="5.59873">
        <ele>846.8</ele>
        <time>2026-05-12T17:00:11Z</time>
      </trkpt>
      <trkpt lat="45.99582" lon="5.59874">
        <ele>846.8</ele>
        <time>2026-05-12T17:00:12Z</time>
      </trkpt>
      <trkpt lat="45.99585" lon="5.59875">
        <ele>846.8</ele>
        <time>2026-05-12T17:00:13Z</time>
      </trkpt>
      <trkpt lat="45.99588" lon="5.59877">
        <ele>846.8</ele>
        <time>2026-05-12T17:00:14Z</time>
      </trkpt>
      <trkpt lat="45.99591" lon="5.59878">
        <ele>846.8</ele>
        <time>2026-05-12T17:00:15Z</time>
      </trkpt>
      <trkpt lat="45.99594" lon="5.59879">
        <ele>846.8</ele>
        <time>2026-05-12T17:00:16Z</time>
      </trkpt>
      <trkpt lat="45.99597" lon="5.5988">
        <ele>847</ele>
        <time>2026-05-12T17:00:17Z</time>
      </trkpt>
      <trkpt lat="45.996" lon="5.59881">
        <ele>847</ele>
        <time>2026-05-12T17:00:18Z</time>
      </trkpt>
      <trkpt lat="45.99603" lon="5.59882">
        <ele>847.2</ele>
        <time>2026-05-12T17:00:19Z</time>
      </trkpt>
      <trkpt lat="45.99606" lon="5.59883">
        <ele>847.2</ele>
        <time>2026-05-12T17:00:20Z</time>
      </trkpt>
      <trkpt lat="45.99609" lon="5.59884">
        <ele>847.4</ele>
        <time>2026-05-12T17:00:21Z</time>
      </trkpt>
      <trkpt lat="45.99612" lon="5.59885">
        <ele>847.4</ele>
        <time>2026-05-12T17:00:22Z</time>
      </trkpt>
      <trkpt lat="45.99615" lon="5.59886">
        <ele>847.4</ele>
        <time>2026-05-12T17:00:23Z</time>
      </trkpt>
      <trkpt lat="45.99618" lon="5.59887">
        <ele>847.6</ele>
        <time>2026-05-12T17:00:24Z</time>
      </trkpt>
      <trkpt lat="45.99621" lon="5.59887">
        <ele>847.6</ele>
        <time>2026-05-12T17:00:25Z</time>
      </trkpt>
      <trkpt lat="45.99624" lon="5.59887">
        <ele>847.6</ele>
        <time>2026-05-12T17:00:26Z</time>
      </trkpt>
      <trkpt lat="45.99627" lon="5.59887">
        <ele>847.6</ele>
        <time>2026-05-12T17:00:27Z</time>
      </trkpt>
      <trkpt lat="45.9963" lon="5.59887">
        <ele>847.8</ele>
        <time>2026-05-12T17:00:28Z</time>
      </trkpt>
      <trkpt lat="45.99633" lon="5.59888">
        <ele>847.8</ele>
        <time>2026-05-12T17:00:29Z</time>
      </trkpt>
      <trkpt lat="45.99636" lon="5.59889">
        <ele>847.8</ele>
        <time>2026-05-12T17:00:30Z</time>
      </trkpt>
      <trkpt lat="45.99639" lon="5.5989">
        <ele>848.2</ele>
        <time>2026-05-12T17:00:31Z</time>
      </trkpt>
      <trkpt lat="45.99641" lon="5.59891">
        <ele>848.2</ele>
        <time>2026-05-12T17:00:32Z</time>
      </trkpt>
      <trkpt lat="45.99644" lon="5.5989">
        <ele>848.2</ele>
        <time>2026-05-12T17:00:33Z</time>
      </trkpt>
      <trkpt lat="45.99647" lon="5.59889">
        <ele>848.6</ele>
        <time>2026-05-12T17:00:34Z</time>
      </trkpt>
      <trkpt lat="45.99649" lon="5.59889">
        <ele>848.6</ele>
        <time>2026-05-12T17:00:35Z</time>
      </trkpt>
      <trkpt lat="45.99651" lon="5.59888">
        <ele>848.6</ele>
        <time>2026-05-12T17:00:36Z</time>
      </trkpt>
      <trkpt lat="45.99653" lon="5.59887">
        <ele>848.8</ele>
        <time>2026-05-12T17:00:37Z</time>
      </trkpt>
      <trkpt lat="45.99655" lon="5.59886">
        <ele>848.8</ele>
        <time>2026-05-12T17:00:38Z</time>
      </trkpt>
      <trkpt lat="45.99658" lon="5.59885">
        <ele>849.2</ele>
        <time>2026-05-12T17:00:39Z</time>
      </trkpt>
      <trkpt lat="45.9966" lon="5.59885">
        <ele>849.4</ele>
        <time>2026-05-12T17:00:40Z</time>
      </trkpt>
      <trkpt lat="45.99662" lon="5.59884">
        <ele>849.4</ele>
        <time>2026-05-12T17:00:41Z</time>
      </trkpt>
      <trkpt lat="45.99664" lon="5.59884">
        <ele>849.8</ele>
        <time>2026-05-12T17:00:42Z</time>
      </trkpt>
      <trkpt lat="45.99666" lon="5.59884">
        <ele>849.8</ele>
        <time>2026-05-12T17:00:43Z</time>
      </trkpt>
      <trkpt lat="45.99669" lon="5.59883">
        <ele>850</ele>
        <time>2026-05-12T17:00:44Z</time>
      </trkpt>
      <trkpt lat="45.99671" lon="5.59884">
        <ele>850</ele>
        <time>2026-05-12T17:00:45Z</time>
      </trkpt>
      <trkpt lat="45.99672" lon="5.59884">
        <ele>850.4</ele>
        <time>2026-05-12T17:00:46Z</time>
      </trkpt>
      <trkpt lat="45.99674" lon="5.59884">
        <ele>850.6</ele>
        <time>2026-05-12T17:00:47Z</time>
      </trkpt>
      <trkpt lat="45.99676" lon="5.59885">
        <ele>850.6</ele>
        <time>2026-05-12T17:00:48Z</time>
      </trkpt>
      <trkpt lat="45.99678" lon="5.59886">
        <ele>851</ele>
        <time>2026-05-12T17:00:49Z</time>
      </trkpt>
      <trkpt lat="45.99679" lon="5.59886">
        <ele>851.4</ele>
        <time>2026-05-12T17:00:50Z</time>
      </trkpt>
      <trkpt lat="45.9968" lon="5.59888">
        <ele>851.6</ele>
        <time>2026-05-12T17:00:51Z</time>
      </trkpt>
      <trkpt lat="45.99682" lon="5.59889">
        <ele>851.6</ele>
        <time>2026-05-12T17:00:52Z</time>
      </trkpt>
      <trkpt lat="45.99683" lon="5.5989">
        <ele>852</ele>
        <time>2026-05-12T17:00:53Z</time>
      </trkpt>
      <trkpt lat="45.99685" lon="5.59891">
        <ele>852.2</ele>
        <time>2026-05-12T17:00:54Z</time>
      </trkpt>
      <trkpt lat="45.99686" lon="5.59892">
        <ele>852.6</ele>
        <time>2026-05-12T17:00:55Z</time>
      </trkpt>
      <trkpt lat="45.99687" lon="5.59893">
        <ele>852.8</ele>
        <time>2026-05-12T17:00:56Z</time>
      </trkpt>
      <trkpt lat="45.99689" lon="5.59895">
        <ele>852.8</ele>
        <time>2026-05-12T17:00:57Z</time>
      </trkpt>
      <trkpt lat="45.9969" lon="5.59896">
        <ele>853</ele>
        <time>2026-05-12T17:00:58Z</time>
      </trkpt>
      <trkpt lat="45.99692" lon="5.59897">
        <ele>853.4</ele>
        <time>2026-05-12T17:00:59Z</time>
      </trkpt>
      <trkpt lat="45.99694" lon="5.59899">
        <ele>853.4</ele>
        <time>2026-05-12T17:01:00Z</time>
      </trkpt>
      <trkpt lat="45.99695" lon="5.599">
        <ele>853.6</ele>
        <time>2026-05-12T17:01:01Z</time>
      </trkpt>
      <trkpt lat="45.99697" lon="5.59901">
        <ele>853.6</ele>
        <time>2026-05-12T17:01:02Z</time>
      </trkpt>
      <trkpt lat="45.99699" lon="5.59902">
        <ele>853.6</ele>
        <time>2026-05-12T17:01:03Z</time>
      </trkpt>
      <trkpt lat="45.99701" lon="5.59902">
        <ele>854</ele>
        <time>2026-05-12T17:01:04Z</time>
      </trkpt>
      <trkpt lat="45.99703" lon="5.59903">
        <ele>854.2</ele>
        <time>2026-05-12T17:01:05Z</time>
      </trkpt>
      <trkpt lat="45.99704" lon="5.59904">
        <ele>854.2</ele>
        <time>2026-05-12T17:01:06Z</time>
      </trkpt>
      <trkpt lat="45.99706" lon="5.59905">
        <ele>854.2</ele>
        <time>2026-05-12T17:01:07Z</time>
      </trkpt>
      <trkpt lat="45.99707" lon="5.59907">
        <ele>854.4</ele>
        <time>2026-05-12T17:01:08Z</time>
      </trkpt>
      <trkpt lat="45.99709" lon="5.59908">
        <ele>854.4</ele>
        <time>2026-05-12T17:01:09Z</time>
      </trkpt>
      <trkpt lat="45.99711" lon="5.5991">
        <ele>854.8</ele>
        <time>2026-05-12T17:01:10Z</time>
      </trkpt>
      <trkpt lat="45.99712" lon="5.59912">
        <ele>854.8</ele>
        <time>2026-05-12T17:01:11Z</time>
      </trkpt>
      <trkpt lat="45.99714" lon="5.59914">
        <ele>855</ele>
        <time>2026-05-12T17:01:12Z</time>
      </trkpt>
      <trkpt lat="45.99717" lon="5.59918">
        <ele>855</ele>
        <time>2026-05-12T17:01:13Z</time>
      </trkpt>
      <trkpt lat="45.99719" lon="5.59919">
        <ele>855</ele>
        <time>2026-05-12T17:01:14Z</time>
      </trkpt>
      <trkpt lat="45.99721" lon="5.59921">
        <ele>855.6</ele>
        <time>2026-05-12T17:01:15Z</time>
      </trkpt>
      <trkpt lat="45.99724" lon="5.59923">
        <ele>855.6</ele>
        <time>2026-05-12T17:01:16Z</time>
      </trkpt>
      <trkpt lat="45.99726" lon="5.59925">
        <ele>855.6</ele>
        <time>2026-05-12T17:01:17Z</time>
      </trkpt>
      <trkpt lat="45.99728" lon="5.59927">
        <ele>856</ele>
        <time>2026-05-12T17:01:18Z</time>
      </trkpt>
      <trkpt lat="45.9973" lon="5.59929">
        <ele>856</ele>
        <time>2026-05-12T17:01:19Z</time>
      </trkpt>
      <trkpt lat="45.99732" lon="5.5993">
        <ele>856</ele>
        <time>2026-05-12T17:01:20Z</time>
      </trkpt>
      <trkpt lat="45.99734" lon="5.59932">
        <ele>856.2</ele>
        <time>2026-05-12T17:01:21Z</time>
      </trkpt>
      <trkpt lat="45.99736" lon="5.59935">
        <ele>856.2</ele>
        <time>2026-05-12T17:01:22Z</time>
      </trkpt>
      <trkpt lat="45.99738" lon="5.59937">
        <ele>856.2</ele>
        <time>2026-05-12T17:01:23Z</time>
      </trkpt>
      <trkpt lat="45.9974" lon="5.59939">
        <ele>856.4</ele>
        <time>2026-05-12T17:01:24Z</time>
      </trkpt>
      <trkpt lat="45.99741" lon="5.59942">
        <ele>856.4</ele>
        <time>2026-05-12T17:01:25Z</time>
      </trkpt>
      <trkpt lat="45.99743" lon="5.59944">
        <ele>856.4</ele>
        <time>2026-05-12T17:01:26Z</time>
      </trkpt>
      <trkpt lat="45.99743" lon="5.59944">
        <ele>856.6</ele>
        <time>2026-05-12T17:01:27Z</time>
      </trkpt>
      <trkpt lat="45.99745" lon="5.59947">
        <ele>856.6</ele>
        <time>2026-05-12T17:01:28Z</time>
      </trkpt>
      <trkpt lat="45.99747" lon="5.59949">
        <ele>856.6</ele>
        <time>2026-05-12T17:01:29Z</time>
      </trkpt>
      <trkpt lat="45.99749" lon="5.59951">
        <ele>856.6</ele>
        <time>2026-05-12T17:01:30Z</time>
      </trkpt>
      <trkpt lat="45.99751" lon="5.59953">
        <ele>856.6</ele>
        <time>2026-05-12T17:01:31Z</time>
      </trkpt>
      <trkpt lat="45.99753" lon="5.59955">
        <ele>857</ele>
        <time>2026-05-12T17:01:32Z</time>
      </trkpt>
      <trkpt lat="45.99755" lon="5.59957">
        <ele>857.2</ele>
        <time>2026-05-12T17:01:33Z</time>
      </trkpt>
      <trkpt lat="45.99756" lon="5.59959">
        <ele>857.2</ele>
        <time>2026-05-12T17:01:34Z</time>
      </trkpt>
      <trkpt lat="45.99757" lon="5.59962">
        <ele>857.2</ele>
        <time>2026-05-12T17:01:35Z</time>
      </trkpt>
      <trkpt lat="45.99759" lon="5.59965">
        <ele>857.6</ele>
        <time>2026-05-12T17:01:36Z</time>
      </trkpt>
      <trkpt lat="45.9976" lon="5.59967">
        <ele>857.6</ele>
        <time>2026-05-12T17:01:37Z</time>
      </trkpt>
      <trkpt lat="45.99763" lon="5.5997">
        <ele>857.6</ele>
        <time>2026-05-12T17:01:38Z</time>
      </trkpt>
      <trkpt lat="45.99765" lon="5.59973">
        <ele>858</ele>
        <time>2026-05-12T17:01:39Z</time>
      </trkpt>
      <trkpt lat="45.99768" lon="5.59975">
        <ele>858</ele>
        <time>2026-05-12T17:01:40Z</time>
      </trkpt>
      <trkpt lat="45.99771" lon="5.59977">
        <ele>858</ele>
        <time>2026-05-12T17:01:41Z</time>
      </trkpt>
      <trkpt lat="45.99773" lon="5.5998">
        <ele>858</ele>
        <time>2026-05-12T17:01:42Z</time>
      </trkpt>
      <trkpt lat="45.99776" lon="5.59983">
        <ele>858</ele>
        <time>2026-05-12T17:01:43Z</time>
      </trkpt>
      <trkpt lat="45.99778" lon="5.59986">
        <ele>858</ele>
        <time>2026-05-12T17:01:44Z</time>
      </trkpt>
      <trkpt lat="45.9978" lon="5.59988">
        <ele>858</ele>
        <time>2026-05-12T17:01:45Z</time>
      </trkpt>
      <trkpt lat="45.99782" lon="5.5999">
        <ele>858</ele>
        <time>2026-05-12T17:01:46Z</time>
      </trkpt>
      <trkpt lat="45.99785" lon="5.59992">
        <ele>858</ele>
        <time>2026-05-12T17:01:47Z</time>
      </trkpt>
      <trkpt lat="45.99787" lon="5.59994">
        <ele>857.6</ele>
        <time>2026-05-12T17:01:48Z</time>
      </trkpt>
      <trkpt lat="45.99789" lon="5.59996">
        <ele>857.6</ele>
        <time>2026-05-12T17:01:49Z</time>
      </trkpt>
      <trkpt lat="45.99792" lon="5.59998">
        <ele>857.6</ele>
        <time>2026-05-12T17:01:50Z</time>
      </trkpt>
      <trkpt lat="45.99794" lon="5.6">
        <ele>857.6</ele>
        <time>2026-05-12T17:01:51Z</time>
      </trkpt>
      <trkpt lat="45.99797" lon="5.60001">
        <ele>858</ele>
        <time>2026-05-12T17:01:52Z</time>
      </trkpt>
      <trkpt lat="45.99799" lon="5.60003">
        <ele>858</ele>
        <time>2026-05-12T17:01:53Z</time>
      </trkpt>
      <trkpt lat="45.99802" lon="5.60004">
        <ele>858</ele>
        <time>2026-05-12T17:01:54Z</time>
      </trkpt>
      <trkpt lat="45.99804" lon="5.60005">
        <ele>857.6</ele>
        <time>2026-05-12T17:01:55Z</time>
      </trkpt>
      <trkpt lat="45.99807" lon="5.60007">
        <ele>857.6</ele>
        <time>2026-05-12T17:01:56Z</time>
      </trkpt>
      <trkpt lat="45.99811" lon="5.6001">
        <ele>857.4</ele>
        <time>2026-05-12T17:01:57Z</time>
      </trkpt>
      <trkpt lat="45.99814" lon="5.60011">
        <ele>857.4</ele>
        <time>2026-05-12T17:01:58Z</time>
      </trkpt>
      <trkpt lat="45.99817" lon="5.60012">
        <ele>857.4</ele>
        <time>2026-05-12T17:01:59Z</time>
      </trkpt>
      <trkpt lat="45.99819" lon="5.60012">
        <ele>857.4</ele>
        <time>2026-05-12T17:02:00Z</time>
      </trkpt>
      <trkpt lat="45.99823" lon="5.60013">
        <ele>857.4</ele>
        <time>2026-05-12T17:02:01Z</time>
      </trkpt>
      <trkpt lat="45.99827" lon="5.60015">
        <ele>857.4</ele>
        <time>2026-05-12T17:02:02Z</time>
      </trkpt>
      <trkpt lat="45.99831" lon="5.60017">
        <ele>857.4</ele>
        <time>2026-05-12T17:02:03Z</time>
      </trkpt>
      <trkpt lat="45.99835" lon="5.60018">
        <ele>857.4</ele>
        <time>2026-05-12T17:02:04Z</time>
      </trkpt>
      <trkpt lat="45.99839" lon="5.60019">
        <ele>857.4</ele>
        <time>2026-05-12T17:02:05Z</time>
      </trkpt>
      <trkpt lat="45.99841" lon="5.6002">
        <ele>857.4</ele>
        <time>2026-05-12T17:02:06Z</time>
      </trkpt>
      <trkpt lat="45.99842" lon="5.6002">
        <ele>857.4</ele>
        <time>2026-05-12T17:02:07Z</time>
      </trkpt>
      <trkpt lat="45.99844" lon="5.60022">
        <ele>857.4</ele>
        <time>2026-05-12T17:02:08Z</time>
      </trkpt>
      <trkpt lat="45.99847" lon="5.60025">
        <ele>857.4</ele>
        <time>2026-05-12T17:02:09Z</time>
      </trkpt>
      <trkpt lat="45.9985" lon="5.60027">
        <ele>857.4</ele>
        <time>2026-05-12T17:02:10Z</time>
      </trkpt>
      <trkpt lat="45.99852" lon="5.60027">
        <ele>857.6</ele>
        <time>2026-05-12T17:02:11Z</time>
      </trkpt>
      <trkpt lat="45.99855" lon="5.60028">
        <ele>857.6</ele>
        <time>2026-05-12T17:02:12Z</time>
      </trkpt>
      <trkpt lat="45.99857" lon="5.60028">
        <ele>857.8</ele>
        <time>2026-05-12T17:02:13Z</time>
      </trkpt>
      <trkpt lat="45.99859" lon="5.60028">
        <ele>857.8</ele>
        <time>2026-05-12T17:02:14Z</time>
      </trkpt>
      <trkpt lat="45.99862" lon="5.60029">
        <ele>858.4</ele>
        <time>2026-05-12T17:02:15Z</time>
      </trkpt>
      <trkpt lat="45.99866" lon="5.60032">
        <ele>858.4</ele>
        <time>2026-05-12T17:02:16Z</time>
      </trkpt>
      <trkpt lat="45.9987" lon="5.60034">
        <ele>858.4</ele>
        <time>2026-05-12T17:02:17Z</time>
      </trkpt>
      <trkpt lat="45.99873" lon="5.60035">
        <ele>858.6</ele>
        <time>2026-05-12T17:02:18Z</time>
      </trkpt>
      <trkpt lat="45.99883" lon="5.60039">
        <ele>858.6</ele>
        <time>2026-05-12T17:02:19Z</time>
      </trkpt>
      <trkpt lat="45.9989" lon="5.60042">
        <ele>858.8</ele>
        <time>2026-05-12T17:02:20Z</time>
      </trkpt>
      <trkpt lat="45.99895" lon="5.60043">
        <ele>858.8</ele>
        <time>2026-05-12T17:02:21Z</time>
      </trkpt>
      <trkpt lat="45.99898" lon="5.60047">
        <ele>858.8</ele>
        <time>2026-05-12T17:02:22Z</time>
      </trkpt>
      <trkpt lat="45.99901" lon="5.6005">
        <ele>858.8</ele>
        <time>2026-05-12T17:02:23Z</time>
      </trkpt>
      <trkpt lat="45.99903" lon="5.60055">
        <ele>858.8</ele>
        <time>2026-05-12T17:02:24Z</time>
      </trkpt>
      <trkpt lat="45.99905" lon="5.60057">
        <ele>859</ele>
        <time>2026-05-12T17:02:25Z</time>
      </trkpt>
      <trkpt lat="45.99905" lon="5.60061">
        <ele>859</ele>
        <time>2026-05-12T17:02:26Z</time>
      </trkpt>
      <trkpt lat="45.99908" lon="5.60065">
        <ele>859.6</ele>
        <time>2026-05-12T17:02:27Z</time>
      </trkpt>
      <trkpt lat="45.9991" lon="5.60068">
        <ele>859.6</ele>
        <time>2026-05-12T17:02:28Z</time>
      </trkpt>
      <trkpt lat="45.99912" lon="5.60072">
        <ele>859.8</ele>
        <time>2026-05-12T17:02:29Z</time>
      </trkpt>
      <trkpt lat="45.99914" lon="5.60075">
        <ele>859.8</ele>
        <time>2026-05-12T17:02:30Z</time>
      </trkpt>
      <trkpt lat="45.99915" lon="5.60079">
        <ele>860.2</ele>
        <time>2026-05-12T17:02:31Z</time>
      </trkpt>
      <trkpt lat="45.99917" lon="5.6008">
        <ele>860.2</ele>
        <time>2026-05-12T17:02:32Z</time>
      </trkpt>
      <trkpt lat="45.99919" lon="5.60083">
        <ele>860.2</ele>
        <time>2026-05-12T17:02:33Z</time>
      </trkpt>
      <trkpt lat="45.99921" lon="5.60086">
        <ele>860.2</ele>
        <time>2026-05-12T17:02:34Z</time>
      </trkpt>
      <trkpt lat="45.99923" lon="5.6009">
        <ele>860.8</ele>
        <time>2026-05-12T17:02:35Z</time>
      </trkpt>
      <trkpt lat="45.99925" lon="5.60094">
        <ele>860.8</ele>
        <time>2026-05-12T17:02:36Z</time>
      </trkpt>
      <trkpt lat="45.99926" lon="5.60097">
        <ele>860.8</ele>
        <time>2026-05-12T17:02:37Z</time>
      </trkpt>
      <trkpt lat="45.99929" lon="5.601">
        <ele>861</ele>
        <time>2026-05-12T17:02:38Z</time>
      </trkpt>
      <trkpt lat="45.99932" lon="5.60103">
        <ele>861</ele>
        <time>2026-05-12T17:02:39Z</time>
      </trkpt>
      <trkpt lat="45.99934" lon="5.60106">
        <ele>861</ele>
        <time>2026-05-12T17:02:40Z</time>
      </trkpt>
      <trkpt lat="45.99935" lon="5.6011">
        <ele>861</ele>
        <time>2026-05-12T17:02:41Z</time>
      </trkpt>
      <trkpt lat="45.99937" lon="5.60114">
        <ele>861.2</ele>
        <time>2026-05-12T17:02:42Z</time>
      </trkpt>
      <trkpt lat="45.99938" lon="5.60119">
        <ele>861</ele>
        <time>2026-05-12T17:02:43Z</time>
      </trkpt>
      <trkpt lat="45.99939" lon="5.60122">
        <ele>861</ele>
        <time>2026-05-12T17:02:44Z</time>
      </trkpt>
      <trkpt lat="45.99941" lon="5.60126">
        <ele>861</ele>
        <time>2026-05-12T17:02:45Z</time>
      </trkpt>
      <trkpt lat="45.99944" lon="5.60129">
        <ele>861.2</ele>
        <time>2026-05-12T17:02:46Z</time>
      </trkpt>
      <trkpt lat="45.99947" lon="5.60132">
        <ele>861.2</ele>
        <time>2026-05-12T17:02:47Z</time>
      </trkpt>
      <trkpt lat="45.99948" lon="5.60135">
        <ele>861.6</ele>
        <time>2026-05-12T17:02:48Z</time>
      </trkpt>
      <trkpt lat="45.9995" lon="5.60139">
        <ele>861.6</ele>
        <time>2026-05-12T17:02:49Z</time>
      </trkpt>
      <trkpt lat="45.99952" lon="5.60143">
        <ele>861.6</ele>
        <time>2026-05-12T17:02:50Z</time>
      </trkpt>
      <trkpt lat="45.99954" lon="5.60147">
        <ele>861.6</ele>
        <time>2026-05-12T17:02:51Z</time>
      </trkpt>
      <trkpt lat="45.99957" lon="5.60151">
        <ele>861.8</ele>
        <time>2026-05-12T17:02:52Z</time>
      </trkpt>
      <trkpt lat="45.99958" lon="5.60154">
        <ele>861.8</ele>
        <time>2026-05-12T17:02:53Z</time>
      </trkpt>
      <trkpt lat="45.9996" lon="5.60157">
        <ele>862.2</ele>
        <time>2026-05-12T17:02:54Z</time>
      </trkpt>
      <trkpt lat="45.99963" lon="5.60161">
        <ele>862.2</ele>
        <time>2026-05-12T17:02:55Z</time>
      </trkpt>
      <trkpt lat="45.99965" lon="5.60164">
        <ele>862.6</ele>
        <time>2026-05-12T17:02:56Z</time>
      </trkpt>
      <trkpt lat="45.99967" lon="5.60167">
        <ele>862.6</ele>
        <time>2026-05-12T17:02:57Z</time>
      </trkpt>
      <trkpt lat="45.99969" lon="5.6017">
        <ele>863</ele>
        <time>2026-05-12T17:02:58Z</time>
      </trkpt>
      <trkpt lat="45.99971" lon="5.60173">
        <ele>863</ele>
        <time>2026-05-12T17:02:59Z</time>
      </trkpt>
      <trkpt lat="45.99973" lon="5.60176">
        <ele>863</ele>
        <time>2026-05-12T17:03:00Z</time>
      </trkpt>
      <trkpt lat="45.99975" lon="5.60179">
        <ele>863.4</ele>
        <time>2026-05-12T17:03:01Z</time>
      </trkpt>
      <trkpt lat="45.99977" lon="5.60181">
        <ele>863.4</ele>
        <time>2026-05-12T17:03:02Z</time>
      </trkpt>
      <trkpt lat="45.99979" lon="5.60183">
        <ele>863.4</ele>
        <time>2026-05-12T17:03:03Z</time>
      </trkpt>
      <trkpt lat="45.99982" lon="5.60186">
        <ele>863.8</ele>
        <time>2026-05-12T17:03:04Z</time>
      </trkpt>
      <trkpt lat="45.99984" lon="5.60187">
        <ele>863.8</ele>
        <time>2026-05-12T17:03:05Z</time>
      </trkpt>
      <trkpt lat="45.99986" lon="5.60189">
        <ele>864.2</ele>
        <time>2026-05-12T17:03:06Z</time>
      </trkpt>
      <trkpt lat="45.99988" lon="5.60191">
        <ele>864.4</ele>
        <time>2026-05-12T17:03:07Z</time>
      </trkpt>
      <trkpt lat="45.9999" lon="5.60193">
        <ele>864.6</ele>
        <time>2026-05-12T17:03:08Z</time>
      </trkpt>
      <trkpt lat="45.99993" lon="5.60196">
        <ele>864.6</ele>
        <time>2026-05-12T17:03:09Z</time>
      </trkpt>
      <trkpt lat="45.99995" lon="5.60198">
        <ele>864.8</ele>
        <time>2026-05-12T17:03:10Z</time>
      </trkpt>
      <trkpt lat="45.99998" lon="5.602">
        <ele>864.8</ele>
        <time>2026-05-12T17:03:11Z</time>
      </trkpt>
      <trkpt lat="46.00001" lon="5.60203">
        <ele>865.2</ele>
        <time>2026-05-12T17:03:12Z</time>
      </trkpt>
      <trkpt lat="46.00004" lon="5.60206">
        <ele>865.4</ele>
        <time>2026-05-12T17:03:13Z</time>
      </trkpt>
      <trkpt lat="46.00007" lon="5.60208">
        <ele>865.8</ele>
        <time>2026-05-12T17:03:14Z</time>
      </trkpt>
      <trkpt lat="46.00009" lon="5.60209">
        <ele>866</ele>
        <time>2026-05-12T17:03:15Z</time>
      </trkpt>
      <trkpt lat="46.00011" lon="5.6021">
        <ele>866</ele>
        <time>2026-05-12T17:03:16Z</time>
      </trkpt>
      <trkpt lat="46.00013" lon="5.60211">
        <ele>866.4</ele>
        <time>2026-05-12T17:03:17Z</time>
      </trkpt>
      <trkpt lat="46.00015" lon="5.60213">
        <ele>866.4</ele>
        <time>2026-05-12T17:03:18Z</time>
      </trkpt>
      <trkpt lat="46.00017" lon="5.60214">
        <ele>866.6</ele>
        <time>2026-05-12T17:03:19Z</time>
      </trkpt>
      <trkpt lat="46.00019" lon="5.60216">
        <ele>866.6</ele>
        <time>2026-05-12T17:03:20Z</time>
      </trkpt>
      <trkpt lat="46.00021" lon="5.60217">
        <ele>866.8</ele>
        <time>2026-05-12T17:03:21Z</time>
      </trkpt>
      <trkpt lat="46.00022" lon="5.60217">
        <ele>867</ele>
        <time>2026-05-12T17:03:22Z</time>
      </trkpt>
      <trkpt lat="46.00023" lon="5.60218">
        <ele>867</ele>
        <time>2026-05-12T17:03:23Z</time>
      </trkpt>
      <trkpt lat="46.00025" lon="5.60219">
        <ele>867.4</ele>
        <time>2026-05-12T17:03:24Z</time>
      </trkpt>
      <trkpt lat="46.00027" lon="5.6022">
        <ele>867.4</ele>
        <time>2026-05-12T17:03:25Z</time>
      </trkpt>
      <trkpt lat="46.0003" lon="5.60221">
        <ele>867.8</ele>
        <time>2026-05-12T17:03:26Z</time>
      </trkpt>
      <trkpt lat="46.00032" lon="5.60222">
        <ele>868</ele>
        <time>2026-05-12T17:03:27Z</time>
      </trkpt>
      <trkpt lat="46.00033" lon="5.60224">
        <ele>868</ele>
        <time>2026-05-12T17:03:28Z</time>
      </trkpt>
      <trkpt lat="46.00036" lon="5.60225">
        <ele>868</ele>
        <time>2026-05-12T17:03:29Z</time>
      </trkpt>
      <trkpt lat="46.00038" lon="5.60227">
        <ele>868.2</ele>
        <time>2026-05-12T17:03:30Z</time>
      </trkpt>
      <trkpt lat="46.0004" lon="5.60229">
        <ele>868.2</ele>
        <time>2026-05-12T17:03:31Z</time>
      </trkpt>
      <trkpt lat="46.00042" lon="5.6023">
        <ele>868.2</ele>
        <time>2026-05-12T17:03:32Z</time>
      </trkpt>
      <trkpt lat="46.00044" lon="5.60231">
        <ele>868.4</ele>
        <time>2026-05-12T17:03:33Z</time>
      </trkpt>
      <trkpt lat="46.00046" lon="5.60232">
        <ele>868.6</ele>
        <time>2026-05-12T17:03:34Z</time>
      </trkpt>
      <trkpt lat="46.00048" lon="5.60233">
        <ele>868.6</ele>
        <time>2026-05-12T17:03:35Z</time>
      </trkpt>
      <trkpt lat="46.0005" lon="5.60235">
        <ele>869</ele>
        <time>2026-05-12T17:03:36Z</time>
      </trkpt>
      <trkpt lat="46.00052" lon="5.60236">
        <ele>869</ele>
        <time>2026-05-12T17:03:37Z</time>
      </trkpt>
      <trkpt lat="46.00053" lon="5.60237">
        <ele>869</ele>
        <time>2026-05-12T17:03:38Z</time>
      </trkpt>
      <trkpt lat="46.00055" lon="5.60238">
        <ele>869.4</ele>
        <time>2026-05-12T17:03:39Z</time>
      </trkpt>
      <trkpt lat="46.00057" lon="5.6024">
        <ele>869.4</ele>
        <time>2026-05-12T17:03:40Z</time>
      </trkpt>
      <trkpt lat="46.00058" lon="5.60241">
        <ele>869.8</ele>
        <time>2026-05-12T17:03:41Z</time>
      </trkpt>
      <trkpt lat="46.0006" lon="5.60243">
        <ele>869.8</ele>
        <time>2026-05-12T17:03:42Z</time>
      </trkpt>
      <trkpt lat="46.00062" lon="5.60245">
        <ele>870</ele>
        <time>2026-05-12T17:03:43Z</time>
      </trkpt>
      <trkpt lat="46.00064" lon="5.60247">
        <ele>870</ele>
        <time>2026-05-12T17:03:44Z</time>
      </trkpt>
      <trkpt lat="46.00066" lon="5.60248">
        <ele>870.4</ele>
        <time>2026-05-12T17:03:45Z</time>
      </trkpt>
      <trkpt lat="46.00069" lon="5.60249">
        <ele>870.4</ele>
        <time>2026-05-12T17:03:46Z</time>
      </trkpt>
      <trkpt lat="46.00072" lon="5.60251">
        <ele>870.4</ele>
        <time>2026-05-12T17:03:47Z</time>
      </trkpt>
      <trkpt lat="46.00074" lon="5.60253">
        <ele>870.6</ele>
        <time>2026-05-12T17:03:48Z</time>
      </trkpt>
      <trkpt lat="46.00076" lon="5.60255">
        <ele>870.6</ele>
        <time>2026-05-12T17:03:49Z</time>
      </trkpt>
      <trkpt lat="46.00078" lon="5.60258">
        <ele>871</ele>
        <time>2026-05-12T17:03:50Z</time>
      </trkpt>
      <trkpt lat="46.00081" lon="5.6026">
        <ele>871.4</ele>
        <time>2026-05-12T17:03:51Z</time>
      </trkpt>
      <trkpt lat="46.00082" lon="5.60261">
        <ele>871.6</ele>
        <time>2026-05-12T17:03:52Z</time>
      </trkpt>
      <trkpt lat="46.00084" lon="5.60262">
        <ele>871.6</ele>
        <time>2026-05-12T17:03:53Z</time>
      </trkpt>
      <trkpt lat="46.00087" lon="5.60263">
        <ele>871.8</ele>
        <time>2026-05-12T17:03:54Z</time>
      </trkpt>
      <trkpt lat="46.00089" lon="5.60264">
        <ele>871.8</ele>
        <time>2026-05-12T17:03:55Z</time>
      </trkpt>
      <trkpt lat="46.00092" lon="5.60265">
        <ele>872</ele>
        <time>2026-05-12T17:03:56Z</time>
      </trkpt>
      <trkpt lat="46.00095" lon="5.60265">
        <ele>872</ele>
        <time>2026-05-12T17:03:57Z</time>
      </trkpt>
      <trkpt lat="46.00097" lon="5.60265">
        <ele>872.4</ele>
        <time>2026-05-12T17:03:58Z</time>
      </trkpt>
      <trkpt lat="46.001" lon="5.60265">
        <ele>872.4</ele>
        <time>2026-05-12T17:03:59Z</time>
      </trkpt>
      <trkpt lat="46.00102" lon="5.60266">
        <ele>872.4</ele>
        <time>2026-05-12T17:04:00Z</time>
      </trkpt>
      <trkpt lat="46.00104" lon="5.60266">
        <ele>872.6</ele>
        <time>2026-05-12T17:04:01Z</time>
      </trkpt>
      <trkpt lat="46.00106" lon="5.60267">
        <ele>872.6</ele>
        <time>2026-05-12T17:04:02Z</time>
      </trkpt>
      <trkpt lat="46.00108" lon="5.60269">
        <ele>872.8</ele>
        <time>2026-05-12T17:04:03Z</time>
      </trkpt>
      <trkpt lat="46.0011" lon="5.6027">
        <ele>872.8</ele>
        <time>2026-05-12T17:04:04Z</time>
      </trkpt>
      <trkpt lat="46.00112" lon="5.60271">
        <ele>873.2</ele>
        <time>2026-05-12T17:04:05Z</time>
      </trkpt>
      <trkpt lat="46.00113" lon="5.60271">
        <ele>873.2</ele>
        <time>2026-05-12T17:04:06Z</time>
      </trkpt>
      <trkpt lat="46.00115" lon="5.60272">
        <ele>873.2</ele>
        <time>2026-05-12T17:04:07Z</time>
      </trkpt>
      <trkpt lat="46.00115" lon="5.60272">
        <ele>873.6</ele>
        <time>2026-05-12T17:04:08Z</time>
      </trkpt>
      <trkpt lat="46.00117" lon="5.60272">
        <ele>873.6</ele>
        <time>2026-05-12T17:04:09Z</time>
      </trkpt>
      <trkpt lat="46.00118" lon="5.60272">
        <ele>873.8</ele>
        <time>2026-05-12T17:04:10Z</time>
      </trkpt>
      <trkpt lat="46.0012" lon="5.60273">
        <ele>873.8</ele>
        <time>2026-05-12T17:04:11Z</time>
      </trkpt>
      <trkpt lat="46.00122" lon="5.60274">
        <ele>874.2</ele>
        <time>2026-05-12T17:04:12Z</time>
      </trkpt>
      <trkpt lat="46.00124" lon="5.60274">
        <ele>874.6</ele>
        <time>2026-05-12T17:04:13Z</time>
      </trkpt>
      <trkpt lat="46.00125" lon="5.60274">
        <ele>874.8</ele>
        <time>2026-05-12T17:04:14Z</time>
      </trkpt>
      <trkpt lat="46.00128" lon="5.60275">
        <ele>875</ele>
        <time>2026-05-12T17:04:15Z</time>
      </trkpt>
      <trkpt lat="46.00131" lon="5.60276">
        <ele>875</ele>
        <time>2026-05-12T17:04:16Z</time>
      </trkpt>
      <trkpt lat="46.00133" lon="5.60276">
        <ele>875.4</ele>
        <time>2026-05-12T17:04:17Z</time>
      </trkpt>
      <trkpt lat="46.00135" lon="5.60276">
        <ele>875.6</ele>
        <time>2026-05-12T17:04:18Z</time>
      </trkpt>
      <trkpt lat="46.00136" lon="5.60275">
        <ele>875.8</ele>
        <time>2026-05-12T17:04:19Z</time>
      </trkpt>
      <trkpt lat="46.00138" lon="5.60274">
        <ele>875.8</ele>
        <time>2026-05-12T17:04:20Z</time>
      </trkpt>
      <trkpt lat="46.0014" lon="5.60274">
        <ele>876.2</ele>
        <time>2026-05-12T17:04:21Z</time>
      </trkpt>
      <trkpt lat="46.00142" lon="5.60273">
        <ele>876.2</ele>
        <time>2026-05-12T17:04:22Z</time>
      </trkpt>
      <trkpt lat="46.00145" lon="5.60273">
        <ele>876.2</ele>
        <time>2026-05-12T17:04:23Z</time>
      </trkpt>
      <trkpt lat="46.00147" lon="5.60273">
        <ele>876.2</ele>
        <time>2026-05-12T17:04:24Z</time>
      </trkpt>
      <trkpt lat="46.0015" lon="5.60274">
        <ele>876.4</ele>
        <time>2026-05-12T17:04:25Z</time>
      </trkpt>
      <trkpt lat="46.00152" lon="5.60273">
        <ele>876.6</ele>
        <time>2026-05-12T17:04:26Z</time>
      </trkpt>
      <trkpt lat="46.00154" lon="5.60272">
        <ele>876.8</ele>
        <time>2026-05-12T17:04:27Z</time>
      </trkpt>
      <trkpt lat="46.00157" lon="5.60271">
        <ele>876.8</ele>
        <time>2026-05-12T17:04:28Z</time>
      </trkpt>
      <trkpt lat="46.00161" lon="5.6027">
        <ele>877</ele>
        <time>2026-05-12T17:04:29Z</time>
      </trkpt>
      <trkpt lat="46.00164" lon="5.60269">
        <ele>877</ele>
        <time>2026-05-12T17:04:30Z</time>
      </trkpt>
      <trkpt lat="46.00166" lon="5.60269">
        <ele>877</ele>
        <time>2026-05-12T17:04:31Z</time>
      </trkpt>
      <trkpt lat="46.00168" lon="5.60269">
        <ele>877</ele>
        <time>2026-05-12T17:04:32Z</time>
      </trkpt>
      <trkpt lat="46.0017" lon="5.60269">
        <ele>877.4</ele>
        <time>2026-05-12T17:04:33Z</time>
      </trkpt>
      <trkpt lat="46.00173" lon="5.60269">
        <ele>877.6</ele>
        <time>2026-05-12T17:04:34Z</time>
      </trkpt>
      <trkpt lat="46.00176" lon="5.60269">
        <ele>878</ele>
        <time>2026-05-12T17:04:35Z</time>
      </trkpt>
      <trkpt lat="46.00178" lon="5.6027">
        <ele>878</ele>
        <time>2026-05-12T17:04:36Z</time>
      </trkpt>
      <trkpt lat="46.00179" lon="5.6027">
        <ele>878.4</ele>
        <time>2026-05-12T17:04:37Z</time>
      </trkpt>
      <trkpt lat="46.00181" lon="5.60271">
        <ele>878.4</ele>
        <time>2026-05-12T17:04:38Z</time>
      </trkpt>
      <trkpt lat="46.00183" lon="5.60271">
        <ele>878.6</ele>
        <time>2026-05-12T17:04:39Z</time>
      </trkpt>
      <trkpt lat="46.00186" lon="5.6027">
        <ele>878.6</ele>
        <time>2026-05-12T17:04:40Z</time>
      </trkpt>
      <trkpt lat="46.00188" lon="5.6027">
        <ele>878.8</ele>
        <time>2026-05-12T17:04:41Z</time>
      </trkpt>
      <trkpt lat="46.0019" lon="5.60269">
        <ele>879</ele>
        <time>2026-05-12T17:04:42Z</time>
      </trkpt>
      <trkpt lat="46.00192" lon="5.6027">
        <ele>879</ele>
        <time>2026-05-12T17:04:43Z</time>
      </trkpt>
      <trkpt lat="46.00193" lon="5.60271">
        <ele>879</ele>
        <time>2026-05-12T17:04:44Z</time>
      </trkpt>
      <trkpt lat="46.00193" lon="5.60271">
        <ele>879.2</ele>
        <time>2026-05-12T17:04:45Z</time>
      </trkpt>
      <trkpt lat="46.00195" lon="5.60272">
        <ele>879.2</ele>
        <time>2026-05-12T17:04:46Z</time>
      </trkpt>
      <trkpt lat="46.00197" lon="5.60273">
        <ele>879.6</ele>
        <time>2026-05-12T17:04:47Z</time>
      </trkpt>
      <trkpt lat="46.002" lon="5.60275">
        <ele>880</ele>
        <time>2026-05-12T17:04:48Z</time>
      </trkpt>
      <trkpt lat="46.00202" lon="5.60275">
        <ele>880</ele>
        <time>2026-05-12T17:04:49Z</time>
      </trkpt>
      <trkpt lat="46.00205" lon="5.60275">
        <ele>880.2</ele>
        <time>2026-05-12T17:04:50Z</time>
      </trkpt>
      <trkpt lat="46.00208" lon="5.60275">
        <ele>880.2</ele>
        <time>2026-05-12T17:04:51Z</time>
      </trkpt>
      <trkpt lat="46.0021" lon="5.60276">
        <ele>880.6</ele>
        <time>2026-05-12T17:04:52Z</time>
      </trkpt>
      <trkpt lat="46.00211" lon="5.60277">
        <ele>880.6</ele>
        <time>2026-05-12T17:04:53Z</time>
      </trkpt>
      <trkpt lat="46.00213" lon="5.60277">
        <ele>880.8</ele>
        <time>2026-05-12T17:04:54Z</time>
      </trkpt>
      <trkpt lat="46.00215" lon="5.60277">
        <ele>881</ele>
        <time>2026-05-12T17:04:55Z</time>
      </trkpt>
      <trkpt lat="46.00216" lon="5.60277">
        <ele>881</ele>
        <time>2026-05-12T17:04:56Z</time>
      </trkpt>
      <trkpt lat="46.00217" lon="5.60276">
        <ele>881</ele>
        <time>2026-05-12T17:04:57Z</time>
      </trkpt>
      <trkpt lat="46.00219" lon="5.60274">
        <ele>881.4</ele>
        <time>2026-05-12T17:04:58Z</time>
      </trkpt>
      <trkpt lat="46.00222" lon="5.60273">
        <ele>881.4</ele>
        <time>2026-05-12T17:04:59Z</time>
      </trkpt>
      <trkpt lat="46.00224" lon="5.60272">
        <ele>881.4</ele>
        <time>2026-05-12T17:05:00Z</time>
      </trkpt>
      <trkpt lat="46.00226" lon="5.60272">
        <ele>881.6</ele>
        <time>2026-05-12T17:05:01Z</time>
      </trkpt>
      <trkpt lat="46.00228" lon="5.60271">
        <ele>881.6</ele>
        <time>2026-05-12T17:05:02Z</time>
      </trkpt>
      <trkpt lat="46.0023" lon="5.60271">
        <ele>882</ele>
        <time>2026-05-12T17:05:03Z</time>
      </trkpt>
      <trkpt lat="46.00233" lon="5.6027">
        <ele>882</ele>
        <time>2026-05-12T17:05:04Z</time>
      </trkpt>
      <trkpt lat="46.00236" lon="5.6027">
        <ele>882</ele>
        <time>2026-05-12T17:05:05Z</time>
      </trkpt>
      <trkpt lat="46.00239" lon="5.6027">
        <ele>882.2</ele>
        <time>2026-05-12T17:05:06Z</time>
      </trkpt>
      <trkpt lat="46.00241" lon="5.6027">
        <ele>882.2</ele>
        <time>2026-05-12T17:05:07Z</time>
      </trkpt>
      <trkpt lat="46.00244" lon="5.60271">
        <ele>882.2</ele>
        <time>2026-05-12T17:05:08Z</time>
      </trkpt>
      <trkpt lat="46.00246" lon="5.60271">
        <ele>882.6</ele>
        <time>2026-05-12T17:05:09Z</time>
      </trkpt>
      <trkpt lat="46.00248" lon="5.60273">
        <ele>882.6</ele>
        <time>2026-05-12T17:05:10Z</time>
      </trkpt>
      <trkpt lat="46.0025" lon="5.60275">
        <ele>882.8</ele>
        <time>2026-05-12T17:05:11Z</time>
      </trkpt>
      <trkpt lat="46.00252" lon="5.60276">
        <ele>882.8</ele>
        <time>2026-05-12T17:05:12Z</time>
      </trkpt>
      <trkpt lat="46.00254" lon="5.60277">
        <ele>882.8</ele>
        <time>2026-05-12T17:05:13Z</time>
      </trkpt>
      <trkpt lat="46.00256" lon="5.60277">
        <ele>883</ele>
        <time>2026-05-12T17:05:14Z</time>
      </trkpt>
      <trkpt lat="46.00258" lon="5.60278">
        <ele>883</ele>
        <time>2026-05-12T17:05:15Z</time>
      </trkpt>
      <trkpt lat="46.00261" lon="5.60277">
        <ele>883.2</ele>
        <time>2026-05-12T17:05:16Z</time>
      </trkpt>
      <trkpt lat="46.00263" lon="5.60277">
        <ele>883.2</ele>
        <time>2026-05-12T17:05:17Z</time>
      </trkpt>
      <trkpt lat="46.00265" lon="5.60279">
        <ele>883.4</ele>
        <time>2026-05-12T17:05:18Z</time>
      </trkpt>
      <trkpt lat="46.00267" lon="5.6028">
        <ele>883.8</ele>
        <time>2026-05-12T17:05:19Z</time>
      </trkpt>
      <trkpt lat="46.00269" lon="5.60282">
        <ele>883.8</ele>
        <time>2026-05-12T17:05:20Z</time>
      </trkpt>
      <trkpt lat="46.00271" lon="5.60285">
        <ele>884</ele>
        <time>2026-05-12T17:05:21Z</time>
      </trkpt>
      <trkpt lat="46.00272" lon="5.60287">
        <ele>884</ele>
        <time>2026-05-12T17:05:22Z</time>
      </trkpt>
      <trkpt lat="46.00273" lon="5.60289">
        <ele>884</ele>
        <time>2026-05-12T17:05:23Z</time>
      </trkpt>
      <trkpt lat="46.00275" lon="5.60292">
        <ele>884.2</ele>
        <time>2026-05-12T17:05:24Z</time>
      </trkpt>
      <trkpt lat="46.00277" lon="5.60295">
        <ele>884.2</ele>
        <time>2026-05-12T17:05:25Z</time>
      </trkpt>
      <trkpt lat="46.0028" lon="5.603">
        <ele>884.4</ele>
        <time>2026-05-12T17:05:26Z</time>
      </trkpt>
      <trkpt lat="46.00281" lon="5.60303">
        <ele>884.6</ele>
        <time>2026-05-12T17:05:27Z</time>
      </trkpt>
      <trkpt lat="46.00283" lon="5.60306">
        <ele>884.6</ele>
        <time>2026-05-12T17:05:28Z</time>
      </trkpt>
      <trkpt lat="46.00283" lon="5.60309">
        <ele>885</ele>
        <time>2026-05-12T17:05:29Z</time>
      </trkpt>
      <trkpt lat="46.00284" lon="5.60312">
        <ele>885</ele>
        <time>2026-05-12T17:05:30Z</time>
      </trkpt>
      <trkpt lat="46.00285" lon="5.60316">
        <ele>885.2</ele>
        <time>2026-05-12T17:05:31Z</time>
      </trkpt>
      <trkpt lat="46.00286" lon="5.60318">
        <ele>885.2</ele>
        <time>2026-05-12T17:05:32Z</time>
      </trkpt>
      <trkpt lat="46.00287" lon="5.60322">
        <ele>885.6</ele>
        <time>2026-05-12T17:05:33Z</time>
      </trkpt>
      <trkpt lat="46.00287" lon="5.60325">
        <ele>885.6</ele>
        <time>2026-05-12T17:05:34Z</time>
      </trkpt>
      <trkpt lat="46.00288" lon="5.60329">
        <ele>885.6</ele>
        <time>2026-05-12T17:05:35Z</time>
      </trkpt>
      <trkpt lat="46.00288" lon="5.60332">
        <ele>885.8</ele>
        <time>2026-05-12T17:05:36Z</time>
      </trkpt>
      <trkpt lat="46.00289" lon="5.60336">
        <ele>885.8</ele>
        <time>2026-05-12T17:05:37Z</time>
      </trkpt>
      <trkpt lat="46.00289" lon="5.60339">
        <ele>885.8</ele>
        <time>2026-05-12T17:05:38Z</time>
      </trkpt>
      <trkpt lat="46.00289" lon="5.60339">
        <ele>886</ele>
        <time>2026-05-12T17:05:39Z</time>
      </trkpt>
      <trkpt lat="46.0029" lon="5.60343">
        <ele>886</ele>
        <time>2026-05-12T17:05:40Z</time>
      </trkpt>
      <trkpt lat="46.0029" lon="5.60346">
        <ele>886</ele>
        <time>2026-05-12T17:05:41Z</time>
      </trkpt>
      <trkpt lat="46.00291" lon="5.6035">
        <ele>886</ele>
        <time>2026-05-12T17:05:42Z</time>
      </trkpt>
      <trkpt lat="46.00291" lon="5.60353">
        <ele>886.4</ele>
        <time>2026-05-12T17:05:43Z</time>
      </trkpt>
      <trkpt lat="46.0029" lon="5.60357">
        <ele>886.6</ele>
        <time>2026-05-12T17:05:44Z</time>
      </trkpt>
      <trkpt lat="46.0029" lon="5.6036">
        <ele>886.6</ele>
        <time>2026-05-12T17:05:45Z</time>
      </trkpt>
      <trkpt lat="46.00289" lon="5.60363">
        <ele>886.6</ele>
        <time>2026-05-12T17:05:46Z</time>
      </trkpt>
      <trkpt lat="46.00289" lon="5.60367">
        <ele>887</ele>
        <time>2026-05-12T17:05:47Z</time>
      </trkpt>
      <trkpt lat="46.00289" lon="5.6037">
        <ele>887</ele>
        <time>2026-05-12T17:05:48Z</time>
      </trkpt>
      <trkpt lat="46.00288" lon="5.60374">
        <ele>887.4</ele>
        <time>2026-05-12T17:05:49Z</time>
      </trkpt>
      <trkpt lat="46.00287" lon="5.60377">
        <ele>887.4</ele>
        <time>2026-05-12T17:05:50Z</time>
      </trkpt>
      <trkpt lat="46.00286" lon="5.60381">
        <ele>887.8</ele>
        <time>2026-05-12T17:05:51Z</time>
      </trkpt>
      <trkpt lat="46.00285" lon="5.60384">
        <ele>887.8</ele>
        <time>2026-05-12T17:05:52Z</time>
      </trkpt>
      <trkpt lat="46.00283" lon="5.60388">
        <ele>887.8</ele>
        <time>2026-05-12T17:05:53Z</time>
      </trkpt>
      <trkpt lat="46.00282" lon="5.60391">
        <ele>887.8</ele>
        <time>2026-05-12T17:05:54Z</time>
      </trkpt>
      <trkpt lat="46.00281" lon="5.60394">
        <ele>888</ele>
        <time>2026-05-12T17:05:55Z</time>
      </trkpt>
      <trkpt lat="46.00281" lon="5.60398">
        <ele>888.2</ele>
        <time>2026-05-12T17:05:56Z</time>
      </trkpt>
      <trkpt lat="46.00281" lon="5.60401">
        <ele>888.2</ele>
        <time>2026-05-12T17:05:57Z</time>
      </trkpt>
      <trkpt lat="46.00281" lon="5.60405">
        <ele>888.6</ele>
        <time>2026-05-12T17:05:58Z</time>
      </trkpt>
      <trkpt lat="46.00281" lon="5.60408">
        <ele>888.6</ele>
        <time>2026-05-12T17:05:59Z</time>
      </trkpt>
      <trkpt lat="46.00282" lon="5.60412">
        <ele>888.8</ele>
        <time>2026-05-12T17:06:00Z</time>
      </trkpt>
      <trkpt lat="46.00283" lon="5.60416">
        <ele>889.2</ele>
        <time>2026-05-12T17:06:01Z</time>
      </trkpt>
      <trkpt lat="46.00284" lon="5.60419">
        <ele>889.2</ele>
        <time>2026-05-12T17:06:02Z</time>
      </trkpt>
      <trkpt lat="46.00285" lon="5.60421">
        <ele>889.2</ele>
        <time>2026-05-12T17:06:03Z</time>
      </trkpt>
      <trkpt lat="46.00287" lon="5.60423">
        <ele>889.4</ele>
        <time>2026-05-12T17:06:04Z</time>
      </trkpt>
      <trkpt lat="46.00289" lon="5.60425">
        <ele>889.4</ele>
        <time>2026-05-12T17:06:05Z</time>
      </trkpt>
      <trkpt lat="46.0029" lon="5.60427">
        <ele>889.4</ele>
        <time>2026-05-12T17:06:06Z</time>
      </trkpt>
      <trkpt lat="46.00292" lon="5.60429">
        <ele>889.6</ele>
        <time>2026-05-12T17:06:07Z</time>
      </trkpt>
      <trkpt lat="46.00293" lon="5.60431">
        <ele>889.8</ele>
        <time>2026-05-12T17:06:08Z</time>
      </trkpt>
      <trkpt lat="46.00295" lon="5.60433">
        <ele>889.8</ele>
        <time>2026-05-12T17:06:09Z</time>
      </trkpt>
      <trkpt lat="46.00297" lon="5.60436">
        <ele>890</ele>
        <time>2026-05-12T17:06:10Z</time>
      </trkpt>
      <trkpt lat="46.00298" lon="5.60438">
        <ele>890</ele>
        <time>2026-05-12T17:06:11Z</time>
      </trkpt>
      <trkpt lat="46.003" lon="5.6044">
        <ele>890.4</ele>
        <time>2026-05-12T17:06:12Z</time>
      </trkpt>
      <trkpt lat="46.00302" lon="5.60443">
        <ele>890.4</ele>
        <time>2026-05-12T17:06:13Z</time>
      </trkpt>
      <trkpt lat="46.00304" lon="5.60445">
        <ele>890.6</ele>
        <time>2026-05-12T17:06:14Z</time>
      </trkpt>
      <trkpt lat="46.00305" lon="5.60447">
        <ele>890.6</ele>
        <time>2026-05-12T17:06:15Z</time>
      </trkpt>
      <trkpt lat="46.00309" lon="5.60449">
        <ele>890.6</ele>
        <time>2026-05-12T17:06:16Z</time>
      </trkpt>
      <trkpt lat="46.00312" lon="5.60449">
        <ele>890.6</ele>
        <time>2026-05-12T17:06:17Z</time>
      </trkpt>
      <trkpt lat="46.00315" lon="5.60449">
        <ele>890.8</ele>
        <time>2026-05-12T17:06:18Z</time>
      </trkpt>
      <trkpt lat="46.00318" lon="5.60449">
        <ele>890.8</ele>
        <time>2026-05-12T17:06:19Z</time>
      </trkpt>
      <trkpt lat="46.00321" lon="5.6045">
        <ele>890.8</ele>
        <time>2026-05-12T17:06:20Z</time>
      </trkpt>
      <trkpt lat="46.00324" lon="5.60452">
        <ele>891</ele>
        <time>2026-05-12T17:06:21Z</time>
      </trkpt>
      <trkpt lat="46.00327" lon="5.60454">
        <ele>891</ele>
        <time>2026-05-12T17:06:22Z</time>
      </trkpt>
      <trkpt lat="46.00329" lon="5.60456">
        <ele>891</ele>
        <time>2026-05-12T17:06:23Z</time>
      </trkpt>
      <trkpt lat="46.00331" lon="5.60457">
        <ele>891</ele>
        <time>2026-05-12T17:06:24Z</time>
      </trkpt>
      <trkpt lat="46.00335" lon="5.60459">
        <ele>891.4</ele>
        <time>2026-05-12T17:06:25Z</time>
      </trkpt>
      <trkpt lat="46.00338" lon="5.6046">
        <ele>891.4</ele>
        <time>2026-05-12T17:06:26Z</time>
      </trkpt>
      <trkpt lat="46.00341" lon="5.6046">
        <ele>891.6</ele>
        <time>2026-05-12T17:06:27Z</time>
      </trkpt>
      <trkpt lat="46.00344" lon="5.6046">
        <ele>891.2</ele>
        <time>2026-05-12T17:06:28Z</time>
      </trkpt>
      <trkpt lat="46.00347" lon="5.6046">
        <ele>891.2</ele>
        <time>2026-05-12T17:06:29Z</time>
      </trkpt>
      <trkpt lat="46.00349" lon="5.6046">
        <ele>891.2</ele>
        <time>2026-05-12T17:06:30Z</time>
      </trkpt>
      <trkpt lat="46.00352" lon="5.60459">
        <ele>891.6</ele>
        <time>2026-05-12T17:06:31Z</time>
      </trkpt>
      <trkpt lat="46.00356" lon="5.60457">
        <ele>891.6</ele>
        <time>2026-05-12T17:06:32Z</time>
      </trkpt>
      <trkpt lat="46.00358" lon="5.60456">
        <ele>891.8</ele>
        <time>2026-05-12T17:06:33Z</time>
      </trkpt>
      <trkpt lat="46.00361" lon="5.60455">
        <ele>891.8</ele>
        <time>2026-05-12T17:06:34Z</time>
      </trkpt>
      <trkpt lat="46.00364" lon="5.60454">
        <ele>891.8</ele>
        <time>2026-05-12T17:06:35Z</time>
      </trkpt>
      <trkpt lat="46.00366" lon="5.60454">
        <ele>891.8</ele>
        <time>2026-05-12T17:06:36Z</time>
      </trkpt>
      <trkpt lat="46.0037" lon="5.60455">
        <ele>892</ele>
        <time>2026-05-12T17:06:37Z</time>
      </trkpt>
      <trkpt lat="46.00374" lon="5.60456">
        <ele>892</ele>
        <time>2026-05-12T17:06:38Z</time>
      </trkpt>
      <trkpt lat="46.00377" lon="5.60455">
        <ele>892.4</ele>
        <time>2026-05-12T17:06:39Z</time>
      </trkpt>
      <trkpt lat="46.0038" lon="5.60455">
        <ele>892.4</ele>
        <time>2026-05-12T17:06:40Z</time>
      </trkpt>
      <trkpt lat="46.00384" lon="5.60455">
        <ele>892.4</ele>
        <time>2026-05-12T17:06:41Z</time>
      </trkpt>
      <trkpt lat="46.00387" lon="5.60455">
        <ele>892.8</ele>
        <time>2026-05-12T17:06:42Z</time>
      </trkpt>
      <trkpt lat="46.00391" lon="5.60455">
        <ele>892.8</ele>
        <time>2026-05-12T17:06:43Z</time>
      </trkpt>
      <trkpt lat="46.00395" lon="5.60455">
        <ele>892.8</ele>
        <time>2026-05-12T17:06:44Z</time>
      </trkpt>
      <trkpt lat="46.00398" lon="5.60455">
        <ele>893</ele>
        <time>2026-05-12T17:06:45Z</time>
      </trkpt>
      <trkpt lat="46.00401" lon="5.60455">
        <ele>893</ele>
        <time>2026-05-12T17:06:46Z</time>
      </trkpt>
      <trkpt lat="46.00404" lon="5.60455">
        <ele>893</ele>
        <time>2026-05-12T17:06:47Z</time>
      </trkpt>
      <trkpt lat="46.00407" lon="5.60456">
        <ele>893</ele>
        <time>2026-05-12T17:06:48Z</time>
      </trkpt>
      <trkpt lat="46.0041" lon="5.60457">
        <ele>893.2</ele>
        <time>2026-05-12T17:06:49Z</time>
      </trkpt>
      <trkpt lat="46.00413" lon="5.60458">
        <ele>893.6</ele>
        <time>2026-05-12T17:06:50Z</time>
      </trkpt>
      <trkpt lat="46.00416" lon="5.60458">
        <ele>893.6</ele>
        <time>2026-05-12T17:06:51Z</time>
      </trkpt>
      <trkpt lat="46.00419" lon="5.60457">
        <ele>893.8</ele>
        <time>2026-05-12T17:06:52Z</time>
      </trkpt>
      <trkpt lat="46.00422" lon="5.60456">
        <ele>893.8</ele>
        <time>2026-05-12T17:06:53Z</time>
      </trkpt>
      <trkpt lat="46.00425" lon="5.60455">
        <ele>893.8</ele>
        <time>2026-05-12T17:06:54Z</time>
      </trkpt>
      <trkpt lat="46.00428" lon="5.60455">
        <ele>894</ele>
        <time>2026-05-12T17:06:55Z</time>
      </trkpt>
      <trkpt lat="46.00431" lon="5.60455">
        <ele>894</ele>
        <time>2026-05-12T17:06:56Z</time>
      </trkpt>
      <trkpt lat="46.00434" lon="5.60454">
        <ele>894.4</ele>
        <time>2026-05-12T17:06:57Z</time>
      </trkpt>
      <trkpt lat="46.00437" lon="5.60455">
        <ele>894.4</ele>
        <time>2026-05-12T17:06:58Z</time>
      </trkpt>
      <trkpt lat="46.0044" lon="5.60456">
        <ele>894.6</ele>
        <time>2026-05-12T17:06:59Z</time>
      </trkpt>
      <trkpt lat="46.00443" lon="5.60456">
        <ele>894.6</ele>
        <time>2026-05-12T17:07:00Z</time>
      </trkpt>
      <trkpt lat="46.00446" lon="5.60457">
        <ele>894.8</ele>
        <time>2026-05-12T17:07:01Z</time>
      </trkpt>
      <trkpt lat="46.0045" lon="5.60459">
        <ele>895</ele>
        <time>2026-05-12T17:07:02Z</time>
      </trkpt>
      <trkpt lat="46.00453" lon="5.60461">
        <ele>895</ele>
        <time>2026-05-12T17:07:03Z</time>
      </trkpt>
      <trkpt lat="46.00457" lon="5.60463">
        <ele>895</ele>
        <time>2026-05-12T17:07:04Z</time>
      </trkpt>
      <trkpt lat="46.0046" lon="5.60465">
        <ele>895.4</ele>
        <time>2026-05-12T17:07:05Z</time>
      </trkpt>
      <trkpt lat="46.00462" lon="5.60466">
        <ele>895.4</ele>
        <time>2026-05-12T17:07:06Z</time>
      </trkpt>
      <trkpt lat="46.00465" lon="5.60466">
        <ele>895.4</ele>
        <time>2026-05-12T17:07:07Z</time>
      </trkpt>
      <trkpt lat="46.00469" lon="5.60467">
        <ele>895.4</ele>
        <time>2026-05-12T17:07:08Z</time>
      </trkpt>
      <trkpt lat="46.00473" lon="5.60468">
        <ele>895.4</ele>
        <time>2026-05-12T17:07:09Z</time>
      </trkpt>
      <trkpt lat="46.00476" lon="5.6047">
        <ele>895.6</ele>
        <time>2026-05-12T17:07:10Z</time>
      </trkpt>
      <trkpt lat="46.00479" lon="5.6047">
        <ele>895.8</ele>
        <time>2026-05-12T17:07:11Z</time>
      </trkpt>
      <trkpt lat="46.00482" lon="5.60471">
        <ele>895.8</ele>
        <time>2026-05-12T17:07:12Z</time>
      </trkpt>
      <trkpt lat="46.00484" lon="5.60472">
        <ele>895.8</ele>
        <time>2026-05-12T17:07:13Z</time>
      </trkpt>
      <trkpt lat="46.00487" lon="5.60473">
        <ele>895.8</ele>
        <time>2026-05-12T17:07:14Z</time>
      </trkpt>
      <trkpt lat="46.00489" lon="5.60474">
        <ele>895.8</ele>
        <time>2026-05-12T17:07:15Z</time>
      </trkpt>
      <trkpt lat="46.00491" lon="5.60475">
        <ele>896.2</ele>
        <time>2026-05-12T17:07:16Z</time>
      </trkpt>
      <trkpt lat="46.00494" lon="5.60477">
        <ele>896.2</ele>
        <time>2026-05-12T17:07:17Z</time>
      </trkpt>
      <trkpt lat="46.00497" lon="5.60478">
        <ele>896.4</ele>
        <time>2026-05-12T17:07:18Z</time>
      </trkpt>
      <trkpt lat="46.00503" lon="5.6048">
        <ele>896.4</ele>
        <time>2026-05-12T17:07:19Z</time>
      </trkpt>
      <trkpt lat="46.00506" lon="5.60481">
        <ele>896.4</ele>
        <time>2026-05-12T17:07:20Z</time>
      </trkpt>
      <trkpt lat="46.00508" lon="5.60482">
        <ele>896.4</ele>
        <time>2026-05-12T17:07:21Z</time>
      </trkpt>
      <trkpt lat="46.00511" lon="5.60483">
        <ele>896.8</ele>
        <time>2026-05-12T17:07:22Z</time>
      </trkpt>
      <trkpt lat="46.00514" lon="5.60482">
        <ele>896.8</ele>
        <time>2026-05-12T17:07:23Z</time>
      </trkpt>
      <trkpt lat="46.00518" lon="5.60483">
        <ele>896.8</ele>
        <time>2026-05-12T17:07:24Z</time>
      </trkpt>
      <trkpt lat="46.00521" lon="5.6048">
        <ele>896.6</ele>
        <time>2026-05-12T17:07:25Z</time>
      </trkpt>
      <trkpt lat="46.00524" lon="5.60483">
        <ele>896.6</ele>
        <time>2026-05-12T17:07:26Z</time>
      </trkpt>
      <trkpt lat="46.00527" lon="5.60483">
        <ele>896.8</ele>
        <time>2026-05-12T17:07:27Z</time>
      </trkpt>
      <trkpt lat="46.00531" lon="5.60484">
        <ele>896.6</ele>
        <time>2026-05-12T17:07:28Z</time>
      </trkpt>
      <trkpt lat="46.00533" lon="5.60485">
        <ele>896.6</ele>
        <time>2026-05-12T17:07:29Z</time>
      </trkpt>
      <trkpt lat="46.00537" lon="5.60485">
        <ele>896.6</ele>
        <time>2026-05-12T17:07:30Z</time>
      </trkpt>
      <trkpt lat="46.0054" lon="5.60486">
        <ele>896.6</ele>
        <time>2026-05-12T17:07:31Z</time>
      </trkpt>
      <trkpt lat="46.00544" lon="5.60486">
        <ele>896.6</ele>
        <time>2026-05-12T17:07:32Z</time>
      </trkpt>
      <trkpt lat="46.00548" lon="5.60487">
        <ele>896.8</ele>
        <time>2026-05-12T17:07:33Z</time>
      </trkpt>
      <trkpt lat="46.0055" lon="5.60487">
        <ele>896.8</ele>
        <time>2026-05-12T17:07:34Z</time>
      </trkpt>
      <trkpt lat="46.00551" lon="5.60488">
        <ele>896.8</ele>
        <time>2026-05-12T17:07:35Z</time>
      </trkpt>
      <trkpt lat="46.00553" lon="5.60488">
        <ele>896.8</ele>
        <time>2026-05-12T17:07:36Z</time>
      </trkpt>
      <trkpt lat="46.00554" lon="5.6049">
        <ele>896.8</ele>
        <time>2026-05-12T17:07:37Z</time>
      </trkpt>
      <trkpt lat="46.00557" lon="5.60492">
        <ele>896.8</ele>
        <time>2026-05-12T17:07:38Z</time>
      </trkpt>
      <trkpt lat="46.00561" lon="5.60493">
        <ele>896.8</ele>
        <time>2026-05-12T17:07:39Z</time>
      </trkpt>
      <trkpt lat="46.00565" lon="5.60493">
        <ele>896.8</ele>
        <time>2026-05-12T17:07:40Z</time>
      </trkpt>
      <trkpt lat="46.0057" lon="5.60493">
        <ele>896.8</ele>
        <time>2026-05-12T17:07:41Z</time>
      </trkpt>
      <trkpt lat="46.00574" lon="5.60493">
        <ele>896.8</ele>
        <time>2026-05-12T17:07:42Z</time>
      </trkpt>
      <trkpt lat="46.00582" lon="5.60494">
        <ele>896.8</ele>
        <time>2026-05-12T17:07:43Z</time>
      </trkpt>
      <trkpt lat="46.00588" lon="5.60497">
        <ele>896.4</ele>
        <time>2026-05-12T17:07:44Z</time>
      </trkpt>
      <trkpt lat="46.00594" lon="5.60495">
        <ele>896.4</ele>
        <time>2026-05-12T17:07:45Z</time>
      </trkpt>
      <trkpt lat="46.00598" lon="5.60497">
        <ele>896.4</ele>
        <time>2026-05-12T17:07:46Z</time>
      </trkpt>
      <trkpt lat="46.00603" lon="5.60497">
        <ele>896</ele>
        <time>2026-05-12T17:07:47Z</time>
      </trkpt>
      <trkpt lat="46.00608" lon="5.60496">
        <ele>896</ele>
        <time>2026-05-12T17:07:48Z</time>
      </trkpt>
      <trkpt lat="46.00612" lon="5.60496">
        <ele>896</ele>
        <time>2026-05-12T17:07:49Z</time>
      </trkpt>
      <trkpt lat="46.00616" lon="5.60494">
        <ele>896</ele>
        <time>2026-05-12T17:07:50Z</time>
      </trkpt>
      <trkpt lat="46.00622" lon="5.60494">
        <ele>896</ele>
        <time>2026-05-12T17:07:51Z</time>
      </trkpt>
      <trkpt lat="46.00627" lon="5.60494">
        <ele>896</ele>
        <time>2026-05-12T17:07:52Z</time>
      </trkpt>
      <trkpt lat="46.00632" lon="5.60494">
        <ele>896</ele>
        <time>2026-05-12T17:07:53Z</time>
      </trkpt>
      <trkpt lat="46.00637" lon="5.60494">
        <ele>896</ele>
        <time>2026-05-12T17:07:54Z</time>
      </trkpt>
      <trkpt lat="46.00642" lon="5.60493">
        <ele>896</ele>
        <time>2026-05-12T17:07:55Z</time>
      </trkpt>
      <trkpt lat="46.00647" lon="5.60492">
        <ele>896</ele>
        <time>2026-05-12T17:07:56Z</time>
      </trkpt>
      <trkpt lat="46.00652" lon="5.60491">
        <ele>896</ele>
        <time>2026-05-12T17:07:57Z</time>
      </trkpt>
      <trkpt lat="46.00657" lon="5.60491">
        <ele>895.8</ele>
        <time>2026-05-12T17:07:58Z</time>
      </trkpt>
      <trkpt lat="46.00662" lon="5.6049">
        <ele>895.6</ele>
        <time>2026-05-12T17:07:59Z</time>
      </trkpt>
      <trkpt lat="46.00667" lon="5.60489">
        <ele>895.6</ele>
        <time>2026-05-12T17:08:00Z</time>
      </trkpt>
      <trkpt lat="46.00672" lon="5.60488">
        <ele>895.2</ele>
        <time>2026-05-12T17:08:01Z</time>
      </trkpt>
      <trkpt lat="46.00677" lon="5.60486">
        <ele>895.2</ele>
        <time>2026-05-12T17:08:02Z</time>
      </trkpt>
      <trkpt lat="46.00682" lon="5.60486">
        <ele>895.2</ele>
        <time>2026-05-12T17:08:03Z</time>
      </trkpt>
      <trkpt lat="46.00687" lon="5.60485">
        <ele>895.2</ele>
        <time>2026-05-12T17:08:04Z</time>
      </trkpt>
      <trkpt lat="46.00692" lon="5.60484">
        <ele>894.8</ele>
        <time>2026-05-12T17:08:05Z</time>
      </trkpt>
      <trkpt lat="46.00698" lon="5.60483">
        <ele>894.6</ele>
        <time>2026-05-12T17:08:06Z</time>
      </trkpt>
      <trkpt lat="46.00703" lon="5.60482">
        <ele>894.2</ele>
        <time>2026-05-12T17:08:07Z</time>
      </trkpt>
      <trkpt lat="46.00709" lon="5.6048">
        <ele>894.2</ele>
        <time>2026-05-12T17:08:08Z</time>
      </trkpt>
      <trkpt lat="46.00714" lon="5.6048">
        <ele>893.8</ele>
        <time>2026-05-12T17:08:09Z</time>
      </trkpt>
      <trkpt lat="46.00719" lon="5.60479">
        <ele>893.6</ele>
        <time>2026-05-12T17:08:10Z</time>
      </trkpt>
      <trkpt lat="46.00725" lon="5.60477">
        <ele>893.6</ele>
        <time>2026-05-12T17:08:11Z</time>
      </trkpt>
      <trkpt lat="46.0073" lon="5.60475">
        <ele>893</ele>
        <time>2026-05-12T17:08:12Z</time>
      </trkpt>
      <trkpt lat="46.00736" lon="5.60472">
        <ele>892.6</ele>
        <time>2026-05-12T17:08:13Z</time>
      </trkpt>
      <trkpt lat="46.00741" lon="5.60468">
        <ele>892.2</ele>
        <time>2026-05-12T17:08:14Z</time>
      </trkpt>
      <trkpt lat="46.00747" lon="5.60463">
        <ele>891.8</ele>
        <time>2026-05-12T17:08:15Z</time>
      </trkpt>
      <trkpt lat="46.00752" lon="5.60458">
        <ele>891.8</ele>
        <time>2026-05-12T17:08:16Z</time>
      </trkpt>
      <trkpt lat="46.00756" lon="5.60451">
        <ele>891.2</ele>
        <time>2026-05-12T17:08:17Z</time>
      </trkpt>
      <trkpt lat="46.00761" lon="5.60444">
        <ele>890.8</ele>
        <time>2026-05-12T17:08:18Z</time>
      </trkpt>
      <trkpt lat="46.00765" lon="5.60437">
        <ele>890.6</ele>
        <time>2026-05-12T17:08:19Z</time>
      </trkpt>
      <trkpt lat="46.00769" lon="5.60429">
        <ele>890</ele>
        <time>2026-05-12T17:08:20Z</time>
      </trkpt>
      <trkpt lat="46.00772" lon="5.6042">
        <ele>889.2</ele>
        <time>2026-05-12T17:08:21Z</time>
      </trkpt>
      <trkpt lat="46.00776" lon="5.60411">
        <ele>888.6</ele>
        <time>2026-05-12T17:08:22Z</time>
      </trkpt>
      <trkpt lat="46.00779" lon="5.60402">
        <ele>887.8</ele>
        <time>2026-05-12T17:08:23Z</time>
      </trkpt>
      <trkpt lat="46.00781" lon="5.60392">
        <ele>887</ele>
        <time>2026-05-12T17:08:24Z</time>
      </trkpt>
      <trkpt lat="46.00784" lon="5.60382">
        <ele>886.2</ele>
        <time>2026-05-12T17:08:25Z</time>
      </trkpt>
      <trkpt lat="46.00786" lon="5.60372">
        <ele>886</ele>
        <time>2026-05-12T17:08:26Z</time>
      </trkpt>
      <trkpt lat="46.00788" lon="5.60362">
        <ele>885.4</ele>
        <time>2026-05-12T17:08:27Z</time>
      </trkpt>
      <trkpt lat="46.00791" lon="5.60351">
        <ele>885.2</ele>
        <time>2026-05-12T17:08:28Z</time>
      </trkpt>
      <trkpt lat="46.00795" lon="5.60342">
        <ele>884.8</ele>
        <time>2026-05-12T17:08:29Z</time>
      </trkpt>
      <trkpt lat="46.00797" lon="5.60331">
        <ele>884.4</ele>
        <time>2026-05-12T17:08:30Z</time>
      </trkpt>
      <trkpt lat="46.008" lon="5.60319">
        <ele>884</ele>
        <time>2026-05-12T17:08:31Z</time>
      </trkpt>
      <trkpt lat="46.00803" lon="5.60307">
        <ele>883.4</ele>
        <time>2026-05-12T17:08:32Z</time>
      </trkpt>
      <trkpt lat="46.00806" lon="5.60296">
        <ele>883</ele>
        <time>2026-05-12T17:08:33Z</time>
      </trkpt>
      <trkpt lat="46.00809" lon="5.60284">
        <ele>882</ele>
        <time>2026-05-12T17:08:34Z</time>
      </trkpt>
      <trkpt lat="46.00812" lon="5.60272">
        <ele>881.4</ele>
        <time>2026-05-12T17:08:35Z</time>
      </trkpt>
      <trkpt lat="46.00816" lon="5.6026">
        <ele>880.8</ele>
        <time>2026-05-12T17:08:36Z</time>
      </trkpt>
      <trkpt lat="46.0082" lon="5.60248">
        <ele>880.4</ele>
        <time>2026-05-12T17:08:37Z</time>
      </trkpt>
      <trkpt lat="46.00825" lon="5.60238">
        <ele>880</ele>
        <time>2026-05-12T17:08:38Z</time>
      </trkpt>
      <trkpt lat="46.00831" lon="5.60227">
        <ele>879.6</ele>
        <time>2026-05-12T17:08:39Z</time>
      </trkpt>
      <trkpt lat="46.00838" lon="5.60217">
        <ele>879.2</ele>
        <time>2026-05-12T17:08:40Z</time>
      </trkpt>
      <trkpt lat="46.00852" lon="5.602">
        <ele>878.6</ele>
        <time>2026-05-12T17:08:41Z</time>
      </trkpt>
      <trkpt lat="46.0086" lon="5.60191">
        <ele>878</ele>
        <time>2026-05-12T17:08:42Z</time>
      </trkpt>
      <trkpt lat="46.00867" lon="5.60183">
        <ele>877.4</ele>
        <time>2026-05-12T17:08:43Z</time>
      </trkpt>
      <trkpt lat="46.00873" lon="5.60174">
        <ele>876.8</ele>
        <time>2026-05-12T17:08:44Z</time>
      </trkpt>
      <trkpt lat="46.0088" lon="5.60165">
        <ele>876.2</ele>
        <time>2026-05-12T17:08:45Z</time>
      </trkpt>
      <trkpt lat="46.00886" lon="5.60153">
        <ele>876.2</ele>
        <time>2026-05-12T17:08:46Z</time>
      </trkpt>
      <trkpt lat="46.00891" lon="5.60141">
        <ele>876.2</ele>
        <time>2026-05-12T17:08:47Z</time>
      </trkpt>
      <trkpt lat="46.00894" lon="5.60128">
        <ele>875.6</ele>
        <time>2026-05-12T17:08:48Z</time>
      </trkpt>
      <trkpt lat="46.00897" lon="5.60115">
        <ele>875</ele>
        <time>2026-05-12T17:08:49Z</time>
      </trkpt>
      <trkpt lat="46.00901" lon="5.60101">
        <ele>874.4</ele>
        <time>2026-05-12T17:08:50Z</time>
      </trkpt>
      <trkpt lat="46.00906" lon="5.60087">
        <ele>873.6</ele>
        <time>2026-05-12T17:08:51Z</time>
      </trkpt>
      <trkpt lat="46.00909" lon="5.60074">
        <ele>872.6</ele>
        <time>2026-05-12T17:08:52Z</time>
      </trkpt>
      <trkpt lat="46.00914" lon="5.60059">
        <ele>872</ele>
        <time>2026-05-12T17:08:53Z</time>
      </trkpt>
      <trkpt lat="46.00917" lon="5.60047">
        <ele>871.2</ele>
        <time>2026-05-12T17:08:54Z</time>
      </trkpt>
      <trkpt lat="46.00921" lon="5.60033">
        <ele>871.2</ele>
        <time>2026-05-12T17:08:55Z</time>
      </trkpt>
      <trkpt lat="46.00926" lon="5.60017">
        <ele>870.4</ele>
        <time>2026-05-12T17:08:56Z</time>
      </trkpt>
      <trkpt lat="46.0093" lon="5.60003">
        <ele>869.8</ele>
        <time>2026-05-12T17:08:57Z</time>
      </trkpt>
      <trkpt lat="46.0093" lon="5.60003">
        <ele>869.2</ele>
        <time>2026-05-12T17:08:58Z</time>
      </trkpt>
      <trkpt lat="46.00935" lon="5.59989">
        <ele>868.6</ele>
        <time>2026-05-12T17:08:59Z</time>
      </trkpt>
      <trkpt lat="46.00939" lon="5.59975">
        <ele>867.8</ele>
        <time>2026-05-12T17:09:00Z</time>
      </trkpt>
      <trkpt lat="46.00946" lon="5.59962">
        <ele>867.2</ele>
        <time>2026-05-12T17:09:01Z</time>
      </trkpt>
      <trkpt lat="46.00954" lon="5.59951">
        <ele>866</ele>
        <time>2026-05-12T17:09:02Z</time>
      </trkpt>
      <trkpt lat="46.00962" lon="5.59941">
        <ele>865.4</ele>
        <time>2026-05-12T17:09:03Z</time>
      </trkpt>
      <trkpt lat="46.00971" lon="5.59932">
        <ele>864.8</ele>
        <time>2026-05-12T17:09:04Z</time>
      </trkpt>
      <trkpt lat="46.00981" lon="5.59927">
        <ele>864.4</ele>
        <time>2026-05-12T17:09:05Z</time>
      </trkpt>
      <trkpt lat="46.00991" lon="5.5992">
        <ele>864.4</ele>
        <time>2026-05-12T17:09:06Z</time>
      </trkpt>
      <trkpt lat="46.01002" lon="5.59919">
        <ele>863.4</ele>
        <time>2026-05-12T17:09:07Z</time>
      </trkpt>
      <trkpt lat="46.01013" lon="5.59922">
        <ele>862.8</ele>
        <time>2026-05-12T17:09:08Z</time>
      </trkpt>
      <trkpt lat="46.0102" lon="5.59923">
        <ele>862.6</ele>
        <time>2026-05-12T17:09:09Z</time>
      </trkpt>
      <trkpt lat="46.01033" lon="5.59927">
        <ele>861.6</ele>
        <time>2026-05-12T17:09:10Z</time>
      </trkpt>
      <trkpt lat="46.01044" lon="5.59927">
        <ele>861.4</ele>
        <time>2026-05-12T17:09:11Z</time>
      </trkpt>
      <trkpt lat="46.01054" lon="5.59928">
        <ele>860.8</ele>
        <time>2026-05-12T17:09:12Z</time>
      </trkpt>
      <trkpt lat="46.01065" lon="5.59927">
        <ele>860.4</ele>
        <time>2026-05-12T17:09:13Z</time>
      </trkpt>
      <trkpt lat="46.01076" lon="5.59925">
        <ele>860</ele>
        <time>2026-05-12T17:09:14Z</time>
      </trkpt>
      <trkpt lat="46.01086" lon="5.5992">
        <ele>859.6</ele>
        <time>2026-05-12T17:09:15Z</time>
      </trkpt>
      <trkpt lat="46.01096" lon="5.59915">
        <ele>859.6</ele>
        <time>2026-05-12T17:09:16Z</time>
      </trkpt>
      <trkpt lat="46.01106" lon="5.59912">
        <ele>859.4</ele>
        <time>2026-05-12T17:09:17Z</time>
      </trkpt>
      <trkpt lat="46.01118" lon="5.59906">
        <ele>859</ele>
        <time>2026-05-12T17:09:18Z</time>
      </trkpt>
      <trkpt lat="46.01127" lon="5.59903">
        <ele>858.6</ele>
        <time>2026-05-12T17:09:19Z</time>
      </trkpt>
      <trkpt lat="46.01137" lon="5.59897">
        <ele>858.6</ele>
        <time>2026-05-12T17:09:20Z</time>
      </trkpt>
      <trkpt lat="46.01146" lon="5.59893">
        <ele>857.8</ele>
        <time>2026-05-12T17:09:21Z</time>
      </trkpt>
      <trkpt lat="46.01155" lon="5.59889">
        <ele>857.8</ele>
        <time>2026-05-12T17:09:22Z</time>
      </trkpt>
      <trkpt lat="46.01165" lon="5.59884">
        <ele>857.4</ele>
        <time>2026-05-12T17:09:23Z</time>
      </trkpt>
      <trkpt lat="46.01175" lon="5.5988">
        <ele>857.4</ele>
        <time>2026-05-12T17:09:24Z</time>
      </trkpt>
      <trkpt lat="46.01184" lon="5.59877">
        <ele>857.4</ele>
        <time>2026-05-12T17:09:25Z</time>
      </trkpt>
      <trkpt lat="46.01192" lon="5.59875">
        <ele>857.4</ele>
        <time>2026-05-12T17:09:26Z</time>
      </trkpt>
      <trkpt lat="46.012" lon="5.59874">
        <ele>857.4</ele>
        <time>2026-05-12T17:09:27Z</time>
      </trkpt>
      <trkpt lat="46.01208" lon="5.59872">
        <ele>857.4</ele>
        <time>2026-05-12T17:09:28Z</time>
      </trkpt>
      <trkpt lat="46.01216" lon="5.59871">
        <ele>857.4</ele>
        <time>2026-05-12T17:09:29Z</time>
      </trkpt>
      <trkpt lat="46.01223" lon="5.59869">
        <ele>857.4</ele>
        <time>2026-05-12T17:09:30Z</time>
      </trkpt>
      <trkpt lat="46.0123" lon="5.59868">
        <ele>857.8</ele>
        <time>2026-05-12T17:09:31Z</time>
      </trkpt>
      <trkpt lat="46.01236" lon="5.59867">
        <ele>857.8</ele>
        <time>2026-05-12T17:09:32Z</time>
      </trkpt>
      <trkpt lat="46.01243" lon="5.59866">
        <ele>857.8</ele>
        <time>2026-05-12T17:09:33Z</time>
      </trkpt>
      <trkpt lat="46.0125" lon="5.59865">
        <ele>857.8</ele>
        <time>2026-05-12T17:09:34Z</time>
      </trkpt>
      <trkpt lat="46.01257" lon="5.59864">
        <ele>857.8</ele>
        <time>2026-05-12T17:09:35Z</time>
      </trkpt>
      <trkpt lat="46.01263" lon="5.59864">
        <ele>857.6</ele>
        <time>2026-05-12T17:09:36Z</time>
      </trkpt>
      <trkpt lat="46.0127" lon="5.59863">
        <ele>857.6</ele>
        <time>2026-05-12T17:09:37Z</time>
      </trkpt>
      <trkpt lat="46.01276" lon="5.59861">
        <ele>857.6</ele>
        <time>2026-05-12T17:09:38Z</time>
      </trkpt>
      <trkpt lat="46.01283" lon="5.5986">
        <ele>857.6</ele>
        <time>2026-05-12T17:09:39Z</time>
      </trkpt>
      <trkpt lat="46.01288" lon="5.59859">
        <ele>857.6</ele>
        <time>2026-05-12T17:09:40Z</time>
      </trkpt>
      <trkpt lat="46.01295" lon="5.59858">
        <ele>857.6</ele>
        <time>2026-05-12T17:09:41Z</time>
      </trkpt>
      <trkpt lat="46.013" lon="5.59857">
        <ele>857.8</ele>
        <time>2026-05-12T17:09:42Z</time>
      </trkpt>
      <trkpt lat="46.01306" lon="5.59857">
        <ele>857.8</ele>
        <time>2026-05-12T17:09:43Z</time>
      </trkpt>
      <trkpt lat="46.01312" lon="5.59856">
        <ele>857.8</ele>
        <time>2026-05-12T17:09:44Z</time>
      </trkpt>
      <trkpt lat="46.01317" lon="5.59855">
        <ele>857.8</ele>
        <time>2026-05-12T17:09:45Z</time>
      </trkpt>
      <trkpt lat="46.01322" lon="5.59854">
        <ele>857.8</ele>
        <time>2026-05-12T17:09:46Z</time>
      </trkpt>
      <trkpt lat="46.01327" lon="5.59854">
        <ele>857.8</ele>
        <time>2026-05-12T17:09:47Z</time>
      </trkpt>
      <trkpt lat="46.01332" lon="5.59852">
        <ele>857.8</ele>
        <time>2026-05-12T17:09:48Z</time>
      </trkpt>
      <trkpt lat="46.01337" lon="5.59851">
        <ele>857.8</ele>
        <time>2026-05-12T17:09:49Z</time>
      </trkpt>
      <trkpt lat="46.01342" lon="5.59852">
        <ele>857.6</ele>
        <time>2026-05-12T17:09:50Z</time>
      </trkpt>
      <trkpt lat="46.01347" lon="5.5985">
        <ele>857.2</ele>
        <time>2026-05-12T17:09:51Z</time>
      </trkpt>
      <trkpt lat="46.01352" lon="5.59849">
        <ele>857.2</ele>
        <time>2026-05-12T17:09:52Z</time>
      </trkpt>
      <trkpt lat="46.01357" lon="5.59847">
        <ele>856.8</ele>
        <time>2026-05-12T17:09:53Z</time>
      </trkpt>
      <trkpt lat="46.01363" lon="5.59845">
        <ele>856.8</ele>
        <time>2026-05-12T17:09:54Z</time>
      </trkpt>
      <trkpt lat="46.01369" lon="5.59844">
        <ele>856.2</ele>
        <time>2026-05-12T17:09:55Z</time>
      </trkpt>
      <trkpt lat="46.01375" lon="5.59842">
        <ele>856.2</ele>
        <time>2026-05-12T17:09:56Z</time>
      </trkpt>
      <trkpt lat="46.01381" lon="5.5984">
        <ele>856</ele>
        <time>2026-05-12T17:09:57Z</time>
      </trkpt>
      <trkpt lat="46.01387" lon="5.59836">
        <ele>855.6</ele>
        <time>2026-05-12T17:09:58Z</time>
      </trkpt>
      <trkpt lat="46.01391" lon="5.59832">
        <ele>855.4</ele>
        <time>2026-05-12T17:09:59Z</time>
      </trkpt>
      <trkpt lat="46.01397" lon="5.59828">
        <ele>855.4</ele>
        <time>2026-05-12T17:10:00Z</time>
      </trkpt>
      <trkpt lat="46.01403" lon="5.59824">
        <ele>855.2</ele>
        <time>2026-05-12T17:10:01Z</time>
      </trkpt>
      <trkpt lat="46.01408" lon="5.5982">
        <ele>854.8</ele>
        <time>2026-05-12T17:10:02Z</time>
      </trkpt>
      <trkpt lat="46.01415" lon="5.59816">
        <ele>854.8</ele>
        <time>2026-05-12T17:10:03Z</time>
      </trkpt>
      <trkpt lat="46.01421" lon="5.59812">
        <ele>854.6</ele>
        <time>2026-05-12T17:10:04Z</time>
      </trkpt>
      <trkpt lat="46.01428" lon="5.59811">
        <ele>854.6</ele>
        <time>2026-05-12T17:10:05Z</time>
      </trkpt>
      <trkpt lat="46.01435" lon="5.59809">
        <ele>854.6</ele>
        <time>2026-05-12T17:10:06Z</time>
      </trkpt>
      <trkpt lat="46.01442" lon="5.59812">
        <ele>854.2</ele>
        <time>2026-05-12T17:10:07Z</time>
      </trkpt>
      <trkpt lat="46.01447" lon="5.59815">
        <ele>854.2</ele>
        <time>2026-05-12T17:10:08Z</time>
      </trkpt>
      <trkpt lat="46.01454" lon="5.59817">
        <ele>853.8</ele>
        <time>2026-05-12T17:10:09Z</time>
      </trkpt>
      <trkpt lat="46.01461" lon="5.59819">
        <ele>853.8</ele>
        <time>2026-05-12T17:10:10Z</time>
      </trkpt>
      <trkpt lat="46.01466" lon="5.59821">
        <ele>853.8</ele>
        <time>2026-05-12T17:10:11Z</time>
      </trkpt>
      <trkpt lat="46.01471" lon="5.59822">
        <ele>853.8</ele>
        <time>2026-05-12T17:10:12Z</time>
      </trkpt>
      <trkpt lat="46.01477" lon="5.59824">
        <ele>853.8</ele>
        <time>2026-05-12T17:10:13Z</time>
      </trkpt>
      <trkpt lat="46.01483" lon="5.59826">
        <ele>853.8</ele>
        <time>2026-05-12T17:10:14Z</time>
      </trkpt>
      <trkpt lat="46.01488" lon="5.59827">
        <ele>853.8</ele>
        <time>2026-05-12T17:10:15Z</time>
      </trkpt>
      <trkpt lat="46.01494" lon="5.59828">
        <ele>853.6</ele>
        <time>2026-05-12T17:10:16Z</time>
      </trkpt>
      <trkpt lat="46.01499" lon="5.59829">
        <ele>853.6</ele>
        <time>2026-05-12T17:10:17Z</time>
      </trkpt>
      <trkpt lat="46.01505" lon="5.59829">
        <ele>853.6</ele>
        <time>2026-05-12T17:10:18Z</time>
      </trkpt>
      <trkpt lat="46.01511" lon="5.59829">
        <ele>853.6</ele>
        <time>2026-05-12T17:10:19Z</time>
      </trkpt>
      <trkpt lat="46.01516" lon="5.59827">
        <ele>853.6</ele>
        <time>2026-05-12T17:10:20Z</time>
      </trkpt>
      <trkpt lat="46.01521" lon="5.59829">
        <ele>853.6</ele>
        <time>2026-05-12T17:10:21Z</time>
      </trkpt>
      <trkpt lat="46.01527" lon="5.59829">
        <ele>853.6</ele>
        <time>2026-05-12T17:10:22Z</time>
      </trkpt>
      <trkpt lat="46.01532" lon="5.59828">
        <ele>853.4</ele>
        <time>2026-05-12T17:10:23Z</time>
      </trkpt>
      <trkpt lat="46.01538" lon="5.59829">
        <ele>853.4</ele>
        <time>2026-05-12T17:10:24Z</time>
      </trkpt>
      <trkpt lat="46.01542" lon="5.59829">
        <ele>853.4</ele>
        <time>2026-05-12T17:10:25Z</time>
      </trkpt>
      <trkpt lat="46.01547" lon="5.59827">
        <ele>853.4</ele>
        <time>2026-05-12T17:10:26Z</time>
      </trkpt>
      <trkpt lat="46.01552" lon="5.59826">
        <ele>853.4</ele>
        <time>2026-05-12T17:10:27Z</time>
      </trkpt>
      <trkpt lat="46.01558" lon="5.59828">
        <ele>853.4</ele>
        <time>2026-05-12T17:10:28Z</time>
      </trkpt>
      <trkpt lat="46.01563" lon="5.5983">
        <ele>852.8</ele>
        <time>2026-05-12T17:10:29Z</time>
      </trkpt>
      <trkpt lat="46.01567" lon="5.59832">
        <ele>852.8</ele>
        <time>2026-05-12T17:10:30Z</time>
      </trkpt>
      <trkpt lat="46.01572" lon="5.59835">
        <ele>852.6</ele>
        <time>2026-05-12T17:10:31Z</time>
      </trkpt>
      <trkpt lat="46.01577" lon="5.59836">
        <ele>852.6</ele>
        <time>2026-05-12T17:10:32Z</time>
      </trkpt>
      <trkpt lat="46.01582" lon="5.59838">
        <ele>852.2</ele>
        <time>2026-05-12T17:10:33Z</time>
      </trkpt>
      <trkpt lat="46.01587" lon="5.59839">
        <ele>852.2</ele>
        <time>2026-05-12T17:10:34Z</time>
      </trkpt>
      <trkpt lat="46.01591" lon="5.5984">
        <ele>852.2</ele>
        <time>2026-05-12T17:10:35Z</time>
      </trkpt>
      <trkpt lat="46.01597" lon="5.59842">
        <ele>852</ele>
        <time>2026-05-12T17:10:36Z</time>
      </trkpt>
      <trkpt lat="46.01602" lon="5.59843">
        <ele>851.8</ele>
        <time>2026-05-12T17:10:37Z</time>
      </trkpt>
      <trkpt lat="46.01608" lon="5.59844">
        <ele>851.4</ele>
        <time>2026-05-12T17:10:38Z</time>
      </trkpt>
      <trkpt lat="46.01613" lon="5.59845">
        <ele>851</ele>
        <time>2026-05-12T17:10:39Z</time>
      </trkpt>
      <trkpt lat="46.0162" lon="5.59845">
        <ele>850.8</ele>
        <time>2026-05-12T17:10:40Z</time>
      </trkpt>
      <trkpt lat="46.01626" lon="5.59846">
        <ele>850.4</ele>
        <time>2026-05-12T17:10:41Z</time>
      </trkpt>
      <trkpt lat="46.01632" lon="5.59846">
        <ele>850</ele>
        <time>2026-05-12T17:10:42Z</time>
      </trkpt>
      <trkpt lat="46.01639" lon="5.59849">
        <ele>849.4</ele>
        <time>2026-05-12T17:10:43Z</time>
      </trkpt>
      <trkpt lat="46.01646" lon="5.59849">
        <ele>848.8</ele>
        <time>2026-05-12T17:10:44Z</time>
      </trkpt>
      <trkpt lat="46.01652" lon="5.59846">
        <ele>848.4</ele>
        <time>2026-05-12T17:10:45Z</time>
      </trkpt>
      <trkpt lat="46.01658" lon="5.59841">
        <ele>848</ele>
        <time>2026-05-12T17:10:46Z</time>
      </trkpt>
      <trkpt lat="46.01664" lon="5.59834">
        <ele>847.8</ele>
        <time>2026-05-12T17:10:47Z</time>
      </trkpt>
      <trkpt lat="46.01669" lon="5.59826">
        <ele>847.4</ele>
        <time>2026-05-12T17:10:48Z</time>
      </trkpt>
      <trkpt lat="46.01674" lon="5.59819">
        <ele>846.8</ele>
        <time>2026-05-12T17:10:49Z</time>
      </trkpt>
      <trkpt lat="46.01679" lon="5.59811">
        <ele>846.2</ele>
        <time>2026-05-12T17:10:50Z</time>
      </trkpt>
      <trkpt lat="46.01683" lon="5.59803">
        <ele>846</ele>
        <time>2026-05-12T17:10:51Z</time>
      </trkpt>
      <trkpt lat="46.01687" lon="5.59794">
        <ele>845.6</ele>
        <time>2026-05-12T17:10:52Z</time>
      </trkpt>
      <trkpt lat="46.01691" lon="5.59786">
        <ele>845.8</ele>
        <time>2026-05-12T17:10:53Z</time>
      </trkpt>
      <trkpt lat="46.01695" lon="5.59779">
        <ele>845.8</ele>
        <time>2026-05-12T17:10:54Z</time>
      </trkpt>
      <trkpt lat="46.01697" lon="5.59771">
        <ele>845.6</ele>
        <time>2026-05-12T17:10:55Z</time>
      </trkpt>
      <trkpt lat="46.01699" lon="5.59765">
        <ele>845.6</ele>
        <time>2026-05-12T17:10:56Z</time>
      </trkpt>
      <trkpt lat="46.01702" lon="5.59763">
        <ele>846</ele>
        <time>2026-05-12T17:10:57Z</time>
      </trkpt>
      <trkpt lat="46.01705" lon="5.59759">
        <ele>846</ele>
        <time>2026-05-12T17:10:58Z</time>
      </trkpt>
      <trkpt lat="46.01707" lon="5.59755">
        <ele>845.8</ele>
        <time>2026-05-12T17:10:59Z</time>
      </trkpt>
      <trkpt lat="46.01709" lon="5.59749">
        <ele>846</ele>
        <time>2026-05-12T17:11:00Z</time>
      </trkpt>
      <trkpt lat="46.01711" lon="5.59742">
        <ele>845.6</ele>
        <time>2026-05-12T17:11:01Z</time>
      </trkpt>
      <trkpt lat="46.01713" lon="5.59737">
        <ele>845.4</ele>
        <time>2026-05-12T17:11:02Z</time>
      </trkpt>
      <trkpt lat="46.01716" lon="5.59731">
        <ele>845.4</ele>
        <time>2026-05-12T17:11:03Z</time>
      </trkpt>
      <trkpt lat="46.01718" lon="5.59727">
        <ele>844.8</ele>
        <time>2026-05-12T17:11:04Z</time>
      </trkpt>
      <trkpt lat="46.01721" lon="5.59722">
        <ele>844.6</ele>
        <time>2026-05-12T17:11:05Z</time>
      </trkpt>
      <trkpt lat="46.01724" lon="5.59717">
        <ele>844.6</ele>
        <time>2026-05-12T17:11:06Z</time>
      </trkpt>
      <trkpt lat="46.01727" lon="5.59713">
        <ele>844.8</ele>
        <time>2026-05-12T17:11:07Z</time>
      </trkpt>
      <trkpt lat="46.01729" lon="5.59708">
        <ele>844.8</ele>
        <time>2026-05-12T17:11:08Z</time>
      </trkpt>
      <trkpt lat="46.01731" lon="5.59702">
        <ele>844.8</ele>
        <time>2026-05-12T17:11:09Z</time>
      </trkpt>
      <trkpt lat="46.01734" lon="5.59696">
        <ele>844.6</ele>
        <time>2026-05-12T17:11:10Z</time>
      </trkpt>
      <trkpt lat="46.01736" lon="5.5969">
        <ele>844.6</ele>
        <time>2026-05-12T17:11:11Z</time>
      </trkpt>
      <trkpt lat="46.01739" lon="5.59684">
        <ele>844.6</ele>
        <time>2026-05-12T17:11:12Z</time>
      </trkpt>
      <trkpt lat="46.01741" lon="5.59678">
        <ele>844.2</ele>
        <time>2026-05-12T17:11:13Z</time>
      </trkpt>
      <trkpt lat="46.01744" lon="5.59673">
        <ele>844.2</ele>
        <time>2026-05-12T17:11:14Z</time>
      </trkpt>
      <trkpt lat="46.01747" lon="5.59668">
        <ele>844.2</ele>
        <time>2026-05-12T17:11:15Z</time>
      </trkpt>
      <trkpt lat="46.01748" lon="5.59662">
        <ele>843.8</ele>
        <time>2026-05-12T17:11:16Z</time>
      </trkpt>
      <trkpt lat="46.01748" lon="5.59655">
        <ele>843.8</ele>
        <time>2026-05-12T17:11:17Z</time>
      </trkpt>
      <trkpt lat="46.01748" lon="5.59648">
        <ele>843.8</ele>
        <time>2026-05-12T17:11:18Z</time>
      </trkpt>
      <trkpt lat="46.01749" lon="5.59643">
        <ele>843.8</ele>
        <time>2026-05-12T17:11:19Z</time>
      </trkpt>
      <trkpt lat="46.01751" lon="5.59636">
        <ele>843.4</ele>
        <time>2026-05-12T17:11:20Z</time>
      </trkpt>
      <trkpt lat="46.01751" lon="5.59629">
        <ele>843.4</ele>
        <time>2026-05-12T17:11:21Z</time>
      </trkpt>
      <trkpt lat="46.01752" lon="5.59622">
        <ele>843.4</ele>
        <time>2026-05-12T17:11:22Z</time>
      </trkpt>
      <trkpt lat="46.01753" lon="5.59615">
        <ele>843</ele>
        <time>2026-05-12T17:11:23Z</time>
      </trkpt>
      <trkpt lat="46.01753" lon="5.59606">
        <ele>843</ele>
        <time>2026-05-12T17:11:24Z</time>
      </trkpt>
      <trkpt lat="46.01755" lon="5.596">
        <ele>842.8</ele>
        <time>2026-05-12T17:11:25Z</time>
      </trkpt>
      <trkpt lat="46.01757" lon="5.59593">
        <ele>842.8</ele>
        <time>2026-05-12T17:11:26Z</time>
      </trkpt>
      <trkpt lat="46.01759" lon="5.59586">
        <ele>842.8</ele>
        <time>2026-05-12T17:11:27Z</time>
      </trkpt>
      <trkpt lat="46.0176" lon="5.5958">
        <ele>842.4</ele>
        <time>2026-05-12T17:11:28Z</time>
      </trkpt>
      <trkpt lat="46.01763" lon="5.59574">
        <ele>842.2</ele>
        <time>2026-05-12T17:11:29Z</time>
      </trkpt>
      <trkpt lat="46.01767" lon="5.59569">
        <ele>842.2</ele>
        <time>2026-05-12T17:11:30Z</time>
      </trkpt>
      <trkpt lat="46.01771" lon="5.59563">
        <ele>842.2</ele>
        <time>2026-05-12T17:11:31Z</time>
      </trkpt>
      <trkpt lat="46.01776" lon="5.59559">
        <ele>841.8</ele>
        <time>2026-05-12T17:11:32Z</time>
      </trkpt>
      <trkpt lat="46.01781" lon="5.59555">
        <ele>841.6</ele>
        <time>2026-05-12T17:11:33Z</time>
      </trkpt>
      <trkpt lat="46.01786" lon="5.5955">
        <ele>841.6</ele>
        <time>2026-05-12T17:11:34Z</time>
      </trkpt>
      <trkpt lat="46.01792" lon="5.59547">
        <ele>841.2</ele>
        <time>2026-05-12T17:11:35Z</time>
      </trkpt>
      <trkpt lat="46.01797" lon="5.59544">
        <ele>841.2</ele>
        <time>2026-05-12T17:11:36Z</time>
      </trkpt>
      <trkpt lat="46.01802" lon="5.59541">
        <ele>840.8</ele>
        <time>2026-05-12T17:11:37Z</time>
      </trkpt>
      <trkpt lat="46.01808" lon="5.5954">
        <ele>840.8</ele>
        <time>2026-05-12T17:11:38Z</time>
      </trkpt>
      <trkpt lat="46.01814" lon="5.59538">
        <ele>840.6</ele>
        <time>2026-05-12T17:11:39Z</time>
      </trkpt>
      <trkpt lat="46.01819" lon="5.59536">
        <ele>840.6</ele>
        <time>2026-05-12T17:11:40Z</time>
      </trkpt>
      <trkpt lat="46.01825" lon="5.59534">
        <ele>840.6</ele>
        <time>2026-05-12T17:11:41Z</time>
      </trkpt>
      <trkpt lat="46.01831" lon="5.59532">
        <ele>840.6</ele>
        <time>2026-05-12T17:11:42Z</time>
      </trkpt>
      <trkpt lat="46.01836" lon="5.59531">
        <ele>840.6</ele>
        <time>2026-05-12T17:11:43Z</time>
      </trkpt>
      <trkpt lat="46.01842" lon="5.59531">
        <ele>840.6</ele>
        <time>2026-05-12T17:11:44Z</time>
      </trkpt>
      <trkpt lat="46.01847" lon="5.59533">
        <ele>840.8</ele>
        <time>2026-05-12T17:11:45Z</time>
      </trkpt>
      <trkpt lat="46.01852" lon="5.59535">
        <ele>840.8</ele>
        <time>2026-05-12T17:11:46Z</time>
      </trkpt>
      <trkpt lat="46.01857" lon="5.59538">
        <ele>840.8</ele>
        <time>2026-05-12T17:11:47Z</time>
      </trkpt>
      <trkpt lat="46.0186" lon="5.59541">
        <ele>840.8</ele>
        <time>2026-05-12T17:11:48Z</time>
      </trkpt>
      <trkpt lat="46.01864" lon="5.59544">
        <ele>840.8</ele>
        <time>2026-05-12T17:11:49Z</time>
      </trkpt>
      <trkpt lat="46.01868" lon="5.59547">
        <ele>840.8</ele>
        <time>2026-05-12T17:11:50Z</time>
      </trkpt>
      <trkpt lat="46.01872" lon="5.59548">
        <ele>840.8</ele>
        <time>2026-05-12T17:11:51Z</time>
      </trkpt>
      <trkpt lat="46.01875" lon="5.5955">
        <ele>840.8</ele>
        <time>2026-05-12T17:11:52Z</time>
      </trkpt>
      <trkpt lat="46.01878" lon="5.59552">
        <ele>840.8</ele>
        <time>2026-05-12T17:11:53Z</time>
      </trkpt>
      <trkpt lat="46.01881" lon="5.59554">
        <ele>841</ele>
        <time>2026-05-12T17:11:54Z</time>
      </trkpt>
      <trkpt lat="46.01885" lon="5.59556">
        <ele>841.2</ele>
        <time>2026-05-12T17:11:55Z</time>
      </trkpt>
      <trkpt lat="46.01888" lon="5.59559">
        <ele>841.2</ele>
        <time>2026-05-12T17:11:56Z</time>
      </trkpt>
      <trkpt lat="46.01891" lon="5.5956">
        <ele>841.6</ele>
        <time>2026-05-12T17:11:57Z</time>
      </trkpt>
      <trkpt lat="46.01895" lon="5.59562">
        <ele>841.6</ele>
        <time>2026-05-12T17:11:58Z</time>
      </trkpt>
      <trkpt lat="46.01901" lon="5.59565">
        <ele>841.6</ele>
        <time>2026-05-12T17:11:59Z</time>
      </trkpt>
      <trkpt lat="46.01904" lon="5.59567">
        <ele>841.6</ele>
        <time>2026-05-12T17:12:00Z</time>
      </trkpt>
      <trkpt lat="46.01907" lon="5.59569">
        <ele>842</ele>
        <time>2026-05-12T17:12:01Z</time>
      </trkpt>
      <trkpt lat="46.01911" lon="5.59571">
        <ele>842</ele>
        <time>2026-05-12T17:12:02Z</time>
      </trkpt>
      <trkpt lat="46.01913" lon="5.59573">
        <ele>842</ele>
        <time>2026-05-12T17:12:03Z</time>
      </trkpt>
      <trkpt lat="46.01916" lon="5.59574">
        <ele>842</ele>
        <time>2026-05-12T17:12:04Z</time>
      </trkpt>
      <trkpt lat="46.01919" lon="5.59575">
        <ele>842.2</ele>
        <time>2026-05-12T17:12:05Z</time>
      </trkpt>
      <trkpt lat="46.01922" lon="5.59577">
        <ele>842.6</ele>
        <time>2026-05-12T17:12:06Z</time>
      </trkpt>
      <trkpt lat="46.01926" lon="5.59578">
        <ele>843</ele>
        <time>2026-05-12T17:12:07Z</time>
      </trkpt>
      <trkpt lat="46.01929" lon="5.5958">
        <ele>843</ele>
        <time>2026-05-12T17:12:08Z</time>
      </trkpt>
      <trkpt lat="46.01933" lon="5.59582">
        <ele>843.4</ele>
        <time>2026-05-12T17:12:09Z</time>
      </trkpt>
      <trkpt lat="46.01936" lon="5.59584">
        <ele>843.4</ele>
        <time>2026-05-12T17:12:10Z</time>
      </trkpt>
      <trkpt lat="46.0194" lon="5.59585">
        <ele>843.4</ele>
        <time>2026-05-12T17:12:11Z</time>
      </trkpt>
      <trkpt lat="46.01944" lon="5.59587">
        <ele>843.4</ele>
        <time>2026-05-12T17:12:12Z</time>
      </trkpt>
      <trkpt lat="46.01948" lon="5.59588">
        <ele>843.2</ele>
        <time>2026-05-12T17:12:13Z</time>
      </trkpt>
      <trkpt lat="46.01952" lon="5.59589">
        <ele>843</ele>
        <time>2026-05-12T17:12:14Z</time>
      </trkpt>
      <trkpt lat="46.01956" lon="5.5959">
        <ele>843</ele>
        <time>2026-05-12T17:12:15Z</time>
      </trkpt>
      <trkpt lat="46.0196" lon="5.59592">
        <ele>843</ele>
        <time>2026-05-12T17:12:16Z</time>
      </trkpt>
      <trkpt lat="46.01965" lon="5.59593">
        <ele>843</ele>
        <time>2026-05-12T17:12:17Z</time>
      </trkpt>
      <trkpt lat="46.0197" lon="5.59595">
        <ele>843</ele>
        <time>2026-05-12T17:12:18Z</time>
      </trkpt>
      <trkpt lat="46.01975" lon="5.59596">
        <ele>842.8</ele>
        <time>2026-05-12T17:12:19Z</time>
      </trkpt>
      <trkpt lat="46.01979" lon="5.59597">
        <ele>842.8</ele>
        <time>2026-05-12T17:12:20Z</time>
      </trkpt>
      <trkpt lat="46.01979" lon="5.59597">
        <ele>842.8</ele>
        <time>2026-05-12T17:12:21Z</time>
      </trkpt>
      <trkpt lat="46.01985" lon="5.596">
        <ele>842.8</ele>
        <time>2026-05-12T17:12:22Z</time>
      </trkpt>
      <trkpt lat="46.01989" lon="5.59601">
        <ele>842.4</ele>
        <time>2026-05-12T17:12:23Z</time>
      </trkpt>
      <trkpt lat="46.01994" lon="5.59602">
        <ele>842.2</ele>
        <time>2026-05-12T17:12:24Z</time>
      </trkpt>
      <trkpt lat="46.01999" lon="5.59604">
        <ele>842.2</ele>
        <time>2026-05-12T17:12:25Z</time>
      </trkpt>
      <trkpt lat="46.02005" lon="5.59605">
        <ele>841.8</ele>
        <time>2026-05-12T17:12:26Z</time>
      </trkpt>
      <trkpt lat="46.02011" lon="5.59608">
        <ele>841.8</ele>
        <time>2026-05-12T17:12:27Z</time>
      </trkpt>
      <trkpt lat="46.02016" lon="5.5961">
        <ele>841.6</ele>
        <time>2026-05-12T17:12:28Z</time>
      </trkpt>
      <trkpt lat="46.02022" lon="5.59612">
        <ele>841.2</ele>
        <time>2026-05-12T17:12:29Z</time>
      </trkpt>
      <trkpt lat="46.02028" lon="5.59614">
        <ele>841.2</ele>
        <time>2026-05-12T17:12:30Z</time>
      </trkpt>
      <trkpt lat="46.02033" lon="5.59615">
        <ele>841.2</ele>
        <time>2026-05-12T17:12:31Z</time>
      </trkpt>
      <trkpt lat="46.02038" lon="5.59618">
        <ele>841.2</ele>
        <time>2026-05-12T17:12:32Z</time>
      </trkpt>
      <trkpt lat="46.02042" lon="5.5962">
        <ele>841.2</ele>
        <time>2026-05-12T17:12:33Z</time>
      </trkpt>
      <trkpt lat="46.02048" lon="5.59622">
        <ele>841.2</ele>
        <time>2026-05-12T17:12:34Z</time>
      </trkpt>
      <trkpt lat="46.02053" lon="5.59623">
        <ele>841</ele>
        <time>2026-05-12T17:12:35Z</time>
      </trkpt>
      <trkpt lat="46.02059" lon="5.59625">
        <ele>841</ele>
        <time>2026-05-12T17:12:36Z</time>
      </trkpt>
      <trkpt lat="46.02064" lon="5.59625">
        <ele>840.6</ele>
        <time>2026-05-12T17:12:37Z</time>
      </trkpt>
      <trkpt lat="46.02069" lon="5.59627">
        <ele>840.4</ele>
        <time>2026-05-12T17:12:38Z</time>
      </trkpt>
      <trkpt lat="46.02076" lon="5.59627">
        <ele>840.2</ele>
        <time>2026-05-12T17:12:39Z</time>
      </trkpt>
      <trkpt lat="46.02082" lon="5.59629">
        <ele>839.8</ele>
        <time>2026-05-12T17:12:40Z</time>
      </trkpt>
      <trkpt lat="46.02088" lon="5.59631">
        <ele>839.4</ele>
        <time>2026-05-12T17:12:41Z</time>
      </trkpt>
      <trkpt lat="46.02094" lon="5.59632">
        <ele>839.2</ele>
        <time>2026-05-12T17:12:42Z</time>
      </trkpt>
      <trkpt lat="46.021" lon="5.59634">
        <ele>839</ele>
        <time>2026-05-12T17:12:43Z</time>
      </trkpt>
      <trkpt lat="46.02106" lon="5.59636">
        <ele>839</ele>
        <time>2026-05-12T17:12:44Z</time>
      </trkpt>
      <trkpt lat="46.02111" lon="5.59639">
        <ele>838.8</ele>
        <time>2026-05-12T17:12:45Z</time>
      </trkpt>
      <trkpt lat="46.02118" lon="5.59639">
        <ele>838.8</ele>
        <time>2026-05-12T17:12:46Z</time>
      </trkpt>
      <trkpt lat="46.02124" lon="5.5964">
        <ele>838.8</ele>
        <time>2026-05-12T17:12:47Z</time>
      </trkpt>
      <trkpt lat="46.02131" lon="5.5964">
        <ele>838.8</ele>
        <time>2026-05-12T17:12:48Z</time>
      </trkpt>
      <trkpt lat="46.02137" lon="5.5964">
        <ele>838.8</ele>
        <time>2026-05-12T17:12:49Z</time>
      </trkpt>
      <trkpt lat="46.02143" lon="5.59641">
        <ele>838.8</ele>
        <time>2026-05-12T17:12:50Z</time>
      </trkpt>
      <trkpt lat="46.02149" lon="5.59641">
        <ele>838.4</ele>
        <time>2026-05-12T17:12:51Z</time>
      </trkpt>
      <trkpt lat="46.02155" lon="5.59641">
        <ele>838.4</ele>
        <time>2026-05-12T17:12:52Z</time>
      </trkpt>
      <trkpt lat="46.02161" lon="5.59642">
        <ele>838.4</ele>
        <time>2026-05-12T17:12:53Z</time>
      </trkpt>
      <trkpt lat="46.02167" lon="5.59643">
        <ele>838.4</ele>
        <time>2026-05-12T17:12:54Z</time>
      </trkpt>
      <trkpt lat="46.02172" lon="5.59644">
        <ele>838.8</ele>
        <time>2026-05-12T17:12:55Z</time>
      </trkpt>
      <trkpt lat="46.02177" lon="5.59645">
        <ele>838.8</ele>
        <time>2026-05-12T17:12:56Z</time>
      </trkpt>
      <trkpt lat="46.02181" lon="5.59646">
        <ele>838.8</ele>
        <time>2026-05-12T17:12:57Z</time>
      </trkpt>
      <trkpt lat="46.02186" lon="5.59648">
        <ele>838.8</ele>
        <time>2026-05-12T17:12:58Z</time>
      </trkpt>
      <trkpt lat="46.02191" lon="5.59647">
        <ele>839</ele>
        <time>2026-05-12T17:12:59Z</time>
      </trkpt>
      <trkpt lat="46.02195" lon="5.59646">
        <ele>839</ele>
        <time>2026-05-12T17:13:00Z</time>
      </trkpt>
      <trkpt lat="46.02198" lon="5.59643">
        <ele>839.4</ele>
        <time>2026-05-12T17:13:01Z</time>
      </trkpt>
      <trkpt lat="46.022" lon="5.59638">
        <ele>839.4</ele>
        <time>2026-05-12T17:13:02Z</time>
      </trkpt>
      <trkpt lat="46.02201" lon="5.59632">
        <ele>839.4</ele>
        <time>2026-05-12T17:13:03Z</time>
      </trkpt>
      <trkpt lat="46.022" lon="5.59626">
        <ele>839.4</ele>
        <time>2026-05-12T17:13:04Z</time>
      </trkpt>
      <trkpt lat="46.022" lon="5.5962">
        <ele>839</ele>
        <time>2026-05-12T17:13:05Z</time>
      </trkpt>
      <trkpt lat="46.02202" lon="5.59614">
        <ele>839</ele>
        <time>2026-05-12T17:13:06Z</time>
      </trkpt>
      <trkpt lat="46.02204" lon="5.59609">
        <ele>838.8</ele>
        <time>2026-05-12T17:13:07Z</time>
      </trkpt>
      <trkpt lat="46.02206" lon="5.59603">
        <ele>838.4</ele>
        <time>2026-05-12T17:13:08Z</time>
      </trkpt>
      <trkpt lat="46.02208" lon="5.59597">
        <ele>837.4</ele>
        <time>2026-05-12T17:13:09Z</time>
      </trkpt>
      <trkpt lat="46.0221" lon="5.5959">
        <ele>837.4</ele>
        <time>2026-05-12T17:13:10Z</time>
      </trkpt>
      <trkpt lat="46.02213" lon="5.59582">
        <ele>837.4</ele>
        <time>2026-05-12T17:13:11Z</time>
      </trkpt>
      <trkpt lat="46.02223" lon="5.59442">
        <ele>834.2</ele>
        <time>2026-05-12T17:13:28Z</time>
      </trkpt>
      <trkpt lat="46.02222" lon="5.59434">
        <ele>834.6</ele>
        <time>2026-05-12T17:13:29Z</time>
      </trkpt>
      <trkpt lat="46.02222" lon="5.59426">
        <ele>834.4</ele>
        <time>2026-05-12T17:13:30Z</time>
      </trkpt>
    </trkseg>
  </trk>
</gpx>